<?xml version="1.0" encoding="utf-8"?>
<gpx xmlns:xsi="http://www.w3.org/2001/XMLSchema-instance" xmlns:xsd="http://www.w3.org/2001/XMLSchema" version="1.1" creator="Shapelink.com" xmlns="http://www.topografix.com/GPX/1/1" xmlns:gpxtpx="http://www.garmin.com/xmlschemas/TrackPointExtension/v1">
  <metadata>
    <name>Mtb 52.87 km, 2014-05-29</name>
    <desc></desc>
    <author><name>Mikael Blom</name></author> 
    <time>2014-05-29T09:53:28Z</time>
  </metadata>
  <trk>
    <name>Mtb 52.87 km, 2014-05-29</name>
    <trkseg>
      <trkpt lat="59.8947176" lon="17.7394305">
        <ele>26.5736</ele>
        <time>2014-05-29T09:53:28Z</time>
      </trkpt>
      <trkpt lat="59.8947351" lon="17.739406">
        <ele>26.5736</ele>
        <time>2014-05-29T09:53:29Z</time>
      </trkpt>
      <trkpt lat="59.8947615" lon="17.7393867">
        <ele>26.5736</ele>
        <time>2014-05-29T09:53:30Z</time>
      </trkpt>
      <trkpt lat="59.8947952" lon="17.7393677">
        <ele>26.5736</ele>
        <time>2014-05-29T09:53:31Z</time>
      </trkpt>
      <trkpt lat="59.8948308" lon="17.7393476">
        <ele>26.5736</ele>
        <time>2014-05-29T09:53:32Z</time>
      </trkpt>
      <trkpt lat="59.8948713" lon="17.7393267">
        <ele>27.0543</ele>
        <time>2014-05-29T09:53:33Z</time>
      </trkpt>
      <trkpt lat="59.8949149" lon="17.7393082">
        <ele>27.5349</ele>
        <time>2014-05-29T09:53:34Z</time>
      </trkpt>
      <trkpt lat="59.8949614" lon="17.7392905">
        <ele>28.0155</ele>
        <time>2014-05-29T09:53:35Z</time>
      </trkpt>
      <trkpt lat="59.8950084" lon="17.7392735">
        <ele>28.4962</ele>
        <time>2014-05-29T09:53:36Z</time>
      </trkpt>
      <trkpt lat="59.8950559" lon="17.7392565">
        <ele>28.4962</ele>
        <time>2014-05-29T09:53:37Z</time>
      </trkpt>
      <trkpt lat="59.8951045" lon="17.7392401">
        <ele>28.4962</ele>
        <time>2014-05-29T09:53:38Z</time>
      </trkpt>
      <trkpt lat="59.8951532" lon="17.7392241">
        <ele>28.9769</ele>
        <time>2014-05-29T09:53:39Z</time>
      </trkpt>
      <trkpt lat="59.8952018" lon="17.7392082">
        <ele>28.9769</ele>
        <time>2014-05-29T09:53:40Z</time>
      </trkpt>
      <trkpt lat="59.8952511" lon="17.7391937">
        <ele>29.4575</ele>
        <time>2014-05-29T09:53:41Z</time>
      </trkpt>
      <trkpt lat="59.8953008" lon="17.7391795">
        <ele>29.4575</ele>
        <time>2014-05-29T09:53:42Z</time>
      </trkpt>
      <trkpt lat="59.895351" lon="17.7391648">
        <ele>29.4575</ele>
        <time>2014-05-29T09:53:43Z</time>
      </trkpt>
      <trkpt lat="59.8954027" lon="17.7391527">
        <ele>29.4575</ele>
        <time>2014-05-29T09:53:44Z</time>
      </trkpt>
      <trkpt lat="59.8954552" lon="17.739142">
        <ele>29.9381</ele>
        <time>2014-05-29T09:53:45Z</time>
      </trkpt>
      <trkpt lat="59.8955074" lon="17.7391324">
        <ele>29.9381</ele>
        <time>2014-05-29T09:53:46Z</time>
      </trkpt>
      <trkpt lat="59.8955592" lon="17.7391243">
        <ele>29.9381</ele>
        <time>2014-05-29T09:53:47Z</time>
      </trkpt>
      <trkpt lat="59.8956105" lon="17.7391161">
        <ele>29.9381</ele>
        <time>2014-05-29T09:53:48Z</time>
      </trkpt>
      <trkpt lat="59.8956623" lon="17.7391062">
        <ele>30.4188</ele>
        <time>2014-05-29T09:53:49Z</time>
      </trkpt>
      <trkpt lat="59.8957143" lon="17.7390951">
        <ele>30.4188</ele>
        <time>2014-05-29T09:53:50Z</time>
      </trkpt>
      <trkpt lat="59.8957669" lon="17.7390825">
        <ele>30.4188</ele>
        <time>2014-05-29T09:53:51Z</time>
      </trkpt>
      <trkpt lat="59.8958199" lon="17.7390679">
        <ele>30.4188</ele>
        <time>2014-05-29T09:53:52Z</time>
      </trkpt>
      <trkpt lat="59.8958732" lon="17.7390488">
        <ele>30.4188</ele>
        <time>2014-05-29T09:53:53Z</time>
      </trkpt>
      <trkpt lat="59.8959253" lon="17.7390267">
        <ele>30.8995</ele>
        <time>2014-05-29T09:53:54Z</time>
      </trkpt>
      <trkpt lat="59.8959766" lon="17.7390041">
        <ele>30.8995</ele>
        <time>2014-05-29T09:53:55Z</time>
      </trkpt>
      <trkpt lat="59.8960274" lon="17.7389808">
        <ele>30.8995</ele>
        <time>2014-05-29T09:53:56Z</time>
      </trkpt>
      <trkpt lat="59.8960779" lon="17.7389592">
        <ele>30.8995</ele>
        <time>2014-05-29T09:53:57Z</time>
      </trkpt>
      <trkpt lat="59.8961287" lon="17.7389399">
        <ele>30.8995</ele>
        <time>2014-05-29T09:53:58Z</time>
      </trkpt>
      <trkpt lat="59.8961796" lon="17.7389224">
        <ele>31.3801</ele>
        <time>2014-05-29T09:53:59Z</time>
      </trkpt>
      <trkpt lat="59.8962288" lon="17.7389071">
        <ele>31.3801</ele>
        <time>2014-05-29T09:54:00Z</time>
      </trkpt>
      <trkpt lat="59.8962763" lon="17.7388927">
        <ele>31.8607</ele>
        <time>2014-05-29T09:54:01Z</time>
      </trkpt>
      <trkpt lat="59.8963213" lon="17.7388768">
        <ele>31.8607</ele>
        <time>2014-05-29T09:54:02Z</time>
      </trkpt>
      <trkpt lat="59.8963637" lon="17.7388582">
        <ele>32.3416</ele>
        <time>2014-05-29T09:54:03Z</time>
      </trkpt>
      <trkpt lat="59.8964035" lon="17.7388336">
        <ele>32.3416</ele>
        <time>2014-05-29T09:54:04Z</time>
      </trkpt>
      <trkpt lat="59.8964402" lon="17.738799">
        <ele>32.3416</ele>
        <time>2014-05-29T09:54:05Z</time>
      </trkpt>
      <trkpt lat="59.896475" lon="17.7387543">
        <ele>32.3416</ele>
        <time>2014-05-29T09:54:06Z</time>
      </trkpt>
      <trkpt lat="59.8965058" lon="17.7386975">
        <ele>32.3416</ele>
        <time>2014-05-29T09:54:07Z</time>
      </trkpt>
      <trkpt lat="59.8965326" lon="17.7386273">
        <ele>31.8607</ele>
        <time>2014-05-29T09:54:08Z</time>
      </trkpt>
      <trkpt lat="59.8965555" lon="17.7385462">
        <ele>31.8607</ele>
        <time>2014-05-29T09:54:09Z</time>
      </trkpt>
      <trkpt lat="59.8965786" lon="17.73846">
        <ele>31.8607</ele>
        <time>2014-05-29T09:54:10Z</time>
      </trkpt>
      <trkpt lat="59.8966009" lon="17.7383711">
        <ele>31.8607</ele>
        <time>2014-05-29T09:54:11Z</time>
      </trkpt>
      <trkpt lat="59.8966217" lon="17.7382806">
        <ele>31.8607</ele>
        <time>2014-05-29T09:54:12Z</time>
      </trkpt>
      <trkpt lat="59.8966419" lon="17.7381893">
        <ele>31.8607</ele>
        <time>2014-05-29T09:54:13Z</time>
      </trkpt>
      <trkpt lat="59.8966632" lon="17.738098">
        <ele>31.8607</ele>
        <time>2014-05-29T09:54:14Z</time>
      </trkpt>
      <trkpt lat="59.8966859" lon="17.7380081">
        <ele>31.8607</ele>
        <time>2014-05-29T09:54:15Z</time>
      </trkpt>
      <trkpt lat="59.8967102" lon="17.7379205">
        <ele>31.8607</ele>
        <time>2014-05-29T09:54:16Z</time>
      </trkpt>
      <trkpt lat="59.896736" lon="17.7378358">
        <ele>31.8607</ele>
        <time>2014-05-29T09:54:17Z</time>
      </trkpt>
      <trkpt lat="59.8967624" lon="17.7377526">
        <ele>31.8607</ele>
        <time>2014-05-29T09:54:18Z</time>
      </trkpt>
      <trkpt lat="59.8967902" lon="17.7376717">
        <ele>31.8607</ele>
        <time>2014-05-29T09:54:19Z</time>
      </trkpt>
      <trkpt lat="59.8968195" lon="17.7375915">
        <ele>32.3416</ele>
        <time>2014-05-29T09:54:20Z</time>
      </trkpt>
      <trkpt lat="59.8968491" lon="17.7375121">
        <ele>32.3416</ele>
        <time>2014-05-29T09:54:21Z</time>
      </trkpt>
      <trkpt lat="59.8968784" lon="17.7374334">
        <ele>32.3416</ele>
        <time>2014-05-29T09:54:22Z</time>
      </trkpt>
      <trkpt lat="59.8969054" lon="17.7373499">
        <ele>32.3416</ele>
        <time>2014-05-29T09:54:23Z</time>
      </trkpt>
      <trkpt lat="59.8969324" lon="17.7372621">
        <ele>32.3416</ele>
        <time>2014-05-29T09:54:24Z</time>
      </trkpt>
      <trkpt lat="59.8969611" lon="17.7371761">
        <ele>32.3416</ele>
        <time>2014-05-29T09:54:25Z</time>
      </trkpt>
      <trkpt lat="59.8969901" lon="17.7370923">
        <ele>31.8607</ele>
        <time>2014-05-29T09:54:26Z</time>
      </trkpt>
      <trkpt lat="59.8970183" lon="17.7370056">
        <ele>31.8607</ele>
        <time>2014-05-29T09:54:27Z</time>
      </trkpt>
      <trkpt lat="59.8970461" lon="17.7369136">
        <ele>31.8607</ele>
        <time>2014-05-29T09:54:28Z</time>
      </trkpt>
      <trkpt lat="59.8970745" lon="17.7368184">
        <ele>31.8607</ele>
        <time>2014-05-29T09:54:29Z</time>
      </trkpt>
      <trkpt lat="59.8971019" lon="17.7367187">
        <ele>31.8607</ele>
        <time>2014-05-29T09:54:30Z</time>
      </trkpt>
      <trkpt lat="59.897126" lon="17.7366139">
        <ele>31.3801</ele>
        <time>2014-05-29T09:54:31Z</time>
      </trkpt>
      <trkpt lat="59.897147" lon="17.7365073">
        <ele>31.3801</ele>
        <time>2014-05-29T09:54:32Z</time>
      </trkpt>
      <trkpt lat="59.8971635" lon="17.7364021">
        <ele>31.3801</ele>
        <time>2014-05-29T09:54:33Z</time>
      </trkpt>
      <trkpt lat="59.8971748" lon="17.7362966">
        <ele>31.3801</ele>
        <time>2014-05-29T09:54:34Z</time>
      </trkpt>
      <trkpt lat="59.8971826" lon="17.7361924">
        <ele>31.8607</ele>
        <time>2014-05-29T09:54:35Z</time>
      </trkpt>
      <trkpt lat="59.8971901" lon="17.7360918">
        <ele>31.8607</ele>
        <time>2014-05-29T09:54:36Z</time>
      </trkpt>
      <trkpt lat="59.8971966" lon="17.7359927">
        <ele>31.8607</ele>
        <time>2014-05-29T09:54:37Z</time>
      </trkpt>
      <trkpt lat="59.8971998" lon="17.7358945">
        <ele>31.8607</ele>
        <time>2014-05-29T09:54:38Z</time>
      </trkpt>
      <trkpt lat="59.8972015" lon="17.7357977">
        <ele>31.8607</ele>
        <time>2014-05-29T09:54:39Z</time>
      </trkpt>
      <trkpt lat="59.8972027" lon="17.7357014">
        <ele>31.8607</ele>
        <time>2014-05-29T09:54:40Z</time>
      </trkpt>
      <trkpt lat="59.897203" lon="17.7356073">
        <ele>32.3416</ele>
        <time>2014-05-29T09:54:41Z</time>
      </trkpt>
      <trkpt lat="59.8972038" lon="17.7355168">
        <ele>32.3416</ele>
        <time>2014-05-29T09:54:42Z</time>
      </trkpt>
      <trkpt lat="59.8972043" lon="17.7354278">
        <ele>32.3416</ele>
        <time>2014-05-29T09:54:43Z</time>
      </trkpt>
      <trkpt lat="59.8972056" lon="17.7353397">
        <ele>32.8223</ele>
        <time>2014-05-29T09:54:44Z</time>
      </trkpt>
      <trkpt lat="59.8972068" lon="17.7352535">
        <ele>32.8223</ele>
        <time>2014-05-29T09:54:45Z</time>
      </trkpt>
      <trkpt lat="59.897207" lon="17.7351662">
        <ele>33.3029</ele>
        <time>2014-05-29T09:54:46Z</time>
      </trkpt>
      <trkpt lat="59.8972091" lon="17.735078">
        <ele>33.3029</ele>
        <time>2014-05-29T09:54:47Z</time>
      </trkpt>
      <trkpt lat="59.8972148" lon="17.7349899">
        <ele>33.7834</ele>
        <time>2014-05-29T09:54:48Z</time>
      </trkpt>
      <trkpt lat="59.8972224" lon="17.7349015">
        <ele>34.2642</ele>
        <time>2014-05-29T09:54:49Z</time>
      </trkpt>
      <trkpt lat="59.8972329" lon="17.7348137">
        <ele>34.2642</ele>
        <time>2014-05-29T09:54:50Z</time>
      </trkpt>
      <trkpt lat="59.8972452" lon="17.7347262">
        <ele>34.2642</ele>
        <time>2014-05-29T09:54:51Z</time>
      </trkpt>
      <trkpt lat="59.8972588" lon="17.7346405">
        <ele>34.7449</ele>
        <time>2014-05-29T09:54:52Z</time>
      </trkpt>
      <trkpt lat="59.8972737" lon="17.7345569">
        <ele>34.7449</ele>
        <time>2014-05-29T09:54:53Z</time>
      </trkpt>
      <trkpt lat="59.8972925" lon="17.7344767">
        <ele>35.2255</ele>
        <time>2014-05-29T09:54:54Z</time>
      </trkpt>
      <trkpt lat="59.8973125" lon="17.7344005">
        <ele>35.2255</ele>
        <time>2014-05-29T09:54:55Z</time>
      </trkpt>
      <trkpt lat="59.8973328" lon="17.734326">
        <ele>35.2255</ele>
        <time>2014-05-29T09:54:56Z</time>
      </trkpt>
      <trkpt lat="59.8973541" lon="17.7342518">
        <ele>35.7061</ele>
        <time>2014-05-29T09:54:57Z</time>
      </trkpt>
      <trkpt lat="59.8973747" lon="17.734179">
        <ele>35.7061</ele>
        <time>2014-05-29T09:54:58Z</time>
      </trkpt>
      <trkpt lat="59.8973942" lon="17.7341051">
        <ele>35.7061</ele>
        <time>2014-05-29T09:54:59Z</time>
      </trkpt>
      <trkpt lat="59.897412" lon="17.7340282">
        <ele>35.7061</ele>
        <time>2014-05-29T09:55:00Z</time>
      </trkpt>
      <trkpt lat="59.8974292" lon="17.7339476">
        <ele>35.7061</ele>
        <time>2014-05-29T09:55:01Z</time>
      </trkpt>
      <trkpt lat="59.8974459" lon="17.7338622">
        <ele>35.7061</ele>
        <time>2014-05-29T09:55:02Z</time>
      </trkpt>
      <trkpt lat="59.8974614" lon="17.7337707">
        <ele>35.7061</ele>
        <time>2014-05-29T09:55:03Z</time>
      </trkpt>
      <trkpt lat="59.8974768" lon="17.7336733">
        <ele>35.7061</ele>
        <time>2014-05-29T09:55:04Z</time>
      </trkpt>
      <trkpt lat="59.8974909" lon="17.7335722">
        <ele>35.7061</ele>
        <time>2014-05-29T09:55:05Z</time>
      </trkpt>
      <trkpt lat="59.8975039" lon="17.7334708">
        <ele>35.7061</ele>
        <time>2014-05-29T09:55:06Z</time>
      </trkpt>
      <trkpt lat="59.8975143" lon="17.7333646">
        <ele>35.7061</ele>
        <time>2014-05-29T09:55:07Z</time>
      </trkpt>
      <trkpt lat="59.897523" lon="17.7332571">
        <ele>35.2255</ele>
        <time>2014-05-29T09:55:08Z</time>
      </trkpt>
      <trkpt lat="59.8975319" lon="17.7331447">
        <ele>35.2255</ele>
        <time>2014-05-29T09:55:09Z</time>
      </trkpt>
      <trkpt lat="59.89754" lon="17.7330295">
        <ele>35.7061</ele>
        <time>2014-05-29T09:55:10Z</time>
      </trkpt>
      <trkpt lat="59.897547" lon="17.7329123">
        <ele>35.7061</ele>
        <time>2014-05-29T09:55:11Z</time>
      </trkpt>
      <trkpt lat="59.8975526" lon="17.7327931">
        <ele>36.1868</ele>
        <time>2014-05-29T09:55:12Z</time>
      </trkpt>
      <trkpt lat="59.8975557" lon="17.7326725">
        <ele>36.1868</ele>
        <time>2014-05-29T09:55:13Z</time>
      </trkpt>
      <trkpt lat="59.8975617" lon="17.7325523">
        <ele>36.6675</ele>
        <time>2014-05-29T09:55:14Z</time>
      </trkpt>
      <trkpt lat="59.8975686" lon="17.7324336">
        <ele>36.6675</ele>
        <time>2014-05-29T09:55:15Z</time>
      </trkpt>
      <trkpt lat="59.8975746" lon="17.7323136">
        <ele>37.1481</ele>
        <time>2014-05-29T09:55:16Z</time>
      </trkpt>
      <trkpt lat="59.8975811" lon="17.7321932">
        <ele>37.1481</ele>
        <time>2014-05-29T09:55:17Z</time>
      </trkpt>
      <trkpt lat="59.8975867" lon="17.7320745">
        <ele>37.6287</ele>
        <time>2014-05-29T09:55:18Z</time>
      </trkpt>
      <trkpt lat="59.8975912" lon="17.7319567">
        <ele>37.6287</ele>
        <time>2014-05-29T09:55:19Z</time>
      </trkpt>
      <trkpt lat="59.8975991" lon="17.7318364">
        <ele>38.1094</ele>
        <time>2014-05-29T09:55:20Z</time>
      </trkpt>
      <trkpt lat="59.8976023" lon="17.7317195">
        <ele>38.1094</ele>
        <time>2014-05-29T09:55:21Z</time>
      </trkpt>
      <trkpt lat="59.8976038" lon="17.7316043">
        <ele>38.1094</ele>
        <time>2014-05-29T09:55:22Z</time>
      </trkpt>
      <trkpt lat="59.8976047" lon="17.7314899">
        <ele>38.1094</ele>
        <time>2014-05-29T09:55:23Z</time>
      </trkpt>
      <trkpt lat="59.8976029" lon="17.7313762">
        <ele>38.1094</ele>
        <time>2014-05-29T09:55:24Z</time>
      </trkpt>
      <trkpt lat="59.8976001" lon="17.7312638">
        <ele>37.6287</ele>
        <time>2014-05-29T09:55:25Z</time>
      </trkpt>
      <trkpt lat="59.8975964" lon="17.7311511">
        <ele>38.1094</ele>
        <time>2014-05-29T09:55:26Z</time>
      </trkpt>
      <trkpt lat="59.8975936" lon="17.7310393">
        <ele>38.1094</ele>
        <time>2014-05-29T09:55:27Z</time>
      </trkpt>
      <trkpt lat="59.8975871" lon="17.7309269">
        <ele>37.6287</ele>
        <time>2014-05-29T09:55:28Z</time>
      </trkpt>
      <trkpt lat="59.8975738" lon="17.7308107">
        <ele>37.6287</ele>
        <time>2014-05-29T09:55:29Z</time>
      </trkpt>
      <trkpt lat="59.8975593" lon="17.7306906">
        <ele>37.6287</ele>
        <time>2014-05-29T09:55:30Z</time>
      </trkpt>
      <trkpt lat="59.8975459" lon="17.730562">
        <ele>37.1481</ele>
        <time>2014-05-29T09:55:31Z</time>
      </trkpt>
      <trkpt lat="59.8975322" lon="17.7304259">
        <ele>36.6675</ele>
        <time>2014-05-29T09:55:32Z</time>
      </trkpt>
      <trkpt lat="59.8975166" lon="17.7302835">
        <ele>36.1868</ele>
        <time>2014-05-29T09:55:33Z</time>
      </trkpt>
      <trkpt lat="59.8975071" lon="17.7301317">
        <ele>35.2255</ele>
        <time>2014-05-29T09:55:34Z</time>
      </trkpt>
      <trkpt lat="59.8975075" lon="17.7299711">
        <ele>34.7449</ele>
        <time>2014-05-29T09:55:35Z</time>
      </trkpt>
      <trkpt lat="59.8975174" lon="17.7298064">
        <ele>34.2642</ele>
        <time>2014-05-29T09:55:36Z</time>
      </trkpt>
      <trkpt lat="59.8975356" lon="17.7296385">
        <ele>33.7834</ele>
        <time>2014-05-29T09:55:37Z</time>
      </trkpt>
      <trkpt lat="59.8975552" lon="17.7294738">
        <ele>33.7834</ele>
        <time>2014-05-29T09:55:38Z</time>
      </trkpt>
      <trkpt lat="59.8975777" lon="17.7293142">
        <ele>33.7834</ele>
        <time>2014-05-29T09:55:39Z</time>
      </trkpt>
      <trkpt lat="59.8976029" lon="17.7291594">
        <ele>33.3029</ele>
        <time>2014-05-29T09:55:40Z</time>
      </trkpt>
      <trkpt lat="59.897633" lon="17.7290105">
        <ele>33.3029</ele>
        <time>2014-05-29T09:55:41Z</time>
      </trkpt>
      <trkpt lat="59.8976635" lon="17.7288698">
        <ele>33.3029</ele>
        <time>2014-05-29T09:55:42Z</time>
      </trkpt>
      <trkpt lat="59.897692" lon="17.7287315">
        <ele>33.3029</ele>
        <time>2014-05-29T09:55:43Z</time>
      </trkpt>
      <trkpt lat="59.8977186" lon="17.7285964">
        <ele>33.3029</ele>
        <time>2014-05-29T09:55:44Z</time>
      </trkpt>
      <trkpt lat="59.8977471" lon="17.7284651">
        <ele>33.3029</ele>
        <time>2014-05-29T09:55:45Z</time>
      </trkpt>
      <trkpt lat="59.8977757" lon="17.7283388">
        <ele>33.3029</ele>
        <time>2014-05-29T09:55:46Z</time>
      </trkpt>
      <trkpt lat="59.8978043" lon="17.7282176">
        <ele>32.8223</ele>
        <time>2014-05-29T09:55:47Z</time>
      </trkpt>
      <trkpt lat="59.8978343" lon="17.7281014">
        <ele>32.8223</ele>
        <time>2014-05-29T09:55:48Z</time>
      </trkpt>
      <trkpt lat="59.8978658" lon="17.7279897">
        <ele>32.8223</ele>
        <time>2014-05-29T09:55:49Z</time>
      </trkpt>
      <trkpt lat="59.8979011" lon="17.7278823">
        <ele>32.8223</ele>
        <time>2014-05-29T09:55:50Z</time>
      </trkpt>
      <trkpt lat="59.897937" lon="17.7277794">
        <ele>32.8223</ele>
        <time>2014-05-29T09:55:51Z</time>
      </trkpt>
      <trkpt lat="59.8979735" lon="17.727681">
        <ele>32.8223</ele>
        <time>2014-05-29T09:55:52Z</time>
      </trkpt>
      <trkpt lat="59.8980105" lon="17.7275875">
        <ele>32.8223</ele>
        <time>2014-05-29T09:55:53Z</time>
      </trkpt>
      <trkpt lat="59.8980467" lon="17.7274967">
        <ele>32.8223</ele>
        <time>2014-05-29T09:55:54Z</time>
      </trkpt>
      <trkpt lat="59.8980809" lon="17.7274059">
        <ele>32.8223</ele>
        <time>2014-05-29T09:55:55Z</time>
      </trkpt>
      <trkpt lat="59.8981146" lon="17.7273142">
        <ele>32.8223</ele>
        <time>2014-05-29T09:55:56Z</time>
      </trkpt>
      <trkpt lat="59.8981481" lon="17.7272223">
        <ele>32.8223</ele>
        <time>2014-05-29T09:55:57Z</time>
      </trkpt>
      <trkpt lat="59.8981808" lon="17.7271302">
        <ele>32.8223</ele>
        <time>2014-05-29T09:55:58Z</time>
      </trkpt>
      <trkpt lat="59.8982124" lon="17.7270371">
        <ele>32.8223</ele>
        <time>2014-05-29T09:55:59Z</time>
      </trkpt>
      <trkpt lat="59.8982427" lon="17.7269423">
        <ele>32.8223</ele>
        <time>2014-05-29T09:56:00Z</time>
      </trkpt>
      <trkpt lat="59.8982722" lon="17.7268463">
        <ele>32.3416</ele>
        <time>2014-05-29T09:56:01Z</time>
      </trkpt>
      <trkpt lat="59.8983" lon="17.726749">
        <ele>32.3416</ele>
        <time>2014-05-29T09:56:02Z</time>
      </trkpt>
      <trkpt lat="59.8983268" lon="17.7266513">
        <ele>32.3416</ele>
        <time>2014-05-29T09:56:03Z</time>
      </trkpt>
      <trkpt lat="59.8983534" lon="17.7265543">
        <ele>32.3416</ele>
        <time>2014-05-29T09:56:04Z</time>
      </trkpt>
      <trkpt lat="59.8983789" lon="17.7264573">
        <ele>32.3416</ele>
        <time>2014-05-29T09:56:05Z</time>
      </trkpt>
      <trkpt lat="59.8984034" lon="17.7263605">
        <ele>32.3416</ele>
        <time>2014-05-29T09:56:06Z</time>
      </trkpt>
      <trkpt lat="59.8984264" lon="17.726264">
        <ele>32.3416</ele>
        <time>2014-05-29T09:56:07Z</time>
      </trkpt>
      <trkpt lat="59.8984495" lon="17.7261689">
        <ele>32.3416</ele>
        <time>2014-05-29T09:56:08Z</time>
      </trkpt>
      <trkpt lat="59.8984713" lon="17.7260752">
        <ele>32.3416</ele>
        <time>2014-05-29T09:56:09Z</time>
      </trkpt>
      <trkpt lat="59.8984916" lon="17.7259814">
        <ele>32.3416</ele>
        <time>2014-05-29T09:56:10Z</time>
      </trkpt>
      <trkpt lat="59.8985114" lon="17.7258881">
        <ele>32.3416</ele>
        <time>2014-05-29T09:56:11Z</time>
      </trkpt>
      <trkpt lat="59.8985302" lon="17.7257958">
        <ele>32.8223</ele>
        <time>2014-05-29T09:56:12Z</time>
      </trkpt>
      <trkpt lat="59.8985481" lon="17.7257056">
        <ele>32.8223</ele>
        <time>2014-05-29T09:56:13Z</time>
      </trkpt>
      <trkpt lat="59.8985648" lon="17.7256162">
        <ele>32.8223</ele>
        <time>2014-05-29T09:56:14Z</time>
      </trkpt>
      <trkpt lat="59.8985803" lon="17.7255277">
        <ele>32.8223</ele>
        <time>2014-05-29T09:56:15Z</time>
      </trkpt>
      <trkpt lat="59.8985953" lon="17.7254411">
        <ele>32.8223</ele>
        <time>2014-05-29T09:56:16Z</time>
      </trkpt>
      <trkpt lat="59.8986103" lon="17.7253561">
        <ele>32.8223</ele>
        <time>2014-05-29T09:56:17Z</time>
      </trkpt>
      <trkpt lat="59.8986241" lon="17.7252725">
        <ele>32.8223</ele>
        <time>2014-05-29T09:56:18Z</time>
      </trkpt>
      <trkpt lat="59.8986373" lon="17.7251894">
        <ele>33.3029</ele>
        <time>2014-05-29T09:56:19Z</time>
      </trkpt>
      <trkpt lat="59.8986512" lon="17.725106">
        <ele>33.3029</ele>
        <time>2014-05-29T09:56:20Z</time>
      </trkpt>
      <trkpt lat="59.8986652" lon="17.725022">
        <ele>33.3029</ele>
        <time>2014-05-29T09:56:21Z</time>
      </trkpt>
      <trkpt lat="59.8986793" lon="17.7249391">
        <ele>33.3029</ele>
        <time>2014-05-29T09:56:22Z</time>
      </trkpt>
      <trkpt lat="59.8986942" lon="17.7248577">
        <ele>33.3029</ele>
        <time>2014-05-29T09:56:23Z</time>
      </trkpt>
      <trkpt lat="59.8987077" lon="17.7247748">
        <ele>33.3029</ele>
        <time>2014-05-29T09:56:24Z</time>
      </trkpt>
      <trkpt lat="59.8987194" lon="17.7246899">
        <ele>33.3029</ele>
        <time>2014-05-29T09:56:25Z</time>
      </trkpt>
      <trkpt lat="59.8987319" lon="17.7246049">
        <ele>33.3029</ele>
        <time>2014-05-29T09:56:26Z</time>
      </trkpt>
      <trkpt lat="59.8987455" lon="17.7245201">
        <ele>33.3029</ele>
        <time>2014-05-29T09:56:27Z</time>
      </trkpt>
      <trkpt lat="59.8987591" lon="17.7244345">
        <ele>33.7834</ele>
        <time>2014-05-29T09:56:28Z</time>
      </trkpt>
      <trkpt lat="59.8987719" lon="17.7243481">
        <ele>33.7834</ele>
        <time>2014-05-29T09:56:29Z</time>
      </trkpt>
      <trkpt lat="59.898785" lon="17.7242616">
        <ele>33.7834</ele>
        <time>2014-05-29T09:56:30Z</time>
      </trkpt>
      <trkpt lat="59.8987985" lon="17.7241751">
        <ele>33.7834</ele>
        <time>2014-05-29T09:56:31Z</time>
      </trkpt>
      <trkpt lat="59.8988123" lon="17.7240886">
        <ele>33.7834</ele>
        <time>2014-05-29T09:56:32Z</time>
      </trkpt>
      <trkpt lat="59.8988265" lon="17.7240031">
        <ele>33.7834</ele>
        <time>2014-05-29T09:56:33Z</time>
      </trkpt>
      <trkpt lat="59.8988409" lon="17.7239172">
        <ele>33.7834</ele>
        <time>2014-05-29T09:56:34Z</time>
      </trkpt>
      <trkpt lat="59.8988543" lon="17.7238302">
        <ele>34.2642</ele>
        <time>2014-05-29T09:56:35Z</time>
      </trkpt>
      <trkpt lat="59.8988673" lon="17.7237432">
        <ele>34.2642</ele>
        <time>2014-05-29T09:56:36Z</time>
      </trkpt>
      <trkpt lat="59.8988813" lon="17.7236572">
        <ele>34.2642</ele>
        <time>2014-05-29T09:56:37Z</time>
      </trkpt>
      <trkpt lat="59.8988951" lon="17.7235729">
        <ele>34.2642</ele>
        <time>2014-05-29T09:56:38Z</time>
      </trkpt>
      <trkpt lat="59.8989086" lon="17.7234892">
        <ele>34.2642</ele>
        <time>2014-05-29T09:56:39Z</time>
      </trkpt>
      <trkpt lat="59.898921" lon="17.7234057">
        <ele>34.2642</ele>
        <time>2014-05-29T09:56:40Z</time>
      </trkpt>
      <trkpt lat="59.8989331" lon="17.7233227">
        <ele>34.2642</ele>
        <time>2014-05-29T09:56:41Z</time>
      </trkpt>
      <trkpt lat="59.8989455" lon="17.7232399">
        <ele>34.2642</ele>
        <time>2014-05-29T09:56:42Z</time>
      </trkpt>
      <trkpt lat="59.8989579" lon="17.7231567">
        <ele>34.2642</ele>
        <time>2014-05-29T09:56:43Z</time>
      </trkpt>
      <trkpt lat="59.8989712" lon="17.7230732">
        <ele>34.2642</ele>
        <time>2014-05-29T09:56:44Z</time>
      </trkpt>
      <trkpt lat="59.8989848" lon="17.7229893">
        <ele>34.2642</ele>
        <time>2014-05-29T09:56:45Z</time>
      </trkpt>
      <trkpt lat="59.8989983" lon="17.7229052">
        <ele>34.2642</ele>
        <time>2014-05-29T09:56:46Z</time>
      </trkpt>
      <trkpt lat="59.8990117" lon="17.7228206">
        <ele>34.2642</ele>
        <time>2014-05-29T09:56:47Z</time>
      </trkpt>
      <trkpt lat="59.8990247" lon="17.7227363">
        <ele>34.2642</ele>
        <time>2014-05-29T09:56:48Z</time>
      </trkpt>
      <trkpt lat="59.8990377" lon="17.7226525">
        <ele>34.2642</ele>
        <time>2014-05-29T09:56:49Z</time>
      </trkpt>
      <trkpt lat="59.8990507" lon="17.7225673">
        <ele>34.2642</ele>
        <time>2014-05-29T09:56:50Z</time>
      </trkpt>
      <trkpt lat="59.8990687" lon="17.7224777">
        <ele>34.7449</ele>
        <time>2014-05-29T09:56:51Z</time>
      </trkpt>
      <trkpt lat="59.8990863" lon="17.7223869">
        <ele>35.7061</ele>
        <time>2014-05-29T09:56:52Z</time>
      </trkpt>
      <trkpt lat="59.8991031" lon="17.7222958">
        <ele>36.1868</ele>
        <time>2014-05-29T09:56:53Z</time>
      </trkpt>
      <trkpt lat="59.899119" lon="17.7222051">
        <ele>36.6675</ele>
        <time>2014-05-29T09:56:54Z</time>
      </trkpt>
      <trkpt lat="59.899134" lon="17.7221129">
        <ele>36.6675</ele>
        <time>2014-05-29T09:56:55Z</time>
      </trkpt>
      <trkpt lat="59.8991496" lon="17.7220181">
        <ele>37.1481</ele>
        <time>2014-05-29T09:56:56Z</time>
      </trkpt>
      <trkpt lat="59.8991652" lon="17.7219222">
        <ele>37.6287</ele>
        <time>2014-05-29T09:56:57Z</time>
      </trkpt>
      <trkpt lat="59.8991803" lon="17.7218249">
        <ele>37.6287</ele>
        <time>2014-05-29T09:56:58Z</time>
      </trkpt>
      <trkpt lat="59.8991955" lon="17.7217285">
        <ele>37.6287</ele>
        <time>2014-05-29T09:56:59Z</time>
      </trkpt>
      <trkpt lat="59.8992111" lon="17.7216333">
        <ele>38.1094</ele>
        <time>2014-05-29T09:57:00Z</time>
      </trkpt>
      <trkpt lat="59.8992258" lon="17.7215379">
        <ele>38.1094</ele>
        <time>2014-05-29T09:57:01Z</time>
      </trkpt>
      <trkpt lat="59.8992411" lon="17.7214411">
        <ele>38.1094</ele>
        <time>2014-05-29T09:57:02Z</time>
      </trkpt>
      <trkpt lat="59.8992572" lon="17.7213432">
        <ele>38.1094</ele>
        <time>2014-05-29T09:57:03Z</time>
      </trkpt>
      <trkpt lat="59.8992739" lon="17.7212436">
        <ele>38.5901</ele>
        <time>2014-05-29T09:57:04Z</time>
      </trkpt>
      <trkpt lat="59.8992906" lon="17.7211426">
        <ele>38.5901</ele>
        <time>2014-05-29T09:57:05Z</time>
      </trkpt>
      <trkpt lat="59.8993077" lon="17.7210433">
        <ele>38.5901</ele>
        <time>2014-05-29T09:57:06Z</time>
      </trkpt>
      <trkpt lat="59.8993256" lon="17.7209468">
        <ele>38.5901</ele>
        <time>2014-05-29T09:57:07Z</time>
      </trkpt>
      <trkpt lat="59.8993433" lon="17.7208515">
        <ele>38.5901</ele>
        <time>2014-05-29T09:57:08Z</time>
      </trkpt>
      <trkpt lat="59.8993608" lon="17.7207562">
        <ele>39.0707</ele>
        <time>2014-05-29T09:57:09Z</time>
      </trkpt>
      <trkpt lat="59.8993779" lon="17.7206605">
        <ele>39.0707</ele>
        <time>2014-05-29T09:57:10Z</time>
      </trkpt>
      <trkpt lat="59.8993942" lon="17.720565">
        <ele>38.5901</ele>
        <time>2014-05-29T09:57:11Z</time>
      </trkpt>
      <trkpt lat="59.8994121" lon="17.7204686">
        <ele>38.5901</ele>
        <time>2014-05-29T09:57:12Z</time>
      </trkpt>
      <trkpt lat="59.8994309" lon="17.7203714">
        <ele>39.0707</ele>
        <time>2014-05-29T09:57:13Z</time>
      </trkpt>
      <trkpt lat="59.8994495" lon="17.7202739">
        <ele>39.0707</ele>
        <time>2014-05-29T09:57:14Z</time>
      </trkpt>
      <trkpt lat="59.8994681" lon="17.7201765">
        <ele>39.0707</ele>
        <time>2014-05-29T09:57:15Z</time>
      </trkpt>
      <trkpt lat="59.8994867" lon="17.7200781">
        <ele>39.0707</ele>
        <time>2014-05-29T09:57:16Z</time>
      </trkpt>
      <trkpt lat="59.8995061" lon="17.7199781">
        <ele>39.0707</ele>
        <time>2014-05-29T09:57:17Z</time>
      </trkpt>
      <trkpt lat="59.899527" lon="17.7198782">
        <ele>39.0707</ele>
        <time>2014-05-29T09:57:18Z</time>
      </trkpt>
      <trkpt lat="59.8995486" lon="17.7197787">
        <ele>39.0707</ele>
        <time>2014-05-29T09:57:19Z</time>
      </trkpt>
      <trkpt lat="59.8995687" lon="17.7196658">
        <ele>39.0707</ele>
        <time>2014-05-29T09:57:20Z</time>
      </trkpt>
      <trkpt lat="59.8995895" lon="17.7195644">
        <ele>39.0707</ele>
        <time>2014-05-29T09:57:21Z</time>
      </trkpt>
      <trkpt lat="59.8996111" lon="17.7194591">
        <ele>38.5901</ele>
        <time>2014-05-29T09:57:22Z</time>
      </trkpt>
      <trkpt lat="59.8996346" lon="17.7193617">
        <ele>38.5901</ele>
        <time>2014-05-29T09:57:23Z</time>
      </trkpt>
      <trkpt lat="59.8996519" lon="17.7192681">
        <ele>38.5901</ele>
        <time>2014-05-29T09:57:24Z</time>
      </trkpt>
      <trkpt lat="59.8996717" lon="17.7191771">
        <ele>38.1094</ele>
        <time>2014-05-29T09:57:25Z</time>
      </trkpt>
      <trkpt lat="59.8996917" lon="17.7190899">
        <ele>37.6287</ele>
        <time>2014-05-29T09:57:26Z</time>
      </trkpt>
      <trkpt lat="59.8997158" lon="17.7189981">
        <ele>37.1481</ele>
        <time>2014-05-29T09:57:27Z</time>
      </trkpt>
      <trkpt lat="59.899743" lon="17.7189103">
        <ele>36.6675</ele>
        <time>2014-05-29T09:57:28Z</time>
      </trkpt>
      <trkpt lat="59.8997705" lon="17.7188231">
        <ele>36.1868</ele>
        <time>2014-05-29T09:57:29Z</time>
      </trkpt>
      <trkpt lat="59.8998001" lon="17.7187363">
        <ele>36.1868</ele>
        <time>2014-05-29T09:57:30Z</time>
      </trkpt>
      <trkpt lat="59.8998306" lon="17.7186453">
        <ele>35.7061</ele>
        <time>2014-05-29T09:57:31Z</time>
      </trkpt>
      <trkpt lat="59.8998578" lon="17.7185603">
        <ele>35.2255</ele>
        <time>2014-05-29T09:57:32Z</time>
      </trkpt>
      <trkpt lat="59.8998919" lon="17.7184726">
        <ele>35.2255</ele>
        <time>2014-05-29T09:57:33Z</time>
      </trkpt>
      <trkpt lat="59.8999231" lon="17.7183828">
        <ele>35.2255</ele>
        <time>2014-05-29T09:57:34Z</time>
      </trkpt>
      <trkpt lat="59.899952" lon="17.7182923">
        <ele>34.7449</ele>
        <time>2014-05-29T09:57:35Z</time>
      </trkpt>
      <trkpt lat="59.8999805" lon="17.7182014">
        <ele>34.2642</ele>
        <time>2014-05-29T09:57:36Z</time>
      </trkpt>
      <trkpt lat="59.9000079" lon="17.718107">
        <ele>34.2642</ele>
        <time>2014-05-29T09:57:37Z</time>
      </trkpt>
      <trkpt lat="59.900031" lon="17.7180074">
        <ele>33.7834</ele>
        <time>2014-05-29T09:57:38Z</time>
      </trkpt>
      <trkpt lat="59.9000518" lon="17.717906">
        <ele>33.7834</ele>
        <time>2014-05-29T09:57:39Z</time>
      </trkpt>
      <trkpt lat="59.9000709" lon="17.7178028">
        <ele>33.3029</ele>
        <time>2014-05-29T09:57:40Z</time>
      </trkpt>
      <trkpt lat="59.9000881" lon="17.7176979">
        <ele>32.8223</ele>
        <time>2014-05-29T09:57:41Z</time>
      </trkpt>
      <trkpt lat="59.9001013" lon="17.7175901">
        <ele>32.8223</ele>
        <time>2014-05-29T09:57:42Z</time>
      </trkpt>
      <trkpt lat="59.9001096" lon="17.7174803">
        <ele>32.8223</ele>
        <time>2014-05-29T09:57:43Z</time>
      </trkpt>
      <trkpt lat="59.9001172" lon="17.7173689">
        <ele>32.3416</ele>
        <time>2014-05-29T09:57:44Z</time>
      </trkpt>
      <trkpt lat="59.9001243" lon="17.7172564">
        <ele>32.3416</ele>
        <time>2014-05-29T09:57:45Z</time>
      </trkpt>
      <trkpt lat="59.9001296" lon="17.7171429">
        <ele>32.3416</ele>
        <time>2014-05-29T09:57:46Z</time>
      </trkpt>
      <trkpt lat="59.9001346" lon="17.7170291">
        <ele>32.3416</ele>
        <time>2014-05-29T09:57:47Z</time>
      </trkpt>
      <trkpt lat="59.9001394" lon="17.7169147">
        <ele>32.3416</ele>
        <time>2014-05-29T09:57:48Z</time>
      </trkpt>
      <trkpt lat="59.9001434" lon="17.716799">
        <ele>32.3416</ele>
        <time>2014-05-29T09:57:49Z</time>
      </trkpt>
      <trkpt lat="59.9001487" lon="17.7166831">
        <ele>32.3416</ele>
        <time>2014-05-29T09:57:50Z</time>
      </trkpt>
      <trkpt lat="59.9001554" lon="17.7165672">
        <ele>32.3416</ele>
        <time>2014-05-29T09:57:51Z</time>
      </trkpt>
      <trkpt lat="59.9001648" lon="17.7164496">
        <ele>32.3416</ele>
        <time>2014-05-29T09:57:52Z</time>
      </trkpt>
      <trkpt lat="59.9001748" lon="17.7163325">
        <ele>32.8223</ele>
        <time>2014-05-29T09:57:53Z</time>
      </trkpt>
      <trkpt lat="59.900186" lon="17.7162169">
        <ele>33.3029</ele>
        <time>2014-05-29T09:57:54Z</time>
      </trkpt>
      <trkpt lat="59.900198" lon="17.7161048">
        <ele>33.7834</ele>
        <time>2014-05-29T09:57:55Z</time>
      </trkpt>
      <trkpt lat="59.900211" lon="17.7159972">
        <ele>33.7834</ele>
        <time>2014-05-29T09:57:56Z</time>
      </trkpt>
      <trkpt lat="59.900226" lon="17.7158924">
        <ele>34.2642</ele>
        <time>2014-05-29T09:57:57Z</time>
      </trkpt>
      <trkpt lat="59.9002426" lon="17.7157899">
        <ele>34.7449</ele>
        <time>2014-05-29T09:57:58Z</time>
      </trkpt>
      <trkpt lat="59.9002602" lon="17.7156894">
        <ele>34.7449</ele>
        <time>2014-05-29T09:57:59Z</time>
      </trkpt>
      <trkpt lat="59.9002793" lon="17.7155896">
        <ele>34.7449</ele>
        <time>2014-05-29T09:58:00Z</time>
      </trkpt>
      <trkpt lat="59.9002985" lon="17.7154922">
        <ele>35.2255</ele>
        <time>2014-05-29T09:58:01Z</time>
      </trkpt>
      <trkpt lat="59.9003193" lon="17.7153962">
        <ele>35.2255</ele>
        <time>2014-05-29T09:58:02Z</time>
      </trkpt>
      <trkpt lat="59.9003408" lon="17.7152999">
        <ele>35.7061</ele>
        <time>2014-05-29T09:58:03Z</time>
      </trkpt>
      <trkpt lat="59.9003621" lon="17.7152035">
        <ele>35.7061</ele>
        <time>2014-05-29T09:58:04Z</time>
      </trkpt>
      <trkpt lat="59.9003845" lon="17.7151062">
        <ele>35.7061</ele>
        <time>2014-05-29T09:58:05Z</time>
      </trkpt>
      <trkpt lat="59.9004078" lon="17.7150099">
        <ele>35.7061</ele>
        <time>2014-05-29T09:58:06Z</time>
      </trkpt>
      <trkpt lat="59.9004321" lon="17.7149139">
        <ele>35.7061</ele>
        <time>2014-05-29T09:58:07Z</time>
      </trkpt>
      <trkpt lat="59.9004565" lon="17.7148184">
        <ele>35.7061</ele>
        <time>2014-05-29T09:58:08Z</time>
      </trkpt>
      <trkpt lat="59.9004819" lon="17.7147243">
        <ele>35.7061</ele>
        <time>2014-05-29T09:58:09Z</time>
      </trkpt>
      <trkpt lat="59.9005079" lon="17.71463">
        <ele>35.7061</ele>
        <time>2014-05-29T09:58:10Z</time>
      </trkpt>
      <trkpt lat="59.9005357" lon="17.7145364">
        <ele>35.7061</ele>
        <time>2014-05-29T09:58:11Z</time>
      </trkpt>
      <trkpt lat="59.9005653" lon="17.7144422">
        <ele>35.7061</ele>
        <time>2014-05-29T09:58:12Z</time>
      </trkpt>
      <trkpt lat="59.9005957" lon="17.7143458">
        <ele>35.7061</ele>
        <time>2014-05-29T09:58:13Z</time>
      </trkpt>
      <trkpt lat="59.9006267" lon="17.7142473">
        <ele>35.7061</ele>
        <time>2014-05-29T09:58:14Z</time>
      </trkpt>
      <trkpt lat="59.9006585" lon="17.714149">
        <ele>35.7061</ele>
        <time>2014-05-29T09:58:15Z</time>
      </trkpt>
      <trkpt lat="59.9006907" lon="17.7140531">
        <ele>35.7061</ele>
        <time>2014-05-29T09:58:16Z</time>
      </trkpt>
      <trkpt lat="59.9007205" lon="17.7139585">
        <ele>35.7061</ele>
        <time>2014-05-29T09:58:17Z</time>
      </trkpt>
      <trkpt lat="59.9007477" lon="17.7138651">
        <ele>35.7061</ele>
        <time>2014-05-29T09:58:18Z</time>
      </trkpt>
      <trkpt lat="59.9007752" lon="17.7137749">
        <ele>35.7061</ele>
        <time>2014-05-29T09:58:19Z</time>
      </trkpt>
      <trkpt lat="59.9008036" lon="17.7136869">
        <ele>35.7061</ele>
        <time>2014-05-29T09:58:20Z</time>
      </trkpt>
      <trkpt lat="59.9008311" lon="17.7135989">
        <ele>35.7061</ele>
        <time>2014-05-29T09:58:21Z</time>
      </trkpt>
      <trkpt lat="59.9008585" lon="17.7135118">
        <ele>35.7061</ele>
        <time>2014-05-29T09:58:22Z</time>
      </trkpt>
      <trkpt lat="59.9008845" lon="17.7134248">
        <ele>35.7061</ele>
        <time>2014-05-29T09:58:23Z</time>
      </trkpt>
      <trkpt lat="59.9009087" lon="17.7133378">
        <ele>35.7061</ele>
        <time>2014-05-29T09:58:24Z</time>
      </trkpt>
      <trkpt lat="59.9009321" lon="17.7132516">
        <ele>35.7061</ele>
        <time>2014-05-29T09:58:25Z</time>
      </trkpt>
      <trkpt lat="59.9009559" lon="17.7131661">
        <ele>36.1868</ele>
        <time>2014-05-29T09:58:26Z</time>
      </trkpt>
      <trkpt lat="59.9009807" lon="17.7130818">
        <ele>36.1868</ele>
        <time>2014-05-29T09:58:27Z</time>
      </trkpt>
      <trkpt lat="59.901006" lon="17.7129989">
        <ele>36.1868</ele>
        <time>2014-05-29T09:58:28Z</time>
      </trkpt>
      <trkpt lat="59.9010318" lon="17.7129175">
        <ele>36.1868</ele>
        <time>2014-05-29T09:58:29Z</time>
      </trkpt>
      <trkpt lat="59.901058" lon="17.7128405">
        <ele>36.1868</ele>
        <time>2014-05-29T09:58:30Z</time>
      </trkpt>
      <trkpt lat="59.9010788" lon="17.7127643">
        <ele>36.1868</ele>
        <time>2014-05-29T09:58:31Z</time>
      </trkpt>
      <trkpt lat="59.9010868" lon="17.7126846">
        <ele>36.1868</ele>
        <time>2014-05-29T09:58:32Z</time>
      </trkpt>
      <trkpt lat="59.9010761" lon="17.7126101">
        <ele>36.1868</ele>
        <time>2014-05-29T09:58:33Z</time>
      </trkpt>
      <trkpt lat="59.9010435" lon="17.7125493">
        <ele>36.1868</ele>
        <time>2014-05-29T09:58:34Z</time>
      </trkpt>
      <trkpt lat="59.9009999" lon="17.7124969">
        <ele>36.1868</ele>
        <time>2014-05-29T09:58:35Z</time>
      </trkpt>
      <trkpt lat="59.9009528" lon="17.7124453">
        <ele>35.7061</ele>
        <time>2014-05-29T09:58:36Z</time>
      </trkpt>
      <trkpt lat="59.9009026" lon="17.7123954">
        <ele>35.7061</ele>
        <time>2014-05-29T09:58:37Z</time>
      </trkpt>
      <trkpt lat="59.9008517" lon="17.7123428">
        <ele>35.7061</ele>
        <time>2014-05-29T09:58:38Z</time>
      </trkpt>
      <trkpt lat="59.900801" lon="17.7122877">
        <ele>35.7061</ele>
        <time>2014-05-29T09:58:39Z</time>
      </trkpt>
      <trkpt lat="59.9007503" lon="17.7122318">
        <ele>35.7061</ele>
        <time>2014-05-29T09:58:40Z</time>
      </trkpt>
      <trkpt lat="59.9006999" lon="17.7121754">
        <ele>35.7061</ele>
        <time>2014-05-29T09:58:41Z</time>
      </trkpt>
      <trkpt lat="59.9006492" lon="17.7121185">
        <ele>35.7061</ele>
        <time>2014-05-29T09:58:42Z</time>
      </trkpt>
      <trkpt lat="59.9005986" lon="17.7120609">
        <ele>35.7061</ele>
        <time>2014-05-29T09:58:43Z</time>
      </trkpt>
      <trkpt lat="59.9005485" lon="17.7120027">
        <ele>35.2255</ele>
        <time>2014-05-29T09:58:44Z</time>
      </trkpt>
      <trkpt lat="59.9004975" lon="17.7119462">
        <ele>35.2255</ele>
        <time>2014-05-29T09:58:45Z</time>
      </trkpt>
      <trkpt lat="59.9004461" lon="17.7118892">
        <ele>35.2255</ele>
        <time>2014-05-29T09:58:46Z</time>
      </trkpt>
      <trkpt lat="59.9003943" lon="17.711831">
        <ele>35.2255</ele>
        <time>2014-05-29T09:58:47Z</time>
      </trkpt>
      <trkpt lat="59.9003419" lon="17.7117738">
        <ele>35.2255</ele>
        <time>2014-05-29T09:58:48Z</time>
      </trkpt>
      <trkpt lat="59.9002887" lon="17.7117164">
        <ele>35.2255</ele>
        <time>2014-05-29T09:58:49Z</time>
      </trkpt>
      <trkpt lat="59.9002351" lon="17.7116574">
        <ele>35.2255</ele>
        <time>2014-05-29T09:58:50Z</time>
      </trkpt>
      <trkpt lat="59.9001815" lon="17.7115957">
        <ele>35.2255</ele>
        <time>2014-05-29T09:58:51Z</time>
      </trkpt>
      <trkpt lat="59.9001271" lon="17.7115325">
        <ele>35.2255</ele>
        <time>2014-05-29T09:58:52Z</time>
      </trkpt>
      <trkpt lat="59.9000711" lon="17.7114688">
        <ele>35.2255</ele>
        <time>2014-05-29T09:58:53Z</time>
      </trkpt>
      <trkpt lat="59.9000141" lon="17.711404">
        <ele>35.2255</ele>
        <time>2014-05-29T09:58:54Z</time>
      </trkpt>
      <trkpt lat="59.8999564" lon="17.7113388">
        <ele>35.2255</ele>
        <time>2014-05-29T09:58:55Z</time>
      </trkpt>
      <trkpt lat="59.8998989" lon="17.7112741">
        <ele>35.2255</ele>
        <time>2014-05-29T09:58:56Z</time>
      </trkpt>
      <trkpt lat="59.8998416" lon="17.7112077">
        <ele>35.2255</ele>
        <time>2014-05-29T09:58:57Z</time>
      </trkpt>
      <trkpt lat="59.8997831" lon="17.7111393">
        <ele>35.2255</ele>
        <time>2014-05-29T09:58:58Z</time>
      </trkpt>
      <trkpt lat="59.8997241" lon="17.711071">
        <ele>35.2255</ele>
        <time>2014-05-29T09:58:59Z</time>
      </trkpt>
      <trkpt lat="59.899665" lon="17.7110032">
        <ele>35.2255</ele>
        <time>2014-05-29T09:59:00Z</time>
      </trkpt>
      <trkpt lat="59.8996061" lon="17.7109348">
        <ele>35.2255</ele>
        <time>2014-05-29T09:59:01Z</time>
      </trkpt>
      <trkpt lat="59.8995473" lon="17.7108639">
        <ele>35.2255</ele>
        <time>2014-05-29T09:59:02Z</time>
      </trkpt>
      <trkpt lat="59.8994884" lon="17.7107907">
        <ele>35.2255</ele>
        <time>2014-05-29T09:59:03Z</time>
      </trkpt>
      <trkpt lat="59.8994286" lon="17.7107175">
        <ele>35.7061</ele>
        <time>2014-05-29T09:59:04Z</time>
      </trkpt>
      <trkpt lat="59.8993673" lon="17.7106446">
        <ele>35.7061</ele>
        <time>2014-05-29T09:59:05Z</time>
      </trkpt>
      <trkpt lat="59.899305" lon="17.7105711">
        <ele>35.7061</ele>
        <time>2014-05-29T09:59:06Z</time>
      </trkpt>
      <trkpt lat="59.8992423" lon="17.7104951">
        <ele>35.7061</ele>
        <time>2014-05-29T09:59:07Z</time>
      </trkpt>
      <trkpt lat="59.8991792" lon="17.7104167">
        <ele>35.7061</ele>
        <time>2014-05-29T09:59:08Z</time>
      </trkpt>
      <trkpt lat="59.8991168" lon="17.7103347">
        <ele>35.7061</ele>
        <time>2014-05-29T09:59:09Z</time>
      </trkpt>
      <trkpt lat="59.8990547" lon="17.7102505">
        <ele>35.7061</ele>
        <time>2014-05-29T09:59:10Z</time>
      </trkpt>
      <trkpt lat="59.8989924" lon="17.7101697">
        <ele>35.7061</ele>
        <time>2014-05-29T09:59:11Z</time>
      </trkpt>
      <trkpt lat="59.8989295" lon="17.7100898">
        <ele>35.7061</ele>
        <time>2014-05-29T09:59:12Z</time>
      </trkpt>
      <trkpt lat="59.8988668" lon="17.7100075">
        <ele>35.7061</ele>
        <time>2014-05-29T09:59:13Z</time>
      </trkpt>
      <trkpt lat="59.898804" lon="17.7099246">
        <ele>35.7061</ele>
        <time>2014-05-29T09:59:14Z</time>
      </trkpt>
      <trkpt lat="59.8987404" lon="17.7098428">
        <ele>35.7061</ele>
        <time>2014-05-29T09:59:15Z</time>
      </trkpt>
      <trkpt lat="59.8986761" lon="17.7097613">
        <ele>35.7061</ele>
        <time>2014-05-29T09:59:16Z</time>
      </trkpt>
      <trkpt lat="59.8986107" lon="17.7096791">
        <ele>35.7061</ele>
        <time>2014-05-29T09:59:17Z</time>
      </trkpt>
      <trkpt lat="59.8985451" lon="17.7095955">
        <ele>35.7061</ele>
        <time>2014-05-29T09:59:18Z</time>
      </trkpt>
      <trkpt lat="59.8984803" lon="17.7095088">
        <ele>35.7061</ele>
        <time>2014-05-29T09:59:19Z</time>
      </trkpt>
      <trkpt lat="59.8984154" lon="17.7094217">
        <ele>35.7061</ele>
        <time>2014-05-29T09:59:20Z</time>
      </trkpt>
      <trkpt lat="59.8983494" lon="17.709335">
        <ele>35.7061</ele>
        <time>2014-05-29T09:59:21Z</time>
      </trkpt>
      <trkpt lat="59.898283" lon="17.7092486">
        <ele>35.7061</ele>
        <time>2014-05-29T09:59:22Z</time>
      </trkpt>
      <trkpt lat="59.8982167" lon="17.7091619">
        <ele>35.7061</ele>
        <time>2014-05-29T09:59:23Z</time>
      </trkpt>
      <trkpt lat="59.8981507" lon="17.7090746">
        <ele>35.7061</ele>
        <time>2014-05-29T09:59:24Z</time>
      </trkpt>
      <trkpt lat="59.8980845" lon="17.7089871">
        <ele>35.7061</ele>
        <time>2014-05-29T09:59:25Z</time>
      </trkpt>
      <trkpt lat="59.8980184" lon="17.7088991">
        <ele>35.7061</ele>
        <time>2014-05-29T09:59:26Z</time>
      </trkpt>
      <trkpt lat="59.8979523" lon="17.7088108">
        <ele>35.7061</ele>
        <time>2014-05-29T09:59:27Z</time>
      </trkpt>
      <trkpt lat="59.8978856" lon="17.7087233">
        <ele>35.7061</ele>
        <time>2014-05-29T09:59:28Z</time>
      </trkpt>
      <trkpt lat="59.8978188" lon="17.708639">
        <ele>35.7061</ele>
        <time>2014-05-29T09:59:29Z</time>
      </trkpt>
      <trkpt lat="59.8977513" lon="17.7085597">
        <ele>35.2255</ele>
        <time>2014-05-29T09:59:30Z</time>
      </trkpt>
      <trkpt lat="59.897682" lon="17.7084866">
        <ele>35.7061</ele>
        <time>2014-05-29T09:59:31Z</time>
      </trkpt>
      <trkpt lat="59.8976126" lon="17.7084147">
        <ele>35.7061</ele>
        <time>2014-05-29T09:59:32Z</time>
      </trkpt>
      <trkpt lat="59.8975462" lon="17.7083358">
        <ele>35.7061</ele>
        <time>2014-05-29T09:59:33Z</time>
      </trkpt>
      <trkpt lat="59.8974836" lon="17.7082468">
        <ele>35.7061</ele>
        <time>2014-05-29T09:59:34Z</time>
      </trkpt>
      <trkpt lat="59.8974249" lon="17.7081502">
        <ele>35.7061</ele>
        <time>2014-05-29T09:59:35Z</time>
      </trkpt>
      <trkpt lat="59.8973683" lon="17.708052">
        <ele>35.7061</ele>
        <time>2014-05-29T09:59:36Z</time>
      </trkpt>
      <trkpt lat="59.8973104" lon="17.7079604">
        <ele>35.7061</ele>
        <time>2014-05-29T09:59:37Z</time>
      </trkpt>
      <trkpt lat="59.8972511" lon="17.7078747">
        <ele>35.7061</ele>
        <time>2014-05-29T09:59:38Z</time>
      </trkpt>
      <trkpt lat="59.8971914" lon="17.7077919">
        <ele>35.7061</ele>
        <time>2014-05-29T09:59:39Z</time>
      </trkpt>
      <trkpt lat="59.8971314" lon="17.7077122">
        <ele>35.7061</ele>
        <time>2014-05-29T09:59:40Z</time>
      </trkpt>
      <trkpt lat="59.8970714" lon="17.7076338">
        <ele>36.1868</ele>
        <time>2014-05-29T09:59:41Z</time>
      </trkpt>
      <trkpt lat="59.8970127" lon="17.7075557">
        <ele>36.1868</ele>
        <time>2014-05-29T09:59:42Z</time>
      </trkpt>
      <trkpt lat="59.8969543" lon="17.7074782">
        <ele>36.1868</ele>
        <time>2014-05-29T09:59:43Z</time>
      </trkpt>
      <trkpt lat="59.8968968" lon="17.7074014">
        <ele>36.1868</ele>
        <time>2014-05-29T09:59:44Z</time>
      </trkpt>
      <trkpt lat="59.8968394" lon="17.7073246">
        <ele>36.1868</ele>
        <time>2014-05-29T09:59:45Z</time>
      </trkpt>
      <trkpt lat="59.8967823" lon="17.7072489">
        <ele>36.1868</ele>
        <time>2014-05-29T09:59:46Z</time>
      </trkpt>
      <trkpt lat="59.8967259" lon="17.707173">
        <ele>36.1868</ele>
        <time>2014-05-29T09:59:47Z</time>
      </trkpt>
      <trkpt lat="59.8966694" lon="17.7070969">
        <ele>36.1868</ele>
        <time>2014-05-29T09:59:48Z</time>
      </trkpt>
      <trkpt lat="59.8966124" lon="17.7070217">
        <ele>36.1868</ele>
        <time>2014-05-29T09:59:49Z</time>
      </trkpt>
      <trkpt lat="59.8965553" lon="17.7069464">
        <ele>36.1868</ele>
        <time>2014-05-29T09:59:50Z</time>
      </trkpt>
      <trkpt lat="59.8964979" lon="17.7068695">
        <ele>36.1868</ele>
        <time>2014-05-29T09:59:51Z</time>
      </trkpt>
      <trkpt lat="59.8964408" lon="17.7067915">
        <ele>36.1868</ele>
        <time>2014-05-29T09:59:52Z</time>
      </trkpt>
      <trkpt lat="59.8963839" lon="17.7067136">
        <ele>36.1868</ele>
        <time>2014-05-29T09:59:53Z</time>
      </trkpt>
      <trkpt lat="59.8963275" lon="17.7066373">
        <ele>36.1868</ele>
        <time>2014-05-29T09:59:54Z</time>
      </trkpt>
      <trkpt lat="59.8962715" lon="17.7065633">
        <ele>36.1868</ele>
        <time>2014-05-29T09:59:55Z</time>
      </trkpt>
      <trkpt lat="59.8962159" lon="17.7064903">
        <ele>36.1868</ele>
        <time>2014-05-29T09:59:56Z</time>
      </trkpt>
      <trkpt lat="59.8961607" lon="17.7064178">
        <ele>36.1868</ele>
        <time>2014-05-29T09:59:57Z</time>
      </trkpt>
      <trkpt lat="59.8961058" lon="17.7063452">
        <ele>36.1868</ele>
        <time>2014-05-29T09:59:58Z</time>
      </trkpt>
      <trkpt lat="59.8960503" lon="17.7062715">
        <ele>36.1868</ele>
        <time>2014-05-29T09:59:59Z</time>
      </trkpt>
      <trkpt lat="59.895994" lon="17.7061974">
        <ele>36.1868</ele>
        <time>2014-05-29T10:00:00Z</time>
      </trkpt>
      <trkpt lat="59.895937" lon="17.7061234">
        <ele>36.1868</ele>
        <time>2014-05-29T10:00:01Z</time>
      </trkpt>
      <trkpt lat="59.89588" lon="17.7060487">
        <ele>35.7061</ele>
        <time>2014-05-29T10:00:02Z</time>
      </trkpt>
      <trkpt lat="59.8958235" lon="17.7059717">
        <ele>35.7061</ele>
        <time>2014-05-29T10:00:03Z</time>
      </trkpt>
      <trkpt lat="59.8957673" lon="17.7058935">
        <ele>35.7061</ele>
        <time>2014-05-29T10:00:04Z</time>
      </trkpt>
      <trkpt lat="59.8957105" lon="17.7058163">
        <ele>35.7061</ele>
        <time>2014-05-29T10:00:05Z</time>
      </trkpt>
      <trkpt lat="59.8956529" lon="17.7057406">
        <ele>35.7061</ele>
        <time>2014-05-29T10:00:06Z</time>
      </trkpt>
      <trkpt lat="59.895595" lon="17.7056634">
        <ele>35.7061</ele>
        <time>2014-05-29T10:00:07Z</time>
      </trkpt>
      <trkpt lat="59.8955365" lon="17.7055842">
        <ele>35.7061</ele>
        <time>2014-05-29T10:00:08Z</time>
      </trkpt>
      <trkpt lat="59.895477" lon="17.705506">
        <ele>35.7061</ele>
        <time>2014-05-29T10:00:09Z</time>
      </trkpt>
      <trkpt lat="59.8954151" lon="17.705433">
        <ele>35.7061</ele>
        <time>2014-05-29T10:00:10Z</time>
      </trkpt>
      <trkpt lat="59.8953505" lon="17.7053676">
        <ele>35.7061</ele>
        <time>2014-05-29T10:00:11Z</time>
      </trkpt>
      <trkpt lat="59.8952852" lon="17.7053023">
        <ele>35.7061</ele>
        <time>2014-05-29T10:00:12Z</time>
      </trkpt>
      <trkpt lat="59.8952223" lon="17.7052273">
        <ele>35.7061</ele>
        <time>2014-05-29T10:00:13Z</time>
      </trkpt>
      <trkpt lat="59.895162" lon="17.7051434">
        <ele>35.7061</ele>
        <time>2014-05-29T10:00:14Z</time>
      </trkpt>
      <trkpt lat="59.895104" lon="17.7050559">
        <ele>35.7061</ele>
        <time>2014-05-29T10:00:15Z</time>
      </trkpt>
      <trkpt lat="59.8950473" lon="17.704967">
        <ele>35.7061</ele>
        <time>2014-05-29T10:00:16Z</time>
      </trkpt>
      <trkpt lat="59.8949894" lon="17.7048814">
        <ele>36.1868</ele>
        <time>2014-05-29T10:00:17Z</time>
      </trkpt>
      <trkpt lat="59.8949302" lon="17.704801">
        <ele>36.1868</ele>
        <time>2014-05-29T10:00:18Z</time>
      </trkpt>
      <trkpt lat="59.8948713" lon="17.7047212">
        <ele>36.1868</ele>
        <time>2014-05-29T10:00:19Z</time>
      </trkpt>
      <trkpt lat="59.894814" lon="17.70464">
        <ele>36.1868</ele>
        <time>2014-05-29T10:00:20Z</time>
      </trkpt>
      <trkpt lat="59.8947579" lon="17.704558">
        <ele>36.1868</ele>
        <time>2014-05-29T10:00:21Z</time>
      </trkpt>
      <trkpt lat="59.894702" lon="17.7044763">
        <ele>36.6675</ele>
        <time>2014-05-29T10:00:22Z</time>
      </trkpt>
      <trkpt lat="59.894646" lon="17.7043969">
        <ele>36.6675</ele>
        <time>2014-05-29T10:00:23Z</time>
      </trkpt>
      <trkpt lat="59.894589" lon="17.7043202">
        <ele>36.6675</ele>
        <time>2014-05-29T10:00:24Z</time>
      </trkpt>
      <trkpt lat="59.8945316" lon="17.7042441">
        <ele>36.6675</ele>
        <time>2014-05-29T10:00:25Z</time>
      </trkpt>
      <trkpt lat="59.8944745" lon="17.7041675">
        <ele>36.6675</ele>
        <time>2014-05-29T10:00:26Z</time>
      </trkpt>
      <trkpt lat="59.8944174" lon="17.7040901">
        <ele>37.1481</ele>
        <time>2014-05-29T10:00:27Z</time>
      </trkpt>
      <trkpt lat="59.8943601" lon="17.7040115">
        <ele>37.1481</ele>
        <time>2014-05-29T10:00:28Z</time>
      </trkpt>
      <trkpt lat="59.8943027" lon="17.7039318">
        <ele>37.1481</ele>
        <time>2014-05-29T10:00:29Z</time>
      </trkpt>
      <trkpt lat="59.8942455" lon="17.7038503">
        <ele>37.1481</ele>
        <time>2014-05-29T10:00:30Z</time>
      </trkpt>
      <trkpt lat="59.8941884" lon="17.7037679">
        <ele>37.6287</ele>
        <time>2014-05-29T10:00:31Z</time>
      </trkpt>
      <trkpt lat="59.8941302" lon="17.703687">
        <ele>37.6287</ele>
        <time>2014-05-29T10:00:32Z</time>
      </trkpt>
      <trkpt lat="59.8940715" lon="17.7036068">
        <ele>37.6287</ele>
        <time>2014-05-29T10:00:33Z</time>
      </trkpt>
      <trkpt lat="59.8940128" lon="17.7035267">
        <ele>37.6287</ele>
        <time>2014-05-29T10:00:34Z</time>
      </trkpt>
      <trkpt lat="59.8939539" lon="17.7034473">
        <ele>37.6287</ele>
        <time>2014-05-29T10:00:35Z</time>
      </trkpt>
      <trkpt lat="59.8938954" lon="17.7033697">
        <ele>37.6287</ele>
        <time>2014-05-29T10:00:36Z</time>
      </trkpt>
      <trkpt lat="59.8938369" lon="17.7032926">
        <ele>37.6287</ele>
        <time>2014-05-29T10:00:37Z</time>
      </trkpt>
      <trkpt lat="59.8937779" lon="17.7032143">
        <ele>37.6287</ele>
        <time>2014-05-29T10:00:38Z</time>
      </trkpt>
      <trkpt lat="59.8937193" lon="17.7031348">
        <ele>37.6287</ele>
        <time>2014-05-29T10:00:39Z</time>
      </trkpt>
      <trkpt lat="59.8936611" lon="17.7030547">
        <ele>37.6287</ele>
        <time>2014-05-29T10:00:40Z</time>
      </trkpt>
      <trkpt lat="59.8936023" lon="17.7029749">
        <ele>37.6287</ele>
        <time>2014-05-29T10:00:41Z</time>
      </trkpt>
      <trkpt lat="59.8935431" lon="17.7028963">
        <ele>37.6287</ele>
        <time>2014-05-29T10:00:42Z</time>
      </trkpt>
      <trkpt lat="59.893483" lon="17.7028206">
        <ele>37.6287</ele>
        <time>2014-05-29T10:00:43Z</time>
      </trkpt>
      <trkpt lat="59.8934229" lon="17.702747">
        <ele>37.6287</ele>
        <time>2014-05-29T10:00:44Z</time>
      </trkpt>
      <trkpt lat="59.8933635" lon="17.7026739">
        <ele>37.6287</ele>
        <time>2014-05-29T10:00:45Z</time>
      </trkpt>
      <trkpt lat="59.8933059" lon="17.7025995">
        <ele>37.6287</ele>
        <time>2014-05-29T10:00:46Z</time>
      </trkpt>
      <trkpt lat="59.8932493" lon="17.7025254">
        <ele>37.6287</ele>
        <time>2014-05-29T10:00:47Z</time>
      </trkpt>
      <trkpt lat="59.8931935" lon="17.7024518">
        <ele>37.6287</ele>
        <time>2014-05-29T10:00:48Z</time>
      </trkpt>
      <trkpt lat="59.8931381" lon="17.7023772">
        <ele>37.6287</ele>
        <time>2014-05-29T10:00:49Z</time>
      </trkpt>
      <trkpt lat="59.8930827" lon="17.7023035">
        <ele>37.6287</ele>
        <time>2014-05-29T10:00:50Z</time>
      </trkpt>
      <trkpt lat="59.8930283" lon="17.7022305">
        <ele>37.6287</ele>
        <time>2014-05-29T10:00:51Z</time>
      </trkpt>
      <trkpt lat="59.8929742" lon="17.7021602">
        <ele>37.6287</ele>
        <time>2014-05-29T10:00:52Z</time>
      </trkpt>
      <trkpt lat="59.89292" lon="17.7020913">
        <ele>37.6287</ele>
        <time>2014-05-29T10:00:53Z</time>
      </trkpt>
      <trkpt lat="59.8928662" lon="17.702023">
        <ele>37.6287</ele>
        <time>2014-05-29T10:00:54Z</time>
      </trkpt>
      <trkpt lat="59.892811" lon="17.7019619">
        <ele>37.6287</ele>
        <time>2014-05-29T10:00:55Z</time>
      </trkpt>
      <trkpt lat="59.8927537" lon="17.701909">
        <ele>37.6287</ele>
        <time>2014-05-29T10:00:56Z</time>
      </trkpt>
      <trkpt lat="59.8926977" lon="17.7018535">
        <ele>37.6287</ele>
        <time>2014-05-29T10:00:57Z</time>
      </trkpt>
      <trkpt lat="59.892645" lon="17.701787">
        <ele>37.6287</ele>
        <time>2014-05-29T10:00:58Z</time>
      </trkpt>
      <trkpt lat="59.8925952" lon="17.7017152">
        <ele>37.6287</ele>
        <time>2014-05-29T10:00:59Z</time>
      </trkpt>
      <trkpt lat="59.892547" lon="17.7016427">
        <ele>37.6287</ele>
        <time>2014-05-29T10:01:00Z</time>
      </trkpt>
      <trkpt lat="59.8925035" lon="17.7015664">
        <ele>37.6287</ele>
        <time>2014-05-29T10:01:01Z</time>
      </trkpt>
      <trkpt lat="59.8924629" lon="17.7014918">
        <ele>37.6287</ele>
        <time>2014-05-29T10:01:02Z</time>
      </trkpt>
      <trkpt lat="59.892422" lon="17.701428">
        <ele>37.6287</ele>
        <time>2014-05-29T10:01:03Z</time>
      </trkpt>
      <trkpt lat="59.8923828" lon="17.7013736">
        <ele>37.6287</ele>
        <time>2014-05-29T10:01:04Z</time>
      </trkpt>
      <trkpt lat="59.8923481" lon="17.7013179">
        <ele>37.6287</ele>
        <time>2014-05-29T10:01:05Z</time>
      </trkpt>
      <trkpt lat="59.8923269" lon="17.7012493">
        <ele>37.6287</ele>
        <time>2014-05-29T10:01:06Z</time>
      </trkpt>
      <trkpt lat="59.8923254" lon="17.7011723">
        <ele>37.6287</ele>
        <time>2014-05-29T10:01:07Z</time>
      </trkpt>
      <trkpt lat="59.8923394" lon="17.7011007">
        <ele>37.6287</ele>
        <time>2014-05-29T10:01:08Z</time>
      </trkpt>
      <trkpt lat="59.8923668" lon="17.7010448">
        <ele>37.1481</ele>
        <time>2014-05-29T10:01:09Z</time>
      </trkpt>
      <trkpt lat="59.8923972" lon="17.7010027">
        <ele>36.6675</ele>
        <time>2014-05-29T10:01:10Z</time>
      </trkpt>
      <trkpt lat="59.8924215" lon="17.7009636">
        <ele>36.6675</ele>
        <time>2014-05-29T10:01:11Z</time>
      </trkpt>
      <trkpt lat="59.8924381" lon="17.7009286">
        <ele>36.6675</ele>
        <time>2014-05-29T10:01:12Z</time>
      </trkpt>
      <trkpt lat="59.8924511" lon="17.7009024">
        <ele>36.6675</ele>
        <time>2014-05-29T10:01:13Z</time>
      </trkpt>
      <trkpt lat="59.8924631" lon="17.7008882">
        <ele>36.1868</ele>
        <time>2014-05-29T10:01:14Z</time>
      </trkpt>
      <trkpt lat="59.8924776" lon="17.7008859">
        <ele>36.1868</ele>
        <time>2014-05-29T10:01:15Z</time>
      </trkpt>
      <trkpt lat="59.8924914" lon="17.7008817">
        <ele>36.1868</ele>
        <time>2014-05-29T10:01:16Z</time>
      </trkpt>
      <trkpt lat="59.8925055" lon="17.7008563">
        <ele>36.1868</ele>
        <time>2014-05-29T10:01:17Z</time>
      </trkpt>
      <trkpt lat="59.8925236" lon="17.7008133">
        <ele>36.1868</ele>
        <time>2014-05-29T10:01:18Z</time>
      </trkpt>
      <trkpt lat="59.8925454" lon="17.7007553">
        <ele>36.1868</ele>
        <time>2014-05-29T10:01:19Z</time>
      </trkpt>
      <trkpt lat="59.8925715" lon="17.7006881">
        <ele>36.1868</ele>
        <time>2014-05-29T10:01:20Z</time>
      </trkpt>
      <trkpt lat="59.8925995" lon="17.7006113">
        <ele>35.7061</ele>
        <time>2014-05-29T10:01:21Z</time>
      </trkpt>
      <trkpt lat="59.8926311" lon="17.7005277">
        <ele>35.7061</ele>
        <time>2014-05-29T10:01:22Z</time>
      </trkpt>
      <trkpt lat="59.8926656" lon="17.7004425">
        <ele>35.7061</ele>
        <time>2014-05-29T10:01:23Z</time>
      </trkpt>
      <trkpt lat="59.8927009" lon="17.7003564">
        <ele>35.7061</ele>
        <time>2014-05-29T10:01:24Z</time>
      </trkpt>
      <trkpt lat="59.8927361" lon="17.7002697">
        <ele>35.7061</ele>
        <time>2014-05-29T10:01:25Z</time>
      </trkpt>
      <trkpt lat="59.8927732" lon="17.700186">
        <ele>35.7061</ele>
        <time>2014-05-29T10:01:26Z</time>
      </trkpt>
      <trkpt lat="59.8928107" lon="17.7001057">
        <ele>35.7061</ele>
        <time>2014-05-29T10:01:27Z</time>
      </trkpt>
      <trkpt lat="59.8928485" lon="17.7000269">
        <ele>35.7061</ele>
        <time>2014-05-29T10:01:28Z</time>
      </trkpt>
      <trkpt lat="59.8928848" lon="17.6999475">
        <ele>35.7061</ele>
        <time>2014-05-29T10:01:29Z</time>
      </trkpt>
      <trkpt lat="59.8929199" lon="17.6998675">
        <ele>35.7061</ele>
        <time>2014-05-29T10:01:30Z</time>
      </trkpt>
      <trkpt lat="59.8929542" lon="17.6997875">
        <ele>35.7061</ele>
        <time>2014-05-29T10:01:31Z</time>
      </trkpt>
      <trkpt lat="59.8929894" lon="17.6997093">
        <ele>35.7061</ele>
        <time>2014-05-29T10:01:32Z</time>
      </trkpt>
      <trkpt lat="59.8930252" lon="17.6996321">
        <ele>35.7061</ele>
        <time>2014-05-29T10:01:33Z</time>
      </trkpt>
      <trkpt lat="59.8930599" lon="17.6995544">
        <ele>35.7061</ele>
        <time>2014-05-29T10:01:34Z</time>
      </trkpt>
      <trkpt lat="59.8930935" lon="17.6994749">
        <ele>35.7061</ele>
        <time>2014-05-29T10:01:35Z</time>
      </trkpt>
      <trkpt lat="59.893126" lon="17.6993927">
        <ele>35.7061</ele>
        <time>2014-05-29T10:01:36Z</time>
      </trkpt>
      <trkpt lat="59.8931588" lon="17.69931">
        <ele>35.7061</ele>
        <time>2014-05-29T10:01:37Z</time>
      </trkpt>
      <trkpt lat="59.8931919" lon="17.699228">
        <ele>35.7061</ele>
        <time>2014-05-29T10:01:38Z</time>
      </trkpt>
      <trkpt lat="59.8932216" lon="17.6991429">
        <ele>35.7061</ele>
        <time>2014-05-29T10:01:39Z</time>
      </trkpt>
      <trkpt lat="59.8932399" lon="17.6990493">
        <ele>35.7061</ele>
        <time>2014-05-29T10:01:40Z</time>
      </trkpt>
      <trkpt lat="59.8932448" lon="17.6989478">
        <ele>36.1868</ele>
        <time>2014-05-29T10:01:41Z</time>
      </trkpt>
      <trkpt lat="59.8932515" lon="17.6988455">
        <ele>36.1868</ele>
        <time>2014-05-29T10:01:42Z</time>
      </trkpt>
      <trkpt lat="59.8932713" lon="17.6987509">
        <ele>36.1868</ele>
        <time>2014-05-29T10:01:43Z</time>
      </trkpt>
      <trkpt lat="59.8933045" lon="17.6986701">
        <ele>36.6675</ele>
        <time>2014-05-29T10:01:44Z</time>
      </trkpt>
      <trkpt lat="59.8933448" lon="17.6986019">
        <ele>36.6675</ele>
        <time>2014-05-29T10:01:45Z</time>
      </trkpt>
      <trkpt lat="59.8933867" lon="17.6985392">
        <ele>36.6675</ele>
        <time>2014-05-29T10:01:46Z</time>
      </trkpt>
      <trkpt lat="59.8934272" lon="17.6984728">
        <ele>36.6675</ele>
        <time>2014-05-29T10:01:47Z</time>
      </trkpt>
      <trkpt lat="59.8934658" lon="17.6983999">
        <ele>36.6675</ele>
        <time>2014-05-29T10:01:48Z</time>
      </trkpt>
      <trkpt lat="59.8935027" lon="17.6983225">
        <ele>37.1481</ele>
        <time>2014-05-29T10:01:49Z</time>
      </trkpt>
      <trkpt lat="59.8935376" lon="17.6982414">
        <ele>37.1481</ele>
        <time>2014-05-29T10:01:50Z</time>
      </trkpt>
      <trkpt lat="59.8935709" lon="17.698157">
        <ele>37.1481</ele>
        <time>2014-05-29T10:01:51Z</time>
      </trkpt>
      <trkpt lat="59.8936022" lon="17.6980692">
        <ele>37.1481</ele>
        <time>2014-05-29T10:01:52Z</time>
      </trkpt>
      <trkpt lat="59.8936316" lon="17.6979777">
        <ele>37.1481</ele>
        <time>2014-05-29T10:01:53Z</time>
      </trkpt>
      <trkpt lat="59.8936582" lon="17.6978825">
        <ele>37.1481</ele>
        <time>2014-05-29T10:01:54Z</time>
      </trkpt>
      <trkpt lat="59.8936815" lon="17.6977845">
        <ele>37.6287</ele>
        <time>2014-05-29T10:01:55Z</time>
      </trkpt>
      <trkpt lat="59.893702" lon="17.6976857">
        <ele>37.6287</ele>
        <time>2014-05-29T10:01:56Z</time>
      </trkpt>
      <trkpt lat="59.8937201" lon="17.6975882">
        <ele>37.6287</ele>
        <time>2014-05-29T10:01:57Z</time>
      </trkpt>
      <trkpt lat="59.8937348" lon="17.6974923">
        <ele>37.6287</ele>
        <time>2014-05-29T10:01:58Z</time>
      </trkpt>
      <trkpt lat="59.8937478" lon="17.6973955">
        <ele>37.6287</ele>
        <time>2014-05-29T10:01:59Z</time>
      </trkpt>
      <trkpt lat="59.8937602" lon="17.6972967">
        <ele>38.1094</ele>
        <time>2014-05-29T10:02:00Z</time>
      </trkpt>
      <trkpt lat="59.8937707" lon="17.6971953">
        <ele>38.1094</ele>
        <time>2014-05-29T10:02:01Z</time>
      </trkpt>
      <trkpt lat="59.89378" lon="17.6970926">
        <ele>38.1094</ele>
        <time>2014-05-29T10:02:02Z</time>
      </trkpt>
      <trkpt lat="59.8937881" lon="17.6969895">
        <ele>38.1094</ele>
        <time>2014-05-29T10:02:03Z</time>
      </trkpt>
      <trkpt lat="59.8937959" lon="17.6968863">
        <ele>38.5901</ele>
        <time>2014-05-29T10:02:04Z</time>
      </trkpt>
      <trkpt lat="59.8938023" lon="17.6967874">
        <ele>38.5901</ele>
        <time>2014-05-29T10:02:05Z</time>
      </trkpt>
      <trkpt lat="59.8938037" lon="17.696692">
        <ele>38.5901</ele>
        <time>2014-05-29T10:02:06Z</time>
      </trkpt>
      <trkpt lat="59.8938071" lon="17.6965966">
        <ele>39.0707</ele>
        <time>2014-05-29T10:02:07Z</time>
      </trkpt>
      <trkpt lat="59.8938058" lon="17.6965043">
        <ele>39.0707</ele>
        <time>2014-05-29T10:02:08Z</time>
      </trkpt>
      <trkpt lat="59.8938042" lon="17.696415">
        <ele>39.0707</ele>
        <time>2014-05-29T10:02:09Z</time>
      </trkpt>
      <trkpt lat="59.8938046" lon="17.6963268">
        <ele>39.0707</ele>
        <time>2014-05-29T10:02:10Z</time>
      </trkpt>
      <trkpt lat="59.8938059" lon="17.696236">
        <ele>39.0707</ele>
        <time>2014-05-29T10:02:11Z</time>
      </trkpt>
      <trkpt lat="59.8938094" lon="17.6961392">
        <ele>39.0707</ele>
        <time>2014-05-29T10:02:12Z</time>
      </trkpt>
      <trkpt lat="59.8938125" lon="17.6960377">
        <ele>38.5901</ele>
        <time>2014-05-29T10:02:13Z</time>
      </trkpt>
      <trkpt lat="59.8938172" lon="17.6959307">
        <ele>38.5901</ele>
        <time>2014-05-29T10:02:14Z</time>
      </trkpt>
      <trkpt lat="59.8938213" lon="17.6958195">
        <ele>38.5901</ele>
        <time>2014-05-29T10:02:15Z</time>
      </trkpt>
      <trkpt lat="59.8938255" lon="17.6957048">
        <ele>38.5901</ele>
        <time>2014-05-29T10:02:16Z</time>
      </trkpt>
      <trkpt lat="59.893829" lon="17.6955882">
        <ele>38.5901</ele>
        <time>2014-05-29T10:02:17Z</time>
      </trkpt>
      <trkpt lat="59.8938315" lon="17.6954681">
        <ele>38.5901</ele>
        <time>2014-05-29T10:02:18Z</time>
      </trkpt>
      <trkpt lat="59.8938351" lon="17.6953442">
        <ele>38.5901</ele>
        <time>2014-05-29T10:02:19Z</time>
      </trkpt>
      <trkpt lat="59.8938399" lon="17.6952173">
        <ele>38.5901</ele>
        <time>2014-05-29T10:02:20Z</time>
      </trkpt>
      <trkpt lat="59.893844" lon="17.6950883">
        <ele>38.5901</ele>
        <time>2014-05-29T10:02:21Z</time>
      </trkpt>
      <trkpt lat="59.8938475" lon="17.6949592">
        <ele>39.0707</ele>
        <time>2014-05-29T10:02:22Z</time>
      </trkpt>
      <trkpt lat="59.893851" lon="17.6948307">
        <ele>39.0707</ele>
        <time>2014-05-29T10:02:23Z</time>
      </trkpt>
      <trkpt lat="59.8938548" lon="17.6947024">
        <ele>38.5901</ele>
        <time>2014-05-29T10:02:24Z</time>
      </trkpt>
      <trkpt lat="59.8938593" lon="17.6945707">
        <ele>38.5901</ele>
        <time>2014-05-29T10:02:25Z</time>
      </trkpt>
      <trkpt lat="59.8938627" lon="17.6944387">
        <ele>38.5901</ele>
        <time>2014-05-29T10:02:26Z</time>
      </trkpt>
      <trkpt lat="59.8938643" lon="17.6943105">
        <ele>38.5901</ele>
        <time>2014-05-29T10:02:27Z</time>
      </trkpt>
      <trkpt lat="59.8938649" lon="17.6941869">
        <ele>38.5901</ele>
        <time>2014-05-29T10:02:28Z</time>
      </trkpt>
      <trkpt lat="59.8938658" lon="17.694065">
        <ele>38.5901</ele>
        <time>2014-05-29T10:02:29Z</time>
      </trkpt>
      <trkpt lat="59.8938699" lon="17.6939422">
        <ele>38.5901</ele>
        <time>2014-05-29T10:02:30Z</time>
      </trkpt>
      <trkpt lat="59.8938758" lon="17.6938177">
        <ele>39.0707</ele>
        <time>2014-05-29T10:02:31Z</time>
      </trkpt>
      <trkpt lat="59.89388" lon="17.6936912">
        <ele>39.0707</ele>
        <time>2014-05-29T10:02:32Z</time>
      </trkpt>
      <trkpt lat="59.8938834" lon="17.6935627">
        <ele>39.0707</ele>
        <time>2014-05-29T10:02:33Z</time>
      </trkpt>
      <trkpt lat="59.8938882" lon="17.6934334">
        <ele>39.0707</ele>
        <time>2014-05-29T10:02:34Z</time>
      </trkpt>
      <trkpt lat="59.893894" lon="17.6933037">
        <ele>39.0707</ele>
        <time>2014-05-29T10:02:35Z</time>
      </trkpt>
      <trkpt lat="59.8938999" lon="17.6931722">
        <ele>39.0707</ele>
        <time>2014-05-29T10:02:36Z</time>
      </trkpt>
      <trkpt lat="59.8939037" lon="17.6930419">
        <ele>39.0707</ele>
        <time>2014-05-29T10:02:37Z</time>
      </trkpt>
      <trkpt lat="59.8939068" lon="17.6929142">
        <ele>39.0707</ele>
        <time>2014-05-29T10:02:38Z</time>
      </trkpt>
      <trkpt lat="59.8939099" lon="17.6927893">
        <ele>39.0707</ele>
        <time>2014-05-29T10:02:39Z</time>
      </trkpt>
      <trkpt lat="59.8939129" lon="17.6926656">
        <ele>39.0707</ele>
        <time>2014-05-29T10:02:40Z</time>
      </trkpt>
      <trkpt lat="59.8939146" lon="17.6925436">
        <ele>39.0707</ele>
        <time>2014-05-29T10:02:41Z</time>
      </trkpt>
      <trkpt lat="59.893915" lon="17.6924226">
        <ele>39.0707</ele>
        <time>2014-05-29T10:02:42Z</time>
      </trkpt>
      <trkpt lat="59.8939141" lon="17.6923036">
        <ele>39.0707</ele>
        <time>2014-05-29T10:02:43Z</time>
      </trkpt>
      <trkpt lat="59.8939124" lon="17.6921867">
        <ele>39.0707</ele>
        <time>2014-05-29T10:02:44Z</time>
      </trkpt>
      <trkpt lat="59.8939113" lon="17.6920717">
        <ele>39.0707</ele>
        <time>2014-05-29T10:02:45Z</time>
      </trkpt>
      <trkpt lat="59.8939097" lon="17.6919564">
        <ele>38.5901</ele>
        <time>2014-05-29T10:02:46Z</time>
      </trkpt>
      <trkpt lat="59.8939082" lon="17.6918424">
        <ele>38.5901</ele>
        <time>2014-05-29T10:02:47Z</time>
      </trkpt>
      <trkpt lat="59.8939099" lon="17.6917295">
        <ele>39.0707</ele>
        <time>2014-05-29T10:02:48Z</time>
      </trkpt>
      <trkpt lat="59.8939128" lon="17.6916176">
        <ele>39.0707</ele>
        <time>2014-05-29T10:02:49Z</time>
      </trkpt>
      <trkpt lat="59.8939156" lon="17.6915052">
        <ele>39.0707</ele>
        <time>2014-05-29T10:02:50Z</time>
      </trkpt>
      <trkpt lat="59.8939208" lon="17.6913912">
        <ele>39.5513</ele>
        <time>2014-05-29T10:02:51Z</time>
      </trkpt>
      <trkpt lat="59.8939278" lon="17.6912789">
        <ele>39.5513</ele>
        <time>2014-05-29T10:02:52Z</time>
      </trkpt>
      <trkpt lat="59.8939359" lon="17.691168">
        <ele>39.5513</ele>
        <time>2014-05-29T10:02:53Z</time>
      </trkpt>
      <trkpt lat="59.8939461" lon="17.6910598">
        <ele>39.5513</ele>
        <time>2014-05-29T10:02:54Z</time>
      </trkpt>
      <trkpt lat="59.8939594" lon="17.690952">
        <ele>39.0707</ele>
        <time>2014-05-29T10:02:55Z</time>
      </trkpt>
      <trkpt lat="59.893973" lon="17.6908448">
        <ele>39.0707</ele>
        <time>2014-05-29T10:02:56Z</time>
      </trkpt>
      <trkpt lat="59.8939871" lon="17.6907375">
        <ele>39.0707</ele>
        <time>2014-05-29T10:02:57Z</time>
      </trkpt>
      <trkpt lat="59.8940016" lon="17.690632">
        <ele>38.5901</ele>
        <time>2014-05-29T10:02:58Z</time>
      </trkpt>
      <trkpt lat="59.8940191" lon="17.6905301">
        <ele>39.0707</ele>
        <time>2014-05-29T10:02:59Z</time>
      </trkpt>
      <trkpt lat="59.8940367" lon="17.6904293">
        <ele>39.0707</ele>
        <time>2014-05-29T10:03:00Z</time>
      </trkpt>
      <trkpt lat="59.8940559" lon="17.6903305">
        <ele>39.5513</ele>
        <time>2014-05-29T10:03:01Z</time>
      </trkpt>
      <trkpt lat="59.8940731" lon="17.690233">
        <ele>40.0321</ele>
        <time>2014-05-29T10:03:02Z</time>
      </trkpt>
      <trkpt lat="59.8940879" lon="17.6901372">
        <ele>40.0321</ele>
        <time>2014-05-29T10:03:03Z</time>
      </trkpt>
      <trkpt lat="59.8941001" lon="17.6900445">
        <ele>40.0321</ele>
        <time>2014-05-29T10:03:04Z</time>
      </trkpt>
      <trkpt lat="59.8941126" lon="17.6899491">
        <ele>40.0321</ele>
        <time>2014-05-29T10:03:05Z</time>
      </trkpt>
      <trkpt lat="59.894125" lon="17.6898524">
        <ele>40.0321</ele>
        <time>2014-05-29T10:03:06Z</time>
      </trkpt>
      <trkpt lat="59.8941356" lon="17.6897529">
        <ele>40.0321</ele>
        <time>2014-05-29T10:03:07Z</time>
      </trkpt>
      <trkpt lat="59.8941439" lon="17.6896508">
        <ele>39.5513</ele>
        <time>2014-05-29T10:03:08Z</time>
      </trkpt>
      <trkpt lat="59.8941563" lon="17.6895457">
        <ele>39.5513</ele>
        <time>2014-05-29T10:03:09Z</time>
      </trkpt>
      <trkpt lat="59.8941725" lon="17.6894367">
        <ele>39.5513</ele>
        <time>2014-05-29T10:03:10Z</time>
      </trkpt>
      <trkpt lat="59.894187" lon="17.6893244">
        <ele>39.5513</ele>
        <time>2014-05-29T10:03:11Z</time>
      </trkpt>
      <trkpt lat="59.8942021" lon="17.6892105">
        <ele>39.5513</ele>
        <time>2014-05-29T10:03:12Z</time>
      </trkpt>
      <trkpt lat="59.8942166" lon="17.689095">
        <ele>39.5513</ele>
        <time>2014-05-29T10:03:13Z</time>
      </trkpt>
      <trkpt lat="59.8942299" lon="17.6889759">
        <ele>39.5513</ele>
        <time>2014-05-29T10:03:14Z</time>
      </trkpt>
      <trkpt lat="59.8942438" lon="17.6888543">
        <ele>39.5513</ele>
        <time>2014-05-29T10:03:15Z</time>
      </trkpt>
      <trkpt lat="59.8942599" lon="17.6887326">
        <ele>39.5513</ele>
        <time>2014-05-29T10:03:16Z</time>
      </trkpt>
      <trkpt lat="59.8942775" lon="17.6886117">
        <ele>39.5513</ele>
        <time>2014-05-29T10:03:17Z</time>
      </trkpt>
      <trkpt lat="59.8942943" lon="17.688493">
        <ele>39.5513</ele>
        <time>2014-05-29T10:03:18Z</time>
      </trkpt>
      <trkpt lat="59.8943145" lon="17.6883764">
        <ele>39.0707</ele>
        <time>2014-05-29T10:03:19Z</time>
      </trkpt>
      <trkpt lat="59.8943392" lon="17.68826">
        <ele>39.0707</ele>
        <time>2014-05-29T10:03:20Z</time>
      </trkpt>
      <trkpt lat="59.8943667" lon="17.688144">
        <ele>38.5901</ele>
        <time>2014-05-29T10:03:21Z</time>
      </trkpt>
      <trkpt lat="59.8943954" lon="17.6880287">
        <ele>38.5901</ele>
        <time>2014-05-29T10:03:22Z</time>
      </trkpt>
      <trkpt lat="59.8944238" lon="17.6879131">
        <ele>38.1094</ele>
        <time>2014-05-29T10:03:23Z</time>
      </trkpt>
      <trkpt lat="59.8944508" lon="17.6877968">
        <ele>38.1094</ele>
        <time>2014-05-29T10:03:24Z</time>
      </trkpt>
      <trkpt lat="59.8944777" lon="17.6876793">
        <ele>38.1094</ele>
        <time>2014-05-29T10:03:25Z</time>
      </trkpt>
      <trkpt lat="59.8945031" lon="17.6875591">
        <ele>38.1094</ele>
        <time>2014-05-29T10:03:26Z</time>
      </trkpt>
      <trkpt lat="59.8945277" lon="17.6874397">
        <ele>38.1094</ele>
        <time>2014-05-29T10:03:27Z</time>
      </trkpt>
      <trkpt lat="59.8945533" lon="17.6873229">
        <ele>38.1094</ele>
        <time>2014-05-29T10:03:28Z</time>
      </trkpt>
      <trkpt lat="59.8945775" lon="17.6872052">
        <ele>38.1094</ele>
        <time>2014-05-29T10:03:29Z</time>
      </trkpt>
      <trkpt lat="59.894599" lon="17.6870845">
        <ele>38.1094</ele>
        <time>2014-05-29T10:03:30Z</time>
      </trkpt>
      <trkpt lat="59.8946205" lon="17.6869629">
        <ele>38.1094</ele>
        <time>2014-05-29T10:03:31Z</time>
      </trkpt>
      <trkpt lat="59.8946413" lon="17.6868406">
        <ele>38.1094</ele>
        <time>2014-05-29T10:03:32Z</time>
      </trkpt>
      <trkpt lat="59.8946608" lon="17.6867172">
        <ele>38.5901</ele>
        <time>2014-05-29T10:03:33Z</time>
      </trkpt>
      <trkpt lat="59.8946795" lon="17.6865932">
        <ele>38.5901</ele>
        <time>2014-05-29T10:03:34Z</time>
      </trkpt>
      <trkpt lat="59.8946967" lon="17.6864681">
        <ele>38.5901</ele>
        <time>2014-05-29T10:03:35Z</time>
      </trkpt>
      <trkpt lat="59.8947122" lon="17.6863415">
        <ele>38.5901</ele>
        <time>2014-05-29T10:03:36Z</time>
      </trkpt>
      <trkpt lat="59.8947259" lon="17.6862147">
        <ele>38.5901</ele>
        <time>2014-05-29T10:03:37Z</time>
      </trkpt>
      <trkpt lat="59.8947382" lon="17.6860882">
        <ele>38.5901</ele>
        <time>2014-05-29T10:03:38Z</time>
      </trkpt>
      <trkpt lat="59.8947487" lon="17.6859619">
        <ele>38.5901</ele>
        <time>2014-05-29T10:03:39Z</time>
      </trkpt>
      <trkpt lat="59.8947577" lon="17.6858361">
        <ele>39.0707</ele>
        <time>2014-05-29T10:03:40Z</time>
      </trkpt>
      <trkpt lat="59.894765" lon="17.68571">
        <ele>39.0707</ele>
        <time>2014-05-29T10:03:41Z</time>
      </trkpt>
      <trkpt lat="59.8947725" lon="17.6855847">
        <ele>39.0707</ele>
        <time>2014-05-29T10:03:42Z</time>
      </trkpt>
      <trkpt lat="59.8947797" lon="17.68546">
        <ele>39.0707</ele>
        <time>2014-05-29T10:03:43Z</time>
      </trkpt>
      <trkpt lat="59.8947851" lon="17.6853363">
        <ele>39.0707</ele>
        <time>2014-05-29T10:03:44Z</time>
      </trkpt>
      <trkpt lat="59.8947863" lon="17.6852114">
        <ele>39.0707</ele>
        <time>2014-05-29T10:03:45Z</time>
      </trkpt>
      <trkpt lat="59.8947864" lon="17.6850855">
        <ele>38.5901</ele>
        <time>2014-05-29T10:03:46Z</time>
      </trkpt>
      <trkpt lat="59.8947909" lon="17.6849585">
        <ele>38.5901</ele>
        <time>2014-05-29T10:03:47Z</time>
      </trkpt>
      <trkpt lat="59.8948025" lon="17.6848301">
        <ele>38.5901</ele>
        <time>2014-05-29T10:03:48Z</time>
      </trkpt>
      <trkpt lat="59.8948175" lon="17.6847027">
        <ele>38.5901</ele>
        <time>2014-05-29T10:03:49Z</time>
      </trkpt>
      <trkpt lat="59.894832" lon="17.6845737">
        <ele>38.5901</ele>
        <time>2014-05-29T10:03:50Z</time>
      </trkpt>
      <trkpt lat="59.8948459" lon="17.6844479">
        <ele>39.0707</ele>
        <time>2014-05-29T10:03:51Z</time>
      </trkpt>
      <trkpt lat="59.8948589" lon="17.6843319">
        <ele>38.5901</ele>
        <time>2014-05-29T10:03:52Z</time>
      </trkpt>
      <trkpt lat="59.894872" lon="17.684219">
        <ele>38.5901</ele>
        <time>2014-05-29T10:03:53Z</time>
      </trkpt>
      <trkpt lat="59.8948842" lon="17.6841111">
        <ele>38.1094</ele>
        <time>2014-05-29T10:03:54Z</time>
      </trkpt>
      <trkpt lat="59.8948973" lon="17.6840011">
        <ele>37.6287</ele>
        <time>2014-05-29T10:03:55Z</time>
      </trkpt>
      <trkpt lat="59.8949149" lon="17.6838898">
        <ele>37.1481</ele>
        <time>2014-05-29T10:03:56Z</time>
      </trkpt>
      <trkpt lat="59.8949387" lon="17.6837775">
        <ele>36.6675</ele>
        <time>2014-05-29T10:03:57Z</time>
      </trkpt>
      <trkpt lat="59.8949694" lon="17.6836693">
        <ele>36.1868</ele>
        <time>2014-05-29T10:03:58Z</time>
      </trkpt>
      <trkpt lat="59.8950117" lon="17.6835666">
        <ele>36.1868</ele>
        <time>2014-05-29T10:03:59Z</time>
      </trkpt>
      <trkpt lat="59.8950592" lon="17.683473">
        <ele>36.1868</ele>
        <time>2014-05-29T10:04:00Z</time>
      </trkpt>
      <trkpt lat="59.8951071" lon="17.6833947">
        <ele>36.1868</ele>
        <time>2014-05-29T10:04:01Z</time>
      </trkpt>
      <trkpt lat="59.8951542" lon="17.6833316">
        <ele>35.7061</ele>
        <time>2014-05-29T10:04:02Z</time>
      </trkpt>
      <trkpt lat="59.8952021" lon="17.683273">
        <ele>35.7061</ele>
        <time>2014-05-29T10:04:03Z</time>
      </trkpt>
      <trkpt lat="59.895249" lon="17.6832154">
        <ele>35.7061</ele>
        <time>2014-05-29T10:04:04Z</time>
      </trkpt>
      <trkpt lat="59.8952931" lon="17.6831522">
        <ele>35.7061</ele>
        <time>2014-05-29T10:04:05Z</time>
      </trkpt>
      <trkpt lat="59.895337" lon="17.6830895">
        <ele>35.2255</ele>
        <time>2014-05-29T10:04:06Z</time>
      </trkpt>
      <trkpt lat="59.8953816" lon="17.6830302">
        <ele>35.2255</ele>
        <time>2014-05-29T10:04:07Z</time>
      </trkpt>
      <trkpt lat="59.895427" lon="17.6829716">
        <ele>35.2255</ele>
        <time>2014-05-29T10:04:08Z</time>
      </trkpt>
      <trkpt lat="59.8954748" lon="17.6829151">
        <ele>35.7061</ele>
        <time>2014-05-29T10:04:09Z</time>
      </trkpt>
      <trkpt lat="59.8955225" lon="17.6828599">
        <ele>35.7061</ele>
        <time>2014-05-29T10:04:10Z</time>
      </trkpt>
      <trkpt lat="59.8955696" lon="17.6828087">
        <ele>36.1868</ele>
        <time>2014-05-29T10:04:11Z</time>
      </trkpt>
      <trkpt lat="59.8956188" lon="17.6827621">
        <ele>36.6675</ele>
        <time>2014-05-29T10:04:12Z</time>
      </trkpt>
      <trkpt lat="59.8956687" lon="17.6827217">
        <ele>36.6675</ele>
        <time>2014-05-29T10:04:13Z</time>
      </trkpt>
      <trkpt lat="59.8957177" lon="17.6826864">
        <ele>37.1481</ele>
        <time>2014-05-29T10:04:14Z</time>
      </trkpt>
      <trkpt lat="59.8957653" lon="17.682654">
        <ele>37.1481</ele>
        <time>2014-05-29T10:04:15Z</time>
      </trkpt>
      <trkpt lat="59.895813" lon="17.6826245">
        <ele>37.6287</ele>
        <time>2014-05-29T10:04:16Z</time>
      </trkpt>
      <trkpt lat="59.8958591" lon="17.6825952">
        <ele>38.1094</ele>
        <time>2014-05-29T10:04:17Z</time>
      </trkpt>
      <trkpt lat="59.895903" lon="17.6825623">
        <ele>38.1094</ele>
        <time>2014-05-29T10:04:18Z</time>
      </trkpt>
      <trkpt lat="59.8959461" lon="17.6825229">
        <ele>38.1094</ele>
        <time>2014-05-29T10:04:19Z</time>
      </trkpt>
      <trkpt lat="59.8959891" lon="17.6824872">
        <ele>38.1094</ele>
        <time>2014-05-29T10:04:20Z</time>
      </trkpt>
      <trkpt lat="59.8960291" lon="17.6824503">
        <ele>37.6287</ele>
        <time>2014-05-29T10:04:21Z</time>
      </trkpt>
      <trkpt lat="59.8960605" lon="17.6823976">
        <ele>37.6287</ele>
        <time>2014-05-29T10:04:22Z</time>
      </trkpt>
      <trkpt lat="59.896069" lon="17.6823303">
        <ele>37.6287</ele>
        <time>2014-05-29T10:04:23Z</time>
      </trkpt>
      <trkpt lat="59.8960565" lon="17.682265">
        <ele>37.1481</ele>
        <time>2014-05-29T10:04:24Z</time>
      </trkpt>
      <trkpt lat="59.8960347" lon="17.6822148">
        <ele>37.1481</ele>
        <time>2014-05-29T10:04:25Z</time>
      </trkpt>
      <trkpt lat="59.8960031" lon="17.6821924">
        <ele>37.1481</ele>
        <time>2014-05-29T10:04:26Z</time>
      </trkpt>
      <trkpt lat="59.8959699" lon="17.6821961">
        <ele>37.6287</ele>
        <time>2014-05-29T10:04:27Z</time>
      </trkpt>
      <trkpt lat="59.895938" lon="17.6822181">
        <ele>37.1481</ele>
        <time>2014-05-29T10:04:28Z</time>
      </trkpt>
      <trkpt lat="59.895908" lon="17.6822499">
        <ele>36.6675</ele>
        <time>2014-05-29T10:04:29Z</time>
      </trkpt>
      <trkpt lat="59.8958742" lon="17.6822775">
        <ele>36.1868</ele>
        <time>2014-05-29T10:04:30Z</time>
      </trkpt>
      <trkpt lat="59.8958412" lon="17.6822939">
        <ele>35.7061</ele>
        <time>2014-05-29T10:04:31Z</time>
      </trkpt>
      <trkpt lat="59.895812" lon="17.6822986">
        <ele>35.2255</ele>
        <time>2014-05-29T10:04:32Z</time>
      </trkpt>
      <trkpt lat="59.8957892" lon="17.6822929">
        <ele>34.7449</ele>
        <time>2014-05-29T10:04:33Z</time>
      </trkpt>
      <trkpt lat="59.8957784" lon="17.6822857">
        <ele>35.2255</ele>
        <time>2014-05-29T10:04:34Z</time>
      </trkpt>
      <trkpt lat="59.8957704" lon="17.6822814">
        <ele>35.2255</ele>
        <time>2014-05-29T10:04:35Z</time>
      </trkpt>
      <trkpt lat="59.8957209" lon="17.6824577">
        <ele>37.1481</ele>
        <time>2014-05-29T10:07:05Z</time>
      </trkpt>
      <trkpt lat="59.8957243" lon="17.6824959">
        <ele>37.6287</ele>
        <time>2014-05-29T10:07:06Z</time>
      </trkpt>
      <trkpt lat="59.8957311" lon="17.6825336">
        <ele>37.6287</ele>
        <time>2014-05-29T10:07:07Z</time>
      </trkpt>
      <trkpt lat="59.8957479" lon="17.6825619">
        <ele>37.6287</ele>
        <time>2014-05-29T10:07:08Z</time>
      </trkpt>
      <trkpt lat="59.895769" lon="17.6825714">
        <ele>37.6287</ele>
        <time>2014-05-29T10:07:09Z</time>
      </trkpt>
      <trkpt lat="59.8957949" lon="17.6825694">
        <ele>37.1481</ele>
        <time>2014-05-29T10:07:10Z</time>
      </trkpt>
      <trkpt lat="59.8958249" lon="17.6825628">
        <ele>37.1481</ele>
        <time>2014-05-29T10:07:11Z</time>
      </trkpt>
      <trkpt lat="59.8958617" lon="17.6825432">
        <ele>37.6287</ele>
        <time>2014-05-29T10:07:12Z</time>
      </trkpt>
      <trkpt lat="59.8958976" lon="17.6825188">
        <ele>37.6287</ele>
        <time>2014-05-29T10:07:13Z</time>
      </trkpt>
      <trkpt lat="59.8959359" lon="17.6824953">
        <ele>37.6287</ele>
        <time>2014-05-29T10:07:14Z</time>
      </trkpt>
      <trkpt lat="59.8959752" lon="17.6824689">
        <ele>37.1481</ele>
        <time>2014-05-29T10:07:15Z</time>
      </trkpt>
      <trkpt lat="59.8960167" lon="17.6824339">
        <ele>37.1481</ele>
        <time>2014-05-29T10:07:16Z</time>
      </trkpt>
      <trkpt lat="59.8960565" lon="17.682398">
        <ele>37.1481</ele>
        <time>2014-05-29T10:07:17Z</time>
      </trkpt>
      <trkpt lat="59.8960989" lon="17.6823612">
        <ele>37.1481</ele>
        <time>2014-05-29T10:07:18Z</time>
      </trkpt>
      <trkpt lat="59.896142" lon="17.6823238">
        <ele>37.1481</ele>
        <time>2014-05-29T10:07:19Z</time>
      </trkpt>
      <trkpt lat="59.8961867" lon="17.6822801">
        <ele>37.6287</ele>
        <time>2014-05-29T10:07:20Z</time>
      </trkpt>
      <trkpt lat="59.8962337" lon="17.6822332">
        <ele>37.6287</ele>
        <time>2014-05-29T10:07:21Z</time>
      </trkpt>
      <trkpt lat="59.8962829" lon="17.682185">
        <ele>37.6287</ele>
        <time>2014-05-29T10:07:22Z</time>
      </trkpt>
      <trkpt lat="59.8963324" lon="17.6821303">
        <ele>37.6287</ele>
        <time>2014-05-29T10:07:23Z</time>
      </trkpt>
      <trkpt lat="59.8963833" lon="17.6820705">
        <ele>37.6287</ele>
        <time>2014-05-29T10:07:24Z</time>
      </trkpt>
      <trkpt lat="59.8964347" lon="17.6820089">
        <ele>37.6287</ele>
        <time>2014-05-29T10:07:25Z</time>
      </trkpt>
      <trkpt lat="59.8964854" lon="17.6819458">
        <ele>37.6287</ele>
        <time>2014-05-29T10:07:26Z</time>
      </trkpt>
      <trkpt lat="59.896536" lon="17.681883">
        <ele>37.1481</ele>
        <time>2014-05-29T10:07:27Z</time>
      </trkpt>
      <trkpt lat="59.8965878" lon="17.6818211">
        <ele>37.1481</ele>
        <time>2014-05-29T10:07:28Z</time>
      </trkpt>
      <trkpt lat="59.8966375" lon="17.6817568">
        <ele>37.1481</ele>
        <time>2014-05-29T10:07:29Z</time>
      </trkpt>
      <trkpt lat="59.8966849" lon="17.6816887">
        <ele>37.1481</ele>
        <time>2014-05-29T10:07:30Z</time>
      </trkpt>
      <trkpt lat="59.8967318" lon="17.681619">
        <ele>37.1481</ele>
        <time>2014-05-29T10:07:31Z</time>
      </trkpt>
      <trkpt lat="59.8967781" lon="17.6815497">
        <ele>37.1481</ele>
        <time>2014-05-29T10:07:32Z</time>
      </trkpt>
      <trkpt lat="59.8968246" lon="17.6814754">
        <ele>36.6675</ele>
        <time>2014-05-29T10:07:33Z</time>
      </trkpt>
      <trkpt lat="59.8968707" lon="17.6813964">
        <ele>36.6675</ele>
        <time>2014-05-29T10:07:34Z</time>
      </trkpt>
      <trkpt lat="59.8969147" lon="17.6813154">
        <ele>36.6675</ele>
        <time>2014-05-29T10:07:35Z</time>
      </trkpt>
      <trkpt lat="59.8969574" lon="17.6812342">
        <ele>36.6675</ele>
        <time>2014-05-29T10:07:36Z</time>
      </trkpt>
      <trkpt lat="59.8969998" lon="17.6811532">
        <ele>36.6675</ele>
        <time>2014-05-29T10:07:37Z</time>
      </trkpt>
      <trkpt lat="59.8970408" lon="17.6810693">
        <ele>37.1481</ele>
        <time>2014-05-29T10:07:38Z</time>
      </trkpt>
      <trkpt lat="59.8970806" lon="17.6809827">
        <ele>37.1481</ele>
        <time>2014-05-29T10:07:39Z</time>
      </trkpt>
      <trkpt lat="59.8971185" lon="17.6808943">
        <ele>37.1481</ele>
        <time>2014-05-29T10:07:40Z</time>
      </trkpt>
      <trkpt lat="59.8971535" lon="17.6808032">
        <ele>37.1481</ele>
        <time>2014-05-29T10:07:41Z</time>
      </trkpt>
      <trkpt lat="59.897188" lon="17.6807128">
        <ele>37.1481</ele>
        <time>2014-05-29T10:07:42Z</time>
      </trkpt>
      <trkpt lat="59.8972236" lon="17.6806269">
        <ele>37.1481</ele>
        <time>2014-05-29T10:07:43Z</time>
      </trkpt>
      <trkpt lat="59.8972581" lon="17.6805422">
        <ele>37.1481</ele>
        <time>2014-05-29T10:07:44Z</time>
      </trkpt>
      <trkpt lat="59.8972913" lon="17.6804561">
        <ele>37.1481</ele>
        <time>2014-05-29T10:07:45Z</time>
      </trkpt>
      <trkpt lat="59.8973249" lon="17.6803696">
        <ele>37.1481</ele>
        <time>2014-05-29T10:07:46Z</time>
      </trkpt>
      <trkpt lat="59.8973588" lon="17.6802836">
        <ele>37.1481</ele>
        <time>2014-05-29T10:07:47Z</time>
      </trkpt>
      <trkpt lat="59.8973925" lon="17.6801976">
        <ele>37.1481</ele>
        <time>2014-05-29T10:07:48Z</time>
      </trkpt>
      <trkpt lat="59.8974251" lon="17.6801112">
        <ele>37.6287</ele>
        <time>2014-05-29T10:07:49Z</time>
      </trkpt>
      <trkpt lat="59.8974571" lon="17.6800256">
        <ele>37.6287</ele>
        <time>2014-05-29T10:07:50Z</time>
      </trkpt>
      <trkpt lat="59.8974904" lon="17.6799432">
        <ele>37.6287</ele>
        <time>2014-05-29T10:07:51Z</time>
      </trkpt>
      <trkpt lat="59.8975236" lon="17.6798622">
        <ele>37.6287</ele>
        <time>2014-05-29T10:07:52Z</time>
      </trkpt>
      <trkpt lat="59.8975549" lon="17.6797794">
        <ele>37.6287</ele>
        <time>2014-05-29T10:07:53Z</time>
      </trkpt>
      <trkpt lat="59.8975843" lon="17.6796934">
        <ele>37.6287</ele>
        <time>2014-05-29T10:07:54Z</time>
      </trkpt>
      <trkpt lat="59.8976142" lon="17.6796053">
        <ele>37.6287</ele>
        <time>2014-05-29T10:07:55Z</time>
      </trkpt>
      <trkpt lat="59.8976473" lon="17.67952">
        <ele>37.6287</ele>
        <time>2014-05-29T10:07:56Z</time>
      </trkpt>
      <trkpt lat="59.8976811" lon="17.6794361">
        <ele>37.6287</ele>
        <time>2014-05-29T10:07:57Z</time>
      </trkpt>
      <trkpt lat="59.8977147" lon="17.679352">
        <ele>37.6287</ele>
        <time>2014-05-29T10:07:58Z</time>
      </trkpt>
      <trkpt lat="59.8977478" lon="17.6792678">
        <ele>37.6287</ele>
        <time>2014-05-29T10:07:59Z</time>
      </trkpt>
      <trkpt lat="59.8977798" lon="17.6791823">
        <ele>37.6287</ele>
        <time>2014-05-29T10:08:00Z</time>
      </trkpt>
      <trkpt lat="59.897812" lon="17.6790964">
        <ele>37.6287</ele>
        <time>2014-05-29T10:08:01Z</time>
      </trkpt>
      <trkpt lat="59.8978442" lon="17.6790104">
        <ele>37.6287</ele>
        <time>2014-05-29T10:08:02Z</time>
      </trkpt>
      <trkpt lat="59.8978763" lon="17.6789233">
        <ele>37.6287</ele>
        <time>2014-05-29T10:08:03Z</time>
      </trkpt>
      <trkpt lat="59.8979088" lon="17.6788352">
        <ele>37.6287</ele>
        <time>2014-05-29T10:08:04Z</time>
      </trkpt>
      <trkpt lat="59.8979415" lon="17.6787476">
        <ele>37.6287</ele>
        <time>2014-05-29T10:08:05Z</time>
      </trkpt>
      <trkpt lat="59.8979728" lon="17.6786575">
        <ele>37.6287</ele>
        <time>2014-05-29T10:08:06Z</time>
      </trkpt>
      <trkpt lat="59.8980032" lon="17.6785663">
        <ele>37.6287</ele>
        <time>2014-05-29T10:08:07Z</time>
      </trkpt>
      <trkpt lat="59.8980341" lon="17.6784762">
        <ele>37.6287</ele>
        <time>2014-05-29T10:08:08Z</time>
      </trkpt>
      <trkpt lat="59.8980649" lon="17.6783869">
        <ele>37.6287</ele>
        <time>2014-05-29T10:08:09Z</time>
      </trkpt>
      <trkpt lat="59.8980949" lon="17.6782981">
        <ele>37.6287</ele>
        <time>2014-05-29T10:08:10Z</time>
      </trkpt>
      <trkpt lat="59.8981229" lon="17.6782085">
        <ele>37.6287</ele>
        <time>2014-05-29T10:08:11Z</time>
      </trkpt>
      <trkpt lat="59.8981498" lon="17.6781179">
        <ele>37.6287</ele>
        <time>2014-05-29T10:08:12Z</time>
      </trkpt>
      <trkpt lat="59.8981752" lon="17.6780262">
        <ele>37.6287</ele>
        <time>2014-05-29T10:08:13Z</time>
      </trkpt>
      <trkpt lat="59.8981986" lon="17.6779338">
        <ele>37.6287</ele>
        <time>2014-05-29T10:08:14Z</time>
      </trkpt>
      <trkpt lat="59.8982208" lon="17.6778421">
        <ele>37.6287</ele>
        <time>2014-05-29T10:08:15Z</time>
      </trkpt>
      <trkpt lat="59.8982388" lon="17.6777514">
        <ele>37.6287</ele>
        <time>2014-05-29T10:08:16Z</time>
      </trkpt>
      <trkpt lat="59.898254" lon="17.6776535">
        <ele>37.6287</ele>
        <time>2014-05-29T10:08:17Z</time>
      </trkpt>
      <trkpt lat="59.898271" lon="17.6775524">
        <ele>37.6287</ele>
        <time>2014-05-29T10:08:18Z</time>
      </trkpt>
      <trkpt lat="59.8982892" lon="17.6774561">
        <ele>37.1481</ele>
        <time>2014-05-29T10:08:19Z</time>
      </trkpt>
      <trkpt lat="59.8983063" lon="17.6773593">
        <ele>37.6287</ele>
        <time>2014-05-29T10:08:20Z</time>
      </trkpt>
      <trkpt lat="59.8983207" lon="17.6772608">
        <ele>37.6287</ele>
        <time>2014-05-29T10:08:21Z</time>
      </trkpt>
      <trkpt lat="59.8983336" lon="17.677162">
        <ele>37.6287</ele>
        <time>2014-05-29T10:08:22Z</time>
      </trkpt>
      <trkpt lat="59.8983455" lon="17.6770615">
        <ele>37.6287</ele>
        <time>2014-05-29T10:08:23Z</time>
      </trkpt>
      <trkpt lat="59.8983564" lon="17.6769606">
        <ele>37.6287</ele>
        <time>2014-05-29T10:08:24Z</time>
      </trkpt>
      <trkpt lat="59.8983669" lon="17.6768616">
        <ele>37.6287</ele>
        <time>2014-05-29T10:08:25Z</time>
      </trkpt>
      <trkpt lat="59.8983767" lon="17.6767637">
        <ele>38.1094</ele>
        <time>2014-05-29T10:08:26Z</time>
      </trkpt>
      <trkpt lat="59.8983854" lon="17.6766669">
        <ele>38.1094</ele>
        <time>2014-05-29T10:08:27Z</time>
      </trkpt>
      <trkpt lat="59.8983934" lon="17.6765715">
        <ele>38.1094</ele>
        <time>2014-05-29T10:08:28Z</time>
      </trkpt>
      <trkpt lat="59.898401" lon="17.6764773">
        <ele>38.1094</ele>
        <time>2014-05-29T10:08:29Z</time>
      </trkpt>
      <trkpt lat="59.8984068" lon="17.676383">
        <ele>38.1094</ele>
        <time>2014-05-29T10:08:30Z</time>
      </trkpt>
      <trkpt lat="59.8984119" lon="17.6762879">
        <ele>38.1094</ele>
        <time>2014-05-29T10:08:31Z</time>
      </trkpt>
      <trkpt lat="59.898416" lon="17.6761922">
        <ele>38.1094</ele>
        <time>2014-05-29T10:08:32Z</time>
      </trkpt>
      <trkpt lat="59.8984176" lon="17.6760973">
        <ele>38.1094</ele>
        <time>2014-05-29T10:08:33Z</time>
      </trkpt>
      <trkpt lat="59.8984186" lon="17.6760022">
        <ele>38.1094</ele>
        <time>2014-05-29T10:08:34Z</time>
      </trkpt>
      <trkpt lat="59.8984213" lon="17.675908">
        <ele>38.5901</ele>
        <time>2014-05-29T10:08:35Z</time>
      </trkpt>
      <trkpt lat="59.8984263" lon="17.6758162">
        <ele>38.5901</ele>
        <time>2014-05-29T10:08:36Z</time>
      </trkpt>
      <trkpt lat="59.8984314" lon="17.6757261">
        <ele>38.5901</ele>
        <time>2014-05-29T10:08:37Z</time>
      </trkpt>
      <trkpt lat="59.8984382" lon="17.675637">
        <ele>39.0707</ele>
        <time>2014-05-29T10:08:38Z</time>
      </trkpt>
      <trkpt lat="59.8984461" lon="17.6755498">
        <ele>39.0707</ele>
        <time>2014-05-29T10:08:39Z</time>
      </trkpt>
      <trkpt lat="59.8984556" lon="17.6754615">
        <ele>39.0707</ele>
        <time>2014-05-29T10:08:40Z</time>
      </trkpt>
      <trkpt lat="59.8984682" lon="17.6753722">
        <ele>39.0707</ele>
        <time>2014-05-29T10:08:41Z</time>
      </trkpt>
      <trkpt lat="59.8984824" lon="17.6752823">
        <ele>39.0707</ele>
        <time>2014-05-29T10:08:42Z</time>
      </trkpt>
      <trkpt lat="59.8984995" lon="17.6751931">
        <ele>39.5513</ele>
        <time>2014-05-29T10:08:43Z</time>
      </trkpt>
      <trkpt lat="59.8985233" lon="17.6751072">
        <ele>39.5513</ele>
        <time>2014-05-29T10:08:44Z</time>
      </trkpt>
      <trkpt lat="59.8985539" lon="17.6750266">
        <ele>39.5513</ele>
        <time>2014-05-29T10:08:45Z</time>
      </trkpt>
      <trkpt lat="59.8985875" lon="17.674952">
        <ele>40.0321</ele>
        <time>2014-05-29T10:08:46Z</time>
      </trkpt>
      <trkpt lat="59.8986242" lon="17.6748788">
        <ele>40.5128</ele>
        <time>2014-05-29T10:08:47Z</time>
      </trkpt>
      <trkpt lat="59.8986614" lon="17.6748093">
        <ele>40.5128</ele>
        <time>2014-05-29T10:08:48Z</time>
      </trkpt>
      <trkpt lat="59.8986999" lon="17.6747497">
        <ele>40.5128</ele>
        <time>2014-05-29T10:08:49Z</time>
      </trkpt>
      <trkpt lat="59.8987371" lon="17.6746995">
        <ele>40.9934</ele>
        <time>2014-05-29T10:08:50Z</time>
      </trkpt>
      <trkpt lat="59.898771" lon="17.6746511">
        <ele>40.9934</ele>
        <time>2014-05-29T10:08:51Z</time>
      </trkpt>
      <trkpt lat="59.8988093" lon="17.6746071">
        <ele>40.9934</ele>
        <time>2014-05-29T10:08:52Z</time>
      </trkpt>
      <trkpt lat="59.89885" lon="17.6745689">
        <ele>41.474</ele>
        <time>2014-05-29T10:08:53Z</time>
      </trkpt>
      <trkpt lat="59.8988844" lon="17.6745357">
        <ele>41.474</ele>
        <time>2014-05-29T10:08:54Z</time>
      </trkpt>
      <trkpt lat="59.8989154" lon="17.6745018">
        <ele>41.474</ele>
        <time>2014-05-29T10:08:55Z</time>
      </trkpt>
      <trkpt lat="59.8989403" lon="17.6744673">
        <ele>41.474</ele>
        <time>2014-05-29T10:08:56Z</time>
      </trkpt>
      <trkpt lat="59.8989637" lon="17.67442">
        <ele>40.9934</ele>
        <time>2014-05-29T10:08:57Z</time>
      </trkpt>
      <trkpt lat="59.8989904" lon="17.6743566">
        <ele>40.5128</ele>
        <time>2014-05-29T10:08:58Z</time>
      </trkpt>
      <trkpt lat="59.8990157" lon="17.6742915">
        <ele>40.5128</ele>
        <time>2014-05-29T10:08:59Z</time>
      </trkpt>
      <trkpt lat="59.8990399" lon="17.6742169">
        <ele>40.5128</ele>
        <time>2014-05-29T10:09:00Z</time>
      </trkpt>
      <trkpt lat="59.8990631" lon="17.6741366">
        <ele>40.0321</ele>
        <time>2014-05-29T10:09:01Z</time>
      </trkpt>
      <trkpt lat="59.8990848" lon="17.6740472">
        <ele>40.0321</ele>
        <time>2014-05-29T10:09:02Z</time>
      </trkpt>
      <trkpt lat="59.8991005" lon="17.6739494">
        <ele>39.5513</ele>
        <time>2014-05-29T10:09:03Z</time>
      </trkpt>
      <trkpt lat="59.8991098" lon="17.6738539">
        <ele>39.5513</ele>
        <time>2014-05-29T10:09:04Z</time>
      </trkpt>
      <trkpt lat="59.8991173" lon="17.6737583">
        <ele>39.0707</ele>
        <time>2014-05-29T10:09:05Z</time>
      </trkpt>
      <trkpt lat="59.8991221" lon="17.6736639">
        <ele>38.1094</ele>
        <time>2014-05-29T10:09:06Z</time>
      </trkpt>
      <trkpt lat="59.8991266" lon="17.6735767">
        <ele>37.6287</ele>
        <time>2014-05-29T10:09:07Z</time>
      </trkpt>
      <trkpt lat="59.8991455" lon="17.6734848">
        <ele>39.5513</ele>
        <time>2014-05-29T10:09:08Z</time>
      </trkpt>
      <trkpt lat="59.8991499" lon="17.6734059">
        <ele>39.5513</ele>
        <time>2014-05-29T10:09:09Z</time>
      </trkpt>
      <trkpt lat="59.899153" lon="17.6733313">
        <ele>39.0707</ele>
        <time>2014-05-29T10:09:10Z</time>
      </trkpt>
      <trkpt lat="59.8991606" lon="17.6732537">
        <ele>39.0707</ele>
        <time>2014-05-29T10:09:11Z</time>
      </trkpt>
      <trkpt lat="59.8991718" lon="17.6731682">
        <ele>38.5901</ele>
        <time>2014-05-29T10:09:12Z</time>
      </trkpt>
      <trkpt lat="59.8991826" lon="17.673076">
        <ele>38.1094</ele>
        <time>2014-05-29T10:09:13Z</time>
      </trkpt>
      <trkpt lat="59.8991951" lon="17.672976">
        <ele>37.1481</ele>
        <time>2014-05-29T10:09:14Z</time>
      </trkpt>
      <trkpt lat="59.8992122" lon="17.672873">
        <ele>37.1481</ele>
        <time>2014-05-29T10:09:15Z</time>
      </trkpt>
      <trkpt lat="59.8992319" lon="17.6727719">
        <ele>36.6675</ele>
        <time>2014-05-29T10:09:16Z</time>
      </trkpt>
      <trkpt lat="59.8992501" lon="17.6726689">
        <ele>36.1868</ele>
        <time>2014-05-29T10:09:17Z</time>
      </trkpt>
      <trkpt lat="59.8992699" lon="17.6725647">
        <ele>36.1868</ele>
        <time>2014-05-29T10:09:18Z</time>
      </trkpt>
      <trkpt lat="59.8992889" lon="17.6724612">
        <ele>36.1868</ele>
        <time>2014-05-29T10:09:19Z</time>
      </trkpt>
      <trkpt lat="59.8993046" lon="17.6723574">
        <ele>35.7061</ele>
        <time>2014-05-29T10:09:20Z</time>
      </trkpt>
      <trkpt lat="59.8993179" lon="17.6722565">
        <ele>35.2255</ele>
        <time>2014-05-29T10:09:21Z</time>
      </trkpt>
      <trkpt lat="59.8993309" lon="17.6721519">
        <ele>34.7449</ele>
        <time>2014-05-29T10:09:22Z</time>
      </trkpt>
      <trkpt lat="59.8993406" lon="17.6720432">
        <ele>34.2642</ele>
        <time>2014-05-29T10:09:23Z</time>
      </trkpt>
      <trkpt lat="59.8993463" lon="17.6719419">
        <ele>33.3029</ele>
        <time>2014-05-29T10:09:24Z</time>
      </trkpt>
      <trkpt lat="59.8993423" lon="17.6718263">
        <ele>32.8223</ele>
        <time>2014-05-29T10:09:25Z</time>
      </trkpt>
      <trkpt lat="59.8993449" lon="17.6716871">
        <ele>33.7834</ele>
        <time>2014-05-29T10:09:26Z</time>
      </trkpt>
      <trkpt lat="59.8993419" lon="17.6715451">
        <ele>33.7834</ele>
        <time>2014-05-29T10:09:27Z</time>
      </trkpt>
      <trkpt lat="59.8993413" lon="17.6713972">
        <ele>34.2642</ele>
        <time>2014-05-29T10:09:28Z</time>
      </trkpt>
      <trkpt lat="59.8993386" lon="17.6712489">
        <ele>35.2255</ele>
        <time>2014-05-29T10:09:29Z</time>
      </trkpt>
      <trkpt lat="59.8993403" lon="17.6711108">
        <ele>36.1868</ele>
        <time>2014-05-29T10:09:30Z</time>
      </trkpt>
      <trkpt lat="59.8993395" lon="17.6709835">
        <ele>36.6675</ele>
        <time>2014-05-29T10:09:31Z</time>
      </trkpt>
      <trkpt lat="59.8993386" lon="17.6708639">
        <ele>36.6675</ele>
        <time>2014-05-29T10:09:32Z</time>
      </trkpt>
      <trkpt lat="59.8993444" lon="17.6707507">
        <ele>36.1868</ele>
        <time>2014-05-29T10:09:33Z</time>
      </trkpt>
      <trkpt lat="59.8993546" lon="17.6706396">
        <ele>36.1868</ele>
        <time>2014-05-29T10:09:34Z</time>
      </trkpt>
      <trkpt lat="59.8993721" lon="17.6705382">
        <ele>35.7061</ele>
        <time>2014-05-29T10:09:35Z</time>
      </trkpt>
      <trkpt lat="59.8993972" lon="17.670446">
        <ele>35.7061</ele>
        <time>2014-05-29T10:09:36Z</time>
      </trkpt>
      <trkpt lat="59.899426" lon="17.6703686">
        <ele>35.7061</ele>
        <time>2014-05-29T10:09:37Z</time>
      </trkpt>
      <trkpt lat="59.8994521" lon="17.6702932">
        <ele>35.7061</ele>
        <time>2014-05-29T10:09:38Z</time>
      </trkpt>
      <trkpt lat="59.8994696" lon="17.670205">
        <ele>35.7061</ele>
        <time>2014-05-29T10:09:39Z</time>
      </trkpt>
      <trkpt lat="59.8994841" lon="17.6701161">
        <ele>35.7061</ele>
        <time>2014-05-29T10:09:40Z</time>
      </trkpt>
      <trkpt lat="59.8994955" lon="17.6700451">
        <ele>35.7061</ele>
        <time>2014-05-29T10:09:41Z</time>
      </trkpt>
      <trkpt lat="59.8995045" lon="17.669982">
        <ele>35.7061</ele>
        <time>2014-05-29T10:09:42Z</time>
      </trkpt>
      <trkpt lat="59.899508" lon="17.6699169">
        <ele>35.7061</ele>
        <time>2014-05-29T10:09:43Z</time>
      </trkpt>
      <trkpt lat="59.8995092" lon="17.6698541">
        <ele>35.2255</ele>
        <time>2014-05-29T10:09:44Z</time>
      </trkpt>
      <trkpt lat="59.8995144" lon="17.6697965">
        <ele>35.2255</ele>
        <time>2014-05-29T10:09:45Z</time>
      </trkpt>
      <trkpt lat="59.8995205" lon="17.6697286">
        <ele>35.2255</ele>
        <time>2014-05-29T10:09:46Z</time>
      </trkpt>
      <trkpt lat="59.8995319" lon="17.6696509">
        <ele>35.2255</ele>
        <time>2014-05-29T10:09:47Z</time>
      </trkpt>
      <trkpt lat="59.8995493" lon="17.6695746">
        <ele>36.1868</ele>
        <time>2014-05-29T10:09:48Z</time>
      </trkpt>
      <trkpt lat="59.8995648" lon="17.6694977">
        <ele>35.7061</ele>
        <time>2014-05-29T10:09:49Z</time>
      </trkpt>
      <trkpt lat="59.8995572" lon="17.6694193">
        <ele>34.2642</ele>
        <time>2014-05-29T10:09:50Z</time>
      </trkpt>
      <trkpt lat="59.8995609" lon="17.6693267">
        <ele>34.2642</ele>
        <time>2014-05-29T10:09:51Z</time>
      </trkpt>
      <trkpt lat="59.8995588" lon="17.6692347">
        <ele>32.3416</ele>
        <time>2014-05-29T10:09:52Z</time>
      </trkpt>
      <trkpt lat="59.8995531" lon="17.6691447">
        <ele>30.8995</ele>
        <time>2014-05-29T10:09:53Z</time>
      </trkpt>
      <trkpt lat="59.8995386" lon="17.6690635">
        <ele>28.9769</ele>
        <time>2014-05-29T10:09:54Z</time>
      </trkpt>
      <trkpt lat="59.8995136" lon="17.6689804">
        <ele>28.0155</ele>
        <time>2014-05-29T10:09:55Z</time>
      </trkpt>
      <trkpt lat="59.8994773" lon="17.6689037">
        <ele>26.0929</ele>
        <time>2014-05-29T10:09:56Z</time>
      </trkpt>
      <trkpt lat="59.8994308" lon="17.6688709">
        <ele>23.6896</ele>
        <time>2014-05-29T10:09:57Z</time>
      </trkpt>
      <trkpt lat="59.8993801" lon="17.6688529">
        <ele>21.767</ele>
        <time>2014-05-29T10:09:58Z</time>
      </trkpt>
      <trkpt lat="59.8993252" lon="17.6688364">
        <ele>20.8057</ele>
        <time>2014-05-29T10:09:59Z</time>
      </trkpt>
      <trkpt lat="59.8992713" lon="17.6688335">
        <ele>19.3638</ele>
        <time>2014-05-29T10:10:00Z</time>
      </trkpt>
      <trkpt lat="59.899218" lon="17.6688387">
        <ele>18.8831</ele>
        <time>2014-05-29T10:10:01Z</time>
      </trkpt>
      <trkpt lat="59.8991708" lon="17.6688307">
        <ele>16.9604</ele>
        <time>2014-05-29T10:10:02Z</time>
      </trkpt>
      <trkpt lat="59.8991167" lon="17.6688221">
        <ele>16.4797</ele>
        <time>2014-05-29T10:10:03Z</time>
      </trkpt>
      <trkpt lat="59.8990681" lon="17.6687978">
        <ele>15.5184</ele>
        <time>2014-05-29T10:10:04Z</time>
      </trkpt>
      <trkpt lat="59.8990325" lon="17.6687655">
        <ele>14.0764</ele>
        <time>2014-05-29T10:10:05Z</time>
      </trkpt>
      <trkpt lat="59.899024" lon="17.6687141">
        <ele>13.1151</ele>
        <time>2014-05-29T10:10:06Z</time>
      </trkpt>
      <trkpt lat="59.8990227" lon="17.6686428">
        <ele>12.6344</ele>
        <time>2014-05-29T10:10:07Z</time>
      </trkpt>
      <trkpt lat="59.8990171" lon="17.6685427">
        <ele>11.1925</ele>
        <time>2014-05-29T10:10:08Z</time>
      </trkpt>
      <trkpt lat="59.899008" lon="17.6684292">
        <ele>10.7118</ele>
        <time>2014-05-29T10:10:09Z</time>
      </trkpt>
      <trkpt lat="59.8989931" lon="17.66832">
        <ele>11.6732</ele>
        <time>2014-05-29T10:10:10Z</time>
      </trkpt>
      <trkpt lat="59.8989792" lon="17.6682248">
        <ele>11.1925</ele>
        <time>2014-05-29T10:10:11Z</time>
      </trkpt>
      <trkpt lat="59.8989631" lon="17.6681431">
        <ele>12.6344</ele>
        <time>2014-05-29T10:10:12Z</time>
      </trkpt>
      <trkpt lat="59.8989476" lon="17.6680659">
        <ele>12.6344</ele>
        <time>2014-05-29T10:10:13Z</time>
      </trkpt>
      <trkpt lat="59.8989408" lon="17.6679882">
        <ele>13.1151</ele>
        <time>2014-05-29T10:10:14Z</time>
      </trkpt>
      <trkpt lat="59.898942" lon="17.6679081">
        <ele>13.5958</ele>
        <time>2014-05-29T10:10:15Z</time>
      </trkpt>
      <trkpt lat="59.8989458" lon="17.6678191">
        <ele>14.557</ele>
        <time>2014-05-29T10:10:16Z</time>
      </trkpt>
      <trkpt lat="59.8989486" lon="17.6677311">
        <ele>15.0377</ele>
        <time>2014-05-29T10:10:17Z</time>
      </trkpt>
      <trkpt lat="59.8989411" lon="17.6676659">
        <ele>15.5184</ele>
        <time>2014-05-29T10:10:18Z</time>
      </trkpt>
      <trkpt lat="59.8989368" lon="17.6675985">
        <ele>15.0377</ele>
        <time>2014-05-29T10:10:19Z</time>
      </trkpt>
      <trkpt lat="59.8989331" lon="17.6675199">
        <ele>15.0377</ele>
        <time>2014-05-29T10:10:20Z</time>
      </trkpt>
      <trkpt lat="59.8989231" lon="17.6674099">
        <ele>15.999</ele>
        <time>2014-05-29T10:10:21Z</time>
      </trkpt>
      <trkpt lat="59.8989103" lon="17.6673038">
        <ele>15.999</ele>
        <time>2014-05-29T10:10:22Z</time>
      </trkpt>
      <trkpt lat="59.898893" lon="17.6671984">
        <ele>16.4797</ele>
        <time>2014-05-29T10:10:23Z</time>
      </trkpt>
      <trkpt lat="59.8988735" lon="17.6670944">
        <ele>16.4797</ele>
        <time>2014-05-29T10:10:24Z</time>
      </trkpt>
      <trkpt lat="59.8988554" lon="17.6669987">
        <ele>16.4797</ele>
        <time>2014-05-29T10:10:25Z</time>
      </trkpt>
      <trkpt lat="59.8988341" lon="17.6669226">
        <ele>16.9604</ele>
        <time>2014-05-29T10:10:26Z</time>
      </trkpt>
      <trkpt lat="59.8988051" lon="17.6668503">
        <ele>16.9604</ele>
        <time>2014-05-29T10:10:27Z</time>
      </trkpt>
      <trkpt lat="59.8987787" lon="17.6667775">
        <ele>16.4797</ele>
        <time>2014-05-29T10:10:28Z</time>
      </trkpt>
      <trkpt lat="59.8987444" lon="17.6667071">
        <ele>16.4797</ele>
        <time>2014-05-29T10:10:29Z</time>
      </trkpt>
      <trkpt lat="59.898708" lon="17.666647">
        <ele>16.4797</ele>
        <time>2014-05-29T10:10:30Z</time>
      </trkpt>
      <trkpt lat="59.8986491" lon="17.6665817">
        <ele>17.4412</ele>
        <time>2014-05-29T10:10:31Z</time>
      </trkpt>
      <trkpt lat="59.8986004" lon="17.6665554">
        <ele>16.4797</ele>
        <time>2014-05-29T10:10:32Z</time>
      </trkpt>
      <trkpt lat="59.8985507" lon="17.6665371">
        <ele>15.0377</ele>
        <time>2014-05-29T10:10:33Z</time>
      </trkpt>
      <trkpt lat="59.8984995" lon="17.6665292">
        <ele>15.0377</ele>
        <time>2014-05-29T10:10:34Z</time>
      </trkpt>
      <trkpt lat="59.8984442" lon="17.6665053">
        <ele>14.0764</ele>
        <time>2014-05-29T10:10:35Z</time>
      </trkpt>
      <trkpt lat="59.8983907" lon="17.6664903">
        <ele>13.5958</ele>
        <time>2014-05-29T10:10:36Z</time>
      </trkpt>
      <trkpt lat="59.8983446" lon="17.6664743">
        <ele>11.6732</ele>
        <time>2014-05-29T10:10:37Z</time>
      </trkpt>
      <trkpt lat="59.8982954" lon="17.6664656">
        <ele>11.1925</ele>
        <time>2014-05-29T10:10:38Z</time>
      </trkpt>
      <trkpt lat="59.8982482" lon="17.6664483">
        <ele>10.2312</ele>
        <time>2014-05-29T10:10:39Z</time>
      </trkpt>
      <trkpt lat="59.8981975" lon="17.6664523">
        <ele>9.75061</ele>
        <time>2014-05-29T10:10:40Z</time>
      </trkpt>
      <trkpt lat="59.8981451" lon="17.6664564">
        <ele>9.75061</ele>
        <time>2014-05-29T10:10:41Z</time>
      </trkpt>
      <trkpt lat="59.8980902" lon="17.6664554">
        <ele>9.75061</ele>
        <time>2014-05-29T10:10:42Z</time>
      </trkpt>
      <trkpt lat="59.8980219" lon="17.6664377">
        <ele>11.6732</ele>
        <time>2014-05-29T10:10:43Z</time>
      </trkpt>
      <trkpt lat="59.897954" lon="17.6664232">
        <ele>14.0764</ele>
        <time>2014-05-29T10:10:44Z</time>
      </trkpt>
      <trkpt lat="59.8978904" lon="17.6664105">
        <ele>15.5184</ele>
        <time>2014-05-29T10:10:45Z</time>
      </trkpt>
      <trkpt lat="59.8978298" lon="17.6664014">
        <ele>16.4797</ele>
        <time>2014-05-29T10:10:46Z</time>
      </trkpt>
      <trkpt lat="59.8977711" lon="17.6663968">
        <ele>17.4412</ele>
        <time>2014-05-29T10:10:47Z</time>
      </trkpt>
      <trkpt lat="59.8977137" lon="17.6663955">
        <ele>18.4023</ele>
        <time>2014-05-29T10:10:48Z</time>
      </trkpt>
      <trkpt lat="59.8976606" lon="17.6663956">
        <ele>19.3638</ele>
        <time>2014-05-29T10:10:49Z</time>
      </trkpt>
      <trkpt lat="59.897608" lon="17.6663901">
        <ele>20.8057</ele>
        <time>2014-05-29T10:10:50Z</time>
      </trkpt>
      <trkpt lat="59.8975614" lon="17.6663849">
        <ele>21.767</ele>
        <time>2014-05-29T10:10:51Z</time>
      </trkpt>
      <trkpt lat="59.8975168" lon="17.6663696">
        <ele>22.7283</ele>
        <time>2014-05-29T10:10:52Z</time>
      </trkpt>
      <trkpt lat="59.897476" lon="17.666359">
        <ele>23.209</ele>
        <time>2014-05-29T10:10:53Z</time>
      </trkpt>
      <trkpt lat="59.8974348" lon="17.6663598">
        <ele>24.1703</ele>
        <time>2014-05-29T10:10:54Z</time>
      </trkpt>
      <trkpt lat="59.8973911" lon="17.6663589">
        <ele>24.651</ele>
        <time>2014-05-29T10:10:55Z</time>
      </trkpt>
      <trkpt lat="59.897348" lon="17.6663574">
        <ele>25.6123</ele>
        <time>2014-05-29T10:10:56Z</time>
      </trkpt>
      <trkpt lat="59.897309" lon="17.6663583">
        <ele>26.0929</ele>
        <time>2014-05-29T10:10:57Z</time>
      </trkpt>
      <trkpt lat="59.8972674" lon="17.6663574">
        <ele>26.0929</ele>
        <time>2014-05-29T10:10:58Z</time>
      </trkpt>
      <trkpt lat="59.8972277" lon="17.666357">
        <ele>26.0929</ele>
        <time>2014-05-29T10:10:59Z</time>
      </trkpt>
      <trkpt lat="59.8971894" lon="17.6663564">
        <ele>26.0929</ele>
        <time>2014-05-29T10:11:00Z</time>
      </trkpt>
      <trkpt lat="59.8971489" lon="17.6663548">
        <ele>27.0543</ele>
        <time>2014-05-29T10:11:01Z</time>
      </trkpt>
      <trkpt lat="59.8971086" lon="17.6663482">
        <ele>28.0155</ele>
        <time>2014-05-29T10:11:02Z</time>
      </trkpt>
      <trkpt lat="59.8970693" lon="17.6663464">
        <ele>28.4962</ele>
        <time>2014-05-29T10:11:03Z</time>
      </trkpt>
      <trkpt lat="59.8970343" lon="17.666353">
        <ele>28.9769</ele>
        <time>2014-05-29T10:11:04Z</time>
      </trkpt>
      <trkpt lat="59.897003" lon="17.6663618">
        <ele>29.4575</ele>
        <time>2014-05-29T10:11:05Z</time>
      </trkpt>
      <trkpt lat="59.8969756" lon="17.6663641">
        <ele>29.9381</ele>
        <time>2014-05-29T10:11:06Z</time>
      </trkpt>
      <trkpt lat="59.8969444" lon="17.6663616">
        <ele>29.9381</ele>
        <time>2014-05-29T10:11:07Z</time>
      </trkpt>
      <trkpt lat="59.8969043" lon="17.6663543">
        <ele>29.9381</ele>
        <time>2014-05-29T10:11:08Z</time>
      </trkpt>
      <trkpt lat="59.8968645" lon="17.6663407">
        <ele>30.4188</ele>
        <time>2014-05-29T10:11:09Z</time>
      </trkpt>
      <trkpt lat="59.8968326" lon="17.6663245">
        <ele>30.8995</ele>
        <time>2014-05-29T10:11:10Z</time>
      </trkpt>
      <trkpt lat="59.8968085" lon="17.6663004">
        <ele>30.8995</ele>
        <time>2014-05-29T10:11:11Z</time>
      </trkpt>
      <trkpt lat="59.8967951" lon="17.6662651">
        <ele>30.8995</ele>
        <time>2014-05-29T10:11:12Z</time>
      </trkpt>
      <trkpt lat="59.8967745" lon="17.6662253">
        <ele>30.8995</ele>
        <time>2014-05-29T10:11:13Z</time>
      </trkpt>
      <trkpt lat="59.8967469" lon="17.6661886">
        <ele>30.8995</ele>
        <time>2014-05-29T10:11:14Z</time>
      </trkpt>
      <trkpt lat="59.8967185" lon="17.6661539">
        <ele>30.4188</ele>
        <time>2014-05-29T10:11:15Z</time>
      </trkpt>
      <trkpt lat="59.8966927" lon="17.6661139">
        <ele>30.4188</ele>
        <time>2014-05-29T10:11:16Z</time>
      </trkpt>
      <trkpt lat="59.896673" lon="17.6660663">
        <ele>30.4188</ele>
        <time>2014-05-29T10:11:17Z</time>
      </trkpt>
      <trkpt lat="59.8966611" lon="17.6660083">
        <ele>29.9381</ele>
        <time>2014-05-29T10:11:18Z</time>
      </trkpt>
      <trkpt lat="59.8966481" lon="17.6659502">
        <ele>28.0155</ele>
        <time>2014-05-29T10:11:19Z</time>
      </trkpt>
      <trkpt lat="59.8966291" lon="17.665892">
        <ele>27.0543</ele>
        <time>2014-05-29T10:11:20Z</time>
      </trkpt>
      <trkpt lat="59.8966035" lon="17.6658076">
        <ele>26.0929</ele>
        <time>2014-05-29T10:11:21Z</time>
      </trkpt>
      <trkpt lat="59.8965602" lon="17.6656832">
        <ele>26.0929</ele>
        <time>2014-05-29T10:11:22Z</time>
      </trkpt>
      <trkpt lat="59.896515" lon="17.665556">
        <ele>26.0929</ele>
        <time>2014-05-29T10:11:23Z</time>
      </trkpt>
      <trkpt lat="59.8964698" lon="17.6654284">
        <ele>26.0929</ele>
        <time>2014-05-29T10:11:24Z</time>
      </trkpt>
      <trkpt lat="59.8964248" lon="17.6652986">
        <ele>26.0929</ele>
        <time>2014-05-29T10:11:25Z</time>
      </trkpt>
      <trkpt lat="59.8963788" lon="17.6651665">
        <ele>26.0929</ele>
        <time>2014-05-29T10:11:26Z</time>
      </trkpt>
      <trkpt lat="59.8963325" lon="17.6650339">
        <ele>26.0929</ele>
        <time>2014-05-29T10:11:27Z</time>
      </trkpt>
      <trkpt lat="59.8962865" lon="17.6649024">
        <ele>26.0929</ele>
        <time>2014-05-29T10:11:28Z</time>
      </trkpt>
      <trkpt lat="59.896241" lon="17.6647732">
        <ele>26.0929</ele>
        <time>2014-05-29T10:11:29Z</time>
      </trkpt>
      <trkpt lat="59.8961969" lon="17.6646458">
        <ele>26.0929</ele>
        <time>2014-05-29T10:11:30Z</time>
      </trkpt>
      <trkpt lat="59.8961538" lon="17.6645204">
        <ele>26.0929</ele>
        <time>2014-05-29T10:11:31Z</time>
      </trkpt>
      <trkpt lat="59.8961114" lon="17.6643973">
        <ele>26.0929</ele>
        <time>2014-05-29T10:11:32Z</time>
      </trkpt>
      <trkpt lat="59.8960695" lon="17.6642775">
        <ele>26.0929</ele>
        <time>2014-05-29T10:11:33Z</time>
      </trkpt>
      <trkpt lat="59.8960275" lon="17.6641596">
        <ele>26.0929</ele>
        <time>2014-05-29T10:11:34Z</time>
      </trkpt>
      <trkpt lat="59.8959859" lon="17.664042">
        <ele>26.5736</ele>
        <time>2014-05-29T10:11:35Z</time>
      </trkpt>
      <trkpt lat="59.8959444" lon="17.6639248">
        <ele>26.5736</ele>
        <time>2014-05-29T10:11:36Z</time>
      </trkpt>
      <trkpt lat="59.8959035" lon="17.6638083">
        <ele>26.5736</ele>
        <time>2014-05-29T10:11:37Z</time>
      </trkpt>
      <trkpt lat="59.8958626" lon="17.6636926">
        <ele>26.5736</ele>
        <time>2014-05-29T10:11:38Z</time>
      </trkpt>
      <trkpt lat="59.8958223" lon="17.6635776">
        <ele>26.5736</ele>
        <time>2014-05-29T10:11:39Z</time>
      </trkpt>
      <trkpt lat="59.8957835" lon="17.6634638">
        <ele>26.5736</ele>
        <time>2014-05-29T10:11:40Z</time>
      </trkpt>
      <trkpt lat="59.8957448" lon="17.6633519">
        <ele>27.0543</ele>
        <time>2014-05-29T10:11:41Z</time>
      </trkpt>
      <trkpt lat="59.8957059" lon="17.6632413">
        <ele>27.0543</ele>
        <time>2014-05-29T10:11:42Z</time>
      </trkpt>
      <trkpt lat="59.8956673" lon="17.663132">
        <ele>27.0543</ele>
        <time>2014-05-29T10:11:43Z</time>
      </trkpt>
      <trkpt lat="59.8956282" lon="17.6630234">
        <ele>27.0543</ele>
        <time>2014-05-29T10:11:44Z</time>
      </trkpt>
      <trkpt lat="59.8955892" lon="17.6629141">
        <ele>27.0543</ele>
        <time>2014-05-29T10:11:45Z</time>
      </trkpt>
      <trkpt lat="59.8955508" lon="17.6628049">
        <ele>27.0543</ele>
        <time>2014-05-29T10:11:46Z</time>
      </trkpt>
      <trkpt lat="59.8955129" lon="17.662697">
        <ele>27.5349</ele>
        <time>2014-05-29T10:11:47Z</time>
      </trkpt>
      <trkpt lat="59.8954746" lon="17.6625908">
        <ele>27.5349</ele>
        <time>2014-05-29T10:11:48Z</time>
      </trkpt>
      <trkpt lat="59.895436" lon="17.6624847">
        <ele>27.5349</ele>
        <time>2014-05-29T10:11:49Z</time>
      </trkpt>
      <trkpt lat="59.8953966" lon="17.6623801">
        <ele>27.5349</ele>
        <time>2014-05-29T10:11:50Z</time>
      </trkpt>
      <trkpt lat="59.8953566" lon="17.6622773">
        <ele>27.5349</ele>
        <time>2014-05-29T10:11:51Z</time>
      </trkpt>
      <trkpt lat="59.8953164" lon="17.6621769">
        <ele>28.0155</ele>
        <time>2014-05-29T10:11:52Z</time>
      </trkpt>
      <trkpt lat="59.895278" lon="17.662079">
        <ele>28.0155</ele>
        <time>2014-05-29T10:11:53Z</time>
      </trkpt>
      <trkpt lat="59.8952415" lon="17.6619833">
        <ele>28.0155</ele>
        <time>2014-05-29T10:11:54Z</time>
      </trkpt>
      <trkpt lat="59.8952053" lon="17.661889">
        <ele>28.0155</ele>
        <time>2014-05-29T10:11:55Z</time>
      </trkpt>
      <trkpt lat="59.8951697" lon="17.6617941">
        <ele>28.0155</ele>
        <time>2014-05-29T10:11:56Z</time>
      </trkpt>
      <trkpt lat="59.8951351" lon="17.6616979">
        <ele>28.4962</ele>
        <time>2014-05-29T10:11:57Z</time>
      </trkpt>
      <trkpt lat="59.8951038" lon="17.6615988">
        <ele>28.4962</ele>
        <time>2014-05-29T10:11:58Z</time>
      </trkpt>
      <trkpt lat="59.8950726" lon="17.6614993">
        <ele>28.4962</ele>
        <time>2014-05-29T10:11:59Z</time>
      </trkpt>
      <trkpt lat="59.8950387" lon="17.6614031">
        <ele>28.4962</ele>
        <time>2014-05-29T10:12:00Z</time>
      </trkpt>
      <trkpt lat="59.8950044" lon="17.6613078">
        <ele>28.9769</ele>
        <time>2014-05-29T10:12:01Z</time>
      </trkpt>
      <trkpt lat="59.8949708" lon="17.6612134">
        <ele>28.9769</ele>
        <time>2014-05-29T10:12:02Z</time>
      </trkpt>
      <trkpt lat="59.8949374" lon="17.6611204">
        <ele>28.9769</ele>
        <time>2014-05-29T10:12:03Z</time>
      </trkpt>
      <trkpt lat="59.8949039" lon="17.6610285">
        <ele>29.4575</ele>
        <time>2014-05-29T10:12:04Z</time>
      </trkpt>
      <trkpt lat="59.8948719" lon="17.6609389">
        <ele>29.4575</ele>
        <time>2014-05-29T10:12:05Z</time>
      </trkpt>
      <trkpt lat="59.8948408" lon="17.6608524">
        <ele>29.4575</ele>
        <time>2014-05-29T10:12:06Z</time>
      </trkpt>
      <trkpt lat="59.8948096" lon="17.660767">
        <ele>29.4575</ele>
        <time>2014-05-29T10:12:07Z</time>
      </trkpt>
      <trkpt lat="59.8947798" lon="17.660678">
        <ele>29.4575</ele>
        <time>2014-05-29T10:12:08Z</time>
      </trkpt>
      <trkpt lat="59.8947506" lon="17.6605866">
        <ele>29.9381</ele>
        <time>2014-05-29T10:12:09Z</time>
      </trkpt>
      <trkpt lat="59.8947196" lon="17.6604964">
        <ele>29.9381</ele>
        <time>2014-05-29T10:12:10Z</time>
      </trkpt>
      <trkpt lat="59.8946865" lon="17.660407">
        <ele>29.9381</ele>
        <time>2014-05-29T10:12:11Z</time>
      </trkpt>
      <trkpt lat="59.8946525" lon="17.6603184">
        <ele>29.4575</ele>
        <time>2014-05-29T10:12:12Z</time>
      </trkpt>
      <trkpt lat="59.8946183" lon="17.6602286">
        <ele>29.4575</ele>
        <time>2014-05-29T10:12:13Z</time>
      </trkpt>
      <trkpt lat="59.894584" lon="17.6601346">
        <ele>29.4575</ele>
        <time>2014-05-29T10:12:14Z</time>
      </trkpt>
      <trkpt lat="59.8945491" lon="17.660035">
        <ele>28.9769</ele>
        <time>2014-05-29T10:12:15Z</time>
      </trkpt>
      <trkpt lat="59.8945123" lon="17.6599293">
        <ele>28.9769</ele>
        <time>2014-05-29T10:12:16Z</time>
      </trkpt>
      <trkpt lat="59.8944721" lon="17.659817">
        <ele>28.4962</ele>
        <time>2014-05-29T10:12:17Z</time>
      </trkpt>
      <trkpt lat="59.8944293" lon="17.659698">
        <ele>28.0155</ele>
        <time>2014-05-29T10:12:18Z</time>
      </trkpt>
      <trkpt lat="59.894385" lon="17.6595752">
        <ele>28.0155</ele>
        <time>2014-05-29T10:12:19Z</time>
      </trkpt>
      <trkpt lat="59.8943398" lon="17.6594482">
        <ele>27.5349</ele>
        <time>2014-05-29T10:12:20Z</time>
      </trkpt>
      <trkpt lat="59.8942937" lon="17.6593177">
        <ele>27.0543</ele>
        <time>2014-05-29T10:12:21Z</time>
      </trkpt>
      <trkpt lat="59.8942466" lon="17.659184">
        <ele>26.5736</ele>
        <time>2014-05-29T10:12:22Z</time>
      </trkpt>
      <trkpt lat="59.8941989" lon="17.6590479">
        <ele>26.5736</ele>
        <time>2014-05-29T10:12:23Z</time>
      </trkpt>
      <trkpt lat="59.8941502" lon="17.6589118">
        <ele>26.0929</ele>
        <time>2014-05-29T10:12:24Z</time>
      </trkpt>
      <trkpt lat="59.8941113" lon="17.6587155">
        <ele>26.0929</ele>
        <time>2014-05-29T10:12:25Z</time>
      </trkpt>
      <trkpt lat="59.8940682" lon="17.6585856">
        <ele>25.6123</ele>
        <time>2014-05-29T10:12:26Z</time>
      </trkpt>
      <trkpt lat="59.8940107" lon="17.6584563">
        <ele>25.6123</ele>
        <time>2014-05-29T10:12:27Z</time>
      </trkpt>
      <trkpt lat="59.8939608" lon="17.6583403">
        <ele>26.0929</ele>
        <time>2014-05-29T10:12:28Z</time>
      </trkpt>
      <trkpt lat="59.8939146" lon="17.6582302">
        <ele>26.5736</ele>
        <time>2014-05-29T10:12:29Z</time>
      </trkpt>
      <trkpt lat="59.893872" lon="17.658123">
        <ele>27.0543</ele>
        <time>2014-05-29T10:12:30Z</time>
      </trkpt>
      <trkpt lat="59.8938337" lon="17.6580236">
        <ele>27.5349</ele>
        <time>2014-05-29T10:12:31Z</time>
      </trkpt>
      <trkpt lat="59.8937981" lon="17.6579279">
        <ele>28.0155</ele>
        <time>2014-05-29T10:12:32Z</time>
      </trkpt>
      <trkpt lat="59.8937662" lon="17.6578362">
        <ele>28.0155</ele>
        <time>2014-05-29T10:12:33Z</time>
      </trkpt>
      <trkpt lat="59.8937364" lon="17.6577494">
        <ele>28.4962</ele>
        <time>2014-05-29T10:12:34Z</time>
      </trkpt>
      <trkpt lat="59.8937085" lon="17.6576677">
        <ele>28.9769</ele>
        <time>2014-05-29T10:12:35Z</time>
      </trkpt>
      <trkpt lat="59.8936826" lon="17.6575906">
        <ele>29.4575</ele>
        <time>2014-05-29T10:12:36Z</time>
      </trkpt>
      <trkpt lat="59.8936571" lon="17.6575196">
        <ele>29.9381</ele>
        <time>2014-05-29T10:12:37Z</time>
      </trkpt>
      <trkpt lat="59.8936318" lon="17.6574518">
        <ele>29.9381</ele>
        <time>2014-05-29T10:12:38Z</time>
      </trkpt>
      <trkpt lat="59.893608" lon="17.6573844">
        <ele>30.4188</ele>
        <time>2014-05-29T10:12:39Z</time>
      </trkpt>
      <trkpt lat="59.8935849" lon="17.6573197">
        <ele>30.8995</ele>
        <time>2014-05-29T10:12:40Z</time>
      </trkpt>
      <trkpt lat="59.8935613" lon="17.657258">
        <ele>30.8995</ele>
        <time>2014-05-29T10:12:41Z</time>
      </trkpt>
      <trkpt lat="59.8935381" lon="17.6571984">
        <ele>31.3801</ele>
        <time>2014-05-29T10:12:42Z</time>
      </trkpt>
      <trkpt lat="59.8935162" lon="17.6571411">
        <ele>31.3801</ele>
        <time>2014-05-29T10:12:43Z</time>
      </trkpt>
      <trkpt lat="59.8934944" lon="17.6570848">
        <ele>31.8607</ele>
        <time>2014-05-29T10:12:44Z</time>
      </trkpt>
      <trkpt lat="59.8934735" lon="17.6570275">
        <ele>31.8607</ele>
        <time>2014-05-29T10:12:45Z</time>
      </trkpt>
      <trkpt lat="59.8934541" lon="17.6569694">
        <ele>32.3416</ele>
        <time>2014-05-29T10:12:46Z</time>
      </trkpt>
      <trkpt lat="59.8934338" lon="17.6569115">
        <ele>32.3416</ele>
        <time>2014-05-29T10:12:47Z</time>
      </trkpt>
      <trkpt lat="59.893413" lon="17.6568519">
        <ele>32.3416</ele>
        <time>2014-05-29T10:12:48Z</time>
      </trkpt>
      <trkpt lat="59.8933927" lon="17.6567907">
        <ele>32.8223</ele>
        <time>2014-05-29T10:12:49Z</time>
      </trkpt>
      <trkpt lat="59.8933712" lon="17.6567292">
        <ele>32.8223</ele>
        <time>2014-05-29T10:12:50Z</time>
      </trkpt>
      <trkpt lat="59.893349" lon="17.6566678">
        <ele>33.3029</ele>
        <time>2014-05-29T10:12:51Z</time>
      </trkpt>
      <trkpt lat="59.8933273" lon="17.6566058">
        <ele>33.3029</ele>
        <time>2014-05-29T10:12:52Z</time>
      </trkpt>
      <trkpt lat="59.8933049" lon="17.6565448">
        <ele>33.3029</ele>
        <time>2014-05-29T10:12:53Z</time>
      </trkpt>
      <trkpt lat="59.8932816" lon="17.6564853">
        <ele>33.3029</ele>
        <time>2014-05-29T10:12:54Z</time>
      </trkpt>
      <trkpt lat="59.8932622" lon="17.6564245">
        <ele>33.3029</ele>
        <time>2014-05-29T10:12:55Z</time>
      </trkpt>
      <trkpt lat="59.8932562" lon="17.6563585">
        <ele>33.3029</ele>
        <time>2014-05-29T10:12:56Z</time>
      </trkpt>
      <trkpt lat="59.8932696" lon="17.6562956">
        <ele>33.3029</ele>
        <time>2014-05-29T10:12:57Z</time>
      </trkpt>
      <trkpt lat="59.893299" lon="17.6562515">
        <ele>33.3029</ele>
        <time>2014-05-29T10:12:58Z</time>
      </trkpt>
      <trkpt lat="59.8933385" lon="17.6562332">
        <ele>33.3029</ele>
        <time>2014-05-29T10:12:59Z</time>
      </trkpt>
      <trkpt lat="59.8933816" lon="17.6562422">
        <ele>33.3029</ele>
        <time>2014-05-29T10:13:00Z</time>
      </trkpt>
      <trkpt lat="59.8934265" lon="17.6562577">
        <ele>32.8223</ele>
        <time>2014-05-29T10:13:01Z</time>
      </trkpt>
      <trkpt lat="59.8934737" lon="17.6562576">
        <ele>32.8223</ele>
        <time>2014-05-29T10:13:02Z</time>
      </trkpt>
      <trkpt lat="59.8935226" lon="17.6562449">
        <ele>32.8223</ele>
        <time>2014-05-29T10:13:03Z</time>
      </trkpt>
      <trkpt lat="59.8935711" lon="17.6562208">
        <ele>32.8223</ele>
        <time>2014-05-29T10:13:04Z</time>
      </trkpt>
      <trkpt lat="59.8936186" lon="17.6561887">
        <ele>32.8223</ele>
        <time>2014-05-29T10:13:05Z</time>
      </trkpt>
      <trkpt lat="59.8936664" lon="17.6561568">
        <ele>32.8223</ele>
        <time>2014-05-29T10:13:06Z</time>
      </trkpt>
      <trkpt lat="59.8937157" lon="17.6561251">
        <ele>32.8223</ele>
        <time>2014-05-29T10:13:07Z</time>
      </trkpt>
      <trkpt lat="59.8937648" lon="17.6560895">
        <ele>32.8223</ele>
        <time>2014-05-29T10:13:08Z</time>
      </trkpt>
      <trkpt lat="59.893813" lon="17.6560503">
        <ele>32.8223</ele>
        <time>2014-05-29T10:13:09Z</time>
      </trkpt>
      <trkpt lat="59.8938602" lon="17.6560122">
        <ele>33.3029</ele>
        <time>2014-05-29T10:13:10Z</time>
      </trkpt>
      <trkpt lat="59.8939059" lon="17.6559757">
        <ele>33.3029</ele>
        <time>2014-05-29T10:13:11Z</time>
      </trkpt>
      <trkpt lat="59.8939499" lon="17.6559406">
        <ele>33.3029</ele>
        <time>2014-05-29T10:13:12Z</time>
      </trkpt>
      <trkpt lat="59.8939948" lon="17.6559076">
        <ele>33.3029</ele>
        <time>2014-05-29T10:13:13Z</time>
      </trkpt>
      <trkpt lat="59.8940403" lon="17.6558759">
        <ele>33.3029</ele>
        <time>2014-05-29T10:13:14Z</time>
      </trkpt>
      <trkpt lat="59.894086" lon="17.655844">
        <ele>33.3029</ele>
        <time>2014-05-29T10:13:15Z</time>
      </trkpt>
      <trkpt lat="59.8941325" lon="17.6558126">
        <ele>33.3029</ele>
        <time>2014-05-29T10:13:16Z</time>
      </trkpt>
      <trkpt lat="59.8941784" lon="17.655779">
        <ele>33.3029</ele>
        <time>2014-05-29T10:13:17Z</time>
      </trkpt>
      <trkpt lat="59.8942238" lon="17.6557416">
        <ele>33.3029</ele>
        <time>2014-05-29T10:13:18Z</time>
      </trkpt>
      <trkpt lat="59.8942679" lon="17.6557004">
        <ele>33.3029</ele>
        <time>2014-05-29T10:13:19Z</time>
      </trkpt>
      <trkpt lat="59.8943094" lon="17.6556525">
        <ele>33.3029</ele>
        <time>2014-05-29T10:13:20Z</time>
      </trkpt>
      <trkpt lat="59.894348" lon="17.6555978">
        <ele>33.3029</ele>
        <time>2014-05-29T10:13:21Z</time>
      </trkpt>
      <trkpt lat="59.8943847" lon="17.6555406">
        <ele>33.3029</ele>
        <time>2014-05-29T10:13:22Z</time>
      </trkpt>
      <trkpt lat="59.8944213" lon="17.6554838">
        <ele>33.3029</ele>
        <time>2014-05-29T10:13:23Z</time>
      </trkpt>
      <trkpt lat="59.8944585" lon="17.6554285">
        <ele>33.7834</ele>
        <time>2014-05-29T10:13:24Z</time>
      </trkpt>
      <trkpt lat="59.8944953" lon="17.6553735">
        <ele>33.3029</ele>
        <time>2014-05-29T10:13:25Z</time>
      </trkpt>
      <trkpt lat="59.8945314" lon="17.6553191">
        <ele>33.3029</ele>
        <time>2014-05-29T10:13:26Z</time>
      </trkpt>
      <trkpt lat="59.8945676" lon="17.6552658">
        <ele>33.3029</ele>
        <time>2014-05-29T10:13:27Z</time>
      </trkpt>
      <trkpt lat="59.8946026" lon="17.6552134">
        <ele>33.3029</ele>
        <time>2014-05-29T10:13:28Z</time>
      </trkpt>
      <trkpt lat="59.8946361" lon="17.6551642">
        <ele>33.3029</ele>
        <time>2014-05-29T10:13:29Z</time>
      </trkpt>
      <trkpt lat="59.8946673" lon="17.6551158">
        <ele>33.3029</ele>
        <time>2014-05-29T10:13:30Z</time>
      </trkpt>
      <trkpt lat="59.8946969" lon="17.6550648">
        <ele>33.3029</ele>
        <time>2014-05-29T10:13:31Z</time>
      </trkpt>
      <trkpt lat="59.8947256" lon="17.65501">
        <ele>33.3029</ele>
        <time>2014-05-29T10:13:32Z</time>
      </trkpt>
      <trkpt lat="59.8947521" lon="17.6549507">
        <ele>33.3029</ele>
        <time>2014-05-29T10:13:33Z</time>
      </trkpt>
      <trkpt lat="59.894773" lon="17.6548841">
        <ele>33.7834</ele>
        <time>2014-05-29T10:13:34Z</time>
      </trkpt>
      <trkpt lat="59.8947859" lon="17.6548083">
        <ele>33.7834</ele>
        <time>2014-05-29T10:13:35Z</time>
      </trkpt>
      <trkpt lat="59.8947917" lon="17.6547304">
        <ele>34.2642</ele>
        <time>2014-05-29T10:13:36Z</time>
      </trkpt>
      <trkpt lat="59.8947919" lon="17.6546581">
        <ele>34.7449</ele>
        <time>2014-05-29T10:13:37Z</time>
      </trkpt>
      <trkpt lat="59.8947891" lon="17.6545923">
        <ele>35.2255</ele>
        <time>2014-05-29T10:13:38Z</time>
      </trkpt>
      <trkpt lat="59.8947874" lon="17.6545263">
        <ele>35.2255</ele>
        <time>2014-05-29T10:13:39Z</time>
      </trkpt>
      <trkpt lat="59.8947895" lon="17.6544546">
        <ele>35.2255</ele>
        <time>2014-05-29T10:13:40Z</time>
      </trkpt>
      <trkpt lat="59.8947968" lon="17.6543801">
        <ele>35.2255</ele>
        <time>2014-05-29T10:13:41Z</time>
      </trkpt>
      <trkpt lat="59.8948092" lon="17.6543083">
        <ele>35.2255</ele>
        <time>2014-05-29T10:13:42Z</time>
      </trkpt>
      <trkpt lat="59.8948267" lon="17.6542435">
        <ele>35.2255</ele>
        <time>2014-05-29T10:13:43Z</time>
      </trkpt>
      <trkpt lat="59.8948487" lon="17.6541871">
        <ele>35.7061</ele>
        <time>2014-05-29T10:13:44Z</time>
      </trkpt>
      <trkpt lat="59.8948753" lon="17.6541394">
        <ele>35.7061</ele>
        <time>2014-05-29T10:13:45Z</time>
      </trkpt>
      <trkpt lat="59.8949066" lon="17.6541026">
        <ele>35.2255</ele>
        <time>2014-05-29T10:13:46Z</time>
      </trkpt>
      <trkpt lat="59.8949444" lon="17.6540736">
        <ele>35.2255</ele>
        <time>2014-05-29T10:13:47Z</time>
      </trkpt>
      <trkpt lat="59.8949843" lon="17.6540529">
        <ele>35.2255</ele>
        <time>2014-05-29T10:13:48Z</time>
      </trkpt>
      <trkpt lat="59.8950227" lon="17.6540384">
        <ele>35.7061</ele>
        <time>2014-05-29T10:13:49Z</time>
      </trkpt>
      <trkpt lat="59.89506" lon="17.6540272">
        <ele>35.7061</ele>
        <time>2014-05-29T10:13:50Z</time>
      </trkpt>
      <trkpt lat="59.8950983" lon="17.6540251">
        <ele>36.1868</ele>
        <time>2014-05-29T10:13:51Z</time>
      </trkpt>
      <trkpt lat="59.8951376" lon="17.6540318">
        <ele>36.1868</ele>
        <time>2014-05-29T10:13:52Z</time>
      </trkpt>
      <trkpt lat="59.8951785" lon="17.6540377">
        <ele>36.1868</ele>
        <time>2014-05-29T10:13:53Z</time>
      </trkpt>
      <trkpt lat="59.895224" lon="17.6540283">
        <ele>36.1868</ele>
        <time>2014-05-29T10:13:54Z</time>
      </trkpt>
      <trkpt lat="59.895268" lon="17.6539889">
        <ele>35.7061</ele>
        <time>2014-05-29T10:13:55Z</time>
      </trkpt>
      <trkpt lat="59.8953029" lon="17.6539225">
        <ele>36.1868</ele>
        <time>2014-05-29T10:13:56Z</time>
      </trkpt>
      <trkpt lat="59.8953306" lon="17.6538486">
        <ele>36.6675</ele>
        <time>2014-05-29T10:13:57Z</time>
      </trkpt>
      <trkpt lat="59.895356" lon="17.6537786">
        <ele>36.1868</ele>
        <time>2014-05-29T10:13:58Z</time>
      </trkpt>
      <trkpt lat="59.895379" lon="17.6537007">
        <ele>36.1868</ele>
        <time>2014-05-29T10:13:59Z</time>
      </trkpt>
      <trkpt lat="59.8953954" lon="17.6536071">
        <ele>36.1868</ele>
        <time>2014-05-29T10:14:00Z</time>
      </trkpt>
      <trkpt lat="59.8954066" lon="17.653507">
        <ele>35.7061</ele>
        <time>2014-05-29T10:14:01Z</time>
      </trkpt>
      <trkpt lat="59.8954173" lon="17.6534059">
        <ele>35.7061</ele>
        <time>2014-05-29T10:14:02Z</time>
      </trkpt>
      <trkpt lat="59.8954286" lon="17.6533042">
        <ele>35.7061</ele>
        <time>2014-05-29T10:14:03Z</time>
      </trkpt>
      <trkpt lat="59.8954378" lon="17.6532005">
        <ele>35.7061</ele>
        <time>2014-05-29T10:14:04Z</time>
      </trkpt>
      <trkpt lat="59.8954404" lon="17.6530958">
        <ele>35.7061</ele>
        <time>2014-05-29T10:14:05Z</time>
      </trkpt>
      <trkpt lat="59.8954329" lon="17.6529941">
        <ele>35.7061</ele>
        <time>2014-05-29T10:14:06Z</time>
      </trkpt>
      <trkpt lat="59.8954171" lon="17.6528958">
        <ele>35.7061</ele>
        <time>2014-05-29T10:14:07Z</time>
      </trkpt>
      <trkpt lat="59.8953956" lon="17.652799">
        <ele>35.7061</ele>
        <time>2014-05-29T10:14:08Z</time>
      </trkpt>
      <trkpt lat="59.8953689" lon="17.6527066">
        <ele>35.7061</ele>
        <time>2014-05-29T10:14:09Z</time>
      </trkpt>
      <trkpt lat="59.8953385" lon="17.6526203">
        <ele>35.7061</ele>
        <time>2014-05-29T10:14:10Z</time>
      </trkpt>
      <trkpt lat="59.8953081" lon="17.6525357">
        <ele>35.7061</ele>
        <time>2014-05-29T10:14:11Z</time>
      </trkpt>
      <trkpt lat="59.895279" lon="17.6524502">
        <ele>35.7061</ele>
        <time>2014-05-29T10:14:12Z</time>
      </trkpt>
      <trkpt lat="59.8952504" lon="17.6523628">
        <ele>36.1868</ele>
        <time>2014-05-29T10:14:13Z</time>
      </trkpt>
      <trkpt lat="59.895222" lon="17.6522751">
        <ele>36.1868</ele>
        <time>2014-05-29T10:14:14Z</time>
      </trkpt>
      <trkpt lat="59.8951924" lon="17.6521888">
        <ele>36.1868</ele>
        <time>2014-05-29T10:14:15Z</time>
      </trkpt>
      <trkpt lat="59.895163" lon="17.6521034">
        <ele>36.6675</ele>
        <time>2014-05-29T10:14:16Z</time>
      </trkpt>
      <trkpt lat="59.895134" lon="17.6520178">
        <ele>36.6675</ele>
        <time>2014-05-29T10:14:17Z</time>
      </trkpt>
      <trkpt lat="59.8951049" lon="17.6519314">
        <ele>36.6675</ele>
        <time>2014-05-29T10:14:18Z</time>
      </trkpt>
      <trkpt lat="59.8950739" lon="17.6518456">
        <ele>37.1481</ele>
        <time>2014-05-29T10:14:19Z</time>
      </trkpt>
      <trkpt lat="59.8950419" lon="17.651761">
        <ele>37.1481</ele>
        <time>2014-05-29T10:14:20Z</time>
      </trkpt>
      <trkpt lat="59.8950106" lon="17.6516831">
        <ele>37.1481</ele>
        <time>2014-05-29T10:14:21Z</time>
      </trkpt>
      <trkpt lat="59.8949794" lon="17.6516054">
        <ele>37.6287</ele>
        <time>2014-05-29T10:14:22Z</time>
      </trkpt>
      <trkpt lat="59.8949574" lon="17.6515561">
        <ele>37.6287</ele>
        <time>2014-05-29T10:14:23Z</time>
      </trkpt>
      <trkpt lat="59.8949438" lon="17.6515193">
        <ele>37.6287</ele>
        <time>2014-05-29T10:14:24Z</time>
      </trkpt>
      <trkpt lat="59.8949344" lon="17.6514801">
        <ele>37.6287</ele>
        <time>2014-05-29T10:14:25Z</time>
      </trkpt>
      <trkpt lat="59.8949243" lon="17.6514387">
        <ele>37.6287</ele>
        <time>2014-05-29T10:14:26Z</time>
      </trkpt>
      <trkpt lat="59.8949108" lon="17.6513946">
        <ele>37.6287</ele>
        <time>2014-05-29T10:14:27Z</time>
      </trkpt>
      <trkpt lat="59.8948932" lon="17.6513465">
        <ele>37.6287</ele>
        <time>2014-05-29T10:14:28Z</time>
      </trkpt>
      <trkpt lat="59.8948755" lon="17.6512919">
        <ele>37.6287</ele>
        <time>2014-05-29T10:14:29Z</time>
      </trkpt>
      <trkpt lat="59.8948566" lon="17.6512315">
        <ele>37.6287</ele>
        <time>2014-05-29T10:14:30Z</time>
      </trkpt>
      <trkpt lat="59.8948366" lon="17.6511744">
        <ele>37.6287</ele>
        <time>2014-05-29T10:14:31Z</time>
      </trkpt>
      <trkpt lat="59.8948186" lon="17.6511253">
        <ele>37.6287</ele>
        <time>2014-05-29T10:14:32Z</time>
      </trkpt>
      <trkpt lat="59.894805" lon="17.6510839">
        <ele>38.1094</ele>
        <time>2014-05-29T10:14:33Z</time>
      </trkpt>
      <trkpt lat="59.8947925" lon="17.6510441">
        <ele>38.1094</ele>
        <time>2014-05-29T10:14:34Z</time>
      </trkpt>
      <trkpt lat="59.8947755" lon="17.6510063">
        <ele>37.6287</ele>
        <time>2014-05-29T10:14:35Z</time>
      </trkpt>
      <trkpt lat="59.8947522" lon="17.6509699">
        <ele>37.6287</ele>
        <time>2014-05-29T10:14:36Z</time>
      </trkpt>
      <trkpt lat="59.8947268" lon="17.6509285">
        <ele>37.6287</ele>
        <time>2014-05-29T10:14:37Z</time>
      </trkpt>
      <trkpt lat="59.8946978" lon="17.650883">
        <ele>37.6287</ele>
        <time>2014-05-29T10:14:38Z</time>
      </trkpt>
      <trkpt lat="59.8946662" lon="17.6508368">
        <ele>37.1481</ele>
        <time>2014-05-29T10:14:39Z</time>
      </trkpt>
      <trkpt lat="59.8946328" lon="17.6507915">
        <ele>37.6287</ele>
        <time>2014-05-29T10:14:40Z</time>
      </trkpt>
      <trkpt lat="59.8945978" lon="17.6507462">
        <ele>37.6287</ele>
        <time>2014-05-29T10:14:41Z</time>
      </trkpt>
      <trkpt lat="59.8945626" lon="17.6506989">
        <ele>37.6287</ele>
        <time>2014-05-29T10:14:42Z</time>
      </trkpt>
      <trkpt lat="59.8945288" lon="17.6506504">
        <ele>37.6287</ele>
        <time>2014-05-29T10:14:43Z</time>
      </trkpt>
      <trkpt lat="59.8945" lon="17.6505993">
        <ele>37.6287</ele>
        <time>2014-05-29T10:14:44Z</time>
      </trkpt>
      <trkpt lat="59.8944839" lon="17.6505374">
        <ele>37.6287</ele>
        <time>2014-05-29T10:14:45Z</time>
      </trkpt>
      <trkpt lat="59.8944881" lon="17.6504679">
        <ele>37.6287</ele>
        <time>2014-05-29T10:14:46Z</time>
      </trkpt>
      <trkpt lat="59.8945082" lon="17.6504016">
        <ele>37.6287</ele>
        <time>2014-05-29T10:14:47Z</time>
      </trkpt>
      <trkpt lat="59.894534" lon="17.6503436">
        <ele>37.6287</ele>
        <time>2014-05-29T10:14:48Z</time>
      </trkpt>
      <trkpt lat="59.8945596" lon="17.6502892">
        <ele>37.6287</ele>
        <time>2014-05-29T10:14:49Z</time>
      </trkpt>
      <trkpt lat="59.8945828" lon="17.6502328">
        <ele>37.6287</ele>
        <time>2014-05-29T10:14:50Z</time>
      </trkpt>
      <trkpt lat="59.8946045" lon="17.6501733">
        <ele>37.6287</ele>
        <time>2014-05-29T10:14:51Z</time>
      </trkpt>
      <trkpt lat="59.8946269" lon="17.6501134">
        <ele>37.6287</ele>
        <time>2014-05-29T10:14:52Z</time>
      </trkpt>
      <trkpt lat="59.8946517" lon="17.650053">
        <ele>37.6287</ele>
        <time>2014-05-29T10:14:53Z</time>
      </trkpt>
      <trkpt lat="59.8946784" lon="17.6499918">
        <ele>37.6287</ele>
        <time>2014-05-29T10:14:54Z</time>
      </trkpt>
      <trkpt lat="59.894707" lon="17.6499295">
        <ele>37.6287</ele>
        <time>2014-05-29T10:14:55Z</time>
      </trkpt>
      <trkpt lat="59.8947367" lon="17.6498654">
        <ele>37.6287</ele>
        <time>2014-05-29T10:14:56Z</time>
      </trkpt>
      <trkpt lat="59.894767" lon="17.6498007">
        <ele>37.6287</ele>
        <time>2014-05-29T10:14:57Z</time>
      </trkpt>
      <trkpt lat="59.8947976" lon="17.649735">
        <ele>37.6287</ele>
        <time>2014-05-29T10:14:58Z</time>
      </trkpt>
      <trkpt lat="59.8948283" lon="17.6496672">
        <ele>37.6287</ele>
        <time>2014-05-29T10:14:59Z</time>
      </trkpt>
      <trkpt lat="59.8948593" lon="17.649598">
        <ele>37.6287</ele>
        <time>2014-05-29T10:15:00Z</time>
      </trkpt>
      <trkpt lat="59.8948905" lon="17.6495276">
        <ele>38.1094</ele>
        <time>2014-05-29T10:15:01Z</time>
      </trkpt>
      <trkpt lat="59.894922" lon="17.6494558">
        <ele>38.1094</ele>
        <time>2014-05-29T10:15:02Z</time>
      </trkpt>
      <trkpt lat="59.8949533" lon="17.6493837">
        <ele>38.1094</ele>
        <time>2014-05-29T10:15:03Z</time>
      </trkpt>
      <trkpt lat="59.8949848" lon="17.6493112">
        <ele>38.1094</ele>
        <time>2014-05-29T10:15:04Z</time>
      </trkpt>
      <trkpt lat="59.8950158" lon="17.6492383">
        <ele>38.1094</ele>
        <time>2014-05-29T10:15:05Z</time>
      </trkpt>
      <trkpt lat="59.895046" lon="17.6491663">
        <ele>38.1094</ele>
        <time>2014-05-29T10:15:06Z</time>
      </trkpt>
      <trkpt lat="59.8950742" lon="17.6490932">
        <ele>38.1094</ele>
        <time>2014-05-29T10:15:07Z</time>
      </trkpt>
      <trkpt lat="59.8951025" lon="17.6490226">
        <ele>38.5901</ele>
        <time>2014-05-29T10:15:08Z</time>
      </trkpt>
      <trkpt lat="59.8951305" lon="17.6489548">
        <ele>38.1094</ele>
        <time>2014-05-29T10:15:09Z</time>
      </trkpt>
      <trkpt lat="59.8951579" lon="17.6488901">
        <ele>38.1094</ele>
        <time>2014-05-29T10:15:10Z</time>
      </trkpt>
      <trkpt lat="59.8951854" lon="17.648826">
        <ele>38.1094</ele>
        <time>2014-05-29T10:15:11Z</time>
      </trkpt>
      <trkpt lat="59.895213" lon="17.6487617">
        <ele>37.6287</ele>
        <time>2014-05-29T10:15:12Z</time>
      </trkpt>
      <trkpt lat="59.8952421" lon="17.6486943">
        <ele>37.6287</ele>
        <time>2014-05-29T10:15:13Z</time>
      </trkpt>
      <trkpt lat="59.8952692" lon="17.6486223">
        <ele>37.6287</ele>
        <time>2014-05-29T10:15:14Z</time>
      </trkpt>
      <trkpt lat="59.8952945" lon="17.6485473">
        <ele>37.6287</ele>
        <time>2014-05-29T10:15:15Z</time>
      </trkpt>
      <trkpt lat="59.8953173" lon="17.6484684">
        <ele>38.1094</ele>
        <time>2014-05-29T10:15:16Z</time>
      </trkpt>
      <trkpt lat="59.8953359" lon="17.6483867">
        <ele>37.6287</ele>
        <time>2014-05-29T10:15:17Z</time>
      </trkpt>
      <trkpt lat="59.8953503" lon="17.6483">
        <ele>37.6287</ele>
        <time>2014-05-29T10:15:18Z</time>
      </trkpt>
      <trkpt lat="59.8953612" lon="17.648211">
        <ele>37.6287</ele>
        <time>2014-05-29T10:15:19Z</time>
      </trkpt>
      <trkpt lat="59.8953707" lon="17.6481218">
        <ele>37.6287</ele>
        <time>2014-05-29T10:15:20Z</time>
      </trkpt>
      <trkpt lat="59.8953826" lon="17.6480333">
        <ele>38.1094</ele>
        <time>2014-05-29T10:15:21Z</time>
      </trkpt>
      <trkpt lat="59.8953945" lon="17.6479463">
        <ele>38.5901</ele>
        <time>2014-05-29T10:15:22Z</time>
      </trkpt>
      <trkpt lat="59.8954018" lon="17.6478604">
        <ele>39.0707</ele>
        <time>2014-05-29T10:15:23Z</time>
      </trkpt>
      <trkpt lat="59.8954109" lon="17.6477769">
        <ele>39.5513</ele>
        <time>2014-05-29T10:15:24Z</time>
      </trkpt>
      <trkpt lat="59.8954173" lon="17.6476997">
        <ele>39.5513</ele>
        <time>2014-05-29T10:15:25Z</time>
      </trkpt>
      <trkpt lat="59.8954254" lon="17.6476246">
        <ele>40.0321</ele>
        <time>2014-05-29T10:15:26Z</time>
      </trkpt>
      <trkpt lat="59.8954339" lon="17.647552">
        <ele>40.0321</ele>
        <time>2014-05-29T10:15:27Z</time>
      </trkpt>
      <trkpt lat="59.8954404" lon="17.6474801">
        <ele>40.5128</ele>
        <time>2014-05-29T10:15:28Z</time>
      </trkpt>
      <trkpt lat="59.8954452" lon="17.647411">
        <ele>40.5128</ele>
        <time>2014-05-29T10:15:29Z</time>
      </trkpt>
      <trkpt lat="59.8954509" lon="17.6473434">
        <ele>40.5128</ele>
        <time>2014-05-29T10:15:30Z</time>
      </trkpt>
      <trkpt lat="59.8954562" lon="17.6472756">
        <ele>40.9934</ele>
        <time>2014-05-29T10:15:31Z</time>
      </trkpt>
      <trkpt lat="59.8954594" lon="17.6472053">
        <ele>40.9934</ele>
        <time>2014-05-29T10:15:32Z</time>
      </trkpt>
      <trkpt lat="59.8954628" lon="17.6471319">
        <ele>40.9934</ele>
        <time>2014-05-29T10:15:33Z</time>
      </trkpt>
      <trkpt lat="59.8954682" lon="17.6470561">
        <ele>41.474</ele>
        <time>2014-05-29T10:15:34Z</time>
      </trkpt>
      <trkpt lat="59.8954749" lon="17.64698">
        <ele>41.474</ele>
        <time>2014-05-29T10:15:35Z</time>
      </trkpt>
      <trkpt lat="59.89548" lon="17.646904">
        <ele>40.9934</ele>
        <time>2014-05-29T10:15:36Z</time>
      </trkpt>
      <trkpt lat="59.8954861" lon="17.6468296">
        <ele>40.9934</ele>
        <time>2014-05-29T10:15:37Z</time>
      </trkpt>
      <trkpt lat="59.895495" lon="17.6467547">
        <ele>40.9934</ele>
        <time>2014-05-29T10:15:38Z</time>
      </trkpt>
      <trkpt lat="59.8955049" lon="17.6466786">
        <ele>40.9934</ele>
        <time>2014-05-29T10:15:39Z</time>
      </trkpt>
      <trkpt lat="59.8955143" lon="17.6466025">
        <ele>40.9934</ele>
        <time>2014-05-29T10:15:40Z</time>
      </trkpt>
      <trkpt lat="59.8955225" lon="17.6465241">
        <ele>40.9934</ele>
        <time>2014-05-29T10:15:41Z</time>
      </trkpt>
      <trkpt lat="59.8955298" lon="17.6464412">
        <ele>40.5128</ele>
        <time>2014-05-29T10:15:42Z</time>
      </trkpt>
      <trkpt lat="59.895538" lon="17.6463504">
        <ele>40.5128</ele>
        <time>2014-05-29T10:15:43Z</time>
      </trkpt>
      <trkpt lat="59.8955489" lon="17.6462582">
        <ele>39.5513</ele>
        <time>2014-05-29T10:15:44Z</time>
      </trkpt>
      <trkpt lat="59.8955607" lon="17.6461683">
        <ele>40.0321</ele>
        <time>2014-05-29T10:15:45Z</time>
      </trkpt>
      <trkpt lat="59.895563" lon="17.6460846">
        <ele>39.0707</ele>
        <time>2014-05-29T10:15:46Z</time>
      </trkpt>
      <trkpt lat="59.8955442" lon="17.6460099">
        <ele>38.5901</ele>
        <time>2014-05-29T10:15:47Z</time>
      </trkpt>
      <trkpt lat="59.8955057" lon="17.6459582">
        <ele>38.5901</ele>
        <time>2014-05-29T10:15:48Z</time>
      </trkpt>
      <trkpt lat="59.8954561" lon="17.6459236">
        <ele>38.1094</ele>
        <time>2014-05-29T10:15:49Z</time>
      </trkpt>
      <trkpt lat="59.8954062" lon="17.6458217">
        <ele>38.1094</ele>
        <time>2014-05-29T10:15:50Z</time>
      </trkpt>
      <trkpt lat="59.8953742" lon="17.6457269">
        <ele>37.6287</ele>
        <time>2014-05-29T10:15:51Z</time>
      </trkpt>
      <trkpt lat="59.8953646" lon="17.6456285">
        <ele>37.6287</ele>
        <time>2014-05-29T10:15:52Z</time>
      </trkpt>
      <trkpt lat="59.895366" lon="17.6455312">
        <ele>37.1481</ele>
        <time>2014-05-29T10:15:53Z</time>
      </trkpt>
      <trkpt lat="59.8953701" lon="17.6454317">
        <ele>37.1481</ele>
        <time>2014-05-29T10:15:54Z</time>
      </trkpt>
      <trkpt lat="59.8953835" lon="17.6453231">
        <ele>37.1481</ele>
        <time>2014-05-29T10:15:55Z</time>
      </trkpt>
      <trkpt lat="59.895397" lon="17.6452148">
        <ele>37.1481</ele>
        <time>2014-05-29T10:15:56Z</time>
      </trkpt>
      <trkpt lat="59.8954068" lon="17.6451068">
        <ele>37.1481</ele>
        <time>2014-05-29T10:15:57Z</time>
      </trkpt>
      <trkpt lat="59.8954153" lon="17.6449962">
        <ele>37.1481</ele>
        <time>2014-05-29T10:15:58Z</time>
      </trkpt>
      <trkpt lat="59.8954239" lon="17.6448842">
        <ele>37.1481</ele>
        <time>2014-05-29T10:15:59Z</time>
      </trkpt>
      <trkpt lat="59.8954302" lon="17.644772">
        <ele>37.1481</ele>
        <time>2014-05-29T10:16:00Z</time>
      </trkpt>
      <trkpt lat="59.8954385" lon="17.6446584">
        <ele>36.6675</ele>
        <time>2014-05-29T10:16:01Z</time>
      </trkpt>
      <trkpt lat="59.8954483" lon="17.6445444">
        <ele>36.6675</ele>
        <time>2014-05-29T10:16:02Z</time>
      </trkpt>
      <trkpt lat="59.8954571" lon="17.6444281">
        <ele>36.1868</ele>
        <time>2014-05-29T10:16:03Z</time>
      </trkpt>
      <trkpt lat="59.895468" lon="17.644305">
        <ele>36.1868</ele>
        <time>2014-05-29T10:16:04Z</time>
      </trkpt>
      <trkpt lat="59.8954788" lon="17.6441812">
        <ele>36.1868</ele>
        <time>2014-05-29T10:16:05Z</time>
      </trkpt>
      <trkpt lat="59.8954894" lon="17.6440589">
        <ele>36.1868</ele>
        <time>2014-05-29T10:16:06Z</time>
      </trkpt>
      <trkpt lat="59.895499" lon="17.643939">
        <ele>36.1868</ele>
        <time>2014-05-29T10:16:07Z</time>
      </trkpt>
      <trkpt lat="59.8955084" lon="17.6438219">
        <ele>36.1868</ele>
        <time>2014-05-29T10:16:08Z</time>
      </trkpt>
      <trkpt lat="59.8955171" lon="17.6437075">
        <ele>36.1868</ele>
        <time>2014-05-29T10:16:09Z</time>
      </trkpt>
      <trkpt lat="59.8955235" lon="17.6435933">
        <ele>35.7061</ele>
        <time>2014-05-29T10:16:10Z</time>
      </trkpt>
      <trkpt lat="59.8955308" lon="17.6434784">
        <ele>35.7061</ele>
        <time>2014-05-29T10:16:11Z</time>
      </trkpt>
      <trkpt lat="59.8955399" lon="17.6433655">
        <ele>35.7061</ele>
        <time>2014-05-29T10:16:12Z</time>
      </trkpt>
      <trkpt lat="59.8955493" lon="17.6432539">
        <ele>35.2255</ele>
        <time>2014-05-29T10:16:13Z</time>
      </trkpt>
      <trkpt lat="59.8955568" lon="17.6431375">
        <ele>35.2255</ele>
        <time>2014-05-29T10:16:14Z</time>
      </trkpt>
      <trkpt lat="59.895566" lon="17.643017">
        <ele>35.2255</ele>
        <time>2014-05-29T10:16:15Z</time>
      </trkpt>
      <trkpt lat="59.8955748" lon="17.6428965">
        <ele>35.7061</ele>
        <time>2014-05-29T10:16:16Z</time>
      </trkpt>
      <trkpt lat="59.8955834" lon="17.6427765">
        <ele>35.7061</ele>
        <time>2014-05-29T10:16:17Z</time>
      </trkpt>
      <trkpt lat="59.895592" lon="17.6426583">
        <ele>35.7061</ele>
        <time>2014-05-29T10:16:18Z</time>
      </trkpt>
      <trkpt lat="59.8956015" lon="17.6425406">
        <ele>36.1868</ele>
        <time>2014-05-29T10:16:19Z</time>
      </trkpt>
      <trkpt lat="59.895611" lon="17.6424236">
        <ele>36.1868</ele>
        <time>2014-05-29T10:16:20Z</time>
      </trkpt>
      <trkpt lat="59.8956195" lon="17.6423083">
        <ele>36.1868</ele>
        <time>2014-05-29T10:16:21Z</time>
      </trkpt>
      <trkpt lat="59.8956282" lon="17.6421941">
        <ele>35.7061</ele>
        <time>2014-05-29T10:16:22Z</time>
      </trkpt>
      <trkpt lat="59.8956371" lon="17.6420783">
        <ele>35.7061</ele>
        <time>2014-05-29T10:16:23Z</time>
      </trkpt>
      <trkpt lat="59.8956462" lon="17.6419633">
        <ele>35.7061</ele>
        <time>2014-05-29T10:16:24Z</time>
      </trkpt>
      <trkpt lat="59.8956562" lon="17.6418478">
        <ele>36.1868</ele>
        <time>2014-05-29T10:16:25Z</time>
      </trkpt>
      <trkpt lat="59.8956655" lon="17.6417325">
        <ele>36.1868</ele>
        <time>2014-05-29T10:16:26Z</time>
      </trkpt>
      <trkpt lat="59.8956751" lon="17.641616">
        <ele>36.1868</ele>
        <time>2014-05-29T10:16:27Z</time>
      </trkpt>
      <trkpt lat="59.8956845" lon="17.6414992">
        <ele>36.1868</ele>
        <time>2014-05-29T10:16:28Z</time>
      </trkpt>
      <trkpt lat="59.8956919" lon="17.6413831">
        <ele>36.1868</ele>
        <time>2014-05-29T10:16:29Z</time>
      </trkpt>
      <trkpt lat="59.8956986" lon="17.6412676">
        <ele>36.1868</ele>
        <time>2014-05-29T10:16:30Z</time>
      </trkpt>
      <trkpt lat="59.8957079" lon="17.6411509">
        <ele>36.1868</ele>
        <time>2014-05-29T10:16:31Z</time>
      </trkpt>
      <trkpt lat="59.8957191" lon="17.641036">
        <ele>36.1868</ele>
        <time>2014-05-29T10:16:32Z</time>
      </trkpt>
      <trkpt lat="59.8957303" lon="17.6409224">
        <ele>36.1868</ele>
        <time>2014-05-29T10:16:33Z</time>
      </trkpt>
      <trkpt lat="59.8957402" lon="17.64081">
        <ele>36.1868</ele>
        <time>2014-05-29T10:16:34Z</time>
      </trkpt>
      <trkpt lat="59.8957499" lon="17.6407003">
        <ele>36.1868</ele>
        <time>2014-05-29T10:16:35Z</time>
      </trkpt>
      <trkpt lat="59.8957621" lon="17.6405956">
        <ele>36.6675</ele>
        <time>2014-05-29T10:16:36Z</time>
      </trkpt>
      <trkpt lat="59.8957769" lon="17.6404953">
        <ele>36.6675</ele>
        <time>2014-05-29T10:16:37Z</time>
      </trkpt>
      <trkpt lat="59.8957919" lon="17.6403968">
        <ele>36.6675</ele>
        <time>2014-05-29T10:16:38Z</time>
      </trkpt>
      <trkpt lat="59.8958058" lon="17.6403">
        <ele>36.6675</ele>
        <time>2014-05-29T10:16:39Z</time>
      </trkpt>
      <trkpt lat="59.8958209" lon="17.6402058">
        <ele>36.6675</ele>
        <time>2014-05-29T10:16:40Z</time>
      </trkpt>
      <trkpt lat="59.8958362" lon="17.6401106">
        <ele>37.1481</ele>
        <time>2014-05-29T10:16:41Z</time>
      </trkpt>
      <trkpt lat="59.8958524" lon="17.6400129">
        <ele>37.1481</ele>
        <time>2014-05-29T10:16:42Z</time>
      </trkpt>
      <trkpt lat="59.8958704" lon="17.6399159">
        <ele>36.6675</ele>
        <time>2014-05-29T10:16:43Z</time>
      </trkpt>
      <trkpt lat="59.8958903" lon="17.6398182">
        <ele>37.1481</ele>
        <time>2014-05-29T10:16:44Z</time>
      </trkpt>
      <trkpt lat="59.8959098" lon="17.6397239">
        <ele>36.6675</ele>
        <time>2014-05-29T10:16:45Z</time>
      </trkpt>
      <trkpt lat="59.895925" lon="17.6396263">
        <ele>36.6675</ele>
        <time>2014-05-29T10:16:46Z</time>
      </trkpt>
      <trkpt lat="59.8959395" lon="17.6395263">
        <ele>36.6675</ele>
        <time>2014-05-29T10:16:47Z</time>
      </trkpt>
      <trkpt lat="59.895954" lon="17.6394264">
        <ele>36.6675</ele>
        <time>2014-05-29T10:16:48Z</time>
      </trkpt>
      <trkpt lat="59.8959691" lon="17.6393312">
        <ele>36.1868</ele>
        <time>2014-05-29T10:16:49Z</time>
      </trkpt>
      <trkpt lat="59.8959845" lon="17.6392354">
        <ele>36.1868</ele>
        <time>2014-05-29T10:16:50Z</time>
      </trkpt>
      <trkpt lat="59.8959957" lon="17.6391386">
        <ele>35.7061</ele>
        <time>2014-05-29T10:16:51Z</time>
      </trkpt>
      <trkpt lat="59.8960083" lon="17.6390453">
        <ele>36.1868</ele>
        <time>2014-05-29T10:16:52Z</time>
      </trkpt>
      <trkpt lat="59.896024" lon="17.6389578">
        <ele>36.6675</ele>
        <time>2014-05-29T10:16:53Z</time>
      </trkpt>
      <trkpt lat="59.8960426" lon="17.6388749">
        <ele>37.1481</ele>
        <time>2014-05-29T10:16:54Z</time>
      </trkpt>
      <trkpt lat="59.8960519" lon="17.6388029">
        <ele>37.6287</ele>
        <time>2014-05-29T10:16:55Z</time>
      </trkpt>
      <trkpt lat="59.8960487" lon="17.6387454">
        <ele>38.1094</ele>
        <time>2014-05-29T10:16:56Z</time>
      </trkpt>
      <trkpt lat="59.8960351" lon="17.6387055">
        <ele>38.1094</ele>
        <time>2014-05-29T10:16:57Z</time>
      </trkpt>
      <trkpt lat="59.8960188" lon="17.6386854">
        <ele>38.1094</ele>
        <time>2014-05-29T10:16:58Z</time>
      </trkpt>
      <trkpt lat="59.8960079" lon="17.638687">
        <ele>38.5901</ele>
        <time>2014-05-29T10:16:59Z</time>
      </trkpt>
      <trkpt lat="59.8960071" lon="17.6386988">
        <ele>38.5901</ele>
        <time>2014-05-29T10:17:00Z</time>
      </trkpt>
      <trkpt lat="59.8960133" lon="17.6387086">
        <ele>38.5901</ele>
        <time>2014-05-29T10:17:01Z</time>
      </trkpt>
      <trkpt lat="59.896024" lon="17.6387136">
        <ele>38.1094</ele>
        <time>2014-05-29T10:17:02Z</time>
      </trkpt>
      <trkpt lat="59.8960395" lon="17.6387059">
        <ele>38.1094</ele>
        <time>2014-05-29T10:17:03Z</time>
      </trkpt>
      <trkpt lat="59.8960602" lon="17.6386804">
        <ele>38.5901</ele>
        <time>2014-05-29T10:17:04Z</time>
      </trkpt>
      <trkpt lat="59.8960778" lon="17.6386475">
        <ele>39.0707</ele>
        <time>2014-05-29T10:17:05Z</time>
      </trkpt>
      <trkpt lat="59.896098" lon="17.6386177">
        <ele>39.0707</ele>
        <time>2014-05-29T10:17:06Z</time>
      </trkpt>
      <trkpt lat="59.8961296" lon="17.6385997">
        <ele>39.0707</ele>
        <time>2014-05-29T10:17:07Z</time>
      </trkpt>
      <trkpt lat="59.8961674" lon="17.6386004">
        <ele>38.5901</ele>
        <time>2014-05-29T10:17:08Z</time>
      </trkpt>
      <trkpt lat="59.8962098" lon="17.6386117">
        <ele>38.5901</ele>
        <time>2014-05-29T10:17:09Z</time>
      </trkpt>
      <trkpt lat="59.8962551" lon="17.6386281">
        <ele>38.5901</ele>
        <time>2014-05-29T10:17:10Z</time>
      </trkpt>
      <trkpt lat="59.8963017" lon="17.6386495">
        <ele>38.1094</ele>
        <time>2014-05-29T10:17:11Z</time>
      </trkpt>
      <trkpt lat="59.8963501" lon="17.638675">
        <ele>37.6287</ele>
        <time>2014-05-29T10:17:12Z</time>
      </trkpt>
      <trkpt lat="59.8964017" lon="17.638706">
        <ele>37.6287</ele>
        <time>2014-05-29T10:17:13Z</time>
      </trkpt>
      <trkpt lat="59.896456" lon="17.6387417">
        <ele>37.1481</ele>
        <time>2014-05-29T10:17:14Z</time>
      </trkpt>
      <trkpt lat="59.8965124" lon="17.638779">
        <ele>37.1481</ele>
        <time>2014-05-29T10:17:15Z</time>
      </trkpt>
      <trkpt lat="59.8965697" lon="17.6388126">
        <ele>36.6675</ele>
        <time>2014-05-29T10:17:16Z</time>
      </trkpt>
      <trkpt lat="59.8966237" lon="17.638822">
        <ele>36.6675</ele>
        <time>2014-05-29T10:17:17Z</time>
      </trkpt>
      <trkpt lat="59.896673" lon="17.6387671">
        <ele>36.6675</ele>
        <time>2014-05-29T10:17:18Z</time>
      </trkpt>
      <trkpt lat="59.8967081" lon="17.6386982">
        <ele>36.1868</ele>
        <time>2014-05-29T10:17:19Z</time>
      </trkpt>
      <trkpt lat="59.8967254" lon="17.6385953">
        <ele>36.1868</ele>
        <time>2014-05-29T10:17:20Z</time>
      </trkpt>
      <trkpt lat="59.8967388" lon="17.6384885">
        <ele>36.1868</ele>
        <time>2014-05-29T10:17:21Z</time>
      </trkpt>
      <trkpt lat="59.8967625" lon="17.6383844">
        <ele>36.1868</ele>
        <time>2014-05-29T10:17:22Z</time>
      </trkpt>
      <trkpt lat="59.8967859" lon="17.6382859">
        <ele>36.1868</ele>
        <time>2014-05-29T10:17:23Z</time>
      </trkpt>
      <trkpt lat="59.896807" lon="17.6381899">
        <ele>36.6675</ele>
        <time>2014-05-29T10:17:24Z</time>
      </trkpt>
      <trkpt lat="59.8968241" lon="17.6380947">
        <ele>36.6675</ele>
        <time>2014-05-29T10:17:25Z</time>
      </trkpt>
      <trkpt lat="59.8968417" lon="17.6380046">
        <ele>36.6675</ele>
        <time>2014-05-29T10:17:26Z</time>
      </trkpt>
      <trkpt lat="59.8968605" lon="17.6379211">
        <ele>36.6675</ele>
        <time>2014-05-29T10:17:27Z</time>
      </trkpt>
      <trkpt lat="59.8968789" lon="17.6378402">
        <ele>37.1481</ele>
        <time>2014-05-29T10:17:28Z</time>
      </trkpt>
      <trkpt lat="59.8968989" lon="17.6377627">
        <ele>37.1481</ele>
        <time>2014-05-29T10:17:29Z</time>
      </trkpt>
      <trkpt lat="59.8969199" lon="17.6376861">
        <ele>37.1481</ele>
        <time>2014-05-29T10:17:30Z</time>
      </trkpt>
      <trkpt lat="59.8969373" lon="17.6376094">
        <ele>37.6287</ele>
        <time>2014-05-29T10:17:31Z</time>
      </trkpt>
      <trkpt lat="59.8969509" lon="17.6375301">
        <ele>37.6287</ele>
        <time>2014-05-29T10:17:32Z</time>
      </trkpt>
      <trkpt lat="59.8969657" lon="17.6374457">
        <ele>37.6287</ele>
        <time>2014-05-29T10:17:33Z</time>
      </trkpt>
      <trkpt lat="59.8969816" lon="17.6373592">
        <ele>37.6287</ele>
        <time>2014-05-29T10:17:34Z</time>
      </trkpt>
      <trkpt lat="59.8969989" lon="17.6372754">
        <ele>37.6287</ele>
        <time>2014-05-29T10:17:35Z</time>
      </trkpt>
      <trkpt lat="59.8970143" lon="17.6371968">
        <ele>37.1481</ele>
        <time>2014-05-29T10:17:36Z</time>
      </trkpt>
      <trkpt lat="59.8970252" lon="17.6371249">
        <ele>37.1481</ele>
        <time>2014-05-29T10:17:37Z</time>
      </trkpt>
      <trkpt lat="59.8970334" lon="17.6370618">
        <ele>36.6675</ele>
        <time>2014-05-29T10:17:38Z</time>
      </trkpt>
      <trkpt lat="59.8970434" lon="17.6370052">
        <ele>36.6675</ele>
        <time>2014-05-29T10:17:39Z</time>
      </trkpt>
      <trkpt lat="59.8970582" lon="17.6369521">
        <ele>36.6675</ele>
        <time>2014-05-29T10:17:40Z</time>
      </trkpt>
      <trkpt lat="59.8970827" lon="17.6369094">
        <ele>36.6675</ele>
        <time>2014-05-29T10:17:41Z</time>
      </trkpt>
      <trkpt lat="59.8971153" lon="17.63688">
        <ele>36.6675</ele>
        <time>2014-05-29T10:17:42Z</time>
      </trkpt>
      <trkpt lat="59.8971528" lon="17.6368613">
        <ele>36.1868</ele>
        <time>2014-05-29T10:17:43Z</time>
      </trkpt>
      <trkpt lat="59.8971936" lon="17.6368453">
        <ele>36.1868</ele>
        <time>2014-05-29T10:17:44Z</time>
      </trkpt>
      <trkpt lat="59.8972367" lon="17.6368245">
        <ele>36.1868</ele>
        <time>2014-05-29T10:17:45Z</time>
      </trkpt>
      <trkpt lat="59.8972801" lon="17.6367909">
        <ele>35.7061</ele>
        <time>2014-05-29T10:17:46Z</time>
      </trkpt>
      <trkpt lat="59.897322" lon="17.6367389">
        <ele>35.7061</ele>
        <time>2014-05-29T10:17:47Z</time>
      </trkpt>
      <trkpt lat="59.8973586" lon="17.6366686">
        <ele>35.7061</ele>
        <time>2014-05-29T10:17:48Z</time>
      </trkpt>
      <trkpt lat="59.8973899" lon="17.6365861">
        <ele>35.7061</ele>
        <time>2014-05-29T10:17:49Z</time>
      </trkpt>
      <trkpt lat="59.8974203" lon="17.6364983">
        <ele>35.2255</ele>
        <time>2014-05-29T10:17:50Z</time>
      </trkpt>
      <trkpt lat="59.897451" lon="17.6364079">
        <ele>35.2255</ele>
        <time>2014-05-29T10:17:51Z</time>
      </trkpt>
      <trkpt lat="59.8974812" lon="17.636315">
        <ele>35.2255</ele>
        <time>2014-05-29T10:17:52Z</time>
      </trkpt>
      <trkpt lat="59.8975116" lon="17.636222">
        <ele>35.2255</ele>
        <time>2014-05-29T10:17:53Z</time>
      </trkpt>
      <trkpt lat="59.8975417" lon="17.6361294">
        <ele>34.7449</ele>
        <time>2014-05-29T10:17:54Z</time>
      </trkpt>
      <trkpt lat="59.8975728" lon="17.6360377">
        <ele>34.7449</ele>
        <time>2014-05-29T10:17:55Z</time>
      </trkpt>
      <trkpt lat="59.8976059" lon="17.6359486">
        <ele>34.7449</ele>
        <time>2014-05-29T10:17:56Z</time>
      </trkpt>
      <trkpt lat="59.897639" lon="17.6358579">
        <ele>34.7449</ele>
        <time>2014-05-29T10:17:57Z</time>
      </trkpt>
      <trkpt lat="59.8976717" lon="17.6357632">
        <ele>34.2642</ele>
        <time>2014-05-29T10:17:58Z</time>
      </trkpt>
      <trkpt lat="59.8977046" lon="17.635667">
        <ele>34.2642</ele>
        <time>2014-05-29T10:17:59Z</time>
      </trkpt>
      <trkpt lat="59.8977374" lon="17.6355705">
        <ele>34.2642</ele>
        <time>2014-05-29T10:18:00Z</time>
      </trkpt>
      <trkpt lat="59.8977716" lon="17.6354748">
        <ele>34.2642</ele>
        <time>2014-05-29T10:18:01Z</time>
      </trkpt>
      <trkpt lat="59.8978096" lon="17.635385">
        <ele>33.7834</ele>
        <time>2014-05-29T10:18:02Z</time>
      </trkpt>
      <trkpt lat="59.8978513" lon="17.6353025">
        <ele>33.7834</ele>
        <time>2014-05-29T10:18:03Z</time>
      </trkpt>
      <trkpt lat="59.8978944" lon="17.6352237">
        <ele>33.7834</ele>
        <time>2014-05-29T10:18:04Z</time>
      </trkpt>
      <trkpt lat="59.8979395" lon="17.6351482">
        <ele>33.3029</ele>
        <time>2014-05-29T10:18:05Z</time>
      </trkpt>
      <trkpt lat="59.8979846" lon="17.6350723">
        <ele>33.3029</ele>
        <time>2014-05-29T10:18:06Z</time>
      </trkpt>
      <trkpt lat="59.8980268" lon="17.6349877">
        <ele>33.3029</ele>
        <time>2014-05-29T10:18:07Z</time>
      </trkpt>
      <trkpt lat="59.8980629" lon="17.634891">
        <ele>33.3029</ele>
        <time>2014-05-29T10:18:08Z</time>
      </trkpt>
      <trkpt lat="59.8980916" lon="17.6347882">
        <ele>33.3029</ele>
        <time>2014-05-29T10:18:09Z</time>
      </trkpt>
      <trkpt lat="59.8981105" lon="17.6346851">
        <ele>33.7834</ele>
        <time>2014-05-29T10:18:10Z</time>
      </trkpt>
      <trkpt lat="59.8981261" lon="17.6345864">
        <ele>33.7834</ele>
        <time>2014-05-29T10:18:11Z</time>
      </trkpt>
      <trkpt lat="59.8981393" lon="17.6344919">
        <ele>34.2642</ele>
        <time>2014-05-29T10:18:12Z</time>
      </trkpt>
      <trkpt lat="59.8981497" lon="17.6344009">
        <ele>34.2642</ele>
        <time>2014-05-29T10:18:13Z</time>
      </trkpt>
      <trkpt lat="59.898158" lon="17.6343075">
        <ele>34.2642</ele>
        <time>2014-05-29T10:18:14Z</time>
      </trkpt>
      <trkpt lat="59.8981665" lon="17.6342066">
        <ele>34.2642</ele>
        <time>2014-05-29T10:18:15Z</time>
      </trkpt>
      <trkpt lat="59.8981772" lon="17.6341017">
        <ele>34.2642</ele>
        <time>2014-05-29T10:18:16Z</time>
      </trkpt>
      <trkpt lat="59.8981887" lon="17.6339942">
        <ele>34.2642</ele>
        <time>2014-05-29T10:18:17Z</time>
      </trkpt>
      <trkpt lat="59.8982007" lon="17.6338863">
        <ele>34.2642</ele>
        <time>2014-05-29T10:18:18Z</time>
      </trkpt>
      <trkpt lat="59.8982124" lon="17.6337783">
        <ele>34.7449</ele>
        <time>2014-05-29T10:18:19Z</time>
      </trkpt>
      <trkpt lat="59.8982242" lon="17.6336702">
        <ele>34.7449</ele>
        <time>2014-05-29T10:18:20Z</time>
      </trkpt>
      <trkpt lat="59.8982358" lon="17.6335632">
        <ele>34.7449</ele>
        <time>2014-05-29T10:18:21Z</time>
      </trkpt>
      <trkpt lat="59.8982488" lon="17.6334573">
        <ele>35.2255</ele>
        <time>2014-05-29T10:18:22Z</time>
      </trkpt>
      <trkpt lat="59.8982611" lon="17.6333512">
        <ele>35.2255</ele>
        <time>2014-05-29T10:18:23Z</time>
      </trkpt>
      <trkpt lat="59.8982727" lon="17.6332476">
        <ele>35.2255</ele>
        <time>2014-05-29T10:18:24Z</time>
      </trkpt>
      <trkpt lat="59.8982845" lon="17.6331467">
        <ele>35.7061</ele>
        <time>2014-05-29T10:18:25Z</time>
      </trkpt>
      <trkpt lat="59.8982957" lon="17.6330477">
        <ele>35.7061</ele>
        <time>2014-05-29T10:18:26Z</time>
      </trkpt>
      <trkpt lat="59.8983092" lon="17.6329509">
        <ele>35.7061</ele>
        <time>2014-05-29T10:18:27Z</time>
      </trkpt>
      <trkpt lat="59.8983289" lon="17.6328591">
        <ele>35.7061</ele>
        <time>2014-05-29T10:18:28Z</time>
      </trkpt>
      <trkpt lat="59.8983545" lon="17.6327704">
        <ele>35.7061</ele>
        <time>2014-05-29T10:18:29Z</time>
      </trkpt>
      <trkpt lat="59.8983856" lon="17.6326887">
        <ele>36.1868</ele>
        <time>2014-05-29T10:18:30Z</time>
      </trkpt>
      <trkpt lat="59.8984236" lon="17.6326189">
        <ele>36.1868</ele>
        <time>2014-05-29T10:18:31Z</time>
      </trkpt>
      <trkpt lat="59.8984668" lon="17.6325617">
        <ele>36.1868</ele>
        <time>2014-05-29T10:18:32Z</time>
      </trkpt>
      <trkpt lat="59.8985141" lon="17.6325162">
        <ele>36.1868</ele>
        <time>2014-05-29T10:18:33Z</time>
      </trkpt>
      <trkpt lat="59.8985638" lon="17.6324793">
        <ele>36.1868</ele>
        <time>2014-05-29T10:18:34Z</time>
      </trkpt>
      <trkpt lat="59.8986135" lon="17.6324478">
        <ele>36.6675</ele>
        <time>2014-05-29T10:18:35Z</time>
      </trkpt>
      <trkpt lat="59.8986611" lon="17.6324184">
        <ele>36.6675</ele>
        <time>2014-05-29T10:18:36Z</time>
      </trkpt>
      <trkpt lat="59.8987055" lon="17.6323908">
        <ele>37.1481</ele>
        <time>2014-05-29T10:18:37Z</time>
      </trkpt>
      <trkpt lat="59.8987479" lon="17.632366">
        <ele>37.1481</ele>
        <time>2014-05-29T10:18:38Z</time>
      </trkpt>
      <trkpt lat="59.8987892" lon="17.6323428">
        <ele>37.6287</ele>
        <time>2014-05-29T10:18:39Z</time>
      </trkpt>
      <trkpt lat="59.8988289" lon="17.6323183">
        <ele>38.1094</ele>
        <time>2014-05-29T10:18:40Z</time>
      </trkpt>
      <trkpt lat="59.8988657" lon="17.6322905">
        <ele>38.1094</ele>
        <time>2014-05-29T10:18:41Z</time>
      </trkpt>
      <trkpt lat="59.8988992" lon="17.6322543">
        <ele>38.5901</ele>
        <time>2014-05-29T10:18:42Z</time>
      </trkpt>
      <trkpt lat="59.8989308" lon="17.6322115">
        <ele>38.5901</ele>
        <time>2014-05-29T10:18:43Z</time>
      </trkpt>
      <trkpt lat="59.8989639" lon="17.6321716">
        <ele>39.0707</ele>
        <time>2014-05-29T10:18:44Z</time>
      </trkpt>
      <trkpt lat="59.8989971" lon="17.632137">
        <ele>39.0707</ele>
        <time>2014-05-29T10:18:45Z</time>
      </trkpt>
      <trkpt lat="59.8990295" lon="17.632102">
        <ele>39.0707</ele>
        <time>2014-05-29T10:18:46Z</time>
      </trkpt>
      <trkpt lat="59.8990608" lon="17.6320599">
        <ele>39.0707</ele>
        <time>2014-05-29T10:18:47Z</time>
      </trkpt>
      <trkpt lat="59.8990883" lon="17.6320108">
        <ele>39.0707</ele>
        <time>2014-05-29T10:18:48Z</time>
      </trkpt>
      <trkpt lat="59.8991132" lon="17.6319574">
        <ele>39.0707</ele>
        <time>2014-05-29T10:18:49Z</time>
      </trkpt>
      <trkpt lat="59.8991376" lon="17.6318935">
        <ele>38.5901</ele>
        <time>2014-05-29T10:18:50Z</time>
      </trkpt>
      <trkpt lat="59.8991547" lon="17.6318176">
        <ele>38.5901</ele>
        <time>2014-05-29T10:18:51Z</time>
      </trkpt>
      <trkpt lat="59.8991564" lon="17.6317351">
        <ele>38.1094</ele>
        <time>2014-05-29T10:18:52Z</time>
      </trkpt>
      <trkpt lat="59.8991367" lon="17.631656">
        <ele>37.6287</ele>
        <time>2014-05-29T10:18:53Z</time>
      </trkpt>
      <trkpt lat="59.899107" lon="17.6315764">
        <ele>37.6287</ele>
        <time>2014-05-29T10:18:54Z</time>
      </trkpt>
      <trkpt lat="59.8990741" lon="17.6314947">
        <ele>37.1481</ele>
        <time>2014-05-29T10:18:55Z</time>
      </trkpt>
      <trkpt lat="59.8990392" lon="17.6314066">
        <ele>37.1481</ele>
        <time>2014-05-29T10:18:56Z</time>
      </trkpt>
      <trkpt lat="59.8989999" lon="17.631315">
        <ele>37.1481</ele>
        <time>2014-05-29T10:18:57Z</time>
      </trkpt>
      <trkpt lat="59.8989599" lon="17.6312202">
        <ele>37.1481</ele>
        <time>2014-05-29T10:18:58Z</time>
      </trkpt>
      <trkpt lat="59.89892" lon="17.6311313">
        <ele>37.1481</ele>
        <time>2014-05-29T10:18:59Z</time>
      </trkpt>
      <trkpt lat="59.8988776" lon="17.6310441">
        <ele>36.6675</ele>
        <time>2014-05-29T10:19:00Z</time>
      </trkpt>
      <trkpt lat="59.8988341" lon="17.6309524">
        <ele>36.6675</ele>
        <time>2014-05-29T10:19:01Z</time>
      </trkpt>
      <trkpt lat="59.8987938" lon="17.6308596">
        <ele>36.6675</ele>
        <time>2014-05-29T10:19:02Z</time>
      </trkpt>
      <trkpt lat="59.898757" lon="17.630767">
        <ele>37.1481</ele>
        <time>2014-05-29T10:19:03Z</time>
      </trkpt>
      <trkpt lat="59.8987238" lon="17.6306717">
        <ele>36.6675</ele>
        <time>2014-05-29T10:19:04Z</time>
      </trkpt>
      <trkpt lat="59.8986922" lon="17.6305716">
        <ele>36.6675</ele>
        <time>2014-05-29T10:19:05Z</time>
      </trkpt>
      <trkpt lat="59.8986616" lon="17.6304728">
        <ele>37.1481</ele>
        <time>2014-05-29T10:19:06Z</time>
      </trkpt>
      <trkpt lat="59.8986301" lon="17.6303783">
        <ele>37.1481</ele>
        <time>2014-05-29T10:19:07Z</time>
      </trkpt>
      <trkpt lat="59.8985978" lon="17.6302899">
        <ele>37.6287</ele>
        <time>2014-05-29T10:19:08Z</time>
      </trkpt>
      <trkpt lat="59.8985689" lon="17.6302035">
        <ele>38.1094</ele>
        <time>2014-05-29T10:19:09Z</time>
      </trkpt>
      <trkpt lat="59.8985429" lon="17.630121">
        <ele>38.1094</ele>
        <time>2014-05-29T10:19:10Z</time>
      </trkpt>
      <trkpt lat="59.8985159" lon="17.6300445">
        <ele>38.5901</ele>
        <time>2014-05-29T10:19:11Z</time>
      </trkpt>
      <trkpt lat="59.8984891" lon="17.6299694">
        <ele>39.0707</ele>
        <time>2014-05-29T10:19:12Z</time>
      </trkpt>
      <trkpt lat="59.8984635" lon="17.6298952">
        <ele>39.0707</ele>
        <time>2014-05-29T10:19:13Z</time>
      </trkpt>
      <trkpt lat="59.8984381" lon="17.6298207">
        <ele>39.0707</ele>
        <time>2014-05-29T10:19:14Z</time>
      </trkpt>
      <trkpt lat="59.8984131" lon="17.6297429">
        <ele>39.0707</ele>
        <time>2014-05-29T10:19:15Z</time>
      </trkpt>
      <trkpt lat="59.8983867" lon="17.6296599">
        <ele>39.0707</ele>
        <time>2014-05-29T10:19:16Z</time>
      </trkpt>
      <trkpt lat="59.8983581" lon="17.6295712">
        <ele>39.0707</ele>
        <time>2014-05-29T10:19:17Z</time>
      </trkpt>
      <trkpt lat="59.898327" lon="17.6294769">
        <ele>38.5901</ele>
        <time>2014-05-29T10:19:18Z</time>
      </trkpt>
      <trkpt lat="59.8982959" lon="17.6293782">
        <ele>38.5901</ele>
        <time>2014-05-29T10:19:19Z</time>
      </trkpt>
      <trkpt lat="59.8982674" lon="17.6292755">
        <ele>38.5901</ele>
        <time>2014-05-29T10:19:20Z</time>
      </trkpt>
      <trkpt lat="59.898242" lon="17.6291699">
        <ele>38.5901</ele>
        <time>2014-05-29T10:19:21Z</time>
      </trkpt>
      <trkpt lat="59.8982185" lon="17.6290611">
        <ele>38.1094</ele>
        <time>2014-05-29T10:19:22Z</time>
      </trkpt>
      <trkpt lat="59.8981957" lon="17.6289476">
        <ele>38.5901</ele>
        <time>2014-05-29T10:19:23Z</time>
      </trkpt>
      <trkpt lat="59.8981721" lon="17.6288342">
        <ele>38.5901</ele>
        <time>2014-05-29T10:19:24Z</time>
      </trkpt>
      <trkpt lat="59.8981491" lon="17.6287233">
        <ele>39.0707</ele>
        <time>2014-05-29T10:19:25Z</time>
      </trkpt>
      <trkpt lat="59.8981281" lon="17.628612">
        <ele>39.0707</ele>
        <time>2014-05-29T10:19:26Z</time>
      </trkpt>
      <trkpt lat="59.898108" lon="17.628498">
        <ele>39.0707</ele>
        <time>2014-05-29T10:19:27Z</time>
      </trkpt>
      <trkpt lat="59.8980864" lon="17.6283827">
        <ele>39.0707</ele>
        <time>2014-05-29T10:19:28Z</time>
      </trkpt>
      <trkpt lat="59.8980616" lon="17.628269">
        <ele>39.0707</ele>
        <time>2014-05-29T10:19:29Z</time>
      </trkpt>
      <trkpt lat="59.8980354" lon="17.6281583">
        <ele>39.0707</ele>
        <time>2014-05-29T10:19:30Z</time>
      </trkpt>
      <trkpt lat="59.8980094" lon="17.6280505">
        <ele>39.0707</ele>
        <time>2014-05-29T10:19:31Z</time>
      </trkpt>
      <trkpt lat="59.8979829" lon="17.6279462">
        <ele>39.0707</ele>
        <time>2014-05-29T10:19:32Z</time>
      </trkpt>
      <trkpt lat="59.8979536" lon="17.6278459">
        <ele>39.0707</ele>
        <time>2014-05-29T10:19:33Z</time>
      </trkpt>
      <trkpt lat="59.8979193" lon="17.6277506">
        <ele>38.5901</ele>
        <time>2014-05-29T10:19:34Z</time>
      </trkpt>
      <trkpt lat="59.8978815" lon="17.6276573">
        <ele>38.5901</ele>
        <time>2014-05-29T10:19:35Z</time>
      </trkpt>
      <trkpt lat="59.8978447" lon="17.6275605">
        <ele>38.1094</ele>
        <time>2014-05-29T10:19:36Z</time>
      </trkpt>
      <trkpt lat="59.897811" lon="17.6274586">
        <ele>38.1094</ele>
        <time>2014-05-29T10:19:37Z</time>
      </trkpt>
      <trkpt lat="59.8977779" lon="17.6273559">
        <ele>37.6287</ele>
        <time>2014-05-29T10:19:38Z</time>
      </trkpt>
      <trkpt lat="59.8977421" lon="17.6272562">
        <ele>37.1481</ele>
        <time>2014-05-29T10:19:39Z</time>
      </trkpt>
      <trkpt lat="59.8977055" lon="17.6271588">
        <ele>36.6675</ele>
        <time>2014-05-29T10:19:40Z</time>
      </trkpt>
      <trkpt lat="59.8976671" lon="17.6270643">
        <ele>36.6675</ele>
        <time>2014-05-29T10:19:41Z</time>
      </trkpt>
      <trkpt lat="59.8976262" lon="17.6269749">
        <ele>36.1868</ele>
        <time>2014-05-29T10:19:42Z</time>
      </trkpt>
      <trkpt lat="59.8975835" lon="17.6268877">
        <ele>35.7061</ele>
        <time>2014-05-29T10:19:43Z</time>
      </trkpt>
      <trkpt lat="59.8975382" lon="17.6268015">
        <ele>35.2255</ele>
        <time>2014-05-29T10:19:44Z</time>
      </trkpt>
      <trkpt lat="59.8974926" lon="17.6267141">
        <ele>35.2255</ele>
        <time>2014-05-29T10:19:45Z</time>
      </trkpt>
      <trkpt lat="59.8974477" lon="17.6266291">
        <ele>34.7449</ele>
        <time>2014-05-29T10:19:46Z</time>
      </trkpt>
      <trkpt lat="59.8974024" lon="17.6265484">
        <ele>34.2642</ele>
        <time>2014-05-29T10:19:47Z</time>
      </trkpt>
      <trkpt lat="59.8973551" lon="17.6264721">
        <ele>34.2642</ele>
        <time>2014-05-29T10:19:48Z</time>
      </trkpt>
      <trkpt lat="59.8973055" lon="17.6263984">
        <ele>33.7834</ele>
        <time>2014-05-29T10:19:49Z</time>
      </trkpt>
      <trkpt lat="59.8972543" lon="17.6263275">
        <ele>33.3029</ele>
        <time>2014-05-29T10:19:50Z</time>
      </trkpt>
      <trkpt lat="59.8971997" lon="17.6262609">
        <ele>33.3029</ele>
        <time>2014-05-29T10:19:51Z</time>
      </trkpt>
      <trkpt lat="59.8971407" lon="17.6261977">
        <ele>32.8223</ele>
        <time>2014-05-29T10:19:52Z</time>
      </trkpt>
      <trkpt lat="59.8970777" lon="17.626136">
        <ele>32.8223</ele>
        <time>2014-05-29T10:19:53Z</time>
      </trkpt>
      <trkpt lat="59.8970138" lon="17.6260774">
        <ele>32.8223</ele>
        <time>2014-05-29T10:19:54Z</time>
      </trkpt>
      <trkpt lat="59.8969525" lon="17.6260256">
        <ele>32.8223</ele>
        <time>2014-05-29T10:19:55Z</time>
      </trkpt>
      <trkpt lat="59.8968938" lon="17.6259775">
        <ele>32.8223</ele>
        <time>2014-05-29T10:19:56Z</time>
      </trkpt>
      <trkpt lat="59.8968336" lon="17.6259308">
        <ele>32.3416</ele>
        <time>2014-05-29T10:19:57Z</time>
      </trkpt>
      <trkpt lat="59.8967683" lon="17.6258827">
        <ele>32.8223</ele>
        <time>2014-05-29T10:19:58Z</time>
      </trkpt>
      <trkpt lat="59.8967055" lon="17.6258503">
        <ele>32.8223</ele>
        <time>2014-05-29T10:19:59Z</time>
      </trkpt>
      <trkpt lat="59.896646" lon="17.625832">
        <ele>32.3416</ele>
        <time>2014-05-29T10:20:00Z</time>
      </trkpt>
      <trkpt lat="59.8965858" lon="17.6258205">
        <ele>32.3416</ele>
        <time>2014-05-29T10:20:01Z</time>
      </trkpt>
      <trkpt lat="59.8965205" lon="17.6258063">
        <ele>31.8607</ele>
        <time>2014-05-29T10:20:02Z</time>
      </trkpt>
      <trkpt lat="59.8964575" lon="17.6257775">
        <ele>32.3416</ele>
        <time>2014-05-29T10:20:03Z</time>
      </trkpt>
      <trkpt lat="59.8963987" lon="17.6257436">
        <ele>32.3416</ele>
        <time>2014-05-29T10:20:04Z</time>
      </trkpt>
      <trkpt lat="59.896348" lon="17.6257037">
        <ele>32.3416</ele>
        <time>2014-05-29T10:20:05Z</time>
      </trkpt>
      <trkpt lat="59.8963031" lon="17.6256744">
        <ele>32.3416</ele>
        <time>2014-05-29T10:20:06Z</time>
      </trkpt>
      <trkpt lat="59.8962612" lon="17.6256413">
        <ele>31.8607</ele>
        <time>2014-05-29T10:20:07Z</time>
      </trkpt>
      <trkpt lat="59.8962242" lon="17.6255981">
        <ele>31.8607</ele>
        <time>2014-05-29T10:20:08Z</time>
      </trkpt>
      <trkpt lat="59.8961855" lon="17.625548">
        <ele>31.3801</ele>
        <time>2014-05-29T10:20:09Z</time>
      </trkpt>
      <trkpt lat="59.8961413" lon="17.6255049">
        <ele>31.3801</ele>
        <time>2014-05-29T10:20:10Z</time>
      </trkpt>
      <trkpt lat="59.8960911" lon="17.6254853">
        <ele>31.3801</ele>
        <time>2014-05-29T10:20:11Z</time>
      </trkpt>
      <trkpt lat="59.8960353" lon="17.625476">
        <ele>31.3801</ele>
        <time>2014-05-29T10:20:12Z</time>
      </trkpt>
      <trkpt lat="59.8959774" lon="17.6254681">
        <ele>30.8995</ele>
        <time>2014-05-29T10:20:13Z</time>
      </trkpt>
      <trkpt lat="59.8959228" lon="17.6254703">
        <ele>30.4188</ele>
        <time>2014-05-29T10:20:14Z</time>
      </trkpt>
      <trkpt lat="59.8958701" lon="17.6254611">
        <ele>29.9381</ele>
        <time>2014-05-29T10:20:15Z</time>
      </trkpt>
      <trkpt lat="59.8958201" lon="17.6254276">
        <ele>29.9381</ele>
        <time>2014-05-29T10:20:16Z</time>
      </trkpt>
      <trkpt lat="59.8957685" lon="17.6253914">
        <ele>29.4575</ele>
        <time>2014-05-29T10:20:17Z</time>
      </trkpt>
      <trkpt lat="59.895723" lon="17.625362">
        <ele>28.9769</ele>
        <time>2014-05-29T10:20:18Z</time>
      </trkpt>
      <trkpt lat="59.895688" lon="17.6253324">
        <ele>28.9769</ele>
        <time>2014-05-29T10:20:19Z</time>
      </trkpt>
      <trkpt lat="59.8956603" lon="17.6252973">
        <ele>28.0155</ele>
        <time>2014-05-29T10:20:20Z</time>
      </trkpt>
      <trkpt lat="59.8956323" lon="17.6252486">
        <ele>27.0543</ele>
        <time>2014-05-29T10:20:21Z</time>
      </trkpt>
      <trkpt lat="59.8956015" lon="17.6251931">
        <ele>26.5736</ele>
        <time>2014-05-29T10:20:22Z</time>
      </trkpt>
      <trkpt lat="59.8955677" lon="17.625143">
        <ele>26.0929</ele>
        <time>2014-05-29T10:20:23Z</time>
      </trkpt>
      <trkpt lat="59.8955378" lon="17.6250997">
        <ele>25.6123</ele>
        <time>2014-05-29T10:20:24Z</time>
      </trkpt>
      <trkpt lat="59.8955173" lon="17.6250558">
        <ele>25.1317</ele>
        <time>2014-05-29T10:20:25Z</time>
      </trkpt>
      <trkpt lat="59.8955112" lon="17.6250044">
        <ele>24.651</ele>
        <time>2014-05-29T10:20:26Z</time>
      </trkpt>
      <trkpt lat="59.8955155" lon="17.6249398">
        <ele>24.1703</ele>
        <time>2014-05-29T10:20:27Z</time>
      </trkpt>
      <trkpt lat="59.8955224" lon="17.6248653">
        <ele>24.1703</ele>
        <time>2014-05-29T10:20:28Z</time>
      </trkpt>
      <trkpt lat="59.8955311" lon="17.6247823">
        <ele>24.1703</ele>
        <time>2014-05-29T10:20:29Z</time>
      </trkpt>
      <trkpt lat="59.8955373" lon="17.6246964">
        <ele>24.1703</ele>
        <time>2014-05-29T10:20:30Z</time>
      </trkpt>
      <trkpt lat="59.895542" lon="17.6246076">
        <ele>24.1703</ele>
        <time>2014-05-29T10:20:31Z</time>
      </trkpt>
      <trkpt lat="59.8955467" lon="17.624517">
        <ele>24.1703</ele>
        <time>2014-05-29T10:20:32Z</time>
      </trkpt>
      <trkpt lat="59.8955546" lon="17.6244264">
        <ele>24.651</ele>
        <time>2014-05-29T10:20:33Z</time>
      </trkpt>
      <trkpt lat="59.895567" lon="17.6243388">
        <ele>24.651</ele>
        <time>2014-05-29T10:20:34Z</time>
      </trkpt>
      <trkpt lat="59.8955834" lon="17.6242618">
        <ele>25.1317</ele>
        <time>2014-05-29T10:20:35Z</time>
      </trkpt>
      <trkpt lat="59.8956012" lon="17.6241981">
        <ele>25.6123</ele>
        <time>2014-05-29T10:20:36Z</time>
      </trkpt>
      <trkpt lat="59.8956188" lon="17.6241479">
        <ele>26.0929</ele>
        <time>2014-05-29T10:20:37Z</time>
      </trkpt>
      <trkpt lat="59.895638" lon="17.6241109">
        <ele>26.0929</ele>
        <time>2014-05-29T10:20:38Z</time>
      </trkpt>
      <trkpt lat="59.8956568" lon="17.6240829">
        <ele>26.5736</ele>
        <time>2014-05-29T10:20:39Z</time>
      </trkpt>
      <trkpt lat="59.8956751" lon="17.6240596">
        <ele>26.5736</ele>
        <time>2014-05-29T10:20:40Z</time>
      </trkpt>
      <trkpt lat="59.895692" lon="17.6240383">
        <ele>26.5736</ele>
        <time>2014-05-29T10:20:41Z</time>
      </trkpt>
      <trkpt lat="59.8957113" lon="17.6240166">
        <ele>27.0543</ele>
        <time>2014-05-29T10:20:42Z</time>
      </trkpt>
      <trkpt lat="59.8957303" lon="17.6239939">
        <ele>27.5349</ele>
        <time>2014-05-29T10:20:43Z</time>
      </trkpt>
      <trkpt lat="59.8957463" lon="17.6239729">
        <ele>28.0155</ele>
        <time>2014-05-29T10:20:44Z</time>
      </trkpt>
      <trkpt lat="59.8957571" lon="17.6239546">
        <ele>28.4962</ele>
        <time>2014-05-29T10:20:45Z</time>
      </trkpt>
      <trkpt lat="59.8957627" lon="17.6239399">
        <ele>28.4962</ele>
        <time>2014-05-29T10:20:46Z</time>
      </trkpt>
      <trkpt lat="59.8957679" lon="17.6239233">
        <ele>28.9769</ele>
        <time>2014-05-29T10:20:47Z</time>
      </trkpt>
      <trkpt lat="59.8957769" lon="17.6239075">
        <ele>29.4575</ele>
        <time>2014-05-29T10:20:48Z</time>
      </trkpt>
      <trkpt lat="59.8957899" lon="17.6238965">
        <ele>29.4575</ele>
        <time>2014-05-29T10:20:49Z</time>
      </trkpt>
      <trkpt lat="59.8958044" lon="17.6238877">
        <ele>29.9381</ele>
        <time>2014-05-29T10:20:50Z</time>
      </trkpt>
      <trkpt lat="59.8958203" lon="17.6238785">
        <ele>29.9381</ele>
        <time>2014-05-29T10:20:51Z</time>
      </trkpt>
      <trkpt lat="59.8958372" lon="17.6238646">
        <ele>30.4188</ele>
        <time>2014-05-29T10:20:52Z</time>
      </trkpt>
      <trkpt lat="59.8958546" lon="17.6238488">
        <ele>30.4188</ele>
        <time>2014-05-29T10:20:53Z</time>
      </trkpt>
      <trkpt lat="59.8958715" lon="17.6238287">
        <ele>30.8995</ele>
        <time>2014-05-29T10:20:54Z</time>
      </trkpt>
      <trkpt lat="59.8958869" lon="17.6238061">
        <ele>31.3801</ele>
        <time>2014-05-29T10:20:55Z</time>
      </trkpt>
      <trkpt lat="59.8958997" lon="17.6237847">
        <ele>31.8607</ele>
        <time>2014-05-29T10:20:56Z</time>
      </trkpt>
      <trkpt lat="59.8959116" lon="17.6237646">
        <ele>31.8607</ele>
        <time>2014-05-29T10:20:57Z</time>
      </trkpt>
      <trkpt lat="59.8959234" lon="17.6237453">
        <ele>31.8607</ele>
        <time>2014-05-29T10:20:58Z</time>
      </trkpt>
      <trkpt lat="59.8959364" lon="17.6237275">
        <ele>32.3416</ele>
        <time>2014-05-29T10:20:59Z</time>
      </trkpt>
      <trkpt lat="59.8959502" lon="17.6237089">
        <ele>32.3416</ele>
        <time>2014-05-29T10:21:00Z</time>
      </trkpt>
      <trkpt lat="59.8959638" lon="17.6236878">
        <ele>32.8223</ele>
        <time>2014-05-29T10:21:01Z</time>
      </trkpt>
      <trkpt lat="59.8959783" lon="17.6236667">
        <ele>32.8223</ele>
        <time>2014-05-29T10:21:02Z</time>
      </trkpt>
      <trkpt lat="59.8959904" lon="17.6236455">
        <ele>33.3029</ele>
        <time>2014-05-29T10:21:03Z</time>
      </trkpt>
      <trkpt lat="59.8959988" lon="17.6236239">
        <ele>33.3029</ele>
        <time>2014-05-29T10:21:04Z</time>
      </trkpt>
      <trkpt lat="59.8960054" lon="17.6236019">
        <ele>33.7834</ele>
        <time>2014-05-29T10:21:05Z</time>
      </trkpt>
      <trkpt lat="59.8960129" lon="17.6235789">
        <ele>33.7834</ele>
        <time>2014-05-29T10:21:06Z</time>
      </trkpt>
      <trkpt lat="59.8960227" lon="17.6235577">
        <ele>34.2642</ele>
        <time>2014-05-29T10:21:07Z</time>
      </trkpt>
      <trkpt lat="59.8960332" lon="17.6235388">
        <ele>34.2642</ele>
        <time>2014-05-29T10:21:08Z</time>
      </trkpt>
      <trkpt lat="59.8960451" lon="17.6235196">
        <ele>34.2642</ele>
        <time>2014-05-29T10:21:09Z</time>
      </trkpt>
      <trkpt lat="59.8960591" lon="17.623501">
        <ele>34.2642</ele>
        <time>2014-05-29T10:21:10Z</time>
      </trkpt>
      <trkpt lat="59.8960722" lon="17.6234816">
        <ele>34.2642</ele>
        <time>2014-05-29T10:21:11Z</time>
      </trkpt>
      <trkpt lat="59.8960835" lon="17.623462">
        <ele>34.7449</ele>
        <time>2014-05-29T10:21:12Z</time>
      </trkpt>
      <trkpt lat="59.896095" lon="17.6234434">
        <ele>34.7449</ele>
        <time>2014-05-29T10:21:13Z</time>
      </trkpt>
      <trkpt lat="59.8961084" lon="17.6234258">
        <ele>35.2255</ele>
        <time>2014-05-29T10:21:14Z</time>
      </trkpt>
      <trkpt lat="59.8961219" lon="17.623405">
        <ele>35.2255</ele>
        <time>2014-05-29T10:21:15Z</time>
      </trkpt>
      <trkpt lat="59.8961348" lon="17.6233796">
        <ele>35.2255</ele>
        <time>2014-05-29T10:21:16Z</time>
      </trkpt>
      <trkpt lat="59.8961434" lon="17.6233536">
        <ele>35.7061</ele>
        <time>2014-05-29T10:21:17Z</time>
      </trkpt>
      <trkpt lat="59.8961525" lon="17.6233297">
        <ele>35.7061</ele>
        <time>2014-05-29T10:21:18Z</time>
      </trkpt>
      <trkpt lat="59.8961657" lon="17.6233029">
        <ele>35.7061</ele>
        <time>2014-05-29T10:21:19Z</time>
      </trkpt>
      <trkpt lat="59.8961774" lon="17.623273">
        <ele>35.2255</ele>
        <time>2014-05-29T10:21:20Z</time>
      </trkpt>
      <trkpt lat="59.8961886" lon="17.6232398">
        <ele>35.7061</ele>
        <time>2014-05-29T10:21:21Z</time>
      </trkpt>
      <trkpt lat="59.896197" lon="17.6232019">
        <ele>35.7061</ele>
        <time>2014-05-29T10:21:22Z</time>
      </trkpt>
      <trkpt lat="59.8962016" lon="17.6231642">
        <ele>35.7061</ele>
        <time>2014-05-29T10:21:23Z</time>
      </trkpt>
      <trkpt lat="59.896204" lon="17.6231263">
        <ele>35.7061</ele>
        <time>2014-05-29T10:21:24Z</time>
      </trkpt>
      <trkpt lat="59.8962046" lon="17.6230905">
        <ele>35.7061</ele>
        <time>2014-05-29T10:21:25Z</time>
      </trkpt>
      <trkpt lat="59.8962038" lon="17.623057">
        <ele>35.7061</ele>
        <time>2014-05-29T10:21:26Z</time>
      </trkpt>
      <trkpt lat="59.8962025" lon="17.6230223">
        <ele>36.1868</ele>
        <time>2014-05-29T10:21:27Z</time>
      </trkpt>
      <trkpt lat="59.8962" lon="17.622988">
        <ele>36.1868</ele>
        <time>2014-05-29T10:21:28Z</time>
      </trkpt>
      <trkpt lat="59.8961969" lon="17.6229519">
        <ele>36.6675</ele>
        <time>2014-05-29T10:21:29Z</time>
      </trkpt>
      <trkpt lat="59.8961903" lon="17.6229165">
        <ele>36.6675</ele>
        <time>2014-05-29T10:21:30Z</time>
      </trkpt>
      <trkpt lat="59.896184" lon="17.6228778">
        <ele>36.6675</ele>
        <time>2014-05-29T10:21:31Z</time>
      </trkpt>
      <trkpt lat="59.8961768" lon="17.6228405">
        <ele>36.6675</ele>
        <time>2014-05-29T10:21:32Z</time>
      </trkpt>
      <trkpt lat="59.8961638" lon="17.6228101">
        <ele>37.1481</ele>
        <time>2014-05-29T10:21:33Z</time>
      </trkpt>
      <trkpt lat="59.8961475" lon="17.6227863">
        <ele>37.6287</ele>
        <time>2014-05-29T10:21:34Z</time>
      </trkpt>
      <trkpt lat="59.8961318" lon="17.6227682">
        <ele>38.1094</ele>
        <time>2014-05-29T10:21:35Z</time>
      </trkpt>
      <trkpt lat="59.8961197" lon="17.6227533">
        <ele>38.5901</ele>
        <time>2014-05-29T10:21:36Z</time>
      </trkpt>
      <trkpt lat="59.8961084" lon="17.6227446">
        <ele>38.5901</ele>
        <time>2014-05-29T10:21:37Z</time>
      </trkpt>
      <trkpt lat="59.8960964" lon="17.6227409">
        <ele>39.0707</ele>
        <time>2014-05-29T10:21:38Z</time>
      </trkpt>
      <trkpt lat="59.8960824" lon="17.6227321">
        <ele>39.0707</ele>
        <time>2014-05-29T10:21:39Z</time>
      </trkpt>
      <trkpt lat="59.8960696" lon="17.622712">
        <ele>39.5513</ele>
        <time>2014-05-29T10:21:40Z</time>
      </trkpt>
      <trkpt lat="59.8960607" lon="17.6226864">
        <ele>39.5513</ele>
        <time>2014-05-29T10:21:41Z</time>
      </trkpt>
      <trkpt lat="59.8960514" lon="17.6226623">
        <ele>40.0321</ele>
        <time>2014-05-29T10:21:42Z</time>
      </trkpt>
      <trkpt lat="59.8960409" lon="17.6226393">
        <ele>40.0321</ele>
        <time>2014-05-29T10:21:43Z</time>
      </trkpt>
      <trkpt lat="59.8960301" lon="17.6226129">
        <ele>40.0321</ele>
        <time>2014-05-29T10:21:44Z</time>
      </trkpt>
      <trkpt lat="59.8960183" lon="17.6225845">
        <ele>40.0321</ele>
        <time>2014-05-29T10:21:45Z</time>
      </trkpt>
      <trkpt lat="59.8960049" lon="17.6225565">
        <ele>40.5128</ele>
        <time>2014-05-29T10:21:46Z</time>
      </trkpt>
      <trkpt lat="59.8959907" lon="17.62253">
        <ele>40.5128</ele>
        <time>2014-05-29T10:21:47Z</time>
      </trkpt>
      <trkpt lat="59.8959758" lon="17.6225052">
        <ele>40.9934</ele>
        <time>2014-05-29T10:21:48Z</time>
      </trkpt>
      <trkpt lat="59.8959605" lon="17.6224838">
        <ele>41.474</ele>
        <time>2014-05-29T10:21:49Z</time>
      </trkpt>
      <trkpt lat="59.8959458" lon="17.6224617">
        <ele>41.474</ele>
        <time>2014-05-29T10:21:50Z</time>
      </trkpt>
      <trkpt lat="59.8959331" lon="17.622439">
        <ele>41.474</ele>
        <time>2014-05-29T10:21:51Z</time>
      </trkpt>
      <trkpt lat="59.8959193" lon="17.622417">
        <ele>41.474</ele>
        <time>2014-05-29T10:21:52Z</time>
      </trkpt>
      <trkpt lat="59.8959043" lon="17.6223939">
        <ele>41.9547</ele>
        <time>2014-05-29T10:21:53Z</time>
      </trkpt>
      <trkpt lat="59.8958892" lon="17.6223699">
        <ele>41.9547</ele>
        <time>2014-05-29T10:21:54Z</time>
      </trkpt>
      <trkpt lat="59.8958737" lon="17.6223483">
        <ele>42.4354</ele>
        <time>2014-05-29T10:21:55Z</time>
      </trkpt>
      <trkpt lat="59.8958591" lon="17.6223333">
        <ele>42.4354</ele>
        <time>2014-05-29T10:21:56Z</time>
      </trkpt>
      <trkpt lat="59.8958443" lon="17.6223208">
        <ele>42.916</ele>
        <time>2014-05-29T10:21:57Z</time>
      </trkpt>
      <trkpt lat="59.895831" lon="17.6223062">
        <ele>42.916</ele>
        <time>2014-05-29T10:21:58Z</time>
      </trkpt>
      <trkpt lat="59.8958183" lon="17.6222893">
        <ele>43.3966</ele>
        <time>2014-05-29T10:21:59Z</time>
      </trkpt>
      <trkpt lat="59.8958058" lon="17.6222689">
        <ele>43.3966</ele>
        <time>2014-05-29T10:22:00Z</time>
      </trkpt>
      <trkpt lat="59.8957965" lon="17.6222437">
        <ele>43.3966</ele>
        <time>2014-05-29T10:22:01Z</time>
      </trkpt>
      <trkpt lat="59.895787" lon="17.6222205">
        <ele>43.8773</ele>
        <time>2014-05-29T10:22:02Z</time>
      </trkpt>
      <trkpt lat="59.8957764" lon="17.6222028">
        <ele>43.8773</ele>
        <time>2014-05-29T10:22:03Z</time>
      </trkpt>
      <trkpt lat="59.8957659" lon="17.6221872">
        <ele>43.8773</ele>
        <time>2014-05-29T10:22:04Z</time>
      </trkpt>
      <trkpt lat="59.8957543" lon="17.622171">
        <ele>43.8773</ele>
        <time>2014-05-29T10:22:05Z</time>
      </trkpt>
      <trkpt lat="59.8957411" lon="17.6221575">
        <ele>44.358</ele>
        <time>2014-05-29T10:22:06Z</time>
      </trkpt>
      <trkpt lat="59.8957293" lon="17.6221447">
        <ele>44.358</ele>
        <time>2014-05-29T10:22:07Z</time>
      </trkpt>
      <trkpt lat="59.8957188" lon="17.6221282">
        <ele>44.358</ele>
        <time>2014-05-29T10:22:08Z</time>
      </trkpt>
      <trkpt lat="59.8957074" lon="17.6221136">
        <ele>44.358</ele>
        <time>2014-05-29T10:22:09Z</time>
      </trkpt>
      <trkpt lat="59.8956946" lon="17.6221002">
        <ele>44.358</ele>
        <time>2014-05-29T10:22:10Z</time>
      </trkpt>
      <trkpt lat="59.895682" lon="17.6220893">
        <ele>44.8386</ele>
        <time>2014-05-29T10:22:11Z</time>
      </trkpt>
      <trkpt lat="59.8956697" lon="17.6220839">
        <ele>45.3192</ele>
        <time>2014-05-29T10:22:12Z</time>
      </trkpt>
      <trkpt lat="59.8956583" lon="17.622081">
        <ele>45.3192</ele>
        <time>2014-05-29T10:22:13Z</time>
      </trkpt>
      <trkpt lat="59.8956466" lon="17.6220794">
        <ele>45.3192</ele>
        <time>2014-05-29T10:22:14Z</time>
      </trkpt>
      <trkpt lat="59.8956328" lon="17.6220758">
        <ele>45.3192</ele>
        <time>2014-05-29T10:22:15Z</time>
      </trkpt>
      <trkpt lat="59.8956189" lon="17.6220711">
        <ele>45.7999</ele>
        <time>2014-05-29T10:22:16Z</time>
      </trkpt>
      <trkpt lat="59.8956059" lon="17.6220665">
        <ele>45.7999</ele>
        <time>2014-05-29T10:22:17Z</time>
      </trkpt>
      <trkpt lat="59.8955922" lon="17.6220624">
        <ele>46.2806</ele>
        <time>2014-05-29T10:22:18Z</time>
      </trkpt>
      <trkpt lat="59.895578" lon="17.6220582">
        <ele>46.2806</ele>
        <time>2014-05-29T10:22:19Z</time>
      </trkpt>
      <trkpt lat="59.8955638" lon="17.6220557">
        <ele>46.7612</ele>
        <time>2014-05-29T10:22:20Z</time>
      </trkpt>
      <trkpt lat="59.8955492" lon="17.6220505">
        <ele>46.7612</ele>
        <time>2014-05-29T10:22:21Z</time>
      </trkpt>
      <trkpt lat="59.8955359" lon="17.6220401">
        <ele>47.2418</ele>
        <time>2014-05-29T10:22:22Z</time>
      </trkpt>
      <trkpt lat="59.8955235" lon="17.6220275">
        <ele>47.2418</ele>
        <time>2014-05-29T10:22:23Z</time>
      </trkpt>
      <trkpt lat="59.8955117" lon="17.6220124">
        <ele>47.2418</ele>
        <time>2014-05-29T10:22:24Z</time>
      </trkpt>
      <trkpt lat="59.8954966" lon="17.6219997">
        <ele>47.7225</ele>
        <time>2014-05-29T10:22:25Z</time>
      </trkpt>
      <trkpt lat="59.8954783" lon="17.6219879">
        <ele>47.7225</ele>
        <time>2014-05-29T10:22:26Z</time>
      </trkpt>
      <trkpt lat="59.8954609" lon="17.6219743">
        <ele>48.2034</ele>
        <time>2014-05-29T10:22:27Z</time>
      </trkpt>
      <trkpt lat="59.8954452" lon="17.6219603">
        <ele>48.2034</ele>
        <time>2014-05-29T10:22:28Z</time>
      </trkpt>
      <trkpt lat="59.8954292" lon="17.6219467">
        <ele>48.684</ele>
        <time>2014-05-29T10:22:29Z</time>
      </trkpt>
      <trkpt lat="59.8954132" lon="17.6219364">
        <ele>49.1646</ele>
        <time>2014-05-29T10:22:30Z</time>
      </trkpt>
      <trkpt lat="59.8953974" lon="17.6219347">
        <ele>49.1646</ele>
        <time>2014-05-29T10:22:31Z</time>
      </trkpt>
      <trkpt lat="59.8953816" lon="17.621937">
        <ele>49.6453</ele>
        <time>2014-05-29T10:22:32Z</time>
      </trkpt>
      <trkpt lat="59.8953666" lon="17.6219369">
        <ele>49.6453</ele>
        <time>2014-05-29T10:22:33Z</time>
      </trkpt>
      <trkpt lat="59.8953555" lon="17.6219322">
        <ele>50.126</ele>
        <time>2014-05-29T10:22:34Z</time>
      </trkpt>
      <trkpt lat="59.8953461" lon="17.6219226">
        <ele>50.126</ele>
        <time>2014-05-29T10:22:35Z</time>
      </trkpt>
      <trkpt lat="59.8953364" lon="17.6219133">
        <ele>50.126</ele>
        <time>2014-05-29T10:22:36Z</time>
      </trkpt>
      <trkpt lat="59.8953239" lon="17.621908">
        <ele>50.126</ele>
        <time>2014-05-29T10:22:37Z</time>
      </trkpt>
      <trkpt lat="59.8953083" lon="17.6219093">
        <ele>50.6066</ele>
        <time>2014-05-29T10:22:38Z</time>
      </trkpt>
      <trkpt lat="59.8952941" lon="17.6219156">
        <ele>50.6066</ele>
        <time>2014-05-29T10:22:39Z</time>
      </trkpt>
      <trkpt lat="59.8952804" lon="17.6219228">
        <ele>50.6066</ele>
        <time>2014-05-29T10:22:40Z</time>
      </trkpt>
      <trkpt lat="59.8952666" lon="17.6219308">
        <ele>50.6066</ele>
        <time>2014-05-29T10:22:41Z</time>
      </trkpt>
      <trkpt lat="59.8952506" lon="17.6219414">
        <ele>51.0872</ele>
        <time>2014-05-29T10:22:42Z</time>
      </trkpt>
      <trkpt lat="59.8952311" lon="17.6219471">
        <ele>51.0872</ele>
        <time>2014-05-29T10:22:43Z</time>
      </trkpt>
      <trkpt lat="59.895213" lon="17.6219421">
        <ele>51.5679</ele>
        <time>2014-05-29T10:22:44Z</time>
      </trkpt>
      <trkpt lat="59.8951951" lon="17.6219324">
        <ele>51.5679</ele>
        <time>2014-05-29T10:22:45Z</time>
      </trkpt>
      <trkpt lat="59.8951753" lon="17.6219215">
        <ele>51.5679</ele>
        <time>2014-05-29T10:22:46Z</time>
      </trkpt>
      <trkpt lat="59.8951562" lon="17.621909">
        <ele>52.0486</ele>
        <time>2014-05-29T10:22:47Z</time>
      </trkpt>
      <trkpt lat="59.8951371" lon="17.6218918">
        <ele>52.0486</ele>
        <time>2014-05-29T10:22:48Z</time>
      </trkpt>
      <trkpt lat="59.895118" lon="17.6218768">
        <ele>52.0486</ele>
        <time>2014-05-29T10:22:49Z</time>
      </trkpt>
      <trkpt lat="59.8950962" lon="17.6218702">
        <ele>52.5292</ele>
        <time>2014-05-29T10:22:50Z</time>
      </trkpt>
      <trkpt lat="59.8950686" lon="17.6218726">
        <ele>52.5292</ele>
        <time>2014-05-29T10:22:51Z</time>
      </trkpt>
      <trkpt lat="59.8950412" lon="17.6218814">
        <ele>53.0098</ele>
        <time>2014-05-29T10:22:52Z</time>
      </trkpt>
      <trkpt lat="59.8950182" lon="17.6218915">
        <ele>53.0098</ele>
        <time>2014-05-29T10:22:53Z</time>
      </trkpt>
      <trkpt lat="59.8949977" lon="17.6219006">
        <ele>53.4905</ele>
        <time>2014-05-29T10:22:54Z</time>
      </trkpt>
      <trkpt lat="59.8949765" lon="17.621912">
        <ele>53.4905</ele>
        <time>2014-05-29T10:22:55Z</time>
      </trkpt>
      <trkpt lat="59.8949522" lon="17.6219241">
        <ele>53.4905</ele>
        <time>2014-05-29T10:22:56Z</time>
      </trkpt>
      <trkpt lat="59.8949277" lon="17.6219342">
        <ele>53.4905</ele>
        <time>2014-05-29T10:22:57Z</time>
      </trkpt>
      <trkpt lat="59.8949045" lon="17.6219446">
        <ele>53.9712</ele>
        <time>2014-05-29T10:22:58Z</time>
      </trkpt>
      <trkpt lat="59.894881" lon="17.6219549">
        <ele>53.9712</ele>
        <time>2014-05-29T10:22:59Z</time>
      </trkpt>
      <trkpt lat="59.8948557" lon="17.6219612">
        <ele>53.9712</ele>
        <time>2014-05-29T10:23:00Z</time>
      </trkpt>
      <trkpt lat="59.8948242" lon="17.6219608">
        <ele>53.9712</ele>
        <time>2014-05-29T10:23:01Z</time>
      </trkpt>
      <trkpt lat="59.89479" lon="17.621954">
        <ele>54.4518</ele>
        <time>2014-05-29T10:23:02Z</time>
      </trkpt>
      <trkpt lat="59.8947584" lon="17.6219461">
        <ele>54.9324</ele>
        <time>2014-05-29T10:23:03Z</time>
      </trkpt>
      <trkpt lat="59.8947268" lon="17.6219365">
        <ele>54.9324</ele>
        <time>2014-05-29T10:23:04Z</time>
      </trkpt>
      <trkpt lat="59.8946898" lon="17.6219247">
        <ele>54.9324</ele>
        <time>2014-05-29T10:23:05Z</time>
      </trkpt>
      <trkpt lat="59.8946497" lon="17.6219121">
        <ele>55.4131</ele>
        <time>2014-05-29T10:23:06Z</time>
      </trkpt>
      <trkpt lat="59.8946121" lon="17.6218981">
        <ele>55.8938</ele>
        <time>2014-05-29T10:23:07Z</time>
      </trkpt>
      <trkpt lat="59.8945757" lon="17.6218826">
        <ele>55.8938</ele>
        <time>2014-05-29T10:23:08Z</time>
      </trkpt>
      <trkpt lat="59.8945379" lon="17.621865">
        <ele>56.3745</ele>
        <time>2014-05-29T10:23:09Z</time>
      </trkpt>
      <trkpt lat="59.8944978" lon="17.6218438">
        <ele>56.3745</ele>
        <time>2014-05-29T10:23:10Z</time>
      </trkpt>
      <trkpt lat="59.8944567" lon="17.6218189">
        <ele>56.3745</ele>
        <time>2014-05-29T10:23:11Z</time>
      </trkpt>
      <trkpt lat="59.894415" lon="17.6217907">
        <ele>56.8551</ele>
        <time>2014-05-29T10:23:12Z</time>
      </trkpt>
      <trkpt lat="59.8943749" lon="17.621766">
        <ele>57.3358</ele>
        <time>2014-05-29T10:23:13Z</time>
      </trkpt>
      <trkpt lat="59.8943372" lon="17.6217462">
        <ele>57.3358</ele>
        <time>2014-05-29T10:23:14Z</time>
      </trkpt>
      <trkpt lat="59.8942994" lon="17.6217275">
        <ele>57.8165</ele>
        <time>2014-05-29T10:23:15Z</time>
      </trkpt>
      <trkpt lat="59.8942597" lon="17.6217065">
        <ele>57.3358</ele>
        <time>2014-05-29T10:23:16Z</time>
      </trkpt>
      <trkpt lat="59.8942181" lon="17.621681">
        <ele>57.8165</ele>
        <time>2014-05-29T10:23:17Z</time>
      </trkpt>
      <trkpt lat="59.8941784" lon="17.6216556">
        <ele>57.8165</ele>
        <time>2014-05-29T10:23:18Z</time>
      </trkpt>
      <trkpt lat="59.8941421" lon="17.6216318">
        <ele>57.8165</ele>
        <time>2014-05-29T10:23:19Z</time>
      </trkpt>
      <trkpt lat="59.8941082" lon="17.6216073">
        <ele>57.8165</ele>
        <time>2014-05-29T10:23:20Z</time>
      </trkpt>
      <trkpt lat="59.8940762" lon="17.6215847">
        <ele>57.8165</ele>
        <time>2014-05-29T10:23:21Z</time>
      </trkpt>
      <trkpt lat="59.8940482" lon="17.621564">
        <ele>57.8165</ele>
        <time>2014-05-29T10:23:22Z</time>
      </trkpt>
      <trkpt lat="59.8940264" lon="17.6215439">
        <ele>57.8165</ele>
        <time>2014-05-29T10:23:23Z</time>
      </trkpt>
      <trkpt lat="59.8940119" lon="17.6215278">
        <ele>57.8165</ele>
        <time>2014-05-29T10:23:24Z</time>
      </trkpt>
      <trkpt lat="59.8940031" lon="17.6215215">
        <ele>57.8165</ele>
        <time>2014-05-29T10:23:25Z</time>
      </trkpt>
      <trkpt lat="59.8939967" lon="17.6215231">
        <ele>58.2971</ele>
        <time>2014-05-29T10:23:26Z</time>
      </trkpt>
      <trkpt lat="59.8939933" lon="17.6215252">
        <ele>58.2971</ele>
        <time>2014-05-29T10:23:27Z</time>
      </trkpt>
      <trkpt lat="59.8939927" lon="17.6215241">
        <ele>58.2971</ele>
        <time>2014-05-29T10:23:28Z</time>
      </trkpt>
      <trkpt lat="59.8939543" lon="17.6215003">
        <ele>57.8165</ele>
        <time>2014-05-29T10:23:32Z</time>
      </trkpt>
      <trkpt lat="59.8939354" lon="17.6215063">
        <ele>57.8165</ele>
        <time>2014-05-29T10:23:33Z</time>
      </trkpt>
      <trkpt lat="59.8939154" lon="17.6215128">
        <ele>57.8165</ele>
        <time>2014-05-29T10:23:34Z</time>
      </trkpt>
      <trkpt lat="59.8938939" lon="17.6215126">
        <ele>58.2971</ele>
        <time>2014-05-29T10:23:35Z</time>
      </trkpt>
      <trkpt lat="59.8938736" lon="17.6215045">
        <ele>58.2971</ele>
        <time>2014-05-29T10:23:36Z</time>
      </trkpt>
      <trkpt lat="59.8938541" lon="17.621498">
        <ele>58.7777</ele>
        <time>2014-05-29T10:23:37Z</time>
      </trkpt>
      <trkpt lat="59.8938357" lon="17.6214951">
        <ele>58.7777</ele>
        <time>2014-05-29T10:23:38Z</time>
      </trkpt>
      <trkpt lat="59.8938191" lon="17.6214977">
        <ele>58.7777</ele>
        <time>2014-05-29T10:23:39Z</time>
      </trkpt>
      <trkpt lat="59.8938068" lon="17.6215054">
        <ele>58.7777</ele>
        <time>2014-05-29T10:23:40Z</time>
      </trkpt>
      <trkpt lat="59.8938" lon="17.6215158">
        <ele>58.7777</ele>
        <time>2014-05-29T10:23:41Z</time>
      </trkpt>
      <trkpt lat="59.8937913" lon="17.6215312">
        <ele>58.7777</ele>
        <time>2014-05-29T10:23:42Z</time>
      </trkpt>
      <trkpt lat="59.8937763" lon="17.6215434">
        <ele>58.7777</ele>
        <time>2014-05-29T10:23:43Z</time>
      </trkpt>
      <trkpt lat="59.8937561" lon="17.6215468">
        <ele>58.2971</ele>
        <time>2014-05-29T10:23:44Z</time>
      </trkpt>
      <trkpt lat="59.8937308" lon="17.6215512">
        <ele>57.3358</ele>
        <time>2014-05-29T10:23:45Z</time>
      </trkpt>
      <trkpt lat="59.8937015" lon="17.6215631">
        <ele>56.8551</ele>
        <time>2014-05-29T10:23:46Z</time>
      </trkpt>
      <trkpt lat="59.8936643" lon="17.6215732">
        <ele>55.8938</ele>
        <time>2014-05-29T10:23:47Z</time>
      </trkpt>
      <trkpt lat="59.8936175" lon="17.6215755">
        <ele>54.9324</ele>
        <time>2014-05-29T10:23:48Z</time>
      </trkpt>
      <trkpt lat="59.8935645" lon="17.6215758">
        <ele>53.9712</ele>
        <time>2014-05-29T10:23:49Z</time>
      </trkpt>
      <trkpt lat="59.8935048" lon="17.6215796">
        <ele>53.0098</ele>
        <time>2014-05-29T10:23:50Z</time>
      </trkpt>
      <trkpt lat="59.8934365" lon="17.6215908">
        <ele>52.0486</ele>
        <time>2014-05-29T10:23:51Z</time>
      </trkpt>
      <trkpt lat="59.8933628" lon="17.6216089">
        <ele>51.0872</ele>
        <time>2014-05-29T10:23:52Z</time>
      </trkpt>
      <trkpt lat="59.8932877" lon="17.6216283">
        <ele>50.126</ele>
        <time>2014-05-29T10:23:53Z</time>
      </trkpt>
      <trkpt lat="59.8932096" lon="17.6216375">
        <ele>49.6453</ele>
        <time>2014-05-29T10:23:54Z</time>
      </trkpt>
      <trkpt lat="59.8931294" lon="17.6216257">
        <ele>48.684</ele>
        <time>2014-05-29T10:23:55Z</time>
      </trkpt>
      <trkpt lat="59.893047" lon="17.6215968">
        <ele>48.2034</ele>
        <time>2014-05-29T10:23:56Z</time>
      </trkpt>
      <trkpt lat="59.8929617" lon="17.6215593">
        <ele>47.2418</ele>
        <time>2014-05-29T10:23:57Z</time>
      </trkpt>
      <trkpt lat="59.8928729" lon="17.6215105">
        <ele>46.2806</ele>
        <time>2014-05-29T10:23:58Z</time>
      </trkpt>
      <trkpt lat="59.8927807" lon="17.6214495">
        <ele>45.3192</ele>
        <time>2014-05-29T10:23:59Z</time>
      </trkpt>
      <trkpt lat="59.8926895" lon="17.6213848">
        <ele>44.358</ele>
        <time>2014-05-29T10:24:00Z</time>
      </trkpt>
      <trkpt lat="59.8926054" lon="17.621326">
        <ele>43.3966</ele>
        <time>2014-05-29T10:24:01Z</time>
      </trkpt>
      <trkpt lat="59.8925311" lon="17.62128">
        <ele>42.916</ele>
        <time>2014-05-29T10:24:02Z</time>
      </trkpt>
      <trkpt lat="59.8924667" lon="17.6212548">
        <ele>42.4354</ele>
        <time>2014-05-29T10:24:03Z</time>
      </trkpt>
      <trkpt lat="59.8924096" lon="17.621246">
        <ele>41.474</ele>
        <time>2014-05-29T10:24:04Z</time>
      </trkpt>
      <trkpt lat="59.8923584" lon="17.6212354">
        <ele>40.9934</ele>
        <time>2014-05-29T10:24:05Z</time>
      </trkpt>
      <trkpt lat="59.8923122" lon="17.6212098">
        <ele>40.0321</ele>
        <time>2014-05-29T10:24:06Z</time>
      </trkpt>
      <trkpt lat="59.8922645" lon="17.6211766">
        <ele>39.5513</ele>
        <time>2014-05-29T10:24:07Z</time>
      </trkpt>
      <trkpt lat="59.8922141" lon="17.6211544">
        <ele>38.5901</ele>
        <time>2014-05-29T10:24:08Z</time>
      </trkpt>
      <trkpt lat="59.8921653" lon="17.6211455">
        <ele>38.1094</ele>
        <time>2014-05-29T10:24:09Z</time>
      </trkpt>
      <trkpt lat="59.8921149" lon="17.621157">
        <ele>37.1481</ele>
        <time>2014-05-29T10:24:10Z</time>
      </trkpt>
      <trkpt lat="59.8920658" lon="17.6211766">
        <ele>35.7061</ele>
        <time>2014-05-29T10:24:11Z</time>
      </trkpt>
      <trkpt lat="59.8920166" lon="17.6211962">
        <ele>34.2642</ele>
        <time>2014-05-29T10:24:12Z</time>
      </trkpt>
      <trkpt lat="59.8919715" lon="17.6212164">
        <ele>32.8223</ele>
        <time>2014-05-29T10:24:13Z</time>
      </trkpt>
      <trkpt lat="59.8919285" lon="17.621267">
        <ele>30.8995</ele>
        <time>2014-05-29T10:24:14Z</time>
      </trkpt>
      <trkpt lat="59.8918907" lon="17.621333">
        <ele>28.4962</ele>
        <time>2014-05-29T10:24:15Z</time>
      </trkpt>
      <trkpt lat="59.8918601" lon="17.6214278">
        <ele>25.6123</ele>
        <time>2014-05-29T10:24:16Z</time>
      </trkpt>
      <trkpt lat="59.8918337" lon="17.621493">
        <ele>23.6896</ele>
        <time>2014-05-29T10:24:17Z</time>
      </trkpt>
      <trkpt lat="59.8917985" lon="17.6215308">
        <ele>23.209</ele>
        <time>2014-05-29T10:24:18Z</time>
      </trkpt>
      <trkpt lat="59.8917592" lon="17.6216043">
        <ele>22.2476</ele>
        <time>2014-05-29T10:24:19Z</time>
      </trkpt>
      <trkpt lat="59.891717" lon="17.6216588">
        <ele>19.3638</ele>
        <time>2014-05-29T10:24:20Z</time>
      </trkpt>
      <trkpt lat="59.8916618" lon="17.6217499">
        <ele>17.4412</ele>
        <time>2014-05-29T10:24:21Z</time>
      </trkpt>
      <trkpt lat="59.8916023" lon="17.6218266">
        <ele>15.0377</ele>
        <time>2014-05-29T10:24:22Z</time>
      </trkpt>
      <trkpt lat="59.891542" lon="17.6218826">
        <ele>13.1151</ele>
        <time>2014-05-29T10:24:23Z</time>
      </trkpt>
      <trkpt lat="59.891484" lon="17.6219375">
        <ele>11.6732</ele>
        <time>2014-05-29T10:24:24Z</time>
      </trkpt>
      <trkpt lat="59.8914298" lon="17.6220105">
        <ele>9.75061</ele>
        <time>2014-05-29T10:24:25Z</time>
      </trkpt>
      <trkpt lat="59.8913736" lon="17.6220955">
        <ele>8.78918</ele>
        <time>2014-05-29T10:24:26Z</time>
      </trkpt>
      <trkpt lat="59.8913131" lon="17.6221863">
        <ele>8.30859</ele>
        <time>2014-05-29T10:24:27Z</time>
      </trkpt>
      <trkpt lat="59.8912552" lon="17.6222781">
        <ele>7.82788</ele>
        <time>2014-05-29T10:24:28Z</time>
      </trkpt>
      <trkpt lat="59.8911943" lon="17.6223724">
        <ele>7.34717</ele>
        <time>2014-05-29T10:24:29Z</time>
      </trkpt>
      <trkpt lat="59.8911153" lon="17.6225304">
        <ele>6.38586</ele>
        <time>2014-05-29T10:24:30Z</time>
      </trkpt>
      <trkpt lat="59.8910401" lon="17.622643">
        <ele>5.90527</ele>
        <time>2014-05-29T10:24:31Z</time>
      </trkpt>
      <trkpt lat="59.890976" lon="17.6227457">
        <ele>5.90527</ele>
        <time>2014-05-29T10:24:32Z</time>
      </trkpt>
      <trkpt lat="59.8909273" lon="17.6228425">
        <ele>5.90527</ele>
        <time>2014-05-29T10:24:33Z</time>
      </trkpt>
      <trkpt lat="59.89086" lon="17.6229198">
        <ele>6.86646</ele>
        <time>2014-05-29T10:24:34Z</time>
      </trkpt>
      <trkpt lat="59.8908063" lon="17.6230138">
        <ele>7.34717</ele>
        <time>2014-05-29T10:24:35Z</time>
      </trkpt>
      <trkpt lat="59.8907588" lon="17.623104">
        <ele>7.82788</ele>
        <time>2014-05-29T10:24:36Z</time>
      </trkpt>
      <trkpt lat="59.8907122" lon="17.6231867">
        <ele>7.82788</ele>
        <time>2014-05-29T10:24:37Z</time>
      </trkpt>
      <trkpt lat="59.8906665" lon="17.6232699">
        <ele>8.30859</ele>
        <time>2014-05-29T10:24:38Z</time>
      </trkpt>
      <trkpt lat="59.8906216" lon="17.6233552">
        <ele>7.82788</ele>
        <time>2014-05-29T10:24:39Z</time>
      </trkpt>
      <trkpt lat="59.8905708" lon="17.623432">
        <ele>8.30859</ele>
        <time>2014-05-29T10:24:40Z</time>
      </trkpt>
      <trkpt lat="59.8905215" lon="17.6235123">
        <ele>8.30859</ele>
        <time>2014-05-29T10:24:41Z</time>
      </trkpt>
      <trkpt lat="59.8904749" lon="17.6236006">
        <ele>8.30859</ele>
        <time>2014-05-29T10:24:42Z</time>
      </trkpt>
      <trkpt lat="59.8904274" lon="17.6236877">
        <ele>8.30859</ele>
        <time>2014-05-29T10:24:43Z</time>
      </trkpt>
      <trkpt lat="59.8903755" lon="17.6237762">
        <ele>9.2699</ele>
        <time>2014-05-29T10:24:44Z</time>
      </trkpt>
      <trkpt lat="59.890316" lon="17.6238619">
        <ele>11.1925</ele>
        <time>2014-05-29T10:24:45Z</time>
      </trkpt>
      <trkpt lat="59.8902554" lon="17.623935">
        <ele>13.1151</ele>
        <time>2014-05-29T10:24:46Z</time>
      </trkpt>
      <trkpt lat="59.8901889" lon="17.6240048">
        <ele>15.5184</ele>
        <time>2014-05-29T10:24:47Z</time>
      </trkpt>
      <trkpt lat="59.8901247" lon="17.6240565">
        <ele>17.4412</ele>
        <time>2014-05-29T10:24:48Z</time>
      </trkpt>
      <trkpt lat="59.8900606" lon="17.6240866">
        <ele>18.4023</ele>
        <time>2014-05-29T10:24:49Z</time>
      </trkpt>
      <trkpt lat="59.8899963" lon="17.6240986">
        <ele>19.3638</ele>
        <time>2014-05-29T10:24:50Z</time>
      </trkpt>
      <trkpt lat="59.8899336" lon="17.6241022">
        <ele>20.325</ele>
        <time>2014-05-29T10:24:51Z</time>
      </trkpt>
      <trkpt lat="59.8898729" lon="17.6241049">
        <ele>20.8057</ele>
        <time>2014-05-29T10:24:52Z</time>
      </trkpt>
      <trkpt lat="59.8898144" lon="17.6241049">
        <ele>21.2864</ele>
        <time>2014-05-29T10:24:53Z</time>
      </trkpt>
      <trkpt lat="59.8897577" lon="17.6241011">
        <ele>21.767</ele>
        <time>2014-05-29T10:24:54Z</time>
      </trkpt>
      <trkpt lat="59.8897043" lon="17.6240976">
        <ele>22.2476</ele>
        <time>2014-05-29T10:24:55Z</time>
      </trkpt>
      <trkpt lat="59.8896563" lon="17.624094">
        <ele>22.2476</ele>
        <time>2014-05-29T10:24:56Z</time>
      </trkpt>
      <trkpt lat="59.8896119" lon="17.6240881">
        <ele>22.7283</ele>
        <time>2014-05-29T10:24:57Z</time>
      </trkpt>
      <trkpt lat="59.8895691" lon="17.6240734">
        <ele>22.7283</ele>
        <time>2014-05-29T10:24:58Z</time>
      </trkpt>
      <trkpt lat="59.8895274" lon="17.6240423">
        <ele>22.7283</ele>
        <time>2014-05-29T10:24:59Z</time>
      </trkpt>
      <trkpt lat="59.8894888" lon="17.6239895">
        <ele>23.209</ele>
        <time>2014-05-29T10:25:00Z</time>
      </trkpt>
      <trkpt lat="59.889458" lon="17.6239197">
        <ele>23.209</ele>
        <time>2014-05-29T10:25:01Z</time>
      </trkpt>
      <trkpt lat="59.8894346" lon="17.6238416">
        <ele>23.6896</ele>
        <time>2014-05-29T10:25:02Z</time>
      </trkpt>
      <trkpt lat="59.8894124" lon="17.6237646">
        <ele>23.6896</ele>
        <time>2014-05-29T10:25:03Z</time>
      </trkpt>
      <trkpt lat="59.889387" lon="17.6236949">
        <ele>23.6896</ele>
        <time>2014-05-29T10:25:04Z</time>
      </trkpt>
      <trkpt lat="59.8893541" lon="17.6236392">
        <ele>23.6896</ele>
        <time>2014-05-29T10:25:05Z</time>
      </trkpt>
      <trkpt lat="59.8893158" lon="17.6235944">
        <ele>24.1703</ele>
        <time>2014-05-29T10:25:06Z</time>
      </trkpt>
      <trkpt lat="59.8892779" lon="17.623553">
        <ele>24.1703</ele>
        <time>2014-05-29T10:25:07Z</time>
      </trkpt>
      <trkpt lat="59.8892421" lon="17.6235092">
        <ele>24.651</ele>
        <time>2014-05-29T10:25:08Z</time>
      </trkpt>
      <trkpt lat="59.8892105" lon="17.6234621">
        <ele>24.651</ele>
        <time>2014-05-29T10:25:09Z</time>
      </trkpt>
      <trkpt lat="59.8891839" lon="17.6234049">
        <ele>24.651</ele>
        <time>2014-05-29T10:25:10Z</time>
      </trkpt>
      <trkpt lat="59.8891608" lon="17.6233386">
        <ele>24.651</ele>
        <time>2014-05-29T10:25:11Z</time>
      </trkpt>
      <trkpt lat="59.889134" lon="17.6232735">
        <ele>24.651</ele>
        <time>2014-05-29T10:25:12Z</time>
      </trkpt>
      <trkpt lat="59.8891023" lon="17.6232201">
        <ele>24.651</ele>
        <time>2014-05-29T10:25:13Z</time>
      </trkpt>
      <trkpt lat="59.8890645" lon="17.6231853">
        <ele>24.651</ele>
        <time>2014-05-29T10:25:14Z</time>
      </trkpt>
      <trkpt lat="59.8890168" lon="17.6231616">
        <ele>24.651</ele>
        <time>2014-05-29T10:25:15Z</time>
      </trkpt>
      <trkpt lat="59.8889717" lon="17.6231304">
        <ele>24.651</ele>
        <time>2014-05-29T10:25:16Z</time>
      </trkpt>
      <trkpt lat="59.8889373" lon="17.6230857">
        <ele>23.6896</ele>
        <time>2014-05-29T10:25:17Z</time>
      </trkpt>
      <trkpt lat="59.8889042" lon="17.6230372">
        <ele>23.209</ele>
        <time>2014-05-29T10:25:18Z</time>
      </trkpt>
      <trkpt lat="59.8888667" lon="17.6229932">
        <ele>23.209</ele>
        <time>2014-05-29T10:25:19Z</time>
      </trkpt>
      <trkpt lat="59.888828" lon="17.6229601">
        <ele>23.209</ele>
        <time>2014-05-29T10:25:20Z</time>
      </trkpt>
      <trkpt lat="59.8887887" lon="17.6229475">
        <ele>22.7283</ele>
        <time>2014-05-29T10:25:21Z</time>
      </trkpt>
      <trkpt lat="59.8887525" lon="17.6229538">
        <ele>22.7283</ele>
        <time>2014-05-29T10:25:22Z</time>
      </trkpt>
      <trkpt lat="59.8887222" lon="17.6229677">
        <ele>22.7283</ele>
        <time>2014-05-29T10:25:23Z</time>
      </trkpt>
      <trkpt lat="59.8887003" lon="17.6229848">
        <ele>22.7283</ele>
        <time>2014-05-29T10:25:24Z</time>
      </trkpt>
      <trkpt lat="59.8886817" lon="17.6230042">
        <ele>22.7283</ele>
        <time>2014-05-29T10:25:25Z</time>
      </trkpt>
      <trkpt lat="59.8886605" lon="17.6230159">
        <ele>22.2476</ele>
        <time>2014-05-29T10:25:26Z</time>
      </trkpt>
      <trkpt lat="59.8886432" lon="17.6230158">
        <ele>22.2476</ele>
        <time>2014-05-29T10:25:27Z</time>
      </trkpt>
      <trkpt lat="59.888626" lon="17.6230206">
        <ele>22.2476</ele>
        <time>2014-05-29T10:25:28Z</time>
      </trkpt>
      <trkpt lat="59.8886051" lon="17.6230277">
        <ele>22.2476</ele>
        <time>2014-05-29T10:25:29Z</time>
      </trkpt>
      <trkpt lat="59.8885825" lon="17.6230326">
        <ele>22.7283</ele>
        <time>2014-05-29T10:25:30Z</time>
      </trkpt>
      <trkpt lat="59.88856" lon="17.6230475">
        <ele>23.209</ele>
        <time>2014-05-29T10:25:31Z</time>
      </trkpt>
      <trkpt lat="59.8885407" lon="17.6230539">
        <ele>24.651</ele>
        <time>2014-05-29T10:25:32Z</time>
      </trkpt>
      <trkpt lat="59.8885268" lon="17.62305">
        <ele>24.1703</ele>
        <time>2014-05-29T10:25:33Z</time>
      </trkpt>
      <trkpt lat="59.8885091" lon="17.6230445">
        <ele>24.651</ele>
        <time>2014-05-29T10:25:34Z</time>
      </trkpt>
      <trkpt lat="59.8884878" lon="17.6230481">
        <ele>23.6896</ele>
        <time>2014-05-29T10:25:35Z</time>
      </trkpt>
      <trkpt lat="59.8884625" lon="17.6230574">
        <ele>23.6896</ele>
        <time>2014-05-29T10:25:36Z</time>
      </trkpt>
      <trkpt lat="59.8884397" lon="17.6230647">
        <ele>24.1703</ele>
        <time>2014-05-29T10:25:37Z</time>
      </trkpt>
      <trkpt lat="59.8884247" lon="17.6230604">
        <ele>24.651</ele>
        <time>2014-05-29T10:25:38Z</time>
      </trkpt>
      <trkpt lat="59.8884064" lon="17.6230548">
        <ele>24.1703</ele>
        <time>2014-05-29T10:25:39Z</time>
      </trkpt>
      <trkpt lat="59.8883872" lon="17.6230501">
        <ele>23.6896</ele>
        <time>2014-05-29T10:25:40Z</time>
      </trkpt>
      <trkpt lat="59.8883676" lon="17.6230484">
        <ele>23.6896</ele>
        <time>2014-05-29T10:25:41Z</time>
      </trkpt>
      <trkpt lat="59.8883479" lon="17.6230497">
        <ele>23.6896</ele>
        <time>2014-05-29T10:25:42Z</time>
      </trkpt>
      <trkpt lat="59.8883268" lon="17.6230479">
        <ele>23.6896</ele>
        <time>2014-05-29T10:25:43Z</time>
      </trkpt>
      <trkpt lat="59.8883095" lon="17.6230404">
        <ele>23.6896</ele>
        <time>2014-05-29T10:25:44Z</time>
      </trkpt>
      <trkpt lat="59.8882926" lon="17.6230367">
        <ele>23.209</ele>
        <time>2014-05-29T10:25:45Z</time>
      </trkpt>
      <trkpt lat="59.8882751" lon="17.6230393">
        <ele>22.7283</ele>
        <time>2014-05-29T10:25:46Z</time>
      </trkpt>
      <trkpt lat="59.8882569" lon="17.6230383">
        <ele>22.7283</ele>
        <time>2014-05-29T10:25:47Z</time>
      </trkpt>
      <trkpt lat="59.8882403" lon="17.6230304">
        <ele>23.6896</ele>
        <time>2014-05-29T10:25:48Z</time>
      </trkpt>
      <trkpt lat="59.8882233" lon="17.6230218">
        <ele>24.1703</ele>
        <time>2014-05-29T10:25:49Z</time>
      </trkpt>
      <trkpt lat="59.8882052" lon="17.6230243">
        <ele>25.1317</ele>
        <time>2014-05-29T10:25:50Z</time>
      </trkpt>
      <trkpt lat="59.8881899" lon="17.6230282">
        <ele>26.5736</ele>
        <time>2014-05-29T10:25:51Z</time>
      </trkpt>
      <trkpt lat="59.8881755" lon="17.6230295">
        <ele>27.5349</ele>
        <time>2014-05-29T10:25:52Z</time>
      </trkpt>
      <trkpt lat="59.8881582" lon="17.6230299">
        <ele>28.0155</ele>
        <time>2014-05-29T10:25:53Z</time>
      </trkpt>
      <trkpt lat="59.8881399" lon="17.6230217">
        <ele>28.4962</ele>
        <time>2014-05-29T10:25:54Z</time>
      </trkpt>
      <trkpt lat="59.8881196" lon="17.6230104">
        <ele>28.9769</ele>
        <time>2014-05-29T10:25:55Z</time>
      </trkpt>
      <trkpt lat="59.8881" lon="17.6230015">
        <ele>29.4575</ele>
        <time>2014-05-29T10:25:56Z</time>
      </trkpt>
      <trkpt lat="59.88808" lon="17.6229961">
        <ele>29.9381</ele>
        <time>2014-05-29T10:25:57Z</time>
      </trkpt>
      <trkpt lat="59.8880595" lon="17.622991">
        <ele>30.4188</ele>
        <time>2014-05-29T10:25:58Z</time>
      </trkpt>
      <trkpt lat="59.8880388" lon="17.6229799">
        <ele>30.8995</ele>
        <time>2014-05-29T10:25:59Z</time>
      </trkpt>
      <trkpt lat="59.8880164" lon="17.6229619">
        <ele>31.3801</ele>
        <time>2014-05-29T10:26:00Z</time>
      </trkpt>
      <trkpt lat="59.8879937" lon="17.6229398">
        <ele>32.3416</ele>
        <time>2014-05-29T10:26:01Z</time>
      </trkpt>
      <trkpt lat="59.887972" lon="17.622914">
        <ele>33.3029</ele>
        <time>2014-05-29T10:26:02Z</time>
      </trkpt>
      <trkpt lat="59.8879528" lon="17.622887">
        <ele>33.7834</ele>
        <time>2014-05-29T10:26:03Z</time>
      </trkpt>
      <trkpt lat="59.8879367" lon="17.6228571">
        <ele>34.2642</ele>
        <time>2014-05-29T10:26:04Z</time>
      </trkpt>
      <trkpt lat="59.8879228" lon="17.6228221">
        <ele>34.7449</ele>
        <time>2014-05-29T10:26:05Z</time>
      </trkpt>
      <trkpt lat="59.8879103" lon="17.6227851">
        <ele>35.7061</ele>
        <time>2014-05-29T10:26:06Z</time>
      </trkpt>
      <trkpt lat="59.8878993" lon="17.6227466">
        <ele>36.1868</ele>
        <time>2014-05-29T10:26:07Z</time>
      </trkpt>
      <trkpt lat="59.8878896" lon="17.6227068">
        <ele>36.1868</ele>
        <time>2014-05-29T10:26:08Z</time>
      </trkpt>
      <trkpt lat="59.8878829" lon="17.6226703">
        <ele>36.6675</ele>
        <time>2014-05-29T10:26:09Z</time>
      </trkpt>
      <trkpt lat="59.8878752" lon="17.6226366">
        <ele>37.6287</ele>
        <time>2014-05-29T10:26:10Z</time>
      </trkpt>
      <trkpt lat="59.8878659" lon="17.6226024">
        <ele>37.6287</ele>
        <time>2014-05-29T10:26:11Z</time>
      </trkpt>
      <trkpt lat="59.8878562" lon="17.6225694">
        <ele>37.6287</ele>
        <time>2014-05-29T10:26:12Z</time>
      </trkpt>
      <trkpt lat="59.8878461" lon="17.6225362">
        <ele>37.6287</ele>
        <time>2014-05-29T10:26:13Z</time>
      </trkpt>
      <trkpt lat="59.8878347" lon="17.6225045">
        <ele>37.6287</ele>
        <time>2014-05-29T10:26:14Z</time>
      </trkpt>
      <trkpt lat="59.8878205" lon="17.6224747">
        <ele>38.1094</ele>
        <time>2014-05-29T10:26:15Z</time>
      </trkpt>
      <trkpt lat="59.8878071" lon="17.6224434">
        <ele>38.5901</ele>
        <time>2014-05-29T10:26:16Z</time>
      </trkpt>
      <trkpt lat="59.8877957" lon="17.6224141">
        <ele>39.0707</ele>
        <time>2014-05-29T10:26:17Z</time>
      </trkpt>
      <trkpt lat="59.8877839" lon="17.6223874">
        <ele>39.5513</ele>
        <time>2014-05-29T10:26:18Z</time>
      </trkpt>
      <trkpt lat="59.8877685" lon="17.6223571">
        <ele>40.0321</ele>
        <time>2014-05-29T10:26:19Z</time>
      </trkpt>
      <trkpt lat="59.8877521" lon="17.6223224">
        <ele>40.5128</ele>
        <time>2014-05-29T10:26:20Z</time>
      </trkpt>
      <trkpt lat="59.8877378" lon="17.6222895">
        <ele>40.5128</ele>
        <time>2014-05-29T10:26:21Z</time>
      </trkpt>
      <trkpt lat="59.8877245" lon="17.6222544">
        <ele>40.5128</ele>
        <time>2014-05-29T10:26:22Z</time>
      </trkpt>
      <trkpt lat="59.887705" lon="17.6222095">
        <ele>40.5128</ele>
        <time>2014-05-29T10:26:23Z</time>
      </trkpt>
      <trkpt lat="59.8876736" lon="17.6221468">
        <ele>39.5513</ele>
        <time>2014-05-29T10:26:24Z</time>
      </trkpt>
      <trkpt lat="59.8876296" lon="17.6220623">
        <ele>38.5901</ele>
        <time>2014-05-29T10:26:25Z</time>
      </trkpt>
      <trkpt lat="59.8875613" lon="17.6219502">
        <ele>37.1481</ele>
        <time>2014-05-29T10:26:26Z</time>
      </trkpt>
      <trkpt lat="59.8874964" lon="17.6218307">
        <ele>36.1868</ele>
        <time>2014-05-29T10:26:27Z</time>
      </trkpt>
      <trkpt lat="59.8874426" lon="17.6217148">
        <ele>35.2255</ele>
        <time>2014-05-29T10:26:28Z</time>
      </trkpt>
      <trkpt lat="59.8873947" lon="17.621633">
        <ele>34.2642</ele>
        <time>2014-05-29T10:26:29Z</time>
      </trkpt>
      <trkpt lat="59.8873301" lon="17.6215957">
        <ele>33.3029</ele>
        <time>2014-05-29T10:26:30Z</time>
      </trkpt>
      <trkpt lat="59.8872514" lon="17.6215753">
        <ele>32.3416</ele>
        <time>2014-05-29T10:26:31Z</time>
      </trkpt>
      <trkpt lat="59.8871716" lon="17.6215614">
        <ele>30.8995</ele>
        <time>2014-05-29T10:26:32Z</time>
      </trkpt>
      <trkpt lat="59.8870907" lon="17.6215536">
        <ele>29.9381</ele>
        <time>2014-05-29T10:26:33Z</time>
      </trkpt>
      <trkpt lat="59.8870083" lon="17.6215439">
        <ele>28.9769</ele>
        <time>2014-05-29T10:26:34Z</time>
      </trkpt>
      <trkpt lat="59.8869198" lon="17.6215273">
        <ele>27.5349</ele>
        <time>2014-05-29T10:26:35Z</time>
      </trkpt>
      <trkpt lat="59.8868204" lon="17.6215291">
        <ele>26.5736</ele>
        <time>2014-05-29T10:26:36Z</time>
      </trkpt>
      <trkpt lat="59.8867095" lon="17.6215503">
        <ele>25.1317</ele>
        <time>2014-05-29T10:26:37Z</time>
      </trkpt>
      <trkpt lat="59.8865973" lon="17.6215894">
        <ele>24.1703</ele>
        <time>2014-05-29T10:26:38Z</time>
      </trkpt>
      <trkpt lat="59.8864962" lon="17.6216394">
        <ele>24.1703</ele>
        <time>2014-05-29T10:26:39Z</time>
      </trkpt>
      <trkpt lat="59.8864024" lon="17.621689">
        <ele>23.6896</ele>
        <time>2014-05-29T10:26:40Z</time>
      </trkpt>
      <trkpt lat="59.8863089" lon="17.621738">
        <ele>23.6896</ele>
        <time>2014-05-29T10:26:41Z</time>
      </trkpt>
      <trkpt lat="59.8862157" lon="17.6217884">
        <ele>23.6896</ele>
        <time>2014-05-29T10:26:42Z</time>
      </trkpt>
      <trkpt lat="59.8861246" lon="17.6218421">
        <ele>23.6896</ele>
        <time>2014-05-29T10:26:43Z</time>
      </trkpt>
      <trkpt lat="59.8860367" lon="17.6218993">
        <ele>23.6896</ele>
        <time>2014-05-29T10:26:44Z</time>
      </trkpt>
      <trkpt lat="59.8859536" lon="17.6219596">
        <ele>23.6896</ele>
        <time>2014-05-29T10:26:45Z</time>
      </trkpt>
      <trkpt lat="59.8858761" lon="17.622022">
        <ele>24.1703</ele>
        <time>2014-05-29T10:26:46Z</time>
      </trkpt>
      <trkpt lat="59.8858062" lon="17.6220892">
        <ele>24.651</ele>
        <time>2014-05-29T10:26:47Z</time>
      </trkpt>
      <trkpt lat="59.8857436" lon="17.6221655">
        <ele>25.1317</ele>
        <time>2014-05-29T10:26:48Z</time>
      </trkpt>
      <trkpt lat="59.8856881" lon="17.622254">
        <ele>25.1317</ele>
        <time>2014-05-29T10:26:49Z</time>
      </trkpt>
      <trkpt lat="59.885636" lon="17.6223447">
        <ele>25.6123</ele>
        <time>2014-05-29T10:26:50Z</time>
      </trkpt>
      <trkpt lat="59.8855868" lon="17.6224346">
        <ele>25.6123</ele>
        <time>2014-05-29T10:26:51Z</time>
      </trkpt>
      <trkpt lat="59.8855392" lon="17.6225234">
        <ele>25.6123</ele>
        <time>2014-05-29T10:26:52Z</time>
      </trkpt>
      <trkpt lat="59.8854915" lon="17.6226014">
        <ele>25.1317</ele>
        <time>2014-05-29T10:26:53Z</time>
      </trkpt>
      <trkpt lat="59.8854397" lon="17.6226534">
        <ele>25.1317</ele>
        <time>2014-05-29T10:26:54Z</time>
      </trkpt>
      <trkpt lat="59.8853838" lon="17.6226705">
        <ele>25.6123</ele>
        <time>2014-05-29T10:26:55Z</time>
      </trkpt>
      <trkpt lat="59.8853313" lon="17.6226725">
        <ele>25.1317</ele>
        <time>2014-05-29T10:26:56Z</time>
      </trkpt>
      <trkpt lat="59.885282" lon="17.6226735">
        <ele>24.651</ele>
        <time>2014-05-29T10:26:57Z</time>
      </trkpt>
      <trkpt lat="59.8852353" lon="17.6226765">
        <ele>24.651</ele>
        <time>2014-05-29T10:26:58Z</time>
      </trkpt>
      <trkpt lat="59.8851904" lon="17.6226901">
        <ele>24.651</ele>
        <time>2014-05-29T10:26:59Z</time>
      </trkpt>
      <trkpt lat="59.8851478" lon="17.6227114">
        <ele>24.651</ele>
        <time>2014-05-29T10:27:00Z</time>
      </trkpt>
      <trkpt lat="59.8851072" lon="17.6227342">
        <ele>24.651</ele>
        <time>2014-05-29T10:27:01Z</time>
      </trkpt>
      <trkpt lat="59.8850674" lon="17.6227594">
        <ele>24.651</ele>
        <time>2014-05-29T10:27:02Z</time>
      </trkpt>
      <trkpt lat="59.8850264" lon="17.6227885">
        <ele>24.651</ele>
        <time>2014-05-29T10:27:03Z</time>
      </trkpt>
      <trkpt lat="59.8849841" lon="17.6228224">
        <ele>24.651</ele>
        <time>2014-05-29T10:27:04Z</time>
      </trkpt>
      <trkpt lat="59.8849411" lon="17.6228648">
        <ele>24.1703</ele>
        <time>2014-05-29T10:27:05Z</time>
      </trkpt>
      <trkpt lat="59.8848965" lon="17.622914">
        <ele>24.651</ele>
        <time>2014-05-29T10:27:06Z</time>
      </trkpt>
      <trkpt lat="59.88485" lon="17.622964">
        <ele>24.651</ele>
        <time>2014-05-29T10:27:07Z</time>
      </trkpt>
      <trkpt lat="59.8848049" lon="17.6230134">
        <ele>24.651</ele>
        <time>2014-05-29T10:27:08Z</time>
      </trkpt>
      <trkpt lat="59.8847601" lon="17.6230657">
        <ele>24.651</ele>
        <time>2014-05-29T10:27:09Z</time>
      </trkpt>
      <trkpt lat="59.8847147" lon="17.6231194">
        <ele>24.651</ele>
        <time>2014-05-29T10:27:10Z</time>
      </trkpt>
      <trkpt lat="59.8846653" lon="17.6231707">
        <ele>24.651</ele>
        <time>2014-05-29T10:27:11Z</time>
      </trkpt>
      <trkpt lat="59.8846117" lon="17.6232222">
        <ele>24.651</ele>
        <time>2014-05-29T10:27:12Z</time>
      </trkpt>
      <trkpt lat="59.8845525" lon="17.6232709">
        <ele>24.1703</ele>
        <time>2014-05-29T10:27:13Z</time>
      </trkpt>
      <trkpt lat="59.8844895" lon="17.6233122">
        <ele>24.1703</ele>
        <time>2014-05-29T10:27:14Z</time>
      </trkpt>
      <trkpt lat="59.8844257" lon="17.6233496">
        <ele>23.6896</ele>
        <time>2014-05-29T10:27:15Z</time>
      </trkpt>
      <trkpt lat="59.8843614" lon="17.6233849">
        <ele>23.209</ele>
        <time>2014-05-29T10:27:16Z</time>
      </trkpt>
      <trkpt lat="59.8842977" lon="17.6234206">
        <ele>23.209</ele>
        <time>2014-05-29T10:27:17Z</time>
      </trkpt>
      <trkpt lat="59.8842335" lon="17.6234573">
        <ele>22.7283</ele>
        <time>2014-05-29T10:27:18Z</time>
      </trkpt>
      <trkpt lat="59.8841657" lon="17.6234978">
        <ele>21.767</ele>
        <time>2014-05-29T10:27:19Z</time>
      </trkpt>
      <trkpt lat="59.8840962" lon="17.6235547">
        <ele>21.767</ele>
        <time>2014-05-29T10:27:20Z</time>
      </trkpt>
      <trkpt lat="59.884031" lon="17.6236308">
        <ele>21.767</ele>
        <time>2014-05-29T10:27:21Z</time>
      </trkpt>
      <trkpt lat="59.8839709" lon="17.6237164">
        <ele>21.767</ele>
        <time>2014-05-29T10:27:22Z</time>
      </trkpt>
      <trkpt lat="59.8839157" lon="17.6238021">
        <ele>22.2476</ele>
        <time>2014-05-29T10:27:23Z</time>
      </trkpt>
      <trkpt lat="59.8838657" lon="17.623884">
        <ele>23.209</ele>
        <time>2014-05-29T10:27:24Z</time>
      </trkpt>
      <trkpt lat="59.8838209" lon="17.6239582">
        <ele>23.6896</ele>
        <time>2014-05-29T10:27:25Z</time>
      </trkpt>
      <trkpt lat="59.88378" lon="17.6240178">
        <ele>24.651</ele>
        <time>2014-05-29T10:27:26Z</time>
      </trkpt>
      <trkpt lat="59.8837397" lon="17.6240665">
        <ele>25.1317</ele>
        <time>2014-05-29T10:27:27Z</time>
      </trkpt>
      <trkpt lat="59.8836999" lon="17.6241075">
        <ele>25.6123</ele>
        <time>2014-05-29T10:27:28Z</time>
      </trkpt>
      <trkpt lat="59.8836585" lon="17.6241405">
        <ele>25.6123</ele>
        <time>2014-05-29T10:27:29Z</time>
      </trkpt>
      <trkpt lat="59.8836146" lon="17.624171">
        <ele>25.6123</ele>
        <time>2014-05-29T10:27:30Z</time>
      </trkpt>
      <trkpt lat="59.8835715" lon="17.624207">
        <ele>26.0929</ele>
        <time>2014-05-29T10:27:31Z</time>
      </trkpt>
      <trkpt lat="59.8835296" lon="17.6242535">
        <ele>26.0929</ele>
        <time>2014-05-29T10:27:32Z</time>
      </trkpt>
      <trkpt lat="59.8834908" lon="17.6243103">
        <ele>25.6123</ele>
        <time>2014-05-29T10:27:33Z</time>
      </trkpt>
      <trkpt lat="59.8834563" lon="17.6243785">
        <ele>25.6123</ele>
        <time>2014-05-29T10:27:34Z</time>
      </trkpt>
      <trkpt lat="59.8834244" lon="17.6244539">
        <ele>25.6123</ele>
        <time>2014-05-29T10:27:35Z</time>
      </trkpt>
      <trkpt lat="59.8833925" lon="17.6245327">
        <ele>25.1317</ele>
        <time>2014-05-29T10:27:36Z</time>
      </trkpt>
      <trkpt lat="59.8833599" lon="17.6246105">
        <ele>24.651</ele>
        <time>2014-05-29T10:27:37Z</time>
      </trkpt>
      <trkpt lat="59.8833273" lon="17.6246882">
        <ele>24.1703</ele>
        <time>2014-05-29T10:27:38Z</time>
      </trkpt>
      <trkpt lat="59.8832959" lon="17.6247699">
        <ele>24.1703</ele>
        <time>2014-05-29T10:27:39Z</time>
      </trkpt>
      <trkpt lat="59.8832656" lon="17.6248534">
        <ele>24.1703</ele>
        <time>2014-05-29T10:27:40Z</time>
      </trkpt>
      <trkpt lat="59.8832353" lon="17.6249337">
        <ele>23.6896</ele>
        <time>2014-05-29T10:27:41Z</time>
      </trkpt>
      <trkpt lat="59.8832027" lon="17.6250081">
        <ele>23.209</ele>
        <time>2014-05-29T10:27:42Z</time>
      </trkpt>
      <trkpt lat="59.8831667" lon="17.6250782">
        <ele>22.7283</ele>
        <time>2014-05-29T10:27:43Z</time>
      </trkpt>
      <trkpt lat="59.883128" lon="17.6251479">
        <ele>22.2476</ele>
        <time>2014-05-29T10:27:44Z</time>
      </trkpt>
      <trkpt lat="59.8830851" lon="17.6252191">
        <ele>21.767</ele>
        <time>2014-05-29T10:27:45Z</time>
      </trkpt>
      <trkpt lat="59.8830378" lon="17.6252922">
        <ele>21.2864</ele>
        <time>2014-05-29T10:27:46Z</time>
      </trkpt>
      <trkpt lat="59.8829872" lon="17.6253646">
        <ele>21.2864</ele>
        <time>2014-05-29T10:27:47Z</time>
      </trkpt>
      <trkpt lat="59.8829343" lon="17.6254366">
        <ele>21.767</ele>
        <time>2014-05-29T10:27:48Z</time>
      </trkpt>
      <trkpt lat="59.8828811" lon="17.625506">
        <ele>21.2864</ele>
        <time>2014-05-29T10:27:49Z</time>
      </trkpt>
      <trkpt lat="59.8828244" lon="17.6255715">
        <ele>20.8057</ele>
        <time>2014-05-29T10:27:50Z</time>
      </trkpt>
      <trkpt lat="59.8827643" lon="17.6256352">
        <ele>20.8057</ele>
        <time>2014-05-29T10:27:51Z</time>
      </trkpt>
      <trkpt lat="59.8827027" lon="17.6257033">
        <ele>20.8057</ele>
        <time>2014-05-29T10:27:52Z</time>
      </trkpt>
      <trkpt lat="59.8826303" lon="17.6257754">
        <ele>21.2864</ele>
        <time>2014-05-29T10:27:53Z</time>
      </trkpt>
      <trkpt lat="59.8825746" lon="17.6258545">
        <ele>20.8057</ele>
        <time>2014-05-29T10:27:54Z</time>
      </trkpt>
      <trkpt lat="59.8825461" lon="17.6259555">
        <ele>20.8057</ele>
        <time>2014-05-29T10:27:55Z</time>
      </trkpt>
      <trkpt lat="59.8825304" lon="17.6260661">
        <ele>20.8057</ele>
        <time>2014-05-29T10:27:56Z</time>
      </trkpt>
      <trkpt lat="59.8825405" lon="17.6261691">
        <ele>20.8057</ele>
        <time>2014-05-29T10:27:57Z</time>
      </trkpt>
      <trkpt lat="59.8825604" lon="17.6262749">
        <ele>21.2864</ele>
        <time>2014-05-29T10:27:58Z</time>
      </trkpt>
      <trkpt lat="59.8825811" lon="17.6263883">
        <ele>21.767</ele>
        <time>2014-05-29T10:27:59Z</time>
      </trkpt>
      <trkpt lat="59.8825934" lon="17.6265047">
        <ele>22.2476</ele>
        <time>2014-05-29T10:28:00Z</time>
      </trkpt>
      <trkpt lat="59.8825966" lon="17.626628">
        <ele>22.7283</ele>
        <time>2014-05-29T10:28:01Z</time>
      </trkpt>
      <trkpt lat="59.8825944" lon="17.626753">
        <ele>22.7283</ele>
        <time>2014-05-29T10:28:02Z</time>
      </trkpt>
      <trkpt lat="59.8825839" lon="17.6268704">
        <ele>23.209</ele>
        <time>2014-05-29T10:28:03Z</time>
      </trkpt>
      <trkpt lat="59.8825669" lon="17.6269833">
        <ele>23.6896</ele>
        <time>2014-05-29T10:28:04Z</time>
      </trkpt>
      <trkpt lat="59.8825475" lon="17.6270911">
        <ele>24.1703</ele>
        <time>2014-05-29T10:28:05Z</time>
      </trkpt>
      <trkpt lat="59.8825251" lon="17.6271923">
        <ele>24.1703</ele>
        <time>2014-05-29T10:28:06Z</time>
      </trkpt>
      <trkpt lat="59.8825001" lon="17.6272868">
        <ele>25.1317</ele>
        <time>2014-05-29T10:28:07Z</time>
      </trkpt>
      <trkpt lat="59.8824801" lon="17.6273761">
        <ele>25.6123</ele>
        <time>2014-05-29T10:28:08Z</time>
      </trkpt>
      <trkpt lat="59.8824667" lon="17.6274621">
        <ele>26.0929</ele>
        <time>2014-05-29T10:28:09Z</time>
      </trkpt>
      <trkpt lat="59.8824544" lon="17.6275481">
        <ele>27.0543</ele>
        <time>2014-05-29T10:28:10Z</time>
      </trkpt>
      <trkpt lat="59.8824379" lon="17.627635">
        <ele>27.5349</ele>
        <time>2014-05-29T10:28:11Z</time>
      </trkpt>
      <trkpt lat="59.8824189" lon="17.627707">
        <ele>28.0155</ele>
        <time>2014-05-29T10:28:12Z</time>
      </trkpt>
      <trkpt lat="59.8824024" lon="17.6277722">
        <ele>28.4962</ele>
        <time>2014-05-29T10:28:13Z</time>
      </trkpt>
      <trkpt lat="59.8823863" lon="17.6278292">
        <ele>28.9769</ele>
        <time>2014-05-29T10:28:14Z</time>
      </trkpt>
      <trkpt lat="59.8823676" lon="17.627875">
        <ele>28.9769</ele>
        <time>2014-05-29T10:28:15Z</time>
      </trkpt>
      <trkpt lat="59.8823489" lon="17.6279116">
        <ele>28.9769</ele>
        <time>2014-05-29T10:28:16Z</time>
      </trkpt>
      <trkpt lat="59.8823296" lon="17.6279366">
        <ele>28.9769</ele>
        <time>2014-05-29T10:28:17Z</time>
      </trkpt>
      <trkpt lat="59.8823109" lon="17.6279612">
        <ele>28.9769</ele>
        <time>2014-05-29T10:28:18Z</time>
      </trkpt>
      <trkpt lat="59.8822931" lon="17.6279849">
        <ele>28.4962</ele>
        <time>2014-05-29T10:28:19Z</time>
      </trkpt>
      <trkpt lat="59.8822728" lon="17.628008">
        <ele>28.0155</ele>
        <time>2014-05-29T10:28:20Z</time>
      </trkpt>
      <trkpt lat="59.882252" lon="17.6280314">
        <ele>28.0155</ele>
        <time>2014-05-29T10:28:21Z</time>
      </trkpt>
      <trkpt lat="59.8822365" lon="17.6280446">
        <ele>28.0155</ele>
        <time>2014-05-29T10:28:22Z</time>
      </trkpt>
      <trkpt lat="59.882221" lon="17.6280562">
        <ele>28.0155</ele>
        <time>2014-05-29T10:28:23Z</time>
      </trkpt>
      <trkpt lat="59.882206" lon="17.6280709">
        <ele>27.5349</ele>
        <time>2014-05-29T10:28:24Z</time>
      </trkpt>
      <trkpt lat="59.8821942" lon="17.6280905">
        <ele>27.5349</ele>
        <time>2014-05-29T10:28:25Z</time>
      </trkpt>
      <trkpt lat="59.8821822" lon="17.6281037">
        <ele>27.5349</ele>
        <time>2014-05-29T10:28:26Z</time>
      </trkpt>
      <trkpt lat="59.8821703" lon="17.6281115">
        <ele>27.0543</ele>
        <time>2014-05-29T10:28:27Z</time>
      </trkpt>
      <trkpt lat="59.8821578" lon="17.6281143">
        <ele>26.5736</ele>
        <time>2014-05-29T10:28:28Z</time>
      </trkpt>
      <trkpt lat="59.8821444" lon="17.6281144">
        <ele>26.5736</ele>
        <time>2014-05-29T10:28:29Z</time>
      </trkpt>
      <trkpt lat="59.8821286" lon="17.6281152">
        <ele>25.6123</ele>
        <time>2014-05-29T10:28:30Z</time>
      </trkpt>
      <trkpt lat="59.8821113" lon="17.6281141">
        <ele>25.6123</ele>
        <time>2014-05-29T10:28:31Z</time>
      </trkpt>
      <trkpt lat="59.8820953" lon="17.6281106">
        <ele>25.6123</ele>
        <time>2014-05-29T10:28:32Z</time>
      </trkpt>
      <trkpt lat="59.8820789" lon="17.6281127">
        <ele>25.6123</ele>
        <time>2014-05-29T10:28:33Z</time>
      </trkpt>
      <trkpt lat="59.8820618" lon="17.6281189">
        <ele>26.0929</ele>
        <time>2014-05-29T10:28:34Z</time>
      </trkpt>
      <trkpt lat="59.8820432" lon="17.6281296">
        <ele>27.0543</ele>
        <time>2014-05-29T10:28:35Z</time>
      </trkpt>
      <trkpt lat="59.8820247" lon="17.6281368">
        <ele>26.5736</ele>
        <time>2014-05-29T10:28:36Z</time>
      </trkpt>
      <trkpt lat="59.8820123" lon="17.6281389">
        <ele>27.0543</ele>
        <time>2014-05-29T10:28:37Z</time>
      </trkpt>
      <trkpt lat="59.8819981" lon="17.6281468">
        <ele>26.5736</ele>
        <time>2014-05-29T10:28:38Z</time>
      </trkpt>
      <trkpt lat="59.8819805" lon="17.628149">
        <ele>26.5736</ele>
        <time>2014-05-29T10:28:39Z</time>
      </trkpt>
      <trkpt lat="59.8819641" lon="17.6281451">
        <ele>27.0543</ele>
        <time>2014-05-29T10:28:40Z</time>
      </trkpt>
      <trkpt lat="59.8819489" lon="17.6281423">
        <ele>28.0155</ele>
        <time>2014-05-29T10:28:41Z</time>
      </trkpt>
      <trkpt lat="59.8819356" lon="17.6281408">
        <ele>27.5349</ele>
        <time>2014-05-29T10:28:42Z</time>
      </trkpt>
      <trkpt lat="59.881922" lon="17.6281438">
        <ele>28.0155</ele>
        <time>2014-05-29T10:28:43Z</time>
      </trkpt>
      <trkpt lat="59.8819081" lon="17.6281474">
        <ele>28.0155</ele>
        <time>2014-05-29T10:28:44Z</time>
      </trkpt>
      <trkpt lat="59.8818945" lon="17.6281521">
        <ele>28.0155</ele>
        <time>2014-05-29T10:28:45Z</time>
      </trkpt>
      <trkpt lat="59.8818825" lon="17.6281577">
        <ele>27.5349</ele>
        <time>2014-05-29T10:28:46Z</time>
      </trkpt>
      <trkpt lat="59.8818714" lon="17.6281614">
        <ele>27.5349</ele>
        <time>2014-05-29T10:28:47Z</time>
      </trkpt>
      <trkpt lat="59.88186" lon="17.6281656">
        <ele>27.0543</ele>
        <time>2014-05-29T10:28:48Z</time>
      </trkpt>
      <trkpt lat="59.881848" lon="17.6281697">
        <ele>27.5349</ele>
        <time>2014-05-29T10:28:49Z</time>
      </trkpt>
      <trkpt lat="59.8818361" lon="17.6281684">
        <ele>27.5349</ele>
        <time>2014-05-29T10:28:50Z</time>
      </trkpt>
      <trkpt lat="59.8818216" lon="17.628171">
        <ele>28.0155</ele>
        <time>2014-05-29T10:28:51Z</time>
      </trkpt>
      <trkpt lat="59.8818074" lon="17.6281708">
        <ele>28.4962</ele>
        <time>2014-05-29T10:28:52Z</time>
      </trkpt>
      <trkpt lat="59.881792" lon="17.6281717">
        <ele>29.4575</ele>
        <time>2014-05-29T10:28:53Z</time>
      </trkpt>
      <trkpt lat="59.881775" lon="17.6281682">
        <ele>29.9381</ele>
        <time>2014-05-29T10:28:54Z</time>
      </trkpt>
      <trkpt lat="59.8817619" lon="17.6281655">
        <ele>30.4188</ele>
        <time>2014-05-29T10:28:55Z</time>
      </trkpt>
      <trkpt lat="59.8817502" lon="17.6281594">
        <ele>30.4188</ele>
        <time>2014-05-29T10:28:56Z</time>
      </trkpt>
      <trkpt lat="59.8817386" lon="17.6281547">
        <ele>30.4188</ele>
        <time>2014-05-29T10:28:57Z</time>
      </trkpt>
      <trkpt lat="59.8817249" lon="17.6281529">
        <ele>30.4188</ele>
        <time>2014-05-29T10:28:58Z</time>
      </trkpt>
      <trkpt lat="59.8817112" lon="17.6281545">
        <ele>29.9381</ele>
        <time>2014-05-29T10:28:59Z</time>
      </trkpt>
      <trkpt lat="59.8816997" lon="17.6281599">
        <ele>29.9381</ele>
        <time>2014-05-29T10:29:00Z</time>
      </trkpt>
      <trkpt lat="59.8816859" lon="17.6281669">
        <ele>29.9381</ele>
        <time>2014-05-29T10:29:01Z</time>
      </trkpt>
      <trkpt lat="59.8816677" lon="17.6281696">
        <ele>29.9381</ele>
        <time>2014-05-29T10:29:02Z</time>
      </trkpt>
      <trkpt lat="59.8816502" lon="17.6281686">
        <ele>29.9381</ele>
        <time>2014-05-29T10:29:03Z</time>
      </trkpt>
      <trkpt lat="59.8816315" lon="17.6281656">
        <ele>29.9381</ele>
        <time>2014-05-29T10:29:04Z</time>
      </trkpt>
      <trkpt lat="59.8816129" lon="17.6281609">
        <ele>29.9381</ele>
        <time>2014-05-29T10:29:05Z</time>
      </trkpt>
      <trkpt lat="59.8815936" lon="17.6281597">
        <ele>30.4188</ele>
        <time>2014-05-29T10:29:06Z</time>
      </trkpt>
      <trkpt lat="59.8815752" lon="17.6281593">
        <ele>31.3801</ele>
        <time>2014-05-29T10:29:07Z</time>
      </trkpt>
      <trkpt lat="59.8815599" lon="17.6281593">
        <ele>31.8607</ele>
        <time>2014-05-29T10:29:08Z</time>
      </trkpt>
      <trkpt lat="59.881545" lon="17.6281617">
        <ele>32.3416</ele>
        <time>2014-05-29T10:29:09Z</time>
      </trkpt>
      <trkpt lat="59.881529" lon="17.6281671">
        <ele>32.8223</ele>
        <time>2014-05-29T10:29:10Z</time>
      </trkpt>
      <trkpt lat="59.8815128" lon="17.6281705">
        <ele>33.3029</ele>
        <time>2014-05-29T10:29:11Z</time>
      </trkpt>
      <trkpt lat="59.8814951" lon="17.6281701">
        <ele>33.7834</ele>
        <time>2014-05-29T10:29:12Z</time>
      </trkpt>
      <trkpt lat="59.8814761" lon="17.6281676">
        <ele>34.2642</ele>
        <time>2014-05-29T10:29:13Z</time>
      </trkpt>
      <trkpt lat="59.8814559" lon="17.6281623">
        <ele>34.7449</ele>
        <time>2014-05-29T10:29:14Z</time>
      </trkpt>
      <trkpt lat="59.8814336" lon="17.6281574">
        <ele>35.2255</ele>
        <time>2014-05-29T10:29:15Z</time>
      </trkpt>
      <trkpt lat="59.8814103" lon="17.6281542">
        <ele>35.7061</ele>
        <time>2014-05-29T10:29:16Z</time>
      </trkpt>
      <trkpt lat="59.8813882" lon="17.6281485">
        <ele>36.1868</ele>
        <time>2014-05-29T10:29:17Z</time>
      </trkpt>
      <trkpt lat="59.8813659" lon="17.6281426">
        <ele>37.1481</ele>
        <time>2014-05-29T10:29:18Z</time>
      </trkpt>
      <trkpt lat="59.8813414" lon="17.628136">
        <ele>37.6287</ele>
        <time>2014-05-29T10:29:19Z</time>
      </trkpt>
      <trkpt lat="59.8813145" lon="17.6281265">
        <ele>38.1094</ele>
        <time>2014-05-29T10:29:20Z</time>
      </trkpt>
      <trkpt lat="59.881285" lon="17.6281148">
        <ele>38.1094</ele>
        <time>2014-05-29T10:29:21Z</time>
      </trkpt>
      <trkpt lat="59.8812523" lon="17.6280938">
        <ele>38.5901</ele>
        <time>2014-05-29T10:29:22Z</time>
      </trkpt>
      <trkpt lat="59.8812156" lon="17.6280649">
        <ele>38.1094</ele>
        <time>2014-05-29T10:29:23Z</time>
      </trkpt>
      <trkpt lat="59.8811757" lon="17.6280411">
        <ele>38.1094</ele>
        <time>2014-05-29T10:29:24Z</time>
      </trkpt>
      <trkpt lat="59.8811312" lon="17.6280248">
        <ele>38.1094</ele>
        <time>2014-05-29T10:29:25Z</time>
      </trkpt>
      <trkpt lat="59.8810818" lon="17.6280136">
        <ele>38.1094</ele>
        <time>2014-05-29T10:29:26Z</time>
      </trkpt>
      <trkpt lat="59.8810255" lon="17.628009">
        <ele>37.6287</ele>
        <time>2014-05-29T10:29:27Z</time>
      </trkpt>
      <trkpt lat="59.8809581" lon="17.6280033">
        <ele>37.1481</ele>
        <time>2014-05-29T10:29:28Z</time>
      </trkpt>
      <trkpt lat="59.8808809" lon="17.627996">
        <ele>36.6675</ele>
        <time>2014-05-29T10:29:29Z</time>
      </trkpt>
      <trkpt lat="59.880801" lon="17.6279908">
        <ele>36.6675</ele>
        <time>2014-05-29T10:29:30Z</time>
      </trkpt>
      <trkpt lat="59.880725" lon="17.6279846">
        <ele>37.1481</ele>
        <time>2014-05-29T10:29:31Z</time>
      </trkpt>
      <trkpt lat="59.8806555" lon="17.6279791">
        <ele>37.1481</ele>
        <time>2014-05-29T10:29:32Z</time>
      </trkpt>
      <trkpt lat="59.8805933" lon="17.6279806">
        <ele>37.1481</ele>
        <time>2014-05-29T10:29:33Z</time>
      </trkpt>
      <trkpt lat="59.8805376" lon="17.6279936">
        <ele>37.1481</ele>
        <time>2014-05-29T10:29:34Z</time>
      </trkpt>
      <trkpt lat="59.8804852" lon="17.6280236">
        <ele>36.6675</ele>
        <time>2014-05-29T10:29:35Z</time>
      </trkpt>
      <trkpt lat="59.8804366" lon="17.6280764">
        <ele>36.1868</ele>
        <time>2014-05-29T10:29:36Z</time>
      </trkpt>
      <trkpt lat="59.8803941" lon="17.6281472">
        <ele>35.7061</ele>
        <time>2014-05-29T10:29:37Z</time>
      </trkpt>
      <trkpt lat="59.8803577" lon="17.6282215">
        <ele>34.7449</ele>
        <time>2014-05-29T10:29:38Z</time>
      </trkpt>
      <trkpt lat="59.8803255" lon="17.6282933">
        <ele>34.2642</ele>
        <time>2014-05-29T10:29:39Z</time>
      </trkpt>
      <trkpt lat="59.8802923" lon="17.6283601">
        <ele>33.3029</ele>
        <time>2014-05-29T10:29:40Z</time>
      </trkpt>
      <trkpt lat="59.8802519" lon="17.6284261">
        <ele>31.8607</ele>
        <time>2014-05-29T10:29:41Z</time>
      </trkpt>
      <trkpt lat="59.8801987" lon="17.6284986">
        <ele>30.4188</ele>
        <time>2014-05-29T10:29:42Z</time>
      </trkpt>
      <trkpt lat="59.880135" lon="17.628568">
        <ele>29.4575</ele>
        <time>2014-05-29T10:29:43Z</time>
      </trkpt>
      <trkpt lat="59.8800666" lon="17.6286251">
        <ele>28.0155</ele>
        <time>2014-05-29T10:29:44Z</time>
      </trkpt>
      <trkpt lat="59.8799988" lon="17.6286675">
        <ele>27.5349</ele>
        <time>2014-05-29T10:29:45Z</time>
      </trkpt>
      <trkpt lat="59.8799307" lon="17.628699">
        <ele>27.0543</ele>
        <time>2014-05-29T10:29:46Z</time>
      </trkpt>
      <trkpt lat="59.879868" lon="17.6287152">
        <ele>26.0929</ele>
        <time>2014-05-29T10:29:47Z</time>
      </trkpt>
      <trkpt lat="59.8798103" lon="17.6287271">
        <ele>24.1703</ele>
        <time>2014-05-29T10:29:48Z</time>
      </trkpt>
      <trkpt lat="59.8797355" lon="17.6287621">
        <ele>23.209</ele>
        <time>2014-05-29T10:29:49Z</time>
      </trkpt>
      <trkpt lat="59.8796584" lon="17.6288344">
        <ele>21.767</ele>
        <time>2014-05-29T10:29:50Z</time>
      </trkpt>
      <trkpt lat="59.8795708" lon="17.6289141">
        <ele>20.8057</ele>
        <time>2014-05-29T10:29:51Z</time>
      </trkpt>
      <trkpt lat="59.8794873" lon="17.6289564">
        <ele>20.325</ele>
        <time>2014-05-29T10:29:52Z</time>
      </trkpt>
      <trkpt lat="59.8794078" lon="17.628981">
        <ele>19.8444</ele>
        <time>2014-05-29T10:29:53Z</time>
      </trkpt>
      <trkpt lat="59.8793314" lon="17.6290156">
        <ele>19.8444</ele>
        <time>2014-05-29T10:29:54Z</time>
      </trkpt>
      <trkpt lat="59.8792656" lon="17.6290693">
        <ele>19.3638</ele>
        <time>2014-05-29T10:29:55Z</time>
      </trkpt>
      <trkpt lat="59.8792086" lon="17.6291233">
        <ele>18.8831</ele>
        <time>2014-05-29T10:29:56Z</time>
      </trkpt>
      <trkpt lat="59.879158" lon="17.6291516">
        <ele>18.4023</ele>
        <time>2014-05-29T10:29:57Z</time>
      </trkpt>
      <trkpt lat="59.8791138" lon="17.6291687">
        <ele>18.8831</ele>
        <time>2014-05-29T10:29:58Z</time>
      </trkpt>
      <trkpt lat="59.8790782" lon="17.6291773">
        <ele>18.8831</ele>
        <time>2014-05-29T10:29:59Z</time>
      </trkpt>
      <trkpt lat="59.8790508" lon="17.6291747">
        <ele>18.8831</ele>
        <time>2014-05-29T10:30:00Z</time>
      </trkpt>
      <trkpt lat="59.8790362" lon="17.6291403">
        <ele>18.4023</ele>
        <time>2014-05-29T10:30:01Z</time>
      </trkpt>
      <trkpt lat="59.879026" lon="17.6290882">
        <ele>17.9218</ele>
        <time>2014-05-29T10:30:02Z</time>
      </trkpt>
      <trkpt lat="59.8790156" lon="17.629018">
        <ele>17.4412</ele>
        <time>2014-05-29T10:30:03Z</time>
      </trkpt>
      <trkpt lat="59.8790087" lon="17.6289379">
        <ele>17.4412</ele>
        <time>2014-05-29T10:30:04Z</time>
      </trkpt>
      <trkpt lat="59.8790097" lon="17.6288489">
        <ele>16.9604</ele>
        <time>2014-05-29T10:30:05Z</time>
      </trkpt>
      <trkpt lat="59.879017" lon="17.6287539">
        <ele>16.4797</ele>
        <time>2014-05-29T10:30:06Z</time>
      </trkpt>
      <trkpt lat="59.8790254" lon="17.6286643">
        <ele>15.999</ele>
        <time>2014-05-29T10:30:07Z</time>
      </trkpt>
      <trkpt lat="59.8790316" lon="17.6285645">
        <ele>15.999</ele>
        <time>2014-05-29T10:30:08Z</time>
      </trkpt>
      <trkpt lat="59.8790326" lon="17.6284614">
        <ele>15.0377</ele>
        <time>2014-05-29T10:30:09Z</time>
      </trkpt>
      <trkpt lat="59.8790347" lon="17.6283536">
        <ele>14.0764</ele>
        <time>2014-05-29T10:30:10Z</time>
      </trkpt>
      <trkpt lat="59.8790378" lon="17.6282335">
        <ele>13.5958</ele>
        <time>2014-05-29T10:30:11Z</time>
      </trkpt>
      <trkpt lat="59.8790392" lon="17.628098">
        <ele>13.1151</ele>
        <time>2014-05-29T10:30:12Z</time>
      </trkpt>
      <trkpt lat="59.8790363" lon="17.6279573">
        <ele>12.6344</ele>
        <time>2014-05-29T10:30:13Z</time>
      </trkpt>
      <trkpt lat="59.8790397" lon="17.6278164">
        <ele>11.6732</ele>
        <time>2014-05-29T10:30:14Z</time>
      </trkpt>
      <trkpt lat="59.879056" lon="17.6276839">
        <ele>11.1925</ele>
        <time>2014-05-29T10:30:15Z</time>
      </trkpt>
      <trkpt lat="59.8790716" lon="17.6275568">
        <ele>10.7118</ele>
        <time>2014-05-29T10:30:16Z</time>
      </trkpt>
      <trkpt lat="59.8790868" lon="17.6274331">
        <ele>9.75061</ele>
        <time>2014-05-29T10:30:17Z</time>
      </trkpt>
      <trkpt lat="59.879115" lon="17.6272935">
        <ele>9.2699</ele>
        <time>2014-05-29T10:30:18Z</time>
      </trkpt>
      <trkpt lat="59.8791262" lon="17.6271697">
        <ele>8.78918</ele>
        <time>2014-05-29T10:30:19Z</time>
      </trkpt>
      <trkpt lat="59.8791299" lon="17.6270544">
        <ele>8.78918</ele>
        <time>2014-05-29T10:30:20Z</time>
      </trkpt>
      <trkpt lat="59.8791257" lon="17.6269502">
        <ele>9.2699</ele>
        <time>2014-05-29T10:30:21Z</time>
      </trkpt>
      <trkpt lat="59.8791304" lon="17.6268458">
        <ele>9.75061</ele>
        <time>2014-05-29T10:30:22Z</time>
      </trkpt>
      <trkpt lat="59.8791326" lon="17.6267587">
        <ele>10.2312</ele>
        <time>2014-05-29T10:30:23Z</time>
      </trkpt>
      <trkpt lat="59.8791264" lon="17.6266755">
        <ele>10.7118</ele>
        <time>2014-05-29T10:30:24Z</time>
      </trkpt>
      <trkpt lat="59.8791155" lon="17.6265898">
        <ele>11.1925</ele>
        <time>2014-05-29T10:30:25Z</time>
      </trkpt>
      <trkpt lat="59.8791099" lon="17.626492">
        <ele>11.6732</ele>
        <time>2014-05-29T10:30:26Z</time>
      </trkpt>
      <trkpt lat="59.879106" lon="17.6263965">
        <ele>12.1538</ele>
        <time>2014-05-29T10:30:27Z</time>
      </trkpt>
      <trkpt lat="59.8791012" lon="17.626299">
        <ele>12.6344</ele>
        <time>2014-05-29T10:30:28Z</time>
      </trkpt>
      <trkpt lat="59.8791009" lon="17.626206">
        <ele>13.5958</ele>
        <time>2014-05-29T10:30:29Z</time>
      </trkpt>
      <trkpt lat="59.8791076" lon="17.6261147">
        <ele>14.0764</ele>
        <time>2014-05-29T10:30:30Z</time>
      </trkpt>
      <trkpt lat="59.8791201" lon="17.6260256">
        <ele>14.557</ele>
        <time>2014-05-29T10:30:31Z</time>
      </trkpt>
      <trkpt lat="59.8791376" lon="17.6259374">
        <ele>15.0377</ele>
        <time>2014-05-29T10:30:32Z</time>
      </trkpt>
      <trkpt lat="59.8791609" lon="17.6258537">
        <ele>15.5184</ele>
        <time>2014-05-29T10:30:33Z</time>
      </trkpt>
      <trkpt lat="59.8791854" lon="17.6257811">
        <ele>15.999</ele>
        <time>2014-05-29T10:30:34Z</time>
      </trkpt>
      <trkpt lat="59.8792129" lon="17.6257149">
        <ele>16.4797</ele>
        <time>2014-05-29T10:30:35Z</time>
      </trkpt>
      <trkpt lat="59.8792383" lon="17.6256589">
        <ele>17.4412</ele>
        <time>2014-05-29T10:30:36Z</time>
      </trkpt>
      <trkpt lat="59.8792616" lon="17.6256119">
        <ele>18.4023</ele>
        <time>2014-05-29T10:30:37Z</time>
      </trkpt>
      <trkpt lat="59.8792791" lon="17.6255765">
        <ele>18.8831</ele>
        <time>2014-05-29T10:30:38Z</time>
      </trkpt>
      <trkpt lat="59.8792941" lon="17.6255496">
        <ele>19.8444</ele>
        <time>2014-05-29T10:30:39Z</time>
      </trkpt>
      <trkpt lat="59.8793083" lon="17.6255269">
        <ele>20.8057</ele>
        <time>2014-05-29T10:30:40Z</time>
      </trkpt>
      <trkpt lat="59.8793234" lon="17.6255075">
        <ele>21.767</ele>
        <time>2014-05-29T10:30:41Z</time>
      </trkpt>
      <trkpt lat="59.8793455" lon="17.6254848">
        <ele>22.2476</ele>
        <time>2014-05-29T10:30:42Z</time>
      </trkpt>
      <trkpt lat="59.879369" lon="17.6254411">
        <ele>22.7283</ele>
        <time>2014-05-29T10:30:43Z</time>
      </trkpt>
      <trkpt lat="59.8793844" lon="17.625372">
        <ele>22.7283</ele>
        <time>2014-05-29T10:30:44Z</time>
      </trkpt>
      <trkpt lat="59.8793884" lon="17.6252922">
        <ele>23.209</ele>
        <time>2014-05-29T10:30:45Z</time>
      </trkpt>
      <trkpt lat="59.8793885" lon="17.6252072">
        <ele>23.6896</ele>
        <time>2014-05-29T10:30:46Z</time>
      </trkpt>
      <trkpt lat="59.8793884" lon="17.6251185">
        <ele>23.6896</ele>
        <time>2014-05-29T10:30:47Z</time>
      </trkpt>
      <trkpt lat="59.8793904" lon="17.6250269">
        <ele>23.6896</ele>
        <time>2014-05-29T10:30:48Z</time>
      </trkpt>
      <trkpt lat="59.8793948" lon="17.6249289">
        <ele>24.1703</ele>
        <time>2014-05-29T10:30:49Z</time>
      </trkpt>
      <trkpt lat="59.8793973" lon="17.6248285">
        <ele>24.1703</ele>
        <time>2014-05-29T10:30:50Z</time>
      </trkpt>
      <trkpt lat="59.8793926" lon="17.6247269">
        <ele>24.1703</ele>
        <time>2014-05-29T10:30:51Z</time>
      </trkpt>
      <trkpt lat="59.8793839" lon="17.6246251">
        <ele>24.1703</ele>
        <time>2014-05-29T10:30:52Z</time>
      </trkpt>
      <trkpt lat="59.8793744" lon="17.6245239">
        <ele>24.1703</ele>
        <time>2014-05-29T10:30:53Z</time>
      </trkpt>
      <trkpt lat="59.8793637" lon="17.6244232">
        <ele>24.1703</ele>
        <time>2014-05-29T10:30:54Z</time>
      </trkpt>
      <trkpt lat="59.8793518" lon="17.6243243">
        <ele>23.6896</ele>
        <time>2014-05-29T10:30:55Z</time>
      </trkpt>
      <trkpt lat="59.8793387" lon="17.6242224">
        <ele>23.6896</ele>
        <time>2014-05-29T10:30:56Z</time>
      </trkpt>
      <trkpt lat="59.8793248" lon="17.6241178">
        <ele>24.1703</ele>
        <time>2014-05-29T10:30:57Z</time>
      </trkpt>
      <trkpt lat="59.8793101" lon="17.6240121">
        <ele>24.651</ele>
        <time>2014-05-29T10:30:58Z</time>
      </trkpt>
      <trkpt lat="59.8792931" lon="17.623905">
        <ele>25.1317</ele>
        <time>2014-05-29T10:30:59Z</time>
      </trkpt>
      <trkpt lat="59.8792752" lon="17.6237972">
        <ele>25.1317</ele>
        <time>2014-05-29T10:31:00Z</time>
      </trkpt>
      <trkpt lat="59.8792579" lon="17.6236874">
        <ele>25.6123</ele>
        <time>2014-05-29T10:31:01Z</time>
      </trkpt>
      <trkpt lat="59.8792405" lon="17.623576">
        <ele>25.6123</ele>
        <time>2014-05-29T10:31:02Z</time>
      </trkpt>
      <trkpt lat="59.8792189" lon="17.6234447">
        <ele>26.0929</ele>
        <time>2014-05-29T10:31:03Z</time>
      </trkpt>
      <trkpt lat="59.8791978" lon="17.6233303">
        <ele>26.5736</ele>
        <time>2014-05-29T10:31:04Z</time>
      </trkpt>
      <trkpt lat="59.879176" lon="17.6232218">
        <ele>27.5349</ele>
        <time>2014-05-29T10:31:05Z</time>
      </trkpt>
      <trkpt lat="59.8791649" lon="17.6231144">
        <ele>27.5349</ele>
        <time>2014-05-29T10:31:06Z</time>
      </trkpt>
      <trkpt lat="59.8791491" lon="17.623008">
        <ele>28.0155</ele>
        <time>2014-05-29T10:31:07Z</time>
      </trkpt>
      <trkpt lat="59.879134" lon="17.6229146">
        <ele>28.0155</ele>
        <time>2014-05-29T10:31:08Z</time>
      </trkpt>
      <trkpt lat="59.8791182" lon="17.6228325">
        <ele>28.0155</ele>
        <time>2014-05-29T10:31:09Z</time>
      </trkpt>
      <trkpt lat="59.8791084" lon="17.6227678">
        <ele>28.0155</ele>
        <time>2014-05-29T10:31:10Z</time>
      </trkpt>
      <trkpt lat="59.879104" lon="17.6227102">
        <ele>28.0155</ele>
        <time>2014-05-29T10:31:11Z</time>
      </trkpt>
      <trkpt lat="59.879101" lon="17.6226551">
        <ele>28.4962</ele>
        <time>2014-05-29T10:31:12Z</time>
      </trkpt>
      <trkpt lat="59.8791008" lon="17.622595">
        <ele>28.4962</ele>
        <time>2014-05-29T10:31:13Z</time>
      </trkpt>
      <trkpt lat="59.8790994" lon="17.6225316">
        <ele>28.4962</ele>
        <time>2014-05-29T10:31:14Z</time>
      </trkpt>
      <trkpt lat="59.8790948" lon="17.6224643">
        <ele>28.4962</ele>
        <time>2014-05-29T10:31:15Z</time>
      </trkpt>
      <trkpt lat="59.8790884" lon="17.6223918">
        <ele>28.4962</ele>
        <time>2014-05-29T10:31:16Z</time>
      </trkpt>
      <trkpt lat="59.8790835" lon="17.6223075">
        <ele>28.9769</ele>
        <time>2014-05-29T10:31:17Z</time>
      </trkpt>
      <trkpt lat="59.879089" lon="17.622223">
        <ele>28.9769</ele>
        <time>2014-05-29T10:31:18Z</time>
      </trkpt>
      <trkpt lat="59.8791015" lon="17.6221322">
        <ele>28.9769</ele>
        <time>2014-05-29T10:31:19Z</time>
      </trkpt>
      <trkpt lat="59.8791279" lon="17.6220525">
        <ele>28.9769</ele>
        <time>2014-05-29T10:31:20Z</time>
      </trkpt>
      <trkpt lat="59.8791635" lon="17.6219855">
        <ele>28.4962</ele>
        <time>2014-05-29T10:31:21Z</time>
      </trkpt>
      <trkpt lat="59.8792045" lon="17.6219239">
        <ele>28.4962</ele>
        <time>2014-05-29T10:31:22Z</time>
      </trkpt>
      <trkpt lat="59.8792505" lon="17.6218682">
        <ele>28.0155</ele>
        <time>2014-05-29T10:31:23Z</time>
      </trkpt>
      <trkpt lat="59.8792984" lon="17.6218115">
        <ele>28.0155</ele>
        <time>2014-05-29T10:31:24Z</time>
      </trkpt>
      <trkpt lat="59.879346" lon="17.6217484">
        <ele>27.5349</ele>
        <time>2014-05-29T10:31:25Z</time>
      </trkpt>
      <trkpt lat="59.8793927" lon="17.6216828">
        <ele>27.5349</ele>
        <time>2014-05-29T10:31:26Z</time>
      </trkpt>
      <trkpt lat="59.8794382" lon="17.6216179">
        <ele>28.0155</ele>
        <time>2014-05-29T10:31:27Z</time>
      </trkpt>
      <trkpt lat="59.8794828" lon="17.6215533">
        <ele>28.0155</ele>
        <time>2014-05-29T10:31:28Z</time>
      </trkpt>
      <trkpt lat="59.8795283" lon="17.6214909">
        <ele>28.0155</ele>
        <time>2014-05-29T10:31:29Z</time>
      </trkpt>
      <trkpt lat="59.879572" lon="17.6214283">
        <ele>28.4962</ele>
        <time>2014-05-29T10:31:30Z</time>
      </trkpt>
      <trkpt lat="59.8796118" lon="17.6213683">
        <ele>28.4962</ele>
        <time>2014-05-29T10:31:31Z</time>
      </trkpt>
      <trkpt lat="59.8796489" lon="17.6213111">
        <ele>28.4962</ele>
        <time>2014-05-29T10:31:32Z</time>
      </trkpt>
      <trkpt lat="59.8796873" lon="17.6212594">
        <ele>28.4962</ele>
        <time>2014-05-29T10:31:33Z</time>
      </trkpt>
      <trkpt lat="59.8797263" lon="17.6212124">
        <ele>28.4962</ele>
        <time>2014-05-29T10:31:34Z</time>
      </trkpt>
      <trkpt lat="59.879763" lon="17.6211636">
        <ele>28.4962</ele>
        <time>2014-05-29T10:31:35Z</time>
      </trkpt>
      <trkpt lat="59.8797966" lon="17.6211087">
        <ele>28.4962</ele>
        <time>2014-05-29T10:31:36Z</time>
      </trkpt>
      <trkpt lat="59.8798272" lon="17.6210494">
        <ele>28.4962</ele>
        <time>2014-05-29T10:31:37Z</time>
      </trkpt>
      <trkpt lat="59.8798551" lon="17.6209933">
        <ele>28.4962</ele>
        <time>2014-05-29T10:31:38Z</time>
      </trkpt>
      <trkpt lat="59.8798804" lon="17.6209423">
        <ele>28.0155</ele>
        <time>2014-05-29T10:31:39Z</time>
      </trkpt>
      <trkpt lat="59.8798994" lon="17.6208852">
        <ele>28.0155</ele>
        <time>2014-05-29T10:31:40Z</time>
      </trkpt>
      <trkpt lat="59.8799045" lon="17.6208181">
        <ele>28.0155</ele>
        <time>2014-05-29T10:31:41Z</time>
      </trkpt>
      <trkpt lat="59.8798941" lon="17.6207462">
        <ele>28.4962</ele>
        <time>2014-05-29T10:31:42Z</time>
      </trkpt>
      <trkpt lat="59.8798766" lon="17.620674">
        <ele>28.4962</ele>
        <time>2014-05-29T10:31:43Z</time>
      </trkpt>
      <trkpt lat="59.8798579" lon="17.6206008">
        <ele>28.4962</ele>
        <time>2014-05-29T10:31:44Z</time>
      </trkpt>
      <trkpt lat="59.8798371" lon="17.6205263">
        <ele>28.4962</ele>
        <time>2014-05-29T10:31:45Z</time>
      </trkpt>
      <trkpt lat="59.879817" lon="17.6204499">
        <ele>28.4962</ele>
        <time>2014-05-29T10:31:46Z</time>
      </trkpt>
      <trkpt lat="59.8797984" lon="17.6203701">
        <ele>28.4962</ele>
        <time>2014-05-29T10:31:47Z</time>
      </trkpt>
      <trkpt lat="59.8797796" lon="17.6202866">
        <ele>28.0155</ele>
        <time>2014-05-29T10:31:48Z</time>
      </trkpt>
      <trkpt lat="59.879758" lon="17.6202035">
        <ele>28.4962</ele>
        <time>2014-05-29T10:31:49Z</time>
      </trkpt>
      <trkpt lat="59.8797342" lon="17.6201228">
        <ele>28.0155</ele>
        <time>2014-05-29T10:31:50Z</time>
      </trkpt>
      <trkpt lat="59.8797097" lon="17.6200436">
        <ele>28.4962</ele>
        <time>2014-05-29T10:31:51Z</time>
      </trkpt>
      <trkpt lat="59.8796872" lon="17.6199658">
        <ele>28.4962</ele>
        <time>2014-05-29T10:31:52Z</time>
      </trkpt>
      <trkpt lat="59.8796682" lon="17.6198897">
        <ele>28.0155</ele>
        <time>2014-05-29T10:31:53Z</time>
      </trkpt>
      <trkpt lat="59.8796593" lon="17.6198112">
        <ele>28.0155</ele>
        <time>2014-05-29T10:31:54Z</time>
      </trkpt>
      <trkpt lat="59.8796709" lon="17.6197299">
        <ele>27.5349</ele>
        <time>2014-05-29T10:31:55Z</time>
      </trkpt>
      <trkpt lat="59.8797017" lon="17.6196679">
        <ele>27.5349</ele>
        <time>2014-05-29T10:31:56Z</time>
      </trkpt>
      <trkpt lat="59.8797396" lon="17.619628">
        <ele>27.5349</ele>
        <time>2014-05-29T10:31:57Z</time>
      </trkpt>
      <trkpt lat="59.8797786" lon="17.6195949">
        <ele>27.5349</ele>
        <time>2014-05-29T10:31:58Z</time>
      </trkpt>
      <trkpt lat="59.879818" lon="17.6195635">
        <ele>27.5349</ele>
        <time>2014-05-29T10:31:59Z</time>
      </trkpt>
      <trkpt lat="59.8798571" lon="17.6195298">
        <ele>27.5349</ele>
        <time>2014-05-29T10:32:00Z</time>
      </trkpt>
      <trkpt lat="59.879896" lon="17.6194925">
        <ele>27.5349</ele>
        <time>2014-05-29T10:32:01Z</time>
      </trkpt>
      <trkpt lat="59.879936" lon="17.6194567">
        <ele>27.5349</ele>
        <time>2014-05-29T10:32:02Z</time>
      </trkpt>
      <trkpt lat="59.8799761" lon="17.6194241">
        <ele>27.0543</ele>
        <time>2014-05-29T10:32:03Z</time>
      </trkpt>
      <trkpt lat="59.8800157" lon="17.619389">
        <ele>27.0543</ele>
        <time>2014-05-29T10:32:04Z</time>
      </trkpt>
      <trkpt lat="59.8800563" lon="17.6193552">
        <ele>27.0543</ele>
        <time>2014-05-29T10:32:05Z</time>
      </trkpt>
      <trkpt lat="59.8800982" lon="17.6193273">
        <ele>27.0543</ele>
        <time>2014-05-29T10:32:06Z</time>
      </trkpt>
      <trkpt lat="59.880141" lon="17.6192996">
        <ele>26.5736</ele>
        <time>2014-05-29T10:32:07Z</time>
      </trkpt>
      <trkpt lat="59.8801837" lon="17.6192697">
        <ele>26.5736</ele>
        <time>2014-05-29T10:32:08Z</time>
      </trkpt>
      <trkpt lat="59.8802197" lon="17.6192428">
        <ele>26.0929</ele>
        <time>2014-05-29T10:32:09Z</time>
      </trkpt>
      <trkpt lat="59.8802448" lon="17.6192188">
        <ele>26.0929</ele>
        <time>2014-05-29T10:32:10Z</time>
      </trkpt>
      <trkpt lat="59.8802597" lon="17.6191982">
        <ele>25.6123</ele>
        <time>2014-05-29T10:32:11Z</time>
      </trkpt>
      <trkpt lat="59.8802697" lon="17.619175">
        <ele>25.6123</ele>
        <time>2014-05-29T10:32:12Z</time>
      </trkpt>
      <trkpt lat="59.8802765" lon="17.619138">
        <ele>25.1317</ele>
        <time>2014-05-29T10:32:13Z</time>
      </trkpt>
      <trkpt lat="59.880271" lon="17.6190811">
        <ele>25.1317</ele>
        <time>2014-05-29T10:32:14Z</time>
      </trkpt>
      <trkpt lat="59.8802573" lon="17.6190109">
        <ele>24.651</ele>
        <time>2014-05-29T10:32:15Z</time>
      </trkpt>
      <trkpt lat="59.8802407" lon="17.6189357">
        <ele>24.651</ele>
        <time>2014-05-29T10:32:16Z</time>
      </trkpt>
      <trkpt lat="59.8802224" lon="17.6188542">
        <ele>24.1703</ele>
        <time>2014-05-29T10:32:17Z</time>
      </trkpt>
      <trkpt lat="59.8802049" lon="17.6187656">
        <ele>24.1703</ele>
        <time>2014-05-29T10:32:18Z</time>
      </trkpt>
      <trkpt lat="59.8801869" lon="17.6186739">
        <ele>23.6896</ele>
        <time>2014-05-29T10:32:19Z</time>
      </trkpt>
      <trkpt lat="59.8801666" lon="17.6185798">
        <ele>23.6896</ele>
        <time>2014-05-29T10:32:20Z</time>
      </trkpt>
      <trkpt lat="59.8801413" lon="17.618485">
        <ele>23.209</ele>
        <time>2014-05-29T10:32:21Z</time>
      </trkpt>
      <trkpt lat="59.8801142" lon="17.6183848">
        <ele>23.209</ele>
        <time>2014-05-29T10:32:22Z</time>
      </trkpt>
      <trkpt lat="59.8800904" lon="17.6182782">
        <ele>22.7283</ele>
        <time>2014-05-29T10:32:23Z</time>
      </trkpt>
      <trkpt lat="59.8800683" lon="17.6181649">
        <ele>22.7283</ele>
        <time>2014-05-29T10:32:24Z</time>
      </trkpt>
      <trkpt lat="59.8800447" lon="17.6180505">
        <ele>22.2476</ele>
        <time>2014-05-29T10:32:25Z</time>
      </trkpt>
      <trkpt lat="59.8800215" lon="17.6179338">
        <ele>22.2476</ele>
        <time>2014-05-29T10:32:26Z</time>
      </trkpt>
      <trkpt lat="59.8799966" lon="17.6178192">
        <ele>21.767</ele>
        <time>2014-05-29T10:32:27Z</time>
      </trkpt>
      <trkpt lat="59.8799706" lon="17.6177028">
        <ele>21.767</ele>
        <time>2014-05-29T10:32:28Z</time>
      </trkpt>
      <trkpt lat="59.8799485" lon="17.6175812">
        <ele>21.767</ele>
        <time>2014-05-29T10:32:29Z</time>
      </trkpt>
      <trkpt lat="59.8799279" lon="17.6174604">
        <ele>21.767</ele>
        <time>2014-05-29T10:32:30Z</time>
      </trkpt>
      <trkpt lat="59.8799056" lon="17.6173432">
        <ele>21.767</ele>
        <time>2014-05-29T10:32:31Z</time>
      </trkpt>
      <trkpt lat="59.8798816" lon="17.6172299">
        <ele>21.767</ele>
        <time>2014-05-29T10:32:32Z</time>
      </trkpt>
      <trkpt lat="59.8798561" lon="17.6171184">
        <ele>21.767</ele>
        <time>2014-05-29T10:32:33Z</time>
      </trkpt>
      <trkpt lat="59.8798282" lon="17.6170081">
        <ele>21.767</ele>
        <time>2014-05-29T10:32:34Z</time>
      </trkpt>
      <trkpt lat="59.8797988" lon="17.6169035">
        <ele>21.767</ele>
        <time>2014-05-29T10:32:35Z</time>
      </trkpt>
      <trkpt lat="59.8797719" lon="17.6168066">
        <ele>21.2864</ele>
        <time>2014-05-29T10:32:36Z</time>
      </trkpt>
      <trkpt lat="59.8797479" lon="17.6167108">
        <ele>20.8057</ele>
        <time>2014-05-29T10:32:37Z</time>
      </trkpt>
      <trkpt lat="59.8797231" lon="17.6166189">
        <ele>20.325</ele>
        <time>2014-05-29T10:32:38Z</time>
      </trkpt>
      <trkpt lat="59.8796947" lon="17.6165388">
        <ele>20.8057</ele>
        <time>2014-05-29T10:32:39Z</time>
      </trkpt>
      <trkpt lat="59.8796677" lon="17.6164734">
        <ele>21.2864</ele>
        <time>2014-05-29T10:32:40Z</time>
      </trkpt>
      <trkpt lat="59.87965" lon="17.6164226">
        <ele>21.2864</ele>
        <time>2014-05-29T10:32:41Z</time>
      </trkpt>
      <trkpt lat="59.8796416" lon="17.616388">
        <ele>21.2864</ele>
        <time>2014-05-29T10:32:42Z</time>
      </trkpt>
      <trkpt lat="59.8796368" lon="17.6163552">
        <ele>21.2864</ele>
        <time>2014-05-29T10:32:43Z</time>
      </trkpt>
      <trkpt lat="59.879632" lon="17.616313">
        <ele>21.2864</ele>
        <time>2014-05-29T10:32:44Z</time>
      </trkpt>
      <trkpt lat="59.8796252" lon="17.6162639">
        <ele>21.2864</ele>
        <time>2014-05-29T10:32:45Z</time>
      </trkpt>
      <trkpt lat="59.8796165" lon="17.6162087">
        <ele>21.2864</ele>
        <time>2014-05-29T10:32:46Z</time>
      </trkpt>
      <trkpt lat="59.879605" lon="17.6161476">
        <ele>21.2864</ele>
        <time>2014-05-29T10:32:47Z</time>
      </trkpt>
      <trkpt lat="59.8795952" lon="17.6160773">
        <ele>21.2864</ele>
        <time>2014-05-29T10:32:48Z</time>
      </trkpt>
      <trkpt lat="59.8795855" lon="17.6159964">
        <ele>21.2864</ele>
        <time>2014-05-29T10:32:49Z</time>
      </trkpt>
      <trkpt lat="59.8795683" lon="17.6159177">
        <ele>21.2864</ele>
        <time>2014-05-29T10:32:50Z</time>
      </trkpt>
      <trkpt lat="59.8795437" lon="17.6158369">
        <ele>21.2864</ele>
        <time>2014-05-29T10:32:51Z</time>
      </trkpt>
      <trkpt lat="59.8795212" lon="17.6157497">
        <ele>20.8057</ele>
        <time>2014-05-29T10:32:52Z</time>
      </trkpt>
      <trkpt lat="59.8795009" lon="17.6156618">
        <ele>20.8057</ele>
        <time>2014-05-29T10:32:53Z</time>
      </trkpt>
      <trkpt lat="59.879476" lon="17.6155853">
        <ele>20.8057</ele>
        <time>2014-05-29T10:32:54Z</time>
      </trkpt>
      <trkpt lat="59.8794529" lon="17.6155049">
        <ele>20.8057</ele>
        <time>2014-05-29T10:32:55Z</time>
      </trkpt>
      <trkpt lat="59.8794319" lon="17.6154159">
        <ele>20.8057</ele>
        <time>2014-05-29T10:32:56Z</time>
      </trkpt>
      <trkpt lat="59.8794127" lon="17.6153249">
        <ele>20.8057</ele>
        <time>2014-05-29T10:32:57Z</time>
      </trkpt>
      <trkpt lat="59.879393" lon="17.6152342">
        <ele>20.8057</ele>
        <time>2014-05-29T10:32:58Z</time>
      </trkpt>
      <trkpt lat="59.8793725" lon="17.6151428">
        <ele>20.325</ele>
        <time>2014-05-29T10:32:59Z</time>
      </trkpt>
      <trkpt lat="59.8793502" lon="17.6150514">
        <ele>20.325</ele>
        <time>2014-05-29T10:33:00Z</time>
      </trkpt>
      <trkpt lat="59.8793278" lon="17.6149611">
        <ele>19.8444</ele>
        <time>2014-05-29T10:33:01Z</time>
      </trkpt>
      <trkpt lat="59.8793049" lon="17.6148685">
        <ele>19.8444</ele>
        <time>2014-05-29T10:33:02Z</time>
      </trkpt>
      <trkpt lat="59.8792803" lon="17.6147738">
        <ele>19.3638</ele>
        <time>2014-05-29T10:33:03Z</time>
      </trkpt>
      <trkpt lat="59.8792554" lon="17.6146807">
        <ele>18.8831</ele>
        <time>2014-05-29T10:33:04Z</time>
      </trkpt>
      <trkpt lat="59.8792317" lon="17.6145875">
        <ele>18.4023</ele>
        <time>2014-05-29T10:33:05Z</time>
      </trkpt>
      <trkpt lat="59.879207" lon="17.6144922">
        <ele>18.4023</ele>
        <time>2014-05-29T10:33:06Z</time>
      </trkpt>
      <trkpt lat="59.879185" lon="17.6143883">
        <ele>18.4023</ele>
        <time>2014-05-29T10:33:07Z</time>
      </trkpt>
      <trkpt lat="59.879163" lon="17.6142798">
        <ele>18.4023</ele>
        <time>2014-05-29T10:33:08Z</time>
      </trkpt>
      <trkpt lat="59.8791383" lon="17.6141701">
        <ele>18.4023</ele>
        <time>2014-05-29T10:33:09Z</time>
      </trkpt>
      <trkpt lat="59.8791123" lon="17.6140601">
        <ele>18.8831</ele>
        <time>2014-05-29T10:33:10Z</time>
      </trkpt>
      <trkpt lat="59.8790851" lon="17.6139498">
        <ele>18.8831</ele>
        <time>2014-05-29T10:33:11Z</time>
      </trkpt>
      <trkpt lat="59.8790574" lon="17.6138367">
        <ele>18.8831</ele>
        <time>2014-05-29T10:33:12Z</time>
      </trkpt>
      <trkpt lat="59.8790304" lon="17.6137229">
        <ele>18.8831</ele>
        <time>2014-05-29T10:33:13Z</time>
      </trkpt>
      <trkpt lat="59.879001" lon="17.6136114">
        <ele>19.3638</ele>
        <time>2014-05-29T10:33:14Z</time>
      </trkpt>
      <trkpt lat="59.87897" lon="17.6135002">
        <ele>19.3638</ele>
        <time>2014-05-29T10:33:15Z</time>
      </trkpt>
      <trkpt lat="59.8789393" lon="17.6133891">
        <ele>19.3638</ele>
        <time>2014-05-29T10:33:16Z</time>
      </trkpt>
      <trkpt lat="59.8789063" lon="17.6132801">
        <ele>19.3638</ele>
        <time>2014-05-29T10:33:17Z</time>
      </trkpt>
      <trkpt lat="59.8788726" lon="17.6131712">
        <ele>19.3638</ele>
        <time>2014-05-29T10:33:18Z</time>
      </trkpt>
      <trkpt lat="59.8788399" lon="17.6130614">
        <ele>19.3638</ele>
        <time>2014-05-29T10:33:19Z</time>
      </trkpt>
      <trkpt lat="59.8788073" lon="17.6129516">
        <ele>19.3638</ele>
        <time>2014-05-29T10:33:20Z</time>
      </trkpt>
      <trkpt lat="59.8787742" lon="17.6128422">
        <ele>19.3638</ele>
        <time>2014-05-29T10:33:21Z</time>
      </trkpt>
      <trkpt lat="59.8787413" lon="17.6127324">
        <ele>19.3638</ele>
        <time>2014-05-29T10:33:22Z</time>
      </trkpt>
      <trkpt lat="59.8787094" lon="17.6126199">
        <ele>19.8444</ele>
        <time>2014-05-29T10:33:23Z</time>
      </trkpt>
      <trkpt lat="59.8786772" lon="17.6125082">
        <ele>19.8444</ele>
        <time>2014-05-29T10:33:24Z</time>
      </trkpt>
      <trkpt lat="59.8786443" lon="17.6123979">
        <ele>19.8444</ele>
        <time>2014-05-29T10:33:25Z</time>
      </trkpt>
      <trkpt lat="59.8786108" lon="17.612274">
        <ele>20.325</ele>
        <time>2014-05-29T10:33:26Z</time>
      </trkpt>
      <trkpt lat="59.8785789" lon="17.6121599">
        <ele>20.325</ele>
        <time>2014-05-29T10:33:27Z</time>
      </trkpt>
      <trkpt lat="59.8785467" lon="17.612053">
        <ele>20.325</ele>
        <time>2014-05-29T10:33:28Z</time>
      </trkpt>
      <trkpt lat="59.8785178" lon="17.611946">
        <ele>20.8057</ele>
        <time>2014-05-29T10:33:29Z</time>
      </trkpt>
      <trkpt lat="59.8784872" lon="17.6118423">
        <ele>20.8057</ele>
        <time>2014-05-29T10:33:30Z</time>
      </trkpt>
      <trkpt lat="59.8784545" lon="17.611741">
        <ele>20.8057</ele>
        <time>2014-05-29T10:33:31Z</time>
      </trkpt>
      <trkpt lat="59.878422" lon="17.61164">
        <ele>20.8057</ele>
        <time>2014-05-29T10:33:32Z</time>
      </trkpt>
      <trkpt lat="59.8783879" lon="17.6115448">
        <ele>20.8057</ele>
        <time>2014-05-29T10:33:33Z</time>
      </trkpt>
      <trkpt lat="59.8783494" lon="17.6114576">
        <ele>20.8057</ele>
        <time>2014-05-29T10:33:34Z</time>
      </trkpt>
      <trkpt lat="59.8783057" lon="17.6113825">
        <ele>20.8057</ele>
        <time>2014-05-29T10:33:35Z</time>
      </trkpt>
      <trkpt lat="59.8782551" lon="17.6113194">
        <ele>21.2864</ele>
        <time>2014-05-29T10:33:36Z</time>
      </trkpt>
      <trkpt lat="59.8782022" lon="17.6112629">
        <ele>21.2864</ele>
        <time>2014-05-29T10:33:37Z</time>
      </trkpt>
      <trkpt lat="59.8781491" lon="17.6111996">
        <ele>21.2864</ele>
        <time>2014-05-29T10:33:38Z</time>
      </trkpt>
      <trkpt lat="59.8781" lon="17.6111216">
        <ele>21.2864</ele>
        <time>2014-05-29T10:33:39Z</time>
      </trkpt>
      <trkpt lat="59.8780557" lon="17.6110355">
        <ele>21.2864</ele>
        <time>2014-05-29T10:33:40Z</time>
      </trkpt>
      <trkpt lat="59.878013" lon="17.6109474">
        <ele>21.2864</ele>
        <time>2014-05-29T10:33:41Z</time>
      </trkpt>
      <trkpt lat="59.8779747" lon="17.610852">
        <ele>21.2864</ele>
        <time>2014-05-29T10:33:42Z</time>
      </trkpt>
      <trkpt lat="59.877942" lon="17.6107533">
        <ele>20.8057</ele>
        <time>2014-05-29T10:33:43Z</time>
      </trkpt>
      <trkpt lat="59.8779112" lon="17.6106398">
        <ele>20.8057</ele>
        <time>2014-05-29T10:33:44Z</time>
      </trkpt>
      <trkpt lat="59.8778809" lon="17.6105206">
        <ele>20.325</ele>
        <time>2014-05-29T10:33:45Z</time>
      </trkpt>
      <trkpt lat="59.8778449" lon="17.6104012">
        <ele>19.8444</ele>
        <time>2014-05-29T10:33:46Z</time>
      </trkpt>
      <trkpt lat="59.8778107" lon="17.610273">
        <ele>19.3638</ele>
        <time>2014-05-29T10:33:47Z</time>
      </trkpt>
      <trkpt lat="59.8777733" lon="17.61015">
        <ele>18.8831</ele>
        <time>2014-05-29T10:33:48Z</time>
      </trkpt>
      <trkpt lat="59.8777352" lon="17.6100251">
        <ele>18.4023</ele>
        <time>2014-05-29T10:33:49Z</time>
      </trkpt>
      <trkpt lat="59.8776978" lon="17.6098983">
        <ele>17.9218</ele>
        <time>2014-05-29T10:33:50Z</time>
      </trkpt>
      <trkpt lat="59.8776575" lon="17.6097694">
        <ele>17.4412</ele>
        <time>2014-05-29T10:33:51Z</time>
      </trkpt>
      <trkpt lat="59.8776194" lon="17.6096328">
        <ele>16.9604</ele>
        <time>2014-05-29T10:33:52Z</time>
      </trkpt>
      <trkpt lat="59.8775842" lon="17.6094855">
        <ele>16.4797</ele>
        <time>2014-05-29T10:33:53Z</time>
      </trkpt>
      <trkpt lat="59.8775429" lon="17.6093457">
        <ele>15.999</ele>
        <time>2014-05-29T10:33:54Z</time>
      </trkpt>
      <trkpt lat="59.8774983" lon="17.6092027">
        <ele>15.999</ele>
        <time>2014-05-29T10:33:55Z</time>
      </trkpt>
      <trkpt lat="59.8774553" lon="17.6090637">
        <ele>15.999</ele>
        <time>2014-05-29T10:33:56Z</time>
      </trkpt>
      <trkpt lat="59.8774129" lon="17.6089276">
        <ele>15.5184</ele>
        <time>2014-05-29T10:33:57Z</time>
      </trkpt>
      <trkpt lat="59.8773714" lon="17.6087916">
        <ele>15.5184</ele>
        <time>2014-05-29T10:33:58Z</time>
      </trkpt>
      <trkpt lat="59.8773298" lon="17.6086551">
        <ele>15.5184</ele>
        <time>2014-05-29T10:33:59Z</time>
      </trkpt>
      <trkpt lat="59.8772888" lon="17.6085221">
        <ele>15.5184</ele>
        <time>2014-05-29T10:34:00Z</time>
      </trkpt>
      <trkpt lat="59.877248" lon="17.6083869">
        <ele>15.5184</ele>
        <time>2014-05-29T10:34:01Z</time>
      </trkpt>
      <trkpt lat="59.8772077" lon="17.6082528">
        <ele>15.5184</ele>
        <time>2014-05-29T10:34:02Z</time>
      </trkpt>
      <trkpt lat="59.8771672" lon="17.6081244">
        <ele>15.0377</ele>
        <time>2014-05-29T10:34:03Z</time>
      </trkpt>
      <trkpt lat="59.8771249" lon="17.6079941">
        <ele>15.0377</ele>
        <time>2014-05-29T10:34:04Z</time>
      </trkpt>
      <trkpt lat="59.8770827" lon="17.6078612">
        <ele>14.557</ele>
        <time>2014-05-29T10:34:05Z</time>
      </trkpt>
      <trkpt lat="59.8770404" lon="17.6077263">
        <ele>14.557</ele>
        <time>2014-05-29T10:34:06Z</time>
      </trkpt>
      <trkpt lat="59.8769983" lon="17.6075903">
        <ele>14.0764</ele>
        <time>2014-05-29T10:34:07Z</time>
      </trkpt>
      <trkpt lat="59.876956" lon="17.6074535">
        <ele>14.0764</ele>
        <time>2014-05-29T10:34:08Z</time>
      </trkpt>
      <trkpt lat="59.8769125" lon="17.6073175">
        <ele>14.0764</ele>
        <time>2014-05-29T10:34:09Z</time>
      </trkpt>
      <trkpt lat="59.8768669" lon="17.6071805">
        <ele>14.0764</ele>
        <time>2014-05-29T10:34:10Z</time>
      </trkpt>
      <trkpt lat="59.8768227" lon="17.6070386">
        <ele>14.0764</ele>
        <time>2014-05-29T10:34:11Z</time>
      </trkpt>
      <trkpt lat="59.876782" lon="17.6068934">
        <ele>14.0764</ele>
        <time>2014-05-29T10:34:12Z</time>
      </trkpt>
      <trkpt lat="59.8767408" lon="17.6067505">
        <ele>14.0764</ele>
        <time>2014-05-29T10:34:13Z</time>
      </trkpt>
      <trkpt lat="59.8766975" lon="17.6066106">
        <ele>13.5958</ele>
        <time>2014-05-29T10:34:14Z</time>
      </trkpt>
      <trkpt lat="59.876655" lon="17.6064633">
        <ele>13.5958</ele>
        <time>2014-05-29T10:34:15Z</time>
      </trkpt>
      <trkpt lat="59.8766106" lon="17.6063226">
        <ele>13.5958</ele>
        <time>2014-05-29T10:34:16Z</time>
      </trkpt>
      <trkpt lat="59.8765664" lon="17.6061877">
        <ele>13.5958</ele>
        <time>2014-05-29T10:34:17Z</time>
      </trkpt>
      <trkpt lat="59.8765217" lon="17.6060574">
        <ele>14.0764</ele>
        <time>2014-05-29T10:34:18Z</time>
      </trkpt>
      <trkpt lat="59.8764727" lon="17.6059459">
        <ele>14.0764</ele>
        <time>2014-05-29T10:34:19Z</time>
      </trkpt>
      <trkpt lat="59.8764287" lon="17.6058396">
        <ele>14.0764</ele>
        <time>2014-05-29T10:34:20Z</time>
      </trkpt>
      <trkpt lat="59.8763862" lon="17.6057373">
        <ele>14.0764</ele>
        <time>2014-05-29T10:34:21Z</time>
      </trkpt>
      <trkpt lat="59.8763389" lon="17.6056418">
        <ele>14.0764</ele>
        <time>2014-05-29T10:34:22Z</time>
      </trkpt>
      <trkpt lat="59.8762937" lon="17.6055457">
        <ele>13.5958</ele>
        <time>2014-05-29T10:34:23Z</time>
      </trkpt>
      <trkpt lat="59.8762515" lon="17.60546">
        <ele>13.5958</ele>
        <time>2014-05-29T10:34:24Z</time>
      </trkpt>
      <trkpt lat="59.8762155" lon="17.6053942">
        <ele>13.5958</ele>
        <time>2014-05-29T10:34:25Z</time>
      </trkpt>
      <trkpt lat="59.8761757" lon="17.6054108">
        <ele>13.1151</ele>
        <time>2014-05-29T10:34:26Z</time>
      </trkpt>
      <trkpt lat="59.8761479" lon="17.6054535">
        <ele>13.1151</ele>
        <time>2014-05-29T10:34:27Z</time>
      </trkpt>
      <trkpt lat="59.8761193" lon="17.6055102">
        <ele>12.6344</ele>
        <time>2014-05-29T10:34:28Z</time>
      </trkpt>
      <trkpt lat="59.8760943" lon="17.6055726">
        <ele>12.6344</ele>
        <time>2014-05-29T10:34:29Z</time>
      </trkpt>
      <trkpt lat="59.8760639" lon="17.605644">
        <ele>11.6732</ele>
        <time>2014-05-29T10:34:30Z</time>
      </trkpt>
      <trkpt lat="59.8760277" lon="17.6057104">
        <ele>11.1925</ele>
        <time>2014-05-29T10:34:31Z</time>
      </trkpt>
      <trkpt lat="59.8759791" lon="17.6057707">
        <ele>11.6732</ele>
        <time>2014-05-29T10:34:32Z</time>
      </trkpt>
      <trkpt lat="59.8759312" lon="17.6058356">
        <ele>11.1925</ele>
        <time>2014-05-29T10:34:33Z</time>
      </trkpt>
      <trkpt lat="59.8758838" lon="17.6059036">
        <ele>10.7118</ele>
        <time>2014-05-29T10:34:34Z</time>
      </trkpt>
      <trkpt lat="59.8758369" lon="17.6059795">
        <ele>10.2312</ele>
        <time>2014-05-29T10:34:35Z</time>
      </trkpt>
      <trkpt lat="59.8757889" lon="17.60606">
        <ele>10.2312</ele>
        <time>2014-05-29T10:34:36Z</time>
      </trkpt>
      <trkpt lat="59.8757451" lon="17.606145">
        <ele>9.75061</ele>
        <time>2014-05-29T10:34:37Z</time>
      </trkpt>
      <trkpt lat="59.8757013" lon="17.6062299">
        <ele>9.2699</ele>
        <time>2014-05-29T10:34:38Z</time>
      </trkpt>
      <trkpt lat="59.8755972" lon="17.606394">
        <ele>9.75061</ele>
        <time>2014-05-29T10:34:41Z</time>
      </trkpt>
      <trkpt lat="59.8755468" lon="17.6064822">
        <ele>8.78918</ele>
        <time>2014-05-29T10:34:42Z</time>
      </trkpt>
      <trkpt lat="59.8755045" lon="17.6065862">
        <ele>7.82788</ele>
        <time>2014-05-29T10:34:43Z</time>
      </trkpt>
      <trkpt lat="59.8754559" lon="17.6066878">
        <ele>7.34717</ele>
        <time>2014-05-29T10:34:44Z</time>
      </trkpt>
      <trkpt lat="59.8754138" lon="17.60679">
        <ele>7.34717</ele>
        <time>2014-05-29T10:34:45Z</time>
      </trkpt>
      <trkpt lat="59.8753818" lon="17.6068919">
        <ele>7.82788</ele>
        <time>2014-05-29T10:34:46Z</time>
      </trkpt>
      <trkpt lat="59.8753568" lon="17.6069964">
        <ele>7.82788</ele>
        <time>2014-05-29T10:34:47Z</time>
      </trkpt>
      <trkpt lat="59.8753337" lon="17.607097">
        <ele>8.30859</ele>
        <time>2014-05-29T10:34:48Z</time>
      </trkpt>
      <trkpt lat="59.8753067" lon="17.6071922">
        <ele>8.78918</ele>
        <time>2014-05-29T10:34:49Z</time>
      </trkpt>
      <trkpt lat="59.8752743" lon="17.6072804">
        <ele>9.2699</ele>
        <time>2014-05-29T10:34:50Z</time>
      </trkpt>
      <trkpt lat="59.8752356" lon="17.6073626">
        <ele>9.2699</ele>
        <time>2014-05-29T10:34:51Z</time>
      </trkpt>
      <trkpt lat="59.8751925" lon="17.60744">
        <ele>9.2699</ele>
        <time>2014-05-29T10:34:52Z</time>
      </trkpt>
      <trkpt lat="59.8751464" lon="17.6075151">
        <ele>9.2699</ele>
        <time>2014-05-29T10:34:53Z</time>
      </trkpt>
      <trkpt lat="59.8750982" lon="17.6075901">
        <ele>9.2699</ele>
        <time>2014-05-29T10:34:54Z</time>
      </trkpt>
      <trkpt lat="59.875046" lon="17.607659">
        <ele>9.2699</ele>
        <time>2014-05-29T10:34:55Z</time>
      </trkpt>
      <trkpt lat="59.8749869" lon="17.6077233">
        <ele>9.2699</ele>
        <time>2014-05-29T10:34:56Z</time>
      </trkpt>
      <trkpt lat="59.8749347" lon="17.607785">
        <ele>9.2699</ele>
        <time>2014-05-29T10:34:57Z</time>
      </trkpt>
      <trkpt lat="59.8748799" lon="17.6078239">
        <ele>9.2699</ele>
        <time>2014-05-29T10:34:58Z</time>
      </trkpt>
      <trkpt lat="59.8748259" lon="17.6078637">
        <ele>8.78918</ele>
        <time>2014-05-29T10:34:59Z</time>
      </trkpt>
      <trkpt lat="59.8747661" lon="17.607903">
        <ele>9.2699</ele>
        <time>2014-05-29T10:35:00Z</time>
      </trkpt>
      <trkpt lat="59.8747095" lon="17.6079362">
        <ele>9.75061</ele>
        <time>2014-05-29T10:35:01Z</time>
      </trkpt>
      <trkpt lat="59.8746607" lon="17.6079663">
        <ele>9.75061</ele>
        <time>2014-05-29T10:35:02Z</time>
      </trkpt>
      <trkpt lat="59.8746107" lon="17.6079824">
        <ele>9.2699</ele>
        <time>2014-05-29T10:35:03Z</time>
      </trkpt>
      <trkpt lat="59.874555" lon="17.6080014">
        <ele>9.2699</ele>
        <time>2014-05-29T10:35:04Z</time>
      </trkpt>
      <trkpt lat="59.8744983" lon="17.6080272">
        <ele>9.75061</ele>
        <time>2014-05-29T10:35:05Z</time>
      </trkpt>
      <trkpt lat="59.8744417" lon="17.6080554">
        <ele>9.75061</ele>
        <time>2014-05-29T10:35:06Z</time>
      </trkpt>
      <trkpt lat="59.8743823" lon="17.6080879">
        <ele>9.2699</ele>
        <time>2014-05-29T10:35:07Z</time>
      </trkpt>
      <trkpt lat="59.8743249" lon="17.6081184">
        <ele>9.75061</ele>
        <time>2014-05-29T10:35:08Z</time>
      </trkpt>
      <trkpt lat="59.8742689" lon="17.6081471">
        <ele>9.75061</ele>
        <time>2014-05-29T10:35:09Z</time>
      </trkpt>
      <trkpt lat="59.8742135" lon="17.6081784">
        <ele>10.2312</ele>
        <time>2014-05-29T10:35:10Z</time>
      </trkpt>
      <trkpt lat="59.874158" lon="17.6082098">
        <ele>10.2312</ele>
        <time>2014-05-29T10:35:11Z</time>
      </trkpt>
      <trkpt lat="59.8741015" lon="17.6082403">
        <ele>10.7118</ele>
        <time>2014-05-29T10:35:12Z</time>
      </trkpt>
      <trkpt lat="59.8740449" lon="17.6082676">
        <ele>10.7118</ele>
        <time>2014-05-29T10:35:13Z</time>
      </trkpt>
      <trkpt lat="59.8739858" lon="17.608289">
        <ele>10.7118</ele>
        <time>2014-05-29T10:35:14Z</time>
      </trkpt>
      <trkpt lat="59.8739267" lon="17.60831">
        <ele>10.7118</ele>
        <time>2014-05-29T10:35:15Z</time>
      </trkpt>
      <trkpt lat="59.8738707" lon="17.6083487">
        <ele>10.7118</ele>
        <time>2014-05-29T10:35:16Z</time>
      </trkpt>
      <trkpt lat="59.8738175" lon="17.6084076">
        <ele>10.7118</ele>
        <time>2014-05-29T10:35:17Z</time>
      </trkpt>
      <trkpt lat="59.873763" lon="17.6084737">
        <ele>10.7118</ele>
        <time>2014-05-29T10:35:18Z</time>
      </trkpt>
      <trkpt lat="59.8737081" lon="17.6085418">
        <ele>11.1925</ele>
        <time>2014-05-29T10:35:19Z</time>
      </trkpt>
      <trkpt lat="59.8736555" lon="17.6086139">
        <ele>11.1925</ele>
        <time>2014-05-29T10:35:20Z</time>
      </trkpt>
      <trkpt lat="59.8736003" lon="17.6086786">
        <ele>11.1925</ele>
        <time>2014-05-29T10:35:21Z</time>
      </trkpt>
      <trkpt lat="59.8735419" lon="17.608733">
        <ele>11.1925</ele>
        <time>2014-05-29T10:35:22Z</time>
      </trkpt>
      <trkpt lat="59.8734847" lon="17.6087878">
        <ele>11.6732</ele>
        <time>2014-05-29T10:35:23Z</time>
      </trkpt>
      <trkpt lat="59.8734294" lon="17.608841">
        <ele>11.6732</ele>
        <time>2014-05-29T10:35:24Z</time>
      </trkpt>
      <trkpt lat="59.8733766" lon="17.608893">
        <ele>11.6732</ele>
        <time>2014-05-29T10:35:25Z</time>
      </trkpt>
      <trkpt lat="59.8733269" lon="17.6089427">
        <ele>11.6732</ele>
        <time>2014-05-29T10:35:26Z</time>
      </trkpt>
      <trkpt lat="59.8732776" lon="17.6089867">
        <ele>11.1925</ele>
        <time>2014-05-29T10:35:27Z</time>
      </trkpt>
      <trkpt lat="59.873224" lon="17.6090309">
        <ele>10.7118</ele>
        <time>2014-05-29T10:35:28Z</time>
      </trkpt>
      <trkpt lat="59.873176" lon="17.6090738">
        <ele>9.75061</ele>
        <time>2014-05-29T10:35:29Z</time>
      </trkpt>
      <trkpt lat="59.8731235" lon="17.60911">
        <ele>9.2699</ele>
        <time>2014-05-29T10:35:30Z</time>
      </trkpt>
      <trkpt lat="59.8730694" lon="17.6091561">
        <ele>8.78918</ele>
        <time>2014-05-29T10:35:31Z</time>
      </trkpt>
      <trkpt lat="59.8730155" lon="17.6092065">
        <ele>8.78918</ele>
        <time>2014-05-29T10:35:32Z</time>
      </trkpt>
      <trkpt lat="59.8729652" lon="17.609267">
        <ele>8.30859</ele>
        <time>2014-05-29T10:35:33Z</time>
      </trkpt>
      <trkpt lat="59.8729227" lon="17.6093478">
        <ele>8.30859</ele>
        <time>2014-05-29T10:35:34Z</time>
      </trkpt>
      <trkpt lat="59.8728853" lon="17.6094716">
        <ele>8.30859</ele>
        <time>2014-05-29T10:35:35Z</time>
      </trkpt>
      <trkpt lat="59.8728647" lon="17.6095866">
        <ele>8.30859</ele>
        <time>2014-05-29T10:35:36Z</time>
      </trkpt>
      <trkpt lat="59.8728409" lon="17.6096986">
        <ele>8.30859</ele>
        <time>2014-05-29T10:35:37Z</time>
      </trkpt>
      <trkpt lat="59.8728039" lon="17.6097948">
        <ele>8.30859</ele>
        <time>2014-05-29T10:35:38Z</time>
      </trkpt>
      <trkpt lat="59.8727611" lon="17.6098856">
        <ele>7.82788</ele>
        <time>2014-05-29T10:35:39Z</time>
      </trkpt>
      <trkpt lat="59.8727145" lon="17.6099755">
        <ele>7.82788</ele>
        <time>2014-05-29T10:35:40Z</time>
      </trkpt>
      <trkpt lat="59.8726659" lon="17.6100688">
        <ele>7.82788</ele>
        <time>2014-05-29T10:35:41Z</time>
      </trkpt>
      <trkpt lat="59.8726177" lon="17.6101676">
        <ele>7.82788</ele>
        <time>2014-05-29T10:35:42Z</time>
      </trkpt>
      <trkpt lat="59.8725654" lon="17.6102608">
        <ele>7.34717</ele>
        <time>2014-05-29T10:35:43Z</time>
      </trkpt>
      <trkpt lat="59.8725131" lon="17.6103559">
        <ele>7.34717</ele>
        <time>2014-05-29T10:35:44Z</time>
      </trkpt>
      <trkpt lat="59.8724606" lon="17.6104495">
        <ele>7.34717</ele>
        <time>2014-05-29T10:35:45Z</time>
      </trkpt>
      <trkpt lat="59.8724085" lon="17.6105392">
        <ele>6.86646</ele>
        <time>2014-05-29T10:35:46Z</time>
      </trkpt>
      <trkpt lat="59.8723597" lon="17.6106297">
        <ele>6.86646</ele>
        <time>2014-05-29T10:35:47Z</time>
      </trkpt>
      <trkpt lat="59.8723116" lon="17.6107162">
        <ele>6.86646</ele>
        <time>2014-05-29T10:35:48Z</time>
      </trkpt>
      <trkpt lat="59.8722644" lon="17.6107982">
        <ele>6.86646</ele>
        <time>2014-05-29T10:35:49Z</time>
      </trkpt>
      <trkpt lat="59.8722165" lon="17.6108812">
        <ele>7.34717</ele>
        <time>2014-05-29T10:35:50Z</time>
      </trkpt>
      <trkpt lat="59.8721716" lon="17.6109571">
        <ele>7.34717</ele>
        <time>2014-05-29T10:35:51Z</time>
      </trkpt>
      <trkpt lat="59.8721256" lon="17.6110298">
        <ele>7.34717</ele>
        <time>2014-05-29T10:35:52Z</time>
      </trkpt>
      <trkpt lat="59.8720803" lon="17.6111057">
        <ele>7.34717</ele>
        <time>2014-05-29T10:35:53Z</time>
      </trkpt>
      <trkpt lat="59.8720345" lon="17.6111826">
        <ele>7.34717</ele>
        <time>2014-05-29T10:35:54Z</time>
      </trkpt>
      <trkpt lat="59.8719862" lon="17.6112603">
        <ele>7.34717</ele>
        <time>2014-05-29T10:35:55Z</time>
      </trkpt>
      <trkpt lat="59.8719375" lon="17.6113395">
        <ele>7.34717</ele>
        <time>2014-05-29T10:35:56Z</time>
      </trkpt>
      <trkpt lat="59.8718878" lon="17.6114207">
        <ele>7.34717</ele>
        <time>2014-05-29T10:35:57Z</time>
      </trkpt>
      <trkpt lat="59.871838" lon="17.6115038">
        <ele>7.34717</ele>
        <time>2014-05-29T10:35:58Z</time>
      </trkpt>
      <trkpt lat="59.87179" lon="17.6115928">
        <ele>7.82788</ele>
        <time>2014-05-29T10:35:59Z</time>
      </trkpt>
      <trkpt lat="59.8717425" lon="17.611684">
        <ele>7.82788</ele>
        <time>2014-05-29T10:36:00Z</time>
      </trkpt>
      <trkpt lat="59.8716944" lon="17.6117748">
        <ele>7.82788</ele>
        <time>2014-05-29T10:36:01Z</time>
      </trkpt>
      <trkpt lat="59.871647" lon="17.6118674">
        <ele>7.82788</ele>
        <time>2014-05-29T10:36:02Z</time>
      </trkpt>
      <trkpt lat="59.8715982" lon="17.6119622">
        <ele>8.78918</ele>
        <time>2014-05-29T10:36:03Z</time>
      </trkpt>
      <trkpt lat="59.8715495" lon="17.6120553">
        <ele>9.2699</ele>
        <time>2014-05-29T10:36:04Z</time>
      </trkpt>
      <trkpt lat="59.8715008" lon="17.6121376">
        <ele>9.2699</ele>
        <time>2014-05-29T10:36:05Z</time>
      </trkpt>
      <trkpt lat="59.8714608" lon="17.6122285">
        <ele>9.75061</ele>
        <time>2014-05-29T10:36:06Z</time>
      </trkpt>
      <trkpt lat="59.8714236" lon="17.6123197">
        <ele>9.75061</ele>
        <time>2014-05-29T10:36:07Z</time>
      </trkpt>
      <trkpt lat="59.8713802" lon="17.6124096">
        <ele>10.2312</ele>
        <time>2014-05-29T10:36:08Z</time>
      </trkpt>
      <trkpt lat="59.8713396" lon="17.6124921">
        <ele>10.2312</ele>
        <time>2014-05-29T10:36:09Z</time>
      </trkpt>
      <trkpt lat="59.8713004" lon="17.6125776">
        <ele>10.7118</ele>
        <time>2014-05-29T10:36:10Z</time>
      </trkpt>
      <trkpt lat="59.8712636" lon="17.6126626">
        <ele>11.1925</ele>
        <time>2014-05-29T10:36:11Z</time>
      </trkpt>
      <trkpt lat="59.8712292" lon="17.612747">
        <ele>11.6732</ele>
        <time>2014-05-29T10:36:12Z</time>
      </trkpt>
      <trkpt lat="59.8711988" lon="17.6128336">
        <ele>11.1925</ele>
        <time>2014-05-29T10:36:13Z</time>
      </trkpt>
      <trkpt lat="59.8711687" lon="17.6129214">
        <ele>11.1925</ele>
        <time>2014-05-29T10:36:14Z</time>
      </trkpt>
      <trkpt lat="59.8711386" lon="17.6130128">
        <ele>11.1925</ele>
        <time>2014-05-29T10:36:15Z</time>
      </trkpt>
      <trkpt lat="59.8711095" lon="17.6131078">
        <ele>11.1925</ele>
        <time>2014-05-29T10:36:16Z</time>
      </trkpt>
      <trkpt lat="59.8710829" lon="17.6132057">
        <ele>11.1925</ele>
        <time>2014-05-29T10:36:17Z</time>
      </trkpt>
      <trkpt lat="59.87106" lon="17.6133071">
        <ele>10.7118</ele>
        <time>2014-05-29T10:36:18Z</time>
      </trkpt>
      <trkpt lat="59.8710376" lon="17.6134122">
        <ele>10.2312</ele>
        <time>2014-05-29T10:36:19Z</time>
      </trkpt>
      <trkpt lat="59.871018" lon="17.6135253">
        <ele>9.75061</ele>
        <time>2014-05-29T10:36:20Z</time>
      </trkpt>
      <trkpt lat="59.8709982" lon="17.6136391">
        <ele>9.75061</ele>
        <time>2014-05-29T10:36:21Z</time>
      </trkpt>
      <trkpt lat="59.8709795" lon="17.613755">
        <ele>10.2312</ele>
        <time>2014-05-29T10:36:22Z</time>
      </trkpt>
      <trkpt lat="59.870958" lon="17.6138716">
        <ele>10.7118</ele>
        <time>2014-05-29T10:36:23Z</time>
      </trkpt>
      <trkpt lat="59.8709367" lon="17.613997">
        <ele>11.1925</ele>
        <time>2014-05-29T10:36:24Z</time>
      </trkpt>
      <trkpt lat="59.8709149" lon="17.6141212">
        <ele>12.1538</ele>
        <time>2014-05-29T10:36:25Z</time>
      </trkpt>
      <trkpt lat="59.8708896" lon="17.6142423">
        <ele>12.6344</ele>
        <time>2014-05-29T10:36:26Z</time>
      </trkpt>
      <trkpt lat="59.8708605" lon="17.6143607">
        <ele>13.1151</ele>
        <time>2014-05-29T10:36:27Z</time>
      </trkpt>
      <trkpt lat="59.8708258" lon="17.6144802">
        <ele>13.5958</ele>
        <time>2014-05-29T10:36:28Z</time>
      </trkpt>
      <trkpt lat="59.870791" lon="17.6145963">
        <ele>13.1151</ele>
        <time>2014-05-29T10:36:29Z</time>
      </trkpt>
      <trkpt lat="59.8707564" lon="17.614714">
        <ele>13.5958</ele>
        <time>2014-05-29T10:36:30Z</time>
      </trkpt>
      <trkpt lat="59.8707218" lon="17.6148328">
        <ele>13.5958</ele>
        <time>2014-05-29T10:36:31Z</time>
      </trkpt>
      <trkpt lat="59.8706854" lon="17.6149501">
        <ele>13.1151</ele>
        <time>2014-05-29T10:36:32Z</time>
      </trkpt>
      <trkpt lat="59.8706487" lon="17.6150666">
        <ele>13.1151</ele>
        <time>2014-05-29T10:36:33Z</time>
      </trkpt>
      <trkpt lat="59.8706132" lon="17.6151842">
        <ele>13.1151</ele>
        <time>2014-05-29T10:36:34Z</time>
      </trkpt>
      <trkpt lat="59.8705798" lon="17.6153039">
        <ele>12.6344</ele>
        <time>2014-05-29T10:36:35Z</time>
      </trkpt>
      <trkpt lat="59.87055" lon="17.6154282">
        <ele>12.1538</ele>
        <time>2014-05-29T10:36:36Z</time>
      </trkpt>
      <trkpt lat="59.8705232" lon="17.6155535">
        <ele>12.1538</ele>
        <time>2014-05-29T10:36:37Z</time>
      </trkpt>
      <trkpt lat="59.8704964" lon="17.6156767">
        <ele>11.6732</ele>
        <time>2014-05-29T10:36:38Z</time>
      </trkpt>
      <trkpt lat="59.87047" lon="17.6157971">
        <ele>11.1925</ele>
        <time>2014-05-29T10:36:39Z</time>
      </trkpt>
      <trkpt lat="59.8704454" lon="17.6159177">
        <ele>10.7118</ele>
        <time>2014-05-29T10:36:40Z</time>
      </trkpt>
      <trkpt lat="59.8704206" lon="17.6160369">
        <ele>10.7118</ele>
        <time>2014-05-29T10:36:41Z</time>
      </trkpt>
      <trkpt lat="59.8703941" lon="17.6161519">
        <ele>10.7118</ele>
        <time>2014-05-29T10:36:42Z</time>
      </trkpt>
      <trkpt lat="59.8703672" lon="17.6162649">
        <ele>10.7118</ele>
        <time>2014-05-29T10:36:43Z</time>
      </trkpt>
      <trkpt lat="59.8703435" lon="17.6163794">
        <ele>11.1925</ele>
        <time>2014-05-29T10:36:44Z</time>
      </trkpt>
      <trkpt lat="59.8703024" lon="17.6165015">
        <ele>11.1925</ele>
        <time>2014-05-29T10:36:45Z</time>
      </trkpt>
      <trkpt lat="59.8702685" lon="17.6166254">
        <ele>12.1538</ele>
        <time>2014-05-29T10:36:46Z</time>
      </trkpt>
      <trkpt lat="59.8702366" lon="17.6167393">
        <ele>12.1538</ele>
        <time>2014-05-29T10:36:47Z</time>
      </trkpt>
      <trkpt lat="59.870216" lon="17.6168556">
        <ele>12.6344</ele>
        <time>2014-05-29T10:36:48Z</time>
      </trkpt>
      <trkpt lat="59.8701989" lon="17.6169733">
        <ele>12.6344</ele>
        <time>2014-05-29T10:36:49Z</time>
      </trkpt>
      <trkpt lat="59.8701809" lon="17.6170941">
        <ele>13.1151</ele>
        <time>2014-05-29T10:36:50Z</time>
      </trkpt>
      <trkpt lat="59.8701602" lon="17.6172174">
        <ele>13.1151</ele>
        <time>2014-05-29T10:36:51Z</time>
      </trkpt>
      <trkpt lat="59.8701364" lon="17.6173438">
        <ele>14.0764</ele>
        <time>2014-05-29T10:36:52Z</time>
      </trkpt>
      <trkpt lat="59.870111" lon="17.6174654">
        <ele>14.557</ele>
        <time>2014-05-29T10:36:53Z</time>
      </trkpt>
      <trkpt lat="59.8700885" lon="17.6175819">
        <ele>14.557</ele>
        <time>2014-05-29T10:36:54Z</time>
      </trkpt>
      <trkpt lat="59.8700714" lon="17.6177012">
        <ele>14.557</ele>
        <time>2014-05-29T10:36:55Z</time>
      </trkpt>
      <trkpt lat="59.8700577" lon="17.6178193">
        <ele>15.0377</ele>
        <time>2014-05-29T10:36:56Z</time>
      </trkpt>
      <trkpt lat="59.8700476" lon="17.6179326">
        <ele>15.5184</ele>
        <time>2014-05-29T10:36:57Z</time>
      </trkpt>
      <trkpt lat="59.8700359" lon="17.6180492">
        <ele>15.0377</ele>
        <time>2014-05-29T10:36:58Z</time>
      </trkpt>
      <trkpt lat="59.8700125" lon="17.6181669">
        <ele>15.5184</ele>
        <time>2014-05-29T10:36:59Z</time>
      </trkpt>
      <trkpt lat="59.8700188" lon="17.6182809">
        <ele>15.999</ele>
        <time>2014-05-29T10:37:00Z</time>
      </trkpt>
      <trkpt lat="59.8700115" lon="17.6184083">
        <ele>15.999</ele>
        <time>2014-05-29T10:37:01Z</time>
      </trkpt>
      <trkpt lat="59.8699963" lon="17.6185347">
        <ele>15.999</ele>
        <time>2014-05-29T10:37:02Z</time>
      </trkpt>
      <trkpt lat="59.8699629" lon="17.6186444">
        <ele>15.5184</ele>
        <time>2014-05-29T10:37:03Z</time>
      </trkpt>
      <trkpt lat="59.8699406" lon="17.6187549">
        <ele>15.5184</ele>
        <time>2014-05-29T10:37:04Z</time>
      </trkpt>
      <trkpt lat="59.8699389" lon="17.6188714">
        <ele>15.5184</ele>
        <time>2014-05-29T10:37:05Z</time>
      </trkpt>
      <trkpt lat="59.8699463" lon="17.6189945">
        <ele>15.5184</ele>
        <time>2014-05-29T10:37:06Z</time>
      </trkpt>
      <trkpt lat="59.8699545" lon="17.6191138">
        <ele>15.5184</ele>
        <time>2014-05-29T10:37:07Z</time>
      </trkpt>
      <trkpt lat="59.8699536" lon="17.6192313">
        <ele>15.0377</ele>
        <time>2014-05-29T10:37:08Z</time>
      </trkpt>
      <trkpt lat="59.8699535" lon="17.6193502">
        <ele>15.0377</ele>
        <time>2014-05-29T10:37:09Z</time>
      </trkpt>
      <trkpt lat="59.8699468" lon="17.6194702">
        <ele>15.0377</ele>
        <time>2014-05-29T10:37:10Z</time>
      </trkpt>
      <trkpt lat="59.8699376" lon="17.6195837">
        <ele>15.5184</ele>
        <time>2014-05-29T10:37:11Z</time>
      </trkpt>
      <trkpt lat="59.8699298" lon="17.6196983">
        <ele>15.0377</ele>
        <time>2014-05-29T10:37:12Z</time>
      </trkpt>
      <trkpt lat="59.8699235" lon="17.6198204">
        <ele>15.0377</ele>
        <time>2014-05-29T10:37:13Z</time>
      </trkpt>
      <trkpt lat="59.8699157" lon="17.6199415">
        <ele>15.5184</ele>
        <time>2014-05-29T10:37:14Z</time>
      </trkpt>
      <trkpt lat="59.869909" lon="17.6200603">
        <ele>15.0377</ele>
        <time>2014-05-29T10:37:15Z</time>
      </trkpt>
      <trkpt lat="59.8699028" lon="17.6201784">
        <ele>15.0377</ele>
        <time>2014-05-29T10:37:16Z</time>
      </trkpt>
      <trkpt lat="59.8698932" lon="17.6202996">
        <ele>14.557</ele>
        <time>2014-05-29T10:37:17Z</time>
      </trkpt>
      <trkpt lat="59.8698818" lon="17.6204214">
        <ele>14.557</ele>
        <time>2014-05-29T10:37:18Z</time>
      </trkpt>
      <trkpt lat="59.8698675" lon="17.6205394">
        <ele>14.557</ele>
        <time>2014-05-29T10:37:19Z</time>
      </trkpt>
      <trkpt lat="59.8698519" lon="17.6206543">
        <ele>14.557</ele>
        <time>2014-05-29T10:37:20Z</time>
      </trkpt>
      <trkpt lat="59.8698365" lon="17.6207641">
        <ele>14.557</ele>
        <time>2014-05-29T10:37:21Z</time>
      </trkpt>
      <trkpt lat="59.8698208" lon="17.6208695">
        <ele>14.557</ele>
        <time>2014-05-29T10:37:22Z</time>
      </trkpt>
      <trkpt lat="59.8698033" lon="17.6209702">
        <ele>14.557</ele>
        <time>2014-05-29T10:37:23Z</time>
      </trkpt>
      <trkpt lat="59.8697876" lon="17.6210692">
        <ele>14.557</ele>
        <time>2014-05-29T10:37:24Z</time>
      </trkpt>
      <trkpt lat="59.8697767" lon="17.6211748">
        <ele>14.557</ele>
        <time>2014-05-29T10:37:25Z</time>
      </trkpt>
      <trkpt lat="59.8697633" lon="17.6212858">
        <ele>14.557</ele>
        <time>2014-05-29T10:37:26Z</time>
      </trkpt>
      <trkpt lat="59.8697401" lon="17.6213957">
        <ele>14.557</ele>
        <time>2014-05-29T10:37:27Z</time>
      </trkpt>
      <trkpt lat="59.8697142" lon="17.6215064">
        <ele>14.557</ele>
        <time>2014-05-29T10:37:28Z</time>
      </trkpt>
      <trkpt lat="59.8696888" lon="17.6216161">
        <ele>14.557</ele>
        <time>2014-05-29T10:37:29Z</time>
      </trkpt>
      <trkpt lat="59.8696613" lon="17.621721">
        <ele>14.0764</ele>
        <time>2014-05-29T10:37:30Z</time>
      </trkpt>
      <trkpt lat="59.8696303" lon="17.6218199">
        <ele>14.0764</ele>
        <time>2014-05-29T10:37:31Z</time>
      </trkpt>
      <trkpt lat="59.8695981" lon="17.621914">
        <ele>13.5958</ele>
        <time>2014-05-29T10:37:32Z</time>
      </trkpt>
      <trkpt lat="59.8695664" lon="17.6220033">
        <ele>13.5958</ele>
        <time>2014-05-29T10:37:33Z</time>
      </trkpt>
      <trkpt lat="59.8695351" lon="17.6220898">
        <ele>13.1151</ele>
        <time>2014-05-29T10:37:34Z</time>
      </trkpt>
      <trkpt lat="59.8695013" lon="17.6221652">
        <ele>12.1538</ele>
        <time>2014-05-29T10:37:35Z</time>
      </trkpt>
      <trkpt lat="59.8694634" lon="17.622228">
        <ele>12.1538</ele>
        <time>2014-05-29T10:37:36Z</time>
      </trkpt>
      <trkpt lat="59.8694301" lon="17.622295">
        <ele>11.6732</ele>
        <time>2014-05-29T10:37:37Z</time>
      </trkpt>
      <trkpt lat="59.8694009" lon="17.622368">
        <ele>11.1925</ele>
        <time>2014-05-29T10:37:38Z</time>
      </trkpt>
      <trkpt lat="59.8693757" lon="17.6224442">
        <ele>11.1925</ele>
        <time>2014-05-29T10:37:39Z</time>
      </trkpt>
      <trkpt lat="59.8693557" lon="17.6225237">
        <ele>11.1925</ele>
        <time>2014-05-29T10:37:40Z</time>
      </trkpt>
      <trkpt lat="59.8693424" lon="17.6226052">
        <ele>10.7118</ele>
        <time>2014-05-29T10:37:41Z</time>
      </trkpt>
      <trkpt lat="59.8693318" lon="17.622688">
        <ele>10.7118</ele>
        <time>2014-05-29T10:37:42Z</time>
      </trkpt>
      <trkpt lat="59.8693196" lon="17.6227625">
        <ele>10.2312</ele>
        <time>2014-05-29T10:37:43Z</time>
      </trkpt>
      <trkpt lat="59.8693024" lon="17.6228311">
        <ele>9.75061</ele>
        <time>2014-05-29T10:37:44Z</time>
      </trkpt>
      <trkpt lat="59.8692759" lon="17.6228871">
        <ele>9.75061</ele>
        <time>2014-05-29T10:37:45Z</time>
      </trkpt>
      <trkpt lat="59.8692397" lon="17.6229274">
        <ele>9.2699</ele>
        <time>2014-05-29T10:37:46Z</time>
      </trkpt>
      <trkpt lat="59.8692008" lon="17.6229558">
        <ele>8.78918</ele>
        <time>2014-05-29T10:37:47Z</time>
      </trkpt>
      <trkpt lat="59.8691662" lon="17.622993">
        <ele>8.78918</ele>
        <time>2014-05-29T10:37:48Z</time>
      </trkpt>
      <trkpt lat="59.8691422" lon="17.6230572">
        <ele>9.2699</ele>
        <time>2014-05-29T10:37:49Z</time>
      </trkpt>
      <trkpt lat="59.8691183" lon="17.6231321">
        <ele>9.2699</ele>
        <time>2014-05-29T10:37:50Z</time>
      </trkpt>
      <trkpt lat="59.8690837" lon="17.6231947">
        <ele>9.2699</ele>
        <time>2014-05-29T10:37:51Z</time>
      </trkpt>
      <trkpt lat="59.8690392" lon="17.6232486">
        <ele>9.75061</ele>
        <time>2014-05-29T10:37:52Z</time>
      </trkpt>
      <trkpt lat="59.8689898" lon="17.6232893">
        <ele>10.2312</ele>
        <time>2014-05-29T10:37:53Z</time>
      </trkpt>
      <trkpt lat="59.868937" lon="17.6233276">
        <ele>10.7118</ele>
        <time>2014-05-29T10:37:54Z</time>
      </trkpt>
      <trkpt lat="59.8688802" lon="17.6233636">
        <ele>11.1925</ele>
        <time>2014-05-29T10:37:55Z</time>
      </trkpt>
      <trkpt lat="59.8688211" lon="17.623396">
        <ele>12.1538</ele>
        <time>2014-05-29T10:37:56Z</time>
      </trkpt>
      <trkpt lat="59.8687616" lon="17.6234274">
        <ele>12.1538</ele>
        <time>2014-05-29T10:37:57Z</time>
      </trkpt>
      <trkpt lat="59.8687019" lon="17.6234577">
        <ele>12.6344</ele>
        <time>2014-05-29T10:37:58Z</time>
      </trkpt>
      <trkpt lat="59.8686414" lon="17.6234882">
        <ele>12.6344</ele>
        <time>2014-05-29T10:37:59Z</time>
      </trkpt>
      <trkpt lat="59.8685822" lon="17.6235193">
        <ele>12.6344</ele>
        <time>2014-05-29T10:38:00Z</time>
      </trkpt>
      <trkpt lat="59.8685226" lon="17.6235517">
        <ele>13.1151</ele>
        <time>2014-05-29T10:38:01Z</time>
      </trkpt>
      <trkpt lat="59.8684627" lon="17.6235862">
        <ele>13.1151</ele>
        <time>2014-05-29T10:38:02Z</time>
      </trkpt>
      <trkpt lat="59.868402" lon="17.6236206">
        <ele>12.6344</ele>
        <time>2014-05-29T10:38:03Z</time>
      </trkpt>
      <trkpt lat="59.8683325" lon="17.6236346">
        <ele>12.6344</ele>
        <time>2014-05-29T10:38:04Z</time>
      </trkpt>
      <trkpt lat="59.8682648" lon="17.6236564">
        <ele>12.6344</ele>
        <time>2014-05-29T10:38:05Z</time>
      </trkpt>
      <trkpt lat="59.8681919" lon="17.6236728">
        <ele>13.5958</ele>
        <time>2014-05-29T10:38:06Z</time>
      </trkpt>
      <trkpt lat="59.8681211" lon="17.6237028">
        <ele>13.5958</ele>
        <time>2014-05-29T10:38:07Z</time>
      </trkpt>
      <trkpt lat="59.8680545" lon="17.623736">
        <ele>14.0764</ele>
        <time>2014-05-29T10:38:08Z</time>
      </trkpt>
      <trkpt lat="59.8679877" lon="17.6237656">
        <ele>14.0764</ele>
        <time>2014-05-29T10:38:09Z</time>
      </trkpt>
      <trkpt lat="59.8679092" lon="17.6238241">
        <ele>15.0377</ele>
        <time>2014-05-29T10:38:10Z</time>
      </trkpt>
      <trkpt lat="59.8678539" lon="17.6238619">
        <ele>15.0377</ele>
        <time>2014-05-29T10:38:11Z</time>
      </trkpt>
      <trkpt lat="59.8677902" lon="17.6239018">
        <ele>15.0377</ele>
        <time>2014-05-29T10:38:12Z</time>
      </trkpt>
      <trkpt lat="59.8677259" lon="17.6239531">
        <ele>15.0377</ele>
        <time>2014-05-29T10:38:13Z</time>
      </trkpt>
      <trkpt lat="59.8676617" lon="17.6240109">
        <ele>15.0377</ele>
        <time>2014-05-29T10:38:14Z</time>
      </trkpt>
      <trkpt lat="59.8675966" lon="17.6240696">
        <ele>15.0377</ele>
        <time>2014-05-29T10:38:15Z</time>
      </trkpt>
      <trkpt lat="59.8675318" lon="17.6241219">
        <ele>15.0377</ele>
        <time>2014-05-29T10:38:16Z</time>
      </trkpt>
      <trkpt lat="59.867469" lon="17.6241899">
        <ele>15.0377</ele>
        <time>2014-05-29T10:38:17Z</time>
      </trkpt>
      <trkpt lat="59.8674096" lon="17.6242701">
        <ele>15.0377</ele>
        <time>2014-05-29T10:38:18Z</time>
      </trkpt>
      <trkpt lat="59.8673535" lon="17.6243831">
        <ele>15.0377</ele>
        <time>2014-05-29T10:38:19Z</time>
      </trkpt>
      <trkpt lat="59.8672982" lon="17.6244753">
        <ele>15.0377</ele>
        <time>2014-05-29T10:38:20Z</time>
      </trkpt>
      <trkpt lat="59.8672531" lon="17.624576">
        <ele>15.0377</ele>
        <time>2014-05-29T10:38:21Z</time>
      </trkpt>
      <trkpt lat="59.8672121" lon="17.6246797">
        <ele>15.0377</ele>
        <time>2014-05-29T10:38:22Z</time>
      </trkpt>
      <trkpt lat="59.867176" lon="17.6247876">
        <ele>15.0377</ele>
        <time>2014-05-29T10:38:23Z</time>
      </trkpt>
      <trkpt lat="59.8671397" lon="17.6248948">
        <ele>15.5184</ele>
        <time>2014-05-29T10:38:24Z</time>
      </trkpt>
      <trkpt lat="59.8671017" lon="17.6249948">
        <ele>15.5184</ele>
        <time>2014-05-29T10:38:25Z</time>
      </trkpt>
      <trkpt lat="59.8670612" lon="17.6250847">
        <ele>15.0377</ele>
        <time>2014-05-29T10:38:26Z</time>
      </trkpt>
      <trkpt lat="59.8670183" lon="17.6251686">
        <ele>15.0377</ele>
        <time>2014-05-29T10:38:27Z</time>
      </trkpt>
      <trkpt lat="59.8669733" lon="17.6252477">
        <ele>15.0377</ele>
        <time>2014-05-29T10:38:28Z</time>
      </trkpt>
      <trkpt lat="59.8669277" lon="17.625323">
        <ele>15.0377</ele>
        <time>2014-05-29T10:38:29Z</time>
      </trkpt>
      <trkpt lat="59.8668811" lon="17.6253898">
        <ele>15.0377</ele>
        <time>2014-05-29T10:38:30Z</time>
      </trkpt>
      <trkpt lat="59.8668347" lon="17.625445">
        <ele>15.0377</ele>
        <time>2014-05-29T10:38:31Z</time>
      </trkpt>
      <trkpt lat="59.8667895" lon="17.6254952">
        <ele>15.0377</ele>
        <time>2014-05-29T10:38:32Z</time>
      </trkpt>
      <trkpt lat="59.8667433" lon="17.6255382">
        <ele>15.0377</ele>
        <time>2014-05-29T10:38:33Z</time>
      </trkpt>
      <trkpt lat="59.8666979" lon="17.625576">
        <ele>15.0377</ele>
        <time>2014-05-29T10:38:34Z</time>
      </trkpt>
      <trkpt lat="59.8666593" lon="17.6256224">
        <ele>15.0377</ele>
        <time>2014-05-29T10:38:35Z</time>
      </trkpt>
      <trkpt lat="59.86663" lon="17.6256879">
        <ele>15.0377</ele>
        <time>2014-05-29T10:38:36Z</time>
      </trkpt>
      <trkpt lat="59.8666123" lon="17.6257718">
        <ele>14.557</ele>
        <time>2014-05-29T10:38:37Z</time>
      </trkpt>
      <trkpt lat="59.8666047" lon="17.6258662">
        <ele>15.0377</ele>
        <time>2014-05-29T10:38:38Z</time>
      </trkpt>
      <trkpt lat="59.8666041" lon="17.6259631">
        <ele>14.557</ele>
        <time>2014-05-29T10:38:39Z</time>
      </trkpt>
      <trkpt lat="59.8666109" lon="17.6260581">
        <ele>14.557</ele>
        <time>2014-05-29T10:38:40Z</time>
      </trkpt>
      <trkpt lat="59.8666261" lon="17.6261511">
        <ele>14.557</ele>
        <time>2014-05-29T10:38:41Z</time>
      </trkpt>
      <trkpt lat="59.8666423" lon="17.6262488">
        <ele>14.557</ele>
        <time>2014-05-29T10:38:42Z</time>
      </trkpt>
      <trkpt lat="59.8666582" lon="17.6263437">
        <ele>14.557</ele>
        <time>2014-05-29T10:38:43Z</time>
      </trkpt>
      <trkpt lat="59.866676" lon="17.6264344">
        <ele>15.0377</ele>
        <time>2014-05-29T10:38:44Z</time>
      </trkpt>
      <trkpt lat="59.8666937" lon="17.6265213">
        <ele>15.0377</ele>
        <time>2014-05-29T10:38:45Z</time>
      </trkpt>
      <trkpt lat="59.8667077" lon="17.6265948">
        <ele>15.0377</ele>
        <time>2014-05-29T10:38:46Z</time>
      </trkpt>
      <trkpt lat="59.866717" lon="17.6266484">
        <ele>15.0377</ele>
        <time>2014-05-29T10:38:47Z</time>
      </trkpt>
      <trkpt lat="59.8667242" lon="17.6266902">
        <ele>15.0377</ele>
        <time>2014-05-29T10:38:48Z</time>
      </trkpt>
      <trkpt lat="59.8667336" lon="17.6267338">
        <ele>15.0377</ele>
        <time>2014-05-29T10:38:49Z</time>
      </trkpt>
      <trkpt lat="59.8667442" lon="17.6267835">
        <ele>14.557</ele>
        <time>2014-05-29T10:38:50Z</time>
      </trkpt>
      <trkpt lat="59.8667499" lon="17.6268375">
        <ele>14.0764</ele>
        <time>2014-05-29T10:38:51Z</time>
      </trkpt>
      <trkpt lat="59.8667386" lon="17.6268805">
        <ele>13.1151</ele>
        <time>2014-05-29T10:38:52Z</time>
      </trkpt>
      <trkpt lat="59.8667118" lon="17.6268996">
        <ele>12.6344</ele>
        <time>2014-05-29T10:38:53Z</time>
      </trkpt>
      <trkpt lat="59.8666712" lon="17.6269166">
        <ele>11.6732</ele>
        <time>2014-05-29T10:38:54Z</time>
      </trkpt>
      <trkpt lat="59.8666259" lon="17.6269558">
        <ele>10.7118</ele>
        <time>2014-05-29T10:38:55Z</time>
      </trkpt>
      <trkpt lat="59.8665878" lon="17.6270107">
        <ele>10.2312</ele>
        <time>2014-05-29T10:38:56Z</time>
      </trkpt>
      <trkpt lat="59.8665544" lon="17.6270667">
        <ele>9.2699</ele>
        <time>2014-05-29T10:38:57Z</time>
      </trkpt>
      <trkpt lat="59.8664844" lon="17.6271439">
        <ele>9.2699</ele>
        <time>2014-05-29T10:38:58Z</time>
      </trkpt>
      <trkpt lat="59.8664379" lon="17.6272119">
        <ele>8.30859</ele>
        <time>2014-05-29T10:38:59Z</time>
      </trkpt>
      <trkpt lat="59.8663856" lon="17.6272961">
        <ele>7.82788</ele>
        <time>2014-05-29T10:39:00Z</time>
      </trkpt>
      <trkpt lat="59.8663369" lon="17.6273958">
        <ele>7.82788</ele>
        <time>2014-05-29T10:39:01Z</time>
      </trkpt>
      <trkpt lat="59.8662925" lon="17.6274989">
        <ele>7.34717</ele>
        <time>2014-05-29T10:39:02Z</time>
      </trkpt>
      <trkpt lat="59.8662473" lon="17.6275931">
        <ele>6.86646</ele>
        <time>2014-05-29T10:39:03Z</time>
      </trkpt>
      <trkpt lat="59.8662003" lon="17.6276811">
        <ele>6.38586</ele>
        <time>2014-05-29T10:39:04Z</time>
      </trkpt>
      <trkpt lat="59.8661501" lon="17.6277656">
        <ele>6.38586</ele>
        <time>2014-05-29T10:39:05Z</time>
      </trkpt>
      <trkpt lat="59.8660927" lon="17.6278523">
        <ele>6.86646</ele>
        <time>2014-05-29T10:39:06Z</time>
      </trkpt>
      <trkpt lat="59.8660068" lon="17.6279749">
        <ele>7.34717</ele>
        <time>2014-05-29T10:39:07Z</time>
      </trkpt>
      <trkpt lat="59.865942" lon="17.6280594">
        <ele>7.34717</ele>
        <time>2014-05-29T10:39:08Z</time>
      </trkpt>
      <trkpt lat="59.8658913" lon="17.6281429">
        <ele>6.86646</ele>
        <time>2014-05-29T10:39:09Z</time>
      </trkpt>
      <trkpt lat="59.865845" lon="17.6282377">
        <ele>6.86646</ele>
        <time>2014-05-29T10:39:10Z</time>
      </trkpt>
      <trkpt lat="59.8658015" lon="17.6283365">
        <ele>6.86646</ele>
        <time>2014-05-29T10:39:11Z</time>
      </trkpt>
      <trkpt lat="59.8657614" lon="17.6284431">
        <ele>6.86646</ele>
        <time>2014-05-29T10:39:12Z</time>
      </trkpt>
      <trkpt lat="59.8657258" lon="17.6285473">
        <ele>6.38586</ele>
        <time>2014-05-29T10:39:13Z</time>
      </trkpt>
      <trkpt lat="59.8656925" lon="17.6286405">
        <ele>5.90527</ele>
        <time>2014-05-29T10:39:14Z</time>
      </trkpt>
      <trkpt lat="59.8656492" lon="17.6287276">
        <ele>7.34717</ele>
        <time>2014-05-29T10:39:15Z</time>
      </trkpt>
      <trkpt lat="59.8656111" lon="17.6288053">
        <ele>7.34717</ele>
        <time>2014-05-29T10:39:16Z</time>
      </trkpt>
      <trkpt lat="59.8655643" lon="17.6288633">
        <ele>7.82788</ele>
        <time>2014-05-29T10:39:17Z</time>
      </trkpt>
      <trkpt lat="59.8655161" lon="17.6289069">
        <ele>7.82788</ele>
        <time>2014-05-29T10:39:18Z</time>
      </trkpt>
      <trkpt lat="59.8654616" lon="17.628953">
        <ele>8.30859</ele>
        <time>2014-05-29T10:39:19Z</time>
      </trkpt>
      <trkpt lat="59.8654119" lon="17.6290083">
        <ele>8.30859</ele>
        <time>2014-05-29T10:39:20Z</time>
      </trkpt>
      <trkpt lat="59.8653692" lon="17.6290658">
        <ele>8.30859</ele>
        <time>2014-05-29T10:39:21Z</time>
      </trkpt>
      <trkpt lat="59.8653318" lon="17.6291289">
        <ele>8.30859</ele>
        <time>2014-05-29T10:39:22Z</time>
      </trkpt>
      <trkpt lat="59.8653033" lon="17.6292017">
        <ele>8.30859</ele>
        <time>2014-05-29T10:39:23Z</time>
      </trkpt>
      <trkpt lat="59.8652737" lon="17.6292806">
        <ele>8.30859</ele>
        <time>2014-05-29T10:39:24Z</time>
      </trkpt>
      <trkpt lat="59.8652453" lon="17.6293652">
        <ele>8.30859</ele>
        <time>2014-05-29T10:39:25Z</time>
      </trkpt>
      <trkpt lat="59.8652244" lon="17.6294465">
        <ele>8.30859</ele>
        <time>2014-05-29T10:39:26Z</time>
      </trkpt>
      <trkpt lat="59.8652099" lon="17.6295254">
        <ele>8.30859</ele>
        <time>2014-05-29T10:39:27Z</time>
      </trkpt>
      <trkpt lat="59.8651962" lon="17.6296097">
        <ele>8.30859</ele>
        <time>2014-05-29T10:39:28Z</time>
      </trkpt>
      <trkpt lat="59.8651742" lon="17.6296938">
        <ele>7.82788</ele>
        <time>2014-05-29T10:39:29Z</time>
      </trkpt>
      <trkpt lat="59.8651263" lon="17.6297698">
        <ele>8.30859</ele>
        <time>2014-05-29T10:39:30Z</time>
      </trkpt>
      <trkpt lat="59.8650816" lon="17.6298179">
        <ele>7.82788</ele>
        <time>2014-05-29T10:39:31Z</time>
      </trkpt>
      <trkpt lat="59.8650407" lon="17.6298774">
        <ele>7.82788</ele>
        <time>2014-05-29T10:39:32Z</time>
      </trkpt>
      <trkpt lat="59.8649957" lon="17.6299428">
        <ele>7.34717</ele>
        <time>2014-05-29T10:39:33Z</time>
      </trkpt>
      <trkpt lat="59.8648548" lon="17.6300157">
        <ele>5.90527</ele>
        <time>2014-05-29T10:39:36Z</time>
      </trkpt>
      <trkpt lat="59.8648188" lon="17.6300305">
        <ele>5.90527</ele>
        <time>2014-05-29T10:39:37Z</time>
      </trkpt>
      <trkpt lat="59.8647796" lon="17.6300962">
        <ele>5.42456</ele>
        <time>2014-05-29T10:39:38Z</time>
      </trkpt>
      <trkpt lat="59.8647351" lon="17.630163">
        <ele>4.94385</ele>
        <time>2014-05-29T10:39:39Z</time>
      </trkpt>
      <trkpt lat="59.8646828" lon="17.6302276">
        <ele>5.90527</ele>
        <time>2014-05-29T10:39:40Z</time>
      </trkpt>
      <trkpt lat="59.8646357" lon="17.6302929">
        <ele>5.90527</ele>
        <time>2014-05-29T10:39:41Z</time>
      </trkpt>
      <trkpt lat="59.8645922" lon="17.6303622">
        <ele>5.90527</ele>
        <time>2014-05-29T10:39:42Z</time>
      </trkpt>
      <trkpt lat="59.8645568" lon="17.6304158">
        <ele>6.38586</ele>
        <time>2014-05-29T10:39:43Z</time>
      </trkpt>
      <trkpt lat="59.8645221" lon="17.6304627">
        <ele>6.86646</ele>
        <time>2014-05-29T10:39:44Z</time>
      </trkpt>
      <trkpt lat="59.8644895" lon="17.6305104">
        <ele>7.34717</ele>
        <time>2014-05-29T10:39:45Z</time>
      </trkpt>
      <trkpt lat="59.8644532" lon="17.6305586">
        <ele>8.30859</ele>
        <time>2014-05-29T10:39:46Z</time>
      </trkpt>
      <trkpt lat="59.8644184" lon="17.6306065">
        <ele>9.2699</ele>
        <time>2014-05-29T10:39:47Z</time>
      </trkpt>
      <trkpt lat="59.8643806" lon="17.630654">
        <ele>9.75061</ele>
        <time>2014-05-29T10:39:48Z</time>
      </trkpt>
      <trkpt lat="59.8643396" lon="17.6307047">
        <ele>10.7118</ele>
        <time>2014-05-29T10:39:49Z</time>
      </trkpt>
      <trkpt lat="59.8642961" lon="17.6307637">
        <ele>11.1925</ele>
        <time>2014-05-29T10:39:50Z</time>
      </trkpt>
      <trkpt lat="59.8642528" lon="17.6308114">
        <ele>11.1925</ele>
        <time>2014-05-29T10:39:51Z</time>
      </trkpt>
      <trkpt lat="59.8642046" lon="17.6308636">
        <ele>11.6732</ele>
        <time>2014-05-29T10:39:52Z</time>
      </trkpt>
      <trkpt lat="59.8641522" lon="17.6309057">
        <ele>11.6732</ele>
        <time>2014-05-29T10:39:53Z</time>
      </trkpt>
      <trkpt lat="59.8640983" lon="17.6309463">
        <ele>12.1538</ele>
        <time>2014-05-29T10:39:54Z</time>
      </trkpt>
      <trkpt lat="59.8640487" lon="17.6309861">
        <ele>12.1538</ele>
        <time>2014-05-29T10:39:55Z</time>
      </trkpt>
      <trkpt lat="59.8639954" lon="17.6310191">
        <ele>11.6732</ele>
        <time>2014-05-29T10:39:56Z</time>
      </trkpt>
      <trkpt lat="59.863939" lon="17.6310565">
        <ele>11.6732</ele>
        <time>2014-05-29T10:39:57Z</time>
      </trkpt>
      <trkpt lat="59.8638829" lon="17.6310909">
        <ele>11.6732</ele>
        <time>2014-05-29T10:39:58Z</time>
      </trkpt>
      <trkpt lat="59.8638222" lon="17.6311311">
        <ele>12.1538</ele>
        <time>2014-05-29T10:39:59Z</time>
      </trkpt>
      <trkpt lat="59.8637643" lon="17.631173">
        <ele>12.1538</ele>
        <time>2014-05-29T10:40:00Z</time>
      </trkpt>
      <trkpt lat="59.8637041" lon="17.6312109">
        <ele>12.6344</ele>
        <time>2014-05-29T10:40:01Z</time>
      </trkpt>
      <trkpt lat="59.8636436" lon="17.6312465">
        <ele>12.6344</ele>
        <time>2014-05-29T10:40:02Z</time>
      </trkpt>
      <trkpt lat="59.863586" lon="17.6312806">
        <ele>12.6344</ele>
        <time>2014-05-29T10:40:03Z</time>
      </trkpt>
      <trkpt lat="59.8635276" lon="17.631317">
        <ele>12.6344</ele>
        <time>2014-05-29T10:40:04Z</time>
      </trkpt>
      <trkpt lat="59.8634665" lon="17.6313596">
        <ele>12.6344</ele>
        <time>2014-05-29T10:40:05Z</time>
      </trkpt>
      <trkpt lat="59.8634074" lon="17.6314037">
        <ele>12.6344</ele>
        <time>2014-05-29T10:40:06Z</time>
      </trkpt>
      <trkpt lat="59.8633509" lon="17.6314457">
        <ele>12.6344</ele>
        <time>2014-05-29T10:40:07Z</time>
      </trkpt>
      <trkpt lat="59.863301" lon="17.6314835">
        <ele>12.6344</ele>
        <time>2014-05-29T10:40:08Z</time>
      </trkpt>
      <trkpt lat="59.8632472" lon="17.6315213">
        <ele>12.6344</ele>
        <time>2014-05-29T10:40:09Z</time>
      </trkpt>
      <trkpt lat="59.8631832" lon="17.6315386">
        <ele>15.5184</ele>
        <time>2014-05-29T10:40:10Z</time>
      </trkpt>
      <trkpt lat="59.8631209" lon="17.631572">
        <ele>15.0377</ele>
        <time>2014-05-29T10:40:11Z</time>
      </trkpt>
      <trkpt lat="59.8630324" lon="17.6316153">
        <ele>15.0377</ele>
        <time>2014-05-29T10:40:12Z</time>
      </trkpt>
      <trkpt lat="59.8629319" lon="17.6316345">
        <ele>15.5184</ele>
        <time>2014-05-29T10:40:13Z</time>
      </trkpt>
      <trkpt lat="59.8628674" lon="17.6316993">
        <ele>15.5184</ele>
        <time>2014-05-29T10:40:14Z</time>
      </trkpt>
      <trkpt lat="59.8628097" lon="17.631741">
        <ele>15.999</ele>
        <time>2014-05-29T10:40:15Z</time>
      </trkpt>
      <trkpt lat="59.8627491" lon="17.6317704">
        <ele>16.9604</ele>
        <time>2014-05-29T10:40:16Z</time>
      </trkpt>
      <trkpt lat="59.8627041" lon="17.6317839">
        <ele>16.4797</ele>
        <time>2014-05-29T10:40:17Z</time>
      </trkpt>
      <trkpt lat="59.8626561" lon="17.6318144">
        <ele>15.999</ele>
        <time>2014-05-29T10:40:18Z</time>
      </trkpt>
      <trkpt lat="59.8626092" lon="17.6318479">
        <ele>15.5184</ele>
        <time>2014-05-29T10:40:19Z</time>
      </trkpt>
      <trkpt lat="59.8625781" lon="17.6318824">
        <ele>15.0377</ele>
        <time>2014-05-29T10:40:20Z</time>
      </trkpt>
      <trkpt lat="59.8625335" lon="17.6319196">
        <ele>15.0377</ele>
        <time>2014-05-29T10:40:21Z</time>
      </trkpt>
      <trkpt lat="59.8624831" lon="17.6319641">
        <ele>15.999</ele>
        <time>2014-05-29T10:40:22Z</time>
      </trkpt>
      <trkpt lat="59.8624096" lon="17.6320345">
        <ele>15.999</ele>
        <time>2014-05-29T10:40:23Z</time>
      </trkpt>
      <trkpt lat="59.8623678" lon="17.6320597">
        <ele>15.0377</ele>
        <time>2014-05-29T10:40:24Z</time>
      </trkpt>
      <trkpt lat="59.8623249" lon="17.6320849">
        <ele>14.557</ele>
        <time>2014-05-29T10:40:25Z</time>
      </trkpt>
      <trkpt lat="59.8622792" lon="17.6321012">
        <ele>13.5958</ele>
        <time>2014-05-29T10:40:26Z</time>
      </trkpt>
      <trkpt lat="59.8622325" lon="17.6320877">
        <ele>13.1151</ele>
        <time>2014-05-29T10:40:27Z</time>
      </trkpt>
      <trkpt lat="59.8621891" lon="17.6320426">
        <ele>13.1151</ele>
        <time>2014-05-29T10:40:28Z</time>
      </trkpt>
      <trkpt lat="59.86216" lon="17.6319874">
        <ele>12.6344</ele>
        <time>2014-05-29T10:40:29Z</time>
      </trkpt>
      <trkpt lat="59.8621373" lon="17.6319299">
        <ele>12.1538</ele>
        <time>2014-05-29T10:40:30Z</time>
      </trkpt>
      <trkpt lat="59.8621083" lon="17.6318791">
        <ele>12.1538</ele>
        <time>2014-05-29T10:40:31Z</time>
      </trkpt>
      <trkpt lat="59.8620745" lon="17.6318394">
        <ele>12.1538</ele>
        <time>2014-05-29T10:40:32Z</time>
      </trkpt>
      <trkpt lat="59.862025" lon="17.6317926">
        <ele>12.6344</ele>
        <time>2014-05-29T10:40:33Z</time>
      </trkpt>
      <trkpt lat="59.8619808" lon="17.6317953">
        <ele>12.6344</ele>
        <time>2014-05-29T10:40:34Z</time>
      </trkpt>
      <trkpt lat="59.8619434" lon="17.6318268">
        <ele>13.1151</ele>
        <time>2014-05-29T10:40:35Z</time>
      </trkpt>
      <trkpt lat="59.8618952" lon="17.6318337">
        <ele>14.0764</ele>
        <time>2014-05-29T10:40:36Z</time>
      </trkpt>
      <trkpt lat="59.8618415" lon="17.631871">
        <ele>13.5958</ele>
        <time>2014-05-29T10:40:37Z</time>
      </trkpt>
      <trkpt lat="59.8617833" lon="17.6319268">
        <ele>13.5958</ele>
        <time>2014-05-29T10:40:38Z</time>
      </trkpt>
      <trkpt lat="59.8617265" lon="17.6319661">
        <ele>13.5958</ele>
        <time>2014-05-29T10:40:39Z</time>
      </trkpt>
      <trkpt lat="59.8616627" lon="17.6320085">
        <ele>13.5958</ele>
        <time>2014-05-29T10:40:40Z</time>
      </trkpt>
      <trkpt lat="59.8616047" lon="17.6320377">
        <ele>13.5958</ele>
        <time>2014-05-29T10:40:41Z</time>
      </trkpt>
      <trkpt lat="59.8615463" lon="17.6320512">
        <ele>13.5958</ele>
        <time>2014-05-29T10:40:42Z</time>
      </trkpt>
      <trkpt lat="59.8614934" lon="17.632082">
        <ele>13.1151</ele>
        <time>2014-05-29T10:40:43Z</time>
      </trkpt>
      <trkpt lat="59.8614467" lon="17.6321138">
        <ele>13.1151</ele>
        <time>2014-05-29T10:40:44Z</time>
      </trkpt>
      <trkpt lat="59.8613995" lon="17.6321516">
        <ele>12.6344</ele>
        <time>2014-05-29T10:40:45Z</time>
      </trkpt>
      <trkpt lat="59.8613468" lon="17.6321877">
        <ele>12.6344</ele>
        <time>2014-05-29T10:40:46Z</time>
      </trkpt>
      <trkpt lat="59.8612969" lon="17.6322205">
        <ele>12.6344</ele>
        <time>2014-05-29T10:40:47Z</time>
      </trkpt>
      <trkpt lat="59.8612499" lon="17.6322526">
        <ele>12.6344</ele>
        <time>2014-05-29T10:40:48Z</time>
      </trkpt>
      <trkpt lat="59.8612058" lon="17.6322783">
        <ele>12.1538</ele>
        <time>2014-05-29T10:40:49Z</time>
      </trkpt>
      <trkpt lat="59.8611635" lon="17.6323019">
        <ele>12.1538</ele>
        <time>2014-05-29T10:40:50Z</time>
      </trkpt>
      <trkpt lat="59.8611246" lon="17.6323339">
        <ele>12.1538</ele>
        <time>2014-05-29T10:40:51Z</time>
      </trkpt>
      <trkpt lat="59.8610927" lon="17.6323732">
        <ele>12.1538</ele>
        <time>2014-05-29T10:40:52Z</time>
      </trkpt>
      <trkpt lat="59.861072" lon="17.6324133">
        <ele>11.6732</ele>
        <time>2014-05-29T10:40:53Z</time>
      </trkpt>
      <trkpt lat="59.861058" lon="17.6324508">
        <ele>11.1925</ele>
        <time>2014-05-29T10:40:54Z</time>
      </trkpt>
      <trkpt lat="59.8610498" lon="17.6324941">
        <ele>11.1925</ele>
        <time>2014-05-29T10:40:55Z</time>
      </trkpt>
      <trkpt lat="59.8610523" lon="17.6325487">
        <ele>10.7118</ele>
        <time>2014-05-29T10:40:56Z</time>
      </trkpt>
      <trkpt lat="59.8610668" lon="17.6326042">
        <ele>10.7118</ele>
        <time>2014-05-29T10:40:57Z</time>
      </trkpt>
      <trkpt lat="59.8610872" lon="17.6326584">
        <ele>10.2312</ele>
        <time>2014-05-29T10:40:58Z</time>
      </trkpt>
      <trkpt lat="59.8611088" lon="17.6327136">
        <ele>10.2312</ele>
        <time>2014-05-29T10:40:59Z</time>
      </trkpt>
      <trkpt lat="59.8611316" lon="17.632769">
        <ele>10.2312</ele>
        <time>2014-05-29T10:41:00Z</time>
      </trkpt>
      <trkpt lat="59.8611598" lon="17.6328198">
        <ele>10.7118</ele>
        <time>2014-05-29T10:41:01Z</time>
      </trkpt>
      <trkpt lat="59.8611884" lon="17.632867">
        <ele>10.7118</ele>
        <time>2014-05-29T10:41:02Z</time>
      </trkpt>
      <trkpt lat="59.861212" lon="17.632923">
        <ele>11.1925</ele>
        <time>2014-05-29T10:41:03Z</time>
      </trkpt>
      <trkpt lat="59.8612158" lon="17.632986">
        <ele>11.1925</ele>
        <time>2014-05-29T10:41:04Z</time>
      </trkpt>
      <trkpt lat="59.8612039" lon="17.6330606">
        <ele>11.6732</ele>
        <time>2014-05-29T10:41:05Z</time>
      </trkpt>
      <trkpt lat="59.8611716" lon="17.6331083">
        <ele>11.6732</ele>
        <time>2014-05-29T10:41:06Z</time>
      </trkpt>
      <trkpt lat="59.8611183" lon="17.6331605">
        <ele>12.1538</ele>
        <time>2014-05-29T10:41:07Z</time>
      </trkpt>
      <trkpt lat="59.8610788" lon="17.6332177">
        <ele>13.1151</ele>
        <time>2014-05-29T10:41:08Z</time>
      </trkpt>
      <trkpt lat="59.8610384" lon="17.6332437">
        <ele>14.0764</ele>
        <time>2014-05-29T10:41:09Z</time>
      </trkpt>
      <trkpt lat="59.8609907" lon="17.633255">
        <ele>15.0377</ele>
        <time>2014-05-29T10:41:10Z</time>
      </trkpt>
      <trkpt lat="59.8609527" lon="17.6332954">
        <ele>15.5184</ele>
        <time>2014-05-29T10:41:11Z</time>
      </trkpt>
      <trkpt lat="59.8609069" lon="17.6333316">
        <ele>15.999</ele>
        <time>2014-05-29T10:41:12Z</time>
      </trkpt>
      <trkpt lat="59.8608752" lon="17.6333782">
        <ele>16.4797</ele>
        <time>2014-05-29T10:41:13Z</time>
      </trkpt>
      <trkpt lat="59.8608525" lon="17.6334228">
        <ele>17.9218</ele>
        <time>2014-05-29T10:41:14Z</time>
      </trkpt>
      <trkpt lat="59.8608157" lon="17.6334578">
        <ele>18.8831</ele>
        <time>2014-05-29T10:41:15Z</time>
      </trkpt>
      <trkpt lat="59.8607723" lon="17.6334814">
        <ele>19.3638</ele>
        <time>2014-05-29T10:41:16Z</time>
      </trkpt>
      <trkpt lat="59.8607251" lon="17.6335242">
        <ele>19.8444</ele>
        <time>2014-05-29T10:41:17Z</time>
      </trkpt>
      <trkpt lat="59.8606811" lon="17.6335596">
        <ele>19.3638</ele>
        <time>2014-05-29T10:41:18Z</time>
      </trkpt>
      <trkpt lat="59.8606345" lon="17.6336212">
        <ele>20.325</ele>
        <time>2014-05-29T10:41:19Z</time>
      </trkpt>
      <trkpt lat="59.8605879" lon="17.6336678">
        <ele>18.4023</ele>
        <time>2014-05-29T10:41:20Z</time>
      </trkpt>
      <trkpt lat="59.8605402" lon="17.6337073">
        <ele>18.8831</ele>
        <time>2014-05-29T10:41:21Z</time>
      </trkpt>
      <trkpt lat="59.8604901" lon="17.6337638">
        <ele>20.8057</ele>
        <time>2014-05-29T10:41:22Z</time>
      </trkpt>
      <trkpt lat="59.8604528" lon="17.6337994">
        <ele>20.8057</ele>
        <time>2014-05-29T10:41:23Z</time>
      </trkpt>
      <trkpt lat="59.860419" lon="17.6338201">
        <ele>19.8444</ele>
        <time>2014-05-29T10:41:24Z</time>
      </trkpt>
      <trkpt lat="59.860392" lon="17.6338466">
        <ele>18.8831</ele>
        <time>2014-05-29T10:41:25Z</time>
      </trkpt>
      <trkpt lat="59.8603657" lon="17.6338802">
        <ele>17.9218</ele>
        <time>2014-05-29T10:41:26Z</time>
      </trkpt>
      <trkpt lat="59.8603371" lon="17.63392">
        <ele>16.9604</ele>
        <time>2014-05-29T10:41:27Z</time>
      </trkpt>
      <trkpt lat="59.8603043" lon="17.63396">
        <ele>16.4797</ele>
        <time>2014-05-29T10:41:28Z</time>
      </trkpt>
      <trkpt lat="59.8602679" lon="17.6339879">
        <ele>15.999</ele>
        <time>2014-05-29T10:41:29Z</time>
      </trkpt>
      <trkpt lat="59.8602277" lon="17.6339986">
        <ele>14.557</ele>
        <time>2014-05-29T10:41:30Z</time>
      </trkpt>
      <trkpt lat="59.8601854" lon="17.6339963">
        <ele>14.557</ele>
        <time>2014-05-29T10:41:31Z</time>
      </trkpt>
      <trkpt lat="59.8601434" lon="17.6339994">
        <ele>14.0764</ele>
        <time>2014-05-29T10:41:32Z</time>
      </trkpt>
      <trkpt lat="59.8600987" lon="17.6340144">
        <ele>13.5958</ele>
        <time>2014-05-29T10:41:33Z</time>
      </trkpt>
      <trkpt lat="59.8600573" lon="17.6340534">
        <ele>13.1151</ele>
        <time>2014-05-29T10:41:34Z</time>
      </trkpt>
      <trkpt lat="59.8600129" lon="17.6340976">
        <ele>12.6344</ele>
        <time>2014-05-29T10:41:35Z</time>
      </trkpt>
      <trkpt lat="59.8599714" lon="17.6341469">
        <ele>12.6344</ele>
        <time>2014-05-29T10:41:36Z</time>
      </trkpt>
      <trkpt lat="59.8599289" lon="17.6341883">
        <ele>11.6732</ele>
        <time>2014-05-29T10:41:37Z</time>
      </trkpt>
      <trkpt lat="59.8598875" lon="17.6342362">
        <ele>11.1925</ele>
        <time>2014-05-29T10:41:38Z</time>
      </trkpt>
      <trkpt lat="59.8598218" lon="17.6342475">
        <ele>11.1925</ele>
        <time>2014-05-29T10:41:39Z</time>
      </trkpt>
      <trkpt lat="59.8597643" lon="17.6343086">
        <ele>11.1925</ele>
        <time>2014-05-29T10:41:40Z</time>
      </trkpt>
      <trkpt lat="59.8597212" lon="17.6343656">
        <ele>10.7118</ele>
        <time>2014-05-29T10:41:41Z</time>
      </trkpt>
      <trkpt lat="59.8596709" lon="17.6344325">
        <ele>10.7118</ele>
        <time>2014-05-29T10:41:42Z</time>
      </trkpt>
      <trkpt lat="59.8596221" lon="17.6344754">
        <ele>12.6344</ele>
        <time>2014-05-29T10:41:43Z</time>
      </trkpt>
      <trkpt lat="59.8595831" lon="17.6345474">
        <ele>12.6344</ele>
        <time>2014-05-29T10:41:44Z</time>
      </trkpt>
      <trkpt lat="59.8595429" lon="17.6346162">
        <ele>12.6344</ele>
        <time>2014-05-29T10:41:45Z</time>
      </trkpt>
      <trkpt lat="59.8595035" lon="17.6346842">
        <ele>12.1538</ele>
        <time>2014-05-29T10:41:46Z</time>
      </trkpt>
      <trkpt lat="59.859458" lon="17.6347625">
        <ele>12.1538</ele>
        <time>2014-05-29T10:41:47Z</time>
      </trkpt>
      <trkpt lat="59.859404" lon="17.6348642">
        <ele>12.1538</ele>
        <time>2014-05-29T10:41:48Z</time>
      </trkpt>
      <trkpt lat="59.8593648" lon="17.6349422">
        <ele>12.1538</ele>
        <time>2014-05-29T10:41:49Z</time>
      </trkpt>
      <trkpt lat="59.859327" lon="17.6350183">
        <ele>12.1538</ele>
        <time>2014-05-29T10:41:50Z</time>
      </trkpt>
      <trkpt lat="59.8592617" lon="17.6351426">
        <ele>12.6344</ele>
        <time>2014-05-29T10:41:51Z</time>
      </trkpt>
      <trkpt lat="59.8592271" lon="17.6352124">
        <ele>12.6344</ele>
        <time>2014-05-29T10:41:52Z</time>
      </trkpt>
      <trkpt lat="59.8591903" lon="17.6352865">
        <ele>12.6344</ele>
        <time>2014-05-29T10:41:53Z</time>
      </trkpt>
      <trkpt lat="59.8591518" lon="17.6353615">
        <ele>12.6344</ele>
        <time>2014-05-29T10:41:54Z</time>
      </trkpt>
      <trkpt lat="59.8591122" lon="17.6354373">
        <ele>12.1538</ele>
        <time>2014-05-29T10:41:55Z</time>
      </trkpt>
      <trkpt lat="59.8590774" lon="17.6355278">
        <ele>12.1538</ele>
        <time>2014-05-29T10:41:56Z</time>
      </trkpt>
      <trkpt lat="59.8590404" lon="17.6356099">
        <ele>12.1538</ele>
        <time>2014-05-29T10:41:57Z</time>
      </trkpt>
      <trkpt lat="59.8590024" lon="17.6356865">
        <ele>12.1538</ele>
        <time>2014-05-29T10:41:58Z</time>
      </trkpt>
      <trkpt lat="59.8589643" lon="17.6357601">
        <ele>12.1538</ele>
        <time>2014-05-29T10:41:59Z</time>
      </trkpt>
      <trkpt lat="59.858926" lon="17.6358299">
        <ele>12.6344</ele>
        <time>2014-05-29T10:42:00Z</time>
      </trkpt>
      <trkpt lat="59.8588897" lon="17.6359011">
        <ele>12.6344</ele>
        <time>2014-05-29T10:42:01Z</time>
      </trkpt>
      <trkpt lat="59.8588553" lon="17.6359805">
        <ele>12.6344</ele>
        <time>2014-05-29T10:42:02Z</time>
      </trkpt>
      <trkpt lat="59.8588207" lon="17.6360521">
        <ele>12.1538</ele>
        <time>2014-05-29T10:42:03Z</time>
      </trkpt>
      <trkpt lat="59.8587897" lon="17.6361264">
        <ele>11.6732</ele>
        <time>2014-05-29T10:42:04Z</time>
      </trkpt>
      <trkpt lat="59.8587589" lon="17.6362061">
        <ele>12.1538</ele>
        <time>2014-05-29T10:42:05Z</time>
      </trkpt>
      <trkpt lat="59.8587293" lon="17.6362885">
        <ele>12.1538</ele>
        <time>2014-05-29T10:42:06Z</time>
      </trkpt>
      <trkpt lat="59.8586954" lon="17.6363644">
        <ele>12.1538</ele>
        <time>2014-05-29T10:42:07Z</time>
      </trkpt>
      <trkpt lat="59.8586308" lon="17.6364383">
        <ele>12.1538</ele>
        <time>2014-05-29T10:42:08Z</time>
      </trkpt>
      <trkpt lat="59.8585759" lon="17.636449">
        <ele>12.6344</ele>
        <time>2014-05-29T10:42:09Z</time>
      </trkpt>
      <trkpt lat="59.858526" lon="17.6365128">
        <ele>12.6344</ele>
        <time>2014-05-29T10:42:10Z</time>
      </trkpt>
      <trkpt lat="59.8584913" lon="17.6365807">
        <ele>12.6344</ele>
        <time>2014-05-29T10:42:11Z</time>
      </trkpt>
      <trkpt lat="59.8584505" lon="17.6366458">
        <ele>12.6344</ele>
        <time>2014-05-29T10:42:12Z</time>
      </trkpt>
      <trkpt lat="59.8584024" lon="17.6367102">
        <ele>13.1151</ele>
        <time>2014-05-29T10:42:13Z</time>
      </trkpt>
      <trkpt lat="59.8583579" lon="17.636796">
        <ele>13.5958</ele>
        <time>2014-05-29T10:42:14Z</time>
      </trkpt>
      <trkpt lat="59.8583149" lon="17.6368887">
        <ele>14.0764</ele>
        <time>2014-05-29T10:42:15Z</time>
      </trkpt>
      <trkpt lat="59.8582708" lon="17.6369742">
        <ele>14.0764</ele>
        <time>2014-05-29T10:42:16Z</time>
      </trkpt>
      <trkpt lat="59.8582194" lon="17.6370478">
        <ele>14.557</ele>
        <time>2014-05-29T10:42:17Z</time>
      </trkpt>
      <trkpt lat="59.8581735" lon="17.6371261">
        <ele>14.0764</ele>
        <time>2014-05-29T10:42:18Z</time>
      </trkpt>
      <trkpt lat="59.8581287" lon="17.6372095">
        <ele>13.5958</ele>
        <time>2014-05-29T10:42:19Z</time>
      </trkpt>
      <trkpt lat="59.8580952" lon="17.637283">
        <ele>13.5958</ele>
        <time>2014-05-29T10:42:20Z</time>
      </trkpt>
      <trkpt lat="59.8580672" lon="17.6373576">
        <ele>13.5958</ele>
        <time>2014-05-29T10:42:21Z</time>
      </trkpt>
      <trkpt lat="59.8580389" lon="17.6374471">
        <ele>13.1151</ele>
        <time>2014-05-29T10:42:22Z</time>
      </trkpt>
      <trkpt lat="59.8580093" lon="17.6375446">
        <ele>12.1538</ele>
        <time>2014-05-29T10:42:23Z</time>
      </trkpt>
      <trkpt lat="59.8579771" lon="17.6376305">
        <ele>12.1538</ele>
        <time>2014-05-29T10:42:24Z</time>
      </trkpt>
      <trkpt lat="59.8579319" lon="17.6376995">
        <ele>14.0764</ele>
        <time>2014-05-29T10:42:25Z</time>
      </trkpt>
      <trkpt lat="59.8578531" lon="17.6377959">
        <ele>14.557</ele>
        <time>2014-05-29T10:42:26Z</time>
      </trkpt>
      <trkpt lat="59.8578091" lon="17.6378513">
        <ele>15.5184</ele>
        <time>2014-05-29T10:42:27Z</time>
      </trkpt>
      <trkpt lat="59.8577616" lon="17.6379264">
        <ele>15.999</ele>
        <time>2014-05-29T10:42:28Z</time>
      </trkpt>
      <trkpt lat="59.857712" lon="17.6380072">
        <ele>15.999</ele>
        <time>2014-05-29T10:42:29Z</time>
      </trkpt>
      <trkpt lat="59.8576654" lon="17.6380827">
        <ele>16.9604</ele>
        <time>2014-05-29T10:42:30Z</time>
      </trkpt>
      <trkpt lat="59.8576207" lon="17.6381692">
        <ele>17.4412</ele>
        <time>2014-05-29T10:42:31Z</time>
      </trkpt>
      <trkpt lat="59.8575887" lon="17.6382584">
        <ele>17.4412</ele>
        <time>2014-05-29T10:42:32Z</time>
      </trkpt>
      <trkpt lat="59.8575534" lon="17.6383667">
        <ele>16.4797</ele>
        <time>2014-05-29T10:42:33Z</time>
      </trkpt>
      <trkpt lat="59.8575145" lon="17.6384665">
        <ele>16.9604</ele>
        <time>2014-05-29T10:42:34Z</time>
      </trkpt>
      <trkpt lat="59.857472" lon="17.6385579">
        <ele>16.9604</ele>
        <time>2014-05-29T10:42:35Z</time>
      </trkpt>
      <trkpt lat="59.8574284" lon="17.6386467">
        <ele>16.9604</ele>
        <time>2014-05-29T10:42:36Z</time>
      </trkpt>
      <trkpt lat="59.8573851" lon="17.6387392">
        <ele>16.9604</ele>
        <time>2014-05-29T10:42:37Z</time>
      </trkpt>
      <trkpt lat="59.8573366" lon="17.6388339">
        <ele>16.4797</ele>
        <time>2014-05-29T10:42:38Z</time>
      </trkpt>
      <trkpt lat="59.8572854" lon="17.6389377">
        <ele>16.4797</ele>
        <time>2014-05-29T10:42:39Z</time>
      </trkpt>
      <trkpt lat="59.8572098" lon="17.6391008">
        <ele>16.9604</ele>
        <time>2014-05-29T10:42:40Z</time>
      </trkpt>
      <trkpt lat="59.8571302" lon="17.6392135">
        <ele>17.4412</ele>
        <time>2014-05-29T10:42:41Z</time>
      </trkpt>
      <trkpt lat="59.8570593" lon="17.6392896">
        <ele>18.4023</ele>
        <time>2014-05-29T10:42:42Z</time>
      </trkpt>
      <trkpt lat="59.8569986" lon="17.6393889">
        <ele>18.8831</ele>
        <time>2014-05-29T10:42:43Z</time>
      </trkpt>
      <trkpt lat="59.8569393" lon="17.6394581">
        <ele>18.4023</ele>
        <time>2014-05-29T10:42:44Z</time>
      </trkpt>
      <trkpt lat="59.8569068" lon="17.63954">
        <ele>17.4412</ele>
        <time>2014-05-29T10:42:45Z</time>
      </trkpt>
      <trkpt lat="59.8568376" lon="17.6395638">
        <ele>19.3638</ele>
        <time>2014-05-29T10:42:46Z</time>
      </trkpt>
      <trkpt lat="59.8567909" lon="17.6396224">
        <ele>19.8444</ele>
        <time>2014-05-29T10:42:47Z</time>
      </trkpt>
      <trkpt lat="59.8567064" lon="17.6396778">
        <ele>19.8444</ele>
        <time>2014-05-29T10:42:48Z</time>
      </trkpt>
      <trkpt lat="59.8566513" lon="17.6397611">
        <ele>19.3638</ele>
        <time>2014-05-29T10:42:49Z</time>
      </trkpt>
      <trkpt lat="59.8565995" lon="17.6398087">
        <ele>20.325</ele>
        <time>2014-05-29T10:42:50Z</time>
      </trkpt>
      <trkpt lat="59.856568" lon="17.6398869">
        <ele>19.3638</ele>
        <time>2014-05-29T10:42:51Z</time>
      </trkpt>
      <trkpt lat="59.8565368" lon="17.6399694">
        <ele>16.9604</ele>
        <time>2014-05-29T10:42:52Z</time>
      </trkpt>
      <trkpt lat="59.8564864" lon="17.6400547">
        <ele>14.557</ele>
        <time>2014-05-29T10:42:53Z</time>
      </trkpt>
      <trkpt lat="59.8564111" lon="17.6401267">
        <ele>14.557</ele>
        <time>2014-05-29T10:42:54Z</time>
      </trkpt>
      <trkpt lat="59.856346" lon="17.6401875">
        <ele>14.557</ele>
        <time>2014-05-29T10:42:55Z</time>
      </trkpt>
      <trkpt lat="59.8562698" lon="17.640266">
        <ele>15.0377</ele>
        <time>2014-05-29T10:42:56Z</time>
      </trkpt>
      <trkpt lat="59.8562111" lon="17.6403319">
        <ele>14.0764</ele>
        <time>2014-05-29T10:42:57Z</time>
      </trkpt>
      <trkpt lat="59.8561488" lon="17.6404267">
        <ele>14.557</ele>
        <time>2014-05-29T10:42:58Z</time>
      </trkpt>
      <trkpt lat="59.8560947" lon="17.6405067">
        <ele>14.557</ele>
        <time>2014-05-29T10:42:59Z</time>
      </trkpt>
      <trkpt lat="59.8560459" lon="17.6405745">
        <ele>13.5958</ele>
        <time>2014-05-29T10:43:00Z</time>
      </trkpt>
      <trkpt lat="59.8559834" lon="17.6406268">
        <ele>15.0377</ele>
        <time>2014-05-29T10:43:01Z</time>
      </trkpt>
      <trkpt lat="59.8559252" lon="17.6407064">
        <ele>15.0377</ele>
        <time>2014-05-29T10:43:02Z</time>
      </trkpt>
      <trkpt lat="59.8558601" lon="17.6408423">
        <ele>15.0377</ele>
        <time>2014-05-29T10:43:03Z</time>
      </trkpt>
      <trkpt lat="59.8557953" lon="17.6409329">
        <ele>15.0377</ele>
        <time>2014-05-29T10:43:04Z</time>
      </trkpt>
      <trkpt lat="59.8557543" lon="17.6410054">
        <ele>14.557</ele>
        <time>2014-05-29T10:43:05Z</time>
      </trkpt>
      <trkpt lat="59.8557047" lon="17.6410545">
        <ele>14.557</ele>
        <time>2014-05-29T10:43:06Z</time>
      </trkpt>
      <trkpt lat="59.8556602" lon="17.6411063">
        <ele>14.0764</ele>
        <time>2014-05-29T10:43:07Z</time>
      </trkpt>
      <trkpt lat="59.8556151" lon="17.6411671">
        <ele>14.557</ele>
        <time>2014-05-29T10:43:08Z</time>
      </trkpt>
      <trkpt lat="59.8555781" lon="17.6412287">
        <ele>15.0377</ele>
        <time>2014-05-29T10:43:09Z</time>
      </trkpt>
      <trkpt lat="59.8555257" lon="17.6412754">
        <ele>16.4797</ele>
        <time>2014-05-29T10:43:10Z</time>
      </trkpt>
      <trkpt lat="59.8554871" lon="17.641322">
        <ele>15.999</ele>
        <time>2014-05-29T10:43:11Z</time>
      </trkpt>
      <trkpt lat="59.8554211" lon="17.6413969">
        <ele>16.4797</ele>
        <time>2014-05-29T10:43:12Z</time>
      </trkpt>
      <trkpt lat="59.855375" lon="17.6414613">
        <ele>16.4797</ele>
        <time>2014-05-29T10:43:13Z</time>
      </trkpt>
      <trkpt lat="59.8553395" lon="17.6415086">
        <ele>15.999</ele>
        <time>2014-05-29T10:43:14Z</time>
      </trkpt>
      <trkpt lat="59.8552947" lon="17.6415861">
        <ele>16.4797</ele>
        <time>2014-05-29T10:43:15Z</time>
      </trkpt>
      <trkpt lat="59.8552659" lon="17.6416385">
        <ele>15.999</ele>
        <time>2014-05-29T10:43:16Z</time>
      </trkpt>
      <trkpt lat="59.855242" lon="17.6416785">
        <ele>15.5184</ele>
        <time>2014-05-29T10:43:17Z</time>
      </trkpt>
      <trkpt lat="59.8552234" lon="17.6417123">
        <ele>14.557</ele>
        <time>2014-05-29T10:43:18Z</time>
      </trkpt>
      <trkpt lat="59.8552063" lon="17.6417372">
        <ele>14.0764</ele>
        <time>2014-05-29T10:43:19Z</time>
      </trkpt>
      <trkpt lat="59.8551886" lon="17.6417458">
        <ele>13.5958</ele>
        <time>2014-05-29T10:43:20Z</time>
      </trkpt>
      <trkpt lat="59.8551762" lon="17.6417524">
        <ele>13.1151</ele>
        <time>2014-05-29T10:43:21Z</time>
      </trkpt>
      <trkpt lat="59.8551704" lon="17.6417654">
        <ele>12.6344</ele>
        <time>2014-05-29T10:43:22Z</time>
      </trkpt>
      <trkpt lat="59.8551695" lon="17.6417706">
        <ele>12.6344</ele>
        <time>2014-05-29T10:43:23Z</time>
      </trkpt>
      <trkpt lat="59.8551725" lon="17.641774">
        <ele>11.6732</ele>
        <time>2014-05-29T10:43:24Z</time>
      </trkpt>
      <trkpt lat="59.8551524" lon="17.6418173">
        <ele>8.78918</ele>
        <time>2014-05-29T10:43:50Z</time>
      </trkpt>
      <trkpt lat="59.8551327" lon="17.6418346">
        <ele>8.78918</ele>
        <time>2014-05-29T10:43:51Z</time>
      </trkpt>
      <trkpt lat="59.8551103" lon="17.6418541">
        <ele>8.78918</ele>
        <time>2014-05-29T10:43:52Z</time>
      </trkpt>
      <trkpt lat="59.8550825" lon="17.6418722">
        <ele>8.30859</ele>
        <time>2014-05-29T10:43:53Z</time>
      </trkpt>
      <trkpt lat="59.8550492" lon="17.6418709">
        <ele>8.30859</ele>
        <time>2014-05-29T10:43:54Z</time>
      </trkpt>
      <trkpt lat="59.8550189" lon="17.6418372">
        <ele>8.30859</ele>
        <time>2014-05-29T10:43:55Z</time>
      </trkpt>
      <trkpt lat="59.8549961" lon="17.6417804">
        <ele>8.30859</ele>
        <time>2014-05-29T10:43:56Z</time>
      </trkpt>
      <trkpt lat="59.8549772" lon="17.6417146">
        <ele>8.30859</ele>
        <time>2014-05-29T10:43:57Z</time>
      </trkpt>
      <trkpt lat="59.8549569" lon="17.6416469">
        <ele>8.30859</ele>
        <time>2014-05-29T10:43:58Z</time>
      </trkpt>
      <trkpt lat="59.8549343" lon="17.6415768">
        <ele>8.30859</ele>
        <time>2014-05-29T10:43:59Z</time>
      </trkpt>
      <trkpt lat="59.8549101" lon="17.6415029">
        <ele>8.30859</ele>
        <time>2014-05-29T10:44:00Z</time>
      </trkpt>
      <trkpt lat="59.854886" lon="17.6414238">
        <ele>7.82788</ele>
        <time>2014-05-29T10:44:01Z</time>
      </trkpt>
      <trkpt lat="59.8548652" lon="17.6413126">
        <ele>7.82788</ele>
        <time>2014-05-29T10:44:02Z</time>
      </trkpt>
      <trkpt lat="59.8548409" lon="17.6412172">
        <ele>7.82788</ele>
        <time>2014-05-29T10:44:03Z</time>
      </trkpt>
      <trkpt lat="59.854811" lon="17.6411465">
        <ele>7.34717</ele>
        <time>2014-05-29T10:44:04Z</time>
      </trkpt>
      <trkpt lat="59.8547675" lon="17.6411053">
        <ele>6.86646</ele>
        <time>2014-05-29T10:44:05Z</time>
      </trkpt>
      <trkpt lat="59.85471" lon="17.6411097">
        <ele>6.86646</ele>
        <time>2014-05-29T10:44:06Z</time>
      </trkpt>
      <trkpt lat="59.8546568" lon="17.6411443">
        <ele>6.86646</ele>
        <time>2014-05-29T10:44:07Z</time>
      </trkpt>
      <trkpt lat="59.8546068" lon="17.6412002">
        <ele>6.86646</ele>
        <time>2014-05-29T10:44:08Z</time>
      </trkpt>
      <trkpt lat="59.8545456" lon="17.6412834">
        <ele>6.86646</ele>
        <time>2014-05-29T10:44:09Z</time>
      </trkpt>
      <trkpt lat="59.8544986" lon="17.6413365">
        <ele>6.86646</ele>
        <time>2014-05-29T10:44:10Z</time>
      </trkpt>
      <trkpt lat="59.854452" lon="17.6413704">
        <ele>6.86646</ele>
        <time>2014-05-29T10:44:11Z</time>
      </trkpt>
      <trkpt lat="59.8544163" lon="17.6414111">
        <ele>5.90527</ele>
        <time>2014-05-29T10:44:12Z</time>
      </trkpt>
      <trkpt lat="59.8543796" lon="17.6414342">
        <ele>5.42456</ele>
        <time>2014-05-29T10:44:13Z</time>
      </trkpt>
      <trkpt lat="59.8543396" lon="17.6414628">
        <ele>4.94385</ele>
        <time>2014-05-29T10:44:14Z</time>
      </trkpt>
      <trkpt lat="59.854296" lon="17.641481">
        <ele>4.46326</ele>
        <time>2014-05-29T10:44:15Z</time>
      </trkpt>
      <trkpt lat="59.8542607" lon="17.6415086">
        <ele>3.98267</ele>
        <time>2014-05-29T10:44:16Z</time>
      </trkpt>
      <trkpt lat="59.8542309" lon="17.6415551">
        <ele>3.98267</ele>
        <time>2014-05-29T10:44:17Z</time>
      </trkpt>
      <trkpt lat="59.8541873" lon="17.6416181">
        <ele>3.02124</ele>
        <time>2014-05-29T10:44:18Z</time>
      </trkpt>
      <trkpt lat="59.8541462" lon="17.6416587">
        <ele>3.02124</ele>
        <time>2014-05-29T10:44:19Z</time>
      </trkpt>
      <trkpt lat="59.8540921" lon="17.6416847">
        <ele>2.54065</ele>
        <time>2014-05-29T10:44:20Z</time>
      </trkpt>
      <trkpt lat="59.854032" lon="17.6417213">
        <ele>2.54065</ele>
        <time>2014-05-29T10:44:21Z</time>
      </trkpt>
      <trkpt lat="59.8539753" lon="17.6417486">
        <ele>2.54065</ele>
        <time>2014-05-29T10:44:22Z</time>
      </trkpt>
      <trkpt lat="59.8539227" lon="17.6417664">
        <ele>3.50195</ele>
        <time>2014-05-29T10:44:23Z</time>
      </trkpt>
      <trkpt lat="59.8538682" lon="17.6417893">
        <ele>3.02124</ele>
        <time>2014-05-29T10:44:24Z</time>
      </trkpt>
      <trkpt lat="59.8538123" lon="17.6418142">
        <ele>3.02124</ele>
        <time>2014-05-29T10:44:25Z</time>
      </trkpt>
      <trkpt lat="59.8537622" lon="17.6418566">
        <ele>3.50195</ele>
        <time>2014-05-29T10:44:26Z</time>
      </trkpt>
      <trkpt lat="59.8537133" lon="17.6419088">
        <ele>3.02124</ele>
        <time>2014-05-29T10:44:27Z</time>
      </trkpt>
      <trkpt lat="59.8536668" lon="17.6419745">
        <ele>3.02124</ele>
        <time>2014-05-29T10:44:28Z</time>
      </trkpt>
      <trkpt lat="59.8536238" lon="17.642053">
        <ele>3.02124</ele>
        <time>2014-05-29T10:44:29Z</time>
      </trkpt>
      <trkpt lat="59.8535839" lon="17.6421326">
        <ele>2.54065</ele>
        <time>2014-05-29T10:44:30Z</time>
      </trkpt>
      <trkpt lat="59.8535495" lon="17.6421967">
        <ele>3.02124</ele>
        <time>2014-05-29T10:44:31Z</time>
      </trkpt>
      <trkpt lat="59.8535108" lon="17.6422715">
        <ele>2.54065</ele>
        <time>2014-05-29T10:44:32Z</time>
      </trkpt>
      <trkpt lat="59.8534647" lon="17.6423575">
        <ele>3.02124</ele>
        <time>2014-05-29T10:44:33Z</time>
      </trkpt>
      <trkpt lat="59.8534205" lon="17.6424458">
        <ele>3.02124</ele>
        <time>2014-05-29T10:44:34Z</time>
      </trkpt>
      <trkpt lat="59.8533817" lon="17.6425279">
        <ele>3.50195</ele>
        <time>2014-05-29T10:44:35Z</time>
      </trkpt>
      <trkpt lat="59.853342" lon="17.6426103">
        <ele>3.98267</ele>
        <time>2014-05-29T10:44:36Z</time>
      </trkpt>
      <trkpt lat="59.8532984" lon="17.6426974">
        <ele>3.50195</ele>
        <time>2014-05-29T10:44:37Z</time>
      </trkpt>
      <trkpt lat="59.8532525" lon="17.6427831">
        <ele>3.02124</ele>
        <time>2014-05-29T10:44:38Z</time>
      </trkpt>
      <trkpt lat="59.8532042" lon="17.642869">
        <ele>2.54065</ele>
        <time>2014-05-29T10:44:39Z</time>
      </trkpt>
      <trkpt lat="59.8531594" lon="17.6429484">
        <ele>2.54065</ele>
        <time>2014-05-29T10:44:40Z</time>
      </trkpt>
      <trkpt lat="59.8531177" lon="17.6430216">
        <ele>3.02124</ele>
        <time>2014-05-29T10:44:41Z</time>
      </trkpt>
      <trkpt lat="59.8530669" lon="17.6431035">
        <ele>3.50195</ele>
        <time>2014-05-29T10:44:42Z</time>
      </trkpt>
      <trkpt lat="59.8530105" lon="17.6431868">
        <ele>3.50195</ele>
        <time>2014-05-29T10:44:43Z</time>
      </trkpt>
      <trkpt lat="59.8529554" lon="17.6432651">
        <ele>3.50195</ele>
        <time>2014-05-29T10:44:44Z</time>
      </trkpt>
      <trkpt lat="59.8529001" lon="17.6433489">
        <ele>3.98267</ele>
        <time>2014-05-29T10:44:45Z</time>
      </trkpt>
      <trkpt lat="59.8528411" lon="17.6434411">
        <ele>3.50195</ele>
        <time>2014-05-29T10:44:46Z</time>
      </trkpt>
      <trkpt lat="59.8527829" lon="17.6435281">
        <ele>3.98267</ele>
        <time>2014-05-29T10:44:47Z</time>
      </trkpt>
      <trkpt lat="59.8527214" lon="17.6436153">
        <ele>4.46326</ele>
        <time>2014-05-29T10:44:48Z</time>
      </trkpt>
      <trkpt lat="59.8526564" lon="17.6437012">
        <ele>3.98267</ele>
        <time>2014-05-29T10:44:49Z</time>
      </trkpt>
      <trkpt lat="59.8525949" lon="17.6437846">
        <ele>4.46326</ele>
        <time>2014-05-29T10:44:50Z</time>
      </trkpt>
      <trkpt lat="59.8525349" lon="17.6438587">
        <ele>3.98267</ele>
        <time>2014-05-29T10:44:51Z</time>
      </trkpt>
      <trkpt lat="59.8524727" lon="17.6439321">
        <ele>3.50195</ele>
        <time>2014-05-29T10:44:52Z</time>
      </trkpt>
      <trkpt lat="59.8524111" lon="17.6440167">
        <ele>3.50195</ele>
        <time>2014-05-29T10:44:53Z</time>
      </trkpt>
      <trkpt lat="59.8523537" lon="17.6440995">
        <ele>3.50195</ele>
        <time>2014-05-29T10:44:54Z</time>
      </trkpt>
      <trkpt lat="59.8522986" lon="17.6441737">
        <ele>3.98267</ele>
        <time>2014-05-29T10:44:55Z</time>
      </trkpt>
      <trkpt lat="59.8522433" lon="17.6442487">
        <ele>3.98267</ele>
        <time>2014-05-29T10:44:56Z</time>
      </trkpt>
      <trkpt lat="59.8521905" lon="17.6443174">
        <ele>3.98267</ele>
        <time>2014-05-29T10:44:57Z</time>
      </trkpt>
      <trkpt lat="59.8521381" lon="17.6443765">
        <ele>3.50195</ele>
        <time>2014-05-29T10:44:58Z</time>
      </trkpt>
      <trkpt lat="59.8520843" lon="17.6444412">
        <ele>3.50195</ele>
        <time>2014-05-29T10:44:59Z</time>
      </trkpt>
      <trkpt lat="59.8520361" lon="17.6445">
        <ele>3.02124</ele>
        <time>2014-05-29T10:45:00Z</time>
      </trkpt>
      <trkpt lat="59.8519903" lon="17.6445554">
        <ele>3.02124</ele>
        <time>2014-05-29T10:45:01Z</time>
      </trkpt>
      <trkpt lat="59.8519484" lon="17.6446025">
        <ele>3.02124</ele>
        <time>2014-05-29T10:45:02Z</time>
      </trkpt>
      <trkpt lat="59.8519045" lon="17.6446512">
        <ele>3.02124</ele>
        <time>2014-05-29T10:45:03Z</time>
      </trkpt>
      <trkpt lat="59.8518603" lon="17.6447097">
        <ele>3.50195</ele>
        <time>2014-05-29T10:45:04Z</time>
      </trkpt>
      <trkpt lat="59.8518159" lon="17.6447662">
        <ele>3.98267</ele>
        <time>2014-05-29T10:45:05Z</time>
      </trkpt>
      <trkpt lat="59.8517683" lon="17.6448232">
        <ele>3.98267</ele>
        <time>2014-05-29T10:45:06Z</time>
      </trkpt>
      <trkpt lat="59.8517206" lon="17.644874">
        <ele>4.46326</ele>
        <time>2014-05-29T10:45:07Z</time>
      </trkpt>
      <trkpt lat="59.8516748" lon="17.6449238">
        <ele>4.94385</ele>
        <time>2014-05-29T10:45:08Z</time>
      </trkpt>
      <trkpt lat="59.8516315" lon="17.6449698">
        <ele>5.42456</ele>
        <time>2014-05-29T10:45:09Z</time>
      </trkpt>
      <trkpt lat="59.8515868" lon="17.6450168">
        <ele>5.42456</ele>
        <time>2014-05-29T10:45:10Z</time>
      </trkpt>
      <trkpt lat="59.8515433" lon="17.6450661">
        <ele>5.42456</ele>
        <time>2014-05-29T10:45:11Z</time>
      </trkpt>
      <trkpt lat="59.8514982" lon="17.6451169">
        <ele>5.42456</ele>
        <time>2014-05-29T10:45:12Z</time>
      </trkpt>
      <trkpt lat="59.8514502" lon="17.645162">
        <ele>5.90527</ele>
        <time>2014-05-29T10:45:13Z</time>
      </trkpt>
      <trkpt lat="59.8514016" lon="17.6452073">
        <ele>5.90527</ele>
        <time>2014-05-29T10:45:14Z</time>
      </trkpt>
      <trkpt lat="59.8513518" lon="17.6452529">
        <ele>6.38586</ele>
        <time>2014-05-29T10:45:15Z</time>
      </trkpt>
      <trkpt lat="59.851305" lon="17.6452992">
        <ele>6.86646</ele>
        <time>2014-05-29T10:45:16Z</time>
      </trkpt>
      <trkpt lat="59.8512606" lon="17.6453376">
        <ele>7.34717</ele>
        <time>2014-05-29T10:45:17Z</time>
      </trkpt>
      <trkpt lat="59.8512143" lon="17.6453748">
        <ele>7.82788</ele>
        <time>2014-05-29T10:45:18Z</time>
      </trkpt>
      <trkpt lat="59.8511668" lon="17.6454153">
        <ele>8.30859</ele>
        <time>2014-05-29T10:45:19Z</time>
      </trkpt>
      <trkpt lat="59.8511176" lon="17.6454539">
        <ele>7.82788</ele>
        <time>2014-05-29T10:45:20Z</time>
      </trkpt>
      <trkpt lat="59.8510721" lon="17.6454919">
        <ele>8.30859</ele>
        <time>2014-05-29T10:45:21Z</time>
      </trkpt>
      <trkpt lat="59.8510301" lon="17.6455338">
        <ele>8.30859</ele>
        <time>2014-05-29T10:45:22Z</time>
      </trkpt>
      <trkpt lat="59.8509943" lon="17.6455707">
        <ele>8.30859</ele>
        <time>2014-05-29T10:45:23Z</time>
      </trkpt>
      <trkpt lat="59.8509571" lon="17.6456016">
        <ele>7.82788</ele>
        <time>2014-05-29T10:45:24Z</time>
      </trkpt>
      <trkpt lat="59.8509192" lon="17.6456316">
        <ele>7.82788</ele>
        <time>2014-05-29T10:45:25Z</time>
      </trkpt>
      <trkpt lat="59.8508778" lon="17.6456655">
        <ele>6.86646</ele>
        <time>2014-05-29T10:45:26Z</time>
      </trkpt>
      <trkpt lat="59.8508318" lon="17.6457054">
        <ele>6.38586</ele>
        <time>2014-05-29T10:45:27Z</time>
      </trkpt>
      <trkpt lat="59.8507865" lon="17.6457498">
        <ele>6.38586</ele>
        <time>2014-05-29T10:45:28Z</time>
      </trkpt>
      <trkpt lat="59.8507417" lon="17.6457986">
        <ele>5.42456</ele>
        <time>2014-05-29T10:45:29Z</time>
      </trkpt>
      <trkpt lat="59.8506965" lon="17.6458477">
        <ele>5.42456</ele>
        <time>2014-05-29T10:45:30Z</time>
      </trkpt>
      <trkpt lat="59.8506522" lon="17.6458925">
        <ele>5.42456</ele>
        <time>2014-05-29T10:45:31Z</time>
      </trkpt>
      <trkpt lat="59.8506069" lon="17.6459403">
        <ele>5.42456</ele>
        <time>2014-05-29T10:45:32Z</time>
      </trkpt>
      <trkpt lat="59.8505561" lon="17.6460115">
        <ele>4.94385</ele>
        <time>2014-05-29T10:45:33Z</time>
      </trkpt>
      <trkpt lat="59.8505056" lon="17.6460587">
        <ele>4.94385</ele>
        <time>2014-05-29T10:45:34Z</time>
      </trkpt>
      <trkpt lat="59.8504468" lon="17.6461115">
        <ele>4.94385</ele>
        <time>2014-05-29T10:45:35Z</time>
      </trkpt>
      <trkpt lat="59.8503892" lon="17.6461477">
        <ele>4.94385</ele>
        <time>2014-05-29T10:45:36Z</time>
      </trkpt>
      <trkpt lat="59.850336" lon="17.6461865">
        <ele>4.94385</ele>
        <time>2014-05-29T10:45:37Z</time>
      </trkpt>
      <trkpt lat="59.8502851" lon="17.646232">
        <ele>4.46326</ele>
        <time>2014-05-29T10:45:38Z</time>
      </trkpt>
      <trkpt lat="59.850237" lon="17.6462742">
        <ele>4.46326</ele>
        <time>2014-05-29T10:45:39Z</time>
      </trkpt>
      <trkpt lat="59.8501838" lon="17.6463288">
        <ele>3.98267</ele>
        <time>2014-05-29T10:45:40Z</time>
      </trkpt>
      <trkpt lat="59.850134" lon="17.6463778">
        <ele>3.50195</ele>
        <time>2014-05-29T10:45:41Z</time>
      </trkpt>
      <trkpt lat="59.8500862" lon="17.6464268">
        <ele>2.54065</ele>
        <time>2014-05-29T10:45:42Z</time>
      </trkpt>
      <trkpt lat="59.8500386" lon="17.6464777">
        <ele>2.06006</ele>
        <time>2014-05-29T10:45:43Z</time>
      </trkpt>
      <trkpt lat="59.8499795" lon="17.6465476">
        <ele>2.06006</ele>
        <time>2014-05-29T10:45:44Z</time>
      </trkpt>
      <trkpt lat="59.849921" lon="17.6466114">
        <ele>1.57935</ele>
        <time>2014-05-29T10:45:45Z</time>
      </trkpt>
      <trkpt lat="59.8498702" lon="17.6466622">
        <ele>1.57935</ele>
        <time>2014-05-29T10:45:46Z</time>
      </trkpt>
      <trkpt lat="59.8498226" lon="17.6467077">
        <ele>1.09863</ele>
        <time>2014-05-29T10:45:47Z</time>
      </trkpt>
      <trkpt lat="59.8497766" lon="17.646758">
        <ele>1.09863</ele>
        <time>2014-05-29T10:45:48Z</time>
      </trkpt>
      <trkpt lat="59.8497298" lon="17.6468112">
        <ele>0.618042</ele>
        <time>2014-05-29T10:45:49Z</time>
      </trkpt>
      <trkpt lat="59.8496823" lon="17.6468625">
        <ele>1.09863</ele>
        <time>2014-05-29T10:45:50Z</time>
      </trkpt>
      <trkpt lat="59.8496335" lon="17.6469159">
        <ele>1.57935</ele>
        <time>2014-05-29T10:45:51Z</time>
      </trkpt>
      <trkpt lat="59.8495833" lon="17.646974">
        <ele>1.09863</ele>
        <time>2014-05-29T10:45:52Z</time>
      </trkpt>
      <trkpt lat="59.8495319" lon="17.6470355">
        <ele>0.618042</ele>
        <time>2014-05-29T10:45:53Z</time>
      </trkpt>
      <trkpt lat="59.8494807" lon="17.6471007">
        <ele>0.618042</ele>
        <time>2014-05-29T10:45:54Z</time>
      </trkpt>
      <trkpt lat="59.8494299" lon="17.6471662">
        <ele>0.618042</ele>
        <time>2014-05-29T10:45:55Z</time>
      </trkpt>
      <trkpt lat="59.8493805" lon="17.6472292">
        <ele>0.618042</ele>
        <time>2014-05-29T10:45:56Z</time>
      </trkpt>
      <trkpt lat="59.8493314" lon="17.6472897">
        <ele>0.618042</ele>
        <time>2014-05-29T10:45:57Z</time>
      </trkpt>
      <trkpt lat="59.8492804" lon="17.6473516">
        <ele>0.618042</ele>
        <time>2014-05-29T10:45:58Z</time>
      </trkpt>
      <trkpt lat="59.8492237" lon="17.6474189">
        <ele>1.09863</ele>
        <time>2014-05-29T10:45:59Z</time>
      </trkpt>
      <trkpt lat="59.8491677" lon="17.6474892">
        <ele>1.09863</ele>
        <time>2014-05-29T10:46:00Z</time>
      </trkpt>
      <trkpt lat="59.8491119" lon="17.6475588">
        <ele>1.57935</ele>
        <time>2014-05-29T10:46:01Z</time>
      </trkpt>
      <trkpt lat="59.8490563" lon="17.6476307">
        <ele>1.57935</ele>
        <time>2014-05-29T10:46:02Z</time>
      </trkpt>
      <trkpt lat="59.8490014" lon="17.6476997">
        <ele>2.06006</ele>
        <time>2014-05-29T10:46:03Z</time>
      </trkpt>
      <trkpt lat="59.8489444" lon="17.6477717">
        <ele>2.54065</ele>
        <time>2014-05-29T10:46:04Z</time>
      </trkpt>
      <trkpt lat="59.8488922" lon="17.6478426">
        <ele>2.54065</ele>
        <time>2014-05-29T10:46:05Z</time>
      </trkpt>
      <trkpt lat="59.848839" lon="17.6479125">
        <ele>2.54065</ele>
        <time>2014-05-29T10:46:06Z</time>
      </trkpt>
      <trkpt lat="59.8487848" lon="17.647978">
        <ele>2.06006</ele>
        <time>2014-05-29T10:46:07Z</time>
      </trkpt>
      <trkpt lat="59.8487282" lon="17.6480416">
        <ele>2.54065</ele>
        <time>2014-05-29T10:46:08Z</time>
      </trkpt>
      <trkpt lat="59.8486503" lon="17.6481063">
        <ele>2.54065</ele>
        <time>2014-05-29T10:46:09Z</time>
      </trkpt>
      <trkpt lat="59.8485762" lon="17.6481669">
        <ele>3.02124</ele>
        <time>2014-05-29T10:46:10Z</time>
      </trkpt>
      <trkpt lat="59.8484997" lon="17.648246">
        <ele>3.50195</ele>
        <time>2014-05-29T10:46:11Z</time>
      </trkpt>
      <trkpt lat="59.8484388" lon="17.6482916">
        <ele>3.98267</ele>
        <time>2014-05-29T10:46:12Z</time>
      </trkpt>
      <trkpt lat="59.8483815" lon="17.6483332">
        <ele>4.94385</ele>
        <time>2014-05-29T10:46:13Z</time>
      </trkpt>
      <trkpt lat="59.8483215" lon="17.6483809">
        <ele>4.94385</ele>
        <time>2014-05-29T10:46:14Z</time>
      </trkpt>
      <trkpt lat="59.8482612" lon="17.6484278">
        <ele>4.94385</ele>
        <time>2014-05-29T10:46:15Z</time>
      </trkpt>
      <trkpt lat="59.8481997" lon="17.6484674">
        <ele>4.94385</ele>
        <time>2014-05-29T10:46:16Z</time>
      </trkpt>
      <trkpt lat="59.8481335" lon="17.6484977">
        <ele>5.42456</ele>
        <time>2014-05-29T10:46:17Z</time>
      </trkpt>
      <trkpt lat="59.8480677" lon="17.6485354">
        <ele>5.90527</ele>
        <time>2014-05-29T10:46:18Z</time>
      </trkpt>
      <trkpt lat="59.8480075" lon="17.6485627">
        <ele>5.90527</ele>
        <time>2014-05-29T10:46:19Z</time>
      </trkpt>
      <trkpt lat="59.8479454" lon="17.648592">
        <ele>5.90527</ele>
        <time>2014-05-29T10:46:20Z</time>
      </trkpt>
      <trkpt lat="59.8478842" lon="17.6486315">
        <ele>5.42456</ele>
        <time>2014-05-29T10:46:21Z</time>
      </trkpt>
      <trkpt lat="59.8478262" lon="17.6486729">
        <ele>4.94385</ele>
        <time>2014-05-29T10:46:22Z</time>
      </trkpt>
      <trkpt lat="59.8477667" lon="17.6487073">
        <ele>4.94385</ele>
        <time>2014-05-29T10:46:23Z</time>
      </trkpt>
      <trkpt lat="59.8477096" lon="17.6487455">
        <ele>4.94385</ele>
        <time>2014-05-29T10:46:24Z</time>
      </trkpt>
      <trkpt lat="59.8476489" lon="17.6487865">
        <ele>5.90527</ele>
        <time>2014-05-29T10:46:25Z</time>
      </trkpt>
      <trkpt lat="59.8475863" lon="17.6488417">
        <ele>5.90527</ele>
        <time>2014-05-29T10:46:26Z</time>
      </trkpt>
      <trkpt lat="59.8475256" lon="17.648901">
        <ele>5.90527</ele>
        <time>2014-05-29T10:46:27Z</time>
      </trkpt>
      <trkpt lat="59.8474671" lon="17.6489615">
        <ele>5.42456</ele>
        <time>2014-05-29T10:46:28Z</time>
      </trkpt>
      <trkpt lat="59.8474043" lon="17.6490264">
        <ele>5.42456</ele>
        <time>2014-05-29T10:46:29Z</time>
      </trkpt>
      <trkpt lat="59.847318" lon="17.6491241">
        <ele>5.90527</ele>
        <time>2014-05-29T10:46:30Z</time>
      </trkpt>
      <trkpt lat="59.8472586" lon="17.6491781">
        <ele>6.38586</ele>
        <time>2014-05-29T10:46:31Z</time>
      </trkpt>
      <trkpt lat="59.8472026" lon="17.6492402">
        <ele>6.38586</ele>
        <time>2014-05-29T10:46:32Z</time>
      </trkpt>
      <trkpt lat="59.847144" lon="17.6493004">
        <ele>5.90527</ele>
        <time>2014-05-29T10:46:33Z</time>
      </trkpt>
      <trkpt lat="59.8470878" lon="17.6493685">
        <ele>5.90527</ele>
        <time>2014-05-29T10:46:34Z</time>
      </trkpt>
      <trkpt lat="59.847034" lon="17.649422">
        <ele>5.90527</ele>
        <time>2014-05-29T10:46:35Z</time>
      </trkpt>
      <trkpt lat="59.8469811" lon="17.649477">
        <ele>5.90527</ele>
        <time>2014-05-29T10:46:36Z</time>
      </trkpt>
      <trkpt lat="59.8469267" lon="17.6495379">
        <ele>5.90527</ele>
        <time>2014-05-29T10:46:37Z</time>
      </trkpt>
      <trkpt lat="59.8468725" lon="17.6496035">
        <ele>5.42456</ele>
        <time>2014-05-29T10:46:38Z</time>
      </trkpt>
      <trkpt lat="59.8468161" lon="17.6496718">
        <ele>5.42456</ele>
        <time>2014-05-29T10:46:39Z</time>
      </trkpt>
      <trkpt lat="59.8467599" lon="17.6497412">
        <ele>4.94385</ele>
        <time>2014-05-29T10:46:40Z</time>
      </trkpt>
      <trkpt lat="59.8467037" lon="17.6498194">
        <ele>4.46326</ele>
        <time>2014-05-29T10:46:41Z</time>
      </trkpt>
      <trkpt lat="59.8466441" lon="17.6498886">
        <ele>4.46326</ele>
        <time>2014-05-29T10:46:42Z</time>
      </trkpt>
      <trkpt lat="59.846589" lon="17.6499561">
        <ele>4.46326</ele>
        <time>2014-05-29T10:46:43Z</time>
      </trkpt>
      <trkpt lat="59.8465296" lon="17.6500214">
        <ele>4.46326</ele>
        <time>2014-05-29T10:46:44Z</time>
      </trkpt>
      <trkpt lat="59.8464686" lon="17.6500903">
        <ele>3.98267</ele>
        <time>2014-05-29T10:46:45Z</time>
      </trkpt>
      <trkpt lat="59.8464069" lon="17.6501544">
        <ele>3.98267</ele>
        <time>2014-05-29T10:46:46Z</time>
      </trkpt>
      <trkpt lat="59.8463502" lon="17.6502132">
        <ele>3.98267</ele>
        <time>2014-05-29T10:46:47Z</time>
      </trkpt>
      <trkpt lat="59.8462882" lon="17.6502695">
        <ele>4.46326</ele>
        <time>2014-05-29T10:46:48Z</time>
      </trkpt>
      <trkpt lat="59.8462274" lon="17.6503266">
        <ele>4.46326</ele>
        <time>2014-05-29T10:46:49Z</time>
      </trkpt>
      <trkpt lat="59.8461706" lon="17.6503851">
        <ele>4.46326</ele>
        <time>2014-05-29T10:46:50Z</time>
      </trkpt>
      <trkpt lat="59.8461083" lon="17.6504481">
        <ele>4.94385</ele>
        <time>2014-05-29T10:46:51Z</time>
      </trkpt>
      <trkpt lat="59.8460467" lon="17.6505066">
        <ele>5.42456</ele>
        <time>2014-05-29T10:46:52Z</time>
      </trkpt>
      <trkpt lat="59.845992" lon="17.6505612">
        <ele>5.42456</ele>
        <time>2014-05-29T10:46:53Z</time>
      </trkpt>
      <trkpt lat="59.8459381" lon="17.6506152">
        <ele>5.42456</ele>
        <time>2014-05-29T10:46:54Z</time>
      </trkpt>
      <trkpt lat="59.845884" lon="17.6506749">
        <ele>5.42456</ele>
        <time>2014-05-29T10:46:55Z</time>
      </trkpt>
      <trkpt lat="59.8458324" lon="17.6507276">
        <ele>4.94385</ele>
        <time>2014-05-29T10:46:56Z</time>
      </trkpt>
      <trkpt lat="59.8457799" lon="17.6507818">
        <ele>4.46326</ele>
        <time>2014-05-29T10:46:57Z</time>
      </trkpt>
      <trkpt lat="59.8457287" lon="17.65083">
        <ele>4.46326</ele>
        <time>2014-05-29T10:46:58Z</time>
      </trkpt>
      <trkpt lat="59.8456749" lon="17.6508849">
        <ele>4.46326</ele>
        <time>2014-05-29T10:46:59Z</time>
      </trkpt>
      <trkpt lat="59.8456232" lon="17.6509372">
        <ele>4.46326</ele>
        <time>2014-05-29T10:47:00Z</time>
      </trkpt>
      <trkpt lat="59.8455696" lon="17.6509881">
        <ele>3.98267</ele>
        <time>2014-05-29T10:47:01Z</time>
      </trkpt>
      <trkpt lat="59.8455152" lon="17.6510419">
        <ele>3.98267</ele>
        <time>2014-05-29T10:47:02Z</time>
      </trkpt>
      <trkpt lat="59.8454619" lon="17.6510978">
        <ele>3.98267</ele>
        <time>2014-05-29T10:47:03Z</time>
      </trkpt>
      <trkpt lat="59.8454029" lon="17.6511512">
        <ele>3.50195</ele>
        <time>2014-05-29T10:47:04Z</time>
      </trkpt>
      <trkpt lat="59.8453492" lon="17.6512085">
        <ele>3.02124</ele>
        <time>2014-05-29T10:47:05Z</time>
      </trkpt>
      <trkpt lat="59.8453004" lon="17.6512719">
        <ele>3.02124</ele>
        <time>2014-05-29T10:47:06Z</time>
      </trkpt>
      <trkpt lat="59.8452501" lon="17.651332">
        <ele>2.54065</ele>
        <time>2014-05-29T10:47:07Z</time>
      </trkpt>
      <trkpt lat="59.8452007" lon="17.6513921">
        <ele>2.54065</ele>
        <time>2014-05-29T10:47:08Z</time>
      </trkpt>
      <trkpt lat="59.8451521" lon="17.6514533">
        <ele>2.54065</ele>
        <time>2014-05-29T10:47:09Z</time>
      </trkpt>
      <trkpt lat="59.8451045" lon="17.6515169">
        <ele>2.06006</ele>
        <time>2014-05-29T10:47:10Z</time>
      </trkpt>
      <trkpt lat="59.8450569" lon="17.651584">
        <ele>2.06006</ele>
        <time>2014-05-29T10:47:11Z</time>
      </trkpt>
      <trkpt lat="59.8450086" lon="17.6516532">
        <ele>1.57935</ele>
        <time>2014-05-29T10:47:12Z</time>
      </trkpt>
      <trkpt lat="59.8449575" lon="17.6517267">
        <ele>1.57935</ele>
        <time>2014-05-29T10:47:13Z</time>
      </trkpt>
      <trkpt lat="59.8449076" lon="17.6517952">
        <ele>1.57935</ele>
        <time>2014-05-29T10:47:14Z</time>
      </trkpt>
      <trkpt lat="59.8448575" lon="17.6518646">
        <ele>1.57935</ele>
        <time>2014-05-29T10:47:15Z</time>
      </trkpt>
      <trkpt lat="59.8448065" lon="17.6519319">
        <ele>1.09863</ele>
        <time>2014-05-29T10:47:16Z</time>
      </trkpt>
      <trkpt lat="59.8447547" lon="17.6519996">
        <ele>1.09863</ele>
        <time>2014-05-29T10:47:17Z</time>
      </trkpt>
      <trkpt lat="59.8447025" lon="17.6520687">
        <ele>0.618042</ele>
        <time>2014-05-29T10:47:18Z</time>
      </trkpt>
      <trkpt lat="59.8446498" lon="17.6521368">
        <ele>0.618042</ele>
        <time>2014-05-29T10:47:19Z</time>
      </trkpt>
      <trkpt lat="59.8445979" lon="17.6522044">
        <ele>0.137451</ele>
        <time>2014-05-29T10:47:20Z</time>
      </trkpt>
      <trkpt lat="59.8445451" lon="17.6522717">
        <ele>0.137451</ele>
        <time>2014-05-29T10:47:21Z</time>
      </trkpt>
      <trkpt lat="59.8444916" lon="17.6523389">
        <ele>0.137451</ele>
        <time>2014-05-29T10:47:22Z</time>
      </trkpt>
      <trkpt lat="59.8444372" lon="17.6524079">
        <ele>0.137451</ele>
        <time>2014-05-29T10:47:23Z</time>
      </trkpt>
      <trkpt lat="59.8443833" lon="17.6524803">
        <ele>0.137451</ele>
        <time>2014-05-29T10:47:24Z</time>
      </trkpt>
      <trkpt lat="59.8443284" lon="17.6525524">
        <ele>0.137451</ele>
        <time>2014-05-29T10:47:25Z</time>
      </trkpt>
      <trkpt lat="59.8442716" lon="17.6526232">
        <ele>0.137451</ele>
        <time>2014-05-29T10:47:26Z</time>
      </trkpt>
      <trkpt lat="59.844215" lon="17.6526923">
        <ele>0</ele>
        <time>2014-05-29T10:47:27Z</time>
      </trkpt>
      <trkpt lat="59.8441592" lon="17.6527596">
        <ele>0</ele>
        <time>2014-05-29T10:47:28Z</time>
      </trkpt>
      <trkpt lat="59.8441027" lon="17.6528257">
        <ele>0</ele>
        <time>2014-05-29T10:47:29Z</time>
      </trkpt>
      <trkpt lat="59.8440447" lon="17.6528886">
        <ele>0</ele>
        <time>2014-05-29T10:47:30Z</time>
      </trkpt>
      <trkpt lat="59.8439872" lon="17.6529529">
        <ele>0</ele>
        <time>2014-05-29T10:47:31Z</time>
      </trkpt>
      <trkpt lat="59.8439306" lon="17.6530203">
        <ele>0</ele>
        <time>2014-05-29T10:47:32Z</time>
      </trkpt>
      <trkpt lat="59.8438733" lon="17.6530883">
        <ele>0</ele>
        <time>2014-05-29T10:47:33Z</time>
      </trkpt>
      <trkpt lat="59.8438152" lon="17.6531563">
        <ele>0</ele>
        <time>2014-05-29T10:47:34Z</time>
      </trkpt>
      <trkpt lat="59.8437568" lon="17.6532238">
        <ele>0</ele>
        <time>2014-05-29T10:47:35Z</time>
      </trkpt>
      <trkpt lat="59.843698" lon="17.6532919">
        <ele>0</ele>
        <time>2014-05-29T10:47:36Z</time>
      </trkpt>
      <trkpt lat="59.8436384" lon="17.653359">
        <ele>0</ele>
        <time>2014-05-29T10:47:37Z</time>
      </trkpt>
      <trkpt lat="59.8435795" lon="17.653429">
        <ele>0</ele>
        <time>2014-05-29T10:47:38Z</time>
      </trkpt>
      <trkpt lat="59.8435211" lon="17.6535026">
        <ele>0</ele>
        <time>2014-05-29T10:47:39Z</time>
      </trkpt>
      <trkpt lat="59.8434614" lon="17.653575">
        <ele>0</ele>
        <time>2014-05-29T10:47:40Z</time>
      </trkpt>
      <trkpt lat="59.8434011" lon="17.6536485">
        <ele>0</ele>
        <time>2014-05-29T10:47:41Z</time>
      </trkpt>
      <trkpt lat="59.8433409" lon="17.6537231">
        <ele>0</ele>
        <time>2014-05-29T10:47:42Z</time>
      </trkpt>
      <trkpt lat="59.8432817" lon="17.653793">
        <ele>0</ele>
        <time>2014-05-29T10:47:43Z</time>
      </trkpt>
      <trkpt lat="59.8432225" lon="17.6538547">
        <ele>0</ele>
        <time>2014-05-29T10:47:44Z</time>
      </trkpt>
      <trkpt lat="59.8431642" lon="17.6539166">
        <ele>0</ele>
        <time>2014-05-29T10:47:45Z</time>
      </trkpt>
      <trkpt lat="59.8431076" lon="17.6539831">
        <ele>0</ele>
        <time>2014-05-29T10:47:46Z</time>
      </trkpt>
      <trkpt lat="59.8430491" lon="17.6540541">
        <ele>0</ele>
        <time>2014-05-29T10:47:47Z</time>
      </trkpt>
      <trkpt lat="59.8429859" lon="17.6541275">
        <ele>0</ele>
        <time>2014-05-29T10:47:48Z</time>
      </trkpt>
      <trkpt lat="59.8429285" lon="17.6541928">
        <ele>0</ele>
        <time>2014-05-29T10:47:49Z</time>
      </trkpt>
      <trkpt lat="59.8428761" lon="17.6542649">
        <ele>0</ele>
        <time>2014-05-29T10:47:50Z</time>
      </trkpt>
      <trkpt lat="59.8428259" lon="17.654338">
        <ele>0</ele>
        <time>2014-05-29T10:47:51Z</time>
      </trkpt>
      <trkpt lat="59.8427751" lon="17.6544048">
        <ele>0</ele>
        <time>2014-05-29T10:47:52Z</time>
      </trkpt>
      <trkpt lat="59.8427243" lon="17.6544676">
        <ele>0</ele>
        <time>2014-05-29T10:47:53Z</time>
      </trkpt>
      <trkpt lat="59.8426752" lon="17.6545307">
        <ele>0</ele>
        <time>2014-05-29T10:47:54Z</time>
      </trkpt>
      <trkpt lat="59.8426267" lon="17.6545947">
        <ele>0</ele>
        <time>2014-05-29T10:47:55Z</time>
      </trkpt>
      <trkpt lat="59.8425767" lon="17.6546602">
        <ele>0</ele>
        <time>2014-05-29T10:47:56Z</time>
      </trkpt>
      <trkpt lat="59.8425253" lon="17.6547264">
        <ele>0</ele>
        <time>2014-05-29T10:47:57Z</time>
      </trkpt>
      <trkpt lat="59.8424732" lon="17.6547939">
        <ele>0</ele>
        <time>2014-05-29T10:47:58Z</time>
      </trkpt>
      <trkpt lat="59.8424208" lon="17.6548622">
        <ele>0</ele>
        <time>2014-05-29T10:47:59Z</time>
      </trkpt>
      <trkpt lat="59.8423679" lon="17.6549295">
        <ele>0</ele>
        <time>2014-05-29T10:48:00Z</time>
      </trkpt>
      <trkpt lat="59.8423145" lon="17.6549953">
        <ele>0</ele>
        <time>2014-05-29T10:48:01Z</time>
      </trkpt>
      <trkpt lat="59.8422618" lon="17.6550601">
        <ele>0</ele>
        <time>2014-05-29T10:48:02Z</time>
      </trkpt>
      <trkpt lat="59.8422094" lon="17.6551259">
        <ele>0</ele>
        <time>2014-05-29T10:48:03Z</time>
      </trkpt>
      <trkpt lat="59.8421556" lon="17.6551963">
        <ele>0</ele>
        <time>2014-05-29T10:48:04Z</time>
      </trkpt>
      <trkpt lat="59.8421011" lon="17.6552718">
        <ele>0</ele>
        <time>2014-05-29T10:48:05Z</time>
      </trkpt>
      <trkpt lat="59.8420452" lon="17.6553464">
        <ele>0</ele>
        <time>2014-05-29T10:48:06Z</time>
      </trkpt>
      <trkpt lat="59.841989" lon="17.6554204">
        <ele>0</ele>
        <time>2014-05-29T10:48:07Z</time>
      </trkpt>
      <trkpt lat="59.8419328" lon="17.6554988">
        <ele>0</ele>
        <time>2014-05-29T10:48:08Z</time>
      </trkpt>
      <trkpt lat="59.8418794" lon="17.6555828">
        <ele>0</ele>
        <time>2014-05-29T10:48:09Z</time>
      </trkpt>
      <trkpt lat="59.8418324" lon="17.6556865">
        <ele>0</ele>
        <time>2014-05-29T10:48:10Z</time>
      </trkpt>
      <trkpt lat="59.8417815" lon="17.6557635">
        <ele>0</ele>
        <time>2014-05-29T10:48:11Z</time>
      </trkpt>
      <trkpt lat="59.8417168" lon="17.6558937">
        <ele>0</ele>
        <time>2014-05-29T10:48:12Z</time>
      </trkpt>
      <trkpt lat="59.8416609" lon="17.6559981">
        <ele>0</ele>
        <time>2014-05-29T10:48:13Z</time>
      </trkpt>
      <trkpt lat="59.8416178" lon="17.6561097">
        <ele>0</ele>
        <time>2014-05-29T10:48:14Z</time>
      </trkpt>
      <trkpt lat="59.8415675" lon="17.6561793">
        <ele>0</ele>
        <time>2014-05-29T10:48:15Z</time>
      </trkpt>
      <trkpt lat="59.8415167" lon="17.6562418">
        <ele>0</ele>
        <time>2014-05-29T10:48:16Z</time>
      </trkpt>
      <trkpt lat="59.8414672" lon="17.6563049">
        <ele>0</ele>
        <time>2014-05-29T10:48:17Z</time>
      </trkpt>
      <trkpt lat="59.8414208" lon="17.6563677">
        <ele>0</ele>
        <time>2014-05-29T10:48:18Z</time>
      </trkpt>
      <trkpt lat="59.841377" lon="17.6564318">
        <ele>0</ele>
        <time>2014-05-29T10:48:19Z</time>
      </trkpt>
      <trkpt lat="59.8413328" lon="17.6564913">
        <ele>0</ele>
        <time>2014-05-29T10:48:20Z</time>
      </trkpt>
      <trkpt lat="59.8412883" lon="17.6565424">
        <ele>0</ele>
        <time>2014-05-29T10:48:21Z</time>
      </trkpt>
      <trkpt lat="59.8412366" lon="17.6565912">
        <ele>0</ele>
        <time>2014-05-29T10:48:22Z</time>
      </trkpt>
      <trkpt lat="59.8411936" lon="17.6566121">
        <ele>0</ele>
        <time>2014-05-29T10:48:23Z</time>
      </trkpt>
      <trkpt lat="59.8411538" lon="17.656627">
        <ele>0</ele>
        <time>2014-05-29T10:48:24Z</time>
      </trkpt>
      <trkpt lat="59.841115" lon="17.656657">
        <ele>0</ele>
        <time>2014-05-29T10:48:25Z</time>
      </trkpt>
      <trkpt lat="59.8410852" lon="17.6566829">
        <ele>0</ele>
        <time>2014-05-29T10:48:26Z</time>
      </trkpt>
      <trkpt lat="59.8410546" lon="17.6567049">
        <ele>0</ele>
        <time>2014-05-29T10:48:27Z</time>
      </trkpt>
      <trkpt lat="59.841032" lon="17.6567114">
        <ele>0</ele>
        <time>2014-05-29T10:48:28Z</time>
      </trkpt>
      <trkpt lat="59.8410074" lon="17.6567145">
        <ele>0</ele>
        <time>2014-05-29T10:48:29Z</time>
      </trkpt>
      <trkpt lat="59.8409901" lon="17.6567165">
        <ele>0</ele>
        <time>2014-05-29T10:48:30Z</time>
      </trkpt>
      <trkpt lat="59.8409696" lon="17.6567085">
        <ele>0</ele>
        <time>2014-05-29T10:48:31Z</time>
      </trkpt>
      <trkpt lat="59.8409572" lon="17.6567009">
        <ele>0</ele>
        <time>2014-05-29T10:48:32Z</time>
      </trkpt>
      <trkpt lat="59.840948" lon="17.656708">
        <ele>0</ele>
        <time>2014-05-29T10:48:33Z</time>
      </trkpt>
      <trkpt lat="59.8409432" lon="17.6567188">
        <ele>0</ele>
        <time>2014-05-29T10:48:34Z</time>
      </trkpt>
      <trkpt lat="59.8409424" lon="17.656729">
        <ele>0.137451</ele>
        <time>2014-05-29T10:48:35Z</time>
      </trkpt>
      <trkpt lat="59.840947" lon="17.6567359">
        <ele>0.618042</ele>
        <time>2014-05-29T10:48:36Z</time>
      </trkpt>
      <trkpt lat="59.8409569" lon="17.6567391">
        <ele>1.09863</ele>
        <time>2014-05-29T10:48:37Z</time>
      </trkpt>
      <trkpt lat="59.8409684" lon="17.6567351">
        <ele>1.57935</ele>
        <time>2014-05-29T10:48:38Z</time>
      </trkpt>
      <trkpt lat="59.8409753" lon="17.6567039">
        <ele>2.06006</ele>
        <time>2014-05-29T10:48:39Z</time>
      </trkpt>
      <trkpt lat="59.840976" lon="17.6566572">
        <ele>2.06006</ele>
        <time>2014-05-29T10:48:40Z</time>
      </trkpt>
      <trkpt lat="59.8409737" lon="17.6566098">
        <ele>2.06006</ele>
        <time>2014-05-29T10:48:41Z</time>
      </trkpt>
      <trkpt lat="59.8409766" lon="17.6565618">
        <ele>2.54065</ele>
        <time>2014-05-29T10:48:42Z</time>
      </trkpt>
      <trkpt lat="59.840989" lon="17.6565094">
        <ele>3.02124</ele>
        <time>2014-05-29T10:48:43Z</time>
      </trkpt>
      <trkpt lat="59.8409958" lon="17.6564461">
        <ele>3.02124</ele>
        <time>2014-05-29T10:48:44Z</time>
      </trkpt>
      <trkpt lat="59.840993" lon="17.6563736">
        <ele>3.02124</ele>
        <time>2014-05-29T10:48:45Z</time>
      </trkpt>
      <trkpt lat="59.8409847" lon="17.6562935">
        <ele>2.54065</ele>
        <time>2014-05-29T10:48:46Z</time>
      </trkpt>
      <trkpt lat="59.8409765" lon="17.6562088">
        <ele>2.54065</ele>
        <time>2014-05-29T10:48:47Z</time>
      </trkpt>
      <trkpt lat="59.8409688" lon="17.6561236">
        <ele>3.02124</ele>
        <time>2014-05-29T10:48:48Z</time>
      </trkpt>
      <trkpt lat="59.8409584" lon="17.656035">
        <ele>2.54065</ele>
        <time>2014-05-29T10:48:49Z</time>
      </trkpt>
      <trkpt lat="59.8409439" lon="17.6559442">
        <ele>2.06006</ele>
        <time>2014-05-29T10:48:50Z</time>
      </trkpt>
      <trkpt lat="59.8409267" lon="17.6558431">
        <ele>2.54065</ele>
        <time>2014-05-29T10:48:51Z</time>
      </trkpt>
      <trkpt lat="59.8409175" lon="17.6557424">
        <ele>3.50195</ele>
        <time>2014-05-29T10:48:52Z</time>
      </trkpt>
      <trkpt lat="59.8409097" lon="17.6556476">
        <ele>3.50195</ele>
        <time>2014-05-29T10:48:53Z</time>
      </trkpt>
      <trkpt lat="59.8409024" lon="17.6555563">
        <ele>3.98267</ele>
        <time>2014-05-29T10:48:54Z</time>
      </trkpt>
      <trkpt lat="59.8408958" lon="17.6554753">
        <ele>3.98267</ele>
        <time>2014-05-29T10:48:55Z</time>
      </trkpt>
      <trkpt lat="59.8408868" lon="17.6554028">
        <ele>3.98267</ele>
        <time>2014-05-29T10:48:56Z</time>
      </trkpt>
      <trkpt lat="59.8408771" lon="17.655333">
        <ele>3.98267</ele>
        <time>2014-05-29T10:48:57Z</time>
      </trkpt>
      <trkpt lat="59.8408693" lon="17.6552678">
        <ele>3.98267</ele>
        <time>2014-05-29T10:48:58Z</time>
      </trkpt>
      <trkpt lat="59.8408634" lon="17.6552067">
        <ele>3.98267</ele>
        <time>2014-05-29T10:48:59Z</time>
      </trkpt>
      <trkpt lat="59.8408606" lon="17.6551471">
        <ele>3.50195</ele>
        <time>2014-05-29T10:49:00Z</time>
      </trkpt>
      <trkpt lat="59.8408626" lon="17.6550787">
        <ele>3.02124</ele>
        <time>2014-05-29T10:49:01Z</time>
      </trkpt>
      <trkpt lat="59.8408692" lon="17.655006">
        <ele>2.54065</ele>
        <time>2014-05-29T10:49:02Z</time>
      </trkpt>
      <trkpt lat="59.8408735" lon="17.6549342">
        <ele>1.57935</ele>
        <time>2014-05-29T10:49:03Z</time>
      </trkpt>
      <trkpt lat="59.8408758" lon="17.6548555">
        <ele>0.618042</ele>
        <time>2014-05-29T10:49:04Z</time>
      </trkpt>
      <trkpt lat="59.8408719" lon="17.654759">
        <ele>0</ele>
        <time>2014-05-29T10:49:05Z</time>
      </trkpt>
      <trkpt lat="59.8408605" lon="17.6546505">
        <ele>0</ele>
        <time>2014-05-29T10:49:06Z</time>
      </trkpt>
      <trkpt lat="59.8408422" lon="17.6545451">
        <ele>0</ele>
        <time>2014-05-29T10:49:07Z</time>
      </trkpt>
      <trkpt lat="59.8408275" lon="17.6544343">
        <ele>0</ele>
        <time>2014-05-29T10:49:08Z</time>
      </trkpt>
      <trkpt lat="59.8408108" lon="17.654314">
        <ele>0</ele>
        <time>2014-05-29T10:49:09Z</time>
      </trkpt>
      <trkpt lat="59.8407952" lon="17.6542007">
        <ele>0</ele>
        <time>2014-05-29T10:49:10Z</time>
      </trkpt>
      <trkpt lat="59.8407842" lon="17.654096">
        <ele>0</ele>
        <time>2014-05-29T10:49:11Z</time>
      </trkpt>
      <trkpt lat="59.8407756" lon="17.6539951">
        <ele>0</ele>
        <time>2014-05-29T10:49:12Z</time>
      </trkpt>
      <trkpt lat="59.8407636" lon="17.6538992">
        <ele>0</ele>
        <time>2014-05-29T10:49:13Z</time>
      </trkpt>
      <trkpt lat="59.840748" lon="17.6538091">
        <ele>0</ele>
        <time>2014-05-29T10:49:14Z</time>
      </trkpt>
      <trkpt lat="59.8407427" lon="17.6537296">
        <ele>0</ele>
        <time>2014-05-29T10:49:15Z</time>
      </trkpt>
      <trkpt lat="59.8407371" lon="17.6536615">
        <ele>0</ele>
        <time>2014-05-29T10:49:16Z</time>
      </trkpt>
      <trkpt lat="59.8407259" lon="17.6536027">
        <ele>0</ele>
        <time>2014-05-29T10:49:17Z</time>
      </trkpt>
      <trkpt lat="59.8406994" lon="17.6535646">
        <ele>0</ele>
        <time>2014-05-29T10:49:18Z</time>
      </trkpt>
      <trkpt lat="59.840679" lon="17.6535484">
        <ele>0</ele>
        <time>2014-05-29T10:49:19Z</time>
      </trkpt>
      <trkpt lat="59.8406506" lon="17.6535357">
        <ele>0</ele>
        <time>2014-05-29T10:49:20Z</time>
      </trkpt>
      <trkpt lat="59.8406262" lon="17.6535387">
        <ele>0</ele>
        <time>2014-05-29T10:49:21Z</time>
      </trkpt>
      <trkpt lat="59.8405928" lon="17.6535397">
        <ele>0</ele>
        <time>2014-05-29T10:49:22Z</time>
      </trkpt>
      <trkpt lat="59.840559" lon="17.6535418">
        <ele>0</ele>
        <time>2014-05-29T10:49:23Z</time>
      </trkpt>
      <trkpt lat="59.840522" lon="17.6535264">
        <ele>0.137451</ele>
        <time>2014-05-29T10:49:24Z</time>
      </trkpt>
      <trkpt lat="59.8404869" lon="17.6535112">
        <ele>0.618042</ele>
        <time>2014-05-29T10:49:25Z</time>
      </trkpt>
      <trkpt lat="59.8404491" lon="17.6534979">
        <ele>1.09863</ele>
        <time>2014-05-29T10:49:26Z</time>
      </trkpt>
      <trkpt lat="59.8404096" lon="17.6534908">
        <ele>1.57935</ele>
        <time>2014-05-29T10:49:27Z</time>
      </trkpt>
      <trkpt lat="59.8403688" lon="17.6534844">
        <ele>1.57935</ele>
        <time>2014-05-29T10:49:28Z</time>
      </trkpt>
      <trkpt lat="59.8403299" lon="17.6534822">
        <ele>1.57935</ele>
        <time>2014-05-29T10:49:29Z</time>
      </trkpt>
      <trkpt lat="59.8402897" lon="17.6534811">
        <ele>1.57935</ele>
        <time>2014-05-29T10:49:30Z</time>
      </trkpt>
      <trkpt lat="59.8402494" lon="17.6534832">
        <ele>1.57935</ele>
        <time>2014-05-29T10:49:31Z</time>
      </trkpt>
      <trkpt lat="59.8402064" lon="17.6534886">
        <ele>2.06006</ele>
        <time>2014-05-29T10:49:32Z</time>
      </trkpt>
      <trkpt lat="59.8401653" lon="17.6534926">
        <ele>2.54065</ele>
        <time>2014-05-29T10:49:33Z</time>
      </trkpt>
      <trkpt lat="59.8401263" lon="17.6535017">
        <ele>2.06006</ele>
        <time>2014-05-29T10:49:34Z</time>
      </trkpt>
      <trkpt lat="59.8400907" lon="17.6535069">
        <ele>2.06006</ele>
        <time>2014-05-29T10:49:35Z</time>
      </trkpt>
      <trkpt lat="59.8400514" lon="17.6535093">
        <ele>2.06006</ele>
        <time>2014-05-29T10:49:36Z</time>
      </trkpt>
      <trkpt lat="59.8400109" lon="17.6535133">
        <ele>1.57935</ele>
        <time>2014-05-29T10:49:37Z</time>
      </trkpt>
      <trkpt lat="59.8399701" lon="17.6535222">
        <ele>1.57935</ele>
        <time>2014-05-29T10:49:38Z</time>
      </trkpt>
      <trkpt lat="59.8399277" lon="17.6535324">
        <ele>2.06006</ele>
        <time>2014-05-29T10:49:39Z</time>
      </trkpt>
      <trkpt lat="59.8398857" lon="17.6535381">
        <ele>2.06006</ele>
        <time>2014-05-29T10:49:40Z</time>
      </trkpt>
      <trkpt lat="59.8398338" lon="17.6535651">
        <ele>2.54065</ele>
        <time>2014-05-29T10:49:41Z</time>
      </trkpt>
      <trkpt lat="59.839786" lon="17.6535859">
        <ele>3.02124</ele>
        <time>2014-05-29T10:49:42Z</time>
      </trkpt>
      <trkpt lat="59.8397401" lon="17.6535958">
        <ele>3.50195</ele>
        <time>2014-05-29T10:49:43Z</time>
      </trkpt>
      <trkpt lat="59.8396929" lon="17.6536066">
        <ele>4.46326</ele>
        <time>2014-05-29T10:49:44Z</time>
      </trkpt>
      <trkpt lat="59.8396507" lon="17.6536128">
        <ele>4.46326</ele>
        <time>2014-05-29T10:49:45Z</time>
      </trkpt>
      <trkpt lat="59.8396072" lon="17.6536247">
        <ele>4.94385</ele>
        <time>2014-05-29T10:49:46Z</time>
      </trkpt>
      <trkpt lat="59.8395644" lon="17.6536367">
        <ele>4.94385</ele>
        <time>2014-05-29T10:49:47Z</time>
      </trkpt>
      <trkpt lat="59.8395229" lon="17.65365">
        <ele>5.42456</ele>
        <time>2014-05-29T10:49:48Z</time>
      </trkpt>
      <trkpt lat="59.8394873" lon="17.6536578">
        <ele>6.38586</ele>
        <time>2014-05-29T10:49:49Z</time>
      </trkpt>
      <trkpt lat="59.8394521" lon="17.6536634">
        <ele>6.86646</ele>
        <time>2014-05-29T10:49:50Z</time>
      </trkpt>
      <trkpt lat="59.8394171" lon="17.6536629">
        <ele>6.86646</ele>
        <time>2014-05-29T10:49:51Z</time>
      </trkpt>
      <trkpt lat="59.839383" lon="17.6536633">
        <ele>6.86646</ele>
        <time>2014-05-29T10:49:52Z</time>
      </trkpt>
      <trkpt lat="59.8393437" lon="17.6536661">
        <ele>6.86646</ele>
        <time>2014-05-29T10:49:53Z</time>
      </trkpt>
      <trkpt lat="59.839299" lon="17.6536698">
        <ele>7.82788</ele>
        <time>2014-05-29T10:49:54Z</time>
      </trkpt>
      <trkpt lat="59.839256" lon="17.6536656">
        <ele>8.78918</ele>
        <time>2014-05-29T10:49:55Z</time>
      </trkpt>
      <trkpt lat="59.8392153" lon="17.6536541">
        <ele>9.2699</ele>
        <time>2014-05-29T10:49:56Z</time>
      </trkpt>
      <trkpt lat="59.839178" lon="17.6536437">
        <ele>9.2699</ele>
        <time>2014-05-29T10:49:57Z</time>
      </trkpt>
      <trkpt lat="59.8391403" lon="17.6536309">
        <ele>9.75061</ele>
        <time>2014-05-29T10:49:58Z</time>
      </trkpt>
      <trkpt lat="59.8391019" lon="17.653619">
        <ele>9.75061</ele>
        <time>2014-05-29T10:49:59Z</time>
      </trkpt>
      <trkpt lat="59.8390631" lon="17.6536117">
        <ele>10.2312</ele>
        <time>2014-05-29T10:50:00Z</time>
      </trkpt>
      <trkpt lat="59.8390246" lon="17.6536038">
        <ele>10.2312</ele>
        <time>2014-05-29T10:50:01Z</time>
      </trkpt>
      <trkpt lat="59.8389859" lon="17.6535903">
        <ele>10.7118</ele>
        <time>2014-05-29T10:50:02Z</time>
      </trkpt>
      <trkpt lat="59.8389476" lon="17.6535779">
        <ele>11.1925</ele>
        <time>2014-05-29T10:50:03Z</time>
      </trkpt>
      <trkpt lat="59.8389097" lon="17.6535677">
        <ele>12.1538</ele>
        <time>2014-05-29T10:50:04Z</time>
      </trkpt>
      <trkpt lat="59.8388723" lon="17.6535579">
        <ele>12.1538</ele>
        <time>2014-05-29T10:50:05Z</time>
      </trkpt>
      <trkpt lat="59.8388347" lon="17.6535479">
        <ele>12.6344</ele>
        <time>2014-05-29T10:50:06Z</time>
      </trkpt>
      <trkpt lat="59.8387968" lon="17.6535407">
        <ele>13.1151</ele>
        <time>2014-05-29T10:50:07Z</time>
      </trkpt>
      <trkpt lat="59.8387583" lon="17.6535373">
        <ele>14.0764</ele>
        <time>2014-05-29T10:50:08Z</time>
      </trkpt>
      <trkpt lat="59.8387216" lon="17.6535372">
        <ele>14.557</ele>
        <time>2014-05-29T10:50:09Z</time>
      </trkpt>
      <trkpt lat="59.8386853" lon="17.6535404">
        <ele>14.557</ele>
        <time>2014-05-29T10:50:10Z</time>
      </trkpt>
      <trkpt lat="59.8386491" lon="17.6535466">
        <ele>15.0377</ele>
        <time>2014-05-29T10:50:11Z</time>
      </trkpt>
      <trkpt lat="59.8386134" lon="17.6535619">
        <ele>15.0377</ele>
        <time>2014-05-29T10:50:12Z</time>
      </trkpt>
      <trkpt lat="59.8385777" lon="17.6535764">
        <ele>15.0377</ele>
        <time>2014-05-29T10:50:13Z</time>
      </trkpt>
      <trkpt lat="59.8385403" lon="17.6535914">
        <ele>15.0377</ele>
        <time>2014-05-29T10:50:14Z</time>
      </trkpt>
      <trkpt lat="59.8385039" lon="17.653606">
        <ele>14.557</ele>
        <time>2014-05-29T10:50:15Z</time>
      </trkpt>
      <trkpt lat="59.8384678" lon="17.6536226">
        <ele>14.557</ele>
        <time>2014-05-29T10:50:16Z</time>
      </trkpt>
      <trkpt lat="59.83843" lon="17.6536362">
        <ele>14.557</ele>
        <time>2014-05-29T10:50:17Z</time>
      </trkpt>
      <trkpt lat="59.8383904" lon="17.653647">
        <ele>14.557</ele>
        <time>2014-05-29T10:50:18Z</time>
      </trkpt>
      <trkpt lat="59.8383471" lon="17.6536633">
        <ele>14.557</ele>
        <time>2014-05-29T10:50:19Z</time>
      </trkpt>
      <trkpt lat="59.8383031" lon="17.6536856">
        <ele>14.0764</ele>
        <time>2014-05-29T10:50:20Z</time>
      </trkpt>
      <trkpt lat="59.8382559" lon="17.6536779">
        <ele>14.0764</ele>
        <time>2014-05-29T10:50:21Z</time>
      </trkpt>
      <trkpt lat="59.8382061" lon="17.6536885">
        <ele>14.0764</ele>
        <time>2014-05-29T10:50:22Z</time>
      </trkpt>
      <trkpt lat="59.8381597" lon="17.6537006">
        <ele>14.557</ele>
        <time>2014-05-29T10:50:23Z</time>
      </trkpt>
      <trkpt lat="59.8381143" lon="17.6537096">
        <ele>14.557</ele>
        <time>2014-05-29T10:50:24Z</time>
      </trkpt>
      <trkpt lat="59.83807" lon="17.6537106">
        <ele>14.557</ele>
        <time>2014-05-29T10:50:25Z</time>
      </trkpt>
      <trkpt lat="59.8380285" lon="17.6536946">
        <ele>14.557</ele>
        <time>2014-05-29T10:50:26Z</time>
      </trkpt>
      <trkpt lat="59.8379901" lon="17.653666">
        <ele>14.557</ele>
        <time>2014-05-29T10:50:27Z</time>
      </trkpt>
      <trkpt lat="59.837954" lon="17.6536324">
        <ele>14.557</ele>
        <time>2014-05-29T10:50:28Z</time>
      </trkpt>
      <trkpt lat="59.8379191" lon="17.6535988">
        <ele>14.557</ele>
        <time>2014-05-29T10:50:29Z</time>
      </trkpt>
      <trkpt lat="59.8378807" lon="17.6535812">
        <ele>14.557</ele>
        <time>2014-05-29T10:50:30Z</time>
      </trkpt>
      <trkpt lat="59.8378429" lon="17.6535677">
        <ele>15.0377</ele>
        <time>2014-05-29T10:50:31Z</time>
      </trkpt>
      <trkpt lat="59.8378074" lon="17.6535507">
        <ele>15.0377</ele>
        <time>2014-05-29T10:50:32Z</time>
      </trkpt>
      <trkpt lat="59.8377758" lon="17.6535347">
        <ele>15.0377</ele>
        <time>2014-05-29T10:50:33Z</time>
      </trkpt>
      <trkpt lat="59.8377446" lon="17.6535289">
        <ele>15.0377</ele>
        <time>2014-05-29T10:50:34Z</time>
      </trkpt>
      <trkpt lat="59.8377136" lon="17.6535201">
        <ele>15.0377</ele>
        <time>2014-05-29T10:50:35Z</time>
      </trkpt>
      <trkpt lat="59.8376872" lon="17.6535057">
        <ele>15.0377</ele>
        <time>2014-05-29T10:50:36Z</time>
      </trkpt>
      <trkpt lat="59.8376577" lon="17.6534878">
        <ele>15.0377</ele>
        <time>2014-05-29T10:50:37Z</time>
      </trkpt>
      <trkpt lat="59.8376248" lon="17.6534724">
        <ele>15.0377</ele>
        <time>2014-05-29T10:50:38Z</time>
      </trkpt>
      <trkpt lat="59.8375882" lon="17.6534541">
        <ele>15.0377</ele>
        <time>2014-05-29T10:50:39Z</time>
      </trkpt>
      <trkpt lat="59.8375497" lon="17.6534345">
        <ele>15.0377</ele>
        <time>2014-05-29T10:50:40Z</time>
      </trkpt>
      <trkpt lat="59.8375065" lon="17.6534112">
        <ele>15.999</ele>
        <time>2014-05-29T10:50:41Z</time>
      </trkpt>
      <trkpt lat="59.837467" lon="17.6533942">
        <ele>16.9604</ele>
        <time>2014-05-29T10:50:42Z</time>
      </trkpt>
      <trkpt lat="59.8374256" lon="17.6533828">
        <ele>16.9604</ele>
        <time>2014-05-29T10:50:43Z</time>
      </trkpt>
      <trkpt lat="59.8373821" lon="17.6533679">
        <ele>16.9604</ele>
        <time>2014-05-29T10:50:44Z</time>
      </trkpt>
      <trkpt lat="59.8373359" lon="17.6533481">
        <ele>16.9604</ele>
        <time>2014-05-29T10:50:45Z</time>
      </trkpt>
      <trkpt lat="59.8372886" lon="17.6533243">
        <ele>16.9604</ele>
        <time>2014-05-29T10:50:46Z</time>
      </trkpt>
      <trkpt lat="59.8372407" lon="17.6533042">
        <ele>16.9604</ele>
        <time>2014-05-29T10:50:47Z</time>
      </trkpt>
      <trkpt lat="59.8371819" lon="17.6532973">
        <ele>16.4797</ele>
        <time>2014-05-29T10:50:48Z</time>
      </trkpt>
      <trkpt lat="59.8371235" lon="17.6532958">
        <ele>16.4797</ele>
        <time>2014-05-29T10:50:49Z</time>
      </trkpt>
      <trkpt lat="59.8370693" lon="17.653258">
        <ele>16.4797</ele>
        <time>2014-05-29T10:50:50Z</time>
      </trkpt>
      <trkpt lat="59.8370214" lon="17.6532277">
        <ele>15.999</ele>
        <time>2014-05-29T10:50:51Z</time>
      </trkpt>
      <trkpt lat="59.8369683" lon="17.6531987">
        <ele>16.4797</ele>
        <time>2014-05-29T10:50:52Z</time>
      </trkpt>
      <trkpt lat="59.8369185" lon="17.6531796">
        <ele>16.4797</ele>
        <time>2014-05-29T10:50:53Z</time>
      </trkpt>
      <trkpt lat="59.8368675" lon="17.6531544">
        <ele>16.4797</ele>
        <time>2014-05-29T10:50:54Z</time>
      </trkpt>
      <trkpt lat="59.8368154" lon="17.6531401">
        <ele>16.9604</ele>
        <time>2014-05-29T10:50:55Z</time>
      </trkpt>
      <trkpt lat="59.8367672" lon="17.6531236">
        <ele>16.4797</ele>
        <time>2014-05-29T10:50:56Z</time>
      </trkpt>
      <trkpt lat="59.8367195" lon="17.6531035">
        <ele>15.5184</ele>
        <time>2014-05-29T10:50:57Z</time>
      </trkpt>
      <trkpt lat="59.8366712" lon="17.6530723">
        <ele>15.0377</ele>
        <time>2014-05-29T10:50:58Z</time>
      </trkpt>
      <trkpt lat="59.8366221" lon="17.653045">
        <ele>15.0377</ele>
        <time>2014-05-29T10:50:59Z</time>
      </trkpt>
      <trkpt lat="59.83658" lon="17.6530089">
        <ele>14.557</ele>
        <time>2014-05-29T10:51:00Z</time>
      </trkpt>
      <trkpt lat="59.836548" lon="17.6529508">
        <ele>14.557</ele>
        <time>2014-05-29T10:51:01Z</time>
      </trkpt>
      <trkpt lat="59.8365199" lon="17.6528926">
        <ele>14.557</ele>
        <time>2014-05-29T10:51:02Z</time>
      </trkpt>
      <trkpt lat="59.8364931" lon="17.6528378">
        <ele>15.5184</ele>
        <time>2014-05-29T10:51:03Z</time>
      </trkpt>
      <trkpt lat="59.8364704" lon="17.6527877">
        <ele>15.0377</ele>
        <time>2014-05-29T10:51:04Z</time>
      </trkpt>
      <trkpt lat="59.8364484" lon="17.6527333">
        <ele>15.0377</ele>
        <time>2014-05-29T10:51:05Z</time>
      </trkpt>
      <trkpt lat="59.836432" lon="17.6526717">
        <ele>14.557</ele>
        <time>2014-05-29T10:51:06Z</time>
      </trkpt>
      <trkpt lat="59.8364181" lon="17.6526073">
        <ele>15.0377</ele>
        <time>2014-05-29T10:51:07Z</time>
      </trkpt>
      <trkpt lat="59.8364072" lon="17.6525367">
        <ele>15.0377</ele>
        <time>2014-05-29T10:51:08Z</time>
      </trkpt>
      <trkpt lat="59.8364002" lon="17.6524649">
        <ele>14.557</ele>
        <time>2014-05-29T10:51:09Z</time>
      </trkpt>
      <trkpt lat="59.8364031" lon="17.6523964">
        <ele>15.5184</ele>
        <time>2014-05-29T10:51:10Z</time>
      </trkpt>
      <trkpt lat="59.8364037" lon="17.6523229">
        <ele>15.999</ele>
        <time>2014-05-29T10:51:11Z</time>
      </trkpt>
      <trkpt lat="59.8364093" lon="17.6522499">
        <ele>16.4797</ele>
        <time>2014-05-29T10:51:12Z</time>
      </trkpt>
      <trkpt lat="59.8364176" lon="17.6521763">
        <ele>17.4412</ele>
        <time>2014-05-29T10:51:13Z</time>
      </trkpt>
      <trkpt lat="59.8364306" lon="17.6521064">
        <ele>17.9218</ele>
        <time>2014-05-29T10:51:14Z</time>
      </trkpt>
      <trkpt lat="59.8364434" lon="17.6520352">
        <ele>18.4023</ele>
        <time>2014-05-29T10:51:15Z</time>
      </trkpt>
      <trkpt lat="59.8364548" lon="17.6519641">
        <ele>18.8831</ele>
        <time>2014-05-29T10:51:16Z</time>
      </trkpt>
      <trkpt lat="59.8364665" lon="17.6518955">
        <ele>19.3638</ele>
        <time>2014-05-29T10:51:17Z</time>
      </trkpt>
      <trkpt lat="59.8364797" lon="17.6518293">
        <ele>19.8444</ele>
        <time>2014-05-29T10:51:18Z</time>
      </trkpt>
      <trkpt lat="59.8364961" lon="17.6517662">
        <ele>20.325</ele>
        <time>2014-05-29T10:51:19Z</time>
      </trkpt>
      <trkpt lat="59.8365114" lon="17.6517047">
        <ele>20.8057</ele>
        <time>2014-05-29T10:51:20Z</time>
      </trkpt>
      <trkpt lat="59.8365241" lon="17.6516416">
        <ele>21.2864</ele>
        <time>2014-05-29T10:51:21Z</time>
      </trkpt>
      <trkpt lat="59.8365356" lon="17.6515786">
        <ele>21.767</ele>
        <time>2014-05-29T10:51:22Z</time>
      </trkpt>
      <trkpt lat="59.8365472" lon="17.6515174">
        <ele>21.767</ele>
        <time>2014-05-29T10:51:23Z</time>
      </trkpt>
      <trkpt lat="59.8365595" lon="17.6514578">
        <ele>22.2476</ele>
        <time>2014-05-29T10:51:24Z</time>
      </trkpt>
      <trkpt lat="59.836575" lon="17.6514007">
        <ele>23.209</ele>
        <time>2014-05-29T10:51:25Z</time>
      </trkpt>
      <trkpt lat="59.8365872" lon="17.6513421">
        <ele>23.6896</ele>
        <time>2014-05-29T10:51:26Z</time>
      </trkpt>
      <trkpt lat="59.8366004" lon="17.6512848">
        <ele>24.1703</ele>
        <time>2014-05-29T10:51:27Z</time>
      </trkpt>
      <trkpt lat="59.8366164" lon="17.6512337">
        <ele>24.651</ele>
        <time>2014-05-29T10:51:28Z</time>
      </trkpt>
      <trkpt lat="59.8366299" lon="17.6511787">
        <ele>25.1317</ele>
        <time>2014-05-29T10:51:29Z</time>
      </trkpt>
      <trkpt lat="59.8366429" lon="17.6511248">
        <ele>25.6123</ele>
        <time>2014-05-29T10:51:30Z</time>
      </trkpt>
      <trkpt lat="59.8366543" lon="17.6510734">
        <ele>26.0929</ele>
        <time>2014-05-29T10:51:31Z</time>
      </trkpt>
      <trkpt lat="59.8366649" lon="17.6510212">
        <ele>27.0543</ele>
        <time>2014-05-29T10:51:32Z</time>
      </trkpt>
      <trkpt lat="59.8366753" lon="17.6509694">
        <ele>27.5349</ele>
        <time>2014-05-29T10:51:33Z</time>
      </trkpt>
      <trkpt lat="59.8366853" lon="17.6509174">
        <ele>27.5349</ele>
        <time>2014-05-29T10:51:34Z</time>
      </trkpt>
      <trkpt lat="59.8366948" lon="17.6508651">
        <ele>28.4962</ele>
        <time>2014-05-29T10:51:35Z</time>
      </trkpt>
      <trkpt lat="59.836704" lon="17.6508145">
        <ele>28.9769</ele>
        <time>2014-05-29T10:51:36Z</time>
      </trkpt>
      <trkpt lat="59.8367138" lon="17.6507642">
        <ele>29.4575</ele>
        <time>2014-05-29T10:51:37Z</time>
      </trkpt>
      <trkpt lat="59.8367277" lon="17.6507176">
        <ele>29.9381</ele>
        <time>2014-05-29T10:51:38Z</time>
      </trkpt>
      <trkpt lat="59.8367432" lon="17.6506724">
        <ele>30.4188</ele>
        <time>2014-05-29T10:51:39Z</time>
      </trkpt>
      <trkpt lat="59.8367592" lon="17.6506249">
        <ele>30.4188</ele>
        <time>2014-05-29T10:51:40Z</time>
      </trkpt>
      <trkpt lat="59.836776" lon="17.6505752">
        <ele>30.8995</ele>
        <time>2014-05-29T10:51:41Z</time>
      </trkpt>
      <trkpt lat="59.8367896" lon="17.6505222">
        <ele>31.3801</ele>
        <time>2014-05-29T10:51:42Z</time>
      </trkpt>
      <trkpt lat="59.8368022" lon="17.6504674">
        <ele>31.3801</ele>
        <time>2014-05-29T10:51:43Z</time>
      </trkpt>
      <trkpt lat="59.8368102" lon="17.6504097">
        <ele>30.8995</ele>
        <time>2014-05-29T10:51:44Z</time>
      </trkpt>
      <trkpt lat="59.8368211" lon="17.6503525">
        <ele>30.4188</ele>
        <time>2014-05-29T10:51:45Z</time>
      </trkpt>
      <trkpt lat="59.8368308" lon="17.6502933">
        <ele>30.4188</ele>
        <time>2014-05-29T10:51:46Z</time>
      </trkpt>
      <trkpt lat="59.8368442" lon="17.6502348">
        <ele>30.4188</ele>
        <time>2014-05-29T10:51:47Z</time>
      </trkpt>
      <trkpt lat="59.836866" lon="17.6501842">
        <ele>30.4188</ele>
        <time>2014-05-29T10:51:48Z</time>
      </trkpt>
      <trkpt lat="59.8368915" lon="17.6501432">
        <ele>30.4188</ele>
        <time>2014-05-29T10:51:49Z</time>
      </trkpt>
      <trkpt lat="59.8369224" lon="17.6501158">
        <ele>30.4188</ele>
        <time>2014-05-29T10:51:50Z</time>
      </trkpt>
      <trkpt lat="59.8369542" lon="17.6501038">
        <ele>30.8995</ele>
        <time>2014-05-29T10:51:51Z</time>
      </trkpt>
      <trkpt lat="59.8369863" lon="17.6501042">
        <ele>30.8995</ele>
        <time>2014-05-29T10:51:52Z</time>
      </trkpt>
      <trkpt lat="59.8370189" lon="17.6501121">
        <ele>30.4188</ele>
        <time>2014-05-29T10:51:53Z</time>
      </trkpt>
      <trkpt lat="59.8370524" lon="17.6501235">
        <ele>30.4188</ele>
        <time>2014-05-29T10:51:54Z</time>
      </trkpt>
      <trkpt lat="59.8370871" lon="17.6501381">
        <ele>30.4188</ele>
        <time>2014-05-29T10:51:55Z</time>
      </trkpt>
      <trkpt lat="59.8371227" lon="17.6501546">
        <ele>29.9381</ele>
        <time>2014-05-29T10:51:56Z</time>
      </trkpt>
      <trkpt lat="59.8371593" lon="17.6501678">
        <ele>29.9381</ele>
        <time>2014-05-29T10:51:57Z</time>
      </trkpt>
      <trkpt lat="59.8371964" lon="17.6501757">
        <ele>29.9381</ele>
        <time>2014-05-29T10:51:58Z</time>
      </trkpt>
      <trkpt lat="59.8372344" lon="17.6501829">
        <ele>29.9381</ele>
        <time>2014-05-29T10:51:59Z</time>
      </trkpt>
      <trkpt lat="59.8372738" lon="17.6501939">
        <ele>29.9381</ele>
        <time>2014-05-29T10:52:00Z</time>
      </trkpt>
      <trkpt lat="59.8373142" lon="17.6502103">
        <ele>29.4575</ele>
        <time>2014-05-29T10:52:01Z</time>
      </trkpt>
      <trkpt lat="59.8373557" lon="17.6502301">
        <ele>29.4575</ele>
        <time>2014-05-29T10:52:02Z</time>
      </trkpt>
      <trkpt lat="59.8373967" lon="17.6502502">
        <ele>29.4575</ele>
        <time>2014-05-29T10:52:03Z</time>
      </trkpt>
      <trkpt lat="59.8374375" lon="17.650269">
        <ele>29.4575</ele>
        <time>2014-05-29T10:52:04Z</time>
      </trkpt>
      <trkpt lat="59.8374784" lon="17.6502846">
        <ele>28.9769</ele>
        <time>2014-05-29T10:52:05Z</time>
      </trkpt>
      <trkpt lat="59.8375199" lon="17.6502975">
        <ele>28.9769</ele>
        <time>2014-05-29T10:52:06Z</time>
      </trkpt>
      <trkpt lat="59.8375617" lon="17.6503135">
        <ele>28.9769</ele>
        <time>2014-05-29T10:52:07Z</time>
      </trkpt>
      <trkpt lat="59.8376037" lon="17.6503329">
        <ele>28.9769</ele>
        <time>2014-05-29T10:52:08Z</time>
      </trkpt>
      <trkpt lat="59.8376461" lon="17.6503551">
        <ele>28.9769</ele>
        <time>2014-05-29T10:52:09Z</time>
      </trkpt>
      <trkpt lat="59.8376893" lon="17.6503777">
        <ele>28.9769</ele>
        <time>2014-05-29T10:52:10Z</time>
      </trkpt>
      <trkpt lat="59.8377331" lon="17.6504016">
        <ele>28.9769</ele>
        <time>2014-05-29T10:52:11Z</time>
      </trkpt>
      <trkpt lat="59.8377779" lon="17.6504254">
        <ele>28.4962</ele>
        <time>2014-05-29T10:52:12Z</time>
      </trkpt>
      <trkpt lat="59.8378227" lon="17.6504475">
        <ele>28.4962</ele>
        <time>2014-05-29T10:52:13Z</time>
      </trkpt>
      <trkpt lat="59.837865" lon="17.6504695">
        <ele>28.9769</ele>
        <time>2014-05-29T10:52:14Z</time>
      </trkpt>
      <trkpt lat="59.8379053" lon="17.6504936">
        <ele>28.9769</ele>
        <time>2014-05-29T10:52:15Z</time>
      </trkpt>
      <trkpt lat="59.8379424" lon="17.6505226">
        <ele>28.9769</ele>
        <time>2014-05-29T10:52:16Z</time>
      </trkpt>
      <trkpt lat="59.8379778" lon="17.6505529">
        <ele>28.4962</ele>
        <time>2014-05-29T10:52:17Z</time>
      </trkpt>
      <trkpt lat="59.838013" lon="17.6505762">
        <ele>28.4962</ele>
        <time>2014-05-29T10:52:18Z</time>
      </trkpt>
      <trkpt lat="59.8380493" lon="17.6505848">
        <ele>28.4962</ele>
        <time>2014-05-29T10:52:19Z</time>
      </trkpt>
      <trkpt lat="59.8380874" lon="17.650595">
        <ele>28.0155</ele>
        <time>2014-05-29T10:52:20Z</time>
      </trkpt>
      <trkpt lat="59.8381266" lon="17.6506164">
        <ele>28.0155</ele>
        <time>2014-05-29T10:52:21Z</time>
      </trkpt>
      <trkpt lat="59.8381669" lon="17.6506266">
        <ele>28.0155</ele>
        <time>2014-05-29T10:52:22Z</time>
      </trkpt>
      <trkpt lat="59.8382056" lon="17.6506223">
        <ele>28.0155</ele>
        <time>2014-05-29T10:52:23Z</time>
      </trkpt>
      <trkpt lat="59.8382425" lon="17.6506155">
        <ele>27.5349</ele>
        <time>2014-05-29T10:52:24Z</time>
      </trkpt>
      <trkpt lat="59.8382807" lon="17.6506221">
        <ele>27.5349</ele>
        <time>2014-05-29T10:52:25Z</time>
      </trkpt>
      <trkpt lat="59.8383202" lon="17.6506425">
        <ele>27.5349</ele>
        <time>2014-05-29T10:52:26Z</time>
      </trkpt>
      <trkpt lat="59.8383622" lon="17.6506673">
        <ele>27.5349</ele>
        <time>2014-05-29T10:52:27Z</time>
      </trkpt>
      <trkpt lat="59.8384075" lon="17.6506948">
        <ele>27.0543</ele>
        <time>2014-05-29T10:52:28Z</time>
      </trkpt>
      <trkpt lat="59.8384548" lon="17.6507259">
        <ele>27.0543</ele>
        <time>2014-05-29T10:52:29Z</time>
      </trkpt>
      <trkpt lat="59.838503" lon="17.6507596">
        <ele>27.0543</ele>
        <time>2014-05-29T10:52:30Z</time>
      </trkpt>
      <trkpt lat="59.8385523" lon="17.6507958">
        <ele>26.5736</ele>
        <time>2014-05-29T10:52:31Z</time>
      </trkpt>
      <trkpt lat="59.8385985" lon="17.6508475">
        <ele>26.5736</ele>
        <time>2014-05-29T10:52:32Z</time>
      </trkpt>
      <trkpt lat="59.8386389" lon="17.6509174">
        <ele>26.5736</ele>
        <time>2014-05-29T10:52:33Z</time>
      </trkpt>
      <trkpt lat="59.8386733" lon="17.6509909">
        <ele>27.0543</ele>
        <time>2014-05-29T10:52:34Z</time>
      </trkpt>
      <trkpt lat="59.838706" lon="17.6510563">
        <ele>27.0543</ele>
        <time>2014-05-29T10:52:35Z</time>
      </trkpt>
      <trkpt lat="59.8387386" lon="17.6511108">
        <ele>27.0543</ele>
        <time>2014-05-29T10:52:36Z</time>
      </trkpt>
      <trkpt lat="59.8387702" lon="17.6511572">
        <ele>27.5349</ele>
        <time>2014-05-29T10:52:37Z</time>
      </trkpt>
      <trkpt lat="59.8388038" lon="17.6511964">
        <ele>28.0155</ele>
        <time>2014-05-29T10:52:38Z</time>
      </trkpt>
      <trkpt lat="59.838838" lon="17.6512316">
        <ele>28.0155</ele>
        <time>2014-05-29T10:52:39Z</time>
      </trkpt>
      <trkpt lat="59.8388683" lon="17.6512636">
        <ele>27.5349</ele>
        <time>2014-05-29T10:52:40Z</time>
      </trkpt>
      <trkpt lat="59.8388991" lon="17.6512968">
        <ele>28.0155</ele>
        <time>2014-05-29T10:52:41Z</time>
      </trkpt>
      <trkpt lat="59.8389268" lon="17.6513335">
        <ele>28.0155</ele>
        <time>2014-05-29T10:52:42Z</time>
      </trkpt>
      <trkpt lat="59.8389542" lon="17.6513708">
        <ele>28.4962</ele>
        <time>2014-05-29T10:52:43Z</time>
      </trkpt>
      <trkpt lat="59.8389796" lon="17.6514118">
        <ele>28.4962</ele>
        <time>2014-05-29T10:52:44Z</time>
      </trkpt>
      <trkpt lat="59.8390024" lon="17.6514605">
        <ele>28.4962</ele>
        <time>2014-05-29T10:52:45Z</time>
      </trkpt>
      <trkpt lat="59.8390226" lon="17.6515123">
        <ele>28.9769</ele>
        <time>2014-05-29T10:52:46Z</time>
      </trkpt>
      <trkpt lat="59.8390398" lon="17.6515651">
        <ele>29.4575</ele>
        <time>2014-05-29T10:52:47Z</time>
      </trkpt>
      <trkpt lat="59.8390563" lon="17.6516201">
        <ele>28.9769</ele>
        <time>2014-05-29T10:52:48Z</time>
      </trkpt>
      <trkpt lat="59.8390724" lon="17.6516827">
        <ele>29.4575</ele>
        <time>2014-05-29T10:52:49Z</time>
      </trkpt>
      <trkpt lat="59.839087" lon="17.6517521">
        <ele>29.4575</ele>
        <time>2014-05-29T10:52:50Z</time>
      </trkpt>
      <trkpt lat="59.8391028" lon="17.6518251">
        <ele>29.4575</ele>
        <time>2014-05-29T10:52:51Z</time>
      </trkpt>
      <trkpt lat="59.8391182" lon="17.6518956">
        <ele>28.9769</ele>
        <time>2014-05-29T10:52:52Z</time>
      </trkpt>
      <trkpt lat="59.8391385" lon="17.6519614">
        <ele>28.4962</ele>
        <time>2014-05-29T10:52:53Z</time>
      </trkpt>
      <trkpt lat="59.8391521" lon="17.6520182">
        <ele>28.4962</ele>
        <time>2014-05-29T10:52:54Z</time>
      </trkpt>
      <trkpt lat="59.8391491" lon="17.6520649">
        <ele>28.4962</ele>
        <time>2014-05-29T10:52:55Z</time>
      </trkpt>
      <trkpt lat="59.8391301" lon="17.6521012">
        <ele>27.5349</ele>
        <time>2014-05-29T10:52:56Z</time>
      </trkpt>
      <trkpt lat="59.8391048" lon="17.6521321">
        <ele>26.5736</ele>
        <time>2014-05-29T10:52:57Z</time>
      </trkpt>
      <trkpt lat="59.8390794" lon="17.6521665">
        <ele>25.6123</ele>
        <time>2014-05-29T10:52:58Z</time>
      </trkpt>
      <trkpt lat="59.8390597" lon="17.6522077">
        <ele>24.651</ele>
        <time>2014-05-29T10:52:59Z</time>
      </trkpt>
      <trkpt lat="59.8390541" lon="17.6522549">
        <ele>24.651</ele>
        <time>2014-05-29T10:53:00Z</time>
      </trkpt>
      <trkpt lat="59.8390563" lon="17.6523182">
        <ele>25.1317</ele>
        <time>2014-05-29T10:53:01Z</time>
      </trkpt>
      <trkpt lat="59.8390558" lon="17.6523965">
        <ele>24.651</ele>
        <time>2014-05-29T10:53:02Z</time>
      </trkpt>
      <trkpt lat="59.8390603" lon="17.6524845">
        <ele>23.6896</ele>
        <time>2014-05-29T10:53:03Z</time>
      </trkpt>
      <trkpt lat="59.8390662" lon="17.6525751">
        <ele>23.209</ele>
        <time>2014-05-29T10:53:04Z</time>
      </trkpt>
      <trkpt lat="59.8390718" lon="17.6526818">
        <ele>22.2476</ele>
        <time>2014-05-29T10:53:05Z</time>
      </trkpt>
      <trkpt lat="59.8390802" lon="17.6528083">
        <ele>21.2864</ele>
        <time>2014-05-29T10:53:06Z</time>
      </trkpt>
      <trkpt lat="59.8390904" lon="17.6529373">
        <ele>20.8057</ele>
        <time>2014-05-29T10:53:07Z</time>
      </trkpt>
      <trkpt lat="59.8390965" lon="17.6530682">
        <ele>19.8444</ele>
        <time>2014-05-29T10:53:08Z</time>
      </trkpt>
      <trkpt lat="59.8391028" lon="17.6531906">
        <ele>19.3638</ele>
        <time>2014-05-29T10:53:09Z</time>
      </trkpt>
      <trkpt lat="59.8391033" lon="17.6533052">
        <ele>18.4023</ele>
        <time>2014-05-29T10:53:10Z</time>
      </trkpt>
      <trkpt lat="59.839104" lon="17.6534165">
        <ele>17.9218</ele>
        <time>2014-05-29T10:53:11Z</time>
      </trkpt>
      <trkpt lat="59.8391009" lon="17.6535157">
        <ele>17.4412</ele>
        <time>2014-05-29T10:53:12Z</time>
      </trkpt>
      <trkpt lat="59.8390977" lon="17.6535956">
        <ele>17.4412</ele>
        <time>2014-05-29T10:53:13Z</time>
      </trkpt>
      <trkpt lat="59.8390992" lon="17.6536573">
        <ele>16.9604</ele>
        <time>2014-05-29T10:53:14Z</time>
      </trkpt>
      <trkpt lat="59.8391006" lon="17.6537077">
        <ele>16.9604</ele>
        <time>2014-05-29T10:53:15Z</time>
      </trkpt>
      <trkpt lat="59.8391019" lon="17.6537453">
        <ele>16.9604</ele>
        <time>2014-05-29T10:53:16Z</time>
      </trkpt>
      <trkpt lat="59.8391118" lon="17.6537657">
        <ele>16.9604</ele>
        <time>2014-05-29T10:53:17Z</time>
      </trkpt>
      <trkpt lat="59.8391227" lon="17.6537719">
        <ele>16.9604</ele>
        <time>2014-05-29T10:53:18Z</time>
      </trkpt>
      <trkpt lat="59.8391267" lon="17.6537711">
        <ele>16.4797</ele>
        <time>2014-05-29T10:53:19Z</time>
      </trkpt>
      <trkpt lat="59.8391273" lon="17.6537702">
        <ele>16.4797</ele>
        <time>2014-05-29T10:53:20Z</time>
      </trkpt>
      <trkpt lat="59.839135" lon="17.6537671">
        <ele>16.4797</ele>
        <time>2014-05-29T10:53:21Z</time>
      </trkpt>
      <trkpt lat="59.8391526" lon="17.6537623">
        <ele>16.9604</ele>
        <time>2014-05-29T10:53:22Z</time>
      </trkpt>
      <trkpt lat="59.8391744" lon="17.6537543">
        <ele>16.9604</ele>
        <time>2014-05-29T10:53:23Z</time>
      </trkpt>
      <trkpt lat="59.8391968" lon="17.6537557">
        <ele>16.9604</ele>
        <time>2014-05-29T10:53:24Z</time>
      </trkpt>
      <trkpt lat="59.8392244" lon="17.653762">
        <ele>17.4412</ele>
        <time>2014-05-29T10:53:25Z</time>
      </trkpt>
      <trkpt lat="59.8392508" lon="17.6537726">
        <ele>16.9604</ele>
        <time>2014-05-29T10:53:26Z</time>
      </trkpt>
      <trkpt lat="59.8392778" lon="17.6537954">
        <ele>16.9604</ele>
        <time>2014-05-29T10:53:27Z</time>
      </trkpt>
      <trkpt lat="59.8393049" lon="17.6538094">
        <ele>16.9604</ele>
        <time>2014-05-29T10:53:28Z</time>
      </trkpt>
      <trkpt lat="59.8393333" lon="17.6538029">
        <ele>16.9604</ele>
        <time>2014-05-29T10:53:29Z</time>
      </trkpt>
      <trkpt lat="59.8393629" lon="17.6537894">
        <ele>16.9604</ele>
        <time>2014-05-29T10:53:30Z</time>
      </trkpt>
      <trkpt lat="59.8393925" lon="17.653777">
        <ele>16.4797</ele>
        <time>2014-05-29T10:53:31Z</time>
      </trkpt>
      <trkpt lat="59.8394236" lon="17.6537677">
        <ele>16.4797</ele>
        <time>2014-05-29T10:53:32Z</time>
      </trkpt>
      <trkpt lat="59.8394563" lon="17.653754">
        <ele>15.999</ele>
        <time>2014-05-29T10:53:33Z</time>
      </trkpt>
      <trkpt lat="59.8394919" lon="17.6537408">
        <ele>15.5184</ele>
        <time>2014-05-29T10:53:34Z</time>
      </trkpt>
      <trkpt lat="59.8395335" lon="17.6537318">
        <ele>15.5184</ele>
        <time>2014-05-29T10:53:35Z</time>
      </trkpt>
      <trkpt lat="59.8395759" lon="17.6537302">
        <ele>15.5184</ele>
        <time>2014-05-29T10:53:36Z</time>
      </trkpt>
      <trkpt lat="59.8396151" lon="17.6537159">
        <ele>15.0377</ele>
        <time>2014-05-29T10:53:37Z</time>
      </trkpt>
      <trkpt lat="59.8396508" lon="17.6536981">
        <ele>14.557</ele>
        <time>2014-05-29T10:53:38Z</time>
      </trkpt>
      <trkpt lat="59.8396863" lon="17.6536846">
        <ele>13.5958</ele>
        <time>2014-05-29T10:53:39Z</time>
      </trkpt>
      <trkpt lat="59.8397283" lon="17.6536818">
        <ele>13.5958</ele>
        <time>2014-05-29T10:53:40Z</time>
      </trkpt>
      <trkpt lat="59.8397681" lon="17.6536838">
        <ele>14.0764</ele>
        <time>2014-05-29T10:53:41Z</time>
      </trkpt>
      <trkpt lat="59.8398059" lon="17.6536784">
        <ele>14.0764</ele>
        <time>2014-05-29T10:53:42Z</time>
      </trkpt>
      <trkpt lat="59.839838" lon="17.6536751">
        <ele>13.5958</ele>
        <time>2014-05-29T10:53:43Z</time>
      </trkpt>
      <trkpt lat="59.839868" lon="17.6536734">
        <ele>13.1151</ele>
        <time>2014-05-29T10:53:44Z</time>
      </trkpt>
      <trkpt lat="59.839894" lon="17.6536786">
        <ele>13.1151</ele>
        <time>2014-05-29T10:53:45Z</time>
      </trkpt>
      <trkpt lat="59.8399165" lon="17.6536898">
        <ele>13.1151</ele>
        <time>2014-05-29T10:53:46Z</time>
      </trkpt>
      <trkpt lat="59.8399411" lon="17.6536929">
        <ele>13.1151</ele>
        <time>2014-05-29T10:53:47Z</time>
      </trkpt>
      <trkpt lat="59.8399596" lon="17.6536887">
        <ele>13.1151</ele>
        <time>2014-05-29T10:53:48Z</time>
      </trkpt>
      <trkpt lat="59.8399717" lon="17.6536693">
        <ele>12.6344</ele>
        <time>2014-05-29T10:53:49Z</time>
      </trkpt>
      <trkpt lat="59.8399779" lon="17.653647">
        <ele>12.6344</ele>
        <time>2014-05-29T10:53:50Z</time>
      </trkpt>
      <trkpt lat="59.8399722" lon="17.6536346">
        <ele>12.6344</ele>
        <time>2014-05-29T10:53:51Z</time>
      </trkpt>
      <trkpt lat="59.8399611" lon="17.6536364">
        <ele>12.1538</ele>
        <time>2014-05-29T10:53:52Z</time>
      </trkpt>
      <trkpt lat="59.8399527" lon="17.653638">
        <ele>11.6732</ele>
        <time>2014-05-29T10:53:53Z</time>
      </trkpt>
      <trkpt lat="59.8399488" lon="17.6536366">
        <ele>11.6732</ele>
        <time>2014-05-29T10:53:54Z</time>
      </trkpt>
      <trkpt lat="59.8399478" lon="17.6536382">
        <ele>11.6732</ele>
        <time>2014-05-29T10:53:55Z</time>
      </trkpt>
      <trkpt lat="59.8400239" lon="17.6536123">
        <ele>13.5958</ele>
        <time>2014-05-29T10:54:18Z</time>
      </trkpt>
      <trkpt lat="59.8400457" lon="17.6535895">
        <ele>13.5958</ele>
        <time>2014-05-29T10:54:19Z</time>
      </trkpt>
      <trkpt lat="59.8400734" lon="17.6535702">
        <ele>14.0764</ele>
        <time>2014-05-29T10:54:20Z</time>
      </trkpt>
      <trkpt lat="59.8401032" lon="17.6535654">
        <ele>13.5958</ele>
        <time>2014-05-29T10:54:21Z</time>
      </trkpt>
      <trkpt lat="59.8401357" lon="17.6535698">
        <ele>13.5958</ele>
        <time>2014-05-29T10:54:22Z</time>
      </trkpt>
      <trkpt lat="59.8401691" lon="17.6535728">
        <ele>13.1151</ele>
        <time>2014-05-29T10:54:23Z</time>
      </trkpt>
      <trkpt lat="59.8402033" lon="17.6535647">
        <ele>13.1151</ele>
        <time>2014-05-29T10:54:24Z</time>
      </trkpt>
      <trkpt lat="59.8402379" lon="17.653548">
        <ele>13.1151</ele>
        <time>2014-05-29T10:54:25Z</time>
      </trkpt>
      <trkpt lat="59.8402761" lon="17.6535326">
        <ele>13.5958</ele>
        <time>2014-05-29T10:54:26Z</time>
      </trkpt>
      <trkpt lat="59.8403128" lon="17.653524">
        <ele>13.1151</ele>
        <time>2014-05-29T10:54:27Z</time>
      </trkpt>
      <trkpt lat="59.8403527" lon="17.6535191">
        <ele>13.5958</ele>
        <time>2014-05-29T10:54:28Z</time>
      </trkpt>
      <trkpt lat="59.8403937" lon="17.6535126">
        <ele>13.5958</ele>
        <time>2014-05-29T10:54:29Z</time>
      </trkpt>
      <trkpt lat="59.8404376" lon="17.6535022">
        <ele>13.5958</ele>
        <time>2014-05-29T10:54:30Z</time>
      </trkpt>
      <trkpt lat="59.8404844" lon="17.6534885">
        <ele>13.5958</ele>
        <time>2014-05-29T10:54:31Z</time>
      </trkpt>
      <trkpt lat="59.8405319" lon="17.6534728">
        <ele>13.5958</ele>
        <time>2014-05-29T10:54:32Z</time>
      </trkpt>
      <trkpt lat="59.8405822" lon="17.65346">
        <ele>13.5958</ele>
        <time>2014-05-29T10:54:33Z</time>
      </trkpt>
      <trkpt lat="59.8406372" lon="17.6534496">
        <ele>13.1151</ele>
        <time>2014-05-29T10:54:34Z</time>
      </trkpt>
      <trkpt lat="59.8406897" lon="17.6534396">
        <ele>13.1151</ele>
        <time>2014-05-29T10:54:35Z</time>
      </trkpt>
      <trkpt lat="59.8407438" lon="17.6534273">
        <ele>13.1151</ele>
        <time>2014-05-29T10:54:36Z</time>
      </trkpt>
      <trkpt lat="59.8407943" lon="17.6534135">
        <ele>13.1151</ele>
        <time>2014-05-29T10:54:37Z</time>
      </trkpt>
      <trkpt lat="59.8408479" lon="17.6533983">
        <ele>13.5958</ele>
        <time>2014-05-29T10:54:38Z</time>
      </trkpt>
      <trkpt lat="59.8408976" lon="17.6533828">
        <ele>13.1151</ele>
        <time>2014-05-29T10:54:39Z</time>
      </trkpt>
      <trkpt lat="59.8409522" lon="17.6533759">
        <ele>14.0764</ele>
        <time>2014-05-29T10:54:40Z</time>
      </trkpt>
      <trkpt lat="59.8409981" lon="17.6533713">
        <ele>13.5958</ele>
        <time>2014-05-29T10:54:41Z</time>
      </trkpt>
      <trkpt lat="59.8410485" lon="17.6533657">
        <ele>13.1151</ele>
        <time>2014-05-29T10:54:42Z</time>
      </trkpt>
      <trkpt lat="59.8410994" lon="17.6533604">
        <ele>13.1151</ele>
        <time>2014-05-29T10:54:43Z</time>
      </trkpt>
      <trkpt lat="59.8411576" lon="17.6533372">
        <ele>13.1151</ele>
        <time>2014-05-29T10:54:44Z</time>
      </trkpt>
      <trkpt lat="59.8412174" lon="17.6533163">
        <ele>13.1151</ele>
        <time>2014-05-29T10:54:45Z</time>
      </trkpt>
      <trkpt lat="59.8412734" lon="17.653304">
        <ele>13.1151</ele>
        <time>2014-05-29T10:54:46Z</time>
      </trkpt>
      <trkpt lat="59.8413302" lon="17.6532942">
        <ele>13.1151</ele>
        <time>2014-05-29T10:54:47Z</time>
      </trkpt>
      <trkpt lat="59.841389" lon="17.6532801">
        <ele>13.5958</ele>
        <time>2014-05-29T10:54:48Z</time>
      </trkpt>
      <trkpt lat="59.8414453" lon="17.6532608">
        <ele>13.5958</ele>
        <time>2014-05-29T10:54:49Z</time>
      </trkpt>
      <trkpt lat="59.8414997" lon="17.6532352">
        <ele>13.5958</ele>
        <time>2014-05-29T10:54:50Z</time>
      </trkpt>
      <trkpt lat="59.8415546" lon="17.6532004">
        <ele>13.5958</ele>
        <time>2014-05-29T10:54:51Z</time>
      </trkpt>
      <trkpt lat="59.8416085" lon="17.6531559">
        <ele>13.5958</ele>
        <time>2014-05-29T10:54:52Z</time>
      </trkpt>
      <trkpt lat="59.8416625" lon="17.653107">
        <ele>14.0764</ele>
        <time>2014-05-29T10:54:53Z</time>
      </trkpt>
      <trkpt lat="59.8417168" lon="17.6530521">
        <ele>14.0764</ele>
        <time>2014-05-29T10:54:54Z</time>
      </trkpt>
      <trkpt lat="59.8417725" lon="17.6529908">
        <ele>14.0764</ele>
        <time>2014-05-29T10:54:55Z</time>
      </trkpt>
      <trkpt lat="59.8418266" lon="17.6529249">
        <ele>14.0764</ele>
        <time>2014-05-29T10:54:56Z</time>
      </trkpt>
      <trkpt lat="59.84188" lon="17.6528529">
        <ele>14.0764</ele>
        <time>2014-05-29T10:54:57Z</time>
      </trkpt>
      <trkpt lat="59.8419353" lon="17.6527781">
        <ele>14.0764</ele>
        <time>2014-05-29T10:54:58Z</time>
      </trkpt>
      <trkpt lat="59.841994" lon="17.6526996">
        <ele>14.557</ele>
        <time>2014-05-29T10:54:59Z</time>
      </trkpt>
      <trkpt lat="59.8420525" lon="17.6526217">
        <ele>14.557</ele>
        <time>2014-05-29T10:55:00Z</time>
      </trkpt>
      <trkpt lat="59.8421131" lon="17.652554">
        <ele>14.557</ele>
        <time>2014-05-29T10:55:01Z</time>
      </trkpt>
      <trkpt lat="59.8421763" lon="17.6524954">
        <ele>15.0377</ele>
        <time>2014-05-29T10:55:02Z</time>
      </trkpt>
      <trkpt lat="59.8422409" lon="17.6524448">
        <ele>15.0377</ele>
        <time>2014-05-29T10:55:03Z</time>
      </trkpt>
      <trkpt lat="59.8423052" lon="17.6524032">
        <ele>15.0377</ele>
        <time>2014-05-29T10:55:04Z</time>
      </trkpt>
      <trkpt lat="59.842369" lon="17.6523684">
        <ele>15.0377</ele>
        <time>2014-05-29T10:55:05Z</time>
      </trkpt>
      <trkpt lat="59.8424316" lon="17.6523393">
        <ele>15.0377</ele>
        <time>2014-05-29T10:55:06Z</time>
      </trkpt>
      <trkpt lat="59.8424923" lon="17.6523152">
        <ele>15.0377</ele>
        <time>2014-05-29T10:55:07Z</time>
      </trkpt>
      <trkpt lat="59.8425508" lon="17.6522933">
        <ele>15.0377</ele>
        <time>2014-05-29T10:55:08Z</time>
      </trkpt>
      <trkpt lat="59.8426072" lon="17.6522709">
        <ele>14.557</ele>
        <time>2014-05-29T10:55:09Z</time>
      </trkpt>
      <trkpt lat="59.8426625" lon="17.6522529">
        <ele>14.557</ele>
        <time>2014-05-29T10:55:10Z</time>
      </trkpt>
      <trkpt lat="59.8427149" lon="17.6522323">
        <ele>14.557</ele>
        <time>2014-05-29T10:55:11Z</time>
      </trkpt>
      <trkpt lat="59.8427682" lon="17.6522135">
        <ele>15.0377</ele>
        <time>2014-05-29T10:55:12Z</time>
      </trkpt>
      <trkpt lat="59.842821" lon="17.6521964">
        <ele>15.0377</ele>
        <time>2014-05-29T10:55:13Z</time>
      </trkpt>
      <trkpt lat="59.842874" lon="17.6521774">
        <ele>15.0377</ele>
        <time>2014-05-29T10:55:14Z</time>
      </trkpt>
      <trkpt lat="59.8429311" lon="17.6521528">
        <ele>15.5184</ele>
        <time>2014-05-29T10:55:15Z</time>
      </trkpt>
      <trkpt lat="59.8429875" lon="17.6521249">
        <ele>15.0377</ele>
        <time>2014-05-29T10:55:16Z</time>
      </trkpt>
      <trkpt lat="59.8430442" lon="17.6520981">
        <ele>15.0377</ele>
        <time>2014-05-29T10:55:17Z</time>
      </trkpt>
      <trkpt lat="59.8430997" lon="17.6520635">
        <ele>15.0377</ele>
        <time>2014-05-29T10:55:18Z</time>
      </trkpt>
      <trkpt lat="59.8431552" lon="17.6520257">
        <ele>15.0377</ele>
        <time>2014-05-29T10:55:19Z</time>
      </trkpt>
      <trkpt lat="59.8432103" lon="17.6519805">
        <ele>14.0764</ele>
        <time>2014-05-29T10:55:20Z</time>
      </trkpt>
      <trkpt lat="59.8432693" lon="17.651933">
        <ele>14.0764</ele>
        <time>2014-05-29T10:55:21Z</time>
      </trkpt>
      <trkpt lat="59.8433305" lon="17.6518804">
        <ele>14.0764</ele>
        <time>2014-05-29T10:55:22Z</time>
      </trkpt>
      <trkpt lat="59.8433927" lon="17.6518214">
        <ele>14.0764</ele>
        <time>2014-05-29T10:55:23Z</time>
      </trkpt>
      <trkpt lat="59.8434538" lon="17.6517628">
        <ele>13.5958</ele>
        <time>2014-05-29T10:55:24Z</time>
      </trkpt>
      <trkpt lat="59.8435189" lon="17.6517006">
        <ele>14.0764</ele>
        <time>2014-05-29T10:55:25Z</time>
      </trkpt>
      <trkpt lat="59.8435805" lon="17.6516385">
        <ele>14.0764</ele>
        <time>2014-05-29T10:55:26Z</time>
      </trkpt>
      <trkpt lat="59.8436355" lon="17.6515725">
        <ele>14.557</ele>
        <time>2014-05-29T10:55:27Z</time>
      </trkpt>
      <trkpt lat="59.8436829" lon="17.6515179">
        <ele>14.0764</ele>
        <time>2014-05-29T10:55:28Z</time>
      </trkpt>
      <trkpt lat="59.8437298" lon="17.651468">
        <ele>13.5958</ele>
        <time>2014-05-29T10:55:29Z</time>
      </trkpt>
      <trkpt lat="59.8437758" lon="17.6514132">
        <ele>14.0764</ele>
        <time>2014-05-29T10:55:30Z</time>
      </trkpt>
      <trkpt lat="59.8438173" lon="17.6513544">
        <ele>13.5958</ele>
        <time>2014-05-29T10:55:31Z</time>
      </trkpt>
      <trkpt lat="59.8438609" lon="17.6512953">
        <ele>14.0764</ele>
        <time>2014-05-29T10:55:32Z</time>
      </trkpt>
      <trkpt lat="59.8438981" lon="17.6512387">
        <ele>14.0764</ele>
        <time>2014-05-29T10:55:33Z</time>
      </trkpt>
      <trkpt lat="59.8439358" lon="17.6511802">
        <ele>14.0764</ele>
        <time>2014-05-29T10:55:34Z</time>
      </trkpt>
      <trkpt lat="59.8439741" lon="17.6511269">
        <ele>14.0764</ele>
        <time>2014-05-29T10:55:35Z</time>
      </trkpt>
      <trkpt lat="59.8440152" lon="17.6510693">
        <ele>14.0764</ele>
        <time>2014-05-29T10:55:36Z</time>
      </trkpt>
      <trkpt lat="59.8440571" lon="17.6510082">
        <ele>14.557</ele>
        <time>2014-05-29T10:55:37Z</time>
      </trkpt>
      <trkpt lat="59.8440976" lon="17.650944">
        <ele>14.557</ele>
        <time>2014-05-29T10:55:38Z</time>
      </trkpt>
      <trkpt lat="59.8441388" lon="17.6508746">
        <ele>14.557</ele>
        <time>2014-05-29T10:55:39Z</time>
      </trkpt>
      <trkpt lat="59.8441769" lon="17.6508103">
        <ele>14.557</ele>
        <time>2014-05-29T10:55:40Z</time>
      </trkpt>
      <trkpt lat="59.8442193" lon="17.6507495">
        <ele>15.0377</ele>
        <time>2014-05-29T10:55:41Z</time>
      </trkpt>
      <trkpt lat="59.844259" lon="17.6506894">
        <ele>15.0377</ele>
        <time>2014-05-29T10:55:42Z</time>
      </trkpt>
      <trkpt lat="59.8442987" lon="17.6506269">
        <ele>15.0377</ele>
        <time>2014-05-29T10:55:43Z</time>
      </trkpt>
      <trkpt lat="59.8443379" lon="17.6505643">
        <ele>15.0377</ele>
        <time>2014-05-29T10:55:44Z</time>
      </trkpt>
      <trkpt lat="59.8443774" lon="17.6505077">
        <ele>15.5184</ele>
        <time>2014-05-29T10:55:45Z</time>
      </trkpt>
      <trkpt lat="59.8444147" lon="17.6504519">
        <ele>15.5184</ele>
        <time>2014-05-29T10:55:46Z</time>
      </trkpt>
      <trkpt lat="59.8444503" lon="17.6503996">
        <ele>15.999</ele>
        <time>2014-05-29T10:55:47Z</time>
      </trkpt>
      <trkpt lat="59.8444854" lon="17.6503507">
        <ele>16.4797</ele>
        <time>2014-05-29T10:55:48Z</time>
      </trkpt>
      <trkpt lat="59.8445201" lon="17.6503047">
        <ele>16.9604</ele>
        <time>2014-05-29T10:55:49Z</time>
      </trkpt>
      <trkpt lat="59.8445534" lon="17.6502587">
        <ele>16.9604</ele>
        <time>2014-05-29T10:55:50Z</time>
      </trkpt>
      <trkpt lat="59.8445835" lon="17.6502084">
        <ele>17.4412</ele>
        <time>2014-05-29T10:55:51Z</time>
      </trkpt>
      <trkpt lat="59.8446122" lon="17.6501629">
        <ele>16.9604</ele>
        <time>2014-05-29T10:55:52Z</time>
      </trkpt>
      <trkpt lat="59.844642" lon="17.6501189">
        <ele>17.4412</ele>
        <time>2014-05-29T10:55:53Z</time>
      </trkpt>
      <trkpt lat="59.8446675" lon="17.6500634">
        <ele>17.9218</ele>
        <time>2014-05-29T10:55:54Z</time>
      </trkpt>
      <trkpt lat="59.8446802" lon="17.6499977">
        <ele>17.9218</ele>
        <time>2014-05-29T10:55:55Z</time>
      </trkpt>
      <trkpt lat="59.8446695" lon="17.6499233">
        <ele>15.5184</ele>
        <time>2014-05-29T10:55:56Z</time>
      </trkpt>
      <trkpt lat="59.8446573" lon="17.6498566">
        <ele>14.557</ele>
        <time>2014-05-29T10:55:57Z</time>
      </trkpt>
      <trkpt lat="59.8446415" lon="17.6497982">
        <ele>13.1151</ele>
        <time>2014-05-29T10:55:58Z</time>
      </trkpt>
      <trkpt lat="59.8446186" lon="17.649743">
        <ele>11.6732</ele>
        <time>2014-05-29T10:55:59Z</time>
      </trkpt>
      <trkpt lat="59.8445943" lon="17.6496899">
        <ele>10.7118</ele>
        <time>2014-05-29T10:56:00Z</time>
      </trkpt>
      <trkpt lat="59.8445778" lon="17.6496364">
        <ele>10.2312</ele>
        <time>2014-05-29T10:56:01Z</time>
      </trkpt>
      <trkpt lat="59.8445746" lon="17.6495742">
        <ele>10.7118</ele>
        <time>2014-05-29T10:56:02Z</time>
      </trkpt>
      <trkpt lat="59.84457" lon="17.6495068">
        <ele>10.2312</ele>
        <time>2014-05-29T10:56:03Z</time>
      </trkpt>
      <trkpt lat="59.8445668" lon="17.6494313">
        <ele>9.75061</ele>
        <time>2014-05-29T10:56:04Z</time>
      </trkpt>
      <trkpt lat="59.8445633" lon="17.6493494">
        <ele>9.75061</ele>
        <time>2014-05-29T10:56:05Z</time>
      </trkpt>
      <trkpt lat="59.8445539" lon="17.6492661">
        <ele>9.2699</ele>
        <time>2014-05-29T10:56:06Z</time>
      </trkpt>
      <trkpt lat="59.8445408" lon="17.6491759">
        <ele>8.78918</ele>
        <time>2014-05-29T10:56:07Z</time>
      </trkpt>
      <trkpt lat="59.8445139" lon="17.6490786">
        <ele>8.30859</ele>
        <time>2014-05-29T10:56:08Z</time>
      </trkpt>
      <trkpt lat="59.8444766" lon="17.6489936">
        <ele>7.34717</ele>
        <time>2014-05-29T10:56:09Z</time>
      </trkpt>
      <trkpt lat="59.8444331" lon="17.6489195">
        <ele>6.38586</ele>
        <time>2014-05-29T10:56:10Z</time>
      </trkpt>
      <trkpt lat="59.8443997" lon="17.6488486">
        <ele>5.42456</ele>
        <time>2014-05-29T10:56:11Z</time>
      </trkpt>
      <trkpt lat="59.8443638" lon="17.6487974">
        <ele>4.94385</ele>
        <time>2014-05-29T10:56:12Z</time>
      </trkpt>
      <trkpt lat="59.8443326" lon="17.648743">
        <ele>3.98267</ele>
        <time>2014-05-29T10:56:13Z</time>
      </trkpt>
      <trkpt lat="59.8443121" lon="17.6486855">
        <ele>3.50195</ele>
        <time>2014-05-29T10:56:14Z</time>
      </trkpt>
      <trkpt lat="59.8442944" lon="17.64863">
        <ele>3.02124</ele>
        <time>2014-05-29T10:56:15Z</time>
      </trkpt>
      <trkpt lat="59.8442839" lon="17.6485766">
        <ele>3.02124</ele>
        <time>2014-05-29T10:56:16Z</time>
      </trkpt>
      <trkpt lat="59.8442834" lon="17.648529">
        <ele>3.98267</ele>
        <time>2014-05-29T10:56:17Z</time>
      </trkpt>
      <trkpt lat="59.8442785" lon="17.6484638">
        <ele>3.98267</ele>
        <time>2014-05-29T10:56:18Z</time>
      </trkpt>
      <trkpt lat="59.8442777" lon="17.6483967">
        <ele>4.94385</ele>
        <time>2014-05-29T10:56:19Z</time>
      </trkpt>
      <trkpt lat="59.8442772" lon="17.6483266">
        <ele>4.46326</ele>
        <time>2014-05-29T10:56:20Z</time>
      </trkpt>
      <trkpt lat="59.8442805" lon="17.648255">
        <ele>4.46326</ele>
        <time>2014-05-29T10:56:21Z</time>
      </trkpt>
      <trkpt lat="59.8442833" lon="17.6481812">
        <ele>3.98267</ele>
        <time>2014-05-29T10:56:22Z</time>
      </trkpt>
      <trkpt lat="59.844284" lon="17.6481134">
        <ele>3.02124</ele>
        <time>2014-05-29T10:56:23Z</time>
      </trkpt>
      <trkpt lat="59.8442875" lon="17.6480422">
        <ele>2.54065</ele>
        <time>2014-05-29T10:56:24Z</time>
      </trkpt>
      <trkpt lat="59.8442904" lon="17.6479685">
        <ele>3.98267</ele>
        <time>2014-05-29T10:56:25Z</time>
      </trkpt>
      <trkpt lat="59.8442898" lon="17.6479048">
        <ele>3.02124</ele>
        <time>2014-05-29T10:56:26Z</time>
      </trkpt>
      <trkpt lat="59.8442913" lon="17.647841">
        <ele>3.02124</ele>
        <time>2014-05-29T10:56:27Z</time>
      </trkpt>
      <trkpt lat="59.8442942" lon="17.6477752">
        <ele>3.02124</ele>
        <time>2014-05-29T10:56:28Z</time>
      </trkpt>
      <trkpt lat="59.8442971" lon="17.6477026">
        <ele>2.06006</ele>
        <time>2014-05-29T10:56:29Z</time>
      </trkpt>
      <trkpt lat="59.8442922" lon="17.647639">
        <ele>1.57935</ele>
        <time>2014-05-29T10:56:30Z</time>
      </trkpt>
      <trkpt lat="59.8442807" lon="17.6475747">
        <ele>0.137451</ele>
        <time>2014-05-29T10:56:31Z</time>
      </trkpt>
      <trkpt lat="59.8442634" lon="17.6475079">
        <ele>0.137451</ele>
        <time>2014-05-29T10:56:32Z</time>
      </trkpt>
      <trkpt lat="59.8442346" lon="17.6474418">
        <ele>0</ele>
        <time>2014-05-29T10:56:33Z</time>
      </trkpt>
      <trkpt lat="59.8442046" lon="17.6473956">
        <ele>0</ele>
        <time>2014-05-29T10:56:34Z</time>
      </trkpt>
      <trkpt lat="59.8441696" lon="17.6473712">
        <ele>0</ele>
        <time>2014-05-29T10:56:35Z</time>
      </trkpt>
      <trkpt lat="59.8441354" lon="17.647348">
        <ele>0</ele>
        <time>2014-05-29T10:56:36Z</time>
      </trkpt>
      <trkpt lat="59.8441002" lon="17.6473358">
        <ele>0</ele>
        <time>2014-05-29T10:56:37Z</time>
      </trkpt>
      <trkpt lat="59.8440665" lon="17.6473292">
        <ele>0</ele>
        <time>2014-05-29T10:56:38Z</time>
      </trkpt>
      <trkpt lat="59.8440245" lon="17.6473116">
        <ele>0</ele>
        <time>2014-05-29T10:56:39Z</time>
      </trkpt>
      <trkpt lat="59.8439804" lon="17.6472909">
        <ele>0</ele>
        <time>2014-05-29T10:56:40Z</time>
      </trkpt>
      <trkpt lat="59.8439461" lon="17.6472698">
        <ele>0</ele>
        <time>2014-05-29T10:56:41Z</time>
      </trkpt>
      <trkpt lat="59.8439166" lon="17.6472354">
        <ele>0</ele>
        <time>2014-05-29T10:56:42Z</time>
      </trkpt>
      <trkpt lat="59.8438873" lon="17.6471991">
        <ele>0</ele>
        <time>2014-05-29T10:56:43Z</time>
      </trkpt>
      <trkpt lat="59.8438577" lon="17.6471605">
        <ele>0</ele>
        <time>2014-05-29T10:56:44Z</time>
      </trkpt>
      <trkpt lat="59.8438272" lon="17.6471314">
        <ele>0</ele>
        <time>2014-05-29T10:56:45Z</time>
      </trkpt>
      <trkpt lat="59.843794" lon="17.6471139">
        <ele>0</ele>
        <time>2014-05-29T10:56:46Z</time>
      </trkpt>
      <trkpt lat="59.8437613" lon="17.6471017">
        <ele>0</ele>
        <time>2014-05-29T10:56:47Z</time>
      </trkpt>
      <trkpt lat="59.8437268" lon="17.6470791">
        <ele>0</ele>
        <time>2014-05-29T10:56:48Z</time>
      </trkpt>
      <trkpt lat="59.843694" lon="17.6470424">
        <ele>0</ele>
        <time>2014-05-29T10:56:49Z</time>
      </trkpt>
      <trkpt lat="59.8436667" lon="17.6469988">
        <ele>0</ele>
        <time>2014-05-29T10:56:50Z</time>
      </trkpt>
      <trkpt lat="59.8436408" lon="17.6469413">
        <ele>0</ele>
        <time>2014-05-29T10:56:51Z</time>
      </trkpt>
      <trkpt lat="59.8436148" lon="17.6468772">
        <ele>0</ele>
        <time>2014-05-29T10:56:52Z</time>
      </trkpt>
      <trkpt lat="59.8435869" lon="17.6468133">
        <ele>0</ele>
        <time>2014-05-29T10:56:53Z</time>
      </trkpt>
      <trkpt lat="59.8435552" lon="17.6467546">
        <ele>0</ele>
        <time>2014-05-29T10:56:54Z</time>
      </trkpt>
      <trkpt lat="59.8435201" lon="17.6467019">
        <ele>0.137451</ele>
        <time>2014-05-29T10:56:55Z</time>
      </trkpt>
      <trkpt lat="59.8434841" lon="17.6466493">
        <ele>0.618042</ele>
        <time>2014-05-29T10:56:56Z</time>
      </trkpt>
      <trkpt lat="59.8434405" lon="17.6465964">
        <ele>3.02124</ele>
        <time>2014-05-29T10:56:57Z</time>
      </trkpt>
      <trkpt lat="59.8433966" lon="17.6465563">
        <ele>4.46326</ele>
        <time>2014-05-29T10:56:58Z</time>
      </trkpt>
      <trkpt lat="59.8433584" lon="17.6465205">
        <ele>4.94385</ele>
        <time>2014-05-29T10:56:59Z</time>
      </trkpt>
      <trkpt lat="59.8433241" lon="17.6464746">
        <ele>4.94385</ele>
        <time>2014-05-29T10:57:00Z</time>
      </trkpt>
      <trkpt lat="59.8432936" lon="17.6464232">
        <ele>5.90527</ele>
        <time>2014-05-29T10:57:01Z</time>
      </trkpt>
      <trkpt lat="59.843267" lon="17.6463849">
        <ele>6.38586</ele>
        <time>2014-05-29T10:57:02Z</time>
      </trkpt>
      <trkpt lat="59.8432408" lon="17.6463568">
        <ele>6.86646</ele>
        <time>2014-05-29T10:57:03Z</time>
      </trkpt>
      <trkpt lat="59.8432178" lon="17.6463234">
        <ele>7.34717</ele>
        <time>2014-05-29T10:57:04Z</time>
      </trkpt>
      <trkpt lat="59.8431983" lon="17.646291">
        <ele>7.82788</ele>
        <time>2014-05-29T10:57:05Z</time>
      </trkpt>
      <trkpt lat="59.8431823" lon="17.6462631">
        <ele>8.30859</ele>
        <time>2014-05-29T10:57:06Z</time>
      </trkpt>
      <trkpt lat="59.8431649" lon="17.6462387">
        <ele>8.78918</ele>
        <time>2014-05-29T10:57:07Z</time>
      </trkpt>
      <trkpt lat="59.8431496" lon="17.6462234">
        <ele>8.78918</ele>
        <time>2014-05-29T10:57:08Z</time>
      </trkpt>
      <trkpt lat="59.8431334" lon="17.6462092">
        <ele>9.2699</ele>
        <time>2014-05-29T10:57:09Z</time>
      </trkpt>
      <trkpt lat="59.8431154" lon="17.6461958">
        <ele>9.2699</ele>
        <time>2014-05-29T10:57:10Z</time>
      </trkpt>
      <trkpt lat="59.8430977" lon="17.6461799">
        <ele>9.75061</ele>
        <time>2014-05-29T10:57:11Z</time>
      </trkpt>
      <trkpt lat="59.8430791" lon="17.6461605">
        <ele>10.2312</ele>
        <time>2014-05-29T10:57:12Z</time>
      </trkpt>
      <trkpt lat="59.8430599" lon="17.6461389">
        <ele>10.7118</ele>
        <time>2014-05-29T10:57:13Z</time>
      </trkpt>
      <trkpt lat="59.8430391" lon="17.6461151">
        <ele>11.1925</ele>
        <time>2014-05-29T10:57:14Z</time>
      </trkpt>
      <trkpt lat="59.8430159" lon="17.646089">
        <ele>11.6732</ele>
        <time>2014-05-29T10:57:15Z</time>
      </trkpt>
      <trkpt lat="59.8429911" lon="17.6460575">
        <ele>13.1151</ele>
        <time>2014-05-29T10:57:16Z</time>
      </trkpt>
      <trkpt lat="59.8429694" lon="17.646029">
        <ele>14.557</ele>
        <time>2014-05-29T10:57:17Z</time>
      </trkpt>
      <trkpt lat="59.8429496" lon="17.646002">
        <ele>15.5184</ele>
        <time>2014-05-29T10:57:18Z</time>
      </trkpt>
      <trkpt lat="59.8429306" lon="17.6459787">
        <ele>16.4797</ele>
        <time>2014-05-29T10:57:19Z</time>
      </trkpt>
      <trkpt lat="59.8429107" lon="17.6459567">
        <ele>17.4412</ele>
        <time>2014-05-29T10:57:20Z</time>
      </trkpt>
      <trkpt lat="59.8428901" lon="17.6459359">
        <ele>18.4023</ele>
        <time>2014-05-29T10:57:21Z</time>
      </trkpt>
      <trkpt lat="59.8428708" lon="17.6459158">
        <ele>18.4023</ele>
        <time>2014-05-29T10:57:22Z</time>
      </trkpt>
      <trkpt lat="59.8428527" lon="17.6458934">
        <ele>19.3638</ele>
        <time>2014-05-29T10:57:23Z</time>
      </trkpt>
      <trkpt lat="59.8428322" lon="17.6458712">
        <ele>19.8444</ele>
        <time>2014-05-29T10:57:24Z</time>
      </trkpt>
      <trkpt lat="59.8428123" lon="17.6458499">
        <ele>20.325</ele>
        <time>2014-05-29T10:57:25Z</time>
      </trkpt>
      <trkpt lat="59.8427923" lon="17.6458255">
        <ele>20.8057</ele>
        <time>2014-05-29T10:57:26Z</time>
      </trkpt>
      <trkpt lat="59.8427718" lon="17.6457999">
        <ele>20.8057</ele>
        <time>2014-05-29T10:57:27Z</time>
      </trkpt>
      <trkpt lat="59.8427485" lon="17.6457722">
        <ele>20.8057</ele>
        <time>2014-05-29T10:57:28Z</time>
      </trkpt>
      <trkpt lat="59.8427252" lon="17.6457461">
        <ele>21.2864</ele>
        <time>2014-05-29T10:57:29Z</time>
      </trkpt>
      <trkpt lat="59.8427023" lon="17.6457276">
        <ele>21.767</ele>
        <time>2014-05-29T10:57:30Z</time>
      </trkpt>
      <trkpt lat="59.8426787" lon="17.6457183">
        <ele>22.2476</ele>
        <time>2014-05-29T10:57:31Z</time>
      </trkpt>
      <trkpt lat="59.8426544" lon="17.6457116">
        <ele>22.2476</ele>
        <time>2014-05-29T10:57:32Z</time>
      </trkpt>
      <trkpt lat="59.8426289" lon="17.6457065">
        <ele>22.7283</ele>
        <time>2014-05-29T10:57:33Z</time>
      </trkpt>
      <trkpt lat="59.8426016" lon="17.6457038">
        <ele>23.209</ele>
        <time>2014-05-29T10:57:34Z</time>
      </trkpt>
      <trkpt lat="59.8425715" lon="17.6456997">
        <ele>23.209</ele>
        <time>2014-05-29T10:57:35Z</time>
      </trkpt>
      <trkpt lat="59.8425397" lon="17.6456914">
        <ele>23.6896</ele>
        <time>2014-05-29T10:57:36Z</time>
      </trkpt>
      <trkpt lat="59.8425057" lon="17.6456845">
        <ele>23.6896</ele>
        <time>2014-05-29T10:57:37Z</time>
      </trkpt>
      <trkpt lat="59.8424699" lon="17.6456856">
        <ele>24.1703</ele>
        <time>2014-05-29T10:57:38Z</time>
      </trkpt>
      <trkpt lat="59.8424315" lon="17.6456862">
        <ele>24.1703</ele>
        <time>2014-05-29T10:57:39Z</time>
      </trkpt>
      <trkpt lat="59.8423911" lon="17.6456784">
        <ele>24.1703</ele>
        <time>2014-05-29T10:57:40Z</time>
      </trkpt>
      <trkpt lat="59.8423489" lon="17.6456648">
        <ele>24.651</ele>
        <time>2014-05-29T10:57:41Z</time>
      </trkpt>
      <trkpt lat="59.8423054" lon="17.6456478">
        <ele>24.651</ele>
        <time>2014-05-29T10:57:42Z</time>
      </trkpt>
      <trkpt lat="59.8422605" lon="17.6456286">
        <ele>25.1317</ele>
        <time>2014-05-29T10:57:43Z</time>
      </trkpt>
      <trkpt lat="59.8422156" lon="17.6456054">
        <ele>25.1317</ele>
        <time>2014-05-29T10:57:44Z</time>
      </trkpt>
      <trkpt lat="59.8421726" lon="17.6455799">
        <ele>25.6123</ele>
        <time>2014-05-29T10:57:45Z</time>
      </trkpt>
      <trkpt lat="59.8421305" lon="17.6455546">
        <ele>25.6123</ele>
        <time>2014-05-29T10:57:46Z</time>
      </trkpt>
      <trkpt lat="59.8420907" lon="17.645523">
        <ele>25.6123</ele>
        <time>2014-05-29T10:57:47Z</time>
      </trkpt>
      <trkpt lat="59.8420557" lon="17.645483">
        <ele>26.0929</ele>
        <time>2014-05-29T10:57:48Z</time>
      </trkpt>
      <trkpt lat="59.8420228" lon="17.6454441">
        <ele>26.0929</ele>
        <time>2014-05-29T10:57:49Z</time>
      </trkpt>
      <trkpt lat="59.8419896" lon="17.6454092">
        <ele>26.0929</ele>
        <time>2014-05-29T10:57:50Z</time>
      </trkpt>
      <trkpt lat="59.841956" lon="17.6453752">
        <ele>26.5736</ele>
        <time>2014-05-29T10:57:51Z</time>
      </trkpt>
      <trkpt lat="59.8419222" lon="17.6453398">
        <ele>26.5736</ele>
        <time>2014-05-29T10:57:52Z</time>
      </trkpt>
      <trkpt lat="59.8418897" lon="17.6453002">
        <ele>26.5736</ele>
        <time>2014-05-29T10:57:53Z</time>
      </trkpt>
      <trkpt lat="59.8418613" lon="17.6452488">
        <ele>27.0543</ele>
        <time>2014-05-29T10:57:54Z</time>
      </trkpt>
      <trkpt lat="59.8418464" lon="17.6451842">
        <ele>27.5349</ele>
        <time>2014-05-29T10:57:55Z</time>
      </trkpt>
      <trkpt lat="59.8418499" lon="17.6451174">
        <ele>27.5349</ele>
        <time>2014-05-29T10:57:56Z</time>
      </trkpt>
      <trkpt lat="59.8418669" lon="17.6450564">
        <ele>27.5349</ele>
        <time>2014-05-29T10:57:57Z</time>
      </trkpt>
      <trkpt lat="59.8418896" lon="17.6449988">
        <ele>27.5349</ele>
        <time>2014-05-29T10:57:58Z</time>
      </trkpt>
      <trkpt lat="59.8419075" lon="17.6449346">
        <ele>27.5349</ele>
        <time>2014-05-29T10:57:59Z</time>
      </trkpt>
      <trkpt lat="59.8419196" lon="17.6448632">
        <ele>27.5349</ele>
        <time>2014-05-29T10:58:00Z</time>
      </trkpt>
      <trkpt lat="59.841923" lon="17.6447927">
        <ele>27.5349</ele>
        <time>2014-05-29T10:58:01Z</time>
      </trkpt>
      <trkpt lat="59.8419116" lon="17.6447285">
        <ele>27.5349</ele>
        <time>2014-05-29T10:58:02Z</time>
      </trkpt>
      <trkpt lat="59.8418929" lon="17.6446725">
        <ele>28.0155</ele>
        <time>2014-05-29T10:58:03Z</time>
      </trkpt>
      <trkpt lat="59.8418727" lon="17.6446226">
        <ele>28.0155</ele>
        <time>2014-05-29T10:58:04Z</time>
      </trkpt>
      <trkpt lat="59.8418504" lon="17.6445731">
        <ele>27.5349</ele>
        <time>2014-05-29T10:58:05Z</time>
      </trkpt>
      <trkpt lat="59.8418251" lon="17.6445186">
        <ele>27.5349</ele>
        <time>2014-05-29T10:58:06Z</time>
      </trkpt>
      <trkpt lat="59.8417966" lon="17.6444627">
        <ele>28.0155</ele>
        <time>2014-05-29T10:58:07Z</time>
      </trkpt>
      <trkpt lat="59.8417648" lon="17.6444087">
        <ele>28.0155</ele>
        <time>2014-05-29T10:58:08Z</time>
      </trkpt>
      <trkpt lat="59.8417308" lon="17.644354">
        <ele>28.0155</ele>
        <time>2014-05-29T10:58:09Z</time>
      </trkpt>
      <trkpt lat="59.8416965" lon="17.6442974">
        <ele>28.0155</ele>
        <time>2014-05-29T10:58:10Z</time>
      </trkpt>
      <trkpt lat="59.841662" lon="17.6442394">
        <ele>28.4962</ele>
        <time>2014-05-29T10:58:11Z</time>
      </trkpt>
      <trkpt lat="59.8416282" lon="17.6441819">
        <ele>28.4962</ele>
        <time>2014-05-29T10:58:12Z</time>
      </trkpt>
      <trkpt lat="59.8415949" lon="17.6441234">
        <ele>28.4962</ele>
        <time>2014-05-29T10:58:13Z</time>
      </trkpt>
      <trkpt lat="59.8415615" lon="17.6440616">
        <ele>28.4962</ele>
        <time>2014-05-29T10:58:14Z</time>
      </trkpt>
      <trkpt lat="59.8415287" lon="17.6439965">
        <ele>28.4962</ele>
        <time>2014-05-29T10:58:15Z</time>
      </trkpt>
      <trkpt lat="59.8414971" lon="17.6439291">
        <ele>28.4962</ele>
        <time>2014-05-29T10:58:16Z</time>
      </trkpt>
      <trkpt lat="59.8414651" lon="17.6438621">
        <ele>28.4962</ele>
        <time>2014-05-29T10:58:17Z</time>
      </trkpt>
      <trkpt lat="59.8414303" lon="17.6437954">
        <ele>28.4962</ele>
        <time>2014-05-29T10:58:18Z</time>
      </trkpt>
      <trkpt lat="59.8413936" lon="17.6437266">
        <ele>28.4962</ele>
        <time>2014-05-29T10:58:19Z</time>
      </trkpt>
      <trkpt lat="59.8413562" lon="17.6436546">
        <ele>28.4962</ele>
        <time>2014-05-29T10:58:20Z</time>
      </trkpt>
      <trkpt lat="59.8413172" lon="17.643581">
        <ele>28.4962</ele>
        <time>2014-05-29T10:58:21Z</time>
      </trkpt>
      <trkpt lat="59.8412753" lon="17.6435036">
        <ele>28.0155</ele>
        <time>2014-05-29T10:58:22Z</time>
      </trkpt>
      <trkpt lat="59.8412336" lon="17.6434198">
        <ele>28.0155</ele>
        <time>2014-05-29T10:58:23Z</time>
      </trkpt>
      <trkpt lat="59.8411936" lon="17.6433353">
        <ele>28.0155</ele>
        <time>2014-05-29T10:58:24Z</time>
      </trkpt>
      <trkpt lat="59.8411573" lon="17.643251">
        <ele>28.0155</ele>
        <time>2014-05-29T10:58:25Z</time>
      </trkpt>
      <trkpt lat="59.8411247" lon="17.643169">
        <ele>28.0155</ele>
        <time>2014-05-29T10:58:26Z</time>
      </trkpt>
      <trkpt lat="59.841093" lon="17.6430925">
        <ele>28.4962</ele>
        <time>2014-05-29T10:58:27Z</time>
      </trkpt>
      <trkpt lat="59.8410579" lon="17.6430214">
        <ele>28.4962</ele>
        <time>2014-05-29T10:58:28Z</time>
      </trkpt>
      <trkpt lat="59.8410232" lon="17.6429595">
        <ele>28.4962</ele>
        <time>2014-05-29T10:58:29Z</time>
      </trkpt>
      <trkpt lat="59.8409894" lon="17.642909">
        <ele>28.4962</ele>
        <time>2014-05-29T10:58:30Z</time>
      </trkpt>
      <trkpt lat="59.8409531" lon="17.6428781">
        <ele>28.4962</ele>
        <time>2014-05-29T10:58:31Z</time>
      </trkpt>
      <trkpt lat="59.840923" lon="17.6428837">
        <ele>28.4962</ele>
        <time>2014-05-29T10:58:32Z</time>
      </trkpt>
      <trkpt lat="59.8409045" lon="17.6429127">
        <ele>28.4962</ele>
        <time>2014-05-29T10:58:33Z</time>
      </trkpt>
      <trkpt lat="59.8408905" lon="17.6429638">
        <ele>28.4962</ele>
        <time>2014-05-29T10:58:34Z</time>
      </trkpt>
      <trkpt lat="59.8408741" lon="17.6430319">
        <ele>28.9769</ele>
        <time>2014-05-29T10:58:35Z</time>
      </trkpt>
      <trkpt lat="59.8408533" lon="17.6431071">
        <ele>28.9769</ele>
        <time>2014-05-29T10:58:36Z</time>
      </trkpt>
      <trkpt lat="59.8408299" lon="17.6431876">
        <ele>28.9769</ele>
        <time>2014-05-29T10:58:37Z</time>
      </trkpt>
      <trkpt lat="59.8408036" lon="17.6432645">
        <ele>29.4575</ele>
        <time>2014-05-29T10:58:38Z</time>
      </trkpt>
      <trkpt lat="59.8407746" lon="17.6433369">
        <ele>29.4575</ele>
        <time>2014-05-29T10:58:39Z</time>
      </trkpt>
      <trkpt lat="59.8407423" lon="17.6434043">
        <ele>29.4575</ele>
        <time>2014-05-29T10:58:40Z</time>
      </trkpt>
      <trkpt lat="59.8407067" lon="17.6434691">
        <ele>29.9381</ele>
        <time>2014-05-29T10:58:41Z</time>
      </trkpt>
      <trkpt lat="59.84067" lon="17.6435358">
        <ele>29.9381</ele>
        <time>2014-05-29T10:58:42Z</time>
      </trkpt>
      <trkpt lat="59.8406305" lon="17.6436028">
        <ele>29.9381</ele>
        <time>2014-05-29T10:58:43Z</time>
      </trkpt>
      <trkpt lat="59.8405891" lon="17.6436691">
        <ele>29.9381</ele>
        <time>2014-05-29T10:58:44Z</time>
      </trkpt>
      <trkpt lat="59.8405475" lon="17.6437352">
        <ele>30.4188</ele>
        <time>2014-05-29T10:58:45Z</time>
      </trkpt>
      <trkpt lat="59.8405057" lon="17.6438023">
        <ele>30.4188</ele>
        <time>2014-05-29T10:58:46Z</time>
      </trkpt>
      <trkpt lat="59.840464" lon="17.6438711">
        <ele>30.4188</ele>
        <time>2014-05-29T10:58:47Z</time>
      </trkpt>
      <trkpt lat="59.8404221" lon="17.6439406">
        <ele>30.4188</ele>
        <time>2014-05-29T10:58:48Z</time>
      </trkpt>
      <trkpt lat="59.8403804" lon="17.6440107">
        <ele>30.4188</ele>
        <time>2014-05-29T10:58:49Z</time>
      </trkpt>
      <trkpt lat="59.8403384" lon="17.6440798">
        <ele>30.4188</ele>
        <time>2014-05-29T10:58:50Z</time>
      </trkpt>
      <trkpt lat="59.8402954" lon="17.6441476">
        <ele>30.8995</ele>
        <time>2014-05-29T10:58:51Z</time>
      </trkpt>
      <trkpt lat="59.8402524" lon="17.644215">
        <ele>30.8995</ele>
        <time>2014-05-29T10:58:52Z</time>
      </trkpt>
      <trkpt lat="59.8402108" lon="17.6442825">
        <ele>30.8995</ele>
        <time>2014-05-29T10:58:53Z</time>
      </trkpt>
      <trkpt lat="59.8401709" lon="17.6443459">
        <ele>30.8995</ele>
        <time>2014-05-29T10:58:54Z</time>
      </trkpt>
      <trkpt lat="59.8401337" lon="17.6444039">
        <ele>30.8995</ele>
        <time>2014-05-29T10:58:55Z</time>
      </trkpt>
      <trkpt lat="59.8400988" lon="17.644457">
        <ele>31.3801</ele>
        <time>2014-05-29T10:58:56Z</time>
      </trkpt>
      <trkpt lat="59.8400634" lon="17.6445031">
        <ele>31.3801</ele>
        <time>2014-05-29T10:58:57Z</time>
      </trkpt>
      <trkpt lat="59.8400276" lon="17.644534">
        <ele>31.3801</ele>
        <time>2014-05-29T10:58:58Z</time>
      </trkpt>
      <trkpt lat="59.8399913" lon="17.6445519">
        <ele>31.8607</ele>
        <time>2014-05-29T10:58:59Z</time>
      </trkpt>
      <trkpt lat="59.8399541" lon="17.6445621">
        <ele>31.8607</ele>
        <time>2014-05-29T10:59:00Z</time>
      </trkpt>
      <trkpt lat="59.8399166" lon="17.6445537">
        <ele>31.8607</ele>
        <time>2014-05-29T10:59:01Z</time>
      </trkpt>
      <trkpt lat="59.8398767" lon="17.644537">
        <ele>31.3801</ele>
        <time>2014-05-29T10:59:02Z</time>
      </trkpt>
      <trkpt lat="59.8398338" lon="17.6445322">
        <ele>31.3801</ele>
        <time>2014-05-29T10:59:03Z</time>
      </trkpt>
      <trkpt lat="59.839799" lon="17.6445367">
        <ele>31.3801</ele>
        <time>2014-05-29T10:59:04Z</time>
      </trkpt>
      <trkpt lat="59.8397637" lon="17.6445351">
        <ele>31.3801</ele>
        <time>2014-05-29T10:59:05Z</time>
      </trkpt>
      <trkpt lat="59.8397219" lon="17.6445259">
        <ele>31.3801</ele>
        <time>2014-05-29T10:59:06Z</time>
      </trkpt>
      <trkpt lat="59.8396829" lon="17.6445056">
        <ele>31.8607</ele>
        <time>2014-05-29T10:59:07Z</time>
      </trkpt>
      <trkpt lat="59.8396437" lon="17.6444725">
        <ele>31.3801</ele>
        <time>2014-05-29T10:59:08Z</time>
      </trkpt>
      <trkpt lat="59.8396063" lon="17.6444338">
        <ele>30.8995</ele>
        <time>2014-05-29T10:59:09Z</time>
      </trkpt>
      <trkpt lat="59.8395674" lon="17.6443901">
        <ele>30.4188</ele>
        <time>2014-05-29T10:59:10Z</time>
      </trkpt>
      <trkpt lat="59.8395251" lon="17.6443483">
        <ele>29.9381</ele>
        <time>2014-05-29T10:59:11Z</time>
      </trkpt>
      <trkpt lat="59.839482" lon="17.6443133">
        <ele>28.9769</ele>
        <time>2014-05-29T10:59:12Z</time>
      </trkpt>
      <trkpt lat="59.8394382" lon="17.6442755">
        <ele>28.4962</ele>
        <time>2014-05-29T10:59:13Z</time>
      </trkpt>
      <trkpt lat="59.8393982" lon="17.6442378">
        <ele>28.0155</ele>
        <time>2014-05-29T10:59:14Z</time>
      </trkpt>
      <trkpt lat="59.8393578" lon="17.6441928">
        <ele>27.5349</ele>
        <time>2014-05-29T10:59:15Z</time>
      </trkpt>
      <trkpt lat="59.8393141" lon="17.6441499">
        <ele>26.5736</ele>
        <time>2014-05-29T10:59:16Z</time>
      </trkpt>
      <trkpt lat="59.8392695" lon="17.6441119">
        <ele>26.5736</ele>
        <time>2014-05-29T10:59:17Z</time>
      </trkpt>
      <trkpt lat="59.8392255" lon="17.6440757">
        <ele>26.5736</ele>
        <time>2014-05-29T10:59:18Z</time>
      </trkpt>
      <trkpt lat="59.8391885" lon="17.6440335">
        <ele>25.6123</ele>
        <time>2014-05-29T10:59:19Z</time>
      </trkpt>
      <trkpt lat="59.8391507" lon="17.6439971">
        <ele>25.6123</ele>
        <time>2014-05-29T10:59:20Z</time>
      </trkpt>
      <trkpt lat="59.8391099" lon="17.6439784">
        <ele>25.6123</ele>
        <time>2014-05-29T10:59:21Z</time>
      </trkpt>
      <trkpt lat="59.839069" lon="17.643959">
        <ele>25.1317</ele>
        <time>2014-05-29T10:59:22Z</time>
      </trkpt>
      <trkpt lat="59.8390331" lon="17.6439477">
        <ele>24.1703</ele>
        <time>2014-05-29T10:59:23Z</time>
      </trkpt>
      <trkpt lat="59.8389931" lon="17.6439299">
        <ele>23.6896</ele>
        <time>2014-05-29T10:59:24Z</time>
      </trkpt>
      <trkpt lat="59.8389553" lon="17.6439085">
        <ele>22.7283</ele>
        <time>2014-05-29T10:59:25Z</time>
      </trkpt>
      <trkpt lat="59.8389148" lon="17.6438767">
        <ele>22.2476</ele>
        <time>2014-05-29T10:59:26Z</time>
      </trkpt>
      <trkpt lat="59.8388764" lon="17.643846">
        <ele>21.2864</ele>
        <time>2014-05-29T10:59:27Z</time>
      </trkpt>
      <trkpt lat="59.838836" lon="17.64381">
        <ele>21.2864</ele>
        <time>2014-05-29T10:59:28Z</time>
      </trkpt>
      <trkpt lat="59.8387935" lon="17.6437719">
        <ele>20.8057</ele>
        <time>2014-05-29T10:59:29Z</time>
      </trkpt>
      <trkpt lat="59.8387537" lon="17.6437298">
        <ele>20.325</ele>
        <time>2014-05-29T10:59:30Z</time>
      </trkpt>
      <trkpt lat="59.8387166" lon="17.6436846">
        <ele>19.8444</ele>
        <time>2014-05-29T10:59:31Z</time>
      </trkpt>
      <trkpt lat="59.8386808" lon="17.643631">
        <ele>19.3638</ele>
        <time>2014-05-29T10:59:32Z</time>
      </trkpt>
      <trkpt lat="59.8386465" lon="17.6435664">
        <ele>19.3638</ele>
        <time>2014-05-29T10:59:33Z</time>
      </trkpt>
      <trkpt lat="59.8386173" lon="17.6434987">
        <ele>18.4023</ele>
        <time>2014-05-29T10:59:34Z</time>
      </trkpt>
      <trkpt lat="59.8385817" lon="17.6434338">
        <ele>17.9218</ele>
        <time>2014-05-29T10:59:35Z</time>
      </trkpt>
      <trkpt lat="59.8385186" lon="17.6433168">
        <ele>17.9218</ele>
        <time>2014-05-29T10:59:36Z</time>
      </trkpt>
      <trkpt lat="59.8384804" lon="17.6432491">
        <ele>17.4412</ele>
        <time>2014-05-29T10:59:37Z</time>
      </trkpt>
      <trkpt lat="59.8384355" lon="17.6431956">
        <ele>17.4412</ele>
        <time>2014-05-29T10:59:38Z</time>
      </trkpt>
      <trkpt lat="59.8383927" lon="17.6431318">
        <ele>17.9218</ele>
        <time>2014-05-29T10:59:39Z</time>
      </trkpt>
      <trkpt lat="59.8383544" lon="17.643068">
        <ele>17.9218</ele>
        <time>2014-05-29T10:59:40Z</time>
      </trkpt>
      <trkpt lat="59.8383198" lon="17.6430309">
        <ele>17.4412</ele>
        <time>2014-05-29T10:59:41Z</time>
      </trkpt>
      <trkpt lat="59.838276" lon="17.6429941">
        <ele>17.4412</ele>
        <time>2014-05-29T10:59:42Z</time>
      </trkpt>
      <trkpt lat="59.8382306" lon="17.6429681">
        <ele>16.9604</ele>
        <time>2014-05-29T10:59:43Z</time>
      </trkpt>
      <trkpt lat="59.8381839" lon="17.642948">
        <ele>17.4412</ele>
        <time>2014-05-29T10:59:44Z</time>
      </trkpt>
      <trkpt lat="59.8381368" lon="17.6429402">
        <ele>17.9218</ele>
        <time>2014-05-29T10:59:45Z</time>
      </trkpt>
      <trkpt lat="59.8380918" lon="17.642935">
        <ele>17.4412</ele>
        <time>2014-05-29T10:59:46Z</time>
      </trkpt>
      <trkpt lat="59.8380447" lon="17.6429362">
        <ele>17.4412</ele>
        <time>2014-05-29T10:59:47Z</time>
      </trkpt>
      <trkpt lat="59.8379973" lon="17.6429298">
        <ele>17.9218</ele>
        <time>2014-05-29T10:59:48Z</time>
      </trkpt>
      <trkpt lat="59.837957" lon="17.6429209">
        <ele>17.9218</ele>
        <time>2014-05-29T10:59:49Z</time>
      </trkpt>
      <trkpt lat="59.8379097" lon="17.6429328">
        <ele>17.9218</ele>
        <time>2014-05-29T10:59:50Z</time>
      </trkpt>
      <trkpt lat="59.8378652" lon="17.6429428">
        <ele>18.4023</ele>
        <time>2014-05-29T10:59:51Z</time>
      </trkpt>
      <trkpt lat="59.8378163" lon="17.6429576">
        <ele>18.4023</ele>
        <time>2014-05-29T10:59:52Z</time>
      </trkpt>
      <trkpt lat="59.837769" lon="17.6429651">
        <ele>18.4023</ele>
        <time>2014-05-29T10:59:53Z</time>
      </trkpt>
      <trkpt lat="59.8377198" lon="17.6429752">
        <ele>18.8831</ele>
        <time>2014-05-29T10:59:54Z</time>
      </trkpt>
      <trkpt lat="59.8376716" lon="17.6429789">
        <ele>18.4023</ele>
        <time>2014-05-29T10:59:55Z</time>
      </trkpt>
      <trkpt lat="59.837626" lon="17.6429779">
        <ele>17.9218</ele>
        <time>2014-05-29T10:59:56Z</time>
      </trkpt>
      <trkpt lat="59.8375718" lon="17.6429858">
        <ele>17.9218</ele>
        <time>2014-05-29T10:59:57Z</time>
      </trkpt>
      <trkpt lat="59.8375203" lon="17.6429821">
        <ele>17.9218</ele>
        <time>2014-05-29T10:59:58Z</time>
      </trkpt>
      <trkpt lat="59.8374731" lon="17.6429811">
        <ele>16.4797</ele>
        <time>2014-05-29T10:59:59Z</time>
      </trkpt>
      <trkpt lat="59.8374272" lon="17.6429734">
        <ele>15.999</ele>
        <time>2014-05-29T11:00:00Z</time>
      </trkpt>
      <trkpt lat="59.8373824" lon="17.6429685">
        <ele>15.999</ele>
        <time>2014-05-29T11:00:01Z</time>
      </trkpt>
      <trkpt lat="59.8373432" lon="17.642959">
        <ele>16.4797</ele>
        <time>2014-05-29T11:00:02Z</time>
      </trkpt>
      <trkpt lat="59.837298" lon="17.6429604">
        <ele>16.4797</ele>
        <time>2014-05-29T11:00:03Z</time>
      </trkpt>
      <trkpt lat="59.8372536" lon="17.6429495">
        <ele>16.4797</ele>
        <time>2014-05-29T11:00:04Z</time>
      </trkpt>
      <trkpt lat="59.8372066" lon="17.642933">
        <ele>15.5184</ele>
        <time>2014-05-29T11:00:05Z</time>
      </trkpt>
      <trkpt lat="59.8371558" lon="17.6429168">
        <ele>15.5184</ele>
        <time>2014-05-29T11:00:06Z</time>
      </trkpt>
      <trkpt lat="59.8371071" lon="17.6429066">
        <ele>15.0377</ele>
        <time>2014-05-29T11:00:07Z</time>
      </trkpt>
      <trkpt lat="59.8370578" lon="17.6428889">
        <ele>14.557</ele>
        <time>2014-05-29T11:00:08Z</time>
      </trkpt>
      <trkpt lat="59.8370138" lon="17.6428657">
        <ele>14.557</ele>
        <time>2014-05-29T11:00:09Z</time>
      </trkpt>
      <trkpt lat="59.8369757" lon="17.6428464">
        <ele>15.0377</ele>
        <time>2014-05-29T11:00:10Z</time>
      </trkpt>
      <trkpt lat="59.8369277" lon="17.6428331">
        <ele>15.0377</ele>
        <time>2014-05-29T11:00:11Z</time>
      </trkpt>
      <trkpt lat="59.8368725" lon="17.6428262">
        <ele>15.5184</ele>
        <time>2014-05-29T11:00:12Z</time>
      </trkpt>
      <trkpt lat="59.836818" lon="17.6428206">
        <ele>15.5184</ele>
        <time>2014-05-29T11:00:13Z</time>
      </trkpt>
      <trkpt lat="59.8367652" lon="17.6428401">
        <ele>15.999</ele>
        <time>2014-05-29T11:00:14Z</time>
      </trkpt>
      <trkpt lat="59.8367129" lon="17.6428595">
        <ele>16.4797</ele>
        <time>2014-05-29T11:00:15Z</time>
      </trkpt>
      <trkpt lat="59.8366606" lon="17.6428848">
        <ele>16.4797</ele>
        <time>2014-05-29T11:00:16Z</time>
      </trkpt>
      <trkpt lat="59.8366159" lon="17.6428895">
        <ele>16.4797</ele>
        <time>2014-05-29T11:00:17Z</time>
      </trkpt>
      <trkpt lat="59.8365792" lon="17.6428838">
        <ele>16.4797</ele>
        <time>2014-05-29T11:00:18Z</time>
      </trkpt>
      <trkpt lat="59.8365382" lon="17.6428836">
        <ele>15.5184</ele>
        <time>2014-05-29T11:00:19Z</time>
      </trkpt>
      <trkpt lat="59.8364916" lon="17.6428832">
        <ele>16.9604</ele>
        <time>2014-05-29T11:00:20Z</time>
      </trkpt>
      <trkpt lat="59.8364487" lon="17.6429003">
        <ele>18.4023</ele>
        <time>2014-05-29T11:00:21Z</time>
      </trkpt>
      <trkpt lat="59.8364135" lon="17.6429237">
        <ele>19.3638</ele>
        <time>2014-05-29T11:00:22Z</time>
      </trkpt>
      <trkpt lat="59.8363809" lon="17.6429638">
        <ele>19.3638</ele>
        <time>2014-05-29T11:00:23Z</time>
      </trkpt>
      <trkpt lat="59.8363462" lon="17.643004">
        <ele>19.8444</ele>
        <time>2014-05-29T11:00:24Z</time>
      </trkpt>
      <trkpt lat="59.8363072" lon="17.6430475">
        <ele>19.8444</ele>
        <time>2014-05-29T11:00:25Z</time>
      </trkpt>
      <trkpt lat="59.8362668" lon="17.6430887">
        <ele>19.8444</ele>
        <time>2014-05-29T11:00:26Z</time>
      </trkpt>
      <trkpt lat="59.8362181" lon="17.6431365">
        <ele>20.325</ele>
        <time>2014-05-29T11:00:27Z</time>
      </trkpt>
      <trkpt lat="59.8361684" lon="17.6431838">
        <ele>21.2864</ele>
        <time>2014-05-29T11:00:28Z</time>
      </trkpt>
      <trkpt lat="59.8361176" lon="17.6432396">
        <ele>21.2864</ele>
        <time>2014-05-29T11:00:29Z</time>
      </trkpt>
      <trkpt lat="59.8360643" lon="17.6432816">
        <ele>21.2864</ele>
        <time>2014-05-29T11:00:30Z</time>
      </trkpt>
      <trkpt lat="59.8360119" lon="17.6433132">
        <ele>21.2864</ele>
        <time>2014-05-29T11:00:31Z</time>
      </trkpt>
      <trkpt lat="59.8359563" lon="17.6433275">
        <ele>21.2864</ele>
        <time>2014-05-29T11:00:32Z</time>
      </trkpt>
      <trkpt lat="59.8359105" lon="17.6433416">
        <ele>21.2864</ele>
        <time>2014-05-29T11:00:33Z</time>
      </trkpt>
      <trkpt lat="59.8358394" lon="17.6433658">
        <ele>22.2476</ele>
        <time>2014-05-29T11:00:34Z</time>
      </trkpt>
      <trkpt lat="59.8357605" lon="17.6433651">
        <ele>23.6896</ele>
        <time>2014-05-29T11:00:35Z</time>
      </trkpt>
      <trkpt lat="59.8356727" lon="17.6433769">
        <ele>25.1317</ele>
        <time>2014-05-29T11:00:36Z</time>
      </trkpt>
      <trkpt lat="59.8356051" lon="17.6433956">
        <ele>24.651</ele>
        <time>2014-05-29T11:00:37Z</time>
      </trkpt>
      <trkpt lat="59.8355538" lon="17.6433834">
        <ele>22.7283</ele>
        <time>2014-05-29T11:00:38Z</time>
      </trkpt>
      <trkpt lat="59.83551" lon="17.6433498">
        <ele>21.2864</ele>
        <time>2014-05-29T11:00:39Z</time>
      </trkpt>
      <trkpt lat="59.8354704" lon="17.643298">
        <ele>19.8444</ele>
        <time>2014-05-29T11:00:40Z</time>
      </trkpt>
      <trkpt lat="59.8354371" lon="17.6432153">
        <ele>18.8831</ele>
        <time>2014-05-29T11:00:41Z</time>
      </trkpt>
      <trkpt lat="59.8353975" lon="17.6431334">
        <ele>18.4023</ele>
        <time>2014-05-29T11:00:42Z</time>
      </trkpt>
      <trkpt lat="59.8353463" lon="17.6430408">
        <ele>19.3638</ele>
        <time>2014-05-29T11:00:43Z</time>
      </trkpt>
      <trkpt lat="59.8352965" lon="17.6429698">
        <ele>19.3638</ele>
        <time>2014-05-29T11:00:44Z</time>
      </trkpt>
      <trkpt lat="59.8352509" lon="17.6428981">
        <ele>19.3638</ele>
        <time>2014-05-29T11:00:45Z</time>
      </trkpt>
      <trkpt lat="59.8351733" lon="17.6427924">
        <ele>18.4023</ele>
        <time>2014-05-29T11:00:46Z</time>
      </trkpt>
      <trkpt lat="59.8351215" lon="17.6427563">
        <ele>18.8831</ele>
        <time>2014-05-29T11:00:47Z</time>
      </trkpt>
      <trkpt lat="59.8350671" lon="17.6427479">
        <ele>18.8831</ele>
        <time>2014-05-29T11:00:48Z</time>
      </trkpt>
      <trkpt lat="59.8350128" lon="17.6427171">
        <ele>18.8831</ele>
        <time>2014-05-29T11:00:49Z</time>
      </trkpt>
      <trkpt lat="59.8349706" lon="17.642676">
        <ele>18.8831</ele>
        <time>2014-05-29T11:00:50Z</time>
      </trkpt>
      <trkpt lat="59.834921" lon="17.6426279">
        <ele>18.4023</ele>
        <time>2014-05-29T11:00:51Z</time>
      </trkpt>
      <trkpt lat="59.8348638" lon="17.6425854">
        <ele>18.4023</ele>
        <time>2014-05-29T11:00:52Z</time>
      </trkpt>
      <trkpt lat="59.8348201" lon="17.6425363">
        <ele>17.9218</ele>
        <time>2014-05-29T11:00:53Z</time>
      </trkpt>
      <trkpt lat="59.8347778" lon="17.6425076">
        <ele>17.4412</ele>
        <time>2014-05-29T11:00:54Z</time>
      </trkpt>
      <trkpt lat="59.8347381" lon="17.6424712">
        <ele>16.9604</ele>
        <time>2014-05-29T11:00:55Z</time>
      </trkpt>
      <trkpt lat="59.8347014" lon="17.6424243">
        <ele>16.9604</ele>
        <time>2014-05-29T11:00:56Z</time>
      </trkpt>
      <trkpt lat="59.8346688" lon="17.6423878">
        <ele>16.4797</ele>
        <time>2014-05-29T11:00:57Z</time>
      </trkpt>
      <trkpt lat="59.8346309" lon="17.6423524">
        <ele>16.9604</ele>
        <time>2014-05-29T11:00:58Z</time>
      </trkpt>
      <trkpt lat="59.8345901" lon="17.6423158">
        <ele>17.4412</ele>
        <time>2014-05-29T11:00:59Z</time>
      </trkpt>
      <trkpt lat="59.8345552" lon="17.6422858">
        <ele>17.9218</ele>
        <time>2014-05-29T11:01:00Z</time>
      </trkpt>
      <trkpt lat="59.8345204" lon="17.6422585">
        <ele>17.9218</ele>
        <time>2014-05-29T11:01:01Z</time>
      </trkpt>
      <trkpt lat="59.8344817" lon="17.642249">
        <ele>18.4023</ele>
        <time>2014-05-29T11:01:02Z</time>
      </trkpt>
      <trkpt lat="59.8344394" lon="17.6422596">
        <ele>18.4023</ele>
        <time>2014-05-29T11:01:03Z</time>
      </trkpt>
      <trkpt lat="59.8343919" lon="17.6422809">
        <ele>18.8831</ele>
        <time>2014-05-29T11:01:04Z</time>
      </trkpt>
      <trkpt lat="59.8343458" lon="17.6423051">
        <ele>18.8831</ele>
        <time>2014-05-29T11:01:05Z</time>
      </trkpt>
      <trkpt lat="59.8342952" lon="17.6423303">
        <ele>18.8831</ele>
        <time>2014-05-29T11:01:06Z</time>
      </trkpt>
      <trkpt lat="59.8342428" lon="17.6423571">
        <ele>19.3638</ele>
        <time>2014-05-29T11:01:07Z</time>
      </trkpt>
      <trkpt lat="59.8341897" lon="17.6423897">
        <ele>19.3638</ele>
        <time>2014-05-29T11:01:08Z</time>
      </trkpt>
      <trkpt lat="59.8341362" lon="17.6424334">
        <ele>19.8444</ele>
        <time>2014-05-29T11:01:09Z</time>
      </trkpt>
      <trkpt lat="59.8340822" lon="17.6424881">
        <ele>19.8444</ele>
        <time>2014-05-29T11:01:10Z</time>
      </trkpt>
      <trkpt lat="59.8340281" lon="17.6425461">
        <ele>20.325</ele>
        <time>2014-05-29T11:01:11Z</time>
      </trkpt>
      <trkpt lat="59.833976" lon="17.6426105">
        <ele>20.325</ele>
        <time>2014-05-29T11:01:12Z</time>
      </trkpt>
      <trkpt lat="59.8339223" lon="17.6426769">
        <ele>19.8444</ele>
        <time>2014-05-29T11:01:13Z</time>
      </trkpt>
      <trkpt lat="59.8337035" lon="17.642904">
        <ele>20.8057</ele>
        <time>2014-05-29T11:01:17Z</time>
      </trkpt>
      <trkpt lat="59.8336422" lon="17.6429281">
        <ele>22.2476</ele>
        <time>2014-05-29T11:01:18Z</time>
      </trkpt>
      <trkpt lat="59.833584" lon="17.6429849">
        <ele>23.209</ele>
        <time>2014-05-29T11:01:19Z</time>
      </trkpt>
      <trkpt lat="59.8335353" lon="17.643064">
        <ele>23.6896</ele>
        <time>2014-05-29T11:01:20Z</time>
      </trkpt>
      <trkpt lat="59.8334828" lon="17.6431253">
        <ele>24.1703</ele>
        <time>2014-05-29T11:01:21Z</time>
      </trkpt>
      <trkpt lat="59.8334472" lon="17.6431576">
        <ele>25.1317</ele>
        <time>2014-05-29T11:01:22Z</time>
      </trkpt>
      <trkpt lat="59.8334027" lon="17.6431788">
        <ele>26.0929</ele>
        <time>2014-05-29T11:01:23Z</time>
      </trkpt>
      <trkpt lat="59.8333611" lon="17.6431671">
        <ele>27.0543</ele>
        <time>2014-05-29T11:01:24Z</time>
      </trkpt>
      <trkpt lat="59.833322" lon="17.6431319">
        <ele>28.0155</ele>
        <time>2014-05-29T11:01:25Z</time>
      </trkpt>
      <trkpt lat="59.8332911" lon="17.6430961">
        <ele>27.5349</ele>
        <time>2014-05-29T11:01:26Z</time>
      </trkpt>
      <trkpt lat="59.8332736" lon="17.6430377">
        <ele>27.0543</ele>
        <time>2014-05-29T11:01:27Z</time>
      </trkpt>
      <trkpt lat="59.8332644" lon="17.6429502">
        <ele>26.0929</ele>
        <time>2014-05-29T11:01:28Z</time>
      </trkpt>
      <trkpt lat="59.8332489" lon="17.6428687">
        <ele>25.6123</ele>
        <time>2014-05-29T11:01:29Z</time>
      </trkpt>
      <trkpt lat="59.8332183" lon="17.6427719">
        <ele>28.0155</ele>
        <time>2014-05-29T11:01:30Z</time>
      </trkpt>
      <trkpt lat="59.8331967" lon="17.6426918">
        <ele>27.5349</ele>
        <time>2014-05-29T11:01:31Z</time>
      </trkpt>
      <trkpt lat="59.8331731" lon="17.6426037">
        <ele>27.0543</ele>
        <time>2014-05-29T11:01:32Z</time>
      </trkpt>
      <trkpt lat="59.8330406" lon="17.6421415">
        <ele>24.651</ele>
        <time>2014-05-29T11:01:36Z</time>
      </trkpt>
      <trkpt lat="59.8329972" lon="17.6420195">
        <ele>25.1317</ele>
        <time>2014-05-29T11:01:37Z</time>
      </trkpt>
      <trkpt lat="59.8329536" lon="17.6419218">
        <ele>25.6123</ele>
        <time>2014-05-29T11:01:38Z</time>
      </trkpt>
      <trkpt lat="59.8329163" lon="17.6418344">
        <ele>26.0929</ele>
        <time>2014-05-29T11:01:39Z</time>
      </trkpt>
      <trkpt lat="59.8328776" lon="17.6417487">
        <ele>26.0929</ele>
        <time>2014-05-29T11:01:40Z</time>
      </trkpt>
      <trkpt lat="59.8328508" lon="17.6416601">
        <ele>26.5736</ele>
        <time>2014-05-29T11:01:41Z</time>
      </trkpt>
      <trkpt lat="59.8328232" lon="17.6415722">
        <ele>26.5736</ele>
        <time>2014-05-29T11:01:42Z</time>
      </trkpt>
      <trkpt lat="59.8327961" lon="17.641487">
        <ele>27.0543</ele>
        <time>2014-05-29T11:01:43Z</time>
      </trkpt>
      <trkpt lat="59.8327754" lon="17.6414173">
        <ele>27.0543</ele>
        <time>2014-05-29T11:01:44Z</time>
      </trkpt>
      <trkpt lat="59.8327519" lon="17.641337">
        <ele>27.0543</ele>
        <time>2014-05-29T11:01:45Z</time>
      </trkpt>
      <trkpt lat="59.8327222" lon="17.641271">
        <ele>27.0543</ele>
        <time>2014-05-29T11:01:46Z</time>
      </trkpt>
      <trkpt lat="59.8326951" lon="17.6412001">
        <ele>26.5736</ele>
        <time>2014-05-29T11:01:47Z</time>
      </trkpt>
      <trkpt lat="59.8326599" lon="17.6411272">
        <ele>27.0543</ele>
        <time>2014-05-29T11:01:48Z</time>
      </trkpt>
      <trkpt lat="59.8326267" lon="17.6410762">
        <ele>27.5349</ele>
        <time>2014-05-29T11:01:49Z</time>
      </trkpt>
      <trkpt lat="59.8325905" lon="17.641078">
        <ele>28.0155</ele>
        <time>2014-05-29T11:01:50Z</time>
      </trkpt>
      <trkpt lat="59.832552" lon="17.6410749">
        <ele>27.5349</ele>
        <time>2014-05-29T11:01:51Z</time>
      </trkpt>
      <trkpt lat="59.8325103" lon="17.6410708">
        <ele>27.0543</ele>
        <time>2014-05-29T11:01:52Z</time>
      </trkpt>
      <trkpt lat="59.8324685" lon="17.6410541">
        <ele>26.5736</ele>
        <time>2014-05-29T11:01:53Z</time>
      </trkpt>
      <trkpt lat="59.8324233" lon="17.6410359">
        <ele>26.0929</ele>
        <time>2014-05-29T11:01:54Z</time>
      </trkpt>
      <trkpt lat="59.8323724" lon="17.6410182">
        <ele>25.6123</ele>
        <time>2014-05-29T11:01:55Z</time>
      </trkpt>
      <trkpt lat="59.8323276" lon="17.6409877">
        <ele>25.1317</ele>
        <time>2014-05-29T11:01:56Z</time>
      </trkpt>
      <trkpt lat="59.8322869" lon="17.6409563">
        <ele>24.651</ele>
        <time>2014-05-29T11:01:57Z</time>
      </trkpt>
      <trkpt lat="59.8322437" lon="17.6409299">
        <ele>24.1703</ele>
        <time>2014-05-29T11:01:58Z</time>
      </trkpt>
      <trkpt lat="59.8321969" lon="17.6409122">
        <ele>24.651</ele>
        <time>2014-05-29T11:01:59Z</time>
      </trkpt>
      <trkpt lat="59.8321585" lon="17.6409006">
        <ele>24.1703</ele>
        <time>2014-05-29T11:02:00Z</time>
      </trkpt>
      <trkpt lat="59.8321228" lon="17.6408883">
        <ele>24.651</ele>
        <time>2014-05-29T11:02:01Z</time>
      </trkpt>
      <trkpt lat="59.8320907" lon="17.640882">
        <ele>23.209</ele>
        <time>2014-05-29T11:02:02Z</time>
      </trkpt>
      <trkpt lat="59.8320575" lon="17.6408843">
        <ele>23.209</ele>
        <time>2014-05-29T11:02:03Z</time>
      </trkpt>
      <trkpt lat="59.8320215" lon="17.6408883">
        <ele>22.7283</ele>
        <time>2014-05-29T11:02:04Z</time>
      </trkpt>
      <trkpt lat="59.8319822" lon="17.6408805">
        <ele>22.7283</ele>
        <time>2014-05-29T11:02:05Z</time>
      </trkpt>
      <trkpt lat="59.8319419" lon="17.6408625">
        <ele>23.6896</ele>
        <time>2014-05-29T11:02:06Z</time>
      </trkpt>
      <trkpt lat="59.8319039" lon="17.6408567">
        <ele>25.1317</ele>
        <time>2014-05-29T11:02:07Z</time>
      </trkpt>
      <trkpt lat="59.8318668" lon="17.6408729">
        <ele>24.651</ele>
        <time>2014-05-29T11:02:08Z</time>
      </trkpt>
      <trkpt lat="59.8318233" lon="17.6408904">
        <ele>23.6896</ele>
        <time>2014-05-29T11:02:09Z</time>
      </trkpt>
      <trkpt lat="59.8317767" lon="17.6409084">
        <ele>23.6896</ele>
        <time>2014-05-29T11:02:10Z</time>
      </trkpt>
      <trkpt lat="59.8317373" lon="17.6409073">
        <ele>24.1703</ele>
        <time>2014-05-29T11:02:11Z</time>
      </trkpt>
      <trkpt lat="59.8316889" lon="17.6409087">
        <ele>26.0929</ele>
        <time>2014-05-29T11:02:12Z</time>
      </trkpt>
      <trkpt lat="59.8316524" lon="17.6409284">
        <ele>26.0929</ele>
        <time>2014-05-29T11:02:13Z</time>
      </trkpt>
      <trkpt lat="59.8316123" lon="17.6409478">
        <ele>26.5736</ele>
        <time>2014-05-29T11:02:14Z</time>
      </trkpt>
      <trkpt lat="59.8315809" lon="17.6409587">
        <ele>26.0929</ele>
        <time>2014-05-29T11:02:15Z</time>
      </trkpt>
      <trkpt lat="59.8315533" lon="17.6409578">
        <ele>26.5736</ele>
        <time>2014-05-29T11:02:16Z</time>
      </trkpt>
      <trkpt lat="59.8315233" lon="17.6409701">
        <ele>26.0929</ele>
        <time>2014-05-29T11:02:17Z</time>
      </trkpt>
      <trkpt lat="59.8314913" lon="17.6409737">
        <ele>25.6123</ele>
        <time>2014-05-29T11:02:18Z</time>
      </trkpt>
      <trkpt lat="59.8314579" lon="17.64099">
        <ele>25.6123</ele>
        <time>2014-05-29T11:02:19Z</time>
      </trkpt>
      <trkpt lat="59.8314041" lon="17.6410381">
        <ele>26.0929</ele>
        <time>2014-05-29T11:02:20Z</time>
      </trkpt>
      <trkpt lat="59.8313466" lon="17.6410764">
        <ele>26.0929</ele>
        <time>2014-05-29T11:02:21Z</time>
      </trkpt>
      <trkpt lat="59.8312878" lon="17.6411123">
        <ele>27.0543</ele>
        <time>2014-05-29T11:02:22Z</time>
      </trkpt>
      <trkpt lat="59.8312317" lon="17.6411402">
        <ele>27.0543</ele>
        <time>2014-05-29T11:02:23Z</time>
      </trkpt>
      <trkpt lat="59.8311613" lon="17.6411535">
        <ele>27.5349</ele>
        <time>2014-05-29T11:02:24Z</time>
      </trkpt>
      <trkpt lat="59.8310972" lon="17.6411437">
        <ele>26.0929</ele>
        <time>2014-05-29T11:02:25Z</time>
      </trkpt>
      <trkpt lat="59.831035" lon="17.641125">
        <ele>25.1317</ele>
        <time>2014-05-29T11:02:26Z</time>
      </trkpt>
      <trkpt lat="59.8309811" lon="17.6411044">
        <ele>24.651</ele>
        <time>2014-05-29T11:02:27Z</time>
      </trkpt>
      <trkpt lat="59.8309199" lon="17.6411167">
        <ele>24.1703</ele>
        <time>2014-05-29T11:02:28Z</time>
      </trkpt>
      <trkpt lat="59.8308663" lon="17.6411381">
        <ele>23.6896</ele>
        <time>2014-05-29T11:02:29Z</time>
      </trkpt>
      <trkpt lat="59.8308136" lon="17.6411822">
        <ele>23.209</ele>
        <time>2014-05-29T11:02:30Z</time>
      </trkpt>
      <trkpt lat="59.8307717" lon="17.641195">
        <ele>21.767</ele>
        <time>2014-05-29T11:02:31Z</time>
      </trkpt>
      <trkpt lat="59.8307257" lon="17.6411955">
        <ele>21.767</ele>
        <time>2014-05-29T11:02:32Z</time>
      </trkpt>
      <trkpt lat="59.8306763" lon="17.6411991">
        <ele>21.767</ele>
        <time>2014-05-29T11:02:33Z</time>
      </trkpt>
      <trkpt lat="59.8306283" lon="17.6412002">
        <ele>21.767</ele>
        <time>2014-05-29T11:02:34Z</time>
      </trkpt>
      <trkpt lat="59.8305837" lon="17.6412007">
        <ele>20.8057</ele>
        <time>2014-05-29T11:02:35Z</time>
      </trkpt>
      <trkpt lat="59.8305298" lon="17.6411892">
        <ele>20.325</ele>
        <time>2014-05-29T11:02:36Z</time>
      </trkpt>
      <trkpt lat="59.830476" lon="17.6411862">
        <ele>20.8057</ele>
        <time>2014-05-29T11:02:37Z</time>
      </trkpt>
      <trkpt lat="59.8303723" lon="17.6411914">
        <ele>20.325</ele>
        <time>2014-05-29T11:02:38Z</time>
      </trkpt>
      <trkpt lat="59.8303019" lon="17.6411615">
        <ele>19.3638</ele>
        <time>2014-05-29T11:02:39Z</time>
      </trkpt>
      <trkpt lat="59.8302475" lon="17.6411599">
        <ele>18.8831</ele>
        <time>2014-05-29T11:02:40Z</time>
      </trkpt>
      <trkpt lat="59.8301911" lon="17.6411591">
        <ele>18.8831</ele>
        <time>2014-05-29T11:02:41Z</time>
      </trkpt>
      <trkpt lat="59.8301475" lon="17.6411218">
        <ele>17.9218</ele>
        <time>2014-05-29T11:02:42Z</time>
      </trkpt>
      <trkpt lat="59.8300926" lon="17.6410872">
        <ele>17.4412</ele>
        <time>2014-05-29T11:02:43Z</time>
      </trkpt>
      <trkpt lat="59.8300299" lon="17.6410495">
        <ele>18.4023</ele>
        <time>2014-05-29T11:02:44Z</time>
      </trkpt>
      <trkpt lat="59.8299777" lon="17.6410174">
        <ele>18.4023</ele>
        <time>2014-05-29T11:02:45Z</time>
      </trkpt>
      <trkpt lat="59.8299234" lon="17.6409744">
        <ele>17.9218</ele>
        <time>2014-05-29T11:02:46Z</time>
      </trkpt>
      <trkpt lat="59.82987" lon="17.6409288">
        <ele>17.9218</ele>
        <time>2014-05-29T11:02:47Z</time>
      </trkpt>
      <trkpt lat="59.8298164" lon="17.6408945">
        <ele>17.4412</ele>
        <time>2014-05-29T11:02:48Z</time>
      </trkpt>
      <trkpt lat="59.8297496" lon="17.6408624">
        <ele>17.4412</ele>
        <time>2014-05-29T11:02:49Z</time>
      </trkpt>
      <trkpt lat="59.8296962" lon="17.6408516">
        <ele>16.9604</ele>
        <time>2014-05-29T11:02:50Z</time>
      </trkpt>
      <trkpt lat="59.8296295" lon="17.640864">
        <ele>17.4412</ele>
        <time>2014-05-29T11:02:51Z</time>
      </trkpt>
      <trkpt lat="59.8295698" lon="17.6408895">
        <ele>17.4412</ele>
        <time>2014-05-29T11:02:52Z</time>
      </trkpt>
      <trkpt lat="59.8295187" lon="17.6409091">
        <ele>17.9218</ele>
        <time>2014-05-29T11:02:53Z</time>
      </trkpt>
      <trkpt lat="59.8294756" lon="17.6409076">
        <ele>18.8831</ele>
        <time>2014-05-29T11:02:54Z</time>
      </trkpt>
      <trkpt lat="59.8294327" lon="17.6409199">
        <ele>19.8444</ele>
        <time>2014-05-29T11:02:55Z</time>
      </trkpt>
      <trkpt lat="59.8293959" lon="17.6409234">
        <ele>20.325</ele>
        <time>2014-05-29T11:02:56Z</time>
      </trkpt>
      <trkpt lat="59.8293628" lon="17.6409121">
        <ele>21.2864</ele>
        <time>2014-05-29T11:02:57Z</time>
      </trkpt>
      <trkpt lat="59.8293223" lon="17.6409001">
        <ele>24.1703</ele>
        <time>2014-05-29T11:02:58Z</time>
      </trkpt>
      <trkpt lat="59.8292959" lon="17.6409086">
        <ele>24.651</ele>
        <time>2014-05-29T11:02:59Z</time>
      </trkpt>
      <trkpt lat="59.8292623" lon="17.640933">
        <ele>26.5736</ele>
        <time>2014-05-29T11:03:00Z</time>
      </trkpt>
      <trkpt lat="59.8292256" lon="17.6409799">
        <ele>26.0929</ele>
        <time>2014-05-29T11:03:01Z</time>
      </trkpt>
      <trkpt lat="59.8291829" lon="17.6409947">
        <ele>26.5736</ele>
        <time>2014-05-29T11:03:02Z</time>
      </trkpt>
      <trkpt lat="59.8291395" lon="17.6410135">
        <ele>25.6123</ele>
        <time>2014-05-29T11:03:03Z</time>
      </trkpt>
      <trkpt lat="59.8290924" lon="17.6410398">
        <ele>26.5736</ele>
        <time>2014-05-29T11:03:04Z</time>
      </trkpt>
      <trkpt lat="59.8290647" lon="17.6410741">
        <ele>27.5349</ele>
        <time>2014-05-29T11:03:05Z</time>
      </trkpt>
      <trkpt lat="59.8290312" lon="17.6411001">
        <ele>26.5736</ele>
        <time>2014-05-29T11:03:06Z</time>
      </trkpt>
      <trkpt lat="59.8289996" lon="17.6411416">
        <ele>25.6123</ele>
        <time>2014-05-29T11:03:07Z</time>
      </trkpt>
      <trkpt lat="59.828966" lon="17.6411977">
        <ele>25.6123</ele>
        <time>2014-05-29T11:03:08Z</time>
      </trkpt>
      <trkpt lat="59.8289327" lon="17.6412676">
        <ele>25.1317</ele>
        <time>2014-05-29T11:03:09Z</time>
      </trkpt>
      <trkpt lat="59.8288976" lon="17.6413166">
        <ele>24.1703</ele>
        <time>2014-05-29T11:03:10Z</time>
      </trkpt>
      <trkpt lat="59.828863" lon="17.6413348">
        <ele>23.209</ele>
        <time>2014-05-29T11:03:11Z</time>
      </trkpt>
      <trkpt lat="59.8288151" lon="17.6413565">
        <ele>21.2864</ele>
        <time>2014-05-29T11:03:12Z</time>
      </trkpt>
      <trkpt lat="59.8287521" lon="17.6413815">
        <ele>18.8831</ele>
        <time>2014-05-29T11:03:13Z</time>
      </trkpt>
      <trkpt lat="59.8287009" lon="17.6413712">
        <ele>14.557</ele>
        <time>2014-05-29T11:03:14Z</time>
      </trkpt>
      <trkpt lat="59.8286327" lon="17.641395">
        <ele>11.1925</ele>
        <time>2014-05-29T11:03:15Z</time>
      </trkpt>
      <trkpt lat="59.8285718" lon="17.6413852">
        <ele>8.30859</ele>
        <time>2014-05-29T11:03:16Z</time>
      </trkpt>
      <trkpt lat="59.8285112" lon="17.6413757">
        <ele>5.90527</ele>
        <time>2014-05-29T11:03:17Z</time>
      </trkpt>
      <trkpt lat="59.8284624" lon="17.6413582">
        <ele>3.50195</ele>
        <time>2014-05-29T11:03:18Z</time>
      </trkpt>
      <trkpt lat="59.8284203" lon="17.641334">
        <ele>1.57935</ele>
        <time>2014-05-29T11:03:19Z</time>
      </trkpt>
      <trkpt lat="59.8283792" lon="17.6413243">
        <ele>1.09863</ele>
        <time>2014-05-29T11:03:20Z</time>
      </trkpt>
      <trkpt lat="59.8283531" lon="17.6412928">
        <ele>0</ele>
        <time>2014-05-29T11:03:21Z</time>
      </trkpt>
      <trkpt lat="59.8283272" lon="17.6412542">
        <ele>0</ele>
        <time>2014-05-29T11:03:22Z</time>
      </trkpt>
      <trkpt lat="59.8283019" lon="17.6412171">
        <ele>0</ele>
        <time>2014-05-29T11:03:23Z</time>
      </trkpt>
      <trkpt lat="59.8282651" lon="17.6411847">
        <ele>0</ele>
        <time>2014-05-29T11:03:24Z</time>
      </trkpt>
      <trkpt lat="59.8282217" lon="17.6411536">
        <ele>0</ele>
        <time>2014-05-29T11:03:25Z</time>
      </trkpt>
      <trkpt lat="59.828176" lon="17.6411272">
        <ele>0</ele>
        <time>2014-05-29T11:03:26Z</time>
      </trkpt>
      <trkpt lat="59.8281112" lon="17.6411039">
        <ele>0</ele>
        <time>2014-05-29T11:03:27Z</time>
      </trkpt>
      <trkpt lat="59.8280458" lon="17.6410859">
        <ele>0</ele>
        <time>2014-05-29T11:03:28Z</time>
      </trkpt>
      <trkpt lat="59.8279821" lon="17.6410576">
        <ele>0</ele>
        <time>2014-05-29T11:03:29Z</time>
      </trkpt>
      <trkpt lat="59.827918" lon="17.6410242">
        <ele>0</ele>
        <time>2014-05-29T11:03:30Z</time>
      </trkpt>
      <trkpt lat="59.8278477" lon="17.6409902">
        <ele>0</ele>
        <time>2014-05-29T11:03:31Z</time>
      </trkpt>
      <trkpt lat="59.8277733" lon="17.6409464">
        <ele>0</ele>
        <time>2014-05-29T11:03:32Z</time>
      </trkpt>
      <trkpt lat="59.8277077" lon="17.6408753">
        <ele>0</ele>
        <time>2014-05-29T11:03:33Z</time>
      </trkpt>
      <trkpt lat="59.8276469" lon="17.6407991">
        <ele>0</ele>
        <time>2014-05-29T11:03:34Z</time>
      </trkpt>
      <trkpt lat="59.8275913" lon="17.6407199">
        <ele>0</ele>
        <time>2014-05-29T11:03:35Z</time>
      </trkpt>
      <trkpt lat="59.8275485" lon="17.6406535">
        <ele>0</ele>
        <time>2014-05-29T11:03:36Z</time>
      </trkpt>
      <trkpt lat="59.8275171" lon="17.6405797">
        <ele>0</ele>
        <time>2014-05-29T11:03:37Z</time>
      </trkpt>
      <trkpt lat="59.8274742" lon="17.6404477">
        <ele>0</ele>
        <time>2014-05-29T11:03:38Z</time>
      </trkpt>
      <trkpt lat="59.8274362" lon="17.6403204">
        <ele>0</ele>
        <time>2014-05-29T11:03:39Z</time>
      </trkpt>
      <trkpt lat="59.8273804" lon="17.6401843">
        <ele>0</ele>
        <time>2014-05-29T11:03:40Z</time>
      </trkpt>
      <trkpt lat="59.8273555" lon="17.6401181">
        <ele>0</ele>
        <time>2014-05-29T11:03:41Z</time>
      </trkpt>
      <trkpt lat="59.827329" lon="17.640072">
        <ele>0</ele>
        <time>2014-05-29T11:03:42Z</time>
      </trkpt>
      <trkpt lat="59.8272941" lon="17.6400408">
        <ele>0</ele>
        <time>2014-05-29T11:03:43Z</time>
      </trkpt>
      <trkpt lat="59.8272607" lon="17.640017">
        <ele>0</ele>
        <time>2014-05-29T11:03:44Z</time>
      </trkpt>
      <trkpt lat="59.8272265" lon="17.6399881">
        <ele>0</ele>
        <time>2014-05-29T11:03:45Z</time>
      </trkpt>
      <trkpt lat="59.8271809" lon="17.639957">
        <ele>0</ele>
        <time>2014-05-29T11:03:46Z</time>
      </trkpt>
      <trkpt lat="59.8271385" lon="17.6399016">
        <ele>0</ele>
        <time>2014-05-29T11:03:47Z</time>
      </trkpt>
      <trkpt lat="59.8271057" lon="17.6398439">
        <ele>0</ele>
        <time>2014-05-29T11:03:48Z</time>
      </trkpt>
      <trkpt lat="59.8270727" lon="17.6397713">
        <ele>0</ele>
        <time>2014-05-29T11:03:49Z</time>
      </trkpt>
      <trkpt lat="59.82703" lon="17.6396923">
        <ele>0</ele>
        <time>2014-05-29T11:03:50Z</time>
      </trkpt>
      <trkpt lat="59.8269897" lon="17.6396059">
        <ele>0</ele>
        <time>2014-05-29T11:03:51Z</time>
      </trkpt>
      <trkpt lat="59.8269598" lon="17.6395152">
        <ele>0</ele>
        <time>2014-05-29T11:03:52Z</time>
      </trkpt>
      <trkpt lat="59.8269404" lon="17.6394057">
        <ele>0</ele>
        <time>2014-05-29T11:03:53Z</time>
      </trkpt>
      <trkpt lat="59.8269182" lon="17.639294">
        <ele>0</ele>
        <time>2014-05-29T11:03:54Z</time>
      </trkpt>
      <trkpt lat="59.8268948" lon="17.6392033">
        <ele>0</ele>
        <time>2014-05-29T11:03:55Z</time>
      </trkpt>
      <trkpt lat="59.8268727" lon="17.6391167">
        <ele>0</ele>
        <time>2014-05-29T11:03:56Z</time>
      </trkpt>
      <trkpt lat="59.826843" lon="17.6390344">
        <ele>0</ele>
        <time>2014-05-29T11:03:57Z</time>
      </trkpt>
      <trkpt lat="59.8267981" lon="17.6389521">
        <ele>0</ele>
        <time>2014-05-29T11:03:58Z</time>
      </trkpt>
      <trkpt lat="59.8267603" lon="17.6388569">
        <ele>0</ele>
        <time>2014-05-29T11:03:59Z</time>
      </trkpt>
      <trkpt lat="59.82671" lon="17.6387568">
        <ele>0</ele>
        <time>2014-05-29T11:04:00Z</time>
      </trkpt>
      <trkpt lat="59.8266392" lon="17.6386846">
        <ele>0</ele>
        <time>2014-05-29T11:04:01Z</time>
      </trkpt>
      <trkpt lat="59.8265572" lon="17.6386252">
        <ele>0</ele>
        <time>2014-05-29T11:04:02Z</time>
      </trkpt>
      <trkpt lat="59.8264731" lon="17.6385883">
        <ele>0</ele>
        <time>2014-05-29T11:04:03Z</time>
      </trkpt>
      <trkpt lat="59.826389" lon="17.6385609">
        <ele>0</ele>
        <time>2014-05-29T11:04:04Z</time>
      </trkpt>
      <trkpt lat="59.8263053" lon="17.6385392">
        <ele>0</ele>
        <time>2014-05-29T11:04:05Z</time>
      </trkpt>
      <trkpt lat="59.8262149" lon="17.6385023">
        <ele>2.06006</ele>
        <time>2014-05-29T11:04:06Z</time>
      </trkpt>
      <trkpt lat="59.8261263" lon="17.6384842">
        <ele>3.98267</ele>
        <time>2014-05-29T11:04:07Z</time>
      </trkpt>
      <trkpt lat="59.8260387" lon="17.6384849">
        <ele>5.90527</ele>
        <time>2014-05-29T11:04:08Z</time>
      </trkpt>
      <trkpt lat="59.8259532" lon="17.6385018">
        <ele>7.34717</ele>
        <time>2014-05-29T11:04:09Z</time>
      </trkpt>
      <trkpt lat="59.8258708" lon="17.6385143">
        <ele>8.30859</ele>
        <time>2014-05-29T11:04:10Z</time>
      </trkpt>
      <trkpt lat="59.82579" lon="17.6385304">
        <ele>9.2699</ele>
        <time>2014-05-29T11:04:11Z</time>
      </trkpt>
      <trkpt lat="59.8257113" lon="17.638548">
        <ele>9.75061</ele>
        <time>2014-05-29T11:04:12Z</time>
      </trkpt>
      <trkpt lat="59.825631" lon="17.638569">
        <ele>10.7118</ele>
        <time>2014-05-29T11:04:13Z</time>
      </trkpt>
      <trkpt lat="59.8255526" lon="17.6385919">
        <ele>11.1925</ele>
        <time>2014-05-29T11:04:14Z</time>
      </trkpt>
      <trkpt lat="59.8254741" lon="17.6386188">
        <ele>11.6732</ele>
        <time>2014-05-29T11:04:15Z</time>
      </trkpt>
      <trkpt lat="59.8253951" lon="17.6386377">
        <ele>12.6344</ele>
        <time>2014-05-29T11:04:16Z</time>
      </trkpt>
      <trkpt lat="59.8253206" lon="17.6386543">
        <ele>13.1151</ele>
        <time>2014-05-29T11:04:17Z</time>
      </trkpt>
      <trkpt lat="59.8252472" lon="17.638669">
        <ele>13.5958</ele>
        <time>2014-05-29T11:04:18Z</time>
      </trkpt>
      <trkpt lat="59.8251736" lon="17.6386708">
        <ele>14.0764</ele>
        <time>2014-05-29T11:04:19Z</time>
      </trkpt>
      <trkpt lat="59.8251026" lon="17.6386697">
        <ele>14.557</ele>
        <time>2014-05-29T11:04:20Z</time>
      </trkpt>
      <trkpt lat="59.8250316" lon="17.6386765">
        <ele>15.0377</ele>
        <time>2014-05-29T11:04:21Z</time>
      </trkpt>
      <trkpt lat="59.8249658" lon="17.6386954">
        <ele>15.0377</ele>
        <time>2014-05-29T11:04:22Z</time>
      </trkpt>
      <trkpt lat="59.8249017" lon="17.6387323">
        <ele>15.5184</ele>
        <time>2014-05-29T11:04:23Z</time>
      </trkpt>
      <trkpt lat="59.8248405" lon="17.6387941">
        <ele>15.999</ele>
        <time>2014-05-29T11:04:24Z</time>
      </trkpt>
      <trkpt lat="59.8247686" lon="17.6388434">
        <ele>15.999</ele>
        <time>2014-05-29T11:04:25Z</time>
      </trkpt>
      <trkpt lat="59.8246948" lon="17.638892">
        <ele>16.4797</ele>
        <time>2014-05-29T11:04:26Z</time>
      </trkpt>
      <trkpt lat="59.8246231" lon="17.6389194">
        <ele>16.9604</ele>
        <time>2014-05-29T11:04:27Z</time>
      </trkpt>
      <trkpt lat="59.8245559" lon="17.638921">
        <ele>17.4412</ele>
        <time>2014-05-29T11:04:28Z</time>
      </trkpt>
      <trkpt lat="59.8244881" lon="17.6388841">
        <ele>17.4412</ele>
        <time>2014-05-29T11:04:29Z</time>
      </trkpt>
      <trkpt lat="59.8244345" lon="17.6388047">
        <ele>17.4412</ele>
        <time>2014-05-29T11:04:30Z</time>
      </trkpt>
      <trkpt lat="59.8243924" lon="17.6387055">
        <ele>16.4797</ele>
        <time>2014-05-29T11:04:31Z</time>
      </trkpt>
      <trkpt lat="59.8243524" lon="17.6385973">
        <ele>16.4797</ele>
        <time>2014-05-29T11:04:32Z</time>
      </trkpt>
      <trkpt lat="59.8243153" lon="17.6384842">
        <ele>16.4797</ele>
        <time>2014-05-29T11:04:33Z</time>
      </trkpt>
      <trkpt lat="59.8242764" lon="17.6383753">
        <ele>16.4797</ele>
        <time>2014-05-29T11:04:34Z</time>
      </trkpt>
      <trkpt lat="59.8242314" lon="17.6382553">
        <ele>17.4412</ele>
        <time>2014-05-29T11:04:35Z</time>
      </trkpt>
      <trkpt lat="59.8241897" lon="17.6381433">
        <ele>17.9218</ele>
        <time>2014-05-29T11:04:36Z</time>
      </trkpt>
      <trkpt lat="59.8241556" lon="17.6380367">
        <ele>18.4023</ele>
        <time>2014-05-29T11:04:37Z</time>
      </trkpt>
      <trkpt lat="59.8241126" lon="17.6379445">
        <ele>18.4023</ele>
        <time>2014-05-29T11:04:38Z</time>
      </trkpt>
      <trkpt lat="59.8240695" lon="17.6378637">
        <ele>18.4023</ele>
        <time>2014-05-29T11:04:39Z</time>
      </trkpt>
      <trkpt lat="59.8240345" lon="17.6377772">
        <ele>18.8831</ele>
        <time>2014-05-29T11:04:40Z</time>
      </trkpt>
      <trkpt lat="59.8240015" lon="17.6377136">
        <ele>19.3638</ele>
        <time>2014-05-29T11:04:41Z</time>
      </trkpt>
      <trkpt lat="59.8239729" lon="17.6377003">
        <ele>18.8831</ele>
        <time>2014-05-29T11:04:42Z</time>
      </trkpt>
      <trkpt lat="59.8239371" lon="17.6376881">
        <ele>19.8444</ele>
        <time>2014-05-29T11:04:43Z</time>
      </trkpt>
      <trkpt lat="59.8239044" lon="17.6376807">
        <ele>20.325</ele>
        <time>2014-05-29T11:04:44Z</time>
      </trkpt>
      <trkpt lat="59.8238613" lon="17.6376866">
        <ele>20.8057</ele>
        <time>2014-05-29T11:04:45Z</time>
      </trkpt>
      <trkpt lat="59.8238186" lon="17.6376836">
        <ele>20.8057</ele>
        <time>2014-05-29T11:04:46Z</time>
      </trkpt>
      <trkpt lat="59.8237771" lon="17.6376757">
        <ele>21.2864</ele>
        <time>2014-05-29T11:04:47Z</time>
      </trkpt>
      <trkpt lat="59.8237383" lon="17.637681">
        <ele>21.767</ele>
        <time>2014-05-29T11:04:48Z</time>
      </trkpt>
      <trkpt lat="59.8236984" lon="17.6376866">
        <ele>21.2864</ele>
        <time>2014-05-29T11:04:49Z</time>
      </trkpt>
      <trkpt lat="59.823662" lon="17.6376841">
        <ele>20.8057</ele>
        <time>2014-05-29T11:04:50Z</time>
      </trkpt>
      <trkpt lat="59.823624" lon="17.6376812">
        <ele>20.8057</ele>
        <time>2014-05-29T11:04:51Z</time>
      </trkpt>
      <trkpt lat="59.8235753" lon="17.6376731">
        <ele>21.2864</ele>
        <time>2014-05-29T11:04:52Z</time>
      </trkpt>
      <trkpt lat="59.8235216" lon="17.6376838">
        <ele>20.8057</ele>
        <time>2014-05-29T11:04:53Z</time>
      </trkpt>
      <trkpt lat="59.8234755" lon="17.6376869">
        <ele>19.8444</ele>
        <time>2014-05-29T11:04:54Z</time>
      </trkpt>
      <trkpt lat="59.8234296" lon="17.6376998">
        <ele>19.8444</ele>
        <time>2014-05-29T11:04:55Z</time>
      </trkpt>
      <trkpt lat="59.8233821" lon="17.6377366">
        <ele>19.8444</ele>
        <time>2014-05-29T11:04:56Z</time>
      </trkpt>
      <trkpt lat="59.8233378" lon="17.637792">
        <ele>19.3638</ele>
        <time>2014-05-29T11:04:57Z</time>
      </trkpt>
      <trkpt lat="59.8232912" lon="17.6378508">
        <ele>18.8831</ele>
        <time>2014-05-29T11:04:58Z</time>
      </trkpt>
      <trkpt lat="59.8232462" lon="17.6379072">
        <ele>18.4023</ele>
        <time>2014-05-29T11:04:59Z</time>
      </trkpt>
      <trkpt lat="59.8232032" lon="17.6379563">
        <ele>18.4023</ele>
        <time>2014-05-29T11:05:00Z</time>
      </trkpt>
      <trkpt lat="59.8231637" lon="17.6379994">
        <ele>17.9218</ele>
        <time>2014-05-29T11:05:01Z</time>
      </trkpt>
      <trkpt lat="59.8231306" lon="17.6380415">
        <ele>17.9218</ele>
        <time>2014-05-29T11:05:02Z</time>
      </trkpt>
      <trkpt lat="59.8230993" lon="17.6380918">
        <ele>17.4412</ele>
        <time>2014-05-29T11:05:03Z</time>
      </trkpt>
      <trkpt lat="59.8230633" lon="17.6381497">
        <ele>16.4797</ele>
        <time>2014-05-29T11:05:04Z</time>
      </trkpt>
      <trkpt lat="59.8230276" lon="17.6382041">
        <ele>15.5184</ele>
        <time>2014-05-29T11:05:05Z</time>
      </trkpt>
      <trkpt lat="59.8229944" lon="17.6382496">
        <ele>15.999</ele>
        <time>2014-05-29T11:05:06Z</time>
      </trkpt>
      <trkpt lat="59.8229559" lon="17.6383065">
        <ele>15.5184</ele>
        <time>2014-05-29T11:05:07Z</time>
      </trkpt>
      <trkpt lat="59.8229097" lon="17.6383568">
        <ele>15.0377</ele>
        <time>2014-05-29T11:05:08Z</time>
      </trkpt>
      <trkpt lat="59.8228607" lon="17.6383858">
        <ele>14.557</ele>
        <time>2014-05-29T11:05:09Z</time>
      </trkpt>
      <trkpt lat="59.8228186" lon="17.6383864">
        <ele>14.0764</ele>
        <time>2014-05-29T11:05:10Z</time>
      </trkpt>
      <trkpt lat="59.8227836" lon="17.6383905">
        <ele>14.557</ele>
        <time>2014-05-29T11:05:11Z</time>
      </trkpt>
      <trkpt lat="59.8227452" lon="17.638407">
        <ele>14.557</ele>
        <time>2014-05-29T11:05:12Z</time>
      </trkpt>
      <trkpt lat="59.8227047" lon="17.6384142">
        <ele>13.5958</ele>
        <time>2014-05-29T11:05:13Z</time>
      </trkpt>
      <trkpt lat="59.8226671" lon="17.6384062">
        <ele>12.6344</ele>
        <time>2014-05-29T11:05:14Z</time>
      </trkpt>
      <trkpt lat="59.82264" lon="17.6383854">
        <ele>12.6344</ele>
        <time>2014-05-29T11:05:15Z</time>
      </trkpt>
      <trkpt lat="59.8226244" lon="17.638358">
        <ele>12.1538</ele>
        <time>2014-05-29T11:05:16Z</time>
      </trkpt>
      <trkpt lat="59.8226127" lon="17.6383205">
        <ele>12.1538</ele>
        <time>2014-05-29T11:05:17Z</time>
      </trkpt>
      <trkpt lat="59.8225991" lon="17.6382765">
        <ele>12.1538</ele>
        <time>2014-05-29T11:05:18Z</time>
      </trkpt>
      <trkpt lat="59.8225784" lon="17.6382381">
        <ele>11.6732</ele>
        <time>2014-05-29T11:05:19Z</time>
      </trkpt>
      <trkpt lat="59.8225509" lon="17.6382066">
        <ele>11.1925</ele>
        <time>2014-05-29T11:05:20Z</time>
      </trkpt>
      <trkpt lat="59.8225162" lon="17.6381777">
        <ele>11.1925</ele>
        <time>2014-05-29T11:05:21Z</time>
      </trkpt>
      <trkpt lat="59.8224815" lon="17.6381557">
        <ele>10.7118</ele>
        <time>2014-05-29T11:05:22Z</time>
      </trkpt>
      <trkpt lat="59.8224515" lon="17.6381248">
        <ele>10.2312</ele>
        <time>2014-05-29T11:05:23Z</time>
      </trkpt>
      <trkpt lat="59.8224261" lon="17.6380937">
        <ele>10.2312</ele>
        <time>2014-05-29T11:05:24Z</time>
      </trkpt>
      <trkpt lat="59.8223965" lon="17.6380581">
        <ele>9.75061</ele>
        <time>2014-05-29T11:05:25Z</time>
      </trkpt>
      <trkpt lat="59.8223665" lon="17.6380295">
        <ele>9.75061</ele>
        <time>2014-05-29T11:05:26Z</time>
      </trkpt>
      <trkpt lat="59.8223437" lon="17.6380088">
        <ele>10.2312</ele>
        <time>2014-05-29T11:05:27Z</time>
      </trkpt>
      <trkpt lat="59.8223166" lon="17.637988">
        <ele>11.1925</ele>
        <time>2014-05-29T11:05:28Z</time>
      </trkpt>
      <trkpt lat="59.8222964" lon="17.6379755">
        <ele>11.1925</ele>
        <time>2014-05-29T11:05:29Z</time>
      </trkpt>
      <trkpt lat="59.8222717" lon="17.63796">
        <ele>11.1925</ele>
        <time>2014-05-29T11:05:30Z</time>
      </trkpt>
      <trkpt lat="59.8222351" lon="17.6379338">
        <ele>11.6732</ele>
        <time>2014-05-29T11:05:31Z</time>
      </trkpt>
      <trkpt lat="59.8221977" lon="17.6379021">
        <ele>11.1925</ele>
        <time>2014-05-29T11:05:32Z</time>
      </trkpt>
      <trkpt lat="59.8221547" lon="17.6378715">
        <ele>10.7118</ele>
        <time>2014-05-29T11:05:33Z</time>
      </trkpt>
      <trkpt lat="59.8221091" lon="17.637842">
        <ele>10.7118</ele>
        <time>2014-05-29T11:05:34Z</time>
      </trkpt>
      <trkpt lat="59.8220676" lon="17.6378181">
        <ele>10.7118</ele>
        <time>2014-05-29T11:05:35Z</time>
      </trkpt>
      <trkpt lat="59.8220286" lon="17.6377943">
        <ele>10.7118</ele>
        <time>2014-05-29T11:05:36Z</time>
      </trkpt>
      <trkpt lat="59.8219888" lon="17.6377678">
        <ele>10.7118</ele>
        <time>2014-05-29T11:05:37Z</time>
      </trkpt>
      <trkpt lat="59.8219526" lon="17.6377353">
        <ele>10.7118</ele>
        <time>2014-05-29T11:05:38Z</time>
      </trkpt>
      <trkpt lat="59.8219224" lon="17.6376886">
        <ele>10.7118</ele>
        <time>2014-05-29T11:05:39Z</time>
      </trkpt>
      <trkpt lat="59.8218915" lon="17.6376266">
        <ele>11.1925</ele>
        <time>2014-05-29T11:05:40Z</time>
      </trkpt>
      <trkpt lat="59.8218535" lon="17.6375538">
        <ele>12.1538</ele>
        <time>2014-05-29T11:05:41Z</time>
      </trkpt>
      <trkpt lat="59.8218121" lon="17.6374755">
        <ele>12.6344</ele>
        <time>2014-05-29T11:05:42Z</time>
      </trkpt>
      <trkpt lat="59.8217712" lon="17.6373929">
        <ele>12.1538</ele>
        <time>2014-05-29T11:05:43Z</time>
      </trkpt>
      <trkpt lat="59.821731" lon="17.6373135">
        <ele>11.6732</ele>
        <time>2014-05-29T11:05:44Z</time>
      </trkpt>
      <trkpt lat="59.8216868" lon="17.6372339">
        <ele>11.6732</ele>
        <time>2014-05-29T11:05:45Z</time>
      </trkpt>
      <trkpt lat="59.8216412" lon="17.6371452">
        <ele>12.6344</ele>
        <time>2014-05-29T11:05:46Z</time>
      </trkpt>
      <trkpt lat="59.8215992" lon="17.6370665">
        <ele>13.5958</ele>
        <time>2014-05-29T11:05:47Z</time>
      </trkpt>
      <trkpt lat="59.8215556" lon="17.6370094">
        <ele>13.5958</ele>
        <time>2014-05-29T11:05:48Z</time>
      </trkpt>
      <trkpt lat="59.8215051" lon="17.6369795">
        <ele>14.0764</ele>
        <time>2014-05-29T11:05:49Z</time>
      </trkpt>
      <trkpt lat="59.8214476" lon="17.6369788">
        <ele>15.0377</ele>
        <time>2014-05-29T11:05:50Z</time>
      </trkpt>
      <trkpt lat="59.8213941" lon="17.637005">
        <ele>15.0377</ele>
        <time>2014-05-29T11:05:51Z</time>
      </trkpt>
      <trkpt lat="59.8213429" lon="17.6370426">
        <ele>15.0377</ele>
        <time>2014-05-29T11:05:52Z</time>
      </trkpt>
      <trkpt lat="59.8212849" lon="17.6370795">
        <ele>15.999</ele>
        <time>2014-05-29T11:05:53Z</time>
      </trkpt>
      <trkpt lat="59.8212216" lon="17.6371116">
        <ele>16.4797</ele>
        <time>2014-05-29T11:05:54Z</time>
      </trkpt>
      <trkpt lat="59.8211569" lon="17.6371395">
        <ele>16.4797</ele>
        <time>2014-05-29T11:05:55Z</time>
      </trkpt>
      <trkpt lat="59.821089" lon="17.6371712">
        <ele>15.999</ele>
        <time>2014-05-29T11:05:56Z</time>
      </trkpt>
      <trkpt lat="59.8210205" lon="17.6372062">
        <ele>15.999</ele>
        <time>2014-05-29T11:05:57Z</time>
      </trkpt>
      <trkpt lat="59.8209503" lon="17.6372378">
        <ele>15.999</ele>
        <time>2014-05-29T11:05:58Z</time>
      </trkpt>
      <trkpt lat="59.8208776" lon="17.6372603">
        <ele>16.4797</ele>
        <time>2014-05-29T11:05:59Z</time>
      </trkpt>
      <trkpt lat="59.8208031" lon="17.6372754">
        <ele>16.4797</ele>
        <time>2014-05-29T11:06:00Z</time>
      </trkpt>
      <trkpt lat="59.8207264" lon="17.6372823">
        <ele>16.9604</ele>
        <time>2014-05-29T11:06:01Z</time>
      </trkpt>
      <trkpt lat="59.8206502" lon="17.6372813">
        <ele>17.4412</ele>
        <time>2014-05-29T11:06:02Z</time>
      </trkpt>
      <trkpt lat="59.8205741" lon="17.6372757">
        <ele>17.4412</ele>
        <time>2014-05-29T11:06:03Z</time>
      </trkpt>
      <trkpt lat="59.8204986" lon="17.637267">
        <ele>17.9218</ele>
        <time>2014-05-29T11:06:04Z</time>
      </trkpt>
      <trkpt lat="59.8204213" lon="17.6372546">
        <ele>18.4023</ele>
        <time>2014-05-29T11:06:05Z</time>
      </trkpt>
      <trkpt lat="59.8203468" lon="17.63724">
        <ele>18.8831</ele>
        <time>2014-05-29T11:06:06Z</time>
      </trkpt>
      <trkpt lat="59.8202743" lon="17.6372241">
        <ele>19.3638</ele>
        <time>2014-05-29T11:06:07Z</time>
      </trkpt>
      <trkpt lat="59.8202036" lon="17.6372067">
        <ele>19.8444</ele>
        <time>2014-05-29T11:06:08Z</time>
      </trkpt>
      <trkpt lat="59.8201349" lon="17.637187">
        <ele>20.325</ele>
        <time>2014-05-29T11:06:09Z</time>
      </trkpt>
      <trkpt lat="59.8200679" lon="17.6371663">
        <ele>20.8057</ele>
        <time>2014-05-29T11:06:10Z</time>
      </trkpt>
      <trkpt lat="59.8200028" lon="17.6371446">
        <ele>21.2864</ele>
        <time>2014-05-29T11:06:11Z</time>
      </trkpt>
      <trkpt lat="59.8199411" lon="17.6371179">
        <ele>21.767</ele>
        <time>2014-05-29T11:06:12Z</time>
      </trkpt>
      <trkpt lat="59.819881" lon="17.6370965">
        <ele>21.767</ele>
        <time>2014-05-29T11:06:13Z</time>
      </trkpt>
      <trkpt lat="59.8198239" lon="17.6370813">
        <ele>22.2476</ele>
        <time>2014-05-29T11:06:14Z</time>
      </trkpt>
      <trkpt lat="59.81977" lon="17.637065">
        <ele>22.2476</ele>
        <time>2014-05-29T11:06:15Z</time>
      </trkpt>
      <trkpt lat="59.8197151" lon="17.6370479">
        <ele>22.7283</ele>
        <time>2014-05-29T11:06:16Z</time>
      </trkpt>
      <trkpt lat="59.8196595" lon="17.6370323">
        <ele>22.7283</ele>
        <time>2014-05-29T11:06:17Z</time>
      </trkpt>
      <trkpt lat="59.8196035" lon="17.6370147">
        <ele>23.209</ele>
        <time>2014-05-29T11:06:18Z</time>
      </trkpt>
      <trkpt lat="59.8195483" lon="17.636995">
        <ele>23.6896</ele>
        <time>2014-05-29T11:06:19Z</time>
      </trkpt>
      <trkpt lat="59.8194935" lon="17.6369782">
        <ele>23.6896</ele>
        <time>2014-05-29T11:06:20Z</time>
      </trkpt>
      <trkpt lat="59.8194393" lon="17.6369614">
        <ele>24.1703</ele>
        <time>2014-05-29T11:06:21Z</time>
      </trkpt>
      <trkpt lat="59.8193849" lon="17.6369453">
        <ele>24.1703</ele>
        <time>2014-05-29T11:06:22Z</time>
      </trkpt>
      <trkpt lat="59.8193295" lon="17.6369303">
        <ele>24.1703</ele>
        <time>2014-05-29T11:06:23Z</time>
      </trkpt>
      <trkpt lat="59.819274" lon="17.6369142">
        <ele>24.651</ele>
        <time>2014-05-29T11:06:24Z</time>
      </trkpt>
      <trkpt lat="59.8192204" lon="17.636895">
        <ele>25.1317</ele>
        <time>2014-05-29T11:06:25Z</time>
      </trkpt>
      <trkpt lat="59.8191669" lon="17.6368713">
        <ele>25.6123</ele>
        <time>2014-05-29T11:06:26Z</time>
      </trkpt>
      <trkpt lat="59.8191132" lon="17.6368469">
        <ele>25.6123</ele>
        <time>2014-05-29T11:06:27Z</time>
      </trkpt>
      <trkpt lat="59.8190605" lon="17.6368271">
        <ele>26.0929</ele>
        <time>2014-05-29T11:06:28Z</time>
      </trkpt>
      <trkpt lat="59.8190088" lon="17.6368116">
        <ele>26.0929</ele>
        <time>2014-05-29T11:06:29Z</time>
      </trkpt>
      <trkpt lat="59.8189595" lon="17.6367946">
        <ele>26.5736</ele>
        <time>2014-05-29T11:06:30Z</time>
      </trkpt>
      <trkpt lat="59.818913" lon="17.6367755">
        <ele>26.5736</ele>
        <time>2014-05-29T11:06:31Z</time>
      </trkpt>
      <trkpt lat="59.818869" lon="17.6367566">
        <ele>26.0929</ele>
        <time>2014-05-29T11:06:32Z</time>
      </trkpt>
      <trkpt lat="59.8188273" lon="17.6367366">
        <ele>26.0929</ele>
        <time>2014-05-29T11:06:33Z</time>
      </trkpt>
      <trkpt lat="59.818788" lon="17.6367282">
        <ele>26.0929</ele>
        <time>2014-05-29T11:06:34Z</time>
      </trkpt>
      <trkpt lat="59.8187504" lon="17.6367448">
        <ele>26.5736</ele>
        <time>2014-05-29T11:06:35Z</time>
      </trkpt>
      <trkpt lat="59.8187204" lon="17.636791">
        <ele>26.5736</ele>
        <time>2014-05-29T11:06:36Z</time>
      </trkpt>
      <trkpt lat="59.818698" lon="17.636851">
        <ele>26.5736</ele>
        <time>2014-05-29T11:06:37Z</time>
      </trkpt>
      <trkpt lat="59.8186774" lon="17.6369132">
        <ele>26.5736</ele>
        <time>2014-05-29T11:06:38Z</time>
      </trkpt>
      <trkpt lat="59.818658" lon="17.6369763">
        <ele>26.5736</ele>
        <time>2014-05-29T11:06:39Z</time>
      </trkpt>
      <trkpt lat="59.8186379" lon="17.6370359">
        <ele>27.0543</ele>
        <time>2014-05-29T11:06:40Z</time>
      </trkpt>
      <trkpt lat="59.8186161" lon="17.637095">
        <ele>27.0543</ele>
        <time>2014-05-29T11:06:41Z</time>
      </trkpt>
      <trkpt lat="59.8185916" lon="17.6371571">
        <ele>27.0543</ele>
        <time>2014-05-29T11:06:42Z</time>
      </trkpt>
      <trkpt lat="59.8185683" lon="17.63721">
        <ele>27.0543</ele>
        <time>2014-05-29T11:06:43Z</time>
      </trkpt>
      <trkpt lat="59.8185465" lon="17.6372628">
        <ele>27.0543</ele>
        <time>2014-05-29T11:06:44Z</time>
      </trkpt>
      <trkpt lat="59.8185259" lon="17.6373151">
        <ele>27.0543</ele>
        <time>2014-05-29T11:06:45Z</time>
      </trkpt>
      <trkpt lat="59.8185042" lon="17.6373631">
        <ele>27.5349</ele>
        <time>2014-05-29T11:06:46Z</time>
      </trkpt>
      <trkpt lat="59.8184821" lon="17.6374089">
        <ele>27.5349</ele>
        <time>2014-05-29T11:06:47Z</time>
      </trkpt>
      <trkpt lat="59.8184585" lon="17.6374559">
        <ele>28.0155</ele>
        <time>2014-05-29T11:06:48Z</time>
      </trkpt>
      <trkpt lat="59.8184331" lon="17.6375027">
        <ele>28.0155</ele>
        <time>2014-05-29T11:06:49Z</time>
      </trkpt>
      <trkpt lat="59.818408" lon="17.637551">
        <ele>28.0155</ele>
        <time>2014-05-29T11:06:50Z</time>
      </trkpt>
      <trkpt lat="59.8183862" lon="17.6376037">
        <ele>28.4962</ele>
        <time>2014-05-29T11:06:51Z</time>
      </trkpt>
      <trkpt lat="59.8183685" lon="17.6376584">
        <ele>28.4962</ele>
        <time>2014-05-29T11:06:52Z</time>
      </trkpt>
      <trkpt lat="59.8183508" lon="17.6377138">
        <ele>28.4962</ele>
        <time>2014-05-29T11:06:53Z</time>
      </trkpt>
      <trkpt lat="59.8183315" lon="17.6377715">
        <ele>28.4962</ele>
        <time>2014-05-29T11:06:54Z</time>
      </trkpt>
      <trkpt lat="59.8183127" lon="17.6378337">
        <ele>28.4962</ele>
        <time>2014-05-29T11:06:55Z</time>
      </trkpt>
      <trkpt lat="59.8182939" lon="17.6378988">
        <ele>28.0155</ele>
        <time>2014-05-29T11:06:56Z</time>
      </trkpt>
      <trkpt lat="59.8182742" lon="17.637963">
        <ele>28.0155</ele>
        <time>2014-05-29T11:06:57Z</time>
      </trkpt>
      <trkpt lat="59.8182514" lon="17.638029">
        <ele>27.5349</ele>
        <time>2014-05-29T11:06:58Z</time>
      </trkpt>
      <trkpt lat="59.8182277" lon="17.6381013">
        <ele>27.5349</ele>
        <time>2014-05-29T11:06:59Z</time>
      </trkpt>
      <trkpt lat="59.8182022" lon="17.6381807">
        <ele>27.5349</ele>
        <time>2014-05-29T11:07:00Z</time>
      </trkpt>
      <trkpt lat="59.818173" lon="17.6382646">
        <ele>27.0543</ele>
        <time>2014-05-29T11:07:01Z</time>
      </trkpt>
      <trkpt lat="59.8181419" lon="17.6383558">
        <ele>27.0543</ele>
        <time>2014-05-29T11:07:02Z</time>
      </trkpt>
      <trkpt lat="59.8181099" lon="17.6384511">
        <ele>26.5736</ele>
        <time>2014-05-29T11:07:03Z</time>
      </trkpt>
      <trkpt lat="59.8180764" lon="17.6385471">
        <ele>26.5736</ele>
        <time>2014-05-29T11:07:04Z</time>
      </trkpt>
      <trkpt lat="59.8180423" lon="17.6386424">
        <ele>26.5736</ele>
        <time>2014-05-29T11:07:05Z</time>
      </trkpt>
      <trkpt lat="59.8180068" lon="17.6387331">
        <ele>26.0929</ele>
        <time>2014-05-29T11:07:06Z</time>
      </trkpt>
      <trkpt lat="59.8179733" lon="17.6388196">
        <ele>26.0929</ele>
        <time>2014-05-29T11:07:07Z</time>
      </trkpt>
      <trkpt lat="59.8179426" lon="17.6389013">
        <ele>26.0929</ele>
        <time>2014-05-29T11:07:08Z</time>
      </trkpt>
      <trkpt lat="59.8179128" lon="17.6389774">
        <ele>26.0929</ele>
        <time>2014-05-29T11:07:09Z</time>
      </trkpt>
      <trkpt lat="59.8178867" lon="17.639052">
        <ele>25.6123</ele>
        <time>2014-05-29T11:07:10Z</time>
      </trkpt>
      <trkpt lat="59.8178571" lon="17.6391182">
        <ele>25.6123</ele>
        <time>2014-05-29T11:07:11Z</time>
      </trkpt>
      <trkpt lat="59.8178204" lon="17.6391681">
        <ele>25.6123</ele>
        <time>2014-05-29T11:07:12Z</time>
      </trkpt>
      <trkpt lat="59.8177795" lon="17.6392137">
        <ele>25.1317</ele>
        <time>2014-05-29T11:07:13Z</time>
      </trkpt>
      <trkpt lat="59.8177391" lon="17.6392599">
        <ele>25.1317</ele>
        <time>2014-05-29T11:07:14Z</time>
      </trkpt>
      <trkpt lat="59.8176977" lon="17.6393037">
        <ele>24.651</ele>
        <time>2014-05-29T11:07:15Z</time>
      </trkpt>
      <trkpt lat="59.8176568" lon="17.6393478">
        <ele>24.651</ele>
        <time>2014-05-29T11:07:16Z</time>
      </trkpt>
      <trkpt lat="59.8176191" lon="17.6393867">
        <ele>24.1703</ele>
        <time>2014-05-29T11:07:17Z</time>
      </trkpt>
      <trkpt lat="59.8175832" lon="17.6394209">
        <ele>24.1703</ele>
        <time>2014-05-29T11:07:18Z</time>
      </trkpt>
      <trkpt lat="59.8175479" lon="17.6394513">
        <ele>23.6896</ele>
        <time>2014-05-29T11:07:19Z</time>
      </trkpt>
      <trkpt lat="59.8175127" lon="17.639483">
        <ele>23.6896</ele>
        <time>2014-05-29T11:07:20Z</time>
      </trkpt>
      <trkpt lat="59.8174838" lon="17.6395114">
        <ele>23.209</ele>
        <time>2014-05-29T11:07:21Z</time>
      </trkpt>
      <trkpt lat="59.817458" lon="17.6395492">
        <ele>23.209</ele>
        <time>2014-05-29T11:07:22Z</time>
      </trkpt>
      <trkpt lat="59.8174339" lon="17.6396016">
        <ele>23.209</ele>
        <time>2014-05-29T11:07:23Z</time>
      </trkpt>
      <trkpt lat="59.8174118" lon="17.6396672">
        <ele>23.209</ele>
        <time>2014-05-29T11:07:24Z</time>
      </trkpt>
      <trkpt lat="59.8173916" lon="17.6397337">
        <ele>23.209</ele>
        <time>2014-05-29T11:07:25Z</time>
      </trkpt>
      <trkpt lat="59.817373" lon="17.6397979">
        <ele>23.209</ele>
        <time>2014-05-29T11:07:26Z</time>
      </trkpt>
      <trkpt lat="59.81735" lon="17.6398549">
        <ele>23.6896</ele>
        <time>2014-05-29T11:07:27Z</time>
      </trkpt>
      <trkpt lat="59.8173205" lon="17.6399126">
        <ele>23.6896</ele>
        <time>2014-05-29T11:07:28Z</time>
      </trkpt>
      <trkpt lat="59.8172922" lon="17.6399561">
        <ele>24.1703</ele>
        <time>2014-05-29T11:07:29Z</time>
      </trkpt>
      <trkpt lat="59.8172625" lon="17.6399995">
        <ele>24.651</ele>
        <time>2014-05-29T11:07:30Z</time>
      </trkpt>
      <trkpt lat="59.8172371" lon="17.6400404">
        <ele>24.651</ele>
        <time>2014-05-29T11:07:31Z</time>
      </trkpt>
      <trkpt lat="59.8172204" lon="17.6400704">
        <ele>24.651</ele>
        <time>2014-05-29T11:07:32Z</time>
      </trkpt>
      <trkpt lat="59.8171941" lon="17.6401115">
        <ele>26.0929</ele>
        <time>2014-05-29T11:07:33Z</time>
      </trkpt>
      <trkpt lat="59.8171683" lon="17.6401844">
        <ele>26.5736</ele>
        <time>2014-05-29T11:07:34Z</time>
      </trkpt>
      <trkpt lat="59.8171424" lon="17.6402593">
        <ele>27.0543</ele>
        <time>2014-05-29T11:07:35Z</time>
      </trkpt>
      <trkpt lat="59.8171249" lon="17.640332">
        <ele>27.0543</ele>
        <time>2014-05-29T11:07:36Z</time>
      </trkpt>
      <trkpt lat="59.8171028" lon="17.6404049">
        <ele>27.0543</ele>
        <time>2014-05-29T11:07:37Z</time>
      </trkpt>
      <trkpt lat="59.8170779" lon="17.6404761">
        <ele>26.5736</ele>
        <time>2014-05-29T11:07:38Z</time>
      </trkpt>
      <trkpt lat="59.8170575" lon="17.6405497">
        <ele>26.0929</ele>
        <time>2014-05-29T11:07:39Z</time>
      </trkpt>
      <trkpt lat="59.8170336" lon="17.6406237">
        <ele>25.1317</ele>
        <time>2014-05-29T11:07:40Z</time>
      </trkpt>
      <trkpt lat="59.8170149" lon="17.6406926">
        <ele>25.6123</ele>
        <time>2014-05-29T11:07:41Z</time>
      </trkpt>
      <trkpt lat="59.8169967" lon="17.640752">
        <ele>25.1317</ele>
        <time>2014-05-29T11:07:42Z</time>
      </trkpt>
      <trkpt lat="59.8169766" lon="17.640806">
        <ele>25.1317</ele>
        <time>2014-05-29T11:07:43Z</time>
      </trkpt>
      <trkpt lat="59.8169487" lon="17.6408602">
        <ele>24.651</ele>
        <time>2014-05-29T11:07:44Z</time>
      </trkpt>
      <trkpt lat="59.8169208" lon="17.6409076">
        <ele>23.6896</ele>
        <time>2014-05-29T11:07:45Z</time>
      </trkpt>
      <trkpt lat="59.8168907" lon="17.640941">
        <ele>22.7283</ele>
        <time>2014-05-29T11:07:46Z</time>
      </trkpt>
      <trkpt lat="59.8168563" lon="17.6409708">
        <ele>21.767</ele>
        <time>2014-05-29T11:07:47Z</time>
      </trkpt>
      <trkpt lat="59.8168347" lon="17.6409867">
        <ele>21.2864</ele>
        <time>2014-05-29T11:07:48Z</time>
      </trkpt>
      <trkpt lat="59.8168217" lon="17.6410055">
        <ele>21.767</ele>
        <time>2014-05-29T11:07:49Z</time>
      </trkpt>
      <trkpt lat="59.8168105" lon="17.6410296">
        <ele>21.767</ele>
        <time>2014-05-29T11:07:50Z</time>
      </trkpt>
      <trkpt lat="59.8167928" lon="17.6410448">
        <ele>22.2476</ele>
        <time>2014-05-29T11:07:51Z</time>
      </trkpt>
      <trkpt lat="59.8167789" lon="17.6410676">
        <ele>21.767</ele>
        <time>2014-05-29T11:07:52Z</time>
      </trkpt>
      <trkpt lat="59.8167684" lon="17.6410982">
        <ele>21.767</ele>
        <time>2014-05-29T11:07:53Z</time>
      </trkpt>
      <trkpt lat="59.816742" lon="17.6411596">
        <ele>21.767</ele>
        <time>2014-05-29T11:07:54Z</time>
      </trkpt>
      <trkpt lat="59.8167097" lon="17.6412066">
        <ele>21.2864</ele>
        <time>2014-05-29T11:07:55Z</time>
      </trkpt>
      <trkpt lat="59.8166711" lon="17.6412359">
        <ele>20.8057</ele>
        <time>2014-05-29T11:07:56Z</time>
      </trkpt>
      <trkpt lat="59.816634" lon="17.6412557">
        <ele>20.325</ele>
        <time>2014-05-29T11:07:57Z</time>
      </trkpt>
      <trkpt lat="59.8166047" lon="17.6412705">
        <ele>20.8057</ele>
        <time>2014-05-29T11:07:58Z</time>
      </trkpt>
      <trkpt lat="59.8165818" lon="17.6412702">
        <ele>21.2864</ele>
        <time>2014-05-29T11:07:59Z</time>
      </trkpt>
      <trkpt lat="59.8165548" lon="17.6412609">
        <ele>20.8057</ele>
        <time>2014-05-29T11:08:00Z</time>
      </trkpt>
      <trkpt lat="59.8165253" lon="17.6412547">
        <ele>20.325</ele>
        <time>2014-05-29T11:08:01Z</time>
      </trkpt>
      <trkpt lat="59.8165068" lon="17.6412432">
        <ele>20.325</ele>
        <time>2014-05-29T11:08:02Z</time>
      </trkpt>
      <trkpt lat="59.8164866" lon="17.641238">
        <ele>20.325</ele>
        <time>2014-05-29T11:08:03Z</time>
      </trkpt>
      <trkpt lat="59.8164624" lon="17.6412378">
        <ele>20.325</ele>
        <time>2014-05-29T11:08:04Z</time>
      </trkpt>
      <trkpt lat="59.8164498" lon="17.6412285">
        <ele>19.8444</ele>
        <time>2014-05-29T11:08:05Z</time>
      </trkpt>
      <trkpt lat="59.8164308" lon="17.6412288">
        <ele>18.8831</ele>
        <time>2014-05-29T11:08:06Z</time>
      </trkpt>
      <trkpt lat="59.8164113" lon="17.6412218">
        <ele>18.4023</ele>
        <time>2014-05-29T11:08:07Z</time>
      </trkpt>
      <trkpt lat="59.8163897" lon="17.6411985">
        <ele>17.9218</ele>
        <time>2014-05-29T11:08:08Z</time>
      </trkpt>
      <trkpt lat="59.8163672" lon="17.6411627">
        <ele>17.9218</ele>
        <time>2014-05-29T11:08:09Z</time>
      </trkpt>
      <trkpt lat="59.8163481" lon="17.6411285">
        <ele>17.4412</ele>
        <time>2014-05-29T11:08:10Z</time>
      </trkpt>
      <trkpt lat="59.8163296" lon="17.6410898">
        <ele>17.9218</ele>
        <time>2014-05-29T11:08:11Z</time>
      </trkpt>
      <trkpt lat="59.8163183" lon="17.6410514">
        <ele>17.9218</ele>
        <time>2014-05-29T11:08:12Z</time>
      </trkpt>
      <trkpt lat="59.8163172" lon="17.6410075">
        <ele>18.8831</ele>
        <time>2014-05-29T11:08:13Z</time>
      </trkpt>
      <trkpt lat="59.8163103" lon="17.6409672">
        <ele>18.8831</ele>
        <time>2014-05-29T11:08:14Z</time>
      </trkpt>
      <trkpt lat="59.8163068" lon="17.6409252">
        <ele>18.8831</ele>
        <time>2014-05-29T11:08:15Z</time>
      </trkpt>
      <trkpt lat="59.8163066" lon="17.6408755">
        <ele>18.8831</ele>
        <time>2014-05-29T11:08:16Z</time>
      </trkpt>
      <trkpt lat="59.8163022" lon="17.6408242">
        <ele>18.4023</ele>
        <time>2014-05-29T11:08:17Z</time>
      </trkpt>
      <trkpt lat="59.8162978" lon="17.6407799">
        <ele>18.4023</ele>
        <time>2014-05-29T11:08:18Z</time>
      </trkpt>
      <trkpt lat="59.8162891" lon="17.6407392">
        <ele>17.4412</ele>
        <time>2014-05-29T11:08:19Z</time>
      </trkpt>
      <trkpt lat="59.8162576" lon="17.640704">
        <ele>15.999</ele>
        <time>2014-05-29T11:08:20Z</time>
      </trkpt>
      <trkpt lat="59.816238" lon="17.64068">
        <ele>16.4797</ele>
        <time>2014-05-29T11:08:21Z</time>
      </trkpt>
      <trkpt lat="59.8162085" lon="17.6406574">
        <ele>16.4797</ele>
        <time>2014-05-29T11:08:22Z</time>
      </trkpt>
      <trkpt lat="59.8161829" lon="17.6406285">
        <ele>17.4412</ele>
        <time>2014-05-29T11:08:23Z</time>
      </trkpt>
      <trkpt lat="59.8161524" lon="17.6405765">
        <ele>17.9218</ele>
        <time>2014-05-29T11:08:24Z</time>
      </trkpt>
      <trkpt lat="59.816127" lon="17.6405261">
        <ele>18.4023</ele>
        <time>2014-05-29T11:08:25Z</time>
      </trkpt>
      <trkpt lat="59.8161105" lon="17.6404766">
        <ele>19.8444</ele>
        <time>2014-05-29T11:08:26Z</time>
      </trkpt>
      <trkpt lat="59.8160964" lon="17.640443">
        <ele>21.767</ele>
        <time>2014-05-29T11:08:27Z</time>
      </trkpt>
      <trkpt lat="59.8160794" lon="17.6404156">
        <ele>22.7283</ele>
        <time>2014-05-29T11:08:28Z</time>
      </trkpt>
      <trkpt lat="59.8160623" lon="17.6403916">
        <ele>23.209</ele>
        <time>2014-05-29T11:08:29Z</time>
      </trkpt>
      <trkpt lat="59.8160547" lon="17.6403636">
        <ele>24.1703</ele>
        <time>2014-05-29T11:08:30Z</time>
      </trkpt>
      <trkpt lat="59.8160494" lon="17.6403223">
        <ele>25.1317</ele>
        <time>2014-05-29T11:08:31Z</time>
      </trkpt>
      <trkpt lat="59.8160478" lon="17.640273">
        <ele>26.0929</ele>
        <time>2014-05-29T11:08:32Z</time>
      </trkpt>
      <trkpt lat="59.8160226" lon="17.6402034">
        <ele>24.651</ele>
        <time>2014-05-29T11:08:33Z</time>
      </trkpt>
      <trkpt lat="59.8159991" lon="17.640102">
        <ele>26.5736</ele>
        <time>2014-05-29T11:08:34Z</time>
      </trkpt>
      <trkpt lat="59.8159756" lon="17.6400003">
        <ele>29.4575</ele>
        <time>2014-05-29T11:08:35Z</time>
      </trkpt>
      <trkpt lat="59.8159477" lon="17.6399026">
        <ele>31.3801</ele>
        <time>2014-05-29T11:08:36Z</time>
      </trkpt>
      <trkpt lat="59.815937" lon="17.6398198">
        <ele>32.8223</ele>
        <time>2014-05-29T11:08:37Z</time>
      </trkpt>
      <trkpt lat="59.8159207" lon="17.6397563">
        <ele>33.7834</ele>
        <time>2014-05-29T11:08:38Z</time>
      </trkpt>
      <trkpt lat="59.8158996" lon="17.6396864">
        <ele>35.7061</ele>
        <time>2014-05-29T11:08:39Z</time>
      </trkpt>
      <trkpt lat="59.8158602" lon="17.6396463">
        <ele>33.3029</ele>
        <time>2014-05-29T11:08:40Z</time>
      </trkpt>
      <trkpt lat="59.815819" lon="17.6396199">
        <ele>30.4188</ele>
        <time>2014-05-29T11:08:41Z</time>
      </trkpt>
      <trkpt lat="59.8157917" lon="17.6395851">
        <ele>32.8223</ele>
        <time>2014-05-29T11:08:42Z</time>
      </trkpt>
      <trkpt lat="59.8157641" lon="17.6395498">
        <ele>31.3801</ele>
        <time>2014-05-29T11:08:43Z</time>
      </trkpt>
      <trkpt lat="59.8157377" lon="17.6395165">
        <ele>30.8995</ele>
        <time>2014-05-29T11:08:44Z</time>
      </trkpt>
      <trkpt lat="59.8157229" lon="17.6394895">
        <ele>31.3801</ele>
        <time>2014-05-29T11:08:45Z</time>
      </trkpt>
      <trkpt lat="59.8157135" lon="17.6394706">
        <ele>30.4188</ele>
        <time>2014-05-29T11:08:46Z</time>
      </trkpt>
      <trkpt lat="59.815705" lon="17.6394566">
        <ele>30.8995</ele>
        <time>2014-05-29T11:08:47Z</time>
      </trkpt>
      <trkpt lat="59.8156872" lon="17.6394434">
        <ele>30.8995</ele>
        <time>2014-05-29T11:08:48Z</time>
      </trkpt>
      <trkpt lat="59.8156695" lon="17.6394329">
        <ele>31.3801</ele>
        <time>2014-05-29T11:08:49Z</time>
      </trkpt>
      <trkpt lat="59.8156532" lon="17.6394214">
        <ele>31.8607</ele>
        <time>2014-05-29T11:08:50Z</time>
      </trkpt>
      <trkpt lat="59.8156386" lon="17.6394063">
        <ele>32.3416</ele>
        <time>2014-05-29T11:08:51Z</time>
      </trkpt>
      <trkpt lat="59.8156244" lon="17.6393899">
        <ele>32.8223</ele>
        <time>2014-05-29T11:08:52Z</time>
      </trkpt>
      <trkpt lat="59.8156131" lon="17.6393721">
        <ele>32.8223</ele>
        <time>2014-05-29T11:08:53Z</time>
      </trkpt>
      <trkpt lat="59.8156044" lon="17.6393557">
        <ele>33.3029</ele>
        <time>2014-05-29T11:08:54Z</time>
      </trkpt>
      <trkpt lat="59.8155985" lon="17.6393458">
        <ele>32.8223</ele>
        <time>2014-05-29T11:08:55Z</time>
      </trkpt>
      <trkpt lat="59.8155956" lon="17.6393333">
        <ele>32.8223</ele>
        <time>2014-05-29T11:08:56Z</time>
      </trkpt>
      <trkpt lat="59.8155899" lon="17.6393182">
        <ele>33.3029</ele>
        <time>2014-05-29T11:08:57Z</time>
      </trkpt>
      <trkpt lat="59.8155825" lon="17.6393067">
        <ele>32.8223</ele>
        <time>2014-05-29T11:08:58Z</time>
      </trkpt>
      <trkpt lat="59.8155762" lon="17.639297">
        <ele>32.8223</ele>
        <time>2014-05-29T11:08:59Z</time>
      </trkpt>
      <trkpt lat="59.8155726" lon="17.6392865">
        <ele>32.8223</ele>
        <time>2014-05-29T11:09:00Z</time>
      </trkpt>
      <trkpt lat="59.8155674" lon="17.6392691">
        <ele>32.3416</ele>
        <time>2014-05-29T11:09:01Z</time>
      </trkpt>
      <trkpt lat="59.8155597" lon="17.6392499">
        <ele>32.3416</ele>
        <time>2014-05-29T11:09:02Z</time>
      </trkpt>
      <trkpt lat="59.81555" lon="17.6392248">
        <ele>31.8607</ele>
        <time>2014-05-29T11:09:03Z</time>
      </trkpt>
      <trkpt lat="59.8155359" lon="17.6391857">
        <ele>31.3801</ele>
        <time>2014-05-29T11:09:04Z</time>
      </trkpt>
      <trkpt lat="59.8155187" lon="17.6391469">
        <ele>30.4188</ele>
        <time>2014-05-29T11:09:05Z</time>
      </trkpt>
      <trkpt lat="59.8154973" lon="17.6391215">
        <ele>29.4575</ele>
        <time>2014-05-29T11:09:06Z</time>
      </trkpt>
      <trkpt lat="59.8154712" lon="17.6391007">
        <ele>28.0155</ele>
        <time>2014-05-29T11:09:07Z</time>
      </trkpt>
      <trkpt lat="59.8154467" lon="17.6390842">
        <ele>28.0155</ele>
        <time>2014-05-29T11:09:08Z</time>
      </trkpt>
      <trkpt lat="59.815419" lon="17.6390914">
        <ele>26.5736</ele>
        <time>2014-05-29T11:09:09Z</time>
      </trkpt>
      <trkpt lat="59.815388" lon="17.6391059">
        <ele>24.651</ele>
        <time>2014-05-29T11:09:10Z</time>
      </trkpt>
      <trkpt lat="59.8153561" lon="17.6391055">
        <ele>22.7283</ele>
        <time>2014-05-29T11:09:11Z</time>
      </trkpt>
      <trkpt lat="59.8153294" lon="17.6391013">
        <ele>22.2476</ele>
        <time>2014-05-29T11:09:12Z</time>
      </trkpt>
      <trkpt lat="59.8153024" lon="17.6390882">
        <ele>21.2864</ele>
        <time>2014-05-29T11:09:13Z</time>
      </trkpt>
      <trkpt lat="59.8152816" lon="17.6390634">
        <ele>20.325</ele>
        <time>2014-05-29T11:09:14Z</time>
      </trkpt>
      <trkpt lat="59.8152619" lon="17.6390287">
        <ele>19.8444</ele>
        <time>2014-05-29T11:09:15Z</time>
      </trkpt>
      <trkpt lat="59.8152432" lon="17.6390008">
        <ele>18.8831</ele>
        <time>2014-05-29T11:09:16Z</time>
      </trkpt>
      <trkpt lat="59.815222" lon="17.6389938">
        <ele>17.9218</ele>
        <time>2014-05-29T11:09:17Z</time>
      </trkpt>
      <trkpt lat="59.8151997" lon="17.6389929">
        <ele>17.4412</ele>
        <time>2014-05-29T11:09:18Z</time>
      </trkpt>
      <trkpt lat="59.8151723" lon="17.6389845">
        <ele>17.9218</ele>
        <time>2014-05-29T11:09:19Z</time>
      </trkpt>
      <trkpt lat="59.815152" lon="17.6389934">
        <ele>17.4412</ele>
        <time>2014-05-29T11:09:20Z</time>
      </trkpt>
      <trkpt lat="59.8151356" lon="17.6390198">
        <ele>17.9218</ele>
        <time>2014-05-29T11:09:21Z</time>
      </trkpt>
      <trkpt lat="59.8151135" lon="17.6390426">
        <ele>17.4412</ele>
        <time>2014-05-29T11:09:22Z</time>
      </trkpt>
      <trkpt lat="59.8150958" lon="17.6390515">
        <ele>17.4412</ele>
        <time>2014-05-29T11:09:23Z</time>
      </trkpt>
      <trkpt lat="59.8150806" lon="17.639063">
        <ele>17.9218</ele>
        <time>2014-05-29T11:09:24Z</time>
      </trkpt>
      <trkpt lat="59.8150619" lon="17.6390716">
        <ele>17.9218</ele>
        <time>2014-05-29T11:09:25Z</time>
      </trkpt>
      <trkpt lat="59.8150367" lon="17.639086">
        <ele>17.9218</ele>
        <time>2014-05-29T11:09:26Z</time>
      </trkpt>
      <trkpt lat="59.8150137" lon="17.6391003">
        <ele>17.4412</ele>
        <time>2014-05-29T11:09:27Z</time>
      </trkpt>
      <trkpt lat="59.8149875" lon="17.6391049">
        <ele>17.9218</ele>
        <time>2014-05-29T11:09:28Z</time>
      </trkpt>
      <trkpt lat="59.8149632" lon="17.6391111">
        <ele>18.8831</ele>
        <time>2014-05-29T11:09:29Z</time>
      </trkpt>
      <trkpt lat="59.8149401" lon="17.6391216">
        <ele>19.3638</ele>
        <time>2014-05-29T11:09:30Z</time>
      </trkpt>
      <trkpt lat="59.8149164" lon="17.6391303">
        <ele>19.3638</ele>
        <time>2014-05-29T11:09:31Z</time>
      </trkpt>
      <trkpt lat="59.8148916" lon="17.6391394">
        <ele>19.3638</ele>
        <time>2014-05-29T11:09:32Z</time>
      </trkpt>
      <trkpt lat="59.8148681" lon="17.6391541">
        <ele>18.8831</ele>
        <time>2014-05-29T11:09:33Z</time>
      </trkpt>
      <trkpt lat="59.8148383" lon="17.6391743">
        <ele>19.3638</ele>
        <time>2014-05-29T11:09:34Z</time>
      </trkpt>
      <trkpt lat="59.8148062" lon="17.6391944">
        <ele>18.4023</ele>
        <time>2014-05-29T11:09:35Z</time>
      </trkpt>
      <trkpt lat="59.814774" lon="17.6392272">
        <ele>18.4023</ele>
        <time>2014-05-29T11:09:36Z</time>
      </trkpt>
      <trkpt lat="59.8147507" lon="17.6392743">
        <ele>18.8831</ele>
        <time>2014-05-29T11:09:37Z</time>
      </trkpt>
      <trkpt lat="59.814729" lon="17.639323">
        <ele>18.8831</ele>
        <time>2014-05-29T11:09:38Z</time>
      </trkpt>
      <trkpt lat="59.8147114" lon="17.639365">
        <ele>18.8831</ele>
        <time>2014-05-29T11:09:39Z</time>
      </trkpt>
      <trkpt lat="59.8146932" lon="17.6394105">
        <ele>18.4023</ele>
        <time>2014-05-29T11:09:40Z</time>
      </trkpt>
      <trkpt lat="59.8146711" lon="17.6394426">
        <ele>18.4023</ele>
        <time>2014-05-29T11:09:41Z</time>
      </trkpt>
      <trkpt lat="59.8146475" lon="17.6394487">
        <ele>17.9218</ele>
        <time>2014-05-29T11:09:42Z</time>
      </trkpt>
      <trkpt lat="59.8146136" lon="17.6394348">
        <ele>18.8831</ele>
        <time>2014-05-29T11:09:43Z</time>
      </trkpt>
      <trkpt lat="59.814574" lon="17.6394407">
        <ele>17.9218</ele>
        <time>2014-05-29T11:09:44Z</time>
      </trkpt>
      <trkpt lat="59.8145347" lon="17.6394434">
        <ele>17.4412</ele>
        <time>2014-05-29T11:09:45Z</time>
      </trkpt>
      <trkpt lat="59.8145011" lon="17.6394372">
        <ele>16.9604</ele>
        <time>2014-05-29T11:09:46Z</time>
      </trkpt>
      <trkpt lat="59.8144566" lon="17.6394308">
        <ele>15.999</ele>
        <time>2014-05-29T11:09:47Z</time>
      </trkpt>
      <trkpt lat="59.8144078" lon="17.6394198">
        <ele>15.0377</ele>
        <time>2014-05-29T11:09:48Z</time>
      </trkpt>
      <trkpt lat="59.8143634" lon="17.6394175">
        <ele>14.0764</ele>
        <time>2014-05-29T11:09:49Z</time>
      </trkpt>
      <trkpt lat="59.8143213" lon="17.6393942">
        <ele>14.0764</ele>
        <time>2014-05-29T11:09:50Z</time>
      </trkpt>
      <trkpt lat="59.8142885" lon="17.6393551">
        <ele>13.5958</ele>
        <time>2014-05-29T11:09:51Z</time>
      </trkpt>
      <trkpt lat="59.814254" lon="17.6393025">
        <ele>14.557</ele>
        <time>2014-05-29T11:09:52Z</time>
      </trkpt>
      <trkpt lat="59.8142249" lon="17.6392511">
        <ele>15.0377</ele>
        <time>2014-05-29T11:09:53Z</time>
      </trkpt>
      <trkpt lat="59.8142005" lon="17.6391917">
        <ele>15.0377</ele>
        <time>2014-05-29T11:09:54Z</time>
      </trkpt>
      <trkpt lat="59.8141761" lon="17.6391385">
        <ele>14.557</ele>
        <time>2014-05-29T11:09:55Z</time>
      </trkpt>
      <trkpt lat="59.8141479" lon="17.6390964">
        <ele>14.0764</ele>
        <time>2014-05-29T11:09:56Z</time>
      </trkpt>
      <trkpt lat="59.8141139" lon="17.6390686">
        <ele>13.1151</ele>
        <time>2014-05-29T11:09:57Z</time>
      </trkpt>
      <trkpt lat="59.8140767" lon="17.6390462">
        <ele>12.1538</ele>
        <time>2014-05-29T11:09:58Z</time>
      </trkpt>
      <trkpt lat="59.8140403" lon="17.6390237">
        <ele>11.6732</ele>
        <time>2014-05-29T11:09:59Z</time>
      </trkpt>
      <trkpt lat="59.8140047" lon="17.6390006">
        <ele>11.1925</ele>
        <time>2014-05-29T11:10:00Z</time>
      </trkpt>
      <trkpt lat="59.813966" lon="17.6389914">
        <ele>10.7118</ele>
        <time>2014-05-29T11:10:01Z</time>
      </trkpt>
      <trkpt lat="59.8139224" lon="17.6389904">
        <ele>10.7118</ele>
        <time>2014-05-29T11:10:02Z</time>
      </trkpt>
      <trkpt lat="59.8138732" lon="17.638996">
        <ele>10.2312</ele>
        <time>2014-05-29T11:10:03Z</time>
      </trkpt>
      <trkpt lat="59.8138308" lon="17.639014">
        <ele>9.75061</ele>
        <time>2014-05-29T11:10:04Z</time>
      </trkpt>
      <trkpt lat="59.8138023" lon="17.6390334">
        <ele>9.75061</ele>
        <time>2014-05-29T11:10:05Z</time>
      </trkpt>
      <trkpt lat="59.8137803" lon="17.6390345">
        <ele>9.75061</ele>
        <time>2014-05-29T11:10:06Z</time>
      </trkpt>
      <trkpt lat="59.8137586" lon="17.6390219">
        <ele>9.2699</ele>
        <time>2014-05-29T11:10:07Z</time>
      </trkpt>
      <trkpt lat="59.8137437" lon="17.6389956">
        <ele>9.75061</ele>
        <time>2014-05-29T11:10:08Z</time>
      </trkpt>
      <trkpt lat="59.813737" lon="17.638956">
        <ele>9.2699</ele>
        <time>2014-05-29T11:10:09Z</time>
      </trkpt>
      <trkpt lat="59.8137302" lon="17.6389065">
        <ele>9.2699</ele>
        <time>2014-05-29T11:10:10Z</time>
      </trkpt>
      <trkpt lat="59.8137221" lon="17.6388557">
        <ele>9.75061</ele>
        <time>2014-05-29T11:10:11Z</time>
      </trkpt>
      <trkpt lat="59.8137121" lon="17.6387992">
        <ele>9.2699</ele>
        <time>2014-05-29T11:10:12Z</time>
      </trkpt>
      <trkpt lat="59.8137028" lon="17.6387402">
        <ele>9.2699</ele>
        <time>2014-05-29T11:10:13Z</time>
      </trkpt>
      <trkpt lat="59.8136934" lon="17.6386841">
        <ele>9.2699</ele>
        <time>2014-05-29T11:10:14Z</time>
      </trkpt>
      <trkpt lat="59.8136877" lon="17.6386242">
        <ele>9.2699</ele>
        <time>2014-05-29T11:10:15Z</time>
      </trkpt>
      <trkpt lat="59.8136816" lon="17.6385486">
        <ele>9.2699</ele>
        <time>2014-05-29T11:10:16Z</time>
      </trkpt>
      <trkpt lat="59.8136769" lon="17.6384796">
        <ele>9.75061</ele>
        <time>2014-05-29T11:10:17Z</time>
      </trkpt>
      <trkpt lat="59.8136705" lon="17.6384207">
        <ele>10.2312</ele>
        <time>2014-05-29T11:10:18Z</time>
      </trkpt>
      <trkpt lat="59.8136583" lon="17.6383745">
        <ele>9.2699</ele>
        <time>2014-05-29T11:10:19Z</time>
      </trkpt>
      <trkpt lat="59.8136272" lon="17.6383295">
        <ele>9.75061</ele>
        <time>2014-05-29T11:10:20Z</time>
      </trkpt>
      <trkpt lat="59.8135897" lon="17.6382731">
        <ele>9.2699</ele>
        <time>2014-05-29T11:10:21Z</time>
      </trkpt>
      <trkpt lat="59.8135494" lon="17.638209">
        <ele>9.75061</ele>
        <time>2014-05-29T11:10:22Z</time>
      </trkpt>
      <trkpt lat="59.8135122" lon="17.6381435">
        <ele>9.75061</ele>
        <time>2014-05-29T11:10:23Z</time>
      </trkpt>
      <trkpt lat="59.8134794" lon="17.6380787">
        <ele>9.75061</ele>
        <time>2014-05-29T11:10:24Z</time>
      </trkpt>
      <trkpt lat="59.8134493" lon="17.63802">
        <ele>9.2699</ele>
        <time>2014-05-29T11:10:25Z</time>
      </trkpt>
      <trkpt lat="59.8134173" lon="17.6379682">
        <ele>9.75061</ele>
        <time>2014-05-29T11:10:26Z</time>
      </trkpt>
      <trkpt lat="59.8133874" lon="17.6379274">
        <ele>9.75061</ele>
        <time>2014-05-29T11:10:27Z</time>
      </trkpt>
      <trkpt lat="59.8133641" lon="17.6378896">
        <ele>10.7118</ele>
        <time>2014-05-29T11:10:28Z</time>
      </trkpt>
      <trkpt lat="59.8133537" lon="17.6378444">
        <ele>11.1925</ele>
        <time>2014-05-29T11:10:29Z</time>
      </trkpt>
      <trkpt lat="59.8133517" lon="17.637799">
        <ele>11.6732</ele>
        <time>2014-05-29T11:10:30Z</time>
      </trkpt>
      <trkpt lat="59.8133505" lon="17.637761">
        <ele>12.6344</ele>
        <time>2014-05-29T11:10:31Z</time>
      </trkpt>
      <trkpt lat="59.8133392" lon="17.6377358">
        <ele>13.5958</ele>
        <time>2014-05-29T11:10:32Z</time>
      </trkpt>
      <trkpt lat="59.8133183" lon="17.6377314">
        <ele>13.5958</ele>
        <time>2014-05-29T11:10:33Z</time>
      </trkpt>
      <trkpt lat="59.8132875" lon="17.6377368">
        <ele>13.1151</ele>
        <time>2014-05-29T11:10:34Z</time>
      </trkpt>
      <trkpt lat="59.8132514" lon="17.6377368">
        <ele>12.1538</ele>
        <time>2014-05-29T11:10:35Z</time>
      </trkpt>
      <trkpt lat="59.8132268" lon="17.6377377">
        <ele>12.1538</ele>
        <time>2014-05-29T11:10:36Z</time>
      </trkpt>
      <trkpt lat="59.8131491" lon="17.6378053">
        <ele>12.6344</ele>
        <time>2014-05-29T11:10:37Z</time>
      </trkpt>
      <trkpt lat="59.8131209" lon="17.6378259">
        <ele>12.6344</ele>
        <time>2014-05-29T11:10:38Z</time>
      </trkpt>
      <trkpt lat="59.8130911" lon="17.6378226">
        <ele>13.1151</ele>
        <time>2014-05-29T11:10:39Z</time>
      </trkpt>
      <trkpt lat="59.8130663" lon="17.6378206">
        <ele>13.5958</ele>
        <time>2014-05-29T11:10:40Z</time>
      </trkpt>
      <trkpt lat="59.8130501" lon="17.6378238">
        <ele>14.0764</ele>
        <time>2014-05-29T11:10:41Z</time>
      </trkpt>
      <trkpt lat="59.8130366" lon="17.6378255">
        <ele>14.0764</ele>
        <time>2014-05-29T11:10:42Z</time>
      </trkpt>
      <trkpt lat="59.8130222" lon="17.6378268">
        <ele>13.5958</ele>
        <time>2014-05-29T11:10:43Z</time>
      </trkpt>
      <trkpt lat="59.8130045" lon="17.6378285">
        <ele>13.5958</ele>
        <time>2014-05-29T11:10:44Z</time>
      </trkpt>
      <trkpt lat="59.8129827" lon="17.6378333">
        <ele>13.1151</ele>
        <time>2014-05-29T11:10:45Z</time>
      </trkpt>
      <trkpt lat="59.8129557" lon="17.6378438">
        <ele>13.1151</ele>
        <time>2014-05-29T11:10:46Z</time>
      </trkpt>
      <trkpt lat="59.8129214" lon="17.6378523">
        <ele>13.1151</ele>
        <time>2014-05-29T11:10:47Z</time>
      </trkpt>
      <trkpt lat="59.8128826" lon="17.6378503">
        <ele>13.5958</ele>
        <time>2014-05-29T11:10:48Z</time>
      </trkpt>
      <trkpt lat="59.8128486" lon="17.6378428">
        <ele>13.5958</ele>
        <time>2014-05-29T11:10:49Z</time>
      </trkpt>
      <trkpt lat="59.8128201" lon="17.6378369">
        <ele>14.0764</ele>
        <time>2014-05-29T11:10:50Z</time>
      </trkpt>
      <trkpt lat="59.8127956" lon="17.6378324">
        <ele>15.0377</ele>
        <time>2014-05-29T11:10:51Z</time>
      </trkpt>
      <trkpt lat="59.8127781" lon="17.6378269">
        <ele>15.5184</ele>
        <time>2014-05-29T11:10:52Z</time>
      </trkpt>
      <trkpt lat="59.8127655" lon="17.6378305">
        <ele>15.999</ele>
        <time>2014-05-29T11:10:53Z</time>
      </trkpt>
      <trkpt lat="59.8127589" lon="17.6378516">
        <ele>16.4797</ele>
        <time>2014-05-29T11:10:54Z</time>
      </trkpt>
      <trkpt lat="59.8127507" lon="17.6378816">
        <ele>16.4797</ele>
        <time>2014-05-29T11:10:55Z</time>
      </trkpt>
      <trkpt lat="59.8127419" lon="17.6378964">
        <ele>16.4797</ele>
        <time>2014-05-29T11:10:56Z</time>
      </trkpt>
      <trkpt lat="59.8127331" lon="17.6378816">
        <ele>16.9604</ele>
        <time>2014-05-29T11:10:57Z</time>
      </trkpt>
      <trkpt lat="59.812717" lon="17.6378511">
        <ele>16.9604</ele>
        <time>2014-05-29T11:10:58Z</time>
      </trkpt>
      <trkpt lat="59.8126914" lon="17.6378258">
        <ele>17.4412</ele>
        <time>2014-05-29T11:10:59Z</time>
      </trkpt>
      <trkpt lat="59.8126642" lon="17.6378141">
        <ele>17.4412</ele>
        <time>2014-05-29T11:11:00Z</time>
      </trkpt>
      <trkpt lat="59.8126367" lon="17.6378004">
        <ele>17.9218</ele>
        <time>2014-05-29T11:11:01Z</time>
      </trkpt>
      <trkpt lat="59.8126054" lon="17.6377782">
        <ele>18.4023</ele>
        <time>2014-05-29T11:11:02Z</time>
      </trkpt>
      <trkpt lat="59.8125715" lon="17.6377522">
        <ele>18.8831</ele>
        <time>2014-05-29T11:11:03Z</time>
      </trkpt>
      <trkpt lat="59.8125394" lon="17.637732">
        <ele>19.8444</ele>
        <time>2014-05-29T11:11:04Z</time>
      </trkpt>
      <trkpt lat="59.8125102" lon="17.6377145">
        <ele>20.325</ele>
        <time>2014-05-29T11:11:05Z</time>
      </trkpt>
      <trkpt lat="59.8124827" lon="17.6376968">
        <ele>21.2864</ele>
        <time>2014-05-29T11:11:06Z</time>
      </trkpt>
      <trkpt lat="59.8124563" lon="17.6376812">
        <ele>21.767</ele>
        <time>2014-05-29T11:11:07Z</time>
      </trkpt>
      <trkpt lat="59.8124345" lon="17.6376633">
        <ele>21.767</ele>
        <time>2014-05-29T11:11:08Z</time>
      </trkpt>
      <trkpt lat="59.8124104" lon="17.637648">
        <ele>21.767</ele>
        <time>2014-05-29T11:11:09Z</time>
      </trkpt>
      <trkpt lat="59.812385" lon="17.6376344">
        <ele>21.767</ele>
        <time>2014-05-29T11:11:10Z</time>
      </trkpt>
      <trkpt lat="59.8123594" lon="17.6376266">
        <ele>21.2864</ele>
        <time>2014-05-29T11:11:11Z</time>
      </trkpt>
      <trkpt lat="59.8123364" lon="17.6376216">
        <ele>21.2864</ele>
        <time>2014-05-29T11:11:12Z</time>
      </trkpt>
      <trkpt lat="59.812314" lon="17.637613">
        <ele>20.8057</ele>
        <time>2014-05-29T11:11:13Z</time>
      </trkpt>
      <trkpt lat="59.8122953" lon="17.6376109">
        <ele>20.8057</ele>
        <time>2014-05-29T11:11:14Z</time>
      </trkpt>
      <trkpt lat="59.8122802" lon="17.637613">
        <ele>20.8057</ele>
        <time>2014-05-29T11:11:15Z</time>
      </trkpt>
      <trkpt lat="59.8122607" lon="17.6376145">
        <ele>20.325</ele>
        <time>2014-05-29T11:11:16Z</time>
      </trkpt>
      <trkpt lat="59.8122379" lon="17.6376083">
        <ele>20.325</ele>
        <time>2014-05-29T11:11:17Z</time>
      </trkpt>
      <trkpt lat="59.8122213" lon="17.6376001">
        <ele>20.325</ele>
        <time>2014-05-29T11:11:18Z</time>
      </trkpt>
      <trkpt lat="59.8122055" lon="17.6375841">
        <ele>20.8057</ele>
        <time>2014-05-29T11:11:19Z</time>
      </trkpt>
      <trkpt lat="59.8121839" lon="17.6375751">
        <ele>20.8057</ele>
        <time>2014-05-29T11:11:20Z</time>
      </trkpt>
      <trkpt lat="59.8121628" lon="17.6375705">
        <ele>21.767</ele>
        <time>2014-05-29T11:11:21Z</time>
      </trkpt>
      <trkpt lat="59.8121437" lon="17.637569">
        <ele>21.2864</ele>
        <time>2014-05-29T11:11:22Z</time>
      </trkpt>
      <trkpt lat="59.8121337" lon="17.6375788">
        <ele>21.2864</ele>
        <time>2014-05-29T11:11:23Z</time>
      </trkpt>
      <trkpt lat="59.8121281" lon="17.6375818">
        <ele>21.2864</ele>
        <time>2014-05-29T11:11:24Z</time>
      </trkpt>
      <trkpt lat="59.8121209" lon="17.6375796">
        <ele>22.2476</ele>
        <time>2014-05-29T11:11:25Z</time>
      </trkpt>
      <trkpt lat="59.8121133" lon="17.6375675">
        <ele>22.7283</ele>
        <time>2014-05-29T11:11:26Z</time>
      </trkpt>
      <trkpt lat="59.8121069" lon="17.637566">
        <ele>23.209</ele>
        <time>2014-05-29T11:11:27Z</time>
      </trkpt>
      <trkpt lat="59.8121001" lon="17.6375618">
        <ele>23.6896</ele>
        <time>2014-05-29T11:11:28Z</time>
      </trkpt>
      <trkpt lat="59.8120935" lon="17.6375617">
        <ele>24.1703</ele>
        <time>2014-05-29T11:11:29Z</time>
      </trkpt>
      <trkpt lat="59.8120856" lon="17.6375594">
        <ele>24.651</ele>
        <time>2014-05-29T11:11:30Z</time>
      </trkpt>
      <trkpt lat="59.812075" lon="17.6375548">
        <ele>24.651</ele>
        <time>2014-05-29T11:11:31Z</time>
      </trkpt>
      <trkpt lat="59.8120663" lon="17.637552">
        <ele>24.651</ele>
        <time>2014-05-29T11:11:32Z</time>
      </trkpt>
      <trkpt lat="59.8120579" lon="17.637546">
        <ele>24.651</ele>
        <time>2014-05-29T11:11:33Z</time>
      </trkpt>
      <trkpt lat="59.8120541" lon="17.6375425">
        <ele>25.1317</ele>
        <time>2014-05-29T11:11:34Z</time>
      </trkpt>
      <trkpt lat="59.8120486" lon="17.6375472">
        <ele>25.1317</ele>
        <time>2014-05-29T11:11:35Z</time>
      </trkpt>
      <trkpt lat="59.8120404" lon="17.6375429">
        <ele>25.6123</ele>
        <time>2014-05-29T11:11:36Z</time>
      </trkpt>
      <trkpt lat="59.8120318" lon="17.6375348">
        <ele>26.5736</ele>
        <time>2014-05-29T11:11:37Z</time>
      </trkpt>
      <trkpt lat="59.8120266" lon="17.6375317">
        <ele>26.0929</ele>
        <time>2014-05-29T11:11:38Z</time>
      </trkpt>
      <trkpt lat="59.8120185" lon="17.6375364">
        <ele>26.5736</ele>
        <time>2014-05-29T11:11:39Z</time>
      </trkpt>
      <trkpt lat="59.8120037" lon="17.6375462">
        <ele>26.0929</ele>
        <time>2014-05-29T11:11:40Z</time>
      </trkpt>
      <trkpt lat="59.8119876" lon="17.6375555">
        <ele>26.0929</ele>
        <time>2014-05-29T11:11:41Z</time>
      </trkpt>
      <trkpt lat="59.8119742" lon="17.6375586">
        <ele>26.5736</ele>
        <time>2014-05-29T11:11:42Z</time>
      </trkpt>
      <trkpt lat="59.8119559" lon="17.6375451">
        <ele>26.0929</ele>
        <time>2014-05-29T11:11:43Z</time>
      </trkpt>
      <trkpt lat="59.8119367" lon="17.637525">
        <ele>26.5736</ele>
        <time>2014-05-29T11:11:44Z</time>
      </trkpt>
      <trkpt lat="59.8119171" lon="17.6375073">
        <ele>26.0929</ele>
        <time>2014-05-29T11:11:45Z</time>
      </trkpt>
      <trkpt lat="59.8119008" lon="17.6375011">
        <ele>26.0929</ele>
        <time>2014-05-29T11:11:46Z</time>
      </trkpt>
      <trkpt lat="59.8118837" lon="17.6375011">
        <ele>25.6123</ele>
        <time>2014-05-29T11:11:47Z</time>
      </trkpt>
      <trkpt lat="59.8118655" lon="17.6375041">
        <ele>25.6123</ele>
        <time>2014-05-29T11:11:48Z</time>
      </trkpt>
      <trkpt lat="59.8118461" lon="17.6375116">
        <ele>25.1317</ele>
        <time>2014-05-29T11:11:49Z</time>
      </trkpt>
      <trkpt lat="59.8117899" lon="17.6375056">
        <ele>25.1317</ele>
        <time>2014-05-29T11:11:50Z</time>
      </trkpt>
      <trkpt lat="59.8117632" lon="17.6374939">
        <ele>24.651</ele>
        <time>2014-05-29T11:11:51Z</time>
      </trkpt>
      <trkpt lat="59.8117375" lon="17.6374833">
        <ele>24.651</ele>
        <time>2014-05-29T11:11:52Z</time>
      </trkpt>
      <trkpt lat="59.8117112" lon="17.6374731">
        <ele>24.1703</ele>
        <time>2014-05-29T11:11:53Z</time>
      </trkpt>
      <trkpt lat="59.8116871" lon="17.6374655">
        <ele>24.1703</ele>
        <time>2014-05-29T11:11:54Z</time>
      </trkpt>
      <trkpt lat="59.8116601" lon="17.6374667">
        <ele>23.6896</ele>
        <time>2014-05-29T11:11:55Z</time>
      </trkpt>
      <trkpt lat="59.8116281" lon="17.6374617">
        <ele>23.209</ele>
        <time>2014-05-29T11:11:56Z</time>
      </trkpt>
      <trkpt lat="59.8115993" lon="17.6374509">
        <ele>22.7283</ele>
        <time>2014-05-29T11:11:57Z</time>
      </trkpt>
      <trkpt lat="59.8115701" lon="17.6374389">
        <ele>22.7283</ele>
        <time>2014-05-29T11:11:58Z</time>
      </trkpt>
      <trkpt lat="59.8115411" lon="17.6374327">
        <ele>22.2476</ele>
        <time>2014-05-29T11:11:59Z</time>
      </trkpt>
      <trkpt lat="59.8115158" lon="17.637428">
        <ele>22.2476</ele>
        <time>2014-05-29T11:12:00Z</time>
      </trkpt>
      <trkpt lat="59.8114939" lon="17.6374323">
        <ele>21.767</ele>
        <time>2014-05-29T11:12:01Z</time>
      </trkpt>
      <trkpt lat="59.8114746" lon="17.637443">
        <ele>21.2864</ele>
        <time>2014-05-29T11:12:02Z</time>
      </trkpt>
      <trkpt lat="59.8114555" lon="17.6374503">
        <ele>20.8057</ele>
        <time>2014-05-29T11:12:03Z</time>
      </trkpt>
      <trkpt lat="59.8114338" lon="17.6374576">
        <ele>20.325</ele>
        <time>2014-05-29T11:12:04Z</time>
      </trkpt>
      <trkpt lat="59.8114137" lon="17.6374607">
        <ele>20.8057</ele>
        <time>2014-05-29T11:12:05Z</time>
      </trkpt>
      <trkpt lat="59.8113977" lon="17.6374607">
        <ele>20.325</ele>
        <time>2014-05-29T11:12:06Z</time>
      </trkpt>
      <trkpt lat="59.8113822" lon="17.637459">
        <ele>20.325</ele>
        <time>2014-05-29T11:12:07Z</time>
      </trkpt>
      <trkpt lat="59.8113717" lon="17.6374512">
        <ele>20.325</ele>
        <time>2014-05-29T11:12:08Z</time>
      </trkpt>
      <trkpt lat="59.8113622" lon="17.6374415">
        <ele>20.8057</ele>
        <time>2014-05-29T11:12:09Z</time>
      </trkpt>
      <trkpt lat="59.8113578" lon="17.6374299">
        <ele>21.2864</ele>
        <time>2014-05-29T11:12:10Z</time>
      </trkpt>
      <trkpt lat="59.8113516" lon="17.6374121">
        <ele>21.767</ele>
        <time>2014-05-29T11:12:11Z</time>
      </trkpt>
      <trkpt lat="59.811347" lon="17.6373955">
        <ele>21.767</ele>
        <time>2014-05-29T11:12:12Z</time>
      </trkpt>
      <trkpt lat="59.8113438" lon="17.6373818">
        <ele>21.767</ele>
        <time>2014-05-29T11:12:13Z</time>
      </trkpt>
      <trkpt lat="59.8113384" lon="17.6373659">
        <ele>21.767</ele>
        <time>2014-05-29T11:12:14Z</time>
      </trkpt>
      <trkpt lat="59.8113276" lon="17.6373603">
        <ele>21.2864</ele>
        <time>2014-05-29T11:12:15Z</time>
      </trkpt>
      <trkpt lat="59.8113184" lon="17.6373499">
        <ele>20.8057</ele>
        <time>2014-05-29T11:12:16Z</time>
      </trkpt>
      <trkpt lat="59.8113142" lon="17.6373435">
        <ele>21.2864</ele>
        <time>2014-05-29T11:12:17Z</time>
      </trkpt>
      <trkpt lat="59.8113025" lon="17.6373369">
        <ele>20.8057</ele>
        <time>2014-05-29T11:12:18Z</time>
      </trkpt>
      <trkpt lat="59.811291" lon="17.6373297">
        <ele>20.8057</ele>
        <time>2014-05-29T11:12:19Z</time>
      </trkpt>
      <trkpt lat="59.8112815" lon="17.6373228">
        <ele>20.8057</ele>
        <time>2014-05-29T11:12:20Z</time>
      </trkpt>
      <trkpt lat="59.811266" lon="17.6373146">
        <ele>21.2864</ele>
        <time>2014-05-29T11:12:21Z</time>
      </trkpt>
      <trkpt lat="59.8112521" lon="17.6373047">
        <ele>21.2864</ele>
        <time>2014-05-29T11:12:22Z</time>
      </trkpt>
      <trkpt lat="59.8112364" lon="17.6372964">
        <ele>20.8057</ele>
        <time>2014-05-29T11:12:23Z</time>
      </trkpt>
      <trkpt lat="59.8112195" lon="17.6372792">
        <ele>19.8444</ele>
        <time>2014-05-29T11:12:24Z</time>
      </trkpt>
      <trkpt lat="59.8112013" lon="17.6372611">
        <ele>20.325</ele>
        <time>2014-05-29T11:12:25Z</time>
      </trkpt>
      <trkpt lat="59.811181" lon="17.6372482">
        <ele>20.325</ele>
        <time>2014-05-29T11:12:26Z</time>
      </trkpt>
      <trkpt lat="59.8111597" lon="17.6372388">
        <ele>20.325</ele>
        <time>2014-05-29T11:12:27Z</time>
      </trkpt>
      <trkpt lat="59.8111395" lon="17.6372355">
        <ele>20.325</ele>
        <time>2014-05-29T11:12:28Z</time>
      </trkpt>
      <trkpt lat="59.8111193" lon="17.6372277">
        <ele>19.8444</ele>
        <time>2014-05-29T11:12:29Z</time>
      </trkpt>
      <trkpt lat="59.8110991" lon="17.6372152">
        <ele>20.325</ele>
        <time>2014-05-29T11:12:30Z</time>
      </trkpt>
      <trkpt lat="59.8110792" lon="17.6372131">
        <ele>20.8057</ele>
        <time>2014-05-29T11:12:31Z</time>
      </trkpt>
      <trkpt lat="59.8110599" lon="17.6372168">
        <ele>20.8057</ele>
        <time>2014-05-29T11:12:32Z</time>
      </trkpt>
      <trkpt lat="59.8110403" lon="17.6372284">
        <ele>21.2864</ele>
        <time>2014-05-29T11:12:33Z</time>
      </trkpt>
      <trkpt lat="59.8110221" lon="17.6372433">
        <ele>20.8057</ele>
        <time>2014-05-29T11:12:34Z</time>
      </trkpt>
      <trkpt lat="59.8110071" lon="17.6372628">
        <ele>21.767</ele>
        <time>2014-05-29T11:12:35Z</time>
      </trkpt>
      <trkpt lat="59.8109899" lon="17.6372867">
        <ele>21.767</ele>
        <time>2014-05-29T11:12:36Z</time>
      </trkpt>
      <trkpt lat="59.8109689" lon="17.637307">
        <ele>21.2864</ele>
        <time>2014-05-29T11:12:37Z</time>
      </trkpt>
      <trkpt lat="59.8109501" lon="17.6373286">
        <ele>21.2864</ele>
        <time>2014-05-29T11:12:38Z</time>
      </trkpt>
      <trkpt lat="59.8109366" lon="17.6373587">
        <ele>21.767</ele>
        <time>2014-05-29T11:12:39Z</time>
      </trkpt>
      <trkpt lat="59.8109241" lon="17.6373984">
        <ele>21.767</ele>
        <time>2014-05-29T11:12:40Z</time>
      </trkpt>
      <trkpt lat="59.8109107" lon="17.6374448">
        <ele>21.767</ele>
        <time>2014-05-29T11:12:41Z</time>
      </trkpt>
      <trkpt lat="59.8109019" lon="17.6374898">
        <ele>21.767</ele>
        <time>2014-05-29T11:12:42Z</time>
      </trkpt>
      <trkpt lat="59.8108879" lon="17.6375336">
        <ele>21.2864</ele>
        <time>2014-05-29T11:12:43Z</time>
      </trkpt>
      <trkpt lat="59.8108739" lon="17.6375721">
        <ele>21.2864</ele>
        <time>2014-05-29T11:12:44Z</time>
      </trkpt>
      <trkpt lat="59.8108566" lon="17.6376099">
        <ele>20.8057</ele>
        <time>2014-05-29T11:12:45Z</time>
      </trkpt>
      <trkpt lat="59.8108398" lon="17.6376454">
        <ele>20.8057</ele>
        <time>2014-05-29T11:12:46Z</time>
      </trkpt>
      <trkpt lat="59.8108268" lon="17.6376789">
        <ele>20.8057</ele>
        <time>2014-05-29T11:12:47Z</time>
      </trkpt>
      <trkpt lat="59.8108176" lon="17.6377088">
        <ele>20.8057</ele>
        <time>2014-05-29T11:12:48Z</time>
      </trkpt>
      <trkpt lat="59.8108095" lon="17.6377336">
        <ele>20.8057</ele>
        <time>2014-05-29T11:12:49Z</time>
      </trkpt>
      <trkpt lat="59.8107991" lon="17.6377578">
        <ele>20.8057</ele>
        <time>2014-05-29T11:12:50Z</time>
      </trkpt>
      <trkpt lat="59.8107895" lon="17.6377803">
        <ele>20.8057</ele>
        <time>2014-05-29T11:12:51Z</time>
      </trkpt>
      <trkpt lat="59.8107801" lon="17.6378052">
        <ele>20.325</ele>
        <time>2014-05-29T11:12:52Z</time>
      </trkpt>
      <trkpt lat="59.8107698" lon="17.6378164">
        <ele>20.8057</ele>
        <time>2014-05-29T11:12:53Z</time>
      </trkpt>
      <trkpt lat="59.810759" lon="17.63783">
        <ele>20.8057</ele>
        <time>2014-05-29T11:12:54Z</time>
      </trkpt>
      <trkpt lat="59.8107458" lon="17.637846">
        <ele>21.2864</ele>
        <time>2014-05-29T11:12:55Z</time>
      </trkpt>
      <trkpt lat="59.8107347" lon="17.6378648">
        <ele>21.2864</ele>
        <time>2014-05-29T11:12:56Z</time>
      </trkpt>
      <trkpt lat="59.8107233" lon="17.6378766">
        <ele>22.2476</ele>
        <time>2014-05-29T11:12:57Z</time>
      </trkpt>
      <trkpt lat="59.8107159" lon="17.6378902">
        <ele>23.6896</ele>
        <time>2014-05-29T11:12:58Z</time>
      </trkpt>
      <trkpt lat="59.8107071" lon="17.6379337">
        <ele>23.6896</ele>
        <time>2014-05-29T11:12:59Z</time>
      </trkpt>
      <trkpt lat="59.8107038" lon="17.6379688">
        <ele>23.6896</ele>
        <time>2014-05-29T11:13:00Z</time>
      </trkpt>
      <trkpt lat="59.8106958" lon="17.6379918">
        <ele>25.1317</ele>
        <time>2014-05-29T11:13:01Z</time>
      </trkpt>
      <trkpt lat="59.8106879" lon="17.6380208">
        <ele>25.1317</ele>
        <time>2014-05-29T11:13:02Z</time>
      </trkpt>
      <trkpt lat="59.8106812" lon="17.6380523">
        <ele>24.651</ele>
        <time>2014-05-29T11:13:03Z</time>
      </trkpt>
      <trkpt lat="59.8106725" lon="17.6380808">
        <ele>25.1317</ele>
        <time>2014-05-29T11:13:04Z</time>
      </trkpt>
      <trkpt lat="59.8106645" lon="17.6381103">
        <ele>24.651</ele>
        <time>2014-05-29T11:13:05Z</time>
      </trkpt>
      <trkpt lat="59.810661" lon="17.6381309">
        <ele>25.6123</ele>
        <time>2014-05-29T11:13:06Z</time>
      </trkpt>
      <trkpt lat="59.810656" lon="17.6381375">
        <ele>26.5736</ele>
        <time>2014-05-29T11:13:07Z</time>
      </trkpt>
      <trkpt lat="59.8106484" lon="17.6381489">
        <ele>26.0929</ele>
        <time>2014-05-29T11:13:08Z</time>
      </trkpt>
      <trkpt lat="59.8106357" lon="17.6381586">
        <ele>26.5736</ele>
        <time>2014-05-29T11:13:09Z</time>
      </trkpt>
      <trkpt lat="59.810621" lon="17.6381647">
        <ele>26.5736</ele>
        <time>2014-05-29T11:13:10Z</time>
      </trkpt>
      <trkpt lat="59.8106093" lon="17.6381771">
        <ele>26.5736</ele>
        <time>2014-05-29T11:13:11Z</time>
      </trkpt>
      <trkpt lat="59.8105962" lon="17.638194">
        <ele>25.6123</ele>
        <time>2014-05-29T11:13:12Z</time>
      </trkpt>
      <trkpt lat="59.8105842" lon="17.6382112">
        <ele>25.1317</ele>
        <time>2014-05-29T11:13:13Z</time>
      </trkpt>
      <trkpt lat="59.8105771" lon="17.6382258">
        <ele>25.1317</ele>
        <time>2014-05-29T11:13:14Z</time>
      </trkpt>
      <trkpt lat="59.8105707" lon="17.6382432">
        <ele>24.651</ele>
        <time>2014-05-29T11:13:15Z</time>
      </trkpt>
      <trkpt lat="59.8105655" lon="17.6382652">
        <ele>24.651</ele>
        <time>2014-05-29T11:13:16Z</time>
      </trkpt>
      <trkpt lat="59.8105562" lon="17.6382733">
        <ele>24.651</ele>
        <time>2014-05-29T11:13:17Z</time>
      </trkpt>
      <trkpt lat="59.810544" lon="17.6382704">
        <ele>25.1317</ele>
        <time>2014-05-29T11:13:18Z</time>
      </trkpt>
      <trkpt lat="59.8105382" lon="17.6382792">
        <ele>26.0929</ele>
        <time>2014-05-29T11:13:19Z</time>
      </trkpt>
      <trkpt lat="59.8105295" lon="17.6382993">
        <ele>26.0929</ele>
        <time>2014-05-29T11:13:20Z</time>
      </trkpt>
      <trkpt lat="59.8105199" lon="17.6383148">
        <ele>27.5349</ele>
        <time>2014-05-29T11:13:21Z</time>
      </trkpt>
      <trkpt lat="59.810504" lon="17.6383242">
        <ele>28.0155</ele>
        <time>2014-05-29T11:13:22Z</time>
      </trkpt>
      <trkpt lat="59.8104923" lon="17.6383294">
        <ele>28.0155</ele>
        <time>2014-05-29T11:13:23Z</time>
      </trkpt>
      <trkpt lat="59.8104782" lon="17.6383378">
        <ele>28.0155</ele>
        <time>2014-05-29T11:13:24Z</time>
      </trkpt>
      <trkpt lat="59.8104656" lon="17.6383401">
        <ele>27.5349</ele>
        <time>2014-05-29T11:13:25Z</time>
      </trkpt>
      <trkpt lat="59.8104471" lon="17.6383476">
        <ele>26.5736</ele>
        <time>2014-05-29T11:13:26Z</time>
      </trkpt>
      <trkpt lat="59.8104278" lon="17.6383526">
        <ele>25.6123</ele>
        <time>2014-05-29T11:13:27Z</time>
      </trkpt>
      <trkpt lat="59.8104096" lon="17.6383458">
        <ele>25.1317</ele>
        <time>2014-05-29T11:13:28Z</time>
      </trkpt>
      <trkpt lat="59.8103916" lon="17.6383283">
        <ele>24.651</ele>
        <time>2014-05-29T11:13:29Z</time>
      </trkpt>
      <trkpt lat="59.8103767" lon="17.6383284">
        <ele>24.1703</ele>
        <time>2014-05-29T11:13:30Z</time>
      </trkpt>
      <trkpt lat="59.8103638" lon="17.6383392">
        <ele>25.1317</ele>
        <time>2014-05-29T11:13:31Z</time>
      </trkpt>
      <trkpt lat="59.8103514" lon="17.6383594">
        <ele>25.6123</ele>
        <time>2014-05-29T11:13:32Z</time>
      </trkpt>
      <trkpt lat="59.8103342" lon="17.6383714">
        <ele>24.651</ele>
        <time>2014-05-29T11:13:33Z</time>
      </trkpt>
      <trkpt lat="59.8103182" lon="17.6383796">
        <ele>23.6896</ele>
        <time>2014-05-29T11:13:34Z</time>
      </trkpt>
      <trkpt lat="59.8103031" lon="17.6383995">
        <ele>22.2476</ele>
        <time>2014-05-29T11:13:35Z</time>
      </trkpt>
      <trkpt lat="59.8102887" lon="17.6383962">
        <ele>22.2476</ele>
        <time>2014-05-29T11:13:36Z</time>
      </trkpt>
      <trkpt lat="59.8102762" lon="17.638393">
        <ele>22.2476</ele>
        <time>2014-05-29T11:13:37Z</time>
      </trkpt>
      <trkpt lat="59.8102597" lon="17.6383872">
        <ele>22.2476</ele>
        <time>2014-05-29T11:13:38Z</time>
      </trkpt>
      <trkpt lat="59.8102409" lon="17.6383755">
        <ele>21.2864</ele>
        <time>2014-05-29T11:13:39Z</time>
      </trkpt>
      <trkpt lat="59.810215" lon="17.6383818">
        <ele>20.325</ele>
        <time>2014-05-29T11:13:40Z</time>
      </trkpt>
      <trkpt lat="59.8101928" lon="17.6383869">
        <ele>19.3638</ele>
        <time>2014-05-29T11:13:41Z</time>
      </trkpt>
      <trkpt lat="59.8101737" lon="17.6383818">
        <ele>18.4023</ele>
        <time>2014-05-29T11:13:42Z</time>
      </trkpt>
      <trkpt lat="59.8101538" lon="17.6383885">
        <ele>17.9218</ele>
        <time>2014-05-29T11:13:43Z</time>
      </trkpt>
      <trkpt lat="59.8101366" lon="17.6383894">
        <ele>17.9218</ele>
        <time>2014-05-29T11:13:44Z</time>
      </trkpt>
      <trkpt lat="59.8101228" lon="17.6383931">
        <ele>17.9218</ele>
        <time>2014-05-29T11:13:45Z</time>
      </trkpt>
      <trkpt lat="59.8101012" lon="17.6384257">
        <ele>17.4412</ele>
        <time>2014-05-29T11:13:46Z</time>
      </trkpt>
      <trkpt lat="59.8100831" lon="17.6384456">
        <ele>16.9604</ele>
        <time>2014-05-29T11:13:47Z</time>
      </trkpt>
      <trkpt lat="59.8100616" lon="17.6384645">
        <ele>16.4797</ele>
        <time>2014-05-29T11:13:48Z</time>
      </trkpt>
      <trkpt lat="59.8100337" lon="17.6384931">
        <ele>15.999</ele>
        <time>2014-05-29T11:13:49Z</time>
      </trkpt>
      <trkpt lat="59.8100087" lon="17.638517">
        <ele>15.999</ele>
        <time>2014-05-29T11:13:50Z</time>
      </trkpt>
      <trkpt lat="59.8099805" lon="17.6385343">
        <ele>15.0377</ele>
        <time>2014-05-29T11:13:51Z</time>
      </trkpt>
      <trkpt lat="59.8099539" lon="17.6385449">
        <ele>14.557</ele>
        <time>2014-05-29T11:13:52Z</time>
      </trkpt>
      <trkpt lat="59.8099343" lon="17.6385537">
        <ele>14.0764</ele>
        <time>2014-05-29T11:13:53Z</time>
      </trkpt>
      <trkpt lat="59.8099194" lon="17.6385786">
        <ele>14.0764</ele>
        <time>2014-05-29T11:13:54Z</time>
      </trkpt>
      <trkpt lat="59.8098907" lon="17.6386387">
        <ele>14.0764</ele>
        <time>2014-05-29T11:13:55Z</time>
      </trkpt>
      <trkpt lat="59.8098524" lon="17.6387095">
        <ele>14.557</ele>
        <time>2014-05-29T11:13:56Z</time>
      </trkpt>
      <trkpt lat="59.8098095" lon="17.6387811">
        <ele>15.0377</ele>
        <time>2014-05-29T11:13:57Z</time>
      </trkpt>
      <trkpt lat="59.809765" lon="17.6388504">
        <ele>15.5184</ele>
        <time>2014-05-29T11:13:58Z</time>
      </trkpt>
      <trkpt lat="59.8097" lon="17.6389524">
        <ele>16.4797</ele>
        <time>2014-05-29T11:13:59Z</time>
      </trkpt>
      <trkpt lat="59.8096492" lon="17.6390252">
        <ele>16.4797</ele>
        <time>2014-05-29T11:14:00Z</time>
      </trkpt>
      <trkpt lat="59.8095997" lon="17.6390981">
        <ele>16.9604</ele>
        <time>2014-05-29T11:14:01Z</time>
      </trkpt>
      <trkpt lat="59.8095516" lon="17.6391753">
        <ele>17.9218</ele>
        <time>2014-05-29T11:14:02Z</time>
      </trkpt>
      <trkpt lat="59.8095042" lon="17.6392497">
        <ele>18.4023</ele>
        <time>2014-05-29T11:14:03Z</time>
      </trkpt>
      <trkpt lat="59.8094603" lon="17.6393256">
        <ele>18.4023</ele>
        <time>2014-05-29T11:14:04Z</time>
      </trkpt>
      <trkpt lat="59.8094173" lon="17.6394241">
        <ele>18.4023</ele>
        <time>2014-05-29T11:14:05Z</time>
      </trkpt>
      <trkpt lat="59.8093834" lon="17.6395406">
        <ele>18.8831</ele>
        <time>2014-05-29T11:14:06Z</time>
      </trkpt>
      <trkpt lat="59.8093588" lon="17.6396632">
        <ele>19.3638</ele>
        <time>2014-05-29T11:14:07Z</time>
      </trkpt>
      <trkpt lat="59.8093422" lon="17.6397818">
        <ele>19.3638</ele>
        <time>2014-05-29T11:14:08Z</time>
      </trkpt>
      <trkpt lat="59.8093371" lon="17.6398881">
        <ele>19.8444</ele>
        <time>2014-05-29T11:14:09Z</time>
      </trkpt>
      <trkpt lat="59.8093485" lon="17.6399845">
        <ele>20.8057</ele>
        <time>2014-05-29T11:14:10Z</time>
      </trkpt>
      <trkpt lat="59.809366" lon="17.640064">
        <ele>22.2476</ele>
        <time>2014-05-29T11:14:11Z</time>
      </trkpt>
      <trkpt lat="59.8093922" lon="17.6401251">
        <ele>22.7283</ele>
        <time>2014-05-29T11:14:12Z</time>
      </trkpt>
      <trkpt lat="59.8094228" lon="17.6401837">
        <ele>23.209</ele>
        <time>2014-05-29T11:14:13Z</time>
      </trkpt>
      <trkpt lat="59.8094587" lon="17.6402396">
        <ele>23.6896</ele>
        <time>2014-05-29T11:14:14Z</time>
      </trkpt>
      <trkpt lat="59.8094919" lon="17.6403117">
        <ele>23.209</ele>
        <time>2014-05-29T11:14:15Z</time>
      </trkpt>
      <trkpt lat="59.8095028" lon="17.6404242">
        <ele>23.6896</ele>
        <time>2014-05-29T11:14:16Z</time>
      </trkpt>
      <trkpt lat="59.8094941" lon="17.6405372">
        <ele>23.209</ele>
        <time>2014-05-29T11:14:17Z</time>
      </trkpt>
      <trkpt lat="59.8094722" lon="17.6406445">
        <ele>23.209</ele>
        <time>2014-05-29T11:14:18Z</time>
      </trkpt>
      <trkpt lat="59.8094453" lon="17.640748">
        <ele>22.7283</ele>
        <time>2014-05-29T11:14:19Z</time>
      </trkpt>
      <trkpt lat="59.809408" lon="17.6408377">
        <ele>21.767</ele>
        <time>2014-05-29T11:14:20Z</time>
      </trkpt>
      <trkpt lat="59.8093606" lon="17.6409042">
        <ele>20.325</ele>
        <time>2014-05-29T11:14:21Z</time>
      </trkpt>
      <trkpt lat="59.8093109" lon="17.6409524">
        <ele>19.3638</ele>
        <time>2014-05-29T11:14:22Z</time>
      </trkpt>
      <trkpt lat="59.8092568" lon="17.6410042">
        <ele>17.9218</ele>
        <time>2014-05-29T11:14:23Z</time>
      </trkpt>
      <trkpt lat="59.8091907" lon="17.6410733">
        <ele>17.9218</ele>
        <time>2014-05-29T11:14:24Z</time>
      </trkpt>
      <trkpt lat="59.809118" lon="17.6411537">
        <ele>18.4023</ele>
        <time>2014-05-29T11:14:25Z</time>
      </trkpt>
      <trkpt lat="59.8090498" lon="17.6412133">
        <ele>17.9218</ele>
        <time>2014-05-29T11:14:26Z</time>
      </trkpt>
      <trkpt lat="59.8089826" lon="17.6412549">
        <ele>17.9218</ele>
        <time>2014-05-29T11:14:27Z</time>
      </trkpt>
      <trkpt lat="59.8089183" lon="17.6412857">
        <ele>17.4412</ele>
        <time>2014-05-29T11:14:28Z</time>
      </trkpt>
      <trkpt lat="59.8088557" lon="17.6413124">
        <ele>17.4412</ele>
        <time>2014-05-29T11:14:29Z</time>
      </trkpt>
      <trkpt lat="59.808789" lon="17.6413443">
        <ele>17.9218</ele>
        <time>2014-05-29T11:14:30Z</time>
      </trkpt>
      <trkpt lat="59.8087242" lon="17.6413826">
        <ele>18.4023</ele>
        <time>2014-05-29T11:14:31Z</time>
      </trkpt>
      <trkpt lat="59.8086642" lon="17.641425">
        <ele>18.8831</ele>
        <time>2014-05-29T11:14:32Z</time>
      </trkpt>
      <trkpt lat="59.8086087" lon="17.6414689">
        <ele>19.3638</ele>
        <time>2014-05-29T11:14:33Z</time>
      </trkpt>
      <trkpt lat="59.8085547" lon="17.6415085">
        <ele>19.8444</ele>
        <time>2014-05-29T11:14:34Z</time>
      </trkpt>
      <trkpt lat="59.8085014" lon="17.641542">
        <ele>20.325</ele>
        <time>2014-05-29T11:14:35Z</time>
      </trkpt>
      <trkpt lat="59.8084492" lon="17.6415684">
        <ele>20.8057</ele>
        <time>2014-05-29T11:14:36Z</time>
      </trkpt>
      <trkpt lat="59.8084" lon="17.6415973">
        <ele>21.2864</ele>
        <time>2014-05-29T11:14:37Z</time>
      </trkpt>
      <trkpt lat="59.8083579" lon="17.6416258">
        <ele>21.767</ele>
        <time>2014-05-29T11:14:38Z</time>
      </trkpt>
      <trkpt lat="59.8083192" lon="17.6416409">
        <ele>22.2476</ele>
        <time>2014-05-29T11:14:39Z</time>
      </trkpt>
      <trkpt lat="59.8082829" lon="17.6416553">
        <ele>22.2476</ele>
        <time>2014-05-29T11:14:40Z</time>
      </trkpt>
      <trkpt lat="59.808254" lon="17.64168">
        <ele>22.2476</ele>
        <time>2014-05-29T11:14:41Z</time>
      </trkpt>
      <trkpt lat="59.808227" lon="17.6417048">
        <ele>22.7283</ele>
        <time>2014-05-29T11:14:42Z</time>
      </trkpt>
      <trkpt lat="59.808201" lon="17.6417173">
        <ele>23.209</ele>
        <time>2014-05-29T11:14:43Z</time>
      </trkpt>
      <trkpt lat="59.8081777" lon="17.6417182">
        <ele>23.209</ele>
        <time>2014-05-29T11:14:44Z</time>
      </trkpt>
      <trkpt lat="59.8081517" lon="17.6417157">
        <ele>23.209</ele>
        <time>2014-05-29T11:14:45Z</time>
      </trkpt>
      <trkpt lat="59.8081259" lon="17.6417323">
        <ele>23.6896</ele>
        <time>2014-05-29T11:14:46Z</time>
      </trkpt>
      <trkpt lat="59.8081055" lon="17.6417725">
        <ele>24.1703</ele>
        <time>2014-05-29T11:14:47Z</time>
      </trkpt>
      <trkpt lat="59.8080846" lon="17.6418248">
        <ele>24.1703</ele>
        <time>2014-05-29T11:14:48Z</time>
      </trkpt>
      <trkpt lat="59.8080597" lon="17.6418831">
        <ele>24.1703</ele>
        <time>2014-05-29T11:14:49Z</time>
      </trkpt>
      <trkpt lat="59.8080347" lon="17.6419408">
        <ele>24.1703</ele>
        <time>2014-05-29T11:14:50Z</time>
      </trkpt>
      <trkpt lat="59.8080091" lon="17.6419994">
        <ele>24.1703</ele>
        <time>2014-05-29T11:14:51Z</time>
      </trkpt>
      <trkpt lat="59.807984" lon="17.6420558">
        <ele>24.651</ele>
        <time>2014-05-29T11:14:52Z</time>
      </trkpt>
      <trkpt lat="59.8079596" lon="17.6421076">
        <ele>24.651</ele>
        <time>2014-05-29T11:14:53Z</time>
      </trkpt>
      <trkpt lat="59.8079346" lon="17.6421514">
        <ele>25.1317</ele>
        <time>2014-05-29T11:14:54Z</time>
      </trkpt>
      <trkpt lat="59.807913" lon="17.6421863">
        <ele>26.0929</ele>
        <time>2014-05-29T11:14:55Z</time>
      </trkpt>
      <trkpt lat="59.8078943" lon="17.6422267">
        <ele>26.5736</ele>
        <time>2014-05-29T11:14:56Z</time>
      </trkpt>
      <trkpt lat="59.8078739" lon="17.642271">
        <ele>26.5736</ele>
        <time>2014-05-29T11:14:57Z</time>
      </trkpt>
      <trkpt lat="59.807854" lon="17.6423067">
        <ele>26.5736</ele>
        <time>2014-05-29T11:14:58Z</time>
      </trkpt>
      <trkpt lat="59.80783" lon="17.6423378">
        <ele>26.0929</ele>
        <time>2014-05-29T11:14:59Z</time>
      </trkpt>
      <trkpt lat="59.8078041" lon="17.6423647">
        <ele>26.0929</ele>
        <time>2014-05-29T11:15:00Z</time>
      </trkpt>
      <trkpt lat="59.8077753" lon="17.6423935">
        <ele>26.0929</ele>
        <time>2014-05-29T11:15:01Z</time>
      </trkpt>
      <trkpt lat="59.8077451" lon="17.6424264">
        <ele>25.6123</ele>
        <time>2014-05-29T11:15:02Z</time>
      </trkpt>
      <trkpt lat="59.8077165" lon="17.6424574">
        <ele>25.6123</ele>
        <time>2014-05-29T11:15:03Z</time>
      </trkpt>
      <trkpt lat="59.8076881" lon="17.6424875">
        <ele>25.1317</ele>
        <time>2014-05-29T11:15:04Z</time>
      </trkpt>
      <trkpt lat="59.8076562" lon="17.6425185">
        <ele>25.1317</ele>
        <time>2014-05-29T11:15:05Z</time>
      </trkpt>
      <trkpt lat="59.8076208" lon="17.642547">
        <ele>24.651</ele>
        <time>2014-05-29T11:15:06Z</time>
      </trkpt>
      <trkpt lat="59.8075877" lon="17.6425755">
        <ele>24.1703</ele>
        <time>2014-05-29T11:15:07Z</time>
      </trkpt>
      <trkpt lat="59.8075552" lon="17.642606">
        <ele>23.6896</ele>
        <time>2014-05-29T11:15:08Z</time>
      </trkpt>
      <trkpt lat="59.807524" lon="17.6426352">
        <ele>23.6896</ele>
        <time>2014-05-29T11:15:09Z</time>
      </trkpt>
      <trkpt lat="59.8074955" lon="17.6426515">
        <ele>23.209</ele>
        <time>2014-05-29T11:15:10Z</time>
      </trkpt>
      <trkpt lat="59.8074649" lon="17.6426727">
        <ele>22.7283</ele>
        <time>2014-05-29T11:15:11Z</time>
      </trkpt>
      <trkpt lat="59.8074312" lon="17.6426916">
        <ele>22.2476</ele>
        <time>2014-05-29T11:15:12Z</time>
      </trkpt>
      <trkpt lat="59.8073975" lon="17.6427165">
        <ele>21.2864</ele>
        <time>2014-05-29T11:15:13Z</time>
      </trkpt>
      <trkpt lat="59.8073602" lon="17.6427522">
        <ele>21.2864</ele>
        <time>2014-05-29T11:15:14Z</time>
      </trkpt>
      <trkpt lat="59.8073282" lon="17.6427863">
        <ele>20.8057</ele>
        <time>2014-05-29T11:15:15Z</time>
      </trkpt>
      <trkpt lat="59.8072958" lon="17.6428206">
        <ele>20.325</ele>
        <time>2014-05-29T11:15:16Z</time>
      </trkpt>
      <trkpt lat="59.8072576" lon="17.6428717">
        <ele>20.325</ele>
        <time>2014-05-29T11:15:17Z</time>
      </trkpt>
      <trkpt lat="59.8072179" lon="17.642926">
        <ele>19.3638</ele>
        <time>2014-05-29T11:15:18Z</time>
      </trkpt>
      <trkpt lat="59.8071789" lon="17.6429827">
        <ele>19.3638</ele>
        <time>2014-05-29T11:15:19Z</time>
      </trkpt>
      <trkpt lat="59.8071412" lon="17.6430392">
        <ele>18.8831</ele>
        <time>2014-05-29T11:15:20Z</time>
      </trkpt>
      <trkpt lat="59.8071023" lon="17.6430923">
        <ele>18.8831</ele>
        <time>2014-05-29T11:15:21Z</time>
      </trkpt>
      <trkpt lat="59.8070583" lon="17.6431501">
        <ele>18.8831</ele>
        <time>2014-05-29T11:15:22Z</time>
      </trkpt>
      <trkpt lat="59.8070116" lon="17.643214">
        <ele>18.8831</ele>
        <time>2014-05-29T11:15:23Z</time>
      </trkpt>
      <trkpt lat="59.8069568" lon="17.64328">
        <ele>18.8831</ele>
        <time>2014-05-29T11:15:24Z</time>
      </trkpt>
      <trkpt lat="59.8069069" lon="17.6433345">
        <ele>19.3638</ele>
        <time>2014-05-29T11:15:25Z</time>
      </trkpt>
      <trkpt lat="59.8068454" lon="17.6433851">
        <ele>20.8057</ele>
        <time>2014-05-29T11:15:26Z</time>
      </trkpt>
      <trkpt lat="59.8067914" lon="17.6434328">
        <ele>20.8057</ele>
        <time>2014-05-29T11:15:27Z</time>
      </trkpt>
      <trkpt lat="59.8067418" lon="17.643464">
        <ele>20.8057</ele>
        <time>2014-05-29T11:15:28Z</time>
      </trkpt>
      <trkpt lat="59.8066769" lon="17.6434639">
        <ele>21.2864</ele>
        <time>2014-05-29T11:15:29Z</time>
      </trkpt>
      <trkpt lat="59.8066206" lon="17.6434479">
        <ele>21.2864</ele>
        <time>2014-05-29T11:15:30Z</time>
      </trkpt>
      <trkpt lat="59.8065641" lon="17.6434239">
        <ele>21.2864</ele>
        <time>2014-05-29T11:15:31Z</time>
      </trkpt>
      <trkpt lat="59.8065171" lon="17.6433881">
        <ele>21.2864</ele>
        <time>2014-05-29T11:15:32Z</time>
      </trkpt>
      <trkpt lat="59.8064705" lon="17.6433623">
        <ele>21.2864</ele>
        <time>2014-05-29T11:15:33Z</time>
      </trkpt>
      <trkpt lat="59.8064231" lon="17.6433355">
        <ele>21.2864</ele>
        <time>2014-05-29T11:15:34Z</time>
      </trkpt>
      <trkpt lat="59.8063745" lon="17.6433136">
        <ele>21.2864</ele>
        <time>2014-05-29T11:15:35Z</time>
      </trkpt>
      <trkpt lat="59.8063249" lon="17.6433007">
        <ele>20.8057</ele>
        <time>2014-05-29T11:15:36Z</time>
      </trkpt>
      <trkpt lat="59.8062729" lon="17.6432789">
        <ele>20.8057</ele>
        <time>2014-05-29T11:15:37Z</time>
      </trkpt>
      <trkpt lat="59.8062181" lon="17.6432496">
        <ele>20.8057</ele>
        <time>2014-05-29T11:15:38Z</time>
      </trkpt>
      <trkpt lat="59.8061647" lon="17.6432247">
        <ele>20.325</ele>
        <time>2014-05-29T11:15:39Z</time>
      </trkpt>
      <trkpt lat="59.8061077" lon="17.6431904">
        <ele>20.325</ele>
        <time>2014-05-29T11:15:40Z</time>
      </trkpt>
      <trkpt lat="59.8060519" lon="17.6431534">
        <ele>20.325</ele>
        <time>2014-05-29T11:15:41Z</time>
      </trkpt>
      <trkpt lat="59.8059974" lon="17.643105">
        <ele>20.325</ele>
        <time>2014-05-29T11:15:42Z</time>
      </trkpt>
      <trkpt lat="59.8059456" lon="17.6430398">
        <ele>20.8057</ele>
        <time>2014-05-29T11:15:43Z</time>
      </trkpt>
      <trkpt lat="59.8059009" lon="17.6429594">
        <ele>21.2864</ele>
        <time>2014-05-29T11:15:44Z</time>
      </trkpt>
      <trkpt lat="59.8058606" lon="17.6428718">
        <ele>21.767</ele>
        <time>2014-05-29T11:15:45Z</time>
      </trkpt>
      <trkpt lat="59.8058231" lon="17.6427781">
        <ele>21.767</ele>
        <time>2014-05-29T11:15:46Z</time>
      </trkpt>
      <trkpt lat="59.8057859" lon="17.642681">
        <ele>22.2476</ele>
        <time>2014-05-29T11:15:47Z</time>
      </trkpt>
      <trkpt lat="59.8057476" lon="17.6425859">
        <ele>22.7283</ele>
        <time>2014-05-29T11:15:48Z</time>
      </trkpt>
      <trkpt lat="59.8057084" lon="17.6424958">
        <ele>23.209</ele>
        <time>2014-05-29T11:15:49Z</time>
      </trkpt>
      <trkpt lat="59.8056696" lon="17.6424118">
        <ele>23.6896</ele>
        <time>2014-05-29T11:15:50Z</time>
      </trkpt>
      <trkpt lat="59.805632" lon="17.6423312">
        <ele>23.6896</ele>
        <time>2014-05-29T11:15:51Z</time>
      </trkpt>
      <trkpt lat="59.8055966" lon="17.6422518">
        <ele>24.1703</ele>
        <time>2014-05-29T11:15:52Z</time>
      </trkpt>
      <trkpt lat="59.805566" lon="17.6421692">
        <ele>24.1703</ele>
        <time>2014-05-29T11:15:53Z</time>
      </trkpt>
      <trkpt lat="59.8055416" lon="17.6420824">
        <ele>24.1703</ele>
        <time>2014-05-29T11:15:54Z</time>
      </trkpt>
      <trkpt lat="59.805516" lon="17.6420098">
        <ele>24.651</ele>
        <time>2014-05-29T11:15:55Z</time>
      </trkpt>
      <trkpt lat="59.805485" lon="17.6419558">
        <ele>24.651</ele>
        <time>2014-05-29T11:15:56Z</time>
      </trkpt>
      <trkpt lat="59.8054536" lon="17.6419058">
        <ele>25.1317</ele>
        <time>2014-05-29T11:15:57Z</time>
      </trkpt>
      <trkpt lat="59.8054243" lon="17.6418484">
        <ele>25.1317</ele>
        <time>2014-05-29T11:15:58Z</time>
      </trkpt>
      <trkpt lat="59.8054" lon="17.6417839">
        <ele>25.1317</ele>
        <time>2014-05-29T11:15:59Z</time>
      </trkpt>
      <trkpt lat="59.8053773" lon="17.6417167">
        <ele>25.1317</ele>
        <time>2014-05-29T11:16:00Z</time>
      </trkpt>
      <trkpt lat="59.805352" lon="17.6416519">
        <ele>24.651</ele>
        <time>2014-05-29T11:16:01Z</time>
      </trkpt>
      <trkpt lat="59.8053245" lon="17.6415985">
        <ele>24.651</ele>
        <time>2014-05-29T11:16:02Z</time>
      </trkpt>
      <trkpt lat="59.8052997" lon="17.6415608">
        <ele>24.651</ele>
        <time>2014-05-29T11:16:03Z</time>
      </trkpt>
      <trkpt lat="59.805284" lon="17.6415404">
        <ele>24.651</ele>
        <time>2014-05-29T11:16:04Z</time>
      </trkpt>
      <trkpt lat="59.8052774" lon="17.6415333">
        <ele>24.651</ele>
        <time>2014-05-29T11:16:05Z</time>
      </trkpt>
      <trkpt lat="59.8052785" lon="17.6415373">
        <ele>24.651</ele>
        <time>2014-05-29T11:16:06Z</time>
      </trkpt>
      <trkpt lat="59.8052813" lon="17.6415441">
        <ele>24.651</ele>
        <time>2014-05-29T11:16:07Z</time>
      </trkpt>
      <trkpt lat="59.8052806" lon="17.6415466">
        <ele>24.651</ele>
        <time>2014-05-29T11:16:08Z</time>
      </trkpt>
      <trkpt lat="59.805281" lon="17.6415468">
        <ele>24.651</ele>
        <time>2014-05-29T11:16:09Z</time>
      </trkpt>
      <trkpt lat="59.8052244" lon="17.6414939">
        <ele>25.1317</ele>
        <time>2014-05-29T11:16:20Z</time>
      </trkpt>
      <trkpt lat="59.8052116" lon="17.6414591">
        <ele>25.1317</ele>
        <time>2014-05-29T11:16:21Z</time>
      </trkpt>
      <trkpt lat="59.8051977" lon="17.6414167">
        <ele>25.1317</ele>
        <time>2014-05-29T11:16:22Z</time>
      </trkpt>
      <trkpt lat="59.8051834" lon="17.6413684">
        <ele>25.6123</ele>
        <time>2014-05-29T11:16:23Z</time>
      </trkpt>
      <trkpt lat="59.805167" lon="17.6413178">
        <ele>25.6123</ele>
        <time>2014-05-29T11:16:24Z</time>
      </trkpt>
      <trkpt lat="59.8051475" lon="17.6412645">
        <ele>25.6123</ele>
        <time>2014-05-29T11:16:25Z</time>
      </trkpt>
      <trkpt lat="59.8051245" lon="17.6412102">
        <ele>25.6123</ele>
        <time>2014-05-29T11:16:26Z</time>
      </trkpt>
      <trkpt lat="59.8051007" lon="17.6411531">
        <ele>25.6123</ele>
        <time>2014-05-29T11:16:27Z</time>
      </trkpt>
      <trkpt lat="59.8050774" lon="17.6410935">
        <ele>26.0929</ele>
        <time>2014-05-29T11:16:28Z</time>
      </trkpt>
      <trkpt lat="59.8050531" lon="17.641038">
        <ele>26.0929</ele>
        <time>2014-05-29T11:16:29Z</time>
      </trkpt>
      <trkpt lat="59.8050262" lon="17.6409889">
        <ele>26.0929</ele>
        <time>2014-05-29T11:16:30Z</time>
      </trkpt>
      <trkpt lat="59.8049972" lon="17.6409472">
        <ele>26.0929</ele>
        <time>2014-05-29T11:16:31Z</time>
      </trkpt>
      <trkpt lat="59.8049675" lon="17.6409179">
        <ele>26.5736</ele>
        <time>2014-05-29T11:16:32Z</time>
      </trkpt>
      <trkpt lat="59.8049399" lon="17.6409073">
        <ele>27.0543</ele>
        <time>2014-05-29T11:16:33Z</time>
      </trkpt>
      <trkpt lat="59.8049167" lon="17.6409081">
        <ele>27.5349</ele>
        <time>2014-05-29T11:16:34Z</time>
      </trkpt>
      <trkpt lat="59.8048944" lon="17.6409054">
        <ele>28.0155</ele>
        <time>2014-05-29T11:16:35Z</time>
      </trkpt>
      <trkpt lat="59.8048703" lon="17.640902">
        <ele>28.0155</ele>
        <time>2014-05-29T11:16:36Z</time>
      </trkpt>
      <trkpt lat="59.8048431" lon="17.6409013">
        <ele>28.4962</ele>
        <time>2014-05-29T11:16:37Z</time>
      </trkpt>
      <trkpt lat="59.804813" lon="17.640892">
        <ele>28.4962</ele>
        <time>2014-05-29T11:16:38Z</time>
      </trkpt>
      <trkpt lat="59.8047812" lon="17.6408703">
        <ele>28.4962</ele>
        <time>2014-05-29T11:16:39Z</time>
      </trkpt>
      <trkpt lat="59.8047481" lon="17.6408459">
        <ele>28.9769</ele>
        <time>2014-05-29T11:16:40Z</time>
      </trkpt>
      <trkpt lat="59.8047154" lon="17.6408235">
        <ele>28.9769</ele>
        <time>2014-05-29T11:16:41Z</time>
      </trkpt>
      <trkpt lat="59.8046814" lon="17.6408003">
        <ele>28.9769</ele>
        <time>2014-05-29T11:16:42Z</time>
      </trkpt>
      <trkpt lat="59.8046447" lon="17.6407801">
        <ele>29.4575</ele>
        <time>2014-05-29T11:16:43Z</time>
      </trkpt>
      <trkpt lat="59.8046022" lon="17.640759">
        <ele>29.4575</ele>
        <time>2014-05-29T11:16:44Z</time>
      </trkpt>
      <trkpt lat="59.8045613" lon="17.6407319">
        <ele>29.4575</ele>
        <time>2014-05-29T11:16:45Z</time>
      </trkpt>
      <trkpt lat="59.8045272" lon="17.6407012">
        <ele>29.4575</ele>
        <time>2014-05-29T11:16:46Z</time>
      </trkpt>
      <trkpt lat="59.8044944" lon="17.6406785">
        <ele>29.9381</ele>
        <time>2014-05-29T11:16:47Z</time>
      </trkpt>
      <trkpt lat="59.8044595" lon="17.6406537">
        <ele>29.4575</ele>
        <time>2014-05-29T11:16:48Z</time>
      </trkpt>
      <trkpt lat="59.8044247" lon="17.6406167">
        <ele>29.4575</ele>
        <time>2014-05-29T11:16:49Z</time>
      </trkpt>
      <trkpt lat="59.8043776" lon="17.6405526">
        <ele>29.4575</ele>
        <time>2014-05-29T11:16:50Z</time>
      </trkpt>
      <trkpt lat="59.8043485" lon="17.6405794">
        <ele>29.4575</ele>
        <time>2014-05-29T11:16:51Z</time>
      </trkpt>
      <trkpt lat="59.804328" lon="17.640594">
        <ele>29.4575</ele>
        <time>2014-05-29T11:16:52Z</time>
      </trkpt>
      <trkpt lat="59.8043055" lon="17.6406697">
        <ele>28.9769</ele>
        <time>2014-05-29T11:16:53Z</time>
      </trkpt>
      <trkpt lat="59.8042735" lon="17.640745">
        <ele>28.9769</ele>
        <time>2014-05-29T11:16:54Z</time>
      </trkpt>
      <trkpt lat="59.8042402" lon="17.6408217">
        <ele>28.9769</ele>
        <time>2014-05-29T11:16:55Z</time>
      </trkpt>
      <trkpt lat="59.8042024" lon="17.6408902">
        <ele>28.9769</ele>
        <time>2014-05-29T11:16:56Z</time>
      </trkpt>
      <trkpt lat="59.8041622" lon="17.6409583">
        <ele>28.4962</ele>
        <time>2014-05-29T11:16:57Z</time>
      </trkpt>
      <trkpt lat="59.8041288" lon="17.6410235">
        <ele>28.4962</ele>
        <time>2014-05-29T11:16:58Z</time>
      </trkpt>
      <trkpt lat="59.8040915" lon="17.6410877">
        <ele>28.9769</ele>
        <time>2014-05-29T11:16:59Z</time>
      </trkpt>
      <trkpt lat="59.8040503" lon="17.6411552">
        <ele>28.9769</ele>
        <time>2014-05-29T11:17:00Z</time>
      </trkpt>
      <trkpt lat="59.804008" lon="17.6412246">
        <ele>28.9769</ele>
        <time>2014-05-29T11:17:01Z</time>
      </trkpt>
      <trkpt lat="59.8039693" lon="17.64129">
        <ele>28.0155</ele>
        <time>2014-05-29T11:17:02Z</time>
      </trkpt>
      <trkpt lat="59.8039389" lon="17.6413297">
        <ele>28.0155</ele>
        <time>2014-05-29T11:17:03Z</time>
      </trkpt>
      <trkpt lat="59.8039065" lon="17.6413588">
        <ele>28.0155</ele>
        <time>2014-05-29T11:17:04Z</time>
      </trkpt>
      <trkpt lat="59.8038823" lon="17.6413737">
        <ele>27.5349</ele>
        <time>2014-05-29T11:17:05Z</time>
      </trkpt>
      <trkpt lat="59.803858" lon="17.6413686">
        <ele>28.9769</ele>
        <time>2014-05-29T11:17:06Z</time>
      </trkpt>
      <trkpt lat="59.803843" lon="17.6413495">
        <ele>29.4575</ele>
        <time>2014-05-29T11:17:07Z</time>
      </trkpt>
      <trkpt lat="59.8038351" lon="17.6413041">
        <ele>29.9381</ele>
        <time>2014-05-29T11:17:08Z</time>
      </trkpt>
      <trkpt lat="59.8038257" lon="17.6412427">
        <ele>30.4188</ele>
        <time>2014-05-29T11:17:09Z</time>
      </trkpt>
      <trkpt lat="59.8038196" lon="17.6411834">
        <ele>30.4188</ele>
        <time>2014-05-29T11:17:10Z</time>
      </trkpt>
      <trkpt lat="59.8038118" lon="17.6411239">
        <ele>29.9381</ele>
        <time>2014-05-29T11:17:11Z</time>
      </trkpt>
      <trkpt lat="59.803805" lon="17.6410707">
        <ele>29.9381</ele>
        <time>2014-05-29T11:17:12Z</time>
      </trkpt>
      <trkpt lat="59.8037951" lon="17.6410289">
        <ele>31.3801</ele>
        <time>2014-05-29T11:17:13Z</time>
      </trkpt>
      <trkpt lat="59.8037801" lon="17.640999">
        <ele>31.3801</ele>
        <time>2014-05-29T11:17:14Z</time>
      </trkpt>
      <trkpt lat="59.8037674" lon="17.6409645">
        <ele>31.8607</ele>
        <time>2014-05-29T11:17:15Z</time>
      </trkpt>
      <trkpt lat="59.8037555" lon="17.6409262">
        <ele>32.3416</ele>
        <time>2014-05-29T11:17:16Z</time>
      </trkpt>
      <trkpt lat="59.8037402" lon="17.6408825">
        <ele>32.3416</ele>
        <time>2014-05-29T11:17:17Z</time>
      </trkpt>
      <trkpt lat="59.8037265" lon="17.6408511">
        <ele>32.8223</ele>
        <time>2014-05-29T11:17:18Z</time>
      </trkpt>
      <trkpt lat="59.8037136" lon="17.6408173">
        <ele>33.7834</ele>
        <time>2014-05-29T11:17:19Z</time>
      </trkpt>
      <trkpt lat="59.8036968" lon="17.6407832">
        <ele>34.2642</ele>
        <time>2014-05-29T11:17:20Z</time>
      </trkpt>
      <trkpt lat="59.8036791" lon="17.6407431">
        <ele>34.7449</ele>
        <time>2014-05-29T11:17:21Z</time>
      </trkpt>
      <trkpt lat="59.8036623" lon="17.640706">
        <ele>35.2255</ele>
        <time>2014-05-29T11:17:22Z</time>
      </trkpt>
      <trkpt lat="59.8036431" lon="17.6406878">
        <ele>34.7449</ele>
        <time>2014-05-29T11:17:23Z</time>
      </trkpt>
      <trkpt lat="59.8036198" lon="17.6406836">
        <ele>34.2642</ele>
        <time>2014-05-29T11:17:24Z</time>
      </trkpt>
      <trkpt lat="59.8036001" lon="17.640677">
        <ele>33.7834</ele>
        <time>2014-05-29T11:17:25Z</time>
      </trkpt>
      <trkpt lat="59.8035882" lon="17.6406676">
        <ele>33.3029</ele>
        <time>2014-05-29T11:17:26Z</time>
      </trkpt>
      <trkpt lat="59.8035773" lon="17.6406533">
        <ele>32.3416</ele>
        <time>2014-05-29T11:17:27Z</time>
      </trkpt>
      <trkpt lat="59.8035684" lon="17.6406411">
        <ele>31.3801</ele>
        <time>2014-05-29T11:17:28Z</time>
      </trkpt>
      <trkpt lat="59.8035601" lon="17.6406294">
        <ele>30.8995</ele>
        <time>2014-05-29T11:17:29Z</time>
      </trkpt>
      <trkpt lat="59.8035502" lon="17.6406185">
        <ele>31.3801</ele>
        <time>2014-05-29T11:17:30Z</time>
      </trkpt>
      <trkpt lat="59.8035424" lon="17.6406057">
        <ele>30.8995</ele>
        <time>2014-05-29T11:17:31Z</time>
      </trkpt>
      <trkpt lat="59.8035331" lon="17.6405981">
        <ele>30.8995</ele>
        <time>2014-05-29T11:17:32Z</time>
      </trkpt>
      <trkpt lat="59.8035259" lon="17.6405911">
        <ele>30.8995</ele>
        <time>2014-05-29T11:17:33Z</time>
      </trkpt>
      <trkpt lat="59.8035196" lon="17.6405883">
        <ele>31.3801</ele>
        <time>2014-05-29T11:17:34Z</time>
      </trkpt>
      <trkpt lat="59.8035131" lon="17.6405836">
        <ele>31.8607</ele>
        <time>2014-05-29T11:17:35Z</time>
      </trkpt>
      <trkpt lat="59.8035062" lon="17.6405707">
        <ele>31.8607</ele>
        <time>2014-05-29T11:17:36Z</time>
      </trkpt>
      <trkpt lat="59.8035069" lon="17.6405402">
        <ele>32.8223</ele>
        <time>2014-05-29T11:17:37Z</time>
      </trkpt>
      <trkpt lat="59.8035099" lon="17.6405004">
        <ele>33.3029</ele>
        <time>2014-05-29T11:17:38Z</time>
      </trkpt>
      <trkpt lat="59.8035058" lon="17.6404662">
        <ele>33.7834</ele>
        <time>2014-05-29T11:17:39Z</time>
      </trkpt>
      <trkpt lat="59.8034895" lon="17.6404351">
        <ele>34.2642</ele>
        <time>2014-05-29T11:17:40Z</time>
      </trkpt>
      <trkpt lat="59.8034721" lon="17.6404061">
        <ele>34.7449</ele>
        <time>2014-05-29T11:17:41Z</time>
      </trkpt>
      <trkpt lat="59.803461" lon="17.6403812">
        <ele>35.7061</ele>
        <time>2014-05-29T11:17:42Z</time>
      </trkpt>
      <trkpt lat="59.8034505" lon="17.6403617">
        <ele>36.1868</ele>
        <time>2014-05-29T11:17:43Z</time>
      </trkpt>
      <trkpt lat="59.8034368" lon="17.6403547">
        <ele>35.7061</ele>
        <time>2014-05-29T11:17:44Z</time>
      </trkpt>
      <trkpt lat="59.803427" lon="17.6403517">
        <ele>35.7061</ele>
        <time>2014-05-29T11:17:45Z</time>
      </trkpt>
      <trkpt lat="59.8034227" lon="17.640344">
        <ele>35.7061</ele>
        <time>2014-05-29T11:17:46Z</time>
      </trkpt>
      <trkpt lat="59.8034198" lon="17.6403433">
        <ele>35.7061</ele>
        <time>2014-05-29T11:17:47Z</time>
      </trkpt>
      <trkpt lat="59.8034124" lon="17.6403443">
        <ele>35.2255</ele>
        <time>2014-05-29T11:17:48Z</time>
      </trkpt>
      <trkpt lat="59.8034004" lon="17.6403455">
        <ele>34.7449</ele>
        <time>2014-05-29T11:17:49Z</time>
      </trkpt>
      <trkpt lat="59.8033871" lon="17.640338">
        <ele>34.7449</ele>
        <time>2014-05-29T11:17:50Z</time>
      </trkpt>
      <trkpt lat="59.8033763" lon="17.6403322">
        <ele>34.7449</ele>
        <time>2014-05-29T11:17:51Z</time>
      </trkpt>
      <trkpt lat="59.8033612" lon="17.6403175">
        <ele>34.2642</ele>
        <time>2014-05-29T11:17:52Z</time>
      </trkpt>
      <trkpt lat="59.8033467" lon="17.6402969">
        <ele>33.7834</ele>
        <time>2014-05-29T11:17:53Z</time>
      </trkpt>
      <trkpt lat="59.8033324" lon="17.6402767">
        <ele>33.3029</ele>
        <time>2014-05-29T11:17:54Z</time>
      </trkpt>
      <trkpt lat="59.8033153" lon="17.6402652">
        <ele>32.3416</ele>
        <time>2014-05-29T11:17:55Z</time>
      </trkpt>
      <trkpt lat="59.8032924" lon="17.6402518">
        <ele>30.8995</ele>
        <time>2014-05-29T11:17:56Z</time>
      </trkpt>
      <trkpt lat="59.8032699" lon="17.6402322">
        <ele>29.9381</ele>
        <time>2014-05-29T11:17:57Z</time>
      </trkpt>
      <trkpt lat="59.8032529" lon="17.6402201">
        <ele>29.9381</ele>
        <time>2014-05-29T11:17:58Z</time>
      </trkpt>
      <trkpt lat="59.803235" lon="17.6402145">
        <ele>28.4962</ele>
        <time>2014-05-29T11:17:59Z</time>
      </trkpt>
      <trkpt lat="59.8032192" lon="17.640218">
        <ele>27.5349</ele>
        <time>2014-05-29T11:18:00Z</time>
      </trkpt>
      <trkpt lat="59.8031985" lon="17.6402242">
        <ele>26.0929</ele>
        <time>2014-05-29T11:18:01Z</time>
      </trkpt>
      <trkpt lat="59.8031753" lon="17.6402203">
        <ele>24.651</ele>
        <time>2014-05-29T11:18:02Z</time>
      </trkpt>
      <trkpt lat="59.8031524" lon="17.6402117">
        <ele>23.6896</ele>
        <time>2014-05-29T11:18:03Z</time>
      </trkpt>
      <trkpt lat="59.803124" lon="17.6401966">
        <ele>22.2476</ele>
        <time>2014-05-29T11:18:04Z</time>
      </trkpt>
      <trkpt lat="59.8030898" lon="17.6401764">
        <ele>21.2864</ele>
        <time>2014-05-29T11:18:05Z</time>
      </trkpt>
      <trkpt lat="59.8030536" lon="17.640145">
        <ele>19.8444</ele>
        <time>2014-05-29T11:18:06Z</time>
      </trkpt>
      <trkpt lat="59.8030166" lon="17.6401217">
        <ele>17.9218</ele>
        <time>2014-05-29T11:18:07Z</time>
      </trkpt>
      <trkpt lat="59.8029886" lon="17.6401022">
        <ele>16.4797</ele>
        <time>2014-05-29T11:18:08Z</time>
      </trkpt>
      <trkpt lat="59.8029558" lon="17.6400778">
        <ele>14.557</ele>
        <time>2014-05-29T11:18:09Z</time>
      </trkpt>
      <trkpt lat="59.8029199" lon="17.6400414">
        <ele>13.5958</ele>
        <time>2014-05-29T11:18:10Z</time>
      </trkpt>
      <trkpt lat="59.8028804" lon="17.6399891">
        <ele>12.6344</ele>
        <time>2014-05-29T11:18:11Z</time>
      </trkpt>
      <trkpt lat="59.8028411" lon="17.6399409">
        <ele>11.1925</ele>
        <time>2014-05-29T11:18:12Z</time>
      </trkpt>
      <trkpt lat="59.8028028" lon="17.6399">
        <ele>10.2312</ele>
        <time>2014-05-29T11:18:13Z</time>
      </trkpt>
      <trkpt lat="59.8027677" lon="17.6398602">
        <ele>8.78918</ele>
        <time>2014-05-29T11:18:14Z</time>
      </trkpt>
      <trkpt lat="59.8027349" lon="17.6398213">
        <ele>7.34717</ele>
        <time>2014-05-29T11:18:15Z</time>
      </trkpt>
      <trkpt lat="59.8027053" lon="17.6397876">
        <ele>6.38586</ele>
        <time>2014-05-29T11:18:16Z</time>
      </trkpt>
      <trkpt lat="59.8026795" lon="17.6397532">
        <ele>4.94385</ele>
        <time>2014-05-29T11:18:17Z</time>
      </trkpt>
      <trkpt lat="59.8026532" lon="17.6397178">
        <ele>4.46326</ele>
        <time>2014-05-29T11:18:18Z</time>
      </trkpt>
      <trkpt lat="59.8026276" lon="17.6396665">
        <ele>3.98267</ele>
        <time>2014-05-29T11:18:19Z</time>
      </trkpt>
      <trkpt lat="59.8025997" lon="17.639613">
        <ele>3.98267</ele>
        <time>2014-05-29T11:18:20Z</time>
      </trkpt>
      <trkpt lat="59.8025687" lon="17.6395479">
        <ele>3.02124</ele>
        <time>2014-05-29T11:18:21Z</time>
      </trkpt>
      <trkpt lat="59.8025402" lon="17.6394758">
        <ele>3.02124</ele>
        <time>2014-05-29T11:18:22Z</time>
      </trkpt>
      <trkpt lat="59.8025252" lon="17.6394053">
        <ele>3.02124</ele>
        <time>2014-05-29T11:18:23Z</time>
      </trkpt>
      <trkpt lat="59.8025063" lon="17.6393251">
        <ele>3.98267</ele>
        <time>2014-05-29T11:18:24Z</time>
      </trkpt>
      <trkpt lat="59.8025044" lon="17.6392385">
        <ele>3.98267</ele>
        <time>2014-05-29T11:18:25Z</time>
      </trkpt>
      <trkpt lat="59.8024976" lon="17.6391651">
        <ele>3.50195</ele>
        <time>2014-05-29T11:18:26Z</time>
      </trkpt>
      <trkpt lat="59.8024771" lon="17.6390941">
        <ele>3.02124</ele>
        <time>2014-05-29T11:18:27Z</time>
      </trkpt>
      <trkpt lat="59.8024386" lon="17.6390324">
        <ele>3.50195</ele>
        <time>2014-05-29T11:18:28Z</time>
      </trkpt>
      <trkpt lat="59.8024007" lon="17.6389781">
        <ele>3.02124</ele>
        <time>2014-05-29T11:18:29Z</time>
      </trkpt>
      <trkpt lat="59.8023692" lon="17.6389178">
        <ele>3.02124</ele>
        <time>2014-05-29T11:18:30Z</time>
      </trkpt>
      <trkpt lat="59.8023397" lon="17.6388592">
        <ele>3.02124</ele>
        <time>2014-05-29T11:18:31Z</time>
      </trkpt>
      <trkpt lat="59.8023087" lon="17.6387967">
        <ele>3.02124</ele>
        <time>2014-05-29T11:18:32Z</time>
      </trkpt>
      <trkpt lat="59.802261" lon="17.6387283">
        <ele>4.46326</ele>
        <time>2014-05-29T11:18:33Z</time>
      </trkpt>
      <trkpt lat="59.8022228" lon="17.6386599">
        <ele>4.46326</ele>
        <time>2014-05-29T11:18:34Z</time>
      </trkpt>
      <trkpt lat="59.8021885" lon="17.6385993">
        <ele>4.94385</ele>
        <time>2014-05-29T11:18:35Z</time>
      </trkpt>
      <trkpt lat="59.8021501" lon="17.6385421">
        <ele>4.94385</ele>
        <time>2014-05-29T11:18:36Z</time>
      </trkpt>
      <trkpt lat="59.8021179" lon="17.6384761">
        <ele>4.94385</ele>
        <time>2014-05-29T11:18:37Z</time>
      </trkpt>
      <trkpt lat="59.8020926" lon="17.6383926">
        <ele>4.94385</ele>
        <time>2014-05-29T11:18:38Z</time>
      </trkpt>
      <trkpt lat="59.8020738" lon="17.6383044">
        <ele>4.94385</ele>
        <time>2014-05-29T11:18:39Z</time>
      </trkpt>
      <trkpt lat="59.8020612" lon="17.6382139">
        <ele>5.42456</ele>
        <time>2014-05-29T11:18:40Z</time>
      </trkpt>
      <trkpt lat="59.8020548" lon="17.6381066">
        <ele>5.90527</ele>
        <time>2014-05-29T11:18:41Z</time>
      </trkpt>
      <trkpt lat="59.8020491" lon="17.6380047">
        <ele>5.42456</ele>
        <time>2014-05-29T11:18:42Z</time>
      </trkpt>
      <trkpt lat="59.802042" lon="17.6379196">
        <ele>4.94385</ele>
        <time>2014-05-29T11:18:43Z</time>
      </trkpt>
      <trkpt lat="59.8020315" lon="17.6378351">
        <ele>4.46326</ele>
        <time>2014-05-29T11:18:44Z</time>
      </trkpt>
      <trkpt lat="59.8020085" lon="17.6377569">
        <ele>5.42456</ele>
        <time>2014-05-29T11:18:45Z</time>
      </trkpt>
      <trkpt lat="59.8019802" lon="17.6376742">
        <ele>6.86646</ele>
        <time>2014-05-29T11:18:46Z</time>
      </trkpt>
      <trkpt lat="59.8019321" lon="17.6375379">
        <ele>11.1925</ele>
        <time>2014-05-29T11:18:47Z</time>
      </trkpt>
      <trkpt lat="59.8019025" lon="17.6374363">
        <ele>12.1538</ele>
        <time>2014-05-29T11:18:48Z</time>
      </trkpt>
      <trkpt lat="59.8018584" lon="17.6373203">
        <ele>14.557</ele>
        <time>2014-05-29T11:18:49Z</time>
      </trkpt>
      <trkpt lat="59.8018203" lon="17.6372282">
        <ele>15.999</ele>
        <time>2014-05-29T11:18:50Z</time>
      </trkpt>
      <trkpt lat="59.8017865" lon="17.6371603">
        <ele>16.9604</ele>
        <time>2014-05-29T11:18:51Z</time>
      </trkpt>
      <trkpt lat="59.8017532" lon="17.6370832">
        <ele>18.4023</ele>
        <time>2014-05-29T11:18:52Z</time>
      </trkpt>
      <trkpt lat="59.8017238" lon="17.6370007">
        <ele>18.4023</ele>
        <time>2014-05-29T11:18:53Z</time>
      </trkpt>
      <trkpt lat="59.8016903" lon="17.6369084">
        <ele>18.8831</ele>
        <time>2014-05-29T11:18:54Z</time>
      </trkpt>
      <trkpt lat="59.8016558" lon="17.6368032">
        <ele>19.3638</ele>
        <time>2014-05-29T11:18:55Z</time>
      </trkpt>
      <trkpt lat="59.8016311" lon="17.6366935">
        <ele>20.325</ele>
        <time>2014-05-29T11:18:56Z</time>
      </trkpt>
      <trkpt lat="59.8016031" lon="17.6365941">
        <ele>19.8444</ele>
        <time>2014-05-29T11:18:57Z</time>
      </trkpt>
      <trkpt lat="59.8015753" lon="17.6364857">
        <ele>20.8057</ele>
        <time>2014-05-29T11:18:58Z</time>
      </trkpt>
      <trkpt lat="59.8015428" lon="17.6363649">
        <ele>21.2864</ele>
        <time>2014-05-29T11:18:59Z</time>
      </trkpt>
      <trkpt lat="59.8015076" lon="17.6362532">
        <ele>20.8057</ele>
        <time>2014-05-29T11:19:00Z</time>
      </trkpt>
      <trkpt lat="59.8014585" lon="17.6361465">
        <ele>19.3638</ele>
        <time>2014-05-29T11:19:01Z</time>
      </trkpt>
      <trkpt lat="59.8014088" lon="17.6360466">
        <ele>18.8831</ele>
        <time>2014-05-29T11:19:02Z</time>
      </trkpt>
      <trkpt lat="59.8013545" lon="17.6359466">
        <ele>18.4023</ele>
        <time>2014-05-29T11:19:03Z</time>
      </trkpt>
      <trkpt lat="59.801309" lon="17.6358569">
        <ele>18.4023</ele>
        <time>2014-05-29T11:19:04Z</time>
      </trkpt>
      <trkpt lat="59.8012745" lon="17.6357379">
        <ele>18.4023</ele>
        <time>2014-05-29T11:19:05Z</time>
      </trkpt>
      <trkpt lat="59.8012383" lon="17.6356247">
        <ele>19.3638</ele>
        <time>2014-05-29T11:19:06Z</time>
      </trkpt>
      <trkpt lat="59.8012152" lon="17.6355139">
        <ele>18.8831</ele>
        <time>2014-05-29T11:19:07Z</time>
      </trkpt>
      <trkpt lat="59.801196" lon="17.6354052">
        <ele>18.8831</ele>
        <time>2014-05-29T11:19:08Z</time>
      </trkpt>
      <trkpt lat="59.8011803" lon="17.6352983">
        <ele>18.8831</ele>
        <time>2014-05-29T11:19:09Z</time>
      </trkpt>
      <trkpt lat="59.8011629" lon="17.6352043">
        <ele>18.8831</ele>
        <time>2014-05-29T11:19:10Z</time>
      </trkpt>
      <trkpt lat="59.8011364" lon="17.635084">
        <ele>18.8831</ele>
        <time>2014-05-29T11:19:11Z</time>
      </trkpt>
      <trkpt lat="59.8011095" lon="17.6349753">
        <ele>19.8444</ele>
        <time>2014-05-29T11:19:12Z</time>
      </trkpt>
      <trkpt lat="59.8010731" lon="17.6348225">
        <ele>23.6896</ele>
        <time>2014-05-29T11:19:13Z</time>
      </trkpt>
      <trkpt lat="59.801045" lon="17.6346706">
        <ele>28.0155</ele>
        <time>2014-05-29T11:19:14Z</time>
      </trkpt>
      <trkpt lat="59.8010178" lon="17.6345422">
        <ele>29.9381</ele>
        <time>2014-05-29T11:19:15Z</time>
      </trkpt>
      <trkpt lat="59.8009997" lon="17.6344214">
        <ele>31.3801</ele>
        <time>2014-05-29T11:19:16Z</time>
      </trkpt>
      <trkpt lat="59.8009898" lon="17.6343041">
        <ele>32.3416</ele>
        <time>2014-05-29T11:19:17Z</time>
      </trkpt>
      <trkpt lat="59.8009908" lon="17.6341789">
        <ele>33.7834</ele>
        <time>2014-05-29T11:19:18Z</time>
      </trkpt>
      <trkpt lat="59.8010041" lon="17.6340558">
        <ele>34.2642</ele>
        <time>2014-05-29T11:19:19Z</time>
      </trkpt>
      <trkpt lat="59.8010178" lon="17.6339613">
        <ele>35.2255</ele>
        <time>2014-05-29T11:19:20Z</time>
      </trkpt>
      <trkpt lat="59.8010167" lon="17.6338916">
        <ele>36.1868</ele>
        <time>2014-05-29T11:19:21Z</time>
      </trkpt>
      <trkpt lat="59.8009927" lon="17.6338427">
        <ele>35.2255</ele>
        <time>2014-05-29T11:19:22Z</time>
      </trkpt>
      <trkpt lat="59.8009627" lon="17.6338092">
        <ele>35.2255</ele>
        <time>2014-05-29T11:19:23Z</time>
      </trkpt>
      <trkpt lat="59.8009342" lon="17.633777">
        <ele>35.2255</ele>
        <time>2014-05-29T11:19:24Z</time>
      </trkpt>
      <trkpt lat="59.8009105" lon="17.6337139">
        <ele>35.7061</ele>
        <time>2014-05-29T11:19:25Z</time>
      </trkpt>
      <trkpt lat="59.8008925" lon="17.6336495">
        <ele>35.7061</ele>
        <time>2014-05-29T11:19:26Z</time>
      </trkpt>
      <trkpt lat="59.8008681" lon="17.6335787">
        <ele>34.2642</ele>
        <time>2014-05-29T11:19:27Z</time>
      </trkpt>
      <trkpt lat="59.800837" lon="17.6335113">
        <ele>32.8223</ele>
        <time>2014-05-29T11:19:28Z</time>
      </trkpt>
      <trkpt lat="59.8008045" lon="17.633444">
        <ele>32.3416</ele>
        <time>2014-05-29T11:19:29Z</time>
      </trkpt>
      <trkpt lat="59.8007777" lon="17.6334068">
        <ele>31.3801</ele>
        <time>2014-05-29T11:19:30Z</time>
      </trkpt>
      <trkpt lat="59.8007498" lon="17.6334121">
        <ele>30.4188</ele>
        <time>2014-05-29T11:19:31Z</time>
      </trkpt>
      <trkpt lat="59.8007176" lon="17.6334195">
        <ele>30.4188</ele>
        <time>2014-05-29T11:19:32Z</time>
      </trkpt>
      <trkpt lat="59.8006764" lon="17.6334319">
        <ele>29.4575</ele>
        <time>2014-05-29T11:19:33Z</time>
      </trkpt>
      <trkpt lat="59.8006391" lon="17.6334528">
        <ele>28.9769</ele>
        <time>2014-05-29T11:19:34Z</time>
      </trkpt>
      <trkpt lat="59.8006059" lon="17.6334741">
        <ele>28.0155</ele>
        <time>2014-05-29T11:19:35Z</time>
      </trkpt>
      <trkpt lat="59.8005733" lon="17.633499">
        <ele>27.5349</ele>
        <time>2014-05-29T11:19:36Z</time>
      </trkpt>
      <trkpt lat="59.8005455" lon="17.6335296">
        <ele>26.5736</ele>
        <time>2014-05-29T11:19:37Z</time>
      </trkpt>
      <trkpt lat="59.8005092" lon="17.6335887">
        <ele>25.1317</ele>
        <time>2014-05-29T11:19:38Z</time>
      </trkpt>
      <trkpt lat="59.8004821" lon="17.6336575">
        <ele>24.651</ele>
        <time>2014-05-29T11:19:39Z</time>
      </trkpt>
      <trkpt lat="59.8004552" lon="17.6337211">
        <ele>23.6896</ele>
        <time>2014-05-29T11:19:40Z</time>
      </trkpt>
      <trkpt lat="59.8004296" lon="17.6337637">
        <ele>23.209</ele>
        <time>2014-05-29T11:19:41Z</time>
      </trkpt>
      <trkpt lat="59.8003983" lon="17.6338153">
        <ele>21.767</ele>
        <time>2014-05-29T11:19:42Z</time>
      </trkpt>
      <trkpt lat="59.8003531" lon="17.6338532">
        <ele>21.2864</ele>
        <time>2014-05-29T11:19:43Z</time>
      </trkpt>
      <trkpt lat="59.8003022" lon="17.6338811">
        <ele>22.2476</ele>
        <time>2014-05-29T11:19:44Z</time>
      </trkpt>
      <trkpt lat="59.8002542" lon="17.6339139">
        <ele>20.8057</ele>
        <time>2014-05-29T11:19:45Z</time>
      </trkpt>
      <trkpt lat="59.8002019" lon="17.6339637">
        <ele>20.325</ele>
        <time>2014-05-29T11:19:46Z</time>
      </trkpt>
      <trkpt lat="59.8001615" lon="17.6340263">
        <ele>20.8057</ele>
        <time>2014-05-29T11:19:47Z</time>
      </trkpt>
      <trkpt lat="59.8001267" lon="17.6340862">
        <ele>20.8057</ele>
        <time>2014-05-29T11:19:48Z</time>
      </trkpt>
      <trkpt lat="59.8000848" lon="17.6341787">
        <ele>21.2864</ele>
        <time>2014-05-29T11:19:49Z</time>
      </trkpt>
      <trkpt lat="59.8000435" lon="17.6342698">
        <ele>20.8057</ele>
        <time>2014-05-29T11:19:50Z</time>
      </trkpt>
      <trkpt lat="59.800002" lon="17.6343333">
        <ele>20.325</ele>
        <time>2014-05-29T11:19:51Z</time>
      </trkpt>
      <trkpt lat="59.7999525" lon="17.6343817">
        <ele>20.325</ele>
        <time>2014-05-29T11:19:52Z</time>
      </trkpt>
      <trkpt lat="59.7999133" lon="17.6344107">
        <ele>19.8444</ele>
        <time>2014-05-29T11:19:53Z</time>
      </trkpt>
      <trkpt lat="59.7998718" lon="17.6344288">
        <ele>18.8831</ele>
        <time>2014-05-29T11:19:54Z</time>
      </trkpt>
      <trkpt lat="59.7998324" lon="17.6344366">
        <ele>17.9218</ele>
        <time>2014-05-29T11:19:55Z</time>
      </trkpt>
      <trkpt lat="59.7997946" lon="17.6344398">
        <ele>16.9604</ele>
        <time>2014-05-29T11:19:56Z</time>
      </trkpt>
      <trkpt lat="59.7997506" lon="17.6344533">
        <ele>15.999</ele>
        <time>2014-05-29T11:19:57Z</time>
      </trkpt>
      <trkpt lat="59.7997057" lon="17.6344623">
        <ele>14.557</ele>
        <time>2014-05-29T11:19:58Z</time>
      </trkpt>
      <trkpt lat="59.7996642" lon="17.6344676">
        <ele>13.5958</ele>
        <time>2014-05-29T11:19:59Z</time>
      </trkpt>
      <trkpt lat="59.7996317" lon="17.634464">
        <ele>13.5958</ele>
        <time>2014-05-29T11:20:00Z</time>
      </trkpt>
      <trkpt lat="59.7995984" lon="17.6344716">
        <ele>13.1151</ele>
        <time>2014-05-29T11:20:01Z</time>
      </trkpt>
      <trkpt lat="59.799571" lon="17.6345024">
        <ele>12.6344</ele>
        <time>2014-05-29T11:20:02Z</time>
      </trkpt>
      <trkpt lat="59.7995338" lon="17.6345436">
        <ele>12.6344</ele>
        <time>2014-05-29T11:20:03Z</time>
      </trkpt>
      <trkpt lat="59.7994964" lon="17.6345899">
        <ele>12.1538</ele>
        <time>2014-05-29T11:20:04Z</time>
      </trkpt>
      <trkpt lat="59.7994633" lon="17.6346364">
        <ele>11.6732</ele>
        <time>2014-05-29T11:20:05Z</time>
      </trkpt>
      <trkpt lat="59.7994255" lon="17.6346848">
        <ele>10.7118</ele>
        <time>2014-05-29T11:20:06Z</time>
      </trkpt>
      <trkpt lat="59.7993787" lon="17.6347158">
        <ele>10.2312</ele>
        <time>2014-05-29T11:20:07Z</time>
      </trkpt>
      <trkpt lat="59.7993233" lon="17.6347447">
        <ele>11.1925</ele>
        <time>2014-05-29T11:20:08Z</time>
      </trkpt>
      <trkpt lat="59.7992746" lon="17.6347648">
        <ele>11.6732</ele>
        <time>2014-05-29T11:20:09Z</time>
      </trkpt>
      <trkpt lat="59.7992274" lon="17.634791">
        <ele>11.6732</ele>
        <time>2014-05-29T11:20:10Z</time>
      </trkpt>
      <trkpt lat="59.7991805" lon="17.6348076">
        <ele>11.6732</ele>
        <time>2014-05-29T11:20:11Z</time>
      </trkpt>
      <trkpt lat="59.7991327" lon="17.6348094">
        <ele>11.6732</ele>
        <time>2014-05-29T11:20:12Z</time>
      </trkpt>
      <trkpt lat="59.7990812" lon="17.6348115">
        <ele>12.1538</ele>
        <time>2014-05-29T11:20:13Z</time>
      </trkpt>
      <trkpt lat="59.7990132" lon="17.6348266">
        <ele>13.5958</ele>
        <time>2014-05-29T11:20:14Z</time>
      </trkpt>
      <trkpt lat="59.7989493" lon="17.6348363">
        <ele>14.557</ele>
        <time>2014-05-29T11:20:15Z</time>
      </trkpt>
      <trkpt lat="59.7988865" lon="17.6348437">
        <ele>15.5184</ele>
        <time>2014-05-29T11:20:16Z</time>
      </trkpt>
      <trkpt lat="59.798824" lon="17.6348556">
        <ele>15.999</ele>
        <time>2014-05-29T11:20:17Z</time>
      </trkpt>
      <trkpt lat="59.7987637" lon="17.6348658">
        <ele>16.4797</ele>
        <time>2014-05-29T11:20:18Z</time>
      </trkpt>
      <trkpt lat="59.7987024" lon="17.6348726">
        <ele>16.9604</ele>
        <time>2014-05-29T11:20:19Z</time>
      </trkpt>
      <trkpt lat="59.7986361" lon="17.6348795">
        <ele>18.4023</ele>
        <time>2014-05-29T11:20:20Z</time>
      </trkpt>
      <trkpt lat="59.7985706" lon="17.6348852">
        <ele>19.3638</ele>
        <time>2014-05-29T11:20:21Z</time>
      </trkpt>
      <trkpt lat="59.7985048" lon="17.6348865">
        <ele>20.325</ele>
        <time>2014-05-29T11:20:22Z</time>
      </trkpt>
      <trkpt lat="59.7984397" lon="17.6348831">
        <ele>20.8057</ele>
        <time>2014-05-29T11:20:23Z</time>
      </trkpt>
      <trkpt lat="59.7983745" lon="17.6348779">
        <ele>21.767</ele>
        <time>2014-05-29T11:20:24Z</time>
      </trkpt>
      <trkpt lat="59.7983091" lon="17.63487">
        <ele>22.2476</ele>
        <time>2014-05-29T11:20:25Z</time>
      </trkpt>
      <trkpt lat="59.7982428" lon="17.6348616">
        <ele>22.7283</ele>
        <time>2014-05-29T11:20:26Z</time>
      </trkpt>
      <trkpt lat="59.79818" lon="17.6348589">
        <ele>22.7283</ele>
        <time>2014-05-29T11:20:27Z</time>
      </trkpt>
      <trkpt lat="59.7981143" lon="17.6348643">
        <ele>22.7283</ele>
        <time>2014-05-29T11:20:28Z</time>
      </trkpt>
      <trkpt lat="59.798048" lon="17.6348634">
        <ele>22.7283</ele>
        <time>2014-05-29T11:20:29Z</time>
      </trkpt>
      <trkpt lat="59.7979796" lon="17.6348577">
        <ele>22.2476</ele>
        <time>2014-05-29T11:20:30Z</time>
      </trkpt>
      <trkpt lat="59.7979101" lon="17.634852">
        <ele>22.2476</ele>
        <time>2014-05-29T11:20:31Z</time>
      </trkpt>
      <trkpt lat="59.7978409" lon="17.6348449">
        <ele>22.2476</ele>
        <time>2014-05-29T11:20:32Z</time>
      </trkpt>
      <trkpt lat="59.7977719" lon="17.6348414">
        <ele>22.7283</ele>
        <time>2014-05-29T11:20:33Z</time>
      </trkpt>
      <trkpt lat="59.7977035" lon="17.6348418">
        <ele>22.7283</ele>
        <time>2014-05-29T11:20:34Z</time>
      </trkpt>
      <trkpt lat="59.7976347" lon="17.6348466">
        <ele>23.6896</ele>
        <time>2014-05-29T11:20:35Z</time>
      </trkpt>
      <trkpt lat="59.797571" lon="17.6348541">
        <ele>23.6896</ele>
        <time>2014-05-29T11:20:36Z</time>
      </trkpt>
      <trkpt lat="59.7975099" lon="17.6348612">
        <ele>23.6896</ele>
        <time>2014-05-29T11:20:37Z</time>
      </trkpt>
      <trkpt lat="59.7974516" lon="17.6348712">
        <ele>24.1703</ele>
        <time>2014-05-29T11:20:38Z</time>
      </trkpt>
      <trkpt lat="59.7973947" lon="17.6348879">
        <ele>24.651</ele>
        <time>2014-05-29T11:20:39Z</time>
      </trkpt>
      <trkpt lat="59.7973335" lon="17.6349067">
        <ele>24.651</ele>
        <time>2014-05-29T11:20:40Z</time>
      </trkpt>
      <trkpt lat="59.7972796" lon="17.6349913">
        <ele>25.1317</ele>
        <time>2014-05-29T11:20:41Z</time>
      </trkpt>
      <trkpt lat="59.7972451" lon="17.6350575">
        <ele>25.6123</ele>
        <time>2014-05-29T11:20:42Z</time>
      </trkpt>
      <trkpt lat="59.7972157" lon="17.6351162">
        <ele>26.5736</ele>
        <time>2014-05-29T11:20:43Z</time>
      </trkpt>
      <trkpt lat="59.7972082" lon="17.6351727">
        <ele>27.0543</ele>
        <time>2014-05-29T11:20:44Z</time>
      </trkpt>
      <trkpt lat="59.7971933" lon="17.6352585">
        <ele>27.0543</ele>
        <time>2014-05-29T11:20:45Z</time>
      </trkpt>
      <trkpt lat="59.7971902" lon="17.6353411">
        <ele>27.5349</ele>
        <time>2014-05-29T11:20:46Z</time>
      </trkpt>
      <trkpt lat="59.7971786" lon="17.6354401">
        <ele>27.5349</ele>
        <time>2014-05-29T11:20:47Z</time>
      </trkpt>
      <trkpt lat="59.7971741" lon="17.6355397">
        <ele>28.0155</ele>
        <time>2014-05-29T11:20:48Z</time>
      </trkpt>
      <trkpt lat="59.7971615" lon="17.6356389">
        <ele>28.0155</ele>
        <time>2014-05-29T11:20:49Z</time>
      </trkpt>
      <trkpt lat="59.7971503" lon="17.6357336">
        <ele>28.0155</ele>
        <time>2014-05-29T11:20:50Z</time>
      </trkpt>
      <trkpt lat="59.797143" lon="17.6358206">
        <ele>28.4962</ele>
        <time>2014-05-29T11:20:51Z</time>
      </trkpt>
      <trkpt lat="59.7971387" lon="17.6358983">
        <ele>28.4962</ele>
        <time>2014-05-29T11:20:52Z</time>
      </trkpt>
      <trkpt lat="59.7971244" lon="17.6359614">
        <ele>28.4962</ele>
        <time>2014-05-29T11:20:53Z</time>
      </trkpt>
      <trkpt lat="59.7970969" lon="17.6359972">
        <ele>28.9769</ele>
        <time>2014-05-29T11:20:54Z</time>
      </trkpt>
      <trkpt lat="59.7970606" lon="17.6359956">
        <ele>28.9769</ele>
        <time>2014-05-29T11:20:55Z</time>
      </trkpt>
      <trkpt lat="59.7970255" lon="17.6359809">
        <ele>29.4575</ele>
        <time>2014-05-29T11:20:56Z</time>
      </trkpt>
      <trkpt lat="59.7969904" lon="17.6359707">
        <ele>29.4575</ele>
        <time>2014-05-29T11:20:57Z</time>
      </trkpt>
      <trkpt lat="59.7969533" lon="17.6359612">
        <ele>29.4575</ele>
        <time>2014-05-29T11:20:58Z</time>
      </trkpt>
      <trkpt lat="59.7969121" lon="17.6359552">
        <ele>29.9381</ele>
        <time>2014-05-29T11:20:59Z</time>
      </trkpt>
      <trkpt lat="59.7968699" lon="17.6359476">
        <ele>29.9381</ele>
        <time>2014-05-29T11:21:00Z</time>
      </trkpt>
      <trkpt lat="59.7968265" lon="17.6359367">
        <ele>29.9381</ele>
        <time>2014-05-29T11:21:01Z</time>
      </trkpt>
      <trkpt lat="59.796782" lon="17.6359206">
        <ele>29.9381</ele>
        <time>2014-05-29T11:21:02Z</time>
      </trkpt>
      <trkpt lat="59.7967368" lon="17.6359032">
        <ele>29.9381</ele>
        <time>2014-05-29T11:21:03Z</time>
      </trkpt>
      <trkpt lat="59.7966891" lon="17.6358911">
        <ele>29.9381</ele>
        <time>2014-05-29T11:21:04Z</time>
      </trkpt>
      <trkpt lat="59.796639" lon="17.6358819">
        <ele>29.9381</ele>
        <time>2014-05-29T11:21:05Z</time>
      </trkpt>
      <trkpt lat="59.7965868" lon="17.6358708">
        <ele>29.9381</ele>
        <time>2014-05-29T11:21:06Z</time>
      </trkpt>
      <trkpt lat="59.7965334" lon="17.6358443">
        <ele>29.9381</ele>
        <time>2014-05-29T11:21:07Z</time>
      </trkpt>
      <trkpt lat="59.7964795" lon="17.6358217">
        <ele>29.4575</ele>
        <time>2014-05-29T11:21:08Z</time>
      </trkpt>
      <trkpt lat="59.7964125" lon="17.6358098">
        <ele>29.4575</ele>
        <time>2014-05-29T11:21:09Z</time>
      </trkpt>
      <trkpt lat="59.7963501" lon="17.6357781">
        <ele>28.9769</ele>
        <time>2014-05-29T11:21:10Z</time>
      </trkpt>
      <trkpt lat="59.796292" lon="17.6357646">
        <ele>28.4962</ele>
        <time>2014-05-29T11:21:11Z</time>
      </trkpt>
      <trkpt lat="59.7962277" lon="17.6357475">
        <ele>28.4962</ele>
        <time>2014-05-29T11:21:12Z</time>
      </trkpt>
      <trkpt lat="59.7961662" lon="17.635746">
        <ele>28.4962</ele>
        <time>2014-05-29T11:21:13Z</time>
      </trkpt>
      <trkpt lat="59.7961068" lon="17.6357206">
        <ele>28.4962</ele>
        <time>2014-05-29T11:21:14Z</time>
      </trkpt>
      <trkpt lat="59.7960484" lon="17.6356804">
        <ele>28.4962</ele>
        <time>2014-05-29T11:21:15Z</time>
      </trkpt>
      <trkpt lat="59.7960133" lon="17.6355939">
        <ele>28.4962</ele>
        <time>2014-05-29T11:21:16Z</time>
      </trkpt>
      <trkpt lat="59.7959898" lon="17.6355005">
        <ele>28.9769</ele>
        <time>2014-05-29T11:21:17Z</time>
      </trkpt>
      <trkpt lat="59.7959721" lon="17.6354022">
        <ele>28.9769</ele>
        <time>2014-05-29T11:21:18Z</time>
      </trkpt>
      <trkpt lat="59.7959563" lon="17.6353032">
        <ele>29.4575</ele>
        <time>2014-05-29T11:21:19Z</time>
      </trkpt>
      <trkpt lat="59.7959422" lon="17.6352068">
        <ele>29.4575</ele>
        <time>2014-05-29T11:21:20Z</time>
      </trkpt>
      <trkpt lat="59.7959335" lon="17.635115">
        <ele>28.9769</ele>
        <time>2014-05-29T11:21:21Z</time>
      </trkpt>
      <trkpt lat="59.7959193" lon="17.6350104">
        <ele>29.4575</ele>
        <time>2014-05-29T11:21:22Z</time>
      </trkpt>
      <trkpt lat="59.7958978" lon="17.6349145">
        <ele>29.4575</ele>
        <time>2014-05-29T11:21:23Z</time>
      </trkpt>
      <trkpt lat="59.7958755" lon="17.6348138">
        <ele>29.9381</ele>
        <time>2014-05-29T11:21:24Z</time>
      </trkpt>
      <trkpt lat="59.7958538" lon="17.634709">
        <ele>29.9381</ele>
        <time>2014-05-29T11:21:25Z</time>
      </trkpt>
      <trkpt lat="59.7958312" lon="17.6346085">
        <ele>30.4188</ele>
        <time>2014-05-29T11:21:26Z</time>
      </trkpt>
      <trkpt lat="59.7958081" lon="17.6345092">
        <ele>30.4188</ele>
        <time>2014-05-29T11:21:27Z</time>
      </trkpt>
      <trkpt lat="59.7957864" lon="17.6344064">
        <ele>30.8995</ele>
        <time>2014-05-29T11:21:28Z</time>
      </trkpt>
      <trkpt lat="59.7957631" lon="17.6343002">
        <ele>30.8995</ele>
        <time>2014-05-29T11:21:29Z</time>
      </trkpt>
      <trkpt lat="59.7957367" lon="17.6341914">
        <ele>30.4188</ele>
        <time>2014-05-29T11:21:30Z</time>
      </trkpt>
      <trkpt lat="59.7957154" lon="17.6340826">
        <ele>30.4188</ele>
        <time>2014-05-29T11:21:31Z</time>
      </trkpt>
      <trkpt lat="59.7956922" lon="17.6339736">
        <ele>30.4188</ele>
        <time>2014-05-29T11:21:32Z</time>
      </trkpt>
      <trkpt lat="59.7956693" lon="17.6338652">
        <ele>30.8995</ele>
        <time>2014-05-29T11:21:33Z</time>
      </trkpt>
      <trkpt lat="59.795647" lon="17.6337594">
        <ele>30.8995</ele>
        <time>2014-05-29T11:21:34Z</time>
      </trkpt>
      <trkpt lat="59.7956258" lon="17.6336584">
        <ele>30.8995</ele>
        <time>2014-05-29T11:21:35Z</time>
      </trkpt>
      <trkpt lat="59.7956093" lon="17.6335643">
        <ele>30.8995</ele>
        <time>2014-05-29T11:21:36Z</time>
      </trkpt>
      <trkpt lat="59.7955985" lon="17.6334838">
        <ele>30.8995</ele>
        <time>2014-05-29T11:21:37Z</time>
      </trkpt>
      <trkpt lat="59.7955905" lon="17.6334193">
        <ele>30.8995</ele>
        <time>2014-05-29T11:21:38Z</time>
      </trkpt>
      <trkpt lat="59.7955806" lon="17.6333663">
        <ele>30.8995</ele>
        <time>2014-05-29T11:21:39Z</time>
      </trkpt>
      <trkpt lat="59.7955705" lon="17.6333146">
        <ele>30.8995</ele>
        <time>2014-05-29T11:21:40Z</time>
      </trkpt>
      <trkpt lat="59.795561" lon="17.6332651">
        <ele>30.8995</ele>
        <time>2014-05-29T11:21:41Z</time>
      </trkpt>
      <trkpt lat="59.7955507" lon="17.633211">
        <ele>30.4188</ele>
        <time>2014-05-29T11:21:42Z</time>
      </trkpt>
      <trkpt lat="59.7955444" lon="17.6331456">
        <ele>30.4188</ele>
        <time>2014-05-29T11:21:43Z</time>
      </trkpt>
      <trkpt lat="59.795546" lon="17.6330773">
        <ele>30.4188</ele>
        <time>2014-05-29T11:21:44Z</time>
      </trkpt>
      <trkpt lat="59.7955564" lon="17.6330137">
        <ele>30.4188</ele>
        <time>2014-05-29T11:21:45Z</time>
      </trkpt>
      <trkpt lat="59.7955733" lon="17.632954">
        <ele>30.4188</ele>
        <time>2014-05-29T11:21:46Z</time>
      </trkpt>
      <trkpt lat="59.7955953" lon="17.6328938">
        <ele>30.4188</ele>
        <time>2014-05-29T11:21:47Z</time>
      </trkpt>
      <trkpt lat="59.7956187" lon="17.6328279">
        <ele>30.4188</ele>
        <time>2014-05-29T11:21:48Z</time>
      </trkpt>
      <trkpt lat="59.795643" lon="17.6327568">
        <ele>30.4188</ele>
        <time>2014-05-29T11:21:49Z</time>
      </trkpt>
      <trkpt lat="59.7956678" lon="17.6326816">
        <ele>30.4188</ele>
        <time>2014-05-29T11:21:50Z</time>
      </trkpt>
      <trkpt lat="59.795693" lon="17.6326011">
        <ele>30.4188</ele>
        <time>2014-05-29T11:21:51Z</time>
      </trkpt>
      <trkpt lat="59.79572" lon="17.6325185">
        <ele>30.4188</ele>
        <time>2014-05-29T11:21:52Z</time>
      </trkpt>
      <trkpt lat="59.7957496" lon="17.6324402">
        <ele>30.4188</ele>
        <time>2014-05-29T11:21:53Z</time>
      </trkpt>
      <trkpt lat="59.7957779" lon="17.6323643">
        <ele>30.4188</ele>
        <time>2014-05-29T11:21:54Z</time>
      </trkpt>
      <trkpt lat="59.7957978" lon="17.6322822">
        <ele>29.9381</ele>
        <time>2014-05-29T11:21:55Z</time>
      </trkpt>
      <trkpt lat="59.7958056" lon="17.6321951">
        <ele>29.9381</ele>
        <time>2014-05-29T11:21:56Z</time>
      </trkpt>
      <trkpt lat="59.7958024" lon="17.6321092">
        <ele>29.9381</ele>
        <time>2014-05-29T11:21:57Z</time>
      </trkpt>
      <trkpt lat="59.7957908" lon="17.6320278">
        <ele>29.9381</ele>
        <time>2014-05-29T11:21:58Z</time>
      </trkpt>
      <trkpt lat="59.7957733" lon="17.6319527">
        <ele>29.9381</ele>
        <time>2014-05-29T11:21:59Z</time>
      </trkpt>
      <trkpt lat="59.7957507" lon="17.6318796">
        <ele>29.4575</ele>
        <time>2014-05-29T11:22:00Z</time>
      </trkpt>
      <trkpt lat="59.7957242" lon="17.631808">
        <ele>29.4575</ele>
        <time>2014-05-29T11:22:01Z</time>
      </trkpt>
      <trkpt lat="59.7956962" lon="17.6317377">
        <ele>29.4575</ele>
        <time>2014-05-29T11:22:02Z</time>
      </trkpt>
      <trkpt lat="59.7956683" lon="17.6316726">
        <ele>29.4575</ele>
        <time>2014-05-29T11:22:03Z</time>
      </trkpt>
      <trkpt lat="59.7956413" lon="17.6316109">
        <ele>29.4575</ele>
        <time>2014-05-29T11:22:04Z</time>
      </trkpt>
      <trkpt lat="59.795615" lon="17.6315487">
        <ele>29.4575</ele>
        <time>2014-05-29T11:22:05Z</time>
      </trkpt>
      <trkpt lat="59.795593" lon="17.6314834">
        <ele>29.4575</ele>
        <time>2014-05-29T11:22:06Z</time>
      </trkpt>
      <trkpt lat="59.7955751" lon="17.6314191">
        <ele>29.4575</ele>
        <time>2014-05-29T11:22:07Z</time>
      </trkpt>
      <trkpt lat="59.7955594" lon="17.6313606">
        <ele>29.9381</ele>
        <time>2014-05-29T11:22:08Z</time>
      </trkpt>
      <trkpt lat="59.7955409" lon="17.6313088">
        <ele>29.9381</ele>
        <time>2014-05-29T11:22:09Z</time>
      </trkpt>
      <trkpt lat="59.7955169" lon="17.63126">
        <ele>30.4188</ele>
        <time>2014-05-29T11:22:10Z</time>
      </trkpt>
      <trkpt lat="59.7954912" lon="17.6312121">
        <ele>30.8995</ele>
        <time>2014-05-29T11:22:11Z</time>
      </trkpt>
      <trkpt lat="59.795471" lon="17.6311669">
        <ele>30.8995</ele>
        <time>2014-05-29T11:22:12Z</time>
      </trkpt>
      <trkpt lat="59.7954523" lon="17.6311253">
        <ele>30.8995</ele>
        <time>2014-05-29T11:22:13Z</time>
      </trkpt>
      <trkpt lat="59.7954308" lon="17.6310922">
        <ele>31.3801</ele>
        <time>2014-05-29T11:22:14Z</time>
      </trkpt>
      <trkpt lat="59.7954103" lon="17.63107">
        <ele>31.3801</ele>
        <time>2014-05-29T11:22:15Z</time>
      </trkpt>
      <trkpt lat="59.7953968" lon="17.6310575">
        <ele>31.8607</ele>
        <time>2014-05-29T11:22:16Z</time>
      </trkpt>
      <trkpt lat="59.7953813" lon="17.6310545">
        <ele>32.3416</ele>
        <time>2014-05-29T11:22:17Z</time>
      </trkpt>
      <trkpt lat="59.7953672" lon="17.6310488">
        <ele>32.3416</ele>
        <time>2014-05-29T11:22:18Z</time>
      </trkpt>
      <trkpt lat="59.7953518" lon="17.6310424">
        <ele>32.3416</ele>
        <time>2014-05-29T11:22:19Z</time>
      </trkpt>
      <trkpt lat="59.7953305" lon="17.6310385">
        <ele>31.8607</ele>
        <time>2014-05-29T11:22:20Z</time>
      </trkpt>
      <trkpt lat="59.795311" lon="17.6310453">
        <ele>32.3416</ele>
        <time>2014-05-29T11:22:21Z</time>
      </trkpt>
      <trkpt lat="59.7952951" lon="17.631056">
        <ele>32.8223</ele>
        <time>2014-05-29T11:22:22Z</time>
      </trkpt>
      <trkpt lat="59.795273" lon="17.6310738">
        <ele>32.3416</ele>
        <time>2014-05-29T11:22:23Z</time>
      </trkpt>
      <trkpt lat="59.7952459" lon="17.6311041">
        <ele>31.8607</ele>
        <time>2014-05-29T11:22:24Z</time>
      </trkpt>
      <trkpt lat="59.7952181" lon="17.6311368">
        <ele>31.3801</ele>
        <time>2014-05-29T11:22:25Z</time>
      </trkpt>
      <trkpt lat="59.7951876" lon="17.631172">
        <ele>31.3801</ele>
        <time>2014-05-29T11:22:26Z</time>
      </trkpt>
      <trkpt lat="59.7951564" lon="17.6312098">
        <ele>31.8607</ele>
        <time>2014-05-29T11:22:27Z</time>
      </trkpt>
      <trkpt lat="59.7951209" lon="17.6312501">
        <ele>31.3801</ele>
        <time>2014-05-29T11:22:28Z</time>
      </trkpt>
      <trkpt lat="59.7950818" lon="17.6312886">
        <ele>30.8995</ele>
        <time>2014-05-29T11:22:29Z</time>
      </trkpt>
      <trkpt lat="59.795047" lon="17.6313229">
        <ele>30.8995</ele>
        <time>2014-05-29T11:22:30Z</time>
      </trkpt>
      <trkpt lat="59.795013" lon="17.6313424">
        <ele>30.8995</ele>
        <time>2014-05-29T11:22:31Z</time>
      </trkpt>
      <trkpt lat="59.7949825" lon="17.6313674">
        <ele>30.8995</ele>
        <time>2014-05-29T11:22:32Z</time>
      </trkpt>
      <trkpt lat="59.7949605" lon="17.63139">
        <ele>31.3801</ele>
        <time>2014-05-29T11:22:33Z</time>
      </trkpt>
      <trkpt lat="59.7949425" lon="17.6314088">
        <ele>31.3801</ele>
        <time>2014-05-29T11:22:34Z</time>
      </trkpt>
      <trkpt lat="59.7949248" lon="17.6314341">
        <ele>31.8607</ele>
        <time>2014-05-29T11:22:35Z</time>
      </trkpt>
      <trkpt lat="59.7949042" lon="17.6314512">
        <ele>31.8607</ele>
        <time>2014-05-29T11:22:36Z</time>
      </trkpt>
      <trkpt lat="59.7948845" lon="17.6314626">
        <ele>31.3801</ele>
        <time>2014-05-29T11:22:37Z</time>
      </trkpt>
      <trkpt lat="59.7948689" lon="17.6314704">
        <ele>30.8995</ele>
        <time>2014-05-29T11:22:38Z</time>
      </trkpt>
      <trkpt lat="59.7948528" lon="17.6314772">
        <ele>30.8995</ele>
        <time>2014-05-29T11:22:39Z</time>
      </trkpt>
      <trkpt lat="59.7948315" lon="17.6314762">
        <ele>30.8995</ele>
        <time>2014-05-29T11:22:40Z</time>
      </trkpt>
      <trkpt lat="59.7948125" lon="17.6314791">
        <ele>30.4188</ele>
        <time>2014-05-29T11:22:41Z</time>
      </trkpt>
      <trkpt lat="59.7947935" lon="17.6314807">
        <ele>30.4188</ele>
        <time>2014-05-29T11:22:42Z</time>
      </trkpt>
      <trkpt lat="59.7947725" lon="17.6314832">
        <ele>29.9381</ele>
        <time>2014-05-29T11:22:43Z</time>
      </trkpt>
      <trkpt lat="59.7947503" lon="17.6314787">
        <ele>29.9381</ele>
        <time>2014-05-29T11:22:44Z</time>
      </trkpt>
      <trkpt lat="59.7947266" lon="17.6314679">
        <ele>29.4575</ele>
        <time>2014-05-29T11:22:45Z</time>
      </trkpt>
      <trkpt lat="59.7947017" lon="17.6314604">
        <ele>29.4575</ele>
        <time>2014-05-29T11:22:46Z</time>
      </trkpt>
      <trkpt lat="59.7946762" lon="17.6314586">
        <ele>28.9769</ele>
        <time>2014-05-29T11:22:47Z</time>
      </trkpt>
      <trkpt lat="59.794652" lon="17.6314568">
        <ele>28.4962</ele>
        <time>2014-05-29T11:22:48Z</time>
      </trkpt>
      <trkpt lat="59.7946285" lon="17.631459">
        <ele>28.4962</ele>
        <time>2014-05-29T11:22:49Z</time>
      </trkpt>
      <trkpt lat="59.7946084" lon="17.6314684">
        <ele>28.4962</ele>
        <time>2014-05-29T11:22:50Z</time>
      </trkpt>
      <trkpt lat="59.7945907" lon="17.631486">
        <ele>28.4962</ele>
        <time>2014-05-29T11:22:51Z</time>
      </trkpt>
      <trkpt lat="59.7945758" lon="17.6315061">
        <ele>28.0155</ele>
        <time>2014-05-29T11:22:52Z</time>
      </trkpt>
      <trkpt lat="59.7945618" lon="17.6315184">
        <ele>28.0155</ele>
        <time>2014-05-29T11:22:53Z</time>
      </trkpt>
      <trkpt lat="59.7945436" lon="17.6315241">
        <ele>27.5349</ele>
        <time>2014-05-29T11:22:54Z</time>
      </trkpt>
      <trkpt lat="59.794524" lon="17.631534">
        <ele>27.5349</ele>
        <time>2014-05-29T11:22:55Z</time>
      </trkpt>
      <trkpt lat="59.7945022" lon="17.6315466">
        <ele>27.5349</ele>
        <time>2014-05-29T11:22:56Z</time>
      </trkpt>
      <trkpt lat="59.7944813" lon="17.6315548">
        <ele>27.5349</ele>
        <time>2014-05-29T11:22:57Z</time>
      </trkpt>
      <trkpt lat="59.7944594" lon="17.6315673">
        <ele>28.0155</ele>
        <time>2014-05-29T11:22:58Z</time>
      </trkpt>
      <trkpt lat="59.7944354" lon="17.631572">
        <ele>28.0155</ele>
        <time>2014-05-29T11:22:59Z</time>
      </trkpt>
      <trkpt lat="59.7944106" lon="17.6315881">
        <ele>27.5349</ele>
        <time>2014-05-29T11:23:00Z</time>
      </trkpt>
      <trkpt lat="59.7943837" lon="17.6316042">
        <ele>27.5349</ele>
        <time>2014-05-29T11:23:01Z</time>
      </trkpt>
      <trkpt lat="59.7943541" lon="17.6316319">
        <ele>27.5349</ele>
        <time>2014-05-29T11:23:02Z</time>
      </trkpt>
      <trkpt lat="59.7943223" lon="17.6316664">
        <ele>27.5349</ele>
        <time>2014-05-29T11:23:03Z</time>
      </trkpt>
      <trkpt lat="59.7942857" lon="17.6316848">
        <ele>27.0543</ele>
        <time>2014-05-29T11:23:04Z</time>
      </trkpt>
      <trkpt lat="59.7942519" lon="17.6317002">
        <ele>26.5736</ele>
        <time>2014-05-29T11:23:05Z</time>
      </trkpt>
      <trkpt lat="59.7942211" lon="17.6317174">
        <ele>26.0929</ele>
        <time>2014-05-29T11:23:06Z</time>
      </trkpt>
      <trkpt lat="59.7941938" lon="17.6317391">
        <ele>25.6123</ele>
        <time>2014-05-29T11:23:07Z</time>
      </trkpt>
      <trkpt lat="59.7941679" lon="17.6317616">
        <ele>25.1317</ele>
        <time>2014-05-29T11:23:08Z</time>
      </trkpt>
      <trkpt lat="59.7941443" lon="17.6317896">
        <ele>24.651</ele>
        <time>2014-05-29T11:23:09Z</time>
      </trkpt>
      <trkpt lat="59.7941199" lon="17.631816">
        <ele>23.6896</ele>
        <time>2014-05-29T11:23:10Z</time>
      </trkpt>
      <trkpt lat="59.7940914" lon="17.6318382">
        <ele>23.209</ele>
        <time>2014-05-29T11:23:11Z</time>
      </trkpt>
      <trkpt lat="59.7940629" lon="17.6318568">
        <ele>22.7283</ele>
        <time>2014-05-29T11:23:12Z</time>
      </trkpt>
      <trkpt lat="59.7940396" lon="17.631864">
        <ele>22.7283</ele>
        <time>2014-05-29T11:23:13Z</time>
      </trkpt>
      <trkpt lat="59.7940133" lon="17.6318674">
        <ele>22.2476</ele>
        <time>2014-05-29T11:23:14Z</time>
      </trkpt>
      <trkpt lat="59.7939905" lon="17.6318686">
        <ele>22.7283</ele>
        <time>2014-05-29T11:23:15Z</time>
      </trkpt>
      <trkpt lat="59.7939588" lon="17.6318591">
        <ele>22.7283</ele>
        <time>2014-05-29T11:23:16Z</time>
      </trkpt>
      <trkpt lat="59.7939288" lon="17.6318413">
        <ele>22.2476</ele>
        <time>2014-05-29T11:23:17Z</time>
      </trkpt>
      <trkpt lat="59.7938994" lon="17.631816">
        <ele>21.767</ele>
        <time>2014-05-29T11:23:18Z</time>
      </trkpt>
      <trkpt lat="59.7938727" lon="17.6317932">
        <ele>21.2864</ele>
        <time>2014-05-29T11:23:19Z</time>
      </trkpt>
      <trkpt lat="59.7938439" lon="17.6317662">
        <ele>19.8444</ele>
        <time>2014-05-29T11:23:20Z</time>
      </trkpt>
      <trkpt lat="59.7938195" lon="17.6317552">
        <ele>19.3638</ele>
        <time>2014-05-29T11:23:21Z</time>
      </trkpt>
      <trkpt lat="59.7937982" lon="17.631746">
        <ele>18.4023</ele>
        <time>2014-05-29T11:23:22Z</time>
      </trkpt>
      <trkpt lat="59.7937786" lon="17.6317521">
        <ele>16.9604</ele>
        <time>2014-05-29T11:23:23Z</time>
      </trkpt>
      <trkpt lat="59.7937636" lon="17.631761">
        <ele>16.4797</ele>
        <time>2014-05-29T11:23:24Z</time>
      </trkpt>
      <trkpt lat="59.7937452" lon="17.6317692">
        <ele>16.4797</ele>
        <time>2014-05-29T11:23:25Z</time>
      </trkpt>
      <trkpt lat="59.7937351" lon="17.6317779">
        <ele>16.9604</ele>
        <time>2014-05-29T11:23:26Z</time>
      </trkpt>
      <trkpt lat="59.7937217" lon="17.6318015">
        <ele>16.9604</ele>
        <time>2014-05-29T11:23:27Z</time>
      </trkpt>
      <trkpt lat="59.7937061" lon="17.6318249">
        <ele>16.9604</ele>
        <time>2014-05-29T11:23:28Z</time>
      </trkpt>
      <trkpt lat="59.7936862" lon="17.6318749">
        <ele>15.999</ele>
        <time>2014-05-29T11:23:29Z</time>
      </trkpt>
      <trkpt lat="59.7936657" lon="17.6319304">
        <ele>15.999</ele>
        <time>2014-05-29T11:23:30Z</time>
      </trkpt>
      <trkpt lat="59.7936421" lon="17.6319891">
        <ele>15.999</ele>
        <time>2014-05-29T11:23:31Z</time>
      </trkpt>
      <trkpt lat="59.7936227" lon="17.6320396">
        <ele>16.4797</ele>
        <time>2014-05-29T11:23:32Z</time>
      </trkpt>
      <trkpt lat="59.7936004" lon="17.632087">
        <ele>16.4797</ele>
        <time>2014-05-29T11:23:33Z</time>
      </trkpt>
      <trkpt lat="59.7935761" lon="17.6321184">
        <ele>16.4797</ele>
        <time>2014-05-29T11:23:34Z</time>
      </trkpt>
      <trkpt lat="59.7935551" lon="17.6321455">
        <ele>15.999</ele>
        <time>2014-05-29T11:23:35Z</time>
      </trkpt>
      <trkpt lat="59.7935346" lon="17.6321635">
        <ele>15.999</ele>
        <time>2014-05-29T11:23:36Z</time>
      </trkpt>
      <trkpt lat="59.7935096" lon="17.6321851">
        <ele>15.5184</ele>
        <time>2014-05-29T11:23:37Z</time>
      </trkpt>
      <trkpt lat="59.7934823" lon="17.6322055">
        <ele>15.999</ele>
        <time>2014-05-29T11:23:38Z</time>
      </trkpt>
      <trkpt lat="59.7934585" lon="17.6322464">
        <ele>15.5184</ele>
        <time>2014-05-29T11:23:39Z</time>
      </trkpt>
      <trkpt lat="59.793436" lon="17.6322924">
        <ele>15.5184</ele>
        <time>2014-05-29T11:23:40Z</time>
      </trkpt>
      <trkpt lat="59.7934097" lon="17.6323389">
        <ele>14.557</ele>
        <time>2014-05-29T11:23:41Z</time>
      </trkpt>
      <trkpt lat="59.7933811" lon="17.6323732">
        <ele>15.0377</ele>
        <time>2014-05-29T11:23:42Z</time>
      </trkpt>
      <trkpt lat="59.7933537" lon="17.6324021">
        <ele>15.0377</ele>
        <time>2014-05-29T11:23:43Z</time>
      </trkpt>
      <trkpt lat="59.7933189" lon="17.6324198">
        <ele>14.557</ele>
        <time>2014-05-29T11:23:44Z</time>
      </trkpt>
      <trkpt lat="59.7932854" lon="17.6324319">
        <ele>14.557</ele>
        <time>2014-05-29T11:23:45Z</time>
      </trkpt>
      <trkpt lat="59.7932431" lon="17.6324405">
        <ele>14.557</ele>
        <time>2014-05-29T11:23:46Z</time>
      </trkpt>
      <trkpt lat="59.7932013" lon="17.6324452">
        <ele>14.0764</ele>
        <time>2014-05-29T11:23:47Z</time>
      </trkpt>
      <trkpt lat="59.7931641" lon="17.6324624">
        <ele>14.0764</ele>
        <time>2014-05-29T11:23:48Z</time>
      </trkpt>
      <trkpt lat="59.7931258" lon="17.6324921">
        <ele>14.0764</ele>
        <time>2014-05-29T11:23:49Z</time>
      </trkpt>
      <trkpt lat="59.7930845" lon="17.6325136">
        <ele>14.557</ele>
        <time>2014-05-29T11:23:50Z</time>
      </trkpt>
      <trkpt lat="59.7930412" lon="17.6325146">
        <ele>14.557</ele>
        <time>2014-05-29T11:23:51Z</time>
      </trkpt>
      <trkpt lat="59.7929782" lon="17.6325478">
        <ele>15.5184</ele>
        <time>2014-05-29T11:23:52Z</time>
      </trkpt>
      <trkpt lat="59.7929273" lon="17.6325591">
        <ele>15.999</ele>
        <time>2014-05-29T11:23:53Z</time>
      </trkpt>
      <trkpt lat="59.7928524" lon="17.6326033">
        <ele>16.9604</ele>
        <time>2014-05-29T11:23:54Z</time>
      </trkpt>
      <trkpt lat="59.792817" lon="17.6325991">
        <ele>16.9604</ele>
        <time>2014-05-29T11:23:55Z</time>
      </trkpt>
      <trkpt lat="59.7927871" lon="17.632625">
        <ele>16.9604</ele>
        <time>2014-05-29T11:23:56Z</time>
      </trkpt>
      <trkpt lat="59.7927598" lon="17.6326639">
        <ele>17.4412</ele>
        <time>2014-05-29T11:23:57Z</time>
      </trkpt>
      <trkpt lat="59.792733" lon="17.632722">
        <ele>17.9218</ele>
        <time>2014-05-29T11:23:58Z</time>
      </trkpt>
      <trkpt lat="59.7927109" lon="17.6327681">
        <ele>18.4023</ele>
        <time>2014-05-29T11:23:59Z</time>
      </trkpt>
      <trkpt lat="59.792687" lon="17.6328213">
        <ele>18.4023</ele>
        <time>2014-05-29T11:24:00Z</time>
      </trkpt>
      <trkpt lat="59.7926694" lon="17.6328692">
        <ele>18.4023</ele>
        <time>2014-05-29T11:24:01Z</time>
      </trkpt>
      <trkpt lat="59.7926501" lon="17.6329163">
        <ele>17.9218</ele>
        <time>2014-05-29T11:24:02Z</time>
      </trkpt>
      <trkpt lat="59.7926344" lon="17.6329447">
        <ele>18.8831</ele>
        <time>2014-05-29T11:24:03Z</time>
      </trkpt>
      <trkpt lat="59.7926162" lon="17.6329863">
        <ele>18.8831</ele>
        <time>2014-05-29T11:24:04Z</time>
      </trkpt>
      <trkpt lat="59.7925898" lon="17.6330294">
        <ele>17.9218</ele>
        <time>2014-05-29T11:24:05Z</time>
      </trkpt>
      <trkpt lat="59.7925603" lon="17.6330727">
        <ele>17.9218</ele>
        <time>2014-05-29T11:24:06Z</time>
      </trkpt>
      <trkpt lat="59.7925328" lon="17.633117">
        <ele>17.9218</ele>
        <time>2014-05-29T11:24:07Z</time>
      </trkpt>
      <trkpt lat="59.7924992" lon="17.633173">
        <ele>17.4412</ele>
        <time>2014-05-29T11:24:08Z</time>
      </trkpt>
      <trkpt lat="59.7924644" lon="17.6332149">
        <ele>17.4412</ele>
        <time>2014-05-29T11:24:09Z</time>
      </trkpt>
      <trkpt lat="59.7924173" lon="17.6332643">
        <ele>16.9604</ele>
        <time>2014-05-29T11:24:10Z</time>
      </trkpt>
      <trkpt lat="59.7923852" lon="17.6333155">
        <ele>17.4412</ele>
        <time>2014-05-29T11:24:11Z</time>
      </trkpt>
      <trkpt lat="59.7923493" lon="17.6333767">
        <ele>17.9218</ele>
        <time>2014-05-29T11:24:12Z</time>
      </trkpt>
      <trkpt lat="59.7923141" lon="17.6334273">
        <ele>17.9218</ele>
        <time>2014-05-29T11:24:13Z</time>
      </trkpt>
      <trkpt lat="59.7922784" lon="17.6334871">
        <ele>17.4412</ele>
        <time>2014-05-29T11:24:14Z</time>
      </trkpt>
      <trkpt lat="59.7922409" lon="17.6335465">
        <ele>17.4412</ele>
        <time>2014-05-29T11:24:15Z</time>
      </trkpt>
      <trkpt lat="59.792209" lon="17.6335956">
        <ele>17.4412</ele>
        <time>2014-05-29T11:24:16Z</time>
      </trkpt>
      <trkpt lat="59.792182" lon="17.6336381">
        <ele>17.4412</ele>
        <time>2014-05-29T11:24:17Z</time>
      </trkpt>
      <trkpt lat="59.792155" lon="17.6336777">
        <ele>17.9218</ele>
        <time>2014-05-29T11:24:18Z</time>
      </trkpt>
      <trkpt lat="59.7921231" lon="17.6336985">
        <ele>17.4412</ele>
        <time>2014-05-29T11:24:19Z</time>
      </trkpt>
      <trkpt lat="59.7920739" lon="17.633747">
        <ele>16.9604</ele>
        <time>2014-05-29T11:24:20Z</time>
      </trkpt>
      <trkpt lat="59.7920175" lon="17.633771">
        <ele>18.4023</ele>
        <time>2014-05-29T11:24:21Z</time>
      </trkpt>
      <trkpt lat="59.7919584" lon="17.6338045">
        <ele>20.325</ele>
        <time>2014-05-29T11:24:22Z</time>
      </trkpt>
      <trkpt lat="59.7918977" lon="17.6338234">
        <ele>22.7283</ele>
        <time>2014-05-29T11:24:23Z</time>
      </trkpt>
      <trkpt lat="59.7918457" lon="17.6338233">
        <ele>24.651</ele>
        <time>2014-05-29T11:24:24Z</time>
      </trkpt>
      <trkpt lat="59.7917822" lon="17.6338418">
        <ele>27.5349</ele>
        <time>2014-05-29T11:24:25Z</time>
      </trkpt>
      <trkpt lat="59.7917212" lon="17.6338389">
        <ele>28.9769</ele>
        <time>2014-05-29T11:24:26Z</time>
      </trkpt>
      <trkpt lat="59.7916806" lon="17.6338326">
        <ele>30.8995</ele>
        <time>2014-05-29T11:24:27Z</time>
      </trkpt>
      <trkpt lat="59.7916232" lon="17.6337926">
        <ele>28.9769</ele>
        <time>2014-05-29T11:24:28Z</time>
      </trkpt>
      <trkpt lat="59.7915637" lon="17.6337469">
        <ele>27.5349</ele>
        <time>2014-05-29T11:24:29Z</time>
      </trkpt>
      <trkpt lat="59.7915071" lon="17.6336868">
        <ele>25.1317</ele>
        <time>2014-05-29T11:24:30Z</time>
      </trkpt>
      <trkpt lat="59.7914304" lon="17.6336445">
        <ele>25.6123</ele>
        <time>2014-05-29T11:24:31Z</time>
      </trkpt>
      <trkpt lat="59.7913574" lon="17.6335917">
        <ele>26.0929</ele>
        <time>2014-05-29T11:24:32Z</time>
      </trkpt>
      <trkpt lat="59.7912891" lon="17.6335314">
        <ele>26.5736</ele>
        <time>2014-05-29T11:24:33Z</time>
      </trkpt>
      <trkpt lat="59.7912341" lon="17.6334808">
        <ele>27.5349</ele>
        <time>2014-05-29T11:24:34Z</time>
      </trkpt>
      <trkpt lat="59.7911966" lon="17.6334352">
        <ele>26.0929</ele>
        <time>2014-05-29T11:24:35Z</time>
      </trkpt>
      <trkpt lat="59.7911543" lon="17.6334016">
        <ele>23.6896</ele>
        <time>2014-05-29T11:24:36Z</time>
      </trkpt>
      <trkpt lat="59.7911067" lon="17.633355">
        <ele>21.2864</ele>
        <time>2014-05-29T11:24:37Z</time>
      </trkpt>
      <trkpt lat="59.791057" lon="17.6332933">
        <ele>17.9218</ele>
        <time>2014-05-29T11:24:38Z</time>
      </trkpt>
      <trkpt lat="59.7910011" lon="17.6332063">
        <ele>15.5184</ele>
        <time>2014-05-29T11:24:39Z</time>
      </trkpt>
      <trkpt lat="59.7909526" lon="17.6331357">
        <ele>13.5958</ele>
        <time>2014-05-29T11:24:40Z</time>
      </trkpt>
      <trkpt lat="59.7909067" lon="17.6330647">
        <ele>11.6732</ele>
        <time>2014-05-29T11:24:41Z</time>
      </trkpt>
      <trkpt lat="59.7908507" lon="17.6330103">
        <ele>10.2312</ele>
        <time>2014-05-29T11:24:42Z</time>
      </trkpt>
      <trkpt lat="59.7907946" lon="17.6329536">
        <ele>8.30859</ele>
        <time>2014-05-29T11:24:43Z</time>
      </trkpt>
      <trkpt lat="59.790743" lon="17.6329093">
        <ele>6.38586</ele>
        <time>2014-05-29T11:24:44Z</time>
      </trkpt>
      <trkpt lat="59.7907021" lon="17.6328621">
        <ele>3.98267</ele>
        <time>2014-05-29T11:24:45Z</time>
      </trkpt>
      <trkpt lat="59.7906595" lon="17.6328184">
        <ele>1.57935</ele>
        <time>2014-05-29T11:24:46Z</time>
      </trkpt>
      <trkpt lat="59.7906182" lon="17.6327665">
        <ele>0</ele>
        <time>2014-05-29T11:24:47Z</time>
      </trkpt>
      <trkpt lat="59.7905724" lon="17.6327354">
        <ele>0</ele>
        <time>2014-05-29T11:24:48Z</time>
      </trkpt>
      <trkpt lat="59.7905258" lon="17.6327208">
        <ele>0</ele>
        <time>2014-05-29T11:24:49Z</time>
      </trkpt>
      <trkpt lat="59.7904789" lon="17.632724">
        <ele>0</ele>
        <time>2014-05-29T11:24:50Z</time>
      </trkpt>
      <trkpt lat="59.7904368" lon="17.6327392">
        <ele>0</ele>
        <time>2014-05-29T11:24:51Z</time>
      </trkpt>
      <trkpt lat="59.7903918" lon="17.632767">
        <ele>0</ele>
        <time>2014-05-29T11:24:52Z</time>
      </trkpt>
      <trkpt lat="59.790338" lon="17.6328112">
        <ele>0</ele>
        <time>2014-05-29T11:24:53Z</time>
      </trkpt>
      <trkpt lat="59.7902862" lon="17.632855">
        <ele>0</ele>
        <time>2014-05-29T11:24:54Z</time>
      </trkpt>
      <trkpt lat="59.7902297" lon="17.6329043">
        <ele>0</ele>
        <time>2014-05-29T11:24:55Z</time>
      </trkpt>
      <trkpt lat="59.7901821" lon="17.6329405">
        <ele>0</ele>
        <time>2014-05-29T11:24:56Z</time>
      </trkpt>
      <trkpt lat="59.7901251" lon="17.6329546">
        <ele>0</ele>
        <time>2014-05-29T11:24:57Z</time>
      </trkpt>
      <trkpt lat="59.7900717" lon="17.6329566">
        <ele>0</ele>
        <time>2014-05-29T11:24:58Z</time>
      </trkpt>
      <trkpt lat="59.7900135" lon="17.6329531">
        <ele>0</ele>
        <time>2014-05-29T11:24:59Z</time>
      </trkpt>
      <trkpt lat="59.7899501" lon="17.6329494">
        <ele>0</ele>
        <time>2014-05-29T11:25:00Z</time>
      </trkpt>
      <trkpt lat="59.7898899" lon="17.6329551">
        <ele>0</ele>
        <time>2014-05-29T11:25:01Z</time>
      </trkpt>
      <trkpt lat="59.7898325" lon="17.6329533">
        <ele>0</ele>
        <time>2014-05-29T11:25:02Z</time>
      </trkpt>
      <trkpt lat="59.7897788" lon="17.6329386">
        <ele>0</ele>
        <time>2014-05-29T11:25:03Z</time>
      </trkpt>
      <trkpt lat="59.7897298" lon="17.6329186">
        <ele>0</ele>
        <time>2014-05-29T11:25:04Z</time>
      </trkpt>
      <trkpt lat="59.7896914" lon="17.6328823">
        <ele>0</ele>
        <time>2014-05-29T11:25:05Z</time>
      </trkpt>
      <trkpt lat="59.7896512" lon="17.632838">
        <ele>0</ele>
        <time>2014-05-29T11:25:06Z</time>
      </trkpt>
      <trkpt lat="59.7896086" lon="17.6327862">
        <ele>0</ele>
        <time>2014-05-29T11:25:07Z</time>
      </trkpt>
      <trkpt lat="59.7895682" lon="17.6327329">
        <ele>0</ele>
        <time>2014-05-29T11:25:08Z</time>
      </trkpt>
      <trkpt lat="59.7895195" lon="17.6326867">
        <ele>0</ele>
        <time>2014-05-29T11:25:09Z</time>
      </trkpt>
      <trkpt lat="59.7894636" lon="17.6326499">
        <ele>0</ele>
        <time>2014-05-29T11:25:10Z</time>
      </trkpt>
      <trkpt lat="59.789407" lon="17.6326095">
        <ele>0</ele>
        <time>2014-05-29T11:25:11Z</time>
      </trkpt>
      <trkpt lat="59.7893568" lon="17.6325584">
        <ele>0</ele>
        <time>2014-05-29T11:25:12Z</time>
      </trkpt>
      <trkpt lat="59.7893118" lon="17.6325161">
        <ele>0</ele>
        <time>2014-05-29T11:25:13Z</time>
      </trkpt>
      <trkpt lat="59.7892719" lon="17.6324666">
        <ele>0</ele>
        <time>2014-05-29T11:25:14Z</time>
      </trkpt>
      <trkpt lat="59.7892352" lon="17.6324099">
        <ele>0</ele>
        <time>2014-05-29T11:25:15Z</time>
      </trkpt>
      <trkpt lat="59.7891937" lon="17.6323447">
        <ele>0</ele>
        <time>2014-05-29T11:25:16Z</time>
      </trkpt>
      <trkpt lat="59.7891469" lon="17.6322683">
        <ele>0</ele>
        <time>2014-05-29T11:25:17Z</time>
      </trkpt>
      <trkpt lat="59.7891009" lon="17.6321937">
        <ele>0</ele>
        <time>2014-05-29T11:25:18Z</time>
      </trkpt>
      <trkpt lat="59.7890544" lon="17.6321236">
        <ele>0</ele>
        <time>2014-05-29T11:25:19Z</time>
      </trkpt>
      <trkpt lat="59.7890059" lon="17.6320598">
        <ele>0</ele>
        <time>2014-05-29T11:25:20Z</time>
      </trkpt>
      <trkpt lat="59.7889528" lon="17.6320076">
        <ele>0</ele>
        <time>2014-05-29T11:25:21Z</time>
      </trkpt>
      <trkpt lat="59.7888907" lon="17.6319672">
        <ele>0</ele>
        <time>2014-05-29T11:25:22Z</time>
      </trkpt>
      <trkpt lat="59.7888357" lon="17.6319315">
        <ele>0</ele>
        <time>2014-05-29T11:25:23Z</time>
      </trkpt>
      <trkpt lat="59.7887905" lon="17.6318947">
        <ele>0</ele>
        <time>2014-05-29T11:25:24Z</time>
      </trkpt>
      <trkpt lat="59.7887534" lon="17.631864">
        <ele>0</ele>
        <time>2014-05-29T11:25:25Z</time>
      </trkpt>
      <trkpt lat="59.7887156" lon="17.6318303">
        <ele>0</ele>
        <time>2014-05-29T11:25:26Z</time>
      </trkpt>
      <trkpt lat="59.7886829" lon="17.6317894">
        <ele>0</ele>
        <time>2014-05-29T11:25:27Z</time>
      </trkpt>
      <trkpt lat="59.7886513" lon="17.6317366">
        <ele>0</ele>
        <time>2014-05-29T11:25:28Z</time>
      </trkpt>
      <trkpt lat="59.7886175" lon="17.6316766">
        <ele>0</ele>
        <time>2014-05-29T11:25:29Z</time>
      </trkpt>
      <trkpt lat="59.7885778" lon="17.6316139">
        <ele>0</ele>
        <time>2014-05-29T11:25:30Z</time>
      </trkpt>
      <trkpt lat="59.7885347" lon="17.6315656">
        <ele>0</ele>
        <time>2014-05-29T11:25:31Z</time>
      </trkpt>
      <trkpt lat="59.7884926" lon="17.6315347">
        <ele>0</ele>
        <time>2014-05-29T11:25:32Z</time>
      </trkpt>
      <trkpt lat="59.7884462" lon="17.631502">
        <ele>0</ele>
        <time>2014-05-29T11:25:33Z</time>
      </trkpt>
      <trkpt lat="59.7883933" lon="17.6314635">
        <ele>0</ele>
        <time>2014-05-29T11:25:34Z</time>
      </trkpt>
      <trkpt lat="59.7883503" lon="17.6314105">
        <ele>0</ele>
        <time>2014-05-29T11:25:35Z</time>
      </trkpt>
      <trkpt lat="59.7883084" lon="17.6313423">
        <ele>0</ele>
        <time>2014-05-29T11:25:36Z</time>
      </trkpt>
      <trkpt lat="59.7882629" lon="17.6312689">
        <ele>0</ele>
        <time>2014-05-29T11:25:37Z</time>
      </trkpt>
      <trkpt lat="59.7881929" lon="17.6311555">
        <ele>0</ele>
        <time>2014-05-29T11:25:38Z</time>
      </trkpt>
      <trkpt lat="59.7881333" lon="17.6310673">
        <ele>0</ele>
        <time>2014-05-29T11:25:39Z</time>
      </trkpt>
      <trkpt lat="59.7880727" lon="17.6309669">
        <ele>0</ele>
        <time>2014-05-29T11:25:40Z</time>
      </trkpt>
      <trkpt lat="59.7879741" lon="17.6307847">
        <ele>0</ele>
        <time>2014-05-29T11:25:41Z</time>
      </trkpt>
      <trkpt lat="59.7879007" lon="17.6306919">
        <ele>0</ele>
        <time>2014-05-29T11:25:42Z</time>
      </trkpt>
      <trkpt lat="59.7878335" lon="17.630627">
        <ele>0</ele>
        <time>2014-05-29T11:25:43Z</time>
      </trkpt>
      <trkpt lat="59.7877804" lon="17.6306048">
        <ele>0</ele>
        <time>2014-05-29T11:25:44Z</time>
      </trkpt>
      <trkpt lat="59.7877425" lon="17.6305945">
        <ele>0</ele>
        <time>2014-05-29T11:25:45Z</time>
      </trkpt>
      <trkpt lat="59.7877058" lon="17.6305699">
        <ele>0</ele>
        <time>2014-05-29T11:25:46Z</time>
      </trkpt>
      <trkpt lat="59.7876788" lon="17.6305639">
        <ele>0</ele>
        <time>2014-05-29T11:25:47Z</time>
      </trkpt>
      <trkpt lat="59.7876468" lon="17.6305562">
        <ele>0</ele>
        <time>2014-05-29T11:25:48Z</time>
      </trkpt>
      <trkpt lat="59.7876096" lon="17.6305506">
        <ele>0</ele>
        <time>2014-05-29T11:25:49Z</time>
      </trkpt>
      <trkpt lat="59.7875731" lon="17.6305427">
        <ele>0</ele>
        <time>2014-05-29T11:25:50Z</time>
      </trkpt>
      <trkpt lat="59.7875304" lon="17.6305556">
        <ele>0</ele>
        <time>2014-05-29T11:25:51Z</time>
      </trkpt>
      <trkpt lat="59.7874853" lon="17.6305932">
        <ele>0</ele>
        <time>2014-05-29T11:25:52Z</time>
      </trkpt>
      <trkpt lat="59.7874438" lon="17.6306399">
        <ele>0</ele>
        <time>2014-05-29T11:25:53Z</time>
      </trkpt>
      <trkpt lat="59.7873983" lon="17.6306924">
        <ele>0</ele>
        <time>2014-05-29T11:25:54Z</time>
      </trkpt>
      <trkpt lat="59.7873438" lon="17.6307644">
        <ele>0</ele>
        <time>2014-05-29T11:25:55Z</time>
      </trkpt>
      <trkpt lat="59.7872877" lon="17.6308297">
        <ele>0</ele>
        <time>2014-05-29T11:25:56Z</time>
      </trkpt>
      <trkpt lat="59.7872299" lon="17.6308643">
        <ele>0</ele>
        <time>2014-05-29T11:25:57Z</time>
      </trkpt>
      <trkpt lat="59.7871708" lon="17.6308671">
        <ele>0</ele>
        <time>2014-05-29T11:25:58Z</time>
      </trkpt>
      <trkpt lat="59.7871038" lon="17.630855">
        <ele>0.137451</ele>
        <time>2014-05-29T11:25:59Z</time>
      </trkpt>
      <trkpt lat="59.7870344" lon="17.6308343">
        <ele>0.618042</ele>
        <time>2014-05-29T11:26:00Z</time>
      </trkpt>
      <trkpt lat="59.7869643" lon="17.6308064">
        <ele>0.618042</ele>
        <time>2014-05-29T11:26:01Z</time>
      </trkpt>
      <trkpt lat="59.7868969" lon="17.6307668">
        <ele>0.137451</ele>
        <time>2014-05-29T11:26:02Z</time>
      </trkpt>
      <trkpt lat="59.7868311" lon="17.630725">
        <ele>0.137451</ele>
        <time>2014-05-29T11:26:03Z</time>
      </trkpt>
      <trkpt lat="59.7867677" lon="17.6306829">
        <ele>0.137451</ele>
        <time>2014-05-29T11:26:04Z</time>
      </trkpt>
      <trkpt lat="59.7867082" lon="17.6306442">
        <ele>0</ele>
        <time>2014-05-29T11:26:05Z</time>
      </trkpt>
      <trkpt lat="59.7866563" lon="17.6306121">
        <ele>0</ele>
        <time>2014-05-29T11:26:06Z</time>
      </trkpt>
      <trkpt lat="59.7866157" lon="17.630587">
        <ele>0.137451</ele>
        <time>2014-05-29T11:26:07Z</time>
      </trkpt>
      <trkpt lat="59.7865855" lon="17.6305697">
        <ele>0.137451</ele>
        <time>2014-05-29T11:26:08Z</time>
      </trkpt>
      <trkpt lat="59.7865566" lon="17.6305511">
        <ele>0.137451</ele>
        <time>2014-05-29T11:26:09Z</time>
      </trkpt>
      <trkpt lat="59.786527" lon="17.6305303">
        <ele>0.618042</ele>
        <time>2014-05-29T11:26:10Z</time>
      </trkpt>
      <trkpt lat="59.7865019" lon="17.6305157">
        <ele>0.618042</ele>
        <time>2014-05-29T11:26:11Z</time>
      </trkpt>
      <trkpt lat="59.7864804" lon="17.630496">
        <ele>1.09863</ele>
        <time>2014-05-29T11:26:12Z</time>
      </trkpt>
      <trkpt lat="59.7864679" lon="17.6304577">
        <ele>1.57935</ele>
        <time>2014-05-29T11:26:13Z</time>
      </trkpt>
      <trkpt lat="59.7864637" lon="17.6304091">
        <ele>2.06006</ele>
        <time>2014-05-29T11:26:14Z</time>
      </trkpt>
      <trkpt lat="59.7864632" lon="17.6303624">
        <ele>2.06006</ele>
        <time>2014-05-29T11:26:15Z</time>
      </trkpt>
      <trkpt lat="59.7864627" lon="17.6303215">
        <ele>2.54065</ele>
        <time>2014-05-29T11:26:16Z</time>
      </trkpt>
      <trkpt lat="59.7864651" lon="17.6302845">
        <ele>3.02124</ele>
        <time>2014-05-29T11:26:17Z</time>
      </trkpt>
      <trkpt lat="59.7864752" lon="17.6302624">
        <ele>3.02124</ele>
        <time>2014-05-29T11:26:18Z</time>
      </trkpt>
      <trkpt lat="59.7864902" lon="17.6302578">
        <ele>3.02124</ele>
        <time>2014-05-29T11:26:19Z</time>
      </trkpt>
      <trkpt lat="59.7865021" lon="17.6302747">
        <ele>3.50195</ele>
        <time>2014-05-29T11:26:20Z</time>
      </trkpt>
      <trkpt lat="59.7865029" lon="17.6303055">
        <ele>3.50195</ele>
        <time>2014-05-29T11:26:21Z</time>
      </trkpt>
      <trkpt lat="59.7864948" lon="17.6303405">
        <ele>3.98267</ele>
        <time>2014-05-29T11:26:22Z</time>
      </trkpt>
      <trkpt lat="59.7864841" lon="17.6303795">
        <ele>4.46326</ele>
        <time>2014-05-29T11:26:23Z</time>
      </trkpt>
      <trkpt lat="59.7864768" lon="17.6304273">
        <ele>4.46326</ele>
        <time>2014-05-29T11:26:24Z</time>
      </trkpt>
      <trkpt lat="59.786473" lon="17.6304839">
        <ele>4.94385</ele>
        <time>2014-05-29T11:26:25Z</time>
      </trkpt>
      <trkpt lat="59.786468" lon="17.6305453">
        <ele>4.94385</ele>
        <time>2014-05-29T11:26:26Z</time>
      </trkpt>
      <trkpt lat="59.7864628" lon="17.6306131">
        <ele>5.42456</ele>
        <time>2014-05-29T11:26:27Z</time>
      </trkpt>
      <trkpt lat="59.7864544" lon="17.6306855">
        <ele>5.42456</ele>
        <time>2014-05-29T11:26:28Z</time>
      </trkpt>
      <trkpt lat="59.7864426" lon="17.63076">
        <ele>5.90527</ele>
        <time>2014-05-29T11:26:29Z</time>
      </trkpt>
      <trkpt lat="59.7864332" lon="17.630838">
        <ele>5.90527</ele>
        <time>2014-05-29T11:26:30Z</time>
      </trkpt>
      <trkpt lat="59.7864237" lon="17.6309202">
        <ele>5.90527</ele>
        <time>2014-05-29T11:26:31Z</time>
      </trkpt>
      <trkpt lat="59.7864145" lon="17.6310061">
        <ele>6.38586</ele>
        <time>2014-05-29T11:26:32Z</time>
      </trkpt>
      <trkpt lat="59.7864055" lon="17.6310939">
        <ele>6.38586</ele>
        <time>2014-05-29T11:26:33Z</time>
      </trkpt>
      <trkpt lat="59.786398" lon="17.6311819">
        <ele>6.38586</ele>
        <time>2014-05-29T11:26:34Z</time>
      </trkpt>
      <trkpt lat="59.7863916" lon="17.6312705">
        <ele>6.86646</ele>
        <time>2014-05-29T11:26:35Z</time>
      </trkpt>
      <trkpt lat="59.786383" lon="17.6313584">
        <ele>6.86646</ele>
        <time>2014-05-29T11:26:36Z</time>
      </trkpt>
      <trkpt lat="59.7863667" lon="17.6314409">
        <ele>7.34717</ele>
        <time>2014-05-29T11:26:37Z</time>
      </trkpt>
      <trkpt lat="59.7863363" lon="17.6315041">
        <ele>7.34717</ele>
        <time>2014-05-29T11:26:38Z</time>
      </trkpt>
      <trkpt lat="59.7862937" lon="17.6315321">
        <ele>7.34717</ele>
        <time>2014-05-29T11:26:39Z</time>
      </trkpt>
      <trkpt lat="59.7862452" lon="17.6315281">
        <ele>6.86646</ele>
        <time>2014-05-29T11:26:40Z</time>
      </trkpt>
      <trkpt lat="59.7861908" lon="17.6315045">
        <ele>6.86646</ele>
        <time>2014-05-29T11:26:41Z</time>
      </trkpt>
      <trkpt lat="59.7861322" lon="17.63147">
        <ele>6.38586</ele>
        <time>2014-05-29T11:26:42Z</time>
      </trkpt>
      <trkpt lat="59.7860702" lon="17.6314218">
        <ele>5.90527</ele>
        <time>2014-05-29T11:26:43Z</time>
      </trkpt>
      <trkpt lat="59.7860054" lon="17.6313571">
        <ele>5.90527</ele>
        <time>2014-05-29T11:26:44Z</time>
      </trkpt>
      <trkpt lat="59.7859426" lon="17.6312788">
        <ele>5.42456</ele>
        <time>2014-05-29T11:26:45Z</time>
      </trkpt>
      <trkpt lat="59.7858803" lon="17.6311881">
        <ele>4.94385</ele>
        <time>2014-05-29T11:26:46Z</time>
      </trkpt>
      <trkpt lat="59.7858183" lon="17.6310865">
        <ele>4.46326</ele>
        <time>2014-05-29T11:26:47Z</time>
      </trkpt>
      <trkpt lat="59.7857576" lon="17.6309771">
        <ele>4.46326</ele>
        <time>2014-05-29T11:26:48Z</time>
      </trkpt>
      <trkpt lat="59.7856988" lon="17.6308595">
        <ele>3.98267</ele>
        <time>2014-05-29T11:26:49Z</time>
      </trkpt>
      <trkpt lat="59.7856437" lon="17.6307333">
        <ele>3.50195</ele>
        <time>2014-05-29T11:26:50Z</time>
      </trkpt>
      <trkpt lat="59.7855908" lon="17.6306012">
        <ele>3.50195</ele>
        <time>2014-05-29T11:26:51Z</time>
      </trkpt>
      <trkpt lat="59.7855396" lon="17.6304653">
        <ele>3.02124</ele>
        <time>2014-05-29T11:26:52Z</time>
      </trkpt>
      <trkpt lat="59.7854909" lon="17.6303267">
        <ele>2.54065</ele>
        <time>2014-05-29T11:26:53Z</time>
      </trkpt>
      <trkpt lat="59.7854431" lon="17.6301868">
        <ele>2.54065</ele>
        <time>2014-05-29T11:26:54Z</time>
      </trkpt>
      <trkpt lat="59.7853952" lon="17.6300475">
        <ele>2.06006</ele>
        <time>2014-05-29T11:26:55Z</time>
      </trkpt>
      <trkpt lat="59.7853469" lon="17.6299103">
        <ele>2.06006</ele>
        <time>2014-05-29T11:26:56Z</time>
      </trkpt>
      <trkpt lat="59.7852988" lon="17.6297733">
        <ele>2.06006</ele>
        <time>2014-05-29T11:26:57Z</time>
      </trkpt>
      <trkpt lat="59.7852511" lon="17.6296375">
        <ele>2.06006</ele>
        <time>2014-05-29T11:26:58Z</time>
      </trkpt>
      <trkpt lat="59.785204" lon="17.6295018">
        <ele>2.06006</ele>
        <time>2014-05-29T11:26:59Z</time>
      </trkpt>
      <trkpt lat="59.7851578" lon="17.6293651">
        <ele>2.06006</ele>
        <time>2014-05-29T11:27:00Z</time>
      </trkpt>
      <trkpt lat="59.7851128" lon="17.6292271">
        <ele>2.06006</ele>
        <time>2014-05-29T11:27:01Z</time>
      </trkpt>
      <trkpt lat="59.7850658" lon="17.6290902">
        <ele>2.06006</ele>
        <time>2014-05-29T11:27:02Z</time>
      </trkpt>
      <trkpt lat="59.7850166" lon="17.6289559">
        <ele>1.57935</ele>
        <time>2014-05-29T11:27:03Z</time>
      </trkpt>
      <trkpt lat="59.7849682" lon="17.6288222">
        <ele>1.57935</ele>
        <time>2014-05-29T11:27:04Z</time>
      </trkpt>
      <trkpt lat="59.7849216" lon="17.6286912">
        <ele>1.57935</ele>
        <time>2014-05-29T11:27:05Z</time>
      </trkpt>
      <trkpt lat="59.7848767" lon="17.6285608">
        <ele>1.57935</ele>
        <time>2014-05-29T11:27:06Z</time>
      </trkpt>
      <trkpt lat="59.7848336" lon="17.6284308">
        <ele>1.09863</ele>
        <time>2014-05-29T11:27:07Z</time>
      </trkpt>
      <trkpt lat="59.7847896" lon="17.6283053">
        <ele>1.57935</ele>
        <time>2014-05-29T11:27:08Z</time>
      </trkpt>
      <trkpt lat="59.7847453" lon="17.6281862">
        <ele>1.57935</ele>
        <time>2014-05-29T11:27:09Z</time>
      </trkpt>
      <trkpt lat="59.7847039" lon="17.6280723">
        <ele>2.06006</ele>
        <time>2014-05-29T11:27:10Z</time>
      </trkpt>
      <trkpt lat="59.7846659" lon="17.6279594">
        <ele>2.06006</ele>
        <time>2014-05-29T11:27:11Z</time>
      </trkpt>
      <trkpt lat="59.7846295" lon="17.6278505">
        <ele>2.06006</ele>
        <time>2014-05-29T11:27:12Z</time>
      </trkpt>
      <trkpt lat="59.7845939" lon="17.6277461">
        <ele>2.06006</ele>
        <time>2014-05-29T11:27:13Z</time>
      </trkpt>
      <trkpt lat="59.7845586" lon="17.6276465">
        <ele>2.54065</ele>
        <time>2014-05-29T11:27:14Z</time>
      </trkpt>
      <trkpt lat="59.7845269" lon="17.6275503">
        <ele>2.54065</ele>
        <time>2014-05-29T11:27:15Z</time>
      </trkpt>
      <trkpt lat="59.7844972" lon="17.6274559">
        <ele>3.02124</ele>
        <time>2014-05-29T11:27:16Z</time>
      </trkpt>
      <trkpt lat="59.7844664" lon="17.627363">
        <ele>3.50195</ele>
        <time>2014-05-29T11:27:17Z</time>
      </trkpt>
      <trkpt lat="59.7844348" lon="17.6272764">
        <ele>3.50195</ele>
        <time>2014-05-29T11:27:18Z</time>
      </trkpt>
      <trkpt lat="59.7844008" lon="17.627186">
        <ele>3.50195</ele>
        <time>2014-05-29T11:27:19Z</time>
      </trkpt>
      <trkpt lat="59.7843596" lon="17.62707">
        <ele>3.02124</ele>
        <time>2014-05-29T11:27:20Z</time>
      </trkpt>
      <trkpt lat="59.7843152" lon="17.6269627">
        <ele>3.50195</ele>
        <time>2014-05-29T11:27:21Z</time>
      </trkpt>
      <trkpt lat="59.7842628" lon="17.6268574">
        <ele>3.02124</ele>
        <time>2014-05-29T11:27:22Z</time>
      </trkpt>
      <trkpt lat="59.7842032" lon="17.6267559">
        <ele>3.02124</ele>
        <time>2014-05-29T11:27:23Z</time>
      </trkpt>
      <trkpt lat="59.7841374" lon="17.6266623">
        <ele>2.54065</ele>
        <time>2014-05-29T11:27:24Z</time>
      </trkpt>
      <trkpt lat="59.7840632" lon="17.6265793">
        <ele>2.06006</ele>
        <time>2014-05-29T11:27:25Z</time>
      </trkpt>
      <trkpt lat="59.7839886" lon="17.6265038">
        <ele>2.06006</ele>
        <time>2014-05-29T11:27:26Z</time>
      </trkpt>
      <trkpt lat="59.783911" lon="17.6264455">
        <ele>1.57935</ele>
        <time>2014-05-29T11:27:27Z</time>
      </trkpt>
      <trkpt lat="59.7838332" lon="17.6264048">
        <ele>1.57935</ele>
        <time>2014-05-29T11:27:28Z</time>
      </trkpt>
      <trkpt lat="59.7837551" lon="17.6263752">
        <ele>1.57935</ele>
        <time>2014-05-29T11:27:29Z</time>
      </trkpt>
      <trkpt lat="59.7836764" lon="17.6263535">
        <ele>1.57935</ele>
        <time>2014-05-29T11:27:30Z</time>
      </trkpt>
      <trkpt lat="59.7835998" lon="17.6263414">
        <ele>1.57935</ele>
        <time>2014-05-29T11:27:31Z</time>
      </trkpt>
      <trkpt lat="59.7835244" lon="17.6263256">
        <ele>1.57935</ele>
        <time>2014-05-29T11:27:32Z</time>
      </trkpt>
      <trkpt lat="59.7834519" lon="17.6263047">
        <ele>1.57935</ele>
        <time>2014-05-29T11:27:33Z</time>
      </trkpt>
      <trkpt lat="59.7833824" lon="17.6262783">
        <ele>2.06006</ele>
        <time>2014-05-29T11:27:34Z</time>
      </trkpt>
      <trkpt lat="59.7833163" lon="17.6262414">
        <ele>2.06006</ele>
        <time>2014-05-29T11:27:35Z</time>
      </trkpt>
      <trkpt lat="59.7832543" lon="17.6262028">
        <ele>2.06006</ele>
        <time>2014-05-29T11:27:36Z</time>
      </trkpt>
      <trkpt lat="59.7831946" lon="17.6261653">
        <ele>1.57935</ele>
        <time>2014-05-29T11:27:37Z</time>
      </trkpt>
      <trkpt lat="59.7831392" lon="17.6261185">
        <ele>1.57935</ele>
        <time>2014-05-29T11:27:38Z</time>
      </trkpt>
      <trkpt lat="59.7830894" lon="17.6260546">
        <ele>1.57935</ele>
        <time>2014-05-29T11:27:39Z</time>
      </trkpt>
      <trkpt lat="59.7830449" lon="17.6260076">
        <ele>1.57935</ele>
        <time>2014-05-29T11:27:40Z</time>
      </trkpt>
      <trkpt lat="59.7830044" lon="17.6259499">
        <ele>1.57935</ele>
        <time>2014-05-29T11:27:41Z</time>
      </trkpt>
      <trkpt lat="59.7829734" lon="17.6258809">
        <ele>1.57935</ele>
        <time>2014-05-29T11:27:42Z</time>
      </trkpt>
      <trkpt lat="59.782947" lon="17.625812">
        <ele>1.57935</ele>
        <time>2014-05-29T11:27:43Z</time>
      </trkpt>
      <trkpt lat="59.7829226" lon="17.6257526">
        <ele>1.57935</ele>
        <time>2014-05-29T11:27:44Z</time>
      </trkpt>
      <trkpt lat="59.7829038" lon="17.6257014">
        <ele>1.57935</ele>
        <time>2014-05-29T11:27:45Z</time>
      </trkpt>
      <trkpt lat="59.7828921" lon="17.6256528">
        <ele>1.57935</ele>
        <time>2014-05-29T11:27:46Z</time>
      </trkpt>
      <trkpt lat="59.7828847" lon="17.6256076">
        <ele>1.57935</ele>
        <time>2014-05-29T11:27:47Z</time>
      </trkpt>
      <trkpt lat="59.7828708" lon="17.6255708">
        <ele>1.57935</ele>
        <time>2014-05-29T11:27:48Z</time>
      </trkpt>
      <trkpt lat="59.7828489" lon="17.6255416">
        <ele>2.06006</ele>
        <time>2014-05-29T11:27:49Z</time>
      </trkpt>
      <trkpt lat="59.7828253" lon="17.6255219">
        <ele>2.06006</ele>
        <time>2014-05-29T11:27:50Z</time>
      </trkpt>
      <trkpt lat="59.782804" lon="17.6255102">
        <ele>2.06006</ele>
        <time>2014-05-29T11:27:51Z</time>
      </trkpt>
      <trkpt lat="59.7827842" lon="17.6255041">
        <ele>2.06006</ele>
        <time>2014-05-29T11:27:52Z</time>
      </trkpt>
      <trkpt lat="59.7827657" lon="17.6254999">
        <ele>2.54065</ele>
        <time>2014-05-29T11:27:53Z</time>
      </trkpt>
      <trkpt lat="59.7827485" lon="17.6255067">
        <ele>2.54065</ele>
        <time>2014-05-29T11:27:54Z</time>
      </trkpt>
      <trkpt lat="59.7827331" lon="17.6255175">
        <ele>2.54065</ele>
        <time>2014-05-29T11:27:55Z</time>
      </trkpt>
      <trkpt lat="59.7827165" lon="17.6255237">
        <ele>2.54065</ele>
        <time>2014-05-29T11:27:56Z</time>
      </trkpt>
      <trkpt lat="59.7826927" lon="17.6255307">
        <ele>2.06006</ele>
        <time>2014-05-29T11:27:57Z</time>
      </trkpt>
      <trkpt lat="59.7826627" lon="17.6255438">
        <ele>2.06006</ele>
        <time>2014-05-29T11:27:58Z</time>
      </trkpt>
      <trkpt lat="59.7826282" lon="17.6255723">
        <ele>2.06006</ele>
        <time>2014-05-29T11:27:59Z</time>
      </trkpt>
      <trkpt lat="59.7825967" lon="17.6256129">
        <ele>2.06006</ele>
        <time>2014-05-29T11:28:00Z</time>
      </trkpt>
      <trkpt lat="59.7825676" lon="17.6256604">
        <ele>2.06006</ele>
        <time>2014-05-29T11:28:01Z</time>
      </trkpt>
      <trkpt lat="59.7825391" lon="17.6257082">
        <ele>2.06006</ele>
        <time>2014-05-29T11:28:02Z</time>
      </trkpt>
      <trkpt lat="59.7825111" lon="17.6257569">
        <ele>2.06006</ele>
        <time>2014-05-29T11:28:03Z</time>
      </trkpt>
      <trkpt lat="59.7824897" lon="17.625811">
        <ele>2.06006</ele>
        <time>2014-05-29T11:28:04Z</time>
      </trkpt>
      <trkpt lat="59.7824684" lon="17.6258696">
        <ele>2.54065</ele>
        <time>2014-05-29T11:28:05Z</time>
      </trkpt>
      <trkpt lat="59.7824474" lon="17.6259281">
        <ele>3.02124</ele>
        <time>2014-05-29T11:28:06Z</time>
      </trkpt>
      <trkpt lat="59.7824275" lon="17.6259847">
        <ele>3.02124</ele>
        <time>2014-05-29T11:28:07Z</time>
      </trkpt>
      <trkpt lat="59.7824093" lon="17.626039">
        <ele>2.54065</ele>
        <time>2014-05-29T11:28:08Z</time>
      </trkpt>
      <trkpt lat="59.7823897" lon="17.6260951">
        <ele>2.54065</ele>
        <time>2014-05-29T11:28:09Z</time>
      </trkpt>
      <trkpt lat="59.782372" lon="17.6261557">
        <ele>2.54065</ele>
        <time>2014-05-29T11:28:10Z</time>
      </trkpt>
      <trkpt lat="59.7823557" lon="17.6262205">
        <ele>2.06006</ele>
        <time>2014-05-29T11:28:11Z</time>
      </trkpt>
      <trkpt lat="59.7823433" lon="17.6262827">
        <ele>2.06006</ele>
        <time>2014-05-29T11:28:12Z</time>
      </trkpt>
      <trkpt lat="59.7823358" lon="17.6263375">
        <ele>2.06006</ele>
        <time>2014-05-29T11:28:13Z</time>
      </trkpt>
      <trkpt lat="59.7823304" lon="17.6263872">
        <ele>2.06006</ele>
        <time>2014-05-29T11:28:14Z</time>
      </trkpt>
      <trkpt lat="59.7823236" lon="17.6264344">
        <ele>2.06006</ele>
        <time>2014-05-29T11:28:15Z</time>
      </trkpt>
      <trkpt lat="59.7823171" lon="17.6264882">
        <ele>2.06006</ele>
        <time>2014-05-29T11:28:16Z</time>
      </trkpt>
      <trkpt lat="59.7823089" lon="17.6265514">
        <ele>2.06006</ele>
        <time>2014-05-29T11:28:17Z</time>
      </trkpt>
      <trkpt lat="59.7823001" lon="17.6266177">
        <ele>1.57935</ele>
        <time>2014-05-29T11:28:18Z</time>
      </trkpt>
      <trkpt lat="59.7822922" lon="17.626688">
        <ele>1.57935</ele>
        <time>2014-05-29T11:28:19Z</time>
      </trkpt>
      <trkpt lat="59.7822947" lon="17.6267529">
        <ele>1.57935</ele>
        <time>2014-05-29T11:28:20Z</time>
      </trkpt>
      <trkpt lat="59.7823043" lon="17.6268053">
        <ele>1.57935</ele>
        <time>2014-05-29T11:28:21Z</time>
      </trkpt>
      <trkpt lat="59.7823164" lon="17.6268508">
        <ele>1.57935</ele>
        <time>2014-05-29T11:28:22Z</time>
      </trkpt>
      <trkpt lat="59.7823269" lon="17.6268965">
        <ele>1.09863</ele>
        <time>2014-05-29T11:28:23Z</time>
      </trkpt>
      <trkpt lat="59.782342" lon="17.6269414">
        <ele>1.09863</ele>
        <time>2014-05-29T11:28:24Z</time>
      </trkpt>
      <trkpt lat="59.7823664" lon="17.6269884">
        <ele>0.618042</ele>
        <time>2014-05-29T11:28:25Z</time>
      </trkpt>
      <trkpt lat="59.7823993" lon="17.6270276">
        <ele>0.137451</ele>
        <time>2014-05-29T11:28:26Z</time>
      </trkpt>
      <trkpt lat="59.7824321" lon="17.6270378">
        <ele>0</ele>
        <time>2014-05-29T11:28:27Z</time>
      </trkpt>
      <trkpt lat="59.7824659" lon="17.6270247">
        <ele>0</ele>
        <time>2014-05-29T11:28:28Z</time>
      </trkpt>
      <trkpt lat="59.7825014" lon="17.6269995">
        <ele>0</ele>
        <time>2014-05-29T11:28:29Z</time>
      </trkpt>
      <trkpt lat="59.7825356" lon="17.6269685">
        <ele>0</ele>
        <time>2014-05-29T11:28:30Z</time>
      </trkpt>
      <trkpt lat="59.7825715" lon="17.6269332">
        <ele>0</ele>
        <time>2014-05-29T11:28:31Z</time>
      </trkpt>
      <trkpt lat="59.7826077" lon="17.6268928">
        <ele>0</ele>
        <time>2014-05-29T11:28:32Z</time>
      </trkpt>
      <trkpt lat="59.7826476" lon="17.6268518">
        <ele>0</ele>
        <time>2014-05-29T11:28:33Z</time>
      </trkpt>
      <trkpt lat="59.7826885" lon="17.6268114">
        <ele>0</ele>
        <time>2014-05-29T11:28:34Z</time>
      </trkpt>
      <trkpt lat="59.7827285" lon="17.626773">
        <ele>0</ele>
        <time>2014-05-29T11:28:35Z</time>
      </trkpt>
      <trkpt lat="59.7827679" lon="17.6267401">
        <ele>0</ele>
        <time>2014-05-29T11:28:36Z</time>
      </trkpt>
      <trkpt lat="59.7828082" lon="17.626719">
        <ele>0</ele>
        <time>2014-05-29T11:28:37Z</time>
      </trkpt>
      <trkpt lat="59.7828501" lon="17.6267063">
        <ele>0</ele>
        <time>2014-05-29T11:28:38Z</time>
      </trkpt>
      <trkpt lat="59.7828937" lon="17.6266943">
        <ele>0</ele>
        <time>2014-05-29T11:28:39Z</time>
      </trkpt>
      <trkpt lat="59.7829398" lon="17.626682">
        <ele>0</ele>
        <time>2014-05-29T11:28:40Z</time>
      </trkpt>
      <trkpt lat="59.7829883" lon="17.6266726">
        <ele>0</ele>
        <time>2014-05-29T11:28:41Z</time>
      </trkpt>
      <trkpt lat="59.7830386" lon="17.6266655">
        <ele>0</ele>
        <time>2014-05-29T11:28:42Z</time>
      </trkpt>
      <trkpt lat="59.7830926" lon="17.6266596">
        <ele>0</ele>
        <time>2014-05-29T11:28:43Z</time>
      </trkpt>
      <trkpt lat="59.7831481" lon="17.6266553">
        <ele>0</ele>
        <time>2014-05-29T11:28:44Z</time>
      </trkpt>
      <trkpt lat="59.7832076" lon="17.6266551">
        <ele>0</ele>
        <time>2014-05-29T11:28:45Z</time>
      </trkpt>
      <trkpt lat="59.7832665" lon="17.6266546">
        <ele>0</ele>
        <time>2014-05-29T11:28:46Z</time>
      </trkpt>
      <trkpt lat="59.7833229" lon="17.6266527">
        <ele>0</ele>
        <time>2014-05-29T11:28:47Z</time>
      </trkpt>
      <trkpt lat="59.7833775" lon="17.6266535">
        <ele>0</ele>
        <time>2014-05-29T11:28:48Z</time>
      </trkpt>
      <trkpt lat="59.7834308" lon="17.6266581">
        <ele>0</ele>
        <time>2014-05-29T11:28:49Z</time>
      </trkpt>
      <trkpt lat="59.7834831" lon="17.62667">
        <ele>0</ele>
        <time>2014-05-29T11:28:50Z</time>
      </trkpt>
      <trkpt lat="59.7835329" lon="17.6266839">
        <ele>0</ele>
        <time>2014-05-29T11:28:51Z</time>
      </trkpt>
      <trkpt lat="59.78358" lon="17.626683">
        <ele>0</ele>
        <time>2014-05-29T11:28:52Z</time>
      </trkpt>
      <trkpt lat="59.7836252" lon="17.6266742">
        <ele>0</ele>
        <time>2014-05-29T11:28:53Z</time>
      </trkpt>
      <trkpt lat="59.7836712" lon="17.6266737">
        <ele>0</ele>
        <time>2014-05-29T11:28:54Z</time>
      </trkpt>
      <trkpt lat="59.7837183" lon="17.6266779">
        <ele>0</ele>
        <time>2014-05-29T11:28:55Z</time>
      </trkpt>
      <trkpt lat="59.7837663" lon="17.6266809">
        <ele>0.137451</ele>
        <time>2014-05-29T11:28:56Z</time>
      </trkpt>
      <trkpt lat="59.7838143" lon="17.6266777">
        <ele>0.137451</ele>
        <time>2014-05-29T11:28:57Z</time>
      </trkpt>
      <trkpt lat="59.7838634" lon="17.6266695">
        <ele>0</ele>
        <time>2014-05-29T11:28:58Z</time>
      </trkpt>
      <trkpt lat="59.7839151" lon="17.6266693">
        <ele>0</ele>
        <time>2014-05-29T11:28:59Z</time>
      </trkpt>
      <trkpt lat="59.7839683" lon="17.6266877">
        <ele>0</ele>
        <time>2014-05-29T11:29:00Z</time>
      </trkpt>
      <trkpt lat="59.7840191" lon="17.6267255">
        <ele>0</ele>
        <time>2014-05-29T11:29:01Z</time>
      </trkpt>
      <trkpt lat="59.7840669" lon="17.6267768">
        <ele>0</ele>
        <time>2014-05-29T11:29:02Z</time>
      </trkpt>
      <trkpt lat="59.7841119" lon="17.6268348">
        <ele>0</ele>
        <time>2014-05-29T11:29:03Z</time>
      </trkpt>
      <trkpt lat="59.7841534" lon="17.6268964">
        <ele>0.137451</ele>
        <time>2014-05-29T11:29:04Z</time>
      </trkpt>
      <trkpt lat="59.7841913" lon="17.6269594">
        <ele>0.137451</ele>
        <time>2014-05-29T11:29:05Z</time>
      </trkpt>
      <trkpt lat="59.7842265" lon="17.6270264">
        <ele>0.618042</ele>
        <time>2014-05-29T11:29:06Z</time>
      </trkpt>
      <trkpt lat="59.7842597" lon="17.6270973">
        <ele>1.09863</ele>
        <time>2014-05-29T11:29:07Z</time>
      </trkpt>
      <trkpt lat="59.7842917" lon="17.6271678">
        <ele>1.09863</ele>
        <time>2014-05-29T11:29:08Z</time>
      </trkpt>
      <trkpt lat="59.7843227" lon="17.6272374">
        <ele>1.57935</ele>
        <time>2014-05-29T11:29:09Z</time>
      </trkpt>
      <trkpt lat="59.7843521" lon="17.6273072">
        <ele>1.57935</ele>
        <time>2014-05-29T11:29:10Z</time>
      </trkpt>
      <trkpt lat="59.7843798" lon="17.6273803">
        <ele>2.06006</ele>
        <time>2014-05-29T11:29:11Z</time>
      </trkpt>
      <trkpt lat="59.7844068" lon="17.627457">
        <ele>2.54065</ele>
        <time>2014-05-29T11:29:12Z</time>
      </trkpt>
      <trkpt lat="59.7844332" lon="17.6275325">
        <ele>2.54065</ele>
        <time>2014-05-29T11:29:13Z</time>
      </trkpt>
      <trkpt lat="59.7844605" lon="17.6276076">
        <ele>3.02124</ele>
        <time>2014-05-29T11:29:14Z</time>
      </trkpt>
      <trkpt lat="59.7844885" lon="17.6276833">
        <ele>3.50195</ele>
        <time>2014-05-29T11:29:15Z</time>
      </trkpt>
      <trkpt lat="59.7845171" lon="17.6277598">
        <ele>3.50195</ele>
        <time>2014-05-29T11:29:16Z</time>
      </trkpt>
      <trkpt lat="59.7845451" lon="17.6278392">
        <ele>3.98267</ele>
        <time>2014-05-29T11:29:17Z</time>
      </trkpt>
      <trkpt lat="59.7845719" lon="17.6279168">
        <ele>3.98267</ele>
        <time>2014-05-29T11:29:18Z</time>
      </trkpt>
      <trkpt lat="59.7845968" lon="17.6279942">
        <ele>3.98267</ele>
        <time>2014-05-29T11:29:19Z</time>
      </trkpt>
      <trkpt lat="59.7846175" lon="17.6280775">
        <ele>3.98267</ele>
        <time>2014-05-29T11:29:20Z</time>
      </trkpt>
      <trkpt lat="59.784633" lon="17.6281656">
        <ele>4.46326</ele>
        <time>2014-05-29T11:29:21Z</time>
      </trkpt>
      <trkpt lat="59.7846405" lon="17.6282546">
        <ele>4.46326</ele>
        <time>2014-05-29T11:29:22Z</time>
      </trkpt>
      <trkpt lat="59.7846373" lon="17.6283418">
        <ele>4.46326</ele>
        <time>2014-05-29T11:29:23Z</time>
      </trkpt>
      <trkpt lat="59.7846216" lon="17.6284228">
        <ele>3.98267</ele>
        <time>2014-05-29T11:29:24Z</time>
      </trkpt>
      <trkpt lat="59.7846134" lon="17.6285054">
        <ele>3.50195</ele>
        <time>2014-05-29T11:29:25Z</time>
      </trkpt>
      <trkpt lat="59.784603" lon="17.6285873">
        <ele>3.50195</ele>
        <time>2014-05-29T11:29:26Z</time>
      </trkpt>
      <trkpt lat="59.7845906" lon="17.6286678">
        <ele>3.50195</ele>
        <time>2014-05-29T11:29:27Z</time>
      </trkpt>
      <trkpt lat="59.7845824" lon="17.6287473">
        <ele>3.50195</ele>
        <time>2014-05-29T11:29:28Z</time>
      </trkpt>
      <trkpt lat="59.7845756" lon="17.6288242">
        <ele>3.50195</ele>
        <time>2014-05-29T11:29:29Z</time>
      </trkpt>
      <trkpt lat="59.7845658" lon="17.6288954">
        <ele>3.50195</ele>
        <time>2014-05-29T11:29:30Z</time>
      </trkpt>
      <trkpt lat="59.7845568" lon="17.6289633">
        <ele>3.50195</ele>
        <time>2014-05-29T11:29:31Z</time>
      </trkpt>
      <trkpt lat="59.7845524" lon="17.629028">
        <ele>3.50195</ele>
        <time>2014-05-29T11:29:32Z</time>
      </trkpt>
      <trkpt lat="59.7845557" lon="17.629085">
        <ele>3.50195</ele>
        <time>2014-05-29T11:29:33Z</time>
      </trkpt>
      <trkpt lat="59.7845643" lon="17.6291399">
        <ele>3.98267</ele>
        <time>2014-05-29T11:29:34Z</time>
      </trkpt>
      <trkpt lat="59.7845684" lon="17.6291991">
        <ele>4.46326</ele>
        <time>2014-05-29T11:29:35Z</time>
      </trkpt>
      <trkpt lat="59.7845601" lon="17.6292554">
        <ele>4.46326</ele>
        <time>2014-05-29T11:29:36Z</time>
      </trkpt>
      <trkpt lat="59.7845393" lon="17.6293003">
        <ele>3.98267</ele>
        <time>2014-05-29T11:29:37Z</time>
      </trkpt>
      <trkpt lat="59.7845156" lon="17.6293341">
        <ele>4.46326</ele>
        <time>2014-05-29T11:29:38Z</time>
      </trkpt>
      <trkpt lat="59.784492" lon="17.6293678">
        <ele>4.46326</ele>
        <time>2014-05-29T11:29:39Z</time>
      </trkpt>
      <trkpt lat="59.7844597" lon="17.6294124">
        <ele>3.98267</ele>
        <time>2014-05-29T11:29:40Z</time>
      </trkpt>
      <trkpt lat="59.7844185" lon="17.629462">
        <ele>3.50195</ele>
        <time>2014-05-29T11:29:41Z</time>
      </trkpt>
      <trkpt lat="59.7843737" lon="17.6295092">
        <ele>3.50195</ele>
        <time>2014-05-29T11:29:42Z</time>
      </trkpt>
      <trkpt lat="59.7843284" lon="17.6295517">
        <ele>3.50195</ele>
        <time>2014-05-29T11:29:43Z</time>
      </trkpt>
      <trkpt lat="59.7842831" lon="17.6295786">
        <ele>3.02124</ele>
        <time>2014-05-29T11:29:44Z</time>
      </trkpt>
      <trkpt lat="59.7842375" lon="17.6296067">
        <ele>3.02124</ele>
        <time>2014-05-29T11:29:45Z</time>
      </trkpt>
      <trkpt lat="59.784194" lon="17.6296528">
        <ele>3.02124</ele>
        <time>2014-05-29T11:29:46Z</time>
      </trkpt>
      <trkpt lat="59.784156" lon="17.6297067">
        <ele>2.54065</ele>
        <time>2014-05-29T11:29:47Z</time>
      </trkpt>
      <trkpt lat="59.7841255" lon="17.6297574">
        <ele>2.54065</ele>
        <time>2014-05-29T11:29:48Z</time>
      </trkpt>
      <trkpt lat="59.784102" lon="17.629801">
        <ele>2.54065</ele>
        <time>2014-05-29T11:29:49Z</time>
      </trkpt>
      <trkpt lat="59.7840774" lon="17.6298504">
        <ele>2.54065</ele>
        <time>2014-05-29T11:29:50Z</time>
      </trkpt>
      <trkpt lat="59.7840498" lon="17.6299058">
        <ele>3.02124</ele>
        <time>2014-05-29T11:29:51Z</time>
      </trkpt>
      <trkpt lat="59.7840175" lon="17.6299706">
        <ele>3.02124</ele>
        <time>2014-05-29T11:29:52Z</time>
      </trkpt>
      <trkpt lat="59.7839904" lon="17.6300323">
        <ele>3.02124</ele>
        <time>2014-05-29T11:29:53Z</time>
      </trkpt>
      <trkpt lat="59.7839657" lon="17.630092">
        <ele>3.02124</ele>
        <time>2014-05-29T11:29:54Z</time>
      </trkpt>
      <trkpt lat="59.7839427" lon="17.6301423">
        <ele>2.54065</ele>
        <time>2014-05-29T11:29:55Z</time>
      </trkpt>
      <trkpt lat="59.7839152" lon="17.6301848">
        <ele>2.54065</ele>
        <time>2014-05-29T11:29:56Z</time>
      </trkpt>
      <trkpt lat="59.7838873" lon="17.6302199">
        <ele>2.06006</ele>
        <time>2014-05-29T11:29:57Z</time>
      </trkpt>
      <trkpt lat="59.7838567" lon="17.6302576">
        <ele>2.06006</ele>
        <time>2014-05-29T11:29:58Z</time>
      </trkpt>
      <trkpt lat="59.7838209" lon="17.630325">
        <ele>1.57935</ele>
        <time>2014-05-29T11:29:59Z</time>
      </trkpt>
      <trkpt lat="59.7837779" lon="17.6304127">
        <ele>1.09863</ele>
        <time>2014-05-29T11:30:00Z</time>
      </trkpt>
      <trkpt lat="59.7837343" lon="17.6304834">
        <ele>0.618042</ele>
        <time>2014-05-29T11:30:01Z</time>
      </trkpt>
      <trkpt lat="59.7836899" lon="17.6305375">
        <ele>0.137451</ele>
        <time>2014-05-29T11:30:02Z</time>
      </trkpt>
      <trkpt lat="59.7836326" lon="17.6306081">
        <ele>0.137451</ele>
        <time>2014-05-29T11:30:03Z</time>
      </trkpt>
      <trkpt lat="59.7835731" lon="17.6306943">
        <ele>0.137451</ele>
        <time>2014-05-29T11:30:04Z</time>
      </trkpt>
      <trkpt lat="59.783525" lon="17.630771">
        <ele>0</ele>
        <time>2014-05-29T11:30:05Z</time>
      </trkpt>
      <trkpt lat="59.7834788" lon="17.630853">
        <ele>0</ele>
        <time>2014-05-29T11:30:06Z</time>
      </trkpt>
      <trkpt lat="59.7834461" lon="17.6309394">
        <ele>0</ele>
        <time>2014-05-29T11:30:07Z</time>
      </trkpt>
      <trkpt lat="59.7834256" lon="17.6310042">
        <ele>0</ele>
        <time>2014-05-29T11:30:08Z</time>
      </trkpt>
      <trkpt lat="59.7833852" lon="17.6310776">
        <ele>0</ele>
        <time>2014-05-29T11:30:09Z</time>
      </trkpt>
      <trkpt lat="59.7833394" lon="17.6311359">
        <ele>0</ele>
        <time>2014-05-29T11:30:10Z</time>
      </trkpt>
      <trkpt lat="59.7833012" lon="17.6312024">
        <ele>0</ele>
        <time>2014-05-29T11:30:11Z</time>
      </trkpt>
      <trkpt lat="59.7832734" lon="17.6312494">
        <ele>0</ele>
        <time>2014-05-29T11:30:12Z</time>
      </trkpt>
      <trkpt lat="59.7832475" lon="17.6313162">
        <ele>0</ele>
        <time>2014-05-29T11:30:13Z</time>
      </trkpt>
      <trkpt lat="59.7832239" lon="17.6313725">
        <ele>0</ele>
        <time>2014-05-29T11:30:14Z</time>
      </trkpt>
      <trkpt lat="59.783192" lon="17.6314212">
        <ele>0</ele>
        <time>2014-05-29T11:30:15Z</time>
      </trkpt>
      <trkpt lat="59.7831599" lon="17.631464">
        <ele>0</ele>
        <time>2014-05-29T11:30:16Z</time>
      </trkpt>
      <trkpt lat="59.783133" lon="17.6315004">
        <ele>0</ele>
        <time>2014-05-29T11:30:17Z</time>
      </trkpt>
      <trkpt lat="59.7830999" lon="17.6315268">
        <ele>0</ele>
        <time>2014-05-29T11:30:18Z</time>
      </trkpt>
      <trkpt lat="59.7830594" lon="17.6315394">
        <ele>0</ele>
        <time>2014-05-29T11:30:19Z</time>
      </trkpt>
      <trkpt lat="59.7830164" lon="17.6315254">
        <ele>0</ele>
        <time>2014-05-29T11:30:20Z</time>
      </trkpt>
      <trkpt lat="59.7829723" lon="17.6315027">
        <ele>0</ele>
        <time>2014-05-29T11:30:21Z</time>
      </trkpt>
      <trkpt lat="59.7829236" lon="17.6314855">
        <ele>0</ele>
        <time>2014-05-29T11:30:22Z</time>
      </trkpt>
      <trkpt lat="59.7828812" lon="17.6314793">
        <ele>0</ele>
        <time>2014-05-29T11:30:23Z</time>
      </trkpt>
      <trkpt lat="59.7828339" lon="17.6314838">
        <ele>0</ele>
        <time>2014-05-29T11:30:24Z</time>
      </trkpt>
      <trkpt lat="59.7827862" lon="17.6315032">
        <ele>0</ele>
        <time>2014-05-29T11:30:25Z</time>
      </trkpt>
      <trkpt lat="59.7827381" lon="17.6315272">
        <ele>0.137451</ele>
        <time>2014-05-29T11:30:26Z</time>
      </trkpt>
      <trkpt lat="59.7826864" lon="17.6315594">
        <ele>0.137451</ele>
        <time>2014-05-29T11:30:27Z</time>
      </trkpt>
      <trkpt lat="59.7826347" lon="17.6315963">
        <ele>0.618042</ele>
        <time>2014-05-29T11:30:28Z</time>
      </trkpt>
      <trkpt lat="59.7825868" lon="17.6316477">
        <ele>0.618042</ele>
        <time>2014-05-29T11:30:29Z</time>
      </trkpt>
      <trkpt lat="59.7825414" lon="17.6317066">
        <ele>1.09863</ele>
        <time>2014-05-29T11:30:30Z</time>
      </trkpt>
      <trkpt lat="59.7824989" lon="17.6317702">
        <ele>1.09863</ele>
        <time>2014-05-29T11:30:31Z</time>
      </trkpt>
      <trkpt lat="59.7824571" lon="17.631831">
        <ele>1.57935</ele>
        <time>2014-05-29T11:30:32Z</time>
      </trkpt>
      <trkpt lat="59.7824212" lon="17.6318956">
        <ele>1.09863</ele>
        <time>2014-05-29T11:30:33Z</time>
      </trkpt>
      <trkpt lat="59.7823958" lon="17.6319558">
        <ele>1.09863</ele>
        <time>2014-05-29T11:30:34Z</time>
      </trkpt>
      <trkpt lat="59.782374" lon="17.6320139">
        <ele>0.618042</ele>
        <time>2014-05-29T11:30:35Z</time>
      </trkpt>
      <trkpt lat="59.7823518" lon="17.6320727">
        <ele>0.137451</ele>
        <time>2014-05-29T11:30:36Z</time>
      </trkpt>
      <trkpt lat="59.7823299" lon="17.6321308">
        <ele>0.137451</ele>
        <time>2014-05-29T11:30:37Z</time>
      </trkpt>
      <trkpt lat="59.7823063" lon="17.6321817">
        <ele>0</ele>
        <time>2014-05-29T11:30:38Z</time>
      </trkpt>
      <trkpt lat="59.7822788" lon="17.6322274">
        <ele>0</ele>
        <time>2014-05-29T11:30:39Z</time>
      </trkpt>
      <trkpt lat="59.7822509" lon="17.6322647">
        <ele>0</ele>
        <time>2014-05-29T11:30:40Z</time>
      </trkpt>
      <trkpt lat="59.7822177" lon="17.6322951">
        <ele>0</ele>
        <time>2014-05-29T11:30:41Z</time>
      </trkpt>
      <trkpt lat="59.7821788" lon="17.6323174">
        <ele>0</ele>
        <time>2014-05-29T11:30:42Z</time>
      </trkpt>
      <trkpt lat="59.7821403" lon="17.6323329">
        <ele>0</ele>
        <time>2014-05-29T11:30:43Z</time>
      </trkpt>
      <trkpt lat="59.7821033" lon="17.632348">
        <ele>0</ele>
        <time>2014-05-29T11:30:44Z</time>
      </trkpt>
      <trkpt lat="59.7820689" lon="17.6323654">
        <ele>0</ele>
        <time>2014-05-29T11:30:45Z</time>
      </trkpt>
      <trkpt lat="59.7820352" lon="17.6323825">
        <ele>0</ele>
        <time>2014-05-29T11:30:46Z</time>
      </trkpt>
      <trkpt lat="59.782002" lon="17.6323915">
        <ele>0.137451</ele>
        <time>2014-05-29T11:30:47Z</time>
      </trkpt>
      <trkpt lat="59.7819787" lon="17.6323966">
        <ele>0.618042</ele>
        <time>2014-05-29T11:30:48Z</time>
      </trkpt>
      <trkpt lat="59.7819649" lon="17.6324034">
        <ele>0.618042</ele>
        <time>2014-05-29T11:30:49Z</time>
      </trkpt>
      <trkpt lat="59.7819584" lon="17.6324069">
        <ele>1.09863</ele>
        <time>2014-05-29T11:30:50Z</time>
      </trkpt>
      <trkpt lat="59.781955" lon="17.6324086">
        <ele>1.09863</ele>
        <time>2014-05-29T11:30:51Z</time>
      </trkpt>
      <trkpt lat="59.7819536" lon="17.6324096">
        <ele>1.09863</ele>
        <time>2014-05-29T11:30:52Z</time>
      </trkpt>
      <trkpt lat="59.7820067" lon="17.6324309">
        <ele>3.98267</ele>
        <time>2014-05-29T11:31:18Z</time>
      </trkpt>
      <trkpt lat="59.7820301" lon="17.632418">
        <ele>3.50195</ele>
        <time>2014-05-29T11:31:19Z</time>
      </trkpt>
      <trkpt lat="59.7820566" lon="17.6324035">
        <ele>3.50195</ele>
        <time>2014-05-29T11:31:20Z</time>
      </trkpt>
      <trkpt lat="59.7820862" lon="17.6323918">
        <ele>3.50195</ele>
        <time>2014-05-29T11:31:21Z</time>
      </trkpt>
      <trkpt lat="59.7821166" lon="17.6323805">
        <ele>3.50195</ele>
        <time>2014-05-29T11:31:22Z</time>
      </trkpt>
      <trkpt lat="59.7821446" lon="17.6323659">
        <ele>3.50195</ele>
        <time>2014-05-29T11:31:23Z</time>
      </trkpt>
      <trkpt lat="59.7821721" lon="17.6323423">
        <ele>3.50195</ele>
        <time>2014-05-29T11:31:24Z</time>
      </trkpt>
      <trkpt lat="59.7822007" lon="17.6323156">
        <ele>3.98267</ele>
        <time>2014-05-29T11:31:25Z</time>
      </trkpt>
      <trkpt lat="59.782229" lon="17.6322847">
        <ele>3.98267</ele>
        <time>2014-05-29T11:31:26Z</time>
      </trkpt>
      <trkpt lat="59.7822519" lon="17.6322417">
        <ele>3.98267</ele>
        <time>2014-05-29T11:31:27Z</time>
      </trkpt>
      <trkpt lat="59.7822721" lon="17.632191">
        <ele>3.98267</ele>
        <time>2014-05-29T11:31:28Z</time>
      </trkpt>
      <trkpt lat="59.7822943" lon="17.6321421">
        <ele>3.98267</ele>
        <time>2014-05-29T11:31:29Z</time>
      </trkpt>
      <trkpt lat="59.782313" lon="17.632091">
        <ele>3.50195</ele>
        <time>2014-05-29T11:31:30Z</time>
      </trkpt>
      <trkpt lat="59.7823315" lon="17.6320403">
        <ele>3.50195</ele>
        <time>2014-05-29T11:31:31Z</time>
      </trkpt>
      <trkpt lat="59.7823518" lon="17.6319945">
        <ele>3.50195</ele>
        <time>2014-05-29T11:31:32Z</time>
      </trkpt>
      <trkpt lat="59.7823739" lon="17.6319549">
        <ele>3.50195</ele>
        <time>2014-05-29T11:31:33Z</time>
      </trkpt>
      <trkpt lat="59.7823956" lon="17.6319178">
        <ele>3.50195</ele>
        <time>2014-05-29T11:31:34Z</time>
      </trkpt>
      <trkpt lat="59.7824176" lon="17.631876">
        <ele>3.50195</ele>
        <time>2014-05-29T11:31:35Z</time>
      </trkpt>
      <trkpt lat="59.7824425" lon="17.6318314">
        <ele>3.50195</ele>
        <time>2014-05-29T11:31:36Z</time>
      </trkpt>
      <trkpt lat="59.7824705" lon="17.6317845">
        <ele>3.50195</ele>
        <time>2014-05-29T11:31:37Z</time>
      </trkpt>
      <trkpt lat="59.7825015" lon="17.6317437">
        <ele>3.50195</ele>
        <time>2014-05-29T11:31:38Z</time>
      </trkpt>
      <trkpt lat="59.7825356" lon="17.6317092">
        <ele>3.50195</ele>
        <time>2014-05-29T11:31:39Z</time>
      </trkpt>
      <trkpt lat="59.7825723" lon="17.6316795">
        <ele>3.02124</ele>
        <time>2014-05-29T11:31:40Z</time>
      </trkpt>
      <trkpt lat="59.782613" lon="17.6316513">
        <ele>3.50195</ele>
        <time>2014-05-29T11:31:41Z</time>
      </trkpt>
      <trkpt lat="59.7826563" lon="17.6316274">
        <ele>3.98267</ele>
        <time>2014-05-29T11:31:42Z</time>
      </trkpt>
      <trkpt lat="59.7827029" lon="17.6316015">
        <ele>4.94385</ele>
        <time>2014-05-29T11:31:43Z</time>
      </trkpt>
      <trkpt lat="59.7827482" lon="17.6315725">
        <ele>4.94385</ele>
        <time>2014-05-29T11:31:44Z</time>
      </trkpt>
      <trkpt lat="59.7827915" lon="17.6315547">
        <ele>4.94385</ele>
        <time>2014-05-29T11:31:45Z</time>
      </trkpt>
      <trkpt lat="59.7828319" lon="17.631557">
        <ele>4.46326</ele>
        <time>2014-05-29T11:31:46Z</time>
      </trkpt>
      <trkpt lat="59.7828764" lon="17.6315728">
        <ele>4.46326</ele>
        <time>2014-05-29T11:31:47Z</time>
      </trkpt>
      <trkpt lat="59.7829219" lon="17.6315989">
        <ele>4.46326</ele>
        <time>2014-05-29T11:31:48Z</time>
      </trkpt>
      <trkpt lat="59.7829682" lon="17.6316309">
        <ele>3.98267</ele>
        <time>2014-05-29T11:31:49Z</time>
      </trkpt>
      <trkpt lat="59.7830158" lon="17.6316647">
        <ele>3.98267</ele>
        <time>2014-05-29T11:31:50Z</time>
      </trkpt>
      <trkpt lat="59.7830613" lon="17.6317065">
        <ele>3.98267</ele>
        <time>2014-05-29T11:31:51Z</time>
      </trkpt>
      <trkpt lat="59.7830975" lon="17.6317643">
        <ele>3.50195</ele>
        <time>2014-05-29T11:31:52Z</time>
      </trkpt>
      <trkpt lat="59.7831265" lon="17.6318413">
        <ele>3.02124</ele>
        <time>2014-05-29T11:31:53Z</time>
      </trkpt>
      <trkpt lat="59.7831485" lon="17.631923">
        <ele>3.02124</ele>
        <time>2014-05-29T11:31:54Z</time>
      </trkpt>
      <trkpt lat="59.7831646" lon="17.6319971">
        <ele>3.02124</ele>
        <time>2014-05-29T11:31:55Z</time>
      </trkpt>
      <trkpt lat="59.7831726" lon="17.6320687">
        <ele>3.02124</ele>
        <time>2014-05-29T11:31:56Z</time>
      </trkpt>
      <trkpt lat="59.7831708" lon="17.6321423">
        <ele>3.02124</ele>
        <time>2014-05-29T11:31:57Z</time>
      </trkpt>
      <trkpt lat="59.783163" lon="17.6322148">
        <ele>3.02124</ele>
        <time>2014-05-29T11:31:58Z</time>
      </trkpt>
      <trkpt lat="59.7831558" lon="17.6322847">
        <ele>3.02124</ele>
        <time>2014-05-29T11:31:59Z</time>
      </trkpt>
      <trkpt lat="59.7831496" lon="17.6323545">
        <ele>2.54065</ele>
        <time>2014-05-29T11:32:00Z</time>
      </trkpt>
      <trkpt lat="59.7831469" lon="17.6324262">
        <ele>3.02124</ele>
        <time>2014-05-29T11:32:01Z</time>
      </trkpt>
      <trkpt lat="59.7831444" lon="17.6324997">
        <ele>3.02124</ele>
        <time>2014-05-29T11:32:02Z</time>
      </trkpt>
      <trkpt lat="59.7831405" lon="17.6325743">
        <ele>3.02124</ele>
        <time>2014-05-29T11:32:03Z</time>
      </trkpt>
      <trkpt lat="59.7831366" lon="17.63265">
        <ele>3.02124</ele>
        <time>2014-05-29T11:32:04Z</time>
      </trkpt>
      <trkpt lat="59.7831322" lon="17.6327256">
        <ele>3.02124</ele>
        <time>2014-05-29T11:32:05Z</time>
      </trkpt>
      <trkpt lat="59.7831262" lon="17.6328021">
        <ele>2.54065</ele>
        <time>2014-05-29T11:32:06Z</time>
      </trkpt>
      <trkpt lat="59.783121" lon="17.6328797">
        <ele>2.54065</ele>
        <time>2014-05-29T11:32:07Z</time>
      </trkpt>
      <trkpt lat="59.7831191" lon="17.6329587">
        <ele>2.54065</ele>
        <time>2014-05-29T11:32:08Z</time>
      </trkpt>
      <trkpt lat="59.7831217" lon="17.6330385">
        <ele>2.06006</ele>
        <time>2014-05-29T11:32:09Z</time>
      </trkpt>
      <trkpt lat="59.7831323" lon="17.633117">
        <ele>2.06006</ele>
        <time>2014-05-29T11:32:10Z</time>
      </trkpt>
      <trkpt lat="59.7831538" lon="17.6331856">
        <ele>2.06006</ele>
        <time>2014-05-29T11:32:11Z</time>
      </trkpt>
      <trkpt lat="59.7831822" lon="17.633244">
        <ele>1.57935</ele>
        <time>2014-05-29T11:32:12Z</time>
      </trkpt>
      <trkpt lat="59.7832133" lon="17.6332947">
        <ele>1.57935</ele>
        <time>2014-05-29T11:32:13Z</time>
      </trkpt>
      <trkpt lat="59.7832483" lon="17.6333421">
        <ele>1.57935</ele>
        <time>2014-05-29T11:32:14Z</time>
      </trkpt>
      <trkpt lat="59.7832884" lon="17.6333918">
        <ele>1.09863</ele>
        <time>2014-05-29T11:32:15Z</time>
      </trkpt>
      <trkpt lat="59.783332" lon="17.6334487">
        <ele>1.09863</ele>
        <time>2014-05-29T11:32:16Z</time>
      </trkpt>
      <trkpt lat="59.7833747" lon="17.633515">
        <ele>1.09863</ele>
        <time>2014-05-29T11:32:17Z</time>
      </trkpt>
      <trkpt lat="59.7834101" lon="17.6335896">
        <ele>1.09863</ele>
        <time>2014-05-29T11:32:18Z</time>
      </trkpt>
      <trkpt lat="59.7834394" lon="17.6336656">
        <ele>1.09863</ele>
        <time>2014-05-29T11:32:19Z</time>
      </trkpt>
      <trkpt lat="59.7834667" lon="17.6337367">
        <ele>0.618042</ele>
        <time>2014-05-29T11:32:20Z</time>
      </trkpt>
      <trkpt lat="59.7834917" lon="17.6338041">
        <ele>0.618042</ele>
        <time>2014-05-29T11:32:21Z</time>
      </trkpt>
      <trkpt lat="59.7835097" lon="17.6338745">
        <ele>0.618042</ele>
        <time>2014-05-29T11:32:22Z</time>
      </trkpt>
      <trkpt lat="59.7835126" lon="17.6339469">
        <ele>1.09863</ele>
        <time>2014-05-29T11:32:23Z</time>
      </trkpt>
      <trkpt lat="59.7834988" lon="17.6340064">
        <ele>1.09863</ele>
        <time>2014-05-29T11:32:24Z</time>
      </trkpt>
      <trkpt lat="59.7834796" lon="17.6340551">
        <ele>1.09863</ele>
        <time>2014-05-29T11:32:25Z</time>
      </trkpt>
      <trkpt lat="59.7834555" lon="17.6341105">
        <ele>1.09863</ele>
        <time>2014-05-29T11:32:26Z</time>
      </trkpt>
      <trkpt lat="59.7834277" lon="17.6341806">
        <ele>0.618042</ele>
        <time>2014-05-29T11:32:27Z</time>
      </trkpt>
      <trkpt lat="59.7833943" lon="17.6342672">
        <ele>0.618042</ele>
        <time>2014-05-29T11:32:28Z</time>
      </trkpt>
      <trkpt lat="59.7833625" lon="17.634359">
        <ele>1.09863</ele>
        <time>2014-05-29T11:32:29Z</time>
      </trkpt>
      <trkpt lat="59.7833339" lon="17.634449">
        <ele>1.09863</ele>
        <time>2014-05-29T11:32:30Z</time>
      </trkpt>
      <trkpt lat="59.7833101" lon="17.6345337">
        <ele>1.57935</ele>
        <time>2014-05-29T11:32:31Z</time>
      </trkpt>
      <trkpt lat="59.7832923" lon="17.6346146">
        <ele>1.57935</ele>
        <time>2014-05-29T11:32:32Z</time>
      </trkpt>
      <trkpt lat="59.7832771" lon="17.6346917">
        <ele>1.57935</ele>
        <time>2014-05-29T11:32:33Z</time>
      </trkpt>
      <trkpt lat="59.7832589" lon="17.6347597">
        <ele>1.57935</ele>
        <time>2014-05-29T11:32:34Z</time>
      </trkpt>
      <trkpt lat="59.7832348" lon="17.6348163">
        <ele>1.57935</ele>
        <time>2014-05-29T11:32:35Z</time>
      </trkpt>
      <trkpt lat="59.7832116" lon="17.6348696">
        <ele>1.57935</ele>
        <time>2014-05-29T11:32:36Z</time>
      </trkpt>
      <trkpt lat="59.7831936" lon="17.634928">
        <ele>1.57935</ele>
        <time>2014-05-29T11:32:37Z</time>
      </trkpt>
      <trkpt lat="59.7831785" lon="17.6349877">
        <ele>1.57935</ele>
        <time>2014-05-29T11:32:38Z</time>
      </trkpt>
      <trkpt lat="59.7831667" lon="17.6350438">
        <ele>1.57935</ele>
        <time>2014-05-29T11:32:39Z</time>
      </trkpt>
      <trkpt lat="59.7831543" lon="17.6350965">
        <ele>1.57935</ele>
        <time>2014-05-29T11:32:40Z</time>
      </trkpt>
      <trkpt lat="59.7831376" lon="17.6351403">
        <ele>2.06006</ele>
        <time>2014-05-29T11:32:41Z</time>
      </trkpt>
      <trkpt lat="59.7831243" lon="17.6351727">
        <ele>2.06006</ele>
        <time>2014-05-29T11:32:42Z</time>
      </trkpt>
      <trkpt lat="59.78312" lon="17.6351906">
        <ele>2.06006</ele>
        <time>2014-05-29T11:32:43Z</time>
      </trkpt>
      <trkpt lat="59.7831196" lon="17.6351923">
        <ele>1.57935</ele>
        <time>2014-05-29T11:32:44Z</time>
      </trkpt>
      <trkpt lat="59.7831201" lon="17.6352023">
        <ele>1.57935</ele>
        <time>2014-05-29T11:32:45Z</time>
      </trkpt>
      <trkpt lat="59.7831195" lon="17.6352126">
        <ele>2.06006</ele>
        <time>2014-05-29T11:32:46Z</time>
      </trkpt>
      <trkpt lat="59.7831173" lon="17.6352234">
        <ele>2.06006</ele>
        <time>2014-05-29T11:32:47Z</time>
      </trkpt>
      <trkpt lat="59.7831132" lon="17.6352393">
        <ele>2.06006</ele>
        <time>2014-05-29T11:32:48Z</time>
      </trkpt>
      <trkpt lat="59.7831111" lon="17.6352566">
        <ele>1.57935</ele>
        <time>2014-05-29T11:32:49Z</time>
      </trkpt>
      <trkpt lat="59.7831037" lon="17.6352722">
        <ele>1.57935</ele>
        <time>2014-05-29T11:32:50Z</time>
      </trkpt>
      <trkpt lat="59.7830941" lon="17.6352846">
        <ele>1.57935</ele>
        <time>2014-05-29T11:32:51Z</time>
      </trkpt>
      <trkpt lat="59.7830875" lon="17.6352969">
        <ele>2.06006</ele>
        <time>2014-05-29T11:32:52Z</time>
      </trkpt>
      <trkpt lat="59.78308" lon="17.635309">
        <ele>1.57935</ele>
        <time>2014-05-29T11:32:53Z</time>
      </trkpt>
      <trkpt lat="59.7830778" lon="17.6353094">
        <ele>1.57935</ele>
        <time>2014-05-29T11:32:54Z</time>
      </trkpt>
      <trkpt lat="59.7830771" lon="17.6353038">
        <ele>2.06006</ele>
        <time>2014-05-29T11:32:55Z</time>
      </trkpt>
      <trkpt lat="59.7832069" lon="17.6354168">
        <ele>1.09863</ele>
        <time>2014-05-29T11:33:18Z</time>
      </trkpt>
      <trkpt lat="59.7832195" lon="17.6354164">
        <ele>1.57935</ele>
        <time>2014-05-29T11:33:19Z</time>
      </trkpt>
      <trkpt lat="59.7832318" lon="17.6354141">
        <ele>1.57935</ele>
        <time>2014-05-29T11:33:20Z</time>
      </trkpt>
      <trkpt lat="59.7832393" lon="17.6354079">
        <ele>1.57935</ele>
        <time>2014-05-29T11:33:21Z</time>
      </trkpt>
      <trkpt lat="59.7832459" lon="17.6354076">
        <ele>2.06006</ele>
        <time>2014-05-29T11:33:22Z</time>
      </trkpt>
      <trkpt lat="59.783251" lon="17.6354105">
        <ele>2.06006</ele>
        <time>2014-05-29T11:33:23Z</time>
      </trkpt>
      <trkpt lat="59.7832552" lon="17.6354057">
        <ele>2.54065</ele>
        <time>2014-05-29T11:33:24Z</time>
      </trkpt>
      <trkpt lat="59.783261" lon="17.635398">
        <ele>2.54065</ele>
        <time>2014-05-29T11:33:25Z</time>
      </trkpt>
      <trkpt lat="59.7832735" lon="17.6353865">
        <ele>3.02124</ele>
        <time>2014-05-29T11:33:26Z</time>
      </trkpt>
      <trkpt lat="59.7832903" lon="17.6353799">
        <ele>3.02124</ele>
        <time>2014-05-29T11:33:27Z</time>
      </trkpt>
      <trkpt lat="59.7833075" lon="17.6353757">
        <ele>3.50195</ele>
        <time>2014-05-29T11:33:28Z</time>
      </trkpt>
      <trkpt lat="59.7833184" lon="17.6353719">
        <ele>3.50195</ele>
        <time>2014-05-29T11:33:29Z</time>
      </trkpt>
      <trkpt lat="59.7833339" lon="17.6353667">
        <ele>3.50195</ele>
        <time>2014-05-29T11:33:30Z</time>
      </trkpt>
      <trkpt lat="59.7833495" lon="17.6353532">
        <ele>3.98267</ele>
        <time>2014-05-29T11:33:31Z</time>
      </trkpt>
      <trkpt lat="59.7833657" lon="17.6353368">
        <ele>4.94385</ele>
        <time>2014-05-29T11:33:32Z</time>
      </trkpt>
      <trkpt lat="59.7833801" lon="17.6353196">
        <ele>4.94385</ele>
        <time>2014-05-29T11:33:33Z</time>
      </trkpt>
      <trkpt lat="59.7833966" lon="17.6353077">
        <ele>4.94385</ele>
        <time>2014-05-29T11:33:34Z</time>
      </trkpt>
      <trkpt lat="59.7834138" lon="17.6353099">
        <ele>4.94385</ele>
        <time>2014-05-29T11:33:35Z</time>
      </trkpt>
      <trkpt lat="59.7834289" lon="17.6353225">
        <ele>4.94385</ele>
        <time>2014-05-29T11:33:36Z</time>
      </trkpt>
      <trkpt lat="59.7834408" lon="17.6353379">
        <ele>4.94385</ele>
        <time>2014-05-29T11:33:37Z</time>
      </trkpt>
      <trkpt lat="59.7834519" lon="17.6353597">
        <ele>4.94385</ele>
        <time>2014-05-29T11:33:38Z</time>
      </trkpt>
      <trkpt lat="59.7834605" lon="17.6353817">
        <ele>4.94385</ele>
        <time>2014-05-29T11:33:39Z</time>
      </trkpt>
      <trkpt lat="59.7834698" lon="17.6354026">
        <ele>4.94385</ele>
        <time>2014-05-29T11:33:40Z</time>
      </trkpt>
      <trkpt lat="59.783479" lon="17.6354225">
        <ele>4.94385</ele>
        <time>2014-05-29T11:33:41Z</time>
      </trkpt>
      <trkpt lat="59.7834878" lon="17.6354415">
        <ele>5.42456</ele>
        <time>2014-05-29T11:33:42Z</time>
      </trkpt>
      <trkpt lat="59.7834982" lon="17.635459">
        <ele>5.42456</ele>
        <time>2014-05-29T11:33:43Z</time>
      </trkpt>
      <trkpt lat="59.7835096" lon="17.6354724">
        <ele>5.90527</ele>
        <time>2014-05-29T11:33:44Z</time>
      </trkpt>
      <trkpt lat="59.7835215" lon="17.6354834">
        <ele>6.38586</ele>
        <time>2014-05-29T11:33:45Z</time>
      </trkpt>
      <trkpt lat="59.7835361" lon="17.6355024">
        <ele>7.34717</ele>
        <time>2014-05-29T11:33:46Z</time>
      </trkpt>
      <trkpt lat="59.7835423" lon="17.6355213">
        <ele>7.34717</ele>
        <time>2014-05-29T11:33:47Z</time>
      </trkpt>
      <trkpt lat="59.7835457" lon="17.635542">
        <ele>7.34717</ele>
        <time>2014-05-29T11:33:48Z</time>
      </trkpt>
      <trkpt lat="59.7835478" lon="17.6355607">
        <ele>6.86646</ele>
        <time>2014-05-29T11:33:49Z</time>
      </trkpt>
      <trkpt lat="59.7835519" lon="17.6355803">
        <ele>6.86646</ele>
        <time>2014-05-29T11:33:50Z</time>
      </trkpt>
      <trkpt lat="59.7835592" lon="17.6355969">
        <ele>6.86646</ele>
        <time>2014-05-29T11:33:51Z</time>
      </trkpt>
      <trkpt lat="59.7835733" lon="17.6356149">
        <ele>7.82788</ele>
        <time>2014-05-29T11:33:52Z</time>
      </trkpt>
      <trkpt lat="59.7835892" lon="17.6356372">
        <ele>8.78918</ele>
        <time>2014-05-29T11:33:53Z</time>
      </trkpt>
      <trkpt lat="59.7836019" lon="17.6356573">
        <ele>8.78918</ele>
        <time>2014-05-29T11:33:54Z</time>
      </trkpt>
      <trkpt lat="59.7836109" lon="17.6356791">
        <ele>9.75061</ele>
        <time>2014-05-29T11:33:55Z</time>
      </trkpt>
      <trkpt lat="59.7836249" lon="17.6357063">
        <ele>10.7118</ele>
        <time>2014-05-29T11:33:56Z</time>
      </trkpt>
      <trkpt lat="59.7836361" lon="17.6357362">
        <ele>11.6732</ele>
        <time>2014-05-29T11:33:57Z</time>
      </trkpt>
      <trkpt lat="59.7836442" lon="17.6357684">
        <ele>12.1538</ele>
        <time>2014-05-29T11:33:58Z</time>
      </trkpt>
      <trkpt lat="59.7836415" lon="17.6358046">
        <ele>12.1538</ele>
        <time>2014-05-29T11:33:59Z</time>
      </trkpt>
      <trkpt lat="59.783635" lon="17.6358376">
        <ele>12.1538</ele>
        <time>2014-05-29T11:34:00Z</time>
      </trkpt>
      <trkpt lat="59.7836288" lon="17.6358709">
        <ele>12.1538</ele>
        <time>2014-05-29T11:34:01Z</time>
      </trkpt>
      <trkpt lat="59.7836365" lon="17.6359068">
        <ele>12.6344</ele>
        <time>2014-05-29T11:34:02Z</time>
      </trkpt>
      <trkpt lat="59.7836368" lon="17.6359491">
        <ele>12.6344</ele>
        <time>2014-05-29T11:34:03Z</time>
      </trkpt>
      <trkpt lat="59.7836344" lon="17.6359976">
        <ele>12.1538</ele>
        <time>2014-05-29T11:34:04Z</time>
      </trkpt>
      <trkpt lat="59.7836332" lon="17.6360489">
        <ele>12.1538</ele>
        <time>2014-05-29T11:34:05Z</time>
      </trkpt>
      <trkpt lat="59.7836319" lon="17.6360994">
        <ele>11.6732</ele>
        <time>2014-05-29T11:34:06Z</time>
      </trkpt>
      <trkpt lat="59.7836313" lon="17.6361569">
        <ele>11.6732</ele>
        <time>2014-05-29T11:34:07Z</time>
      </trkpt>
      <trkpt lat="59.7836247" lon="17.636218">
        <ele>11.6732</ele>
        <time>2014-05-29T11:34:08Z</time>
      </trkpt>
      <trkpt lat="59.7836146" lon="17.6362708">
        <ele>11.1925</ele>
        <time>2014-05-29T11:34:09Z</time>
      </trkpt>
      <trkpt lat="59.783599" lon="17.6363299">
        <ele>11.1925</ele>
        <time>2014-05-29T11:34:10Z</time>
      </trkpt>
      <trkpt lat="59.7835884" lon="17.6363854">
        <ele>10.7118</ele>
        <time>2014-05-29T11:34:11Z</time>
      </trkpt>
      <trkpt lat="59.7835813" lon="17.6364385">
        <ele>10.7118</ele>
        <time>2014-05-29T11:34:12Z</time>
      </trkpt>
      <trkpt lat="59.7835751" lon="17.6364966">
        <ele>10.2312</ele>
        <time>2014-05-29T11:34:13Z</time>
      </trkpt>
      <trkpt lat="59.7835751" lon="17.6365587">
        <ele>9.75061</ele>
        <time>2014-05-29T11:34:14Z</time>
      </trkpt>
      <trkpt lat="59.7835696" lon="17.6366323">
        <ele>8.78918</ele>
        <time>2014-05-29T11:34:15Z</time>
      </trkpt>
      <trkpt lat="59.7835661" lon="17.6367054">
        <ele>7.82788</ele>
        <time>2014-05-29T11:34:16Z</time>
      </trkpt>
      <trkpt lat="59.7835634" lon="17.636778">
        <ele>6.86646</ele>
        <time>2014-05-29T11:34:17Z</time>
      </trkpt>
      <trkpt lat="59.7835606" lon="17.6368468">
        <ele>5.90527</ele>
        <time>2014-05-29T11:34:18Z</time>
      </trkpt>
      <trkpt lat="59.7835627" lon="17.6369204">
        <ele>4.94385</ele>
        <time>2014-05-29T11:34:19Z</time>
      </trkpt>
      <trkpt lat="59.7835625" lon="17.6369918">
        <ele>3.98267</ele>
        <time>2014-05-29T11:34:20Z</time>
      </trkpt>
      <trkpt lat="59.7835578" lon="17.637077">
        <ele>2.54065</ele>
        <time>2014-05-29T11:34:21Z</time>
      </trkpt>
      <trkpt lat="59.7835599" lon="17.6371896">
        <ele>1.09863</ele>
        <time>2014-05-29T11:34:22Z</time>
      </trkpt>
      <trkpt lat="59.7835746" lon="17.6373088">
        <ele>0.137451</ele>
        <time>2014-05-29T11:34:23Z</time>
      </trkpt>
      <trkpt lat="59.7835925" lon="17.6374154">
        <ele>0</ele>
        <time>2014-05-29T11:34:24Z</time>
      </trkpt>
      <trkpt lat="59.7836129" lon="17.6375076">
        <ele>0</ele>
        <time>2014-05-29T11:34:25Z</time>
      </trkpt>
      <trkpt lat="59.7836358" lon="17.6375822">
        <ele>0</ele>
        <time>2014-05-29T11:34:26Z</time>
      </trkpt>
      <trkpt lat="59.7836546" lon="17.6376535">
        <ele>0</ele>
        <time>2014-05-29T11:34:27Z</time>
      </trkpt>
      <trkpt lat="59.7836702" lon="17.637719">
        <ele>0</ele>
        <time>2014-05-29T11:34:28Z</time>
      </trkpt>
      <trkpt lat="59.7836862" lon="17.637784">
        <ele>0</ele>
        <time>2014-05-29T11:34:29Z</time>
      </trkpt>
      <trkpt lat="59.78371" lon="17.6378491">
        <ele>0</ele>
        <time>2014-05-29T11:34:30Z</time>
      </trkpt>
      <trkpt lat="59.7837437" lon="17.6379098">
        <ele>0</ele>
        <time>2014-05-29T11:34:31Z</time>
      </trkpt>
      <trkpt lat="59.7837825" lon="17.6379685">
        <ele>0</ele>
        <time>2014-05-29T11:34:32Z</time>
      </trkpt>
      <trkpt lat="59.7838165" lon="17.6380191">
        <ele>0</ele>
        <time>2014-05-29T11:34:33Z</time>
      </trkpt>
      <trkpt lat="59.7838495" lon="17.6380718">
        <ele>0</ele>
        <time>2014-05-29T11:34:34Z</time>
      </trkpt>
      <trkpt lat="59.7838751" lon="17.6381339">
        <ele>0</ele>
        <time>2014-05-29T11:34:35Z</time>
      </trkpt>
      <trkpt lat="59.7838912" lon="17.6382025">
        <ele>0</ele>
        <time>2014-05-29T11:34:36Z</time>
      </trkpt>
      <trkpt lat="59.7839026" lon="17.6382584">
        <ele>0</ele>
        <time>2014-05-29T11:34:37Z</time>
      </trkpt>
      <trkpt lat="59.7839457" lon="17.6383256">
        <ele>0</ele>
        <time>2014-05-29T11:34:38Z</time>
      </trkpt>
      <trkpt lat="59.7839706" lon="17.6383802">
        <ele>0</ele>
        <time>2014-05-29T11:34:39Z</time>
      </trkpt>
      <trkpt lat="59.7839845" lon="17.6384573">
        <ele>0</ele>
        <time>2014-05-29T11:34:40Z</time>
      </trkpt>
      <trkpt lat="59.7840005" lon="17.6385466">
        <ele>1.09863</ele>
        <time>2014-05-29T11:34:41Z</time>
      </trkpt>
      <trkpt lat="59.7840068" lon="17.6386387">
        <ele>2.54065</ele>
        <time>2014-05-29T11:34:42Z</time>
      </trkpt>
      <trkpt lat="59.7840123" lon="17.6387379">
        <ele>3.50195</ele>
        <time>2014-05-29T11:34:43Z</time>
      </trkpt>
      <trkpt lat="59.7840183" lon="17.6388338">
        <ele>3.50195</ele>
        <time>2014-05-29T11:34:44Z</time>
      </trkpt>
      <trkpt lat="59.7840225" lon="17.6389303">
        <ele>3.50195</ele>
        <time>2014-05-29T11:34:45Z</time>
      </trkpt>
      <trkpt lat="59.7840263" lon="17.6390283">
        <ele>3.50195</ele>
        <time>2014-05-29T11:34:46Z</time>
      </trkpt>
      <trkpt lat="59.7840302" lon="17.6391256">
        <ele>3.50195</ele>
        <time>2014-05-29T11:34:47Z</time>
      </trkpt>
      <trkpt lat="59.7840282" lon="17.6392095">
        <ele>3.50195</ele>
        <time>2014-05-29T11:34:48Z</time>
      </trkpt>
      <trkpt lat="59.7840125" lon="17.6392774">
        <ele>3.50195</ele>
        <time>2014-05-29T11:34:49Z</time>
      </trkpt>
      <trkpt lat="59.783985" lon="17.6393271">
        <ele>3.02124</ele>
        <time>2014-05-29T11:34:50Z</time>
      </trkpt>
      <trkpt lat="59.7839522" lon="17.6393592">
        <ele>2.54065</ele>
        <time>2014-05-29T11:34:51Z</time>
      </trkpt>
      <trkpt lat="59.7839132" lon="17.6393882">
        <ele>2.06006</ele>
        <time>2014-05-29T11:34:52Z</time>
      </trkpt>
      <trkpt lat="59.7838733" lon="17.6394245">
        <ele>2.06006</ele>
        <time>2014-05-29T11:34:53Z</time>
      </trkpt>
      <trkpt lat="59.7838391" lon="17.6394829">
        <ele>2.06006</ele>
        <time>2014-05-29T11:34:54Z</time>
      </trkpt>
      <trkpt lat="59.7838204" lon="17.639555">
        <ele>1.57935</ele>
        <time>2014-05-29T11:34:55Z</time>
      </trkpt>
      <trkpt lat="59.78381" lon="17.6396416">
        <ele>1.57935</ele>
        <time>2014-05-29T11:34:56Z</time>
      </trkpt>
      <trkpt lat="59.7837968" lon="17.6397369">
        <ele>1.57935</ele>
        <time>2014-05-29T11:34:57Z</time>
      </trkpt>
      <trkpt lat="59.7837871" lon="17.6398384">
        <ele>1.57935</ele>
        <time>2014-05-29T11:34:58Z</time>
      </trkpt>
      <trkpt lat="59.7837894" lon="17.6399301">
        <ele>1.09863</ele>
        <time>2014-05-29T11:34:59Z</time>
      </trkpt>
      <trkpt lat="59.7837939" lon="17.6400188">
        <ele>1.09863</ele>
        <time>2014-05-29T11:35:00Z</time>
      </trkpt>
      <trkpt lat="59.7837944" lon="17.6401093">
        <ele>1.57935</ele>
        <time>2014-05-29T11:35:01Z</time>
      </trkpt>
      <trkpt lat="59.7837904" lon="17.6401953">
        <ele>2.06006</ele>
        <time>2014-05-29T11:35:02Z</time>
      </trkpt>
      <trkpt lat="59.7837867" lon="17.6402729">
        <ele>2.54065</ele>
        <time>2014-05-29T11:35:03Z</time>
      </trkpt>
      <trkpt lat="59.783782" lon="17.6403465">
        <ele>2.54065</ele>
        <time>2014-05-29T11:35:04Z</time>
      </trkpt>
      <trkpt lat="59.7837686" lon="17.6404231">
        <ele>2.54065</ele>
        <time>2014-05-29T11:35:05Z</time>
      </trkpt>
      <trkpt lat="59.7837515" lon="17.6405092">
        <ele>2.54065</ele>
        <time>2014-05-29T11:35:06Z</time>
      </trkpt>
      <trkpt lat="59.7837288" lon="17.6406056">
        <ele>1.57935</ele>
        <time>2014-05-29T11:35:07Z</time>
      </trkpt>
      <trkpt lat="59.7837086" lon="17.6407055">
        <ele>1.57935</ele>
        <time>2014-05-29T11:35:08Z</time>
      </trkpt>
      <trkpt lat="59.7836936" lon="17.6408009">
        <ele>1.09863</ele>
        <time>2014-05-29T11:35:09Z</time>
      </trkpt>
      <trkpt lat="59.7836773" lon="17.6408961">
        <ele>0.618042</ele>
        <time>2014-05-29T11:35:10Z</time>
      </trkpt>
      <trkpt lat="59.7836575" lon="17.6409845">
        <ele>0.618042</ele>
        <time>2014-05-29T11:35:11Z</time>
      </trkpt>
      <trkpt lat="59.7836339" lon="17.6410692">
        <ele>0.137451</ele>
        <time>2014-05-29T11:35:12Z</time>
      </trkpt>
      <trkpt lat="59.7836049" lon="17.6411558">
        <ele>0.137451</ele>
        <time>2014-05-29T11:35:13Z</time>
      </trkpt>
      <trkpt lat="59.7835708" lon="17.6412379">
        <ele>0.137451</ele>
        <time>2014-05-29T11:35:14Z</time>
      </trkpt>
      <trkpt lat="59.7835359" lon="17.6413218">
        <ele>0</ele>
        <time>2014-05-29T11:35:15Z</time>
      </trkpt>
      <trkpt lat="59.7835047" lon="17.6414135">
        <ele>0</ele>
        <time>2014-05-29T11:35:16Z</time>
      </trkpt>
      <trkpt lat="59.7834781" lon="17.6415052">
        <ele>0</ele>
        <time>2014-05-29T11:35:17Z</time>
      </trkpt>
      <trkpt lat="59.7834483" lon="17.641595">
        <ele>0.137451</ele>
        <time>2014-05-29T11:35:18Z</time>
      </trkpt>
      <trkpt lat="59.7834133" lon="17.6416834">
        <ele>0.137451</ele>
        <time>2014-05-29T11:35:19Z</time>
      </trkpt>
      <trkpt lat="59.7833876" lon="17.6417586">
        <ele>0.137451</ele>
        <time>2014-05-29T11:35:20Z</time>
      </trkpt>
      <trkpt lat="59.7833598" lon="17.6418405">
        <ele>0.137451</ele>
        <time>2014-05-29T11:35:21Z</time>
      </trkpt>
      <trkpt lat="59.7833334" lon="17.6419156">
        <ele>0.137451</ele>
        <time>2014-05-29T11:35:22Z</time>
      </trkpt>
      <trkpt lat="59.7833106" lon="17.6419774">
        <ele>0.137451</ele>
        <time>2014-05-29T11:35:23Z</time>
      </trkpt>
      <trkpt lat="59.7832899" lon="17.6420424">
        <ele>0.137451</ele>
        <time>2014-05-29T11:35:24Z</time>
      </trkpt>
      <trkpt lat="59.7832815" lon="17.6421099">
        <ele>0.137451</ele>
        <time>2014-05-29T11:35:25Z</time>
      </trkpt>
      <trkpt lat="59.7832712" lon="17.6422099">
        <ele>0.137451</ele>
        <time>2014-05-29T11:35:26Z</time>
      </trkpt>
      <trkpt lat="59.7832674" lon="17.6423165">
        <ele>0</ele>
        <time>2014-05-29T11:35:27Z</time>
      </trkpt>
      <trkpt lat="59.7832734" lon="17.6424205">
        <ele>0</ele>
        <time>2014-05-29T11:35:28Z</time>
      </trkpt>
      <trkpt lat="59.7832804" lon="17.6425279">
        <ele>0</ele>
        <time>2014-05-29T11:35:29Z</time>
      </trkpt>
      <trkpt lat="59.7832934" lon="17.6426349">
        <ele>0</ele>
        <time>2014-05-29T11:35:30Z</time>
      </trkpt>
      <trkpt lat="59.7833082" lon="17.6427461">
        <ele>0</ele>
        <time>2014-05-29T11:35:31Z</time>
      </trkpt>
      <trkpt lat="59.7833251" lon="17.6428486">
        <ele>0</ele>
        <time>2014-05-29T11:35:32Z</time>
      </trkpt>
      <trkpt lat="59.7833361" lon="17.6429548">
        <ele>0</ele>
        <time>2014-05-29T11:35:33Z</time>
      </trkpt>
      <trkpt lat="59.7833392" lon="17.6430696">
        <ele>0</ele>
        <time>2014-05-29T11:35:34Z</time>
      </trkpt>
      <trkpt lat="59.7833473" lon="17.643179">
        <ele>0.137451</ele>
        <time>2014-05-29T11:35:35Z</time>
      </trkpt>
      <trkpt lat="59.7833708" lon="17.6432732">
        <ele>0.618042</ele>
        <time>2014-05-29T11:35:36Z</time>
      </trkpt>
      <trkpt lat="59.7833973" lon="17.6433633">
        <ele>0.618042</ele>
        <time>2014-05-29T11:35:37Z</time>
      </trkpt>
      <trkpt lat="59.7834209" lon="17.6434534">
        <ele>0.618042</ele>
        <time>2014-05-29T11:35:38Z</time>
      </trkpt>
      <trkpt lat="59.7834406" lon="17.6435466">
        <ele>0.618042</ele>
        <time>2014-05-29T11:35:39Z</time>
      </trkpt>
      <trkpt lat="59.7834541" lon="17.6436453">
        <ele>0.137451</ele>
        <time>2014-05-29T11:35:40Z</time>
      </trkpt>
      <trkpt lat="59.7834589" lon="17.6437593">
        <ele>0.137451</ele>
        <time>2014-05-29T11:35:41Z</time>
      </trkpt>
      <trkpt lat="59.7834646" lon="17.6438719">
        <ele>0.618042</ele>
        <time>2014-05-29T11:35:42Z</time>
      </trkpt>
      <trkpt lat="59.7834805" lon="17.6439752">
        <ele>0.618042</ele>
        <time>2014-05-29T11:35:43Z</time>
      </trkpt>
      <trkpt lat="59.7835003" lon="17.644071">
        <ele>0.618042</ele>
        <time>2014-05-29T11:35:44Z</time>
      </trkpt>
      <trkpt lat="59.7835241" lon="17.6441617">
        <ele>0.618042</ele>
        <time>2014-05-29T11:35:45Z</time>
      </trkpt>
      <trkpt lat="59.7835472" lon="17.6442521">
        <ele>0.618042</ele>
        <time>2014-05-29T11:35:46Z</time>
      </trkpt>
      <trkpt lat="59.7835784" lon="17.6443445">
        <ele>0.137451</ele>
        <time>2014-05-29T11:35:47Z</time>
      </trkpt>
      <trkpt lat="59.7836107" lon="17.6444429">
        <ele>0.137451</ele>
        <time>2014-05-29T11:35:48Z</time>
      </trkpt>
      <trkpt lat="59.7836443" lon="17.6445357">
        <ele>0.137451</ele>
        <time>2014-05-29T11:35:49Z</time>
      </trkpt>
      <trkpt lat="59.7836702" lon="17.6446257">
        <ele>0.137451</ele>
        <time>2014-05-29T11:35:50Z</time>
      </trkpt>
      <trkpt lat="59.7836929" lon="17.6447095">
        <ele>0</ele>
        <time>2014-05-29T11:35:51Z</time>
      </trkpt>
      <trkpt lat="59.7837162" lon="17.6447957">
        <ele>0</ele>
        <time>2014-05-29T11:35:52Z</time>
      </trkpt>
      <trkpt lat="59.783738" lon="17.6448828">
        <ele>0</ele>
        <time>2014-05-29T11:35:53Z</time>
      </trkpt>
      <trkpt lat="59.7837639" lon="17.6449685">
        <ele>0</ele>
        <time>2014-05-29T11:35:54Z</time>
      </trkpt>
      <trkpt lat="59.7838089" lon="17.6450687">
        <ele>0</ele>
        <time>2014-05-29T11:35:55Z</time>
      </trkpt>
      <trkpt lat="59.7838379" lon="17.6451708">
        <ele>0</ele>
        <time>2014-05-29T11:35:56Z</time>
      </trkpt>
      <trkpt lat="59.7838587" lon="17.6452846">
        <ele>0.137451</ele>
        <time>2014-05-29T11:35:57Z</time>
      </trkpt>
      <trkpt lat="59.7838876" lon="17.6453769">
        <ele>0</ele>
        <time>2014-05-29T11:35:58Z</time>
      </trkpt>
      <trkpt lat="59.7839224" lon="17.6454649">
        <ele>0</ele>
        <time>2014-05-29T11:35:59Z</time>
      </trkpt>
      <trkpt lat="59.7839585" lon="17.6455552">
        <ele>0</ele>
        <time>2014-05-29T11:36:00Z</time>
      </trkpt>
      <trkpt lat="59.7839886" lon="17.6456832">
        <ele>0</ele>
        <time>2014-05-29T11:36:01Z</time>
      </trkpt>
      <trkpt lat="59.7840134" lon="17.6458029">
        <ele>0</ele>
        <time>2014-05-29T11:36:02Z</time>
      </trkpt>
      <trkpt lat="59.7840352" lon="17.64588">
        <ele>0</ele>
        <time>2014-05-29T11:36:03Z</time>
      </trkpt>
      <trkpt lat="59.7840531" lon="17.6459607">
        <ele>0</ele>
        <time>2014-05-29T11:36:04Z</time>
      </trkpt>
      <trkpt lat="59.7840681" lon="17.6460566">
        <ele>0</ele>
        <time>2014-05-29T11:36:05Z</time>
      </trkpt>
      <trkpt lat="59.7840844" lon="17.646162">
        <ele>0</ele>
        <time>2014-05-29T11:36:06Z</time>
      </trkpt>
      <trkpt lat="59.7841006" lon="17.6462715">
        <ele>0</ele>
        <time>2014-05-29T11:36:07Z</time>
      </trkpt>
      <trkpt lat="59.7841208" lon="17.6463799">
        <ele>0</ele>
        <time>2014-05-29T11:36:08Z</time>
      </trkpt>
      <trkpt lat="59.784145" lon="17.6464788">
        <ele>0</ele>
        <time>2014-05-29T11:36:09Z</time>
      </trkpt>
      <trkpt lat="59.7841681" lon="17.6465797">
        <ele>0</ele>
        <time>2014-05-29T11:36:10Z</time>
      </trkpt>
      <trkpt lat="59.7841934" lon="17.6466738">
        <ele>0</ele>
        <time>2014-05-29T11:36:11Z</time>
      </trkpt>
      <trkpt lat="59.7842191" lon="17.6467598">
        <ele>0</ele>
        <time>2014-05-29T11:36:12Z</time>
      </trkpt>
      <trkpt lat="59.7842485" lon="17.646848">
        <ele>0</ele>
        <time>2014-05-29T11:36:13Z</time>
      </trkpt>
      <trkpt lat="59.7842809" lon="17.6469243">
        <ele>0</ele>
        <time>2014-05-29T11:36:14Z</time>
      </trkpt>
      <trkpt lat="59.7843237" lon="17.6469702">
        <ele>0</ele>
        <time>2014-05-29T11:36:15Z</time>
      </trkpt>
      <trkpt lat="59.7843711" lon="17.6469829">
        <ele>0</ele>
        <time>2014-05-29T11:36:16Z</time>
      </trkpt>
      <trkpt lat="59.7844233" lon="17.6469858">
        <ele>0</ele>
        <time>2014-05-29T11:36:17Z</time>
      </trkpt>
      <trkpt lat="59.7844776" lon="17.6469971">
        <ele>0</ele>
        <time>2014-05-29T11:36:18Z</time>
      </trkpt>
      <trkpt lat="59.7845306" lon="17.647021">
        <ele>0</ele>
        <time>2014-05-29T11:36:19Z</time>
      </trkpt>
      <trkpt lat="59.7845816" lon="17.647065">
        <ele>0</ele>
        <time>2014-05-29T11:36:20Z</time>
      </trkpt>
      <trkpt lat="59.7846269" lon="17.6471283">
        <ele>0</ele>
        <time>2014-05-29T11:36:21Z</time>
      </trkpt>
      <trkpt lat="59.7846636" lon="17.6472129">
        <ele>0</ele>
        <time>2014-05-29T11:36:22Z</time>
      </trkpt>
      <trkpt lat="59.7846951" lon="17.6473008">
        <ele>0</ele>
        <time>2014-05-29T11:36:23Z</time>
      </trkpt>
      <trkpt lat="59.7847256" lon="17.6473863">
        <ele>0</ele>
        <time>2014-05-29T11:36:24Z</time>
      </trkpt>
      <trkpt lat="59.784757" lon="17.6474754">
        <ele>0</ele>
        <time>2014-05-29T11:36:25Z</time>
      </trkpt>
      <trkpt lat="59.784788" lon="17.6475659">
        <ele>0</ele>
        <time>2014-05-29T11:36:26Z</time>
      </trkpt>
      <trkpt lat="59.784819" lon="17.6476527">
        <ele>0</ele>
        <time>2014-05-29T11:36:27Z</time>
      </trkpt>
      <trkpt lat="59.7848512" lon="17.6477363">
        <ele>0</ele>
        <time>2014-05-29T11:36:28Z</time>
      </trkpt>
      <trkpt lat="59.784886" lon="17.6478178">
        <ele>0</ele>
        <time>2014-05-29T11:36:29Z</time>
      </trkpt>
      <trkpt lat="59.7849176" lon="17.6478945">
        <ele>0</ele>
        <time>2014-05-29T11:36:30Z</time>
      </trkpt>
      <trkpt lat="59.78495" lon="17.6479671">
        <ele>0</ele>
        <time>2014-05-29T11:36:31Z</time>
      </trkpt>
      <trkpt lat="59.784982" lon="17.6480329">
        <ele>0</ele>
        <time>2014-05-29T11:36:32Z</time>
      </trkpt>
      <trkpt lat="59.7850179" lon="17.6480934">
        <ele>0</ele>
        <time>2014-05-29T11:36:33Z</time>
      </trkpt>
      <trkpt lat="59.7850558" lon="17.6481494">
        <ele>0</ele>
        <time>2014-05-29T11:36:34Z</time>
      </trkpt>
      <trkpt lat="59.7850962" lon="17.6482054">
        <ele>0</ele>
        <time>2014-05-29T11:36:35Z</time>
      </trkpt>
      <trkpt lat="59.7851352" lon="17.6482684">
        <ele>0</ele>
        <time>2014-05-29T11:36:36Z</time>
      </trkpt>
      <trkpt lat="59.7851747" lon="17.6483348">
        <ele>0</ele>
        <time>2014-05-29T11:36:37Z</time>
      </trkpt>
      <trkpt lat="59.7852168" lon="17.6484036">
        <ele>0</ele>
        <time>2014-05-29T11:36:38Z</time>
      </trkpt>
      <trkpt lat="59.7852594" lon="17.64847">
        <ele>0</ele>
        <time>2014-05-29T11:36:39Z</time>
      </trkpt>
      <trkpt lat="59.7853048" lon="17.648534">
        <ele>0</ele>
        <time>2014-05-29T11:36:40Z</time>
      </trkpt>
      <trkpt lat="59.7853493" lon="17.648602">
        <ele>0</ele>
        <time>2014-05-29T11:36:41Z</time>
      </trkpt>
      <trkpt lat="59.785391" lon="17.6486746">
        <ele>0</ele>
        <time>2014-05-29T11:36:42Z</time>
      </trkpt>
      <trkpt lat="59.7854328" lon="17.6487461">
        <ele>0</ele>
        <time>2014-05-29T11:36:43Z</time>
      </trkpt>
      <trkpt lat="59.7854784" lon="17.648817">
        <ele>0</ele>
        <time>2014-05-29T11:36:44Z</time>
      </trkpt>
      <trkpt lat="59.7855278" lon="17.6488917">
        <ele>0</ele>
        <time>2014-05-29T11:36:45Z</time>
      </trkpt>
      <trkpt lat="59.785575" lon="17.6489673">
        <ele>0</ele>
        <time>2014-05-29T11:36:46Z</time>
      </trkpt>
      <trkpt lat="59.7856199" lon="17.6490713">
        <ele>0</ele>
        <time>2014-05-29T11:36:47Z</time>
      </trkpt>
      <trkpt lat="59.7856743" lon="17.6491521">
        <ele>0</ele>
        <time>2014-05-29T11:36:48Z</time>
      </trkpt>
      <trkpt lat="59.7857272" lon="17.6492367">
        <ele>0</ele>
        <time>2014-05-29T11:36:49Z</time>
      </trkpt>
      <trkpt lat="59.7857827" lon="17.6493262">
        <ele>0</ele>
        <time>2014-05-29T11:36:50Z</time>
      </trkpt>
      <trkpt lat="59.785839" lon="17.6494004">
        <ele>0</ele>
        <time>2014-05-29T11:36:51Z</time>
      </trkpt>
      <trkpt lat="59.7858969" lon="17.6494691">
        <ele>0</ele>
        <time>2014-05-29T11:36:52Z</time>
      </trkpt>
      <trkpt lat="59.7859551" lon="17.6495333">
        <ele>0</ele>
        <time>2014-05-29T11:36:53Z</time>
      </trkpt>
      <trkpt lat="59.7860105" lon="17.6495915">
        <ele>0</ele>
        <time>2014-05-29T11:36:54Z</time>
      </trkpt>
      <trkpt lat="59.7860654" lon="17.6496416">
        <ele>0</ele>
        <time>2014-05-29T11:36:55Z</time>
      </trkpt>
      <trkpt lat="59.7861234" lon="17.6496971">
        <ele>0</ele>
        <time>2014-05-29T11:36:56Z</time>
      </trkpt>
      <trkpt lat="59.7861814" lon="17.6497641">
        <ele>0</ele>
        <time>2014-05-29T11:36:57Z</time>
      </trkpt>
      <trkpt lat="59.7862331" lon="17.649821">
        <ele>0</ele>
        <time>2014-05-29T11:36:58Z</time>
      </trkpt>
      <trkpt lat="59.786283" lon="17.6498588">
        <ele>0</ele>
        <time>2014-05-29T11:36:59Z</time>
      </trkpt>
      <trkpt lat="59.7863285" lon="17.6498938">
        <ele>0</ele>
        <time>2014-05-29T11:37:00Z</time>
      </trkpt>
      <trkpt lat="59.7863695" lon="17.6499379">
        <ele>0</ele>
        <time>2014-05-29T11:37:01Z</time>
      </trkpt>
      <trkpt lat="59.7864115" lon="17.6499846">
        <ele>0</ele>
        <time>2014-05-29T11:37:02Z</time>
      </trkpt>
      <trkpt lat="59.7864534" lon="17.6500369">
        <ele>0</ele>
        <time>2014-05-29T11:37:03Z</time>
      </trkpt>
      <trkpt lat="59.786498" lon="17.6500961">
        <ele>0</ele>
        <time>2014-05-29T11:37:04Z</time>
      </trkpt>
      <trkpt lat="59.7865434" lon="17.6501649">
        <ele>0</ele>
        <time>2014-05-29T11:37:05Z</time>
      </trkpt>
      <trkpt lat="59.786586" lon="17.6502395">
        <ele>0</ele>
        <time>2014-05-29T11:37:06Z</time>
      </trkpt>
      <trkpt lat="59.7866276" lon="17.6503172">
        <ele>0</ele>
        <time>2014-05-29T11:37:07Z</time>
      </trkpt>
      <trkpt lat="59.7866675" lon="17.6503912">
        <ele>0</ele>
        <time>2014-05-29T11:37:08Z</time>
      </trkpt>
      <trkpt lat="59.7867082" lon="17.650467">
        <ele>0</ele>
        <time>2014-05-29T11:37:09Z</time>
      </trkpt>
      <trkpt lat="59.7867519" lon="17.6505286">
        <ele>0</ele>
        <time>2014-05-29T11:37:10Z</time>
      </trkpt>
      <trkpt lat="59.7867931" lon="17.6505829">
        <ele>0</ele>
        <time>2014-05-29T11:37:11Z</time>
      </trkpt>
      <trkpt lat="59.7868326" lon="17.6506498">
        <ele>0</ele>
        <time>2014-05-29T11:37:12Z</time>
      </trkpt>
      <trkpt lat="59.7868714" lon="17.6507262">
        <ele>0</ele>
        <time>2014-05-29T11:37:13Z</time>
      </trkpt>
      <trkpt lat="59.786907" lon="17.6508062">
        <ele>0</ele>
        <time>2014-05-29T11:37:14Z</time>
      </trkpt>
      <trkpt lat="59.7869445" lon="17.6508952">
        <ele>0</ele>
        <time>2014-05-29T11:37:15Z</time>
      </trkpt>
      <trkpt lat="59.7869822" lon="17.6509808">
        <ele>0</ele>
        <time>2014-05-29T11:37:16Z</time>
      </trkpt>
      <trkpt lat="59.7870226" lon="17.6510588">
        <ele>0</ele>
        <time>2014-05-29T11:37:17Z</time>
      </trkpt>
      <trkpt lat="59.7870663" lon="17.6511315">
        <ele>0</ele>
        <time>2014-05-29T11:37:18Z</time>
      </trkpt>
      <trkpt lat="59.7871142" lon="17.6511999">
        <ele>0</ele>
        <time>2014-05-29T11:37:19Z</time>
      </trkpt>
      <trkpt lat="59.7871651" lon="17.6512648">
        <ele>0</ele>
        <time>2014-05-29T11:37:20Z</time>
      </trkpt>
      <trkpt lat="59.7872197" lon="17.6513299">
        <ele>0</ele>
        <time>2014-05-29T11:37:21Z</time>
      </trkpt>
      <trkpt lat="59.7872724" lon="17.6513856">
        <ele>0</ele>
        <time>2014-05-29T11:37:22Z</time>
      </trkpt>
      <trkpt lat="59.7873225" lon="17.6514397">
        <ele>0</ele>
        <time>2014-05-29T11:37:23Z</time>
      </trkpt>
      <trkpt lat="59.7873661" lon="17.651497">
        <ele>0</ele>
        <time>2014-05-29T11:37:24Z</time>
      </trkpt>
      <trkpt lat="59.787408" lon="17.6515619">
        <ele>0</ele>
        <time>2014-05-29T11:37:25Z</time>
      </trkpt>
      <trkpt lat="59.7874485" lon="17.6516299">
        <ele>0</ele>
        <time>2014-05-29T11:37:26Z</time>
      </trkpt>
      <trkpt lat="59.7874899" lon="17.6516967">
        <ele>0</ele>
        <time>2014-05-29T11:37:27Z</time>
      </trkpt>
      <trkpt lat="59.7875327" lon="17.6517557">
        <ele>0</ele>
        <time>2014-05-29T11:37:28Z</time>
      </trkpt>
      <trkpt lat="59.7875703" lon="17.6518218">
        <ele>0</ele>
        <time>2014-05-29T11:37:29Z</time>
      </trkpt>
      <trkpt lat="59.7875986" lon="17.6519012">
        <ele>0</ele>
        <time>2014-05-29T11:37:30Z</time>
      </trkpt>
      <trkpt lat="59.7876194" lon="17.6519909">
        <ele>0</ele>
        <time>2014-05-29T11:37:31Z</time>
      </trkpt>
      <trkpt lat="59.7876356" lon="17.6520857">
        <ele>0</ele>
        <time>2014-05-29T11:37:32Z</time>
      </trkpt>
      <trkpt lat="59.7876484" lon="17.6521875">
        <ele>0</ele>
        <time>2014-05-29T11:37:33Z</time>
      </trkpt>
      <trkpt lat="59.7876562" lon="17.6522914">
        <ele>0</ele>
        <time>2014-05-29T11:37:34Z</time>
      </trkpt>
      <trkpt lat="59.7876558" lon="17.6523943">
        <ele>0</ele>
        <time>2014-05-29T11:37:35Z</time>
      </trkpt>
      <trkpt lat="59.7876475" lon="17.6524996">
        <ele>0</ele>
        <time>2014-05-29T11:37:36Z</time>
      </trkpt>
      <trkpt lat="59.7876384" lon="17.6526069">
        <ele>0</ele>
        <time>2014-05-29T11:37:37Z</time>
      </trkpt>
      <trkpt lat="59.7876278" lon="17.6527213">
        <ele>0</ele>
        <time>2014-05-29T11:37:38Z</time>
      </trkpt>
      <trkpt lat="59.7876192" lon="17.6528405">
        <ele>0</ele>
        <time>2014-05-29T11:37:39Z</time>
      </trkpt>
      <trkpt lat="59.7876136" lon="17.6529602">
        <ele>0</ele>
        <time>2014-05-29T11:37:40Z</time>
      </trkpt>
      <trkpt lat="59.7876096" lon="17.6530804">
        <ele>0</ele>
        <time>2014-05-29T11:37:41Z</time>
      </trkpt>
      <trkpt lat="59.7876012" lon="17.6532003">
        <ele>0</ele>
        <time>2014-05-29T11:37:42Z</time>
      </trkpt>
      <trkpt lat="59.7875853" lon="17.6533164">
        <ele>0</ele>
        <time>2014-05-29T11:37:43Z</time>
      </trkpt>
      <trkpt lat="59.7875682" lon="17.6534303">
        <ele>0</ele>
        <time>2014-05-29T11:37:44Z</time>
      </trkpt>
      <trkpt lat="59.7875578" lon="17.653547">
        <ele>0</ele>
        <time>2014-05-29T11:37:45Z</time>
      </trkpt>
      <trkpt lat="59.7875562" lon="17.6536662">
        <ele>0.137451</ele>
        <time>2014-05-29T11:37:46Z</time>
      </trkpt>
      <trkpt lat="59.7875594" lon="17.6537868">
        <ele>0.137451</ele>
        <time>2014-05-29T11:37:47Z</time>
      </trkpt>
      <trkpt lat="59.7875646" lon="17.6539084">
        <ele>0</ele>
        <time>2014-05-29T11:37:48Z</time>
      </trkpt>
      <trkpt lat="59.7875743" lon="17.6540316">
        <ele>0.137451</ele>
        <time>2014-05-29T11:37:49Z</time>
      </trkpt>
      <trkpt lat="59.787585" lon="17.6541544">
        <ele>0.137451</ele>
        <time>2014-05-29T11:37:50Z</time>
      </trkpt>
      <trkpt lat="59.7875933" lon="17.6542768">
        <ele>0.137451</ele>
        <time>2014-05-29T11:37:51Z</time>
      </trkpt>
      <trkpt lat="59.7876014" lon="17.6543944">
        <ele>0.137451</ele>
        <time>2014-05-29T11:37:52Z</time>
      </trkpt>
      <trkpt lat="59.7876081" lon="17.6545068">
        <ele>0.137451</ele>
        <time>2014-05-29T11:37:53Z</time>
      </trkpt>
      <trkpt lat="59.7876142" lon="17.6546157">
        <ele>0.137451</ele>
        <time>2014-05-29T11:37:54Z</time>
      </trkpt>
      <trkpt lat="59.7876187" lon="17.654718">
        <ele>0.137451</ele>
        <time>2014-05-29T11:37:55Z</time>
      </trkpt>
      <trkpt lat="59.7876258" lon="17.6548159">
        <ele>0</ele>
        <time>2014-05-29T11:37:56Z</time>
      </trkpt>
      <trkpt lat="59.7876351" lon="17.6549133">
        <ele>0.137451</ele>
        <time>2014-05-29T11:37:57Z</time>
      </trkpt>
      <trkpt lat="59.7876509" lon="17.6550056">
        <ele>0</ele>
        <time>2014-05-29T11:37:58Z</time>
      </trkpt>
      <trkpt lat="59.7876653" lon="17.6551013">
        <ele>0.137451</ele>
        <time>2014-05-29T11:37:59Z</time>
      </trkpt>
      <trkpt lat="59.7876749" lon="17.6551964">
        <ele>0.137451</ele>
        <time>2014-05-29T11:38:00Z</time>
      </trkpt>
      <trkpt lat="59.7876745" lon="17.6552925">
        <ele>0.137451</ele>
        <time>2014-05-29T11:38:01Z</time>
      </trkpt>
      <trkpt lat="59.7876657" lon="17.6553843">
        <ele>0</ele>
        <time>2014-05-29T11:38:02Z</time>
      </trkpt>
      <trkpt lat="59.7876536" lon="17.6554708">
        <ele>0.137451</ele>
        <time>2014-05-29T11:38:03Z</time>
      </trkpt>
      <trkpt lat="59.787638" lon="17.6555517">
        <ele>0.618042</ele>
        <time>2014-05-29T11:38:04Z</time>
      </trkpt>
      <trkpt lat="59.787623" lon="17.6556189">
        <ele>0.618042</ele>
        <time>2014-05-29T11:38:05Z</time>
      </trkpt>
      <trkpt lat="59.7876094" lon="17.6556772">
        <ele>0.618042</ele>
        <time>2014-05-29T11:38:06Z</time>
      </trkpt>
      <trkpt lat="59.7875934" lon="17.6557393">
        <ele>0.618042</ele>
        <time>2014-05-29T11:38:07Z</time>
      </trkpt>
      <trkpt lat="59.7875708" lon="17.6558008">
        <ele>0.618042</ele>
        <time>2014-05-29T11:38:08Z</time>
      </trkpt>
      <trkpt lat="59.7875447" lon="17.6558541">
        <ele>0.618042</ele>
        <time>2014-05-29T11:38:09Z</time>
      </trkpt>
      <trkpt lat="59.787523" lon="17.6559008">
        <ele>0.618042</ele>
        <time>2014-05-29T11:38:10Z</time>
      </trkpt>
      <trkpt lat="59.7875019" lon="17.6559572">
        <ele>0.618042</ele>
        <time>2014-05-29T11:38:11Z</time>
      </trkpt>
      <trkpt lat="59.7874835" lon="17.6560214">
        <ele>1.09863</ele>
        <time>2014-05-29T11:38:12Z</time>
      </trkpt>
      <trkpt lat="59.7874697" lon="17.6560821">
        <ele>1.09863</ele>
        <time>2014-05-29T11:38:13Z</time>
      </trkpt>
      <trkpt lat="59.7874573" lon="17.6561438">
        <ele>1.09863</ele>
        <time>2014-05-29T11:38:14Z</time>
      </trkpt>
      <trkpt lat="59.7874498" lon="17.6562119">
        <ele>1.09863</ele>
        <time>2014-05-29T11:38:15Z</time>
      </trkpt>
      <trkpt lat="59.7874485" lon="17.656283">
        <ele>1.57935</ele>
        <time>2014-05-29T11:38:16Z</time>
      </trkpt>
      <trkpt lat="59.7874507" lon="17.6563555">
        <ele>1.57935</ele>
        <time>2014-05-29T11:38:17Z</time>
      </trkpt>
      <trkpt lat="59.7874552" lon="17.6564328">
        <ele>1.57935</ele>
        <time>2014-05-29T11:38:18Z</time>
      </trkpt>
      <trkpt lat="59.7874595" lon="17.6565167">
        <ele>1.09863</ele>
        <time>2014-05-29T11:38:19Z</time>
      </trkpt>
      <trkpt lat="59.7874659" lon="17.6566021">
        <ele>1.09863</ele>
        <time>2014-05-29T11:38:20Z</time>
      </trkpt>
      <trkpt lat="59.7874826" lon="17.6566784">
        <ele>1.57935</ele>
        <time>2014-05-29T11:38:21Z</time>
      </trkpt>
      <trkpt lat="59.7875103" lon="17.6567374">
        <ele>1.57935</ele>
        <time>2014-05-29T11:38:22Z</time>
      </trkpt>
      <trkpt lat="59.7875438" lon="17.6567882">
        <ele>1.57935</ele>
        <time>2014-05-29T11:38:23Z</time>
      </trkpt>
      <trkpt lat="59.7875723" lon="17.6568482">
        <ele>1.57935</ele>
        <time>2014-05-29T11:38:24Z</time>
      </trkpt>
      <trkpt lat="59.7875869" lon="17.6569146">
        <ele>1.57935</ele>
        <time>2014-05-29T11:38:25Z</time>
      </trkpt>
      <trkpt lat="59.7875873" lon="17.6569824">
        <ele>1.57935</ele>
        <time>2014-05-29T11:38:26Z</time>
      </trkpt>
      <trkpt lat="59.7875759" lon="17.6570492">
        <ele>1.09863</ele>
        <time>2014-05-29T11:38:27Z</time>
      </trkpt>
      <trkpt lat="59.7875521" lon="17.6571069">
        <ele>1.57935</ele>
        <time>2014-05-29T11:38:28Z</time>
      </trkpt>
      <trkpt lat="59.7875173" lon="17.6571374">
        <ele>1.57935</ele>
        <time>2014-05-29T11:38:29Z</time>
      </trkpt>
      <trkpt lat="59.7874737" lon="17.6571544">
        <ele>1.57935</ele>
        <time>2014-05-29T11:38:30Z</time>
      </trkpt>
      <trkpt lat="59.7874274" lon="17.6571713">
        <ele>1.57935</ele>
        <time>2014-05-29T11:38:31Z</time>
      </trkpt>
      <trkpt lat="59.7873795" lon="17.6571905">
        <ele>1.57935</ele>
        <time>2014-05-29T11:38:32Z</time>
      </trkpt>
      <trkpt lat="59.7873297" lon="17.657214">
        <ele>1.57935</ele>
        <time>2014-05-29T11:38:33Z</time>
      </trkpt>
      <trkpt lat="59.7872786" lon="17.6572374">
        <ele>1.57935</ele>
        <time>2014-05-29T11:38:34Z</time>
      </trkpt>
      <trkpt lat="59.7872269" lon="17.6572557">
        <ele>1.57935</ele>
        <time>2014-05-29T11:38:35Z</time>
      </trkpt>
      <trkpt lat="59.7871751" lon="17.6572723">
        <ele>1.57935</ele>
        <time>2014-05-29T11:38:36Z</time>
      </trkpt>
      <trkpt lat="59.7871232" lon="17.6572932">
        <ele>1.57935</ele>
        <time>2014-05-29T11:38:37Z</time>
      </trkpt>
      <trkpt lat="59.7870714" lon="17.6573222">
        <ele>1.57935</ele>
        <time>2014-05-29T11:38:38Z</time>
      </trkpt>
      <trkpt lat="59.7870181" lon="17.6573544">
        <ele>1.57935</ele>
        <time>2014-05-29T11:38:39Z</time>
      </trkpt>
      <trkpt lat="59.7869642" lon="17.6573896">
        <ele>1.09863</ele>
        <time>2014-05-29T11:38:40Z</time>
      </trkpt>
      <trkpt lat="59.7869113" lon="17.6574401">
        <ele>1.09863</ele>
        <time>2014-05-29T11:38:41Z</time>
      </trkpt>
      <trkpt lat="59.7868609" lon="17.6575066">
        <ele>1.09863</ele>
        <time>2014-05-29T11:38:42Z</time>
      </trkpt>
      <trkpt lat="59.786812" lon="17.6575802">
        <ele>1.09863</ele>
        <time>2014-05-29T11:38:43Z</time>
      </trkpt>
      <trkpt lat="59.7867673" lon="17.6576651">
        <ele>1.57935</ele>
        <time>2014-05-29T11:38:44Z</time>
      </trkpt>
      <trkpt lat="59.7867345" lon="17.657761">
        <ele>1.57935</ele>
        <time>2014-05-29T11:38:45Z</time>
      </trkpt>
      <trkpt lat="59.7867184" lon="17.6578624">
        <ele>2.06006</ele>
        <time>2014-05-29T11:38:46Z</time>
      </trkpt>
      <trkpt lat="59.7867232" lon="17.6579531">
        <ele>2.54065</ele>
        <time>2014-05-29T11:38:47Z</time>
      </trkpt>
      <trkpt lat="59.7867409" lon="17.6580274">
        <ele>2.54065</ele>
        <time>2014-05-29T11:38:48Z</time>
      </trkpt>
      <trkpt lat="59.7867628" lon="17.6580942">
        <ele>3.02124</ele>
        <time>2014-05-29T11:38:49Z</time>
      </trkpt>
      <trkpt lat="59.7867866" lon="17.6581548">
        <ele>3.50195</ele>
        <time>2014-05-29T11:38:50Z</time>
      </trkpt>
      <trkpt lat="59.7868113" lon="17.6582075">
        <ele>3.50195</ele>
        <time>2014-05-29T11:38:51Z</time>
      </trkpt>
      <trkpt lat="59.7868377" lon="17.6582543">
        <ele>3.98267</ele>
        <time>2014-05-29T11:38:52Z</time>
      </trkpt>
      <trkpt lat="59.7868596" lon="17.6583024">
        <ele>3.98267</ele>
        <time>2014-05-29T11:38:53Z</time>
      </trkpt>
      <trkpt lat="59.7868741" lon="17.6583556">
        <ele>4.46326</ele>
        <time>2014-05-29T11:38:54Z</time>
      </trkpt>
      <trkpt lat="59.7868813" lon="17.6584136">
        <ele>4.94385</ele>
        <time>2014-05-29T11:38:55Z</time>
      </trkpt>
      <trkpt lat="59.7868832" lon="17.6584695">
        <ele>4.94385</ele>
        <time>2014-05-29T11:38:56Z</time>
      </trkpt>
      <trkpt lat="59.7868829" lon="17.6585251">
        <ele>4.94385</ele>
        <time>2014-05-29T11:38:57Z</time>
      </trkpt>
      <trkpt lat="59.7868809" lon="17.6585822">
        <ele>5.42456</ele>
        <time>2014-05-29T11:38:58Z</time>
      </trkpt>
      <trkpt lat="59.7868776" lon="17.6586401">
        <ele>5.42456</ele>
        <time>2014-05-29T11:38:59Z</time>
      </trkpt>
      <trkpt lat="59.7868751" lon="17.6586975">
        <ele>5.42456</ele>
        <time>2014-05-29T11:39:00Z</time>
      </trkpt>
      <trkpt lat="59.7868733" lon="17.6587578">
        <ele>5.42456</ele>
        <time>2014-05-29T11:39:01Z</time>
      </trkpt>
      <trkpt lat="59.7868736" lon="17.6588265">
        <ele>5.42456</ele>
        <time>2014-05-29T11:39:02Z</time>
      </trkpt>
      <trkpt lat="59.7868777" lon="17.6588974">
        <ele>5.42456</ele>
        <time>2014-05-29T11:39:03Z</time>
      </trkpt>
      <trkpt lat="59.7868879" lon="17.6589639">
        <ele>5.42456</ele>
        <time>2014-05-29T11:39:04Z</time>
      </trkpt>
      <trkpt lat="59.7869016" lon="17.6590243">
        <ele>5.42456</ele>
        <time>2014-05-29T11:39:05Z</time>
      </trkpt>
      <trkpt lat="59.7869145" lon="17.6590761">
        <ele>5.42456</ele>
        <time>2014-05-29T11:39:06Z</time>
      </trkpt>
      <trkpt lat="59.7869284" lon="17.6591099">
        <ele>5.42456</ele>
        <time>2014-05-29T11:39:07Z</time>
      </trkpt>
      <trkpt lat="59.7869438" lon="17.6591291">
        <ele>5.42456</ele>
        <time>2014-05-29T11:39:08Z</time>
      </trkpt>
      <trkpt lat="59.786958" lon="17.6591496">
        <ele>5.42456</ele>
        <time>2014-05-29T11:39:09Z</time>
      </trkpt>
      <trkpt lat="59.7869683" lon="17.6591861">
        <ele>5.42456</ele>
        <time>2014-05-29T11:39:10Z</time>
      </trkpt>
      <trkpt lat="59.7869729" lon="17.6592317">
        <ele>4.94385</ele>
        <time>2014-05-29T11:39:11Z</time>
      </trkpt>
      <trkpt lat="59.7869759" lon="17.6592837">
        <ele>4.94385</ele>
        <time>2014-05-29T11:39:12Z</time>
      </trkpt>
      <trkpt lat="59.786987" lon="17.6593392">
        <ele>4.94385</ele>
        <time>2014-05-29T11:39:13Z</time>
      </trkpt>
      <trkpt lat="59.7870102" lon="17.6593889">
        <ele>4.94385</ele>
        <time>2014-05-29T11:39:14Z</time>
      </trkpt>
      <trkpt lat="59.787045" lon="17.6594238">
        <ele>4.46326</ele>
        <time>2014-05-29T11:39:15Z</time>
      </trkpt>
      <trkpt lat="59.7870822" lon="17.6594449">
        <ele>4.46326</ele>
        <time>2014-05-29T11:39:16Z</time>
      </trkpt>
      <trkpt lat="59.787121" lon="17.6594435">
        <ele>3.98267</ele>
        <time>2014-05-29T11:39:17Z</time>
      </trkpt>
      <trkpt lat="59.7871589" lon="17.6594459">
        <ele>3.50195</ele>
        <time>2014-05-29T11:39:18Z</time>
      </trkpt>
      <trkpt lat="59.7871965" lon="17.6594348">
        <ele>3.02124</ele>
        <time>2014-05-29T11:39:19Z</time>
      </trkpt>
      <trkpt lat="59.7872369" lon="17.659442">
        <ele>3.02124</ele>
        <time>2014-05-29T11:39:20Z</time>
      </trkpt>
      <trkpt lat="59.7872714" lon="17.6594766">
        <ele>2.54065</ele>
        <time>2014-05-29T11:39:21Z</time>
      </trkpt>
      <trkpt lat="59.7873071" lon="17.6595361">
        <ele>2.06006</ele>
        <time>2014-05-29T11:39:22Z</time>
      </trkpt>
      <trkpt lat="59.7873387" lon="17.6596176">
        <ele>2.06006</ele>
        <time>2014-05-29T11:39:23Z</time>
      </trkpt>
      <trkpt lat="59.7873567" lon="17.6597111">
        <ele>1.57935</ele>
        <time>2014-05-29T11:39:24Z</time>
      </trkpt>
      <trkpt lat="59.7873759" lon="17.6598043">
        <ele>1.57935</ele>
        <time>2014-05-29T11:39:25Z</time>
      </trkpt>
      <trkpt lat="59.7874006" lon="17.6598938">
        <ele>2.06006</ele>
        <time>2014-05-29T11:39:26Z</time>
      </trkpt>
      <trkpt lat="59.7874288" lon="17.6599785">
        <ele>2.06006</ele>
        <time>2014-05-29T11:39:27Z</time>
      </trkpt>
      <trkpt lat="59.7874589" lon="17.6600642">
        <ele>2.54065</ele>
        <time>2014-05-29T11:39:28Z</time>
      </trkpt>
      <trkpt lat="59.7874875" lon="17.6601525">
        <ele>3.02124</ele>
        <time>2014-05-29T11:39:29Z</time>
      </trkpt>
      <trkpt lat="59.7875131" lon="17.6602431">
        <ele>3.02124</ele>
        <time>2014-05-29T11:39:30Z</time>
      </trkpt>
      <trkpt lat="59.7875382" lon="17.6603298">
        <ele>3.50195</ele>
        <time>2014-05-29T11:39:31Z</time>
      </trkpt>
      <trkpt lat="59.787563" lon="17.6604148">
        <ele>3.50195</ele>
        <time>2014-05-29T11:39:32Z</time>
      </trkpt>
      <trkpt lat="59.7875873" lon="17.6605014">
        <ele>3.50195</ele>
        <time>2014-05-29T11:39:33Z</time>
      </trkpt>
      <trkpt lat="59.7876127" lon="17.6605893">
        <ele>3.02124</ele>
        <time>2014-05-29T11:39:34Z</time>
      </trkpt>
      <trkpt lat="59.7876407" lon="17.6606753">
        <ele>3.02124</ele>
        <time>2014-05-29T11:39:35Z</time>
      </trkpt>
      <trkpt lat="59.78767" lon="17.6607568">
        <ele>3.02124</ele>
        <time>2014-05-29T11:39:36Z</time>
      </trkpt>
      <trkpt lat="59.7876921" lon="17.6608307">
        <ele>2.54065</ele>
        <time>2014-05-29T11:39:37Z</time>
      </trkpt>
      <trkpt lat="59.7877099" lon="17.6608717">
        <ele>2.54065</ele>
        <time>2014-05-29T11:39:38Z</time>
      </trkpt>
      <trkpt lat="59.7877182" lon="17.660879">
        <ele>2.54065</ele>
        <time>2014-05-29T11:39:39Z</time>
      </trkpt>
      <trkpt lat="59.7877182" lon="17.6608829">
        <ele>2.54065</ele>
        <time>2014-05-29T11:39:40Z</time>
      </trkpt>
      <trkpt lat="59.7877183" lon="17.6608823">
        <ele>2.54065</ele>
        <time>2014-05-29T11:39:41Z</time>
      </trkpt>
      <trkpt lat="59.7877477" lon="17.6609339">
        <ele>4.94385</ele>
        <time>2014-05-29T11:39:54Z</time>
      </trkpt>
      <trkpt lat="59.7877649" lon="17.6609473">
        <ele>4.94385</ele>
        <time>2014-05-29T11:39:55Z</time>
      </trkpt>
      <trkpt lat="59.787785" lon="17.6609336">
        <ele>4.94385</ele>
        <time>2014-05-29T11:39:56Z</time>
      </trkpt>
      <trkpt lat="59.7878007" lon="17.6609003">
        <ele>4.94385</ele>
        <time>2014-05-29T11:39:57Z</time>
      </trkpt>
      <trkpt lat="59.7878173" lon="17.6608696">
        <ele>5.42456</ele>
        <time>2014-05-29T11:39:58Z</time>
      </trkpt>
      <trkpt lat="59.7878361" lon="17.6608523">
        <ele>5.42456</ele>
        <time>2014-05-29T11:39:59Z</time>
      </trkpt>
      <trkpt lat="59.7878546" lon="17.6608518">
        <ele>5.42456</ele>
        <time>2014-05-29T11:40:00Z</time>
      </trkpt>
      <trkpt lat="59.7878738" lon="17.6608581">
        <ele>5.90527</ele>
        <time>2014-05-29T11:40:01Z</time>
      </trkpt>
      <trkpt lat="59.7878888" lon="17.6608686">
        <ele>5.90527</ele>
        <time>2014-05-29T11:40:02Z</time>
      </trkpt>
      <trkpt lat="59.7879034" lon="17.660885">
        <ele>6.38586</ele>
        <time>2014-05-29T11:40:03Z</time>
      </trkpt>
      <trkpt lat="59.7879216" lon="17.6609015">
        <ele>6.86646</ele>
        <time>2014-05-29T11:40:04Z</time>
      </trkpt>
      <trkpt lat="59.7879386" lon="17.6609144">
        <ele>7.34717</ele>
        <time>2014-05-29T11:40:05Z</time>
      </trkpt>
      <trkpt lat="59.7879545" lon="17.6609318">
        <ele>7.82788</ele>
        <time>2014-05-29T11:40:06Z</time>
      </trkpt>
      <trkpt lat="59.7879687" lon="17.6609494">
        <ele>8.30859</ele>
        <time>2014-05-29T11:40:07Z</time>
      </trkpt>
      <trkpt lat="59.787981" lon="17.660969">
        <ele>8.78918</ele>
        <time>2014-05-29T11:40:08Z</time>
      </trkpt>
      <trkpt lat="59.7879954" lon="17.6609901">
        <ele>8.78918</ele>
        <time>2014-05-29T11:40:09Z</time>
      </trkpt>
      <trkpt lat="59.7880124" lon="17.6610167">
        <ele>9.2699</ele>
        <time>2014-05-29T11:40:10Z</time>
      </trkpt>
      <trkpt lat="59.7880302" lon="17.6610452">
        <ele>9.75061</ele>
        <time>2014-05-29T11:40:11Z</time>
      </trkpt>
      <trkpt lat="59.7880489" lon="17.6610778">
        <ele>9.75061</ele>
        <time>2014-05-29T11:40:12Z</time>
      </trkpt>
      <trkpt lat="59.788071" lon="17.6611135">
        <ele>10.2312</ele>
        <time>2014-05-29T11:40:13Z</time>
      </trkpt>
      <trkpt lat="59.7880954" lon="17.6611501">
        <ele>10.2312</ele>
        <time>2014-05-29T11:40:14Z</time>
      </trkpt>
      <trkpt lat="59.7881167" lon="17.6611845">
        <ele>10.7118</ele>
        <time>2014-05-29T11:40:15Z</time>
      </trkpt>
      <trkpt lat="59.7881381" lon="17.6612105">
        <ele>10.2312</ele>
        <time>2014-05-29T11:40:16Z</time>
      </trkpt>
      <trkpt lat="59.7881639" lon="17.6612358">
        <ele>10.7118</ele>
        <time>2014-05-29T11:40:17Z</time>
      </trkpt>
      <trkpt lat="59.7881898" lon="17.6612628">
        <ele>10.7118</ele>
        <time>2014-05-29T11:40:18Z</time>
      </trkpt>
      <trkpt lat="59.7882118" lon="17.6612879">
        <ele>10.7118</ele>
        <time>2014-05-29T11:40:19Z</time>
      </trkpt>
      <trkpt lat="59.7882359" lon="17.661312">
        <ele>10.7118</ele>
        <time>2014-05-29T11:40:20Z</time>
      </trkpt>
      <trkpt lat="59.7882628" lon="17.6613392">
        <ele>11.1925</ele>
        <time>2014-05-29T11:40:21Z</time>
      </trkpt>
      <trkpt lat="59.7882919" lon="17.6613637">
        <ele>11.1925</ele>
        <time>2014-05-29T11:40:22Z</time>
      </trkpt>
      <trkpt lat="59.7883204" lon="17.661388">
        <ele>11.1925</ele>
        <time>2014-05-29T11:40:23Z</time>
      </trkpt>
      <trkpt lat="59.7883487" lon="17.6614149">
        <ele>11.1925</ele>
        <time>2014-05-29T11:40:24Z</time>
      </trkpt>
      <trkpt lat="59.7883737" lon="17.6614503">
        <ele>11.6732</ele>
        <time>2014-05-29T11:40:25Z</time>
      </trkpt>
      <trkpt lat="59.7884046" lon="17.661486">
        <ele>12.1538</ele>
        <time>2014-05-29T11:40:26Z</time>
      </trkpt>
      <trkpt lat="59.7884332" lon="17.6615314">
        <ele>12.1538</ele>
        <time>2014-05-29T11:40:27Z</time>
      </trkpt>
      <trkpt lat="59.7884606" lon="17.6615794">
        <ele>12.6344</ele>
        <time>2014-05-29T11:40:28Z</time>
      </trkpt>
      <trkpt lat="59.7884888" lon="17.6616213">
        <ele>13.1151</ele>
        <time>2014-05-29T11:40:29Z</time>
      </trkpt>
      <trkpt lat="59.7885135" lon="17.6616627">
        <ele>13.5958</ele>
        <time>2014-05-29T11:40:30Z</time>
      </trkpt>
      <trkpt lat="59.7885411" lon="17.661707">
        <ele>14.557</ele>
        <time>2014-05-29T11:40:31Z</time>
      </trkpt>
      <trkpt lat="59.7885657" lon="17.6617505">
        <ele>15.0377</ele>
        <time>2014-05-29T11:40:32Z</time>
      </trkpt>
      <trkpt lat="59.7885822" lon="17.6617973">
        <ele>15.0377</ele>
        <time>2014-05-29T11:40:33Z</time>
      </trkpt>
      <trkpt lat="59.7885976" lon="17.6618446">
        <ele>15.0377</ele>
        <time>2014-05-29T11:40:34Z</time>
      </trkpt>
      <trkpt lat="59.7886135" lon="17.6618964">
        <ele>15.5184</ele>
        <time>2014-05-29T11:40:35Z</time>
      </trkpt>
      <trkpt lat="59.7886274" lon="17.6619474">
        <ele>15.5184</ele>
        <time>2014-05-29T11:40:36Z</time>
      </trkpt>
      <trkpt lat="59.78864" lon="17.6619992">
        <ele>15.999</ele>
        <time>2014-05-29T11:40:37Z</time>
      </trkpt>
      <trkpt lat="59.7886519" lon="17.6620487">
        <ele>15.999</ele>
        <time>2014-05-29T11:40:38Z</time>
      </trkpt>
      <trkpt lat="59.7886656" lon="17.6620936">
        <ele>15.999</ele>
        <time>2014-05-29T11:40:39Z</time>
      </trkpt>
      <trkpt lat="59.7886818" lon="17.6621273">
        <ele>15.999</ele>
        <time>2014-05-29T11:40:40Z</time>
      </trkpt>
      <trkpt lat="59.7886972" lon="17.6621583">
        <ele>16.4797</ele>
        <time>2014-05-29T11:40:41Z</time>
      </trkpt>
      <trkpt lat="59.7887073" lon="17.6621875">
        <ele>16.4797</ele>
        <time>2014-05-29T11:40:42Z</time>
      </trkpt>
      <trkpt lat="59.7887164" lon="17.662216">
        <ele>16.4797</ele>
        <time>2014-05-29T11:40:43Z</time>
      </trkpt>
      <trkpt lat="59.7887279" lon="17.662239">
        <ele>16.4797</ele>
        <time>2014-05-29T11:40:44Z</time>
      </trkpt>
      <trkpt lat="59.7887403" lon="17.6622605">
        <ele>16.4797</ele>
        <time>2014-05-29T11:40:45Z</time>
      </trkpt>
      <trkpt lat="59.7887517" lon="17.6622804">
        <ele>16.4797</ele>
        <time>2014-05-29T11:40:46Z</time>
      </trkpt>
      <trkpt lat="59.7887642" lon="17.6622941">
        <ele>15.999</ele>
        <time>2014-05-29T11:40:47Z</time>
      </trkpt>
      <trkpt lat="59.7887782" lon="17.6623072">
        <ele>16.4797</ele>
        <time>2014-05-29T11:40:48Z</time>
      </trkpt>
      <trkpt lat="59.7887926" lon="17.6623159">
        <ele>16.4797</ele>
        <time>2014-05-29T11:40:49Z</time>
      </trkpt>
      <trkpt lat="59.7888046" lon="17.6623224">
        <ele>15.999</ele>
        <time>2014-05-29T11:40:50Z</time>
      </trkpt>
      <trkpt lat="59.7888179" lon="17.6623293">
        <ele>15.999</ele>
        <time>2014-05-29T11:40:51Z</time>
      </trkpt>
      <trkpt lat="59.7888312" lon="17.6623353">
        <ele>15.5184</ele>
        <time>2014-05-29T11:40:52Z</time>
      </trkpt>
      <trkpt lat="59.7888455" lon="17.6623422">
        <ele>15.5184</ele>
        <time>2014-05-29T11:40:53Z</time>
      </trkpt>
      <trkpt lat="59.7888586" lon="17.662348">
        <ele>15.0377</ele>
        <time>2014-05-29T11:40:54Z</time>
      </trkpt>
      <trkpt lat="59.7888725" lon="17.6623457">
        <ele>14.557</ele>
        <time>2014-05-29T11:40:55Z</time>
      </trkpt>
      <trkpt lat="59.7888901" lon="17.6623403">
        <ele>14.0764</ele>
        <time>2014-05-29T11:40:56Z</time>
      </trkpt>
      <trkpt lat="59.7889115" lon="17.662333">
        <ele>13.5958</ele>
        <time>2014-05-29T11:40:57Z</time>
      </trkpt>
      <trkpt lat="59.7889373" lon="17.6623257">
        <ele>13.1151</ele>
        <time>2014-05-29T11:40:58Z</time>
      </trkpt>
      <trkpt lat="59.7889611" lon="17.6623143">
        <ele>12.6344</ele>
        <time>2014-05-29T11:40:59Z</time>
      </trkpt>
      <trkpt lat="59.7889837" lon="17.6623023">
        <ele>12.1538</ele>
        <time>2014-05-29T11:41:00Z</time>
      </trkpt>
      <trkpt lat="59.7890087" lon="17.6622893">
        <ele>11.6732</ele>
        <time>2014-05-29T11:41:01Z</time>
      </trkpt>
      <trkpt lat="59.7890383" lon="17.662269">
        <ele>10.2312</ele>
        <time>2014-05-29T11:41:02Z</time>
      </trkpt>
      <trkpt lat="59.7890728" lon="17.6622589">
        <ele>10.2312</ele>
        <time>2014-05-29T11:41:03Z</time>
      </trkpt>
      <trkpt lat="59.7891024" lon="17.6622509">
        <ele>9.75061</ele>
        <time>2014-05-29T11:41:04Z</time>
      </trkpt>
      <trkpt lat="59.7891292" lon="17.6622413">
        <ele>8.78918</ele>
        <time>2014-05-29T11:41:05Z</time>
      </trkpt>
      <trkpt lat="59.7891553" lon="17.6622356">
        <ele>7.82788</ele>
        <time>2014-05-29T11:41:06Z</time>
      </trkpt>
      <trkpt lat="59.7891803" lon="17.6622289">
        <ele>6.86646</ele>
        <time>2014-05-29T11:41:07Z</time>
      </trkpt>
      <trkpt lat="59.789202" lon="17.6622277">
        <ele>6.38586</ele>
        <time>2014-05-29T11:41:08Z</time>
      </trkpt>
      <trkpt lat="59.7892267" lon="17.6622354">
        <ele>5.90527</ele>
        <time>2014-05-29T11:41:09Z</time>
      </trkpt>
      <trkpt lat="59.7892549" lon="17.6622453">
        <ele>4.94385</ele>
        <time>2014-05-29T11:41:10Z</time>
      </trkpt>
      <trkpt lat="59.789288" lon="17.6622604">
        <ele>3.98267</ele>
        <time>2014-05-29T11:41:11Z</time>
      </trkpt>
      <trkpt lat="59.7893264" lon="17.6622911">
        <ele>3.02124</ele>
        <time>2014-05-29T11:41:12Z</time>
      </trkpt>
      <trkpt lat="59.789362" lon="17.6623424">
        <ele>2.06006</ele>
        <time>2014-05-29T11:41:13Z</time>
      </trkpt>
      <trkpt lat="59.7893963" lon="17.6624108">
        <ele>1.09863</ele>
        <time>2014-05-29T11:41:14Z</time>
      </trkpt>
      <trkpt lat="59.7894346" lon="17.6624722">
        <ele>0</ele>
        <time>2014-05-29T11:41:15Z</time>
      </trkpt>
      <trkpt lat="59.7894856" lon="17.6625232">
        <ele>0</ele>
        <time>2014-05-29T11:41:16Z</time>
      </trkpt>
      <trkpt lat="59.7895393" lon="17.6625599">
        <ele>0</ele>
        <time>2014-05-29T11:41:17Z</time>
      </trkpt>
      <trkpt lat="59.7895941" lon="17.6625935">
        <ele>0</ele>
        <time>2014-05-29T11:41:18Z</time>
      </trkpt>
      <trkpt lat="59.7896484" lon="17.6626292">
        <ele>0</ele>
        <time>2014-05-29T11:41:19Z</time>
      </trkpt>
      <trkpt lat="59.7897025" lon="17.6626655">
        <ele>0</ele>
        <time>2014-05-29T11:41:20Z</time>
      </trkpt>
      <trkpt lat="59.7897501" lon="17.6626986">
        <ele>0</ele>
        <time>2014-05-29T11:41:21Z</time>
      </trkpt>
      <trkpt lat="59.7897957" lon="17.6627235">
        <ele>0</ele>
        <time>2014-05-29T11:41:22Z</time>
      </trkpt>
      <trkpt lat="59.7898474" lon="17.6627446">
        <ele>0</ele>
        <time>2014-05-29T11:41:23Z</time>
      </trkpt>
      <trkpt lat="59.7898988" lon="17.6627656">
        <ele>0</ele>
        <time>2014-05-29T11:41:24Z</time>
      </trkpt>
      <trkpt lat="59.7899524" lon="17.6627909">
        <ele>0</ele>
        <time>2014-05-29T11:41:25Z</time>
      </trkpt>
      <trkpt lat="59.7900002" lon="17.6628095">
        <ele>0</ele>
        <time>2014-05-29T11:41:26Z</time>
      </trkpt>
      <trkpt lat="59.7900505" lon="17.6628375">
        <ele>0</ele>
        <time>2014-05-29T11:41:27Z</time>
      </trkpt>
      <trkpt lat="59.7900979" lon="17.6628733">
        <ele>0</ele>
        <time>2014-05-29T11:41:28Z</time>
      </trkpt>
      <trkpt lat="59.7901453" lon="17.6629043">
        <ele>0</ele>
        <time>2014-05-29T11:41:29Z</time>
      </trkpt>
      <trkpt lat="59.7901991" lon="17.6629235">
        <ele>0</ele>
        <time>2014-05-29T11:41:30Z</time>
      </trkpt>
      <trkpt lat="59.790252" lon="17.6629347">
        <ele>0</ele>
        <time>2014-05-29T11:41:31Z</time>
      </trkpt>
      <trkpt lat="59.7903079" lon="17.6629468">
        <ele>0</ele>
        <time>2014-05-29T11:41:32Z</time>
      </trkpt>
      <trkpt lat="59.7903671" lon="17.6629487">
        <ele>0</ele>
        <time>2014-05-29T11:41:33Z</time>
      </trkpt>
      <trkpt lat="59.790424" lon="17.6629443">
        <ele>0</ele>
        <time>2014-05-29T11:41:34Z</time>
      </trkpt>
      <trkpt lat="59.7904757" lon="17.6629339">
        <ele>0</ele>
        <time>2014-05-29T11:41:35Z</time>
      </trkpt>
      <trkpt lat="59.7905343" lon="17.6629212">
        <ele>0</ele>
        <time>2014-05-29T11:41:36Z</time>
      </trkpt>
      <trkpt lat="59.7905921" lon="17.6629032">
        <ele>0</ele>
        <time>2014-05-29T11:41:37Z</time>
      </trkpt>
      <trkpt lat="59.790644" lon="17.662885">
        <ele>0</ele>
        <time>2014-05-29T11:41:38Z</time>
      </trkpt>
      <trkpt lat="59.7906954" lon="17.662865">
        <ele>0</ele>
        <time>2014-05-29T11:41:39Z</time>
      </trkpt>
      <trkpt lat="59.7907385" lon="17.662839">
        <ele>0</ele>
        <time>2014-05-29T11:41:40Z</time>
      </trkpt>
      <trkpt lat="59.790781" lon="17.6628202">
        <ele>0</ele>
        <time>2014-05-29T11:41:41Z</time>
      </trkpt>
      <trkpt lat="59.7908187" lon="17.6627992">
        <ele>0</ele>
        <time>2014-05-29T11:41:42Z</time>
      </trkpt>
      <trkpt lat="59.7908734" lon="17.6627746">
        <ele>0</ele>
        <time>2014-05-29T11:41:43Z</time>
      </trkpt>
      <trkpt lat="59.7909047" lon="17.6627194">
        <ele>0</ele>
        <time>2014-05-29T11:41:44Z</time>
      </trkpt>
      <trkpt lat="59.7909409" lon="17.6626342">
        <ele>0</ele>
        <time>2014-05-29T11:41:45Z</time>
      </trkpt>
      <trkpt lat="59.7909616" lon="17.6625133">
        <ele>0</ele>
        <time>2014-05-29T11:41:46Z</time>
      </trkpt>
      <trkpt lat="59.7909685" lon="17.6623656">
        <ele>0</ele>
        <time>2014-05-29T11:41:47Z</time>
      </trkpt>
      <trkpt lat="59.7909662" lon="17.6622084">
        <ele>0</ele>
        <time>2014-05-29T11:41:48Z</time>
      </trkpt>
      <trkpt lat="59.7909709" lon="17.6620522">
        <ele>0</ele>
        <time>2014-05-29T11:41:49Z</time>
      </trkpt>
      <trkpt lat="59.7909842" lon="17.661903">
        <ele>0</ele>
        <time>2014-05-29T11:41:50Z</time>
      </trkpt>
      <trkpt lat="59.7910041" lon="17.6617607">
        <ele>0</ele>
        <time>2014-05-29T11:41:51Z</time>
      </trkpt>
      <trkpt lat="59.7910279" lon="17.6616278">
        <ele>0</ele>
        <time>2014-05-29T11:41:52Z</time>
      </trkpt>
      <trkpt lat="59.7910539" lon="17.6615031">
        <ele>0</ele>
        <time>2014-05-29T11:41:53Z</time>
      </trkpt>
      <trkpt lat="59.7910843" lon="17.6613897">
        <ele>0</ele>
        <time>2014-05-29T11:41:54Z</time>
      </trkpt>
      <trkpt lat="59.7911222" lon="17.6612824">
        <ele>0</ele>
        <time>2014-05-29T11:41:55Z</time>
      </trkpt>
      <trkpt lat="59.7911576" lon="17.6611799">
        <ele>0</ele>
        <time>2014-05-29T11:41:56Z</time>
      </trkpt>
      <trkpt lat="59.7911915" lon="17.6610829">
        <ele>0</ele>
        <time>2014-05-29T11:41:57Z</time>
      </trkpt>
      <trkpt lat="59.7912238" lon="17.6609921">
        <ele>0</ele>
        <time>2014-05-29T11:41:58Z</time>
      </trkpt>
      <trkpt lat="59.7912522" lon="17.6609069">
        <ele>0</ele>
        <time>2014-05-29T11:41:59Z</time>
      </trkpt>
      <trkpt lat="59.7912792" lon="17.6608354">
        <ele>0</ele>
        <time>2014-05-29T11:42:00Z</time>
      </trkpt>
      <trkpt lat="59.7913047" lon="17.6607747">
        <ele>0</ele>
        <time>2014-05-29T11:42:01Z</time>
      </trkpt>
      <trkpt lat="59.7913244" lon="17.660724">
        <ele>0</ele>
        <time>2014-05-29T11:42:02Z</time>
      </trkpt>
      <trkpt lat="59.7913387" lon="17.6606847">
        <ele>0</ele>
        <time>2014-05-29T11:42:03Z</time>
      </trkpt>
      <trkpt lat="59.7913508" lon="17.6606514">
        <ele>0.137451</ele>
        <time>2014-05-29T11:42:04Z</time>
      </trkpt>
      <trkpt lat="59.7913626" lon="17.6606181">
        <ele>1.09863</ele>
        <time>2014-05-29T11:42:05Z</time>
      </trkpt>
      <trkpt lat="59.791375" lon="17.6605866">
        <ele>2.06006</ele>
        <time>2014-05-29T11:42:06Z</time>
      </trkpt>
      <trkpt lat="59.7913867" lon="17.6605526">
        <ele>3.02124</ele>
        <time>2014-05-29T11:42:07Z</time>
      </trkpt>
      <trkpt lat="59.791395" lon="17.6605177">
        <ele>3.98267</ele>
        <time>2014-05-29T11:42:08Z</time>
      </trkpt>
      <trkpt lat="59.7914038" lon="17.6604852">
        <ele>4.46326</ele>
        <time>2014-05-29T11:42:09Z</time>
      </trkpt>
      <trkpt lat="59.7914117" lon="17.660449">
        <ele>4.94385</ele>
        <time>2014-05-29T11:42:10Z</time>
      </trkpt>
      <trkpt lat="59.791421" lon="17.660412">
        <ele>5.42456</ele>
        <time>2014-05-29T11:42:11Z</time>
      </trkpt>
      <trkpt lat="59.7914315" lon="17.6603742">
        <ele>5.42456</ele>
        <time>2014-05-29T11:42:12Z</time>
      </trkpt>
      <trkpt lat="59.7914417" lon="17.6603376">
        <ele>5.90527</ele>
        <time>2014-05-29T11:42:13Z</time>
      </trkpt>
      <trkpt lat="59.79145" lon="17.6603014">
        <ele>6.86646</ele>
        <time>2014-05-29T11:42:14Z</time>
      </trkpt>
      <trkpt lat="59.7914573" lon="17.660269">
        <ele>7.34717</ele>
        <time>2014-05-29T11:42:15Z</time>
      </trkpt>
      <trkpt lat="59.791466" lon="17.6602382">
        <ele>7.82788</ele>
        <time>2014-05-29T11:42:16Z</time>
      </trkpt>
      <trkpt lat="59.7914753" lon="17.6602116">
        <ele>8.30859</ele>
        <time>2014-05-29T11:42:17Z</time>
      </trkpt>
      <trkpt lat="59.7914838" lon="17.6601879">
        <ele>9.2699</ele>
        <time>2014-05-29T11:42:18Z</time>
      </trkpt>
      <trkpt lat="59.7914879" lon="17.6601646">
        <ele>9.75061</ele>
        <time>2014-05-29T11:42:19Z</time>
      </trkpt>
      <trkpt lat="59.7914885" lon="17.6601402">
        <ele>10.2312</ele>
        <time>2014-05-29T11:42:20Z</time>
      </trkpt>
      <trkpt lat="59.7914894" lon="17.6601139">
        <ele>10.7118</ele>
        <time>2014-05-29T11:42:21Z</time>
      </trkpt>
      <trkpt lat="59.791492" lon="17.6600869">
        <ele>11.1925</ele>
        <time>2014-05-29T11:42:22Z</time>
      </trkpt>
      <trkpt lat="59.7914974" lon="17.6600604">
        <ele>11.1925</ele>
        <time>2014-05-29T11:42:23Z</time>
      </trkpt>
      <trkpt lat="59.7915035" lon="17.660034">
        <ele>11.6732</ele>
        <time>2014-05-29T11:42:24Z</time>
      </trkpt>
      <trkpt lat="59.791508" lon="17.6600088">
        <ele>12.1538</ele>
        <time>2014-05-29T11:42:25Z</time>
      </trkpt>
      <trkpt lat="59.7915095" lon="17.6599807">
        <ele>12.6344</ele>
        <time>2014-05-29T11:42:26Z</time>
      </trkpt>
      <trkpt lat="59.7915107" lon="17.6599523">
        <ele>12.6344</ele>
        <time>2014-05-29T11:42:27Z</time>
      </trkpt>
      <trkpt lat="59.7915111" lon="17.6599258">
        <ele>13.1151</ele>
        <time>2014-05-29T11:42:28Z</time>
      </trkpt>
      <trkpt lat="59.7915083" lon="17.6598995">
        <ele>13.1151</ele>
        <time>2014-05-29T11:42:29Z</time>
      </trkpt>
      <trkpt lat="59.791506" lon="17.6598734">
        <ele>13.5958</ele>
        <time>2014-05-29T11:42:30Z</time>
      </trkpt>
      <trkpt lat="59.7915012" lon="17.6598454">
        <ele>13.5958</ele>
        <time>2014-05-29T11:42:31Z</time>
      </trkpt>
      <trkpt lat="59.7914961" lon="17.6598196">
        <ele>13.5958</ele>
        <time>2014-05-29T11:42:32Z</time>
      </trkpt>
      <trkpt lat="59.7914935" lon="17.6597957">
        <ele>13.5958</ele>
        <time>2014-05-29T11:42:33Z</time>
      </trkpt>
      <trkpt lat="59.7914908" lon="17.6597686">
        <ele>14.0764</ele>
        <time>2014-05-29T11:42:34Z</time>
      </trkpt>
      <trkpt lat="59.7914874" lon="17.6597404">
        <ele>14.557</ele>
        <time>2014-05-29T11:42:35Z</time>
      </trkpt>
      <trkpt lat="59.791481" lon="17.6597134">
        <ele>14.557</ele>
        <time>2014-05-29T11:42:36Z</time>
      </trkpt>
      <trkpt lat="59.7914737" lon="17.6596844">
        <ele>15.0377</ele>
        <time>2014-05-29T11:42:37Z</time>
      </trkpt>
      <trkpt lat="59.7914683" lon="17.6596559">
        <ele>15.5184</ele>
        <time>2014-05-29T11:42:38Z</time>
      </trkpt>
      <trkpt lat="59.7914621" lon="17.6596223">
        <ele>15.999</ele>
        <time>2014-05-29T11:42:39Z</time>
      </trkpt>
      <trkpt lat="59.7914562" lon="17.6595906">
        <ele>16.4797</ele>
        <time>2014-05-29T11:42:40Z</time>
      </trkpt>
      <trkpt lat="59.7914489" lon="17.6595579">
        <ele>16.9604</ele>
        <time>2014-05-29T11:42:41Z</time>
      </trkpt>
      <trkpt lat="59.7914451" lon="17.6595248">
        <ele>17.4412</ele>
        <time>2014-05-29T11:42:42Z</time>
      </trkpt>
      <trkpt lat="59.7914455" lon="17.6594902">
        <ele>17.4412</ele>
        <time>2014-05-29T11:42:43Z</time>
      </trkpt>
      <trkpt lat="59.7914512" lon="17.6594565">
        <ele>17.9218</ele>
        <time>2014-05-29T11:42:44Z</time>
      </trkpt>
      <trkpt lat="59.7914635" lon="17.6594267">
        <ele>17.9218</ele>
        <time>2014-05-29T11:42:45Z</time>
      </trkpt>
      <trkpt lat="59.7914797" lon="17.6594015">
        <ele>17.9218</ele>
        <time>2014-05-29T11:42:46Z</time>
      </trkpt>
      <trkpt lat="59.7914951" lon="17.6593776">
        <ele>18.4023</ele>
        <time>2014-05-29T11:42:47Z</time>
      </trkpt>
      <trkpt lat="59.79151" lon="17.6593549">
        <ele>18.4023</ele>
        <time>2014-05-29T11:42:48Z</time>
      </trkpt>
      <trkpt lat="59.7915283" lon="17.6593353">
        <ele>18.4023</ele>
        <time>2014-05-29T11:42:49Z</time>
      </trkpt>
      <trkpt lat="59.7915484" lon="17.6593109">
        <ele>18.8831</ele>
        <time>2014-05-29T11:42:50Z</time>
      </trkpt>
      <trkpt lat="59.7915681" lon="17.659285">
        <ele>18.8831</ele>
        <time>2014-05-29T11:42:51Z</time>
      </trkpt>
      <trkpt lat="59.7915896" lon="17.6592606">
        <ele>18.8831</ele>
        <time>2014-05-29T11:42:52Z</time>
      </trkpt>
      <trkpt lat="59.7916102" lon="17.6592385">
        <ele>18.8831</ele>
        <time>2014-05-29T11:42:53Z</time>
      </trkpt>
      <trkpt lat="59.7916262" lon="17.6592177">
        <ele>19.3638</ele>
        <time>2014-05-29T11:42:54Z</time>
      </trkpt>
      <trkpt lat="59.7916443" lon="17.6591912">
        <ele>18.8831</ele>
        <time>2014-05-29T11:42:55Z</time>
      </trkpt>
      <trkpt lat="59.7916641" lon="17.6591576">
        <ele>18.8831</ele>
        <time>2014-05-29T11:42:56Z</time>
      </trkpt>
      <trkpt lat="59.7916832" lon="17.6591173">
        <ele>18.4023</ele>
        <time>2014-05-29T11:42:57Z</time>
      </trkpt>
      <trkpt lat="59.7917086" lon="17.6590895">
        <ele>18.4023</ele>
        <time>2014-05-29T11:42:58Z</time>
      </trkpt>
      <trkpt lat="59.7917379" lon="17.6590602">
        <ele>18.4023</ele>
        <time>2014-05-29T11:42:59Z</time>
      </trkpt>
      <trkpt lat="59.7917695" lon="17.6590389">
        <ele>18.4023</ele>
        <time>2014-05-29T11:43:00Z</time>
      </trkpt>
      <trkpt lat="59.7918034" lon="17.6590229">
        <ele>18.4023</ele>
        <time>2014-05-29T11:43:01Z</time>
      </trkpt>
      <trkpt lat="59.7918422" lon="17.6590015">
        <ele>18.4023</ele>
        <time>2014-05-29T11:43:02Z</time>
      </trkpt>
      <trkpt lat="59.7918837" lon="17.6589763">
        <ele>17.9218</ele>
        <time>2014-05-29T11:43:03Z</time>
      </trkpt>
      <trkpt lat="59.7919251" lon="17.6589519">
        <ele>16.9604</ele>
        <time>2014-05-29T11:43:04Z</time>
      </trkpt>
      <trkpt lat="59.7919749" lon="17.6589316">
        <ele>16.4797</ele>
        <time>2014-05-29T11:43:05Z</time>
      </trkpt>
      <trkpt lat="59.7920327" lon="17.6589234">
        <ele>15.999</ele>
        <time>2014-05-29T11:43:06Z</time>
      </trkpt>
      <trkpt lat="59.7920962" lon="17.6589255">
        <ele>15.5184</ele>
        <time>2014-05-29T11:43:07Z</time>
      </trkpt>
      <trkpt lat="59.7921645" lon="17.6589299">
        <ele>15.999</ele>
        <time>2014-05-29T11:43:08Z</time>
      </trkpt>
      <trkpt lat="59.7922275" lon="17.6589315">
        <ele>16.9604</ele>
        <time>2014-05-29T11:43:09Z</time>
      </trkpt>
      <trkpt lat="59.7922839" lon="17.6589342">
        <ele>16.9604</ele>
        <time>2014-05-29T11:43:10Z</time>
      </trkpt>
      <trkpt lat="59.7923485" lon="17.658941">
        <ele>16.4797</ele>
        <time>2014-05-29T11:43:11Z</time>
      </trkpt>
      <trkpt lat="59.7923966" lon="17.6589476">
        <ele>15.0377</ele>
        <time>2014-05-29T11:43:12Z</time>
      </trkpt>
      <trkpt lat="59.7924478" lon="17.6589431">
        <ele>14.0764</ele>
        <time>2014-05-29T11:43:13Z</time>
      </trkpt>
      <trkpt lat="59.7924987" lon="17.6589378">
        <ele>13.1151</ele>
        <time>2014-05-29T11:43:14Z</time>
      </trkpt>
      <trkpt lat="59.7925438" lon="17.6589404">
        <ele>11.6732</ele>
        <time>2014-05-29T11:43:15Z</time>
      </trkpt>
      <trkpt lat="59.7925902" lon="17.6589453">
        <ele>11.1925</ele>
        <time>2014-05-29T11:43:16Z</time>
      </trkpt>
      <trkpt lat="59.792639" lon="17.6589553">
        <ele>9.75061</ele>
        <time>2014-05-29T11:43:17Z</time>
      </trkpt>
      <trkpt lat="59.7926963" lon="17.6589644">
        <ele>8.78918</ele>
        <time>2014-05-29T11:43:18Z</time>
      </trkpt>
      <trkpt lat="59.7927581" lon="17.6589581">
        <ele>7.34717</ele>
        <time>2014-05-29T11:43:19Z</time>
      </trkpt>
      <trkpt lat="59.7928178" lon="17.6589523">
        <ele>6.38586</ele>
        <time>2014-05-29T11:43:20Z</time>
      </trkpt>
      <trkpt lat="59.7928699" lon="17.6589445">
        <ele>4.94385</ele>
        <time>2014-05-29T11:43:21Z</time>
      </trkpt>
      <trkpt lat="59.7929214" lon="17.6589374">
        <ele>4.46326</ele>
        <time>2014-05-29T11:43:22Z</time>
      </trkpt>
      <trkpt lat="59.7929643" lon="17.65893">
        <ele>3.02124</ele>
        <time>2014-05-29T11:43:23Z</time>
      </trkpt>
      <trkpt lat="59.7930117" lon="17.6589176">
        <ele>2.06006</ele>
        <time>2014-05-29T11:43:24Z</time>
      </trkpt>
      <trkpt lat="59.7930576" lon="17.6589146">
        <ele>0.137451</ele>
        <time>2014-05-29T11:43:25Z</time>
      </trkpt>
      <trkpt lat="59.7931101" lon="17.6589064">
        <ele>0</ele>
        <time>2014-05-29T11:43:26Z</time>
      </trkpt>
      <trkpt lat="59.7931626" lon="17.6589056">
        <ele>0</ele>
        <time>2014-05-29T11:43:27Z</time>
      </trkpt>
      <trkpt lat="59.7932137" lon="17.6589178">
        <ele>0</ele>
        <time>2014-05-29T11:43:28Z</time>
      </trkpt>
      <trkpt lat="59.7932593" lon="17.6589299">
        <ele>0</ele>
        <time>2014-05-29T11:43:29Z</time>
      </trkpt>
      <trkpt lat="59.7933099" lon="17.6589399">
        <ele>0</ele>
        <time>2014-05-29T11:43:30Z</time>
      </trkpt>
      <trkpt lat="59.7933657" lon="17.6589548">
        <ele>0</ele>
        <time>2014-05-29T11:43:31Z</time>
      </trkpt>
      <trkpt lat="59.7934266" lon="17.6589782">
        <ele>0</ele>
        <time>2014-05-29T11:43:32Z</time>
      </trkpt>
      <trkpt lat="59.7934827" lon="17.6590087">
        <ele>0</ele>
        <time>2014-05-29T11:43:33Z</time>
      </trkpt>
      <trkpt lat="59.7935403" lon="17.6590405">
        <ele>0</ele>
        <time>2014-05-29T11:43:34Z</time>
      </trkpt>
      <trkpt lat="59.7935929" lon="17.6590762">
        <ele>0</ele>
        <time>2014-05-29T11:43:35Z</time>
      </trkpt>
      <trkpt lat="59.793646" lon="17.6591139">
        <ele>0</ele>
        <time>2014-05-29T11:43:36Z</time>
      </trkpt>
      <trkpt lat="59.7936989" lon="17.6591491">
        <ele>0</ele>
        <time>2014-05-29T11:43:37Z</time>
      </trkpt>
      <trkpt lat="59.7937588" lon="17.6591734">
        <ele>0</ele>
        <time>2014-05-29T11:43:38Z</time>
      </trkpt>
      <trkpt lat="59.7938216" lon="17.6591996">
        <ele>0</ele>
        <time>2014-05-29T11:43:39Z</time>
      </trkpt>
      <trkpt lat="59.7938782" lon="17.6592182">
        <ele>0.137451</ele>
        <time>2014-05-29T11:43:40Z</time>
      </trkpt>
      <trkpt lat="59.7939418" lon="17.6592331">
        <ele>1.57935</ele>
        <time>2014-05-29T11:43:41Z</time>
      </trkpt>
      <trkpt lat="59.7940051" lon="17.6592421">
        <ele>3.98267</ele>
        <time>2014-05-29T11:43:42Z</time>
      </trkpt>
      <trkpt lat="59.7940605" lon="17.6592446">
        <ele>4.94385</ele>
        <time>2014-05-29T11:43:43Z</time>
      </trkpt>
      <trkpt lat="59.794118" lon="17.6592394">
        <ele>6.86646</ele>
        <time>2014-05-29T11:43:44Z</time>
      </trkpt>
      <trkpt lat="59.7941847" lon="17.6592361">
        <ele>9.2699</ele>
        <time>2014-05-29T11:43:45Z</time>
      </trkpt>
      <trkpt lat="59.7942593" lon="17.6592269">
        <ele>11.1925</ele>
        <time>2014-05-29T11:43:46Z</time>
      </trkpt>
      <trkpt lat="59.7943375" lon="17.6592185">
        <ele>13.5958</ele>
        <time>2014-05-29T11:43:47Z</time>
      </trkpt>
      <trkpt lat="59.7944105" lon="17.6592063">
        <ele>14.557</ele>
        <time>2014-05-29T11:43:48Z</time>
      </trkpt>
      <trkpt lat="59.7944796" lon="17.6592012">
        <ele>14.557</ele>
        <time>2014-05-29T11:43:49Z</time>
      </trkpt>
      <trkpt lat="59.7945471" lon="17.6591751">
        <ele>15.0377</ele>
        <time>2014-05-29T11:43:50Z</time>
      </trkpt>
      <trkpt lat="59.7946126" lon="17.6591504">
        <ele>15.999</ele>
        <time>2014-05-29T11:43:51Z</time>
      </trkpt>
      <trkpt lat="59.7946747" lon="17.6591436">
        <ele>15.0377</ele>
        <time>2014-05-29T11:43:52Z</time>
      </trkpt>
      <trkpt lat="59.7947379" lon="17.6591497">
        <ele>14.0764</ele>
        <time>2014-05-29T11:43:53Z</time>
      </trkpt>
      <trkpt lat="59.7948009" lon="17.6591556">
        <ele>14.0764</ele>
        <time>2014-05-29T11:43:54Z</time>
      </trkpt>
      <trkpt lat="59.7948626" lon="17.6591731">
        <ele>14.0764</ele>
        <time>2014-05-29T11:43:55Z</time>
      </trkpt>
      <trkpt lat="59.7949285" lon="17.6592027">
        <ele>14.0764</ele>
        <time>2014-05-29T11:43:56Z</time>
      </trkpt>
      <trkpt lat="59.7949949" lon="17.659228">
        <ele>13.5958</ele>
        <time>2014-05-29T11:43:57Z</time>
      </trkpt>
      <trkpt lat="59.7950608" lon="17.6592565">
        <ele>12.6344</ele>
        <time>2014-05-29T11:43:58Z</time>
      </trkpt>
      <trkpt lat="59.7951259" lon="17.6592824">
        <ele>12.6344</ele>
        <time>2014-05-29T11:43:59Z</time>
      </trkpt>
      <trkpt lat="59.7951918" lon="17.6593128">
        <ele>12.6344</ele>
        <time>2014-05-29T11:44:00Z</time>
      </trkpt>
      <trkpt lat="59.7952569" lon="17.6593414">
        <ele>12.1538</ele>
        <time>2014-05-29T11:44:01Z</time>
      </trkpt>
      <trkpt lat="59.7953248" lon="17.6593663">
        <ele>12.1538</ele>
        <time>2014-05-29T11:44:02Z</time>
      </trkpt>
      <trkpt lat="59.7953943" lon="17.6593855">
        <ele>12.1538</ele>
        <time>2014-05-29T11:44:03Z</time>
      </trkpt>
      <trkpt lat="59.7954655" lon="17.6594093">
        <ele>11.1925</ele>
        <time>2014-05-29T11:44:04Z</time>
      </trkpt>
      <trkpt lat="59.7955342" lon="17.6594306">
        <ele>9.75061</ele>
        <time>2014-05-29T11:44:05Z</time>
      </trkpt>
      <trkpt lat="59.7956047" lon="17.6594637">
        <ele>9.2699</ele>
        <time>2014-05-29T11:44:06Z</time>
      </trkpt>
      <trkpt lat="59.7956735" lon="17.6595005">
        <ele>8.30859</ele>
        <time>2014-05-29T11:44:07Z</time>
      </trkpt>
      <trkpt lat="59.7957474" lon="17.6595508">
        <ele>7.82788</ele>
        <time>2014-05-29T11:44:08Z</time>
      </trkpt>
      <trkpt lat="59.795818" lon="17.6595963">
        <ele>6.86646</ele>
        <time>2014-05-29T11:44:09Z</time>
      </trkpt>
      <trkpt lat="59.7958812" lon="17.6596393">
        <ele>5.90527</ele>
        <time>2014-05-29T11:44:10Z</time>
      </trkpt>
      <trkpt lat="59.7959434" lon="17.6596807">
        <ele>5.42456</ele>
        <time>2014-05-29T11:44:11Z</time>
      </trkpt>
      <trkpt lat="59.7959991" lon="17.6597073">
        <ele>3.50195</ele>
        <time>2014-05-29T11:44:12Z</time>
      </trkpt>
      <trkpt lat="59.7960585" lon="17.6597331">
        <ele>3.98267</ele>
        <time>2014-05-29T11:44:13Z</time>
      </trkpt>
      <trkpt lat="59.7961099" lon="17.659746">
        <ele>2.54065</ele>
        <time>2014-05-29T11:44:14Z</time>
      </trkpt>
      <trkpt lat="59.7961692" lon="17.6597445">
        <ele>3.02124</ele>
        <time>2014-05-29T11:44:15Z</time>
      </trkpt>
      <trkpt lat="59.7962215" lon="17.6597347">
        <ele>2.06006</ele>
        <time>2014-05-29T11:44:16Z</time>
      </trkpt>
      <trkpt lat="59.7962695" lon="17.6597227">
        <ele>1.57935</ele>
        <time>2014-05-29T11:44:17Z</time>
      </trkpt>
      <trkpt lat="59.7963183" lon="17.6597139">
        <ele>2.06006</ele>
        <time>2014-05-29T11:44:18Z</time>
      </trkpt>
      <trkpt lat="59.7963674" lon="17.6597155">
        <ele>2.06006</ele>
        <time>2014-05-29T11:44:19Z</time>
      </trkpt>
      <trkpt lat="59.7964097" lon="17.6597388">
        <ele>1.57935</ele>
        <time>2014-05-29T11:44:20Z</time>
      </trkpt>
      <trkpt lat="59.7964478" lon="17.6597667">
        <ele>3.02124</ele>
        <time>2014-05-29T11:44:21Z</time>
      </trkpt>
      <trkpt lat="59.7964873" lon="17.6597875">
        <ele>4.94385</ele>
        <time>2014-05-29T11:44:22Z</time>
      </trkpt>
      <trkpt lat="59.7965383" lon="17.6598226">
        <ele>8.78918</ele>
        <time>2014-05-29T11:44:23Z</time>
      </trkpt>
      <trkpt lat="59.7965847" lon="17.6598527">
        <ele>11.1925</ele>
        <time>2014-05-29T11:44:24Z</time>
      </trkpt>
      <trkpt lat="59.7966177" lon="17.6598798">
        <ele>10.7118</ele>
        <time>2014-05-29T11:44:25Z</time>
      </trkpt>
      <trkpt lat="59.7966567" lon="17.6599004">
        <ele>11.6732</ele>
        <time>2014-05-29T11:44:26Z</time>
      </trkpt>
      <trkpt lat="59.7966977" lon="17.6599189">
        <ele>11.6732</ele>
        <time>2014-05-29T11:44:27Z</time>
      </trkpt>
      <trkpt lat="59.7967362" lon="17.6599471">
        <ele>11.6732</ele>
        <time>2014-05-29T11:44:28Z</time>
      </trkpt>
      <trkpt lat="59.7967728" lon="17.6599801">
        <ele>12.1538</ele>
        <time>2014-05-29T11:44:29Z</time>
      </trkpt>
      <trkpt lat="59.7968017" lon="17.6600211">
        <ele>12.6344</ele>
        <time>2014-05-29T11:44:30Z</time>
      </trkpt>
      <trkpt lat="59.796829" lon="17.6600598">
        <ele>12.1538</ele>
        <time>2014-05-29T11:44:31Z</time>
      </trkpt>
      <trkpt lat="59.7968602" lon="17.6600936">
        <ele>12.1538</ele>
        <time>2014-05-29T11:44:32Z</time>
      </trkpt>
      <trkpt lat="59.7968888" lon="17.6601186">
        <ele>12.6344</ele>
        <time>2014-05-29T11:44:33Z</time>
      </trkpt>
      <trkpt lat="59.7969193" lon="17.6601443">
        <ele>12.6344</ele>
        <time>2014-05-29T11:44:34Z</time>
      </trkpt>
      <trkpt lat="59.7969486" lon="17.6601732">
        <ele>12.6344</ele>
        <time>2014-05-29T11:44:35Z</time>
      </trkpt>
      <trkpt lat="59.7969717" lon="17.6602097">
        <ele>11.6732</ele>
        <time>2014-05-29T11:44:36Z</time>
      </trkpt>
      <trkpt lat="59.7969997" lon="17.660238">
        <ele>11.1925</ele>
        <time>2014-05-29T11:44:37Z</time>
      </trkpt>
      <trkpt lat="59.7970227" lon="17.6602625">
        <ele>11.1925</ele>
        <time>2014-05-29T11:44:38Z</time>
      </trkpt>
      <trkpt lat="59.7970605" lon="17.6602807">
        <ele>12.6344</ele>
        <time>2014-05-29T11:44:39Z</time>
      </trkpt>
      <trkpt lat="59.7970968" lon="17.6603002">
        <ele>14.0764</ele>
        <time>2014-05-29T11:44:40Z</time>
      </trkpt>
      <trkpt lat="59.7971325" lon="17.6603215">
        <ele>14.557</ele>
        <time>2014-05-29T11:44:41Z</time>
      </trkpt>
      <trkpt lat="59.7971632" lon="17.6603433">
        <ele>15.5184</ele>
        <time>2014-05-29T11:44:42Z</time>
      </trkpt>
      <trkpt lat="59.7971957" lon="17.6603579">
        <ele>16.9604</ele>
        <time>2014-05-29T11:44:43Z</time>
      </trkpt>
      <trkpt lat="59.7972289" lon="17.6603631">
        <ele>17.9218</ele>
        <time>2014-05-29T11:44:44Z</time>
      </trkpt>
      <trkpt lat="59.7972599" lon="17.6603691">
        <ele>18.4023</ele>
        <time>2014-05-29T11:44:45Z</time>
      </trkpt>
      <trkpt lat="59.7972911" lon="17.6603713">
        <ele>19.3638</ele>
        <time>2014-05-29T11:44:46Z</time>
      </trkpt>
      <trkpt lat="59.7973181" lon="17.6603775">
        <ele>19.8444</ele>
        <time>2014-05-29T11:44:47Z</time>
      </trkpt>
      <trkpt lat="59.7973459" lon="17.6603846">
        <ele>20.325</ele>
        <time>2014-05-29T11:44:48Z</time>
      </trkpt>
      <trkpt lat="59.7973728" lon="17.6603959">
        <ele>21.2864</ele>
        <time>2014-05-29T11:44:49Z</time>
      </trkpt>
      <trkpt lat="59.7973977" lon="17.6604043">
        <ele>22.2476</ele>
        <time>2014-05-29T11:44:50Z</time>
      </trkpt>
      <trkpt lat="59.7974231" lon="17.6604111">
        <ele>23.209</ele>
        <time>2014-05-29T11:44:51Z</time>
      </trkpt>
      <trkpt lat="59.7974461" lon="17.6604133">
        <ele>24.1703</ele>
        <time>2014-05-29T11:44:52Z</time>
      </trkpt>
      <trkpt lat="59.7974687" lon="17.66041">
        <ele>24.651</ele>
        <time>2014-05-29T11:44:53Z</time>
      </trkpt>
      <trkpt lat="59.7974908" lon="17.6604053">
        <ele>25.1317</ele>
        <time>2014-05-29T11:44:54Z</time>
      </trkpt>
      <trkpt lat="59.7975098" lon="17.6604017">
        <ele>24.651</ele>
        <time>2014-05-29T11:44:55Z</time>
      </trkpt>
      <trkpt lat="59.7975274" lon="17.6603981">
        <ele>23.6896</ele>
        <time>2014-05-29T11:44:56Z</time>
      </trkpt>
      <trkpt lat="59.7975472" lon="17.6603938">
        <ele>23.209</ele>
        <time>2014-05-29T11:44:57Z</time>
      </trkpt>
      <trkpt lat="59.7975659" lon="17.6603909">
        <ele>22.2476</ele>
        <time>2014-05-29T11:44:58Z</time>
      </trkpt>
      <trkpt lat="59.7975813" lon="17.6603852">
        <ele>21.767</ele>
        <time>2014-05-29T11:44:59Z</time>
      </trkpt>
      <trkpt lat="59.7975953" lon="17.6603832">
        <ele>21.767</ele>
        <time>2014-05-29T11:45:00Z</time>
      </trkpt>
      <trkpt lat="59.7976076" lon="17.6603821">
        <ele>21.2864</ele>
        <time>2014-05-29T11:45:01Z</time>
      </trkpt>
      <trkpt lat="59.7976173" lon="17.6603816">
        <ele>21.2864</ele>
        <time>2014-05-29T11:45:02Z</time>
      </trkpt>
      <trkpt lat="59.7976283" lon="17.6603814">
        <ele>20.8057</ele>
        <time>2014-05-29T11:45:03Z</time>
      </trkpt>
      <trkpt lat="59.7976435" lon="17.6603768">
        <ele>20.325</ele>
        <time>2014-05-29T11:45:04Z</time>
      </trkpt>
      <trkpt lat="59.7976543" lon="17.6603773">
        <ele>19.8444</ele>
        <time>2014-05-29T11:45:05Z</time>
      </trkpt>
      <trkpt lat="59.7976637" lon="17.6603771">
        <ele>19.3638</ele>
        <time>2014-05-29T11:45:06Z</time>
      </trkpt>
      <trkpt lat="59.7976733" lon="17.660381">
        <ele>18.8831</ele>
        <time>2014-05-29T11:45:07Z</time>
      </trkpt>
      <trkpt lat="59.7976833" lon="17.6603847">
        <ele>18.4023</ele>
        <time>2014-05-29T11:45:08Z</time>
      </trkpt>
      <trkpt lat="59.7976925" lon="17.6603815">
        <ele>18.4023</ele>
        <time>2014-05-29T11:45:09Z</time>
      </trkpt>
      <trkpt lat="59.7977021" lon="17.6603769">
        <ele>18.4023</ele>
        <time>2014-05-29T11:45:10Z</time>
      </trkpt>
      <trkpt lat="59.7977135" lon="17.6603722">
        <ele>18.8831</ele>
        <time>2014-05-29T11:45:11Z</time>
      </trkpt>
      <trkpt lat="59.7977259" lon="17.6603661">
        <ele>19.8444</ele>
        <time>2014-05-29T11:45:12Z</time>
      </trkpt>
      <trkpt lat="59.7977386" lon="17.660361">
        <ele>19.3638</ele>
        <time>2014-05-29T11:45:13Z</time>
      </trkpt>
      <trkpt lat="59.7977503" lon="17.6603595">
        <ele>19.3638</ele>
        <time>2014-05-29T11:45:14Z</time>
      </trkpt>
      <trkpt lat="59.7977606" lon="17.6603655">
        <ele>19.3638</ele>
        <time>2014-05-29T11:45:15Z</time>
      </trkpt>
      <trkpt lat="59.797772" lon="17.6603759">
        <ele>19.3638</ele>
        <time>2014-05-29T11:45:16Z</time>
      </trkpt>
      <trkpt lat="59.797781" lon="17.6603996">
        <ele>18.8831</ele>
        <time>2014-05-29T11:45:17Z</time>
      </trkpt>
      <trkpt lat="59.7977884" lon="17.6604333">
        <ele>18.4023</ele>
        <time>2014-05-29T11:45:18Z</time>
      </trkpt>
      <trkpt lat="59.7977993" lon="17.6604643">
        <ele>17.4412</ele>
        <time>2014-05-29T11:45:19Z</time>
      </trkpt>
      <trkpt lat="59.7978098" lon="17.6604935">
        <ele>16.9604</ele>
        <time>2014-05-29T11:45:20Z</time>
      </trkpt>
      <trkpt lat="59.7978259" lon="17.660523">
        <ele>16.4797</ele>
        <time>2014-05-29T11:45:21Z</time>
      </trkpt>
      <trkpt lat="59.7978424" lon="17.6605594">
        <ele>15.5184</ele>
        <time>2014-05-29T11:45:22Z</time>
      </trkpt>
      <trkpt lat="59.7978554" lon="17.6605991">
        <ele>15.0377</ele>
        <time>2014-05-29T11:45:23Z</time>
      </trkpt>
      <trkpt lat="59.7978652" lon="17.6606354">
        <ele>14.0764</ele>
        <time>2014-05-29T11:45:24Z</time>
      </trkpt>
      <trkpt lat="59.7978697" lon="17.6606677">
        <ele>12.6344</ele>
        <time>2014-05-29T11:45:25Z</time>
      </trkpt>
      <trkpt lat="59.7978774" lon="17.6607032">
        <ele>11.6732</ele>
        <time>2014-05-29T11:45:26Z</time>
      </trkpt>
      <trkpt lat="59.7978855" lon="17.6607339">
        <ele>11.1925</ele>
        <time>2014-05-29T11:45:27Z</time>
      </trkpt>
      <trkpt lat="59.7978921" lon="17.6607582">
        <ele>10.7118</ele>
        <time>2014-05-29T11:45:28Z</time>
      </trkpt>
      <trkpt lat="59.7978946" lon="17.660783">
        <ele>10.7118</ele>
        <time>2014-05-29T11:45:29Z</time>
      </trkpt>
      <trkpt lat="59.7979017" lon="17.6608193">
        <ele>12.1538</ele>
        <time>2014-05-29T11:45:30Z</time>
      </trkpt>
      <trkpt lat="59.7979149" lon="17.6608495">
        <ele>14.557</ele>
        <time>2014-05-29T11:45:31Z</time>
      </trkpt>
      <trkpt lat="59.7979253" lon="17.660888">
        <ele>17.4412</ele>
        <time>2014-05-29T11:45:32Z</time>
      </trkpt>
      <trkpt lat="59.797937" lon="17.660914">
        <ele>19.3638</ele>
        <time>2014-05-29T11:45:33Z</time>
      </trkpt>
      <trkpt lat="59.7979482" lon="17.6609369">
        <ele>20.8057</ele>
        <time>2014-05-29T11:45:34Z</time>
      </trkpt>
      <trkpt lat="59.79796" lon="17.6609638">
        <ele>21.767</ele>
        <time>2014-05-29T11:45:35Z</time>
      </trkpt>
      <trkpt lat="59.7979714" lon="17.6609886">
        <ele>22.7283</ele>
        <time>2014-05-29T11:45:36Z</time>
      </trkpt>
      <trkpt lat="59.7979801" lon="17.6610124">
        <ele>23.209</ele>
        <time>2014-05-29T11:45:37Z</time>
      </trkpt>
      <trkpt lat="59.7979905" lon="17.6610349">
        <ele>24.1703</ele>
        <time>2014-05-29T11:45:38Z</time>
      </trkpt>
      <trkpt lat="59.797997" lon="17.6610489">
        <ele>25.1317</ele>
        <time>2014-05-29T11:45:39Z</time>
      </trkpt>
      <trkpt lat="59.798005" lon="17.6610649">
        <ele>25.6123</ele>
        <time>2014-05-29T11:45:40Z</time>
      </trkpt>
      <trkpt lat="59.7980164" lon="17.6610897">
        <ele>25.6123</ele>
        <time>2014-05-29T11:45:41Z</time>
      </trkpt>
      <trkpt lat="59.7980252" lon="17.6611155">
        <ele>26.0929</ele>
        <time>2014-05-29T11:45:42Z</time>
      </trkpt>
      <trkpt lat="59.7980321" lon="17.6611445">
        <ele>27.0543</ele>
        <time>2014-05-29T11:45:43Z</time>
      </trkpt>
      <trkpt lat="59.7980422" lon="17.6611665">
        <ele>28.0155</ele>
        <time>2014-05-29T11:45:44Z</time>
      </trkpt>
      <trkpt lat="59.7980516" lon="17.6611828">
        <ele>28.9769</ele>
        <time>2014-05-29T11:45:45Z</time>
      </trkpt>
      <trkpt lat="59.7980562" lon="17.661201">
        <ele>28.9769</ele>
        <time>2014-05-29T11:45:46Z</time>
      </trkpt>
      <trkpt lat="59.7980636" lon="17.6612191">
        <ele>28.9769</ele>
        <time>2014-05-29T11:45:47Z</time>
      </trkpt>
      <trkpt lat="59.7980716" lon="17.6612405">
        <ele>29.4575</ele>
        <time>2014-05-29T11:45:48Z</time>
      </trkpt>
      <trkpt lat="59.7980774" lon="17.6612657">
        <ele>29.4575</ele>
        <time>2014-05-29T11:45:49Z</time>
      </trkpt>
      <trkpt lat="59.7980823" lon="17.661288">
        <ele>29.4575</ele>
        <time>2014-05-29T11:45:50Z</time>
      </trkpt>
      <trkpt lat="59.7980888" lon="17.6613095">
        <ele>28.9769</ele>
        <time>2014-05-29T11:45:51Z</time>
      </trkpt>
      <trkpt lat="59.798095" lon="17.661328">
        <ele>29.4575</ele>
        <time>2014-05-29T11:45:52Z</time>
      </trkpt>
      <trkpt lat="59.7980997" lon="17.6613477">
        <ele>29.4575</ele>
        <time>2014-05-29T11:45:53Z</time>
      </trkpt>
      <trkpt lat="59.7981025" lon="17.6613678">
        <ele>28.9769</ele>
        <time>2014-05-29T11:45:54Z</time>
      </trkpt>
      <trkpt lat="59.7981054" lon="17.6613905">
        <ele>28.4962</ele>
        <time>2014-05-29T11:45:55Z</time>
      </trkpt>
      <trkpt lat="59.7981063" lon="17.6614125">
        <ele>28.4962</ele>
        <time>2014-05-29T11:45:56Z</time>
      </trkpt>
      <trkpt lat="59.7981107" lon="17.6614305">
        <ele>28.4962</ele>
        <time>2014-05-29T11:45:57Z</time>
      </trkpt>
      <trkpt lat="59.7981174" lon="17.6614518">
        <ele>29.4575</ele>
        <time>2014-05-29T11:45:58Z</time>
      </trkpt>
      <trkpt lat="59.7981226" lon="17.6614814">
        <ele>29.4575</ele>
        <time>2014-05-29T11:45:59Z</time>
      </trkpt>
      <trkpt lat="59.7981278" lon="17.6615099">
        <ele>29.4575</ele>
        <time>2014-05-29T11:46:00Z</time>
      </trkpt>
      <trkpt lat="59.7981335" lon="17.6615326">
        <ele>29.4575</ele>
        <time>2014-05-29T11:46:01Z</time>
      </trkpt>
      <trkpt lat="59.7981364" lon="17.6615548">
        <ele>29.4575</ele>
        <time>2014-05-29T11:46:02Z</time>
      </trkpt>
      <trkpt lat="59.7981416" lon="17.6615735">
        <ele>29.4575</ele>
        <time>2014-05-29T11:46:03Z</time>
      </trkpt>
      <trkpt lat="59.7981454" lon="17.6615954">
        <ele>29.4575</ele>
        <time>2014-05-29T11:46:04Z</time>
      </trkpt>
      <trkpt lat="59.7981496" lon="17.661618">
        <ele>29.4575</ele>
        <time>2014-05-29T11:46:05Z</time>
      </trkpt>
      <trkpt lat="59.7981572" lon="17.6616399">
        <ele>29.4575</ele>
        <time>2014-05-29T11:46:06Z</time>
      </trkpt>
      <trkpt lat="59.7981626" lon="17.661662">
        <ele>29.4575</ele>
        <time>2014-05-29T11:46:07Z</time>
      </trkpt>
      <trkpt lat="59.7981722" lon="17.6616835">
        <ele>29.9381</ele>
        <time>2014-05-29T11:46:08Z</time>
      </trkpt>
      <trkpt lat="59.7981821" lon="17.6617014">
        <ele>30.4188</ele>
        <time>2014-05-29T11:46:09Z</time>
      </trkpt>
      <trkpt lat="59.7981875" lon="17.6617238">
        <ele>30.8995</ele>
        <time>2014-05-29T11:46:10Z</time>
      </trkpt>
      <trkpt lat="59.7981961" lon="17.6617455">
        <ele>31.3801</ele>
        <time>2014-05-29T11:46:11Z</time>
      </trkpt>
      <trkpt lat="59.7982044" lon="17.6617612">
        <ele>31.3801</ele>
        <time>2014-05-29T11:46:12Z</time>
      </trkpt>
      <trkpt lat="59.7982159" lon="17.6617713">
        <ele>31.3801</ele>
        <time>2014-05-29T11:46:13Z</time>
      </trkpt>
      <trkpt lat="59.7982283" lon="17.6617809">
        <ele>31.3801</ele>
        <time>2014-05-29T11:46:14Z</time>
      </trkpt>
      <trkpt lat="59.798238" lon="17.6617999">
        <ele>30.8995</ele>
        <time>2014-05-29T11:46:15Z</time>
      </trkpt>
      <trkpt lat="59.7982488" lon="17.6618206">
        <ele>30.8995</ele>
        <time>2014-05-29T11:46:16Z</time>
      </trkpt>
      <trkpt lat="59.7982593" lon="17.6618393">
        <ele>31.3801</ele>
        <time>2014-05-29T11:46:17Z</time>
      </trkpt>
      <trkpt lat="59.79827" lon="17.6618563">
        <ele>31.8607</ele>
        <time>2014-05-29T11:46:18Z</time>
      </trkpt>
      <trkpt lat="59.7982775" lon="17.6618725">
        <ele>31.3801</ele>
        <time>2014-05-29T11:46:19Z</time>
      </trkpt>
      <trkpt lat="59.7982879" lon="17.6618888">
        <ele>30.8995</ele>
        <time>2014-05-29T11:46:20Z</time>
      </trkpt>
      <trkpt lat="59.7982999" lon="17.6619046">
        <ele>30.8995</ele>
        <time>2014-05-29T11:46:21Z</time>
      </trkpt>
      <trkpt lat="59.7983121" lon="17.6619189">
        <ele>30.4188</ele>
        <time>2014-05-29T11:46:22Z</time>
      </trkpt>
      <trkpt lat="59.7983231" lon="17.6619344">
        <ele>30.4188</ele>
        <time>2014-05-29T11:46:23Z</time>
      </trkpt>
      <trkpt lat="59.7983344" lon="17.6619495">
        <ele>29.9381</ele>
        <time>2014-05-29T11:46:24Z</time>
      </trkpt>
      <trkpt lat="59.7983464" lon="17.6619667">
        <ele>29.9381</ele>
        <time>2014-05-29T11:46:25Z</time>
      </trkpt>
      <trkpt lat="59.7983612" lon="17.6619826">
        <ele>29.4575</ele>
        <time>2014-05-29T11:46:26Z</time>
      </trkpt>
      <trkpt lat="59.7983795" lon="17.6619932">
        <ele>29.9381</ele>
        <time>2014-05-29T11:46:27Z</time>
      </trkpt>
      <trkpt lat="59.7983995" lon="17.6620139">
        <ele>30.4188</ele>
        <time>2014-05-29T11:46:28Z</time>
      </trkpt>
      <trkpt lat="59.7984232" lon="17.6620398">
        <ele>30.8995</ele>
        <time>2014-05-29T11:46:29Z</time>
      </trkpt>
      <trkpt lat="59.7984464" lon="17.6620681">
        <ele>30.4188</ele>
        <time>2014-05-29T11:46:30Z</time>
      </trkpt>
      <trkpt lat="59.7984681" lon="17.6620988">
        <ele>29.9381</ele>
        <time>2014-05-29T11:46:31Z</time>
      </trkpt>
      <trkpt lat="59.7984882" lon="17.6621333">
        <ele>28.9769</ele>
        <time>2014-05-29T11:46:32Z</time>
      </trkpt>
      <trkpt lat="59.7985047" lon="17.6621661">
        <ele>28.4962</ele>
        <time>2014-05-29T11:46:33Z</time>
      </trkpt>
      <trkpt lat="59.798521" lon="17.6621913">
        <ele>27.5349</ele>
        <time>2014-05-29T11:46:34Z</time>
      </trkpt>
      <trkpt lat="59.7985397" lon="17.6622216">
        <ele>27.0543</ele>
        <time>2014-05-29T11:46:35Z</time>
      </trkpt>
      <trkpt lat="59.7985624" lon="17.6622501">
        <ele>26.0929</ele>
        <time>2014-05-29T11:46:36Z</time>
      </trkpt>
      <trkpt lat="59.7985945" lon="17.6622776">
        <ele>25.1317</ele>
        <time>2014-05-29T11:46:37Z</time>
      </trkpt>
      <trkpt lat="59.7986286" lon="17.6623183">
        <ele>23.6896</ele>
        <time>2014-05-29T11:46:38Z</time>
      </trkpt>
      <trkpt lat="59.7986661" lon="17.6623796">
        <ele>22.7283</ele>
        <time>2014-05-29T11:46:39Z</time>
      </trkpt>
      <trkpt lat="59.7987064" lon="17.6624581">
        <ele>21.767</ele>
        <time>2014-05-29T11:46:40Z</time>
      </trkpt>
      <trkpt lat="59.7987541" lon="17.6625434">
        <ele>21.767</ele>
        <time>2014-05-29T11:46:41Z</time>
      </trkpt>
      <trkpt lat="59.7987914" lon="17.6626251">
        <ele>21.767</ele>
        <time>2014-05-29T11:46:42Z</time>
      </trkpt>
      <trkpt lat="59.7988198" lon="17.6627063">
        <ele>20.8057</ele>
        <time>2014-05-29T11:46:43Z</time>
      </trkpt>
      <trkpt lat="59.7988489" lon="17.6627774">
        <ele>20.8057</ele>
        <time>2014-05-29T11:46:44Z</time>
      </trkpt>
      <trkpt lat="59.7988737" lon="17.6628368">
        <ele>19.3638</ele>
        <time>2014-05-29T11:46:45Z</time>
      </trkpt>
      <trkpt lat="59.7988899" lon="17.662893">
        <ele>18.8831</ele>
        <time>2014-05-29T11:46:46Z</time>
      </trkpt>
      <trkpt lat="59.7989006" lon="17.6629504">
        <ele>18.8831</ele>
        <time>2014-05-29T11:46:47Z</time>
      </trkpt>
      <trkpt lat="59.798908" lon="17.6630153">
        <ele>18.8831</ele>
        <time>2014-05-29T11:46:48Z</time>
      </trkpt>
      <trkpt lat="59.7989163" lon="17.6630826">
        <ele>17.9218</ele>
        <time>2014-05-29T11:46:49Z</time>
      </trkpt>
      <trkpt lat="59.7989312" lon="17.663157">
        <ele>18.8831</ele>
        <time>2014-05-29T11:46:50Z</time>
      </trkpt>
      <trkpt lat="59.79894" lon="17.6632429">
        <ele>19.3638</ele>
        <time>2014-05-29T11:46:51Z</time>
      </trkpt>
      <trkpt lat="59.7989514" lon="17.6633368">
        <ele>19.8444</ele>
        <time>2014-05-29T11:46:52Z</time>
      </trkpt>
      <trkpt lat="59.7989608" lon="17.6634321">
        <ele>20.8057</ele>
        <time>2014-05-29T11:46:53Z</time>
      </trkpt>
      <trkpt lat="59.7989701" lon="17.6635052">
        <ele>21.767</ele>
        <time>2014-05-29T11:46:54Z</time>
      </trkpt>
      <trkpt lat="59.7989804" lon="17.6635517">
        <ele>22.2476</ele>
        <time>2014-05-29T11:46:55Z</time>
      </trkpt>
      <trkpt lat="59.7990028" lon="17.6635933">
        <ele>22.7283</ele>
        <time>2014-05-29T11:46:56Z</time>
      </trkpt>
      <trkpt lat="59.7990256" lon="17.6636471">
        <ele>23.209</ele>
        <time>2014-05-29T11:46:57Z</time>
      </trkpt>
      <trkpt lat="59.7990525" lon="17.6637056">
        <ele>23.6896</ele>
        <time>2014-05-29T11:46:58Z</time>
      </trkpt>
      <trkpt lat="59.7990773" lon="17.6637609">
        <ele>24.651</ele>
        <time>2014-05-29T11:46:59Z</time>
      </trkpt>
      <trkpt lat="59.7991035" lon="17.6638163">
        <ele>25.1317</ele>
        <time>2014-05-29T11:47:00Z</time>
      </trkpt>
      <trkpt lat="59.7991337" lon="17.6638607">
        <ele>24.1703</ele>
        <time>2014-05-29T11:47:01Z</time>
      </trkpt>
      <trkpt lat="59.7991624" lon="17.6638947">
        <ele>23.6896</ele>
        <time>2014-05-29T11:47:02Z</time>
      </trkpt>
      <trkpt lat="59.7991958" lon="17.6639208">
        <ele>22.7283</ele>
        <time>2014-05-29T11:47:03Z</time>
      </trkpt>
      <trkpt lat="59.7992323" lon="17.663946">
        <ele>22.2476</ele>
        <time>2014-05-29T11:47:04Z</time>
      </trkpt>
      <trkpt lat="59.7992652" lon="17.6639756">
        <ele>21.2864</ele>
        <time>2014-05-29T11:47:05Z</time>
      </trkpt>
      <trkpt lat="59.7992896" lon="17.6640113">
        <ele>20.8057</ele>
        <time>2014-05-29T11:47:06Z</time>
      </trkpt>
      <trkpt lat="59.7993021" lon="17.6640582">
        <ele>19.8444</ele>
        <time>2014-05-29T11:47:07Z</time>
      </trkpt>
      <trkpt lat="59.7993182" lon="17.6641077">
        <ele>19.3638</ele>
        <time>2014-05-29T11:47:08Z</time>
      </trkpt>
      <trkpt lat="59.7993393" lon="17.6641781">
        <ele>18.8831</ele>
        <time>2014-05-29T11:47:09Z</time>
      </trkpt>
      <trkpt lat="59.799357" lon="17.6642714">
        <ele>18.4023</ele>
        <time>2014-05-29T11:47:10Z</time>
      </trkpt>
      <trkpt lat="59.7993741" lon="17.6643666">
        <ele>16.4797</ele>
        <time>2014-05-29T11:47:11Z</time>
      </trkpt>
      <trkpt lat="59.7993949" lon="17.6644728">
        <ele>15.999</ele>
        <time>2014-05-29T11:47:12Z</time>
      </trkpt>
      <trkpt lat="59.7994094" lon="17.6645745">
        <ele>15.0377</ele>
        <time>2014-05-29T11:47:13Z</time>
      </trkpt>
      <trkpt lat="59.7994284" lon="17.6646697">
        <ele>14.0764</ele>
        <time>2014-05-29T11:47:14Z</time>
      </trkpt>
      <trkpt lat="59.7994606" lon="17.6647582">
        <ele>13.5958</ele>
        <time>2014-05-29T11:47:15Z</time>
      </trkpt>
      <trkpt lat="59.7994834" lon="17.6648478">
        <ele>13.1151</ele>
        <time>2014-05-29T11:47:16Z</time>
      </trkpt>
      <trkpt lat="59.7995048" lon="17.6649364">
        <ele>12.6344</ele>
        <time>2014-05-29T11:47:17Z</time>
      </trkpt>
      <trkpt lat="59.7995301" lon="17.6650214">
        <ele>12.1538</ele>
        <time>2014-05-29T11:47:18Z</time>
      </trkpt>
      <trkpt lat="59.7995586" lon="17.6650904">
        <ele>11.6732</ele>
        <time>2014-05-29T11:47:19Z</time>
      </trkpt>
      <trkpt lat="59.7996015" lon="17.6651494">
        <ele>12.1538</ele>
        <time>2014-05-29T11:47:20Z</time>
      </trkpt>
      <trkpt lat="59.7996445" lon="17.6651965">
        <ele>12.1538</ele>
        <time>2014-05-29T11:47:21Z</time>
      </trkpt>
      <trkpt lat="59.799684" lon="17.6652497">
        <ele>12.1538</ele>
        <time>2014-05-29T11:47:22Z</time>
      </trkpt>
      <trkpt lat="59.7997207" lon="17.6653082">
        <ele>11.6732</ele>
        <time>2014-05-29T11:47:23Z</time>
      </trkpt>
      <trkpt lat="59.7997601" lon="17.665368">
        <ele>11.1925</ele>
        <time>2014-05-29T11:47:24Z</time>
      </trkpt>
      <trkpt lat="59.799805" lon="17.6654348">
        <ele>11.1925</ele>
        <time>2014-05-29T11:47:25Z</time>
      </trkpt>
      <trkpt lat="59.7998445" lon="17.6654825">
        <ele>10.7118</ele>
        <time>2014-05-29T11:47:26Z</time>
      </trkpt>
      <trkpt lat="59.7998759" lon="17.6655217">
        <ele>9.75061</ele>
        <time>2014-05-29T11:47:27Z</time>
      </trkpt>
      <trkpt lat="59.7999064" lon="17.6655576">
        <ele>8.78918</ele>
        <time>2014-05-29T11:47:28Z</time>
      </trkpt>
      <trkpt lat="59.7999393" lon="17.6655815">
        <ele>7.82788</ele>
        <time>2014-05-29T11:47:29Z</time>
      </trkpt>
      <trkpt lat="59.7999729" lon="17.6655916">
        <ele>5.90527</ele>
        <time>2014-05-29T11:47:30Z</time>
      </trkpt>
      <trkpt lat="59.8000041" lon="17.6656092">
        <ele>4.94385</ele>
        <time>2014-05-29T11:47:31Z</time>
      </trkpt>
      <trkpt lat="59.8000367" lon="17.6656074">
        <ele>3.50195</ele>
        <time>2014-05-29T11:47:32Z</time>
      </trkpt>
      <trkpt lat="59.8000569" lon="17.6655908">
        <ele>2.54065</ele>
        <time>2014-05-29T11:47:33Z</time>
      </trkpt>
      <trkpt lat="59.8000733" lon="17.6655582">
        <ele>2.06006</ele>
        <time>2014-05-29T11:47:34Z</time>
      </trkpt>
      <trkpt lat="59.8000834" lon="17.6655327">
        <ele>2.06006</ele>
        <time>2014-05-29T11:47:35Z</time>
      </trkpt>
      <trkpt lat="59.8000802" lon="17.6655134">
        <ele>2.06006</ele>
        <time>2014-05-29T11:47:36Z</time>
      </trkpt>
      <trkpt lat="59.8000826" lon="17.6654805">
        <ele>2.54065</ele>
        <time>2014-05-29T11:47:37Z</time>
      </trkpt>
      <trkpt lat="59.800088" lon="17.665441">
        <ele>3.02124</ele>
        <time>2014-05-29T11:47:38Z</time>
      </trkpt>
      <trkpt lat="59.8000931" lon="17.6653846">
        <ele>3.98267</ele>
        <time>2014-05-29T11:47:39Z</time>
      </trkpt>
      <trkpt lat="59.8001017" lon="17.6653275">
        <ele>4.46326</ele>
        <time>2014-05-29T11:47:40Z</time>
      </trkpt>
      <trkpt lat="59.8001091" lon="17.6652607">
        <ele>5.42456</ele>
        <time>2014-05-29T11:47:41Z</time>
      </trkpt>
      <trkpt lat="59.8001157" lon="17.6651918">
        <ele>5.42456</ele>
        <time>2014-05-29T11:47:42Z</time>
      </trkpt>
      <trkpt lat="59.8001233" lon="17.6651267">
        <ele>5.42456</ele>
        <time>2014-05-29T11:47:43Z</time>
      </trkpt>
      <trkpt lat="59.8001315" lon="17.6650604">
        <ele>5.42456</ele>
        <time>2014-05-29T11:47:44Z</time>
      </trkpt>
      <trkpt lat="59.8001335" lon="17.6649956">
        <ele>5.42456</ele>
        <time>2014-05-29T11:47:45Z</time>
      </trkpt>
      <trkpt lat="59.8001295" lon="17.6649225">
        <ele>4.94385</ele>
        <time>2014-05-29T11:47:46Z</time>
      </trkpt>
      <trkpt lat="59.8001221" lon="17.6648432">
        <ele>4.46326</ele>
        <time>2014-05-29T11:47:47Z</time>
      </trkpt>
      <trkpt lat="59.8001087" lon="17.6647676">
        <ele>4.46326</ele>
        <time>2014-05-29T11:47:48Z</time>
      </trkpt>
      <trkpt lat="59.8000914" lon="17.6646887">
        <ele>4.94385</ele>
        <time>2014-05-29T11:47:49Z</time>
      </trkpt>
      <trkpt lat="59.8000704" lon="17.6646173">
        <ele>5.90527</ele>
        <time>2014-05-29T11:47:50Z</time>
      </trkpt>
      <trkpt lat="59.8000569" lon="17.6645413">
        <ele>6.38586</ele>
        <time>2014-05-29T11:47:51Z</time>
      </trkpt>
      <trkpt lat="59.8000455" lon="17.664466">
        <ele>7.34717</ele>
        <time>2014-05-29T11:47:52Z</time>
      </trkpt>
      <trkpt lat="59.8000269" lon="17.6643921">
        <ele>7.34717</ele>
        <time>2014-05-29T11:47:53Z</time>
      </trkpt>
      <trkpt lat="59.8000066" lon="17.6643178">
        <ele>7.34717</ele>
        <time>2014-05-29T11:47:54Z</time>
      </trkpt>
      <trkpt lat="59.7999937" lon="17.6642447">
        <ele>7.82788</ele>
        <time>2014-05-29T11:47:55Z</time>
      </trkpt>
      <trkpt lat="59.7999806" lon="17.6641745">
        <ele>8.78918</ele>
        <time>2014-05-29T11:47:56Z</time>
      </trkpt>
      <trkpt lat="59.7999689" lon="17.6640994">
        <ele>9.75061</ele>
        <time>2014-05-29T11:47:57Z</time>
      </trkpt>
      <trkpt lat="59.7999605" lon="17.6640178">
        <ele>9.75061</ele>
        <time>2014-05-29T11:47:58Z</time>
      </trkpt>
      <trkpt lat="59.7999463" lon="17.6639278">
        <ele>9.2699</ele>
        <time>2014-05-29T11:47:59Z</time>
      </trkpt>
      <trkpt lat="59.7999331" lon="17.6638324">
        <ele>9.75061</ele>
        <time>2014-05-29T11:48:00Z</time>
      </trkpt>
      <trkpt lat="59.7999206" lon="17.6637331">
        <ele>9.75061</ele>
        <time>2014-05-29T11:48:01Z</time>
      </trkpt>
      <trkpt lat="59.7999076" lon="17.663626">
        <ele>10.2312</ele>
        <time>2014-05-29T11:48:02Z</time>
      </trkpt>
      <trkpt lat="59.7998984" lon="17.6635247">
        <ele>10.7118</ele>
        <time>2014-05-29T11:48:03Z</time>
      </trkpt>
      <trkpt lat="59.7998865" lon="17.663427">
        <ele>11.6732</ele>
        <time>2014-05-29T11:48:04Z</time>
      </trkpt>
      <trkpt lat="59.7998743" lon="17.6633369">
        <ele>12.1538</ele>
        <time>2014-05-29T11:48:05Z</time>
      </trkpt>
      <trkpt lat="59.79986" lon="17.6632453">
        <ele>12.6344</ele>
        <time>2014-05-29T11:48:06Z</time>
      </trkpt>
      <trkpt lat="59.7998455" lon="17.6631493">
        <ele>13.5958</ele>
        <time>2014-05-29T11:48:07Z</time>
      </trkpt>
      <trkpt lat="59.7998272" lon="17.6630561">
        <ele>13.5958</ele>
        <time>2014-05-29T11:48:08Z</time>
      </trkpt>
      <trkpt lat="59.7998119" lon="17.6629707">
        <ele>14.557</ele>
        <time>2014-05-29T11:48:09Z</time>
      </trkpt>
      <trkpt lat="59.7997941" lon="17.6628936">
        <ele>14.557</ele>
        <time>2014-05-29T11:48:10Z</time>
      </trkpt>
      <trkpt lat="59.799773" lon="17.6628059">
        <ele>14.557</ele>
        <time>2014-05-29T11:48:11Z</time>
      </trkpt>
      <trkpt lat="59.7997507" lon="17.6627184">
        <ele>14.0764</ele>
        <time>2014-05-29T11:48:12Z</time>
      </trkpt>
      <trkpt lat="59.7997288" lon="17.6626337">
        <ele>14.0764</ele>
        <time>2014-05-29T11:48:13Z</time>
      </trkpt>
      <trkpt lat="59.7997083" lon="17.6625622">
        <ele>14.0764</ele>
        <time>2014-05-29T11:48:14Z</time>
      </trkpt>
      <trkpt lat="59.7996926" lon="17.6624966">
        <ele>15.0377</ele>
        <time>2014-05-29T11:48:15Z</time>
      </trkpt>
      <trkpt lat="59.7996715" lon="17.6624234">
        <ele>15.999</ele>
        <time>2014-05-29T11:48:16Z</time>
      </trkpt>
      <trkpt lat="59.7996516" lon="17.662363">
        <ele>16.4797</ele>
        <time>2014-05-29T11:48:17Z</time>
      </trkpt>
      <trkpt lat="59.7996316" lon="17.6622931">
        <ele>17.4412</ele>
        <time>2014-05-29T11:48:18Z</time>
      </trkpt>
      <trkpt lat="59.7996063" lon="17.662224">
        <ele>17.9218</ele>
        <time>2014-05-29T11:48:19Z</time>
      </trkpt>
      <trkpt lat="59.7995801" lon="17.6621523">
        <ele>18.4023</ele>
        <time>2014-05-29T11:48:20Z</time>
      </trkpt>
      <trkpt lat="59.7995585" lon="17.6620971">
        <ele>19.3638</ele>
        <time>2014-05-29T11:48:21Z</time>
      </trkpt>
      <trkpt lat="59.7995414" lon="17.6620616">
        <ele>19.3638</ele>
        <time>2014-05-29T11:48:22Z</time>
      </trkpt>
      <trkpt lat="59.7995316" lon="17.6620396">
        <ele>19.3638</ele>
        <time>2014-05-29T11:48:23Z</time>
      </trkpt>
      <trkpt lat="59.7995151" lon="17.6620175">
        <ele>18.8831</ele>
        <time>2014-05-29T11:48:24Z</time>
      </trkpt>
      <trkpt lat="59.7994977" lon="17.6619843">
        <ele>18.4023</ele>
        <time>2014-05-29T11:48:25Z</time>
      </trkpt>
      <trkpt lat="59.7994809" lon="17.6619402">
        <ele>19.3638</ele>
        <time>2014-05-29T11:48:26Z</time>
      </trkpt>
      <trkpt lat="59.7994652" lon="17.6619009">
        <ele>19.3638</ele>
        <time>2014-05-29T11:48:27Z</time>
      </trkpt>
      <trkpt lat="59.7994471" lon="17.6618564">
        <ele>20.325</ele>
        <time>2014-05-29T11:48:28Z</time>
      </trkpt>
      <trkpt lat="59.7994233" lon="17.6618057">
        <ele>20.325</ele>
        <time>2014-05-29T11:48:29Z</time>
      </trkpt>
      <trkpt lat="59.7993984" lon="17.6617435">
        <ele>20.8057</ele>
        <time>2014-05-29T11:48:30Z</time>
      </trkpt>
      <trkpt lat="59.7993748" lon="17.6616865">
        <ele>21.2864</ele>
        <time>2014-05-29T11:48:31Z</time>
      </trkpt>
      <trkpt lat="59.7993482" lon="17.6616264">
        <ele>22.7283</ele>
        <time>2014-05-29T11:48:32Z</time>
      </trkpt>
      <trkpt lat="59.7993264" lon="17.6615829">
        <ele>23.209</ele>
        <time>2014-05-29T11:48:33Z</time>
      </trkpt>
      <trkpt lat="59.7993151" lon="17.6615626">
        <ele>22.2476</ele>
        <time>2014-05-29T11:48:34Z</time>
      </trkpt>
      <trkpt lat="59.7993057" lon="17.6615418">
        <ele>22.7283</ele>
        <time>2014-05-29T11:48:35Z</time>
      </trkpt>
      <trkpt lat="59.7992937" lon="17.6615242">
        <ele>23.209</ele>
        <time>2014-05-29T11:48:36Z</time>
      </trkpt>
      <trkpt lat="59.7992866" lon="17.6615196">
        <ele>23.209</ele>
        <time>2014-05-29T11:48:37Z</time>
      </trkpt>
      <trkpt lat="59.7992836" lon="17.66152">
        <ele>22.7283</ele>
        <time>2014-05-29T11:48:38Z</time>
      </trkpt>
      <trkpt lat="59.7992815" lon="17.6615091">
        <ele>24.1703</ele>
        <time>2014-05-29T11:48:39Z</time>
      </trkpt>
      <trkpt lat="59.7992809" lon="17.6614995">
        <ele>25.6123</ele>
        <time>2014-05-29T11:48:40Z</time>
      </trkpt>
      <trkpt lat="59.7992797" lon="17.6614886">
        <ele>26.0929</ele>
        <time>2014-05-29T11:48:41Z</time>
      </trkpt>
      <trkpt lat="59.7992793" lon="17.6614837">
        <ele>26.0929</ele>
        <time>2014-05-29T11:48:42Z</time>
      </trkpt>
      <trkpt lat="59.7992845" lon="17.6614808">
        <ele>26.0929</ele>
        <time>2014-05-29T11:48:43Z</time>
      </trkpt>
      <trkpt lat="59.7992907" lon="17.661483">
        <ele>26.0929</ele>
        <time>2014-05-29T11:48:44Z</time>
      </trkpt>
      <trkpt lat="59.7992976" lon="17.6614815">
        <ele>25.6123</ele>
        <time>2014-05-29T11:48:45Z</time>
      </trkpt>
      <trkpt lat="59.7993046" lon="17.6614627">
        <ele>25.1317</ele>
        <time>2014-05-29T11:48:46Z</time>
      </trkpt>
      <trkpt lat="59.7993108" lon="17.6614317">
        <ele>24.651</ele>
        <time>2014-05-29T11:48:47Z</time>
      </trkpt>
      <trkpt lat="59.7993178" lon="17.6614133">
        <ele>24.1703</ele>
        <time>2014-05-29T11:48:48Z</time>
      </trkpt>
      <trkpt lat="59.7993206" lon="17.6613933">
        <ele>23.6896</ele>
        <time>2014-05-29T11:48:49Z</time>
      </trkpt>
      <trkpt lat="59.7993219" lon="17.6613638">
        <ele>23.209</ele>
        <time>2014-05-29T11:48:50Z</time>
      </trkpt>
      <trkpt lat="59.7993254" lon="17.6613342">
        <ele>21.767</ele>
        <time>2014-05-29T11:48:51Z</time>
      </trkpt>
      <trkpt lat="59.7993306" lon="17.6613092">
        <ele>20.8057</ele>
        <time>2014-05-29T11:48:52Z</time>
      </trkpt>
      <trkpt lat="59.7993393" lon="17.6612809">
        <ele>19.8444</ele>
        <time>2014-05-29T11:48:53Z</time>
      </trkpt>
      <trkpt lat="59.7993487" lon="17.6612451">
        <ele>17.9218</ele>
        <time>2014-05-29T11:48:54Z</time>
      </trkpt>
      <trkpt lat="59.7993611" lon="17.661213">
        <ele>16.4797</ele>
        <time>2014-05-29T11:48:55Z</time>
      </trkpt>
      <trkpt lat="59.7993751" lon="17.6611814">
        <ele>15.0377</ele>
        <time>2014-05-29T11:48:56Z</time>
      </trkpt>
      <trkpt lat="59.7993877" lon="17.6611507">
        <ele>13.5958</ele>
        <time>2014-05-29T11:48:57Z</time>
      </trkpt>
      <trkpt lat="59.7993959" lon="17.661097">
        <ele>11.6732</ele>
        <time>2014-05-29T11:48:58Z</time>
      </trkpt>
      <trkpt lat="59.7993981" lon="17.6610022">
        <ele>9.75061</ele>
        <time>2014-05-29T11:48:59Z</time>
      </trkpt>
      <trkpt lat="59.7994038" lon="17.6609083">
        <ele>8.30859</ele>
        <time>2014-05-29T11:49:00Z</time>
      </trkpt>
      <trkpt lat="59.7994193" lon="17.6608117">
        <ele>8.30859</ele>
        <time>2014-05-29T11:49:01Z</time>
      </trkpt>
      <trkpt lat="59.799444" lon="17.6607376">
        <ele>7.82788</ele>
        <time>2014-05-29T11:49:02Z</time>
      </trkpt>
      <trkpt lat="59.7994715" lon="17.6606821">
        <ele>7.34717</ele>
        <time>2014-05-29T11:49:03Z</time>
      </trkpt>
      <trkpt lat="59.7994998" lon="17.660623">
        <ele>7.82788</ele>
        <time>2014-05-29T11:49:04Z</time>
      </trkpt>
      <trkpt lat="59.7995265" lon="17.6605794">
        <ele>6.38586</ele>
        <time>2014-05-29T11:49:05Z</time>
      </trkpt>
      <trkpt lat="59.79955" lon="17.6605259">
        <ele>4.94385</ele>
        <time>2014-05-29T11:49:06Z</time>
      </trkpt>
      <trkpt lat="59.799574" lon="17.6604698">
        <ele>4.46326</ele>
        <time>2014-05-29T11:49:07Z</time>
      </trkpt>
      <trkpt lat="59.7996021" lon="17.6604209">
        <ele>3.50195</ele>
        <time>2014-05-29T11:49:08Z</time>
      </trkpt>
      <trkpt lat="59.7996306" lon="17.6603657">
        <ele>2.06006</ele>
        <time>2014-05-29T11:49:09Z</time>
      </trkpt>
      <trkpt lat="59.7996554" lon="17.6603107">
        <ele>0.618042</ele>
        <time>2014-05-29T11:49:10Z</time>
      </trkpt>
      <trkpt lat="59.799687" lon="17.6602573">
        <ele>0.137451</ele>
        <time>2014-05-29T11:49:11Z</time>
      </trkpt>
      <trkpt lat="59.7997194" lon="17.6602039">
        <ele>0</ele>
        <time>2014-05-29T11:49:12Z</time>
      </trkpt>
      <trkpt lat="59.799755" lon="17.6601569">
        <ele>0</ele>
        <time>2014-05-29T11:49:13Z</time>
      </trkpt>
      <trkpt lat="59.7998033" lon="17.6601279">
        <ele>0</ele>
        <time>2014-05-29T11:49:14Z</time>
      </trkpt>
      <trkpt lat="59.7998507" lon="17.6601105">
        <ele>0</ele>
        <time>2014-05-29T11:49:15Z</time>
      </trkpt>
      <trkpt lat="59.7998987" lon="17.6601032">
        <ele>0</ele>
        <time>2014-05-29T11:49:16Z</time>
      </trkpt>
      <trkpt lat="59.7999492" lon="17.660111">
        <ele>0</ele>
        <time>2014-05-29T11:49:17Z</time>
      </trkpt>
      <trkpt lat="59.8" lon="17.6601317">
        <ele>0</ele>
        <time>2014-05-29T11:49:18Z</time>
      </trkpt>
      <trkpt lat="59.8000575" lon="17.6601692">
        <ele>0</ele>
        <time>2014-05-29T11:49:19Z</time>
      </trkpt>
      <trkpt lat="59.800115" lon="17.6602125">
        <ele>0</ele>
        <time>2014-05-29T11:49:20Z</time>
      </trkpt>
      <trkpt lat="59.8001667" lon="17.6602521">
        <ele>0</ele>
        <time>2014-05-29T11:49:21Z</time>
      </trkpt>
      <trkpt lat="59.8002221" lon="17.6602956">
        <ele>0</ele>
        <time>2014-05-29T11:49:22Z</time>
      </trkpt>
      <trkpt lat="59.8002755" lon="17.6603424">
        <ele>0</ele>
        <time>2014-05-29T11:49:23Z</time>
      </trkpt>
      <trkpt lat="59.8003284" lon="17.660392">
        <ele>0.137451</ele>
        <time>2014-05-29T11:49:24Z</time>
      </trkpt>
      <trkpt lat="59.8003843" lon="17.6604384">
        <ele>0.137451</ele>
        <time>2014-05-29T11:49:25Z</time>
      </trkpt>
      <trkpt lat="59.8004381" lon="17.6604816">
        <ele>0.137451</ele>
        <time>2014-05-29T11:49:26Z</time>
      </trkpt>
      <trkpt lat="59.8004915" lon="17.6605275">
        <ele>0.137451</ele>
        <time>2014-05-29T11:49:27Z</time>
      </trkpt>
      <trkpt lat="59.8005422" lon="17.6605724">
        <ele>0</ele>
        <time>2014-05-29T11:49:28Z</time>
      </trkpt>
      <trkpt lat="59.8005908" lon="17.6606188">
        <ele>0</ele>
        <time>2014-05-29T11:49:29Z</time>
      </trkpt>
      <trkpt lat="59.8006397" lon="17.6606655">
        <ele>0</ele>
        <time>2014-05-29T11:49:30Z</time>
      </trkpt>
      <trkpt lat="59.8006857" lon="17.6607122">
        <ele>0</ele>
        <time>2014-05-29T11:49:31Z</time>
      </trkpt>
      <trkpt lat="59.8007322" lon="17.6607567">
        <ele>0</ele>
        <time>2014-05-29T11:49:32Z</time>
      </trkpt>
      <trkpt lat="59.8007774" lon="17.6607976">
        <ele>0</ele>
        <time>2014-05-29T11:49:33Z</time>
      </trkpt>
      <trkpt lat="59.8008223" lon="17.6608427">
        <ele>0</ele>
        <time>2014-05-29T11:49:34Z</time>
      </trkpt>
      <trkpt lat="59.8008645" lon="17.6608955">
        <ele>0</ele>
        <time>2014-05-29T11:49:35Z</time>
      </trkpt>
      <trkpt lat="59.8009085" lon="17.660956">
        <ele>0</ele>
        <time>2014-05-29T11:49:36Z</time>
      </trkpt>
      <trkpt lat="59.8009498" lon="17.661029">
        <ele>0</ele>
        <time>2014-05-29T11:49:37Z</time>
      </trkpt>
      <trkpt lat="59.8009881" lon="17.6611052">
        <ele>0</ele>
        <time>2014-05-29T11:49:38Z</time>
      </trkpt>
      <trkpt lat="59.8010291" lon="17.6611834">
        <ele>0</ele>
        <time>2014-05-29T11:49:39Z</time>
      </trkpt>
      <trkpt lat="59.8010748" lon="17.661259">
        <ele>0</ele>
        <time>2014-05-29T11:49:40Z</time>
      </trkpt>
      <trkpt lat="59.8011258" lon="17.6613229">
        <ele>0</ele>
        <time>2014-05-29T11:49:41Z</time>
      </trkpt>
      <trkpt lat="59.8011793" lon="17.6613737">
        <ele>0</ele>
        <time>2014-05-29T11:49:42Z</time>
      </trkpt>
      <trkpt lat="59.8012342" lon="17.6614078">
        <ele>0</ele>
        <time>2014-05-29T11:49:43Z</time>
      </trkpt>
      <trkpt lat="59.8012906" lon="17.661434">
        <ele>0</ele>
        <time>2014-05-29T11:49:44Z</time>
      </trkpt>
      <trkpt lat="59.8013506" lon="17.6614578">
        <ele>0</ele>
        <time>2014-05-29T11:49:45Z</time>
      </trkpt>
      <trkpt lat="59.8014114" lon="17.6614824">
        <ele>0</ele>
        <time>2014-05-29T11:49:46Z</time>
      </trkpt>
      <trkpt lat="59.8014721" lon="17.6615114">
        <ele>0</ele>
        <time>2014-05-29T11:49:47Z</time>
      </trkpt>
      <trkpt lat="59.8015314" lon="17.6615404">
        <ele>0</ele>
        <time>2014-05-29T11:49:48Z</time>
      </trkpt>
      <trkpt lat="59.8015881" lon="17.6615777">
        <ele>0</ele>
        <time>2014-05-29T11:49:49Z</time>
      </trkpt>
      <trkpt lat="59.8016418" lon="17.6616176">
        <ele>0.137451</ele>
        <time>2014-05-29T11:49:50Z</time>
      </trkpt>
      <trkpt lat="59.8016946" lon="17.6616555">
        <ele>0.137451</ele>
        <time>2014-05-29T11:49:51Z</time>
      </trkpt>
      <trkpt lat="59.8017487" lon="17.6616964">
        <ele>0.137451</ele>
        <time>2014-05-29T11:49:52Z</time>
      </trkpt>
      <trkpt lat="59.8018015" lon="17.6617398">
        <ele>0.618042</ele>
        <time>2014-05-29T11:49:53Z</time>
      </trkpt>
      <trkpt lat="59.8018567" lon="17.6617752">
        <ele>0.137451</ele>
        <time>2014-05-29T11:49:54Z</time>
      </trkpt>
      <trkpt lat="59.8019148" lon="17.6618118">
        <ele>0.137451</ele>
        <time>2014-05-29T11:49:55Z</time>
      </trkpt>
      <trkpt lat="59.8019712" lon="17.6618486">
        <ele>0.618042</ele>
        <time>2014-05-29T11:49:56Z</time>
      </trkpt>
      <trkpt lat="59.8020261" lon="17.6618871">
        <ele>0.618042</ele>
        <time>2014-05-29T11:49:57Z</time>
      </trkpt>
      <trkpt lat="59.8020821" lon="17.6619269">
        <ele>0.618042</ele>
        <time>2014-05-29T11:49:58Z</time>
      </trkpt>
      <trkpt lat="59.8021382" lon="17.6619688">
        <ele>0.618042</ele>
        <time>2014-05-29T11:49:59Z</time>
      </trkpt>
      <trkpt lat="59.8021946" lon="17.6620152">
        <ele>0.618042</ele>
        <time>2014-05-29T11:50:00Z</time>
      </trkpt>
      <trkpt lat="59.8022506" lon="17.6620677">
        <ele>0.618042</ele>
        <time>2014-05-29T11:50:01Z</time>
      </trkpt>
      <trkpt lat="59.8023061" lon="17.6621267">
        <ele>0.618042</ele>
        <time>2014-05-29T11:50:02Z</time>
      </trkpt>
      <trkpt lat="59.8023595" lon="17.6621905">
        <ele>0.618042</ele>
        <time>2014-05-29T11:50:03Z</time>
      </trkpt>
      <trkpt lat="59.8024105" lon="17.6622599">
        <ele>0.618042</ele>
        <time>2014-05-29T11:50:04Z</time>
      </trkpt>
      <trkpt lat="59.80246" lon="17.662332">
        <ele>0.618042</ele>
        <time>2014-05-29T11:50:05Z</time>
      </trkpt>
      <trkpt lat="59.8025081" lon="17.6624079">
        <ele>0.618042</ele>
        <time>2014-05-29T11:50:06Z</time>
      </trkpt>
      <trkpt lat="59.802554" lon="17.6624884">
        <ele>0.618042</ele>
        <time>2014-05-29T11:50:07Z</time>
      </trkpt>
      <trkpt lat="59.8026003" lon="17.6625685">
        <ele>0.618042</ele>
        <time>2014-05-29T11:50:08Z</time>
      </trkpt>
      <trkpt lat="59.8026479" lon="17.6626458">
        <ele>0.618042</ele>
        <time>2014-05-29T11:50:09Z</time>
      </trkpt>
      <trkpt lat="59.802696" lon="17.6627218">
        <ele>0.618042</ele>
        <time>2014-05-29T11:50:10Z</time>
      </trkpt>
      <trkpt lat="59.8027439" lon="17.6627981">
        <ele>0.618042</ele>
        <time>2014-05-29T11:50:11Z</time>
      </trkpt>
      <trkpt lat="59.8027899" lon="17.6628744">
        <ele>0.618042</ele>
        <time>2014-05-29T11:50:12Z</time>
      </trkpt>
      <trkpt lat="59.802834" lon="17.6629445">
        <ele>0.618042</ele>
        <time>2014-05-29T11:50:13Z</time>
      </trkpt>
      <trkpt lat="59.8028785" lon="17.6630134">
        <ele>1.09863</ele>
        <time>2014-05-29T11:50:14Z</time>
      </trkpt>
      <trkpt lat="59.8029235" lon="17.6630831">
        <ele>0.618042</ele>
        <time>2014-05-29T11:50:15Z</time>
      </trkpt>
      <trkpt lat="59.8029664" lon="17.6631504">
        <ele>0.618042</ele>
        <time>2014-05-29T11:50:16Z</time>
      </trkpt>
      <trkpt lat="59.8030067" lon="17.663215">
        <ele>1.09863</ele>
        <time>2014-05-29T11:50:17Z</time>
      </trkpt>
      <trkpt lat="59.8030463" lon="17.6632777">
        <ele>1.09863</ele>
        <time>2014-05-29T11:50:18Z</time>
      </trkpt>
      <trkpt lat="59.8030862" lon="17.66334">
        <ele>1.09863</ele>
        <time>2014-05-29T11:50:19Z</time>
      </trkpt>
      <trkpt lat="59.8031275" lon="17.6634002">
        <ele>1.09863</ele>
        <time>2014-05-29T11:50:20Z</time>
      </trkpt>
      <trkpt lat="59.8031709" lon="17.6634571">
        <ele>1.09863</ele>
        <time>2014-05-29T11:50:21Z</time>
      </trkpt>
      <trkpt lat="59.8032157" lon="17.6635113">
        <ele>1.09863</ele>
        <time>2014-05-29T11:50:22Z</time>
      </trkpt>
      <trkpt lat="59.8032618" lon="17.6635605">
        <ele>1.09863</ele>
        <time>2014-05-29T11:50:23Z</time>
      </trkpt>
      <trkpt lat="59.8033088" lon="17.6636077">
        <ele>1.09863</ele>
        <time>2014-05-29T11:50:24Z</time>
      </trkpt>
      <trkpt lat="59.8033566" lon="17.6636533">
        <ele>1.09863</ele>
        <time>2014-05-29T11:50:25Z</time>
      </trkpt>
      <trkpt lat="59.8034057" lon="17.6636964">
        <ele>1.09863</ele>
        <time>2014-05-29T11:50:26Z</time>
      </trkpt>
      <trkpt lat="59.8034559" lon="17.6637372">
        <ele>1.09863</ele>
        <time>2014-05-29T11:50:27Z</time>
      </trkpt>
      <trkpt lat="59.8035064" lon="17.6637772">
        <ele>1.09863</ele>
        <time>2014-05-29T11:50:28Z</time>
      </trkpt>
      <trkpt lat="59.8035569" lon="17.6638174">
        <ele>1.09863</ele>
        <time>2014-05-29T11:50:29Z</time>
      </trkpt>
      <trkpt lat="59.8036069" lon="17.6638571">
        <ele>1.09863</ele>
        <time>2014-05-29T11:50:30Z</time>
      </trkpt>
      <trkpt lat="59.8036575" lon="17.6638963">
        <ele>1.09863</ele>
        <time>2014-05-29T11:50:31Z</time>
      </trkpt>
      <trkpt lat="59.8037082" lon="17.6639352">
        <ele>1.57935</ele>
        <time>2014-05-29T11:50:32Z</time>
      </trkpt>
      <trkpt lat="59.8037582" lon="17.6639738">
        <ele>1.57935</ele>
        <time>2014-05-29T11:50:33Z</time>
      </trkpt>
      <trkpt lat="59.8038081" lon="17.6640121">
        <ele>1.57935</ele>
        <time>2014-05-29T11:50:34Z</time>
      </trkpt>
      <trkpt lat="59.8038575" lon="17.6640508">
        <ele>1.57935</ele>
        <time>2014-05-29T11:50:35Z</time>
      </trkpt>
      <trkpt lat="59.8039061" lon="17.6640894">
        <ele>1.57935</ele>
        <time>2014-05-29T11:50:36Z</time>
      </trkpt>
      <trkpt lat="59.8039524" lon="17.664128">
        <ele>1.57935</ele>
        <time>2014-05-29T11:50:37Z</time>
      </trkpt>
      <trkpt lat="59.8039973" lon="17.664165">
        <ele>1.57935</ele>
        <time>2014-05-29T11:50:38Z</time>
      </trkpt>
      <trkpt lat="59.8040414" lon="17.6641989">
        <ele>2.06006</ele>
        <time>2014-05-29T11:50:39Z</time>
      </trkpt>
      <trkpt lat="59.8040853" lon="17.6642325">
        <ele>2.06006</ele>
        <time>2014-05-29T11:50:40Z</time>
      </trkpt>
      <trkpt lat="59.8041296" lon="17.6642642">
        <ele>2.06006</ele>
        <time>2014-05-29T11:50:41Z</time>
      </trkpt>
      <trkpt lat="59.804175" lon="17.6642936">
        <ele>2.06006</ele>
        <time>2014-05-29T11:50:42Z</time>
      </trkpt>
      <trkpt lat="59.8042211" lon="17.6643209">
        <ele>2.06006</ele>
        <time>2014-05-29T11:50:43Z</time>
      </trkpt>
      <trkpt lat="59.8042682" lon="17.6643432">
        <ele>2.06006</ele>
        <time>2014-05-29T11:50:44Z</time>
      </trkpt>
      <trkpt lat="59.8043163" lon="17.664361">
        <ele>2.06006</ele>
        <time>2014-05-29T11:50:45Z</time>
      </trkpt>
      <trkpt lat="59.8043662" lon="17.6643729">
        <ele>2.06006</ele>
        <time>2014-05-29T11:50:46Z</time>
      </trkpt>
      <trkpt lat="59.8044167" lon="17.6643774">
        <ele>2.06006</ele>
        <time>2014-05-29T11:50:47Z</time>
      </trkpt>
      <trkpt lat="59.8044668" lon="17.6643768">
        <ele>2.06006</ele>
        <time>2014-05-29T11:50:48Z</time>
      </trkpt>
      <trkpt lat="59.8045174" lon="17.6643737">
        <ele>1.57935</ele>
        <time>2014-05-29T11:50:49Z</time>
      </trkpt>
      <trkpt lat="59.804569" lon="17.6643697">
        <ele>1.57935</ele>
        <time>2014-05-29T11:50:50Z</time>
      </trkpt>
      <trkpt lat="59.8046217" lon="17.6643686">
        <ele>1.57935</ele>
        <time>2014-05-29T11:50:51Z</time>
      </trkpt>
      <trkpt lat="59.8046759" lon="17.6643724">
        <ele>1.09863</ele>
        <time>2014-05-29T11:50:52Z</time>
      </trkpt>
      <trkpt lat="59.804731" lon="17.6643801">
        <ele>1.09863</ele>
        <time>2014-05-29T11:50:53Z</time>
      </trkpt>
      <trkpt lat="59.8047863" lon="17.6643906">
        <ele>0.618042</ele>
        <time>2014-05-29T11:50:54Z</time>
      </trkpt>
      <trkpt lat="59.8048417" lon="17.6644007">
        <ele>0.618042</ele>
        <time>2014-05-29T11:50:55Z</time>
      </trkpt>
      <trkpt lat="59.8048944" lon="17.6644174">
        <ele>0.137451</ele>
        <time>2014-05-29T11:50:56Z</time>
      </trkpt>
      <trkpt lat="59.8049447" lon="17.6644418">
        <ele>0.137451</ele>
        <time>2014-05-29T11:50:57Z</time>
      </trkpt>
      <trkpt lat="59.804995" lon="17.6644718">
        <ele>0.137451</ele>
        <time>2014-05-29T11:50:58Z</time>
      </trkpt>
      <trkpt lat="59.8050451" lon="17.6645081">
        <ele>0.137451</ele>
        <time>2014-05-29T11:50:59Z</time>
      </trkpt>
      <trkpt lat="59.8050948" lon="17.6645484">
        <ele>0</ele>
        <time>2014-05-29T11:51:00Z</time>
      </trkpt>
      <trkpt lat="59.8051441" lon="17.6645947">
        <ele>0</ele>
        <time>2014-05-29T11:51:01Z</time>
      </trkpt>
      <trkpt lat="59.8051908" lon="17.6646543">
        <ele>0</ele>
        <time>2014-05-29T11:51:02Z</time>
      </trkpt>
      <trkpt lat="59.8052321" lon="17.6647251">
        <ele>0</ele>
        <time>2014-05-29T11:51:03Z</time>
      </trkpt>
      <trkpt lat="59.8052713" lon="17.6648037">
        <ele>0</ele>
        <time>2014-05-29T11:51:04Z</time>
      </trkpt>
      <trkpt lat="59.8053074" lon="17.6648832">
        <ele>0</ele>
        <time>2014-05-29T11:51:05Z</time>
      </trkpt>
      <trkpt lat="59.8053437" lon="17.6649609">
        <ele>0</ele>
        <time>2014-05-29T11:51:06Z</time>
      </trkpt>
      <trkpt lat="59.8053799" lon="17.6650298">
        <ele>0</ele>
        <time>2014-05-29T11:51:07Z</time>
      </trkpt>
      <trkpt lat="59.8054183" lon="17.6650902">
        <ele>0</ele>
        <time>2014-05-29T11:51:08Z</time>
      </trkpt>
      <trkpt lat="59.8054631" lon="17.6651369">
        <ele>0</ele>
        <time>2014-05-29T11:51:09Z</time>
      </trkpt>
      <trkpt lat="59.8055111" lon="17.6651561">
        <ele>0</ele>
        <time>2014-05-29T11:51:10Z</time>
      </trkpt>
      <trkpt lat="59.805561" lon="17.6651552">
        <ele>0</ele>
        <time>2014-05-29T11:51:11Z</time>
      </trkpt>
      <trkpt lat="59.8056104" lon="17.6651355">
        <ele>0</ele>
        <time>2014-05-29T11:51:12Z</time>
      </trkpt>
      <trkpt lat="59.8056592" lon="17.6651057">
        <ele>0</ele>
        <time>2014-05-29T11:51:13Z</time>
      </trkpt>
      <trkpt lat="59.80571" lon="17.6650689">
        <ele>0</ele>
        <time>2014-05-29T11:51:14Z</time>
      </trkpt>
      <trkpt lat="59.8057576" lon="17.6650332">
        <ele>0</ele>
        <time>2014-05-29T11:51:15Z</time>
      </trkpt>
      <trkpt lat="59.8058062" lon="17.664998">
        <ele>0</ele>
        <time>2014-05-29T11:51:16Z</time>
      </trkpt>
      <trkpt lat="59.8058549" lon="17.6649614">
        <ele>0</ele>
        <time>2014-05-29T11:51:17Z</time>
      </trkpt>
      <trkpt lat="59.8059036" lon="17.6649272">
        <ele>0</ele>
        <time>2014-05-29T11:51:18Z</time>
      </trkpt>
      <trkpt lat="59.8059532" lon="17.6648922">
        <ele>0</ele>
        <time>2014-05-29T11:51:19Z</time>
      </trkpt>
      <trkpt lat="59.8060022" lon="17.6648573">
        <ele>0</ele>
        <time>2014-05-29T11:51:20Z</time>
      </trkpt>
      <trkpt lat="59.8060514" lon="17.664822">
        <ele>0</ele>
        <time>2014-05-29T11:51:21Z</time>
      </trkpt>
      <trkpt lat="59.8061036" lon="17.6647884">
        <ele>0</ele>
        <time>2014-05-29T11:51:22Z</time>
      </trkpt>
      <trkpt lat="59.8061557" lon="17.6647542">
        <ele>0</ele>
        <time>2014-05-29T11:51:23Z</time>
      </trkpt>
      <trkpt lat="59.8062072" lon="17.6647189">
        <ele>0</ele>
        <time>2014-05-29T11:51:24Z</time>
      </trkpt>
      <trkpt lat="59.8062574" lon="17.6646816">
        <ele>0</ele>
        <time>2014-05-29T11:51:25Z</time>
      </trkpt>
      <trkpt lat="59.8063082" lon="17.6646437">
        <ele>0</ele>
        <time>2014-05-29T11:51:26Z</time>
      </trkpt>
      <trkpt lat="59.8063601" lon="17.6646133">
        <ele>0</ele>
        <time>2014-05-29T11:51:27Z</time>
      </trkpt>
      <trkpt lat="59.8064148" lon="17.6645946">
        <ele>0</ele>
        <time>2014-05-29T11:51:28Z</time>
      </trkpt>
      <trkpt lat="59.8064707" lon="17.6645828">
        <ele>0</ele>
        <time>2014-05-29T11:51:29Z</time>
      </trkpt>
      <trkpt lat="59.8065283" lon="17.6645755">
        <ele>0</ele>
        <time>2014-05-29T11:51:30Z</time>
      </trkpt>
      <trkpt lat="59.8065874" lon="17.6645753">
        <ele>0</ele>
        <time>2014-05-29T11:51:31Z</time>
      </trkpt>
      <trkpt lat="59.8066442" lon="17.6645794">
        <ele>0</ele>
        <time>2014-05-29T11:51:32Z</time>
      </trkpt>
      <trkpt lat="59.8067005" lon="17.6645812">
        <ele>0</ele>
        <time>2014-05-29T11:51:33Z</time>
      </trkpt>
      <trkpt lat="59.8067561" lon="17.6645805">
        <ele>0</ele>
        <time>2014-05-29T11:51:34Z</time>
      </trkpt>
      <trkpt lat="59.8068113" lon="17.6645805">
        <ele>0</ele>
        <time>2014-05-29T11:51:35Z</time>
      </trkpt>
      <trkpt lat="59.806867" lon="17.6645832">
        <ele>0</ele>
        <time>2014-05-29T11:51:36Z</time>
      </trkpt>
      <trkpt lat="59.806922" lon="17.6645892">
        <ele>0</ele>
        <time>2014-05-29T11:51:37Z</time>
      </trkpt>
      <trkpt lat="59.8069816" lon="17.6645982">
        <ele>0</ele>
        <time>2014-05-29T11:51:38Z</time>
      </trkpt>
      <trkpt lat="59.8070374" lon="17.6646024">
        <ele>0</ele>
        <time>2014-05-29T11:51:39Z</time>
      </trkpt>
      <trkpt lat="59.8070967" lon="17.6646095">
        <ele>0</ele>
        <time>2014-05-29T11:51:40Z</time>
      </trkpt>
      <trkpt lat="59.8071567" lon="17.6646161">
        <ele>0</ele>
        <time>2014-05-29T11:51:41Z</time>
      </trkpt>
      <trkpt lat="59.8072137" lon="17.6646188">
        <ele>0</ele>
        <time>2014-05-29T11:51:42Z</time>
      </trkpt>
      <trkpt lat="59.8072707" lon="17.6646231">
        <ele>0</ele>
        <time>2014-05-29T11:51:43Z</time>
      </trkpt>
      <trkpt lat="59.8073274" lon="17.6646293">
        <ele>0</ele>
        <time>2014-05-29T11:51:44Z</time>
      </trkpt>
      <trkpt lat="59.8073837" lon="17.6646355">
        <ele>0</ele>
        <time>2014-05-29T11:51:45Z</time>
      </trkpt>
      <trkpt lat="59.8074394" lon="17.6646433">
        <ele>0</ele>
        <time>2014-05-29T11:51:46Z</time>
      </trkpt>
      <trkpt lat="59.807495" lon="17.6646536">
        <ele>0</ele>
        <time>2014-05-29T11:51:47Z</time>
      </trkpt>
      <trkpt lat="59.8075521" lon="17.664664">
        <ele>0</ele>
        <time>2014-05-29T11:51:48Z</time>
      </trkpt>
      <trkpt lat="59.8076098" lon="17.6646748">
        <ele>0</ele>
        <time>2014-05-29T11:51:49Z</time>
      </trkpt>
      <trkpt lat="59.8076675" lon="17.6646876">
        <ele>0</ele>
        <time>2014-05-29T11:51:50Z</time>
      </trkpt>
      <trkpt lat="59.8077255" lon="17.6647003">
        <ele>0</ele>
        <time>2014-05-29T11:51:51Z</time>
      </trkpt>
      <trkpt lat="59.8077838" lon="17.6647143">
        <ele>0</ele>
        <time>2014-05-29T11:51:52Z</time>
      </trkpt>
      <trkpt lat="59.8078424" lon="17.6647299">
        <ele>0</ele>
        <time>2014-05-29T11:51:53Z</time>
      </trkpt>
      <trkpt lat="59.8079009" lon="17.6647475">
        <ele>0</ele>
        <time>2014-05-29T11:51:54Z</time>
      </trkpt>
      <trkpt lat="59.8079596" lon="17.664768">
        <ele>0</ele>
        <time>2014-05-29T11:51:55Z</time>
      </trkpt>
      <trkpt lat="59.8080175" lon="17.6647894">
        <ele>0</ele>
        <time>2014-05-29T11:51:56Z</time>
      </trkpt>
      <trkpt lat="59.808075" lon="17.6648119">
        <ele>0</ele>
        <time>2014-05-29T11:51:57Z</time>
      </trkpt>
      <trkpt lat="59.8081329" lon="17.6648363">
        <ele>0</ele>
        <time>2014-05-29T11:51:58Z</time>
      </trkpt>
      <trkpt lat="59.808191" lon="17.6648617">
        <ele>0</ele>
        <time>2014-05-29T11:51:59Z</time>
      </trkpt>
      <trkpt lat="59.8082488" lon="17.6648872">
        <ele>0</ele>
        <time>2014-05-29T11:52:00Z</time>
      </trkpt>
      <trkpt lat="59.8083057" lon="17.6649107">
        <ele>0</ele>
        <time>2014-05-29T11:52:01Z</time>
      </trkpt>
      <trkpt lat="59.8083652" lon="17.664936">
        <ele>0</ele>
        <time>2014-05-29T11:52:02Z</time>
      </trkpt>
      <trkpt lat="59.8084244" lon="17.6649639">
        <ele>0</ele>
        <time>2014-05-29T11:52:03Z</time>
      </trkpt>
      <trkpt lat="59.8084806" lon="17.6649935">
        <ele>0</ele>
        <time>2014-05-29T11:52:04Z</time>
      </trkpt>
      <trkpt lat="59.8085362" lon="17.6650307">
        <ele>0</ele>
        <time>2014-05-29T11:52:05Z</time>
      </trkpt>
      <trkpt lat="59.80859" lon="17.6650756">
        <ele>0</ele>
        <time>2014-05-29T11:52:06Z</time>
      </trkpt>
      <trkpt lat="59.8086424" lon="17.6651266">
        <ele>0</ele>
        <time>2014-05-29T11:52:07Z</time>
      </trkpt>
      <trkpt lat="59.8086904" lon="17.6651773">
        <ele>0</ele>
        <time>2014-05-29T11:52:08Z</time>
      </trkpt>
      <trkpt lat="59.8087361" lon="17.6652241">
        <ele>0</ele>
        <time>2014-05-29T11:52:09Z</time>
      </trkpt>
      <trkpt lat="59.8087818" lon="17.6652707">
        <ele>0</ele>
        <time>2014-05-29T11:52:10Z</time>
      </trkpt>
      <trkpt lat="59.8088294" lon="17.6653151">
        <ele>0</ele>
        <time>2014-05-29T11:52:11Z</time>
      </trkpt>
      <trkpt lat="59.8088796" lon="17.665353">
        <ele>0</ele>
        <time>2014-05-29T11:52:12Z</time>
      </trkpt>
      <trkpt lat="59.8089299" lon="17.6653799">
        <ele>0</ele>
        <time>2014-05-29T11:52:13Z</time>
      </trkpt>
      <trkpt lat="59.8089797" lon="17.6653968">
        <ele>0</ele>
        <time>2014-05-29T11:52:14Z</time>
      </trkpt>
      <trkpt lat="59.8090282" lon="17.6654085">
        <ele>0</ele>
        <time>2014-05-29T11:52:15Z</time>
      </trkpt>
      <trkpt lat="59.8090765" lon="17.6654155">
        <ele>0</ele>
        <time>2014-05-29T11:52:16Z</time>
      </trkpt>
      <trkpt lat="59.8091241" lon="17.6654187">
        <ele>0</ele>
        <time>2014-05-29T11:52:17Z</time>
      </trkpt>
      <trkpt lat="59.8091733" lon="17.6654187">
        <ele>0</ele>
        <time>2014-05-29T11:52:18Z</time>
      </trkpt>
      <trkpt lat="59.8092235" lon="17.6654188">
        <ele>0</ele>
        <time>2014-05-29T11:52:19Z</time>
      </trkpt>
      <trkpt lat="59.8092724" lon="17.6654318">
        <ele>0</ele>
        <time>2014-05-29T11:52:20Z</time>
      </trkpt>
      <trkpt lat="59.8093194" lon="17.6654663">
        <ele>0</ele>
        <time>2014-05-29T11:52:21Z</time>
      </trkpt>
      <trkpt lat="59.8093596" lon="17.6655209">
        <ele>0</ele>
        <time>2014-05-29T11:52:22Z</time>
      </trkpt>
      <trkpt lat="59.8093909" lon="17.6655906">
        <ele>0</ele>
        <time>2014-05-29T11:52:23Z</time>
      </trkpt>
      <trkpt lat="59.8094173" lon="17.6656725">
        <ele>0</ele>
        <time>2014-05-29T11:52:24Z</time>
      </trkpt>
      <trkpt lat="59.8094442" lon="17.6657606">
        <ele>0</ele>
        <time>2014-05-29T11:52:25Z</time>
      </trkpt>
      <trkpt lat="59.8094712" lon="17.6658497">
        <ele>0</ele>
        <time>2014-05-29T11:52:26Z</time>
      </trkpt>
      <trkpt lat="59.809501" lon="17.6659409">
        <ele>0</ele>
        <time>2014-05-29T11:52:27Z</time>
      </trkpt>
      <trkpt lat="59.8095297" lon="17.6660357">
        <ele>0</ele>
        <time>2014-05-29T11:52:28Z</time>
      </trkpt>
      <trkpt lat="59.8095588" lon="17.666131">
        <ele>0</ele>
        <time>2014-05-29T11:52:29Z</time>
      </trkpt>
      <trkpt lat="59.8095897" lon="17.6662246">
        <ele>0</ele>
        <time>2014-05-29T11:52:30Z</time>
      </trkpt>
      <trkpt lat="59.8096203" lon="17.666317">
        <ele>0</ele>
        <time>2014-05-29T11:52:31Z</time>
      </trkpt>
      <trkpt lat="59.8096468" lon="17.6664092">
        <ele>0</ele>
        <time>2014-05-29T11:52:32Z</time>
      </trkpt>
      <trkpt lat="59.8096737" lon="17.6665009">
        <ele>0</ele>
        <time>2014-05-29T11:52:33Z</time>
      </trkpt>
      <trkpt lat="59.8097038" lon="17.6665925">
        <ele>0</ele>
        <time>2014-05-29T11:52:34Z</time>
      </trkpt>
      <trkpt lat="59.8097334" lon="17.6666862">
        <ele>0</ele>
        <time>2014-05-29T11:52:35Z</time>
      </trkpt>
      <trkpt lat="59.809765" lon="17.6667759">
        <ele>0</ele>
        <time>2014-05-29T11:52:36Z</time>
      </trkpt>
      <trkpt lat="59.8097965" lon="17.6668657">
        <ele>0</ele>
        <time>2014-05-29T11:52:37Z</time>
      </trkpt>
      <trkpt lat="59.8098255" lon="17.6669577">
        <ele>0</ele>
        <time>2014-05-29T11:52:38Z</time>
      </trkpt>
      <trkpt lat="59.8098509" lon="17.6670519">
        <ele>0</ele>
        <time>2014-05-29T11:52:39Z</time>
      </trkpt>
      <trkpt lat="59.8098695" lon="17.6671463">
        <ele>0</ele>
        <time>2014-05-29T11:52:40Z</time>
      </trkpt>
      <trkpt lat="59.8098786" lon="17.6672399">
        <ele>0</ele>
        <time>2014-05-29T11:52:41Z</time>
      </trkpt>
      <trkpt lat="59.8098783" lon="17.6673287">
        <ele>0</ele>
        <time>2014-05-29T11:52:42Z</time>
      </trkpt>
      <trkpt lat="59.8098699" lon="17.6674067">
        <ele>0</ele>
        <time>2014-05-29T11:52:43Z</time>
      </trkpt>
      <trkpt lat="59.8098586" lon="17.6674683">
        <ele>0</ele>
        <time>2014-05-29T11:52:44Z</time>
      </trkpt>
      <trkpt lat="59.8098455" lon="17.6675242">
        <ele>0</ele>
        <time>2014-05-29T11:52:45Z</time>
      </trkpt>
      <trkpt lat="59.8098276" lon="17.6675886">
        <ele>0</ele>
        <time>2014-05-29T11:52:46Z</time>
      </trkpt>
      <trkpt lat="59.8098085" lon="17.6676591">
        <ele>0</ele>
        <time>2014-05-29T11:52:47Z</time>
      </trkpt>
      <trkpt lat="59.8097908" lon="17.6677377">
        <ele>0</ele>
        <time>2014-05-29T11:52:48Z</time>
      </trkpt>
      <trkpt lat="59.8097745" lon="17.6678315">
        <ele>0</ele>
        <time>2014-05-29T11:52:49Z</time>
      </trkpt>
      <trkpt lat="59.8097621" lon="17.6679316">
        <ele>0</ele>
        <time>2014-05-29T11:52:50Z</time>
      </trkpt>
      <trkpt lat="59.8097507" lon="17.6680439">
        <ele>0</ele>
        <time>2014-05-29T11:52:51Z</time>
      </trkpt>
      <trkpt lat="59.809739" lon="17.6681734">
        <ele>0</ele>
        <time>2014-05-29T11:52:52Z</time>
      </trkpt>
      <trkpt lat="59.8097411" lon="17.6682942">
        <ele>0</ele>
        <time>2014-05-29T11:52:53Z</time>
      </trkpt>
      <trkpt lat="59.8097495" lon="17.6684057">
        <ele>0</ele>
        <time>2014-05-29T11:52:54Z</time>
      </trkpt>
      <trkpt lat="59.8097789" lon="17.6684973">
        <ele>0</ele>
        <time>2014-05-29T11:52:55Z</time>
      </trkpt>
      <trkpt lat="59.8098193" lon="17.6685826">
        <ele>0</ele>
        <time>2014-05-29T11:52:56Z</time>
      </trkpt>
      <trkpt lat="59.8098607" lon="17.6686557">
        <ele>0</ele>
        <time>2014-05-29T11:52:57Z</time>
      </trkpt>
      <trkpt lat="59.8099109" lon="17.6687081">
        <ele>0</ele>
        <time>2014-05-29T11:52:58Z</time>
      </trkpt>
      <trkpt lat="59.809967" lon="17.6687481">
        <ele>0</ele>
        <time>2014-05-29T11:52:59Z</time>
      </trkpt>
      <trkpt lat="59.8100209" lon="17.6687875">
        <ele>0</ele>
        <time>2014-05-29T11:53:00Z</time>
      </trkpt>
      <trkpt lat="59.8100737" lon="17.6688247">
        <ele>0</ele>
        <time>2014-05-29T11:53:01Z</time>
      </trkpt>
      <trkpt lat="59.810125" lon="17.6688614">
        <ele>0</ele>
        <time>2014-05-29T11:53:02Z</time>
      </trkpt>
      <trkpt lat="59.8101756" lon="17.6689001">
        <ele>0</ele>
        <time>2014-05-29T11:53:03Z</time>
      </trkpt>
      <trkpt lat="59.8102234" lon="17.6689413">
        <ele>0</ele>
        <time>2014-05-29T11:53:04Z</time>
      </trkpt>
      <trkpt lat="59.8102715" lon="17.6689847">
        <ele>0</ele>
        <time>2014-05-29T11:53:05Z</time>
      </trkpt>
      <trkpt lat="59.8103221" lon="17.6690262">
        <ele>0</ele>
        <time>2014-05-29T11:53:06Z</time>
      </trkpt>
      <trkpt lat="59.8103734" lon="17.6690651">
        <ele>0</ele>
        <time>2014-05-29T11:53:07Z</time>
      </trkpt>
      <trkpt lat="59.8104255" lon="17.6691013">
        <ele>0</ele>
        <time>2014-05-29T11:53:08Z</time>
      </trkpt>
      <trkpt lat="59.8104782" lon="17.6691394">
        <ele>0</ele>
        <time>2014-05-29T11:53:09Z</time>
      </trkpt>
      <trkpt lat="59.8105319" lon="17.6691805">
        <ele>0</ele>
        <time>2014-05-29T11:53:10Z</time>
      </trkpt>
      <trkpt lat="59.8105862" lon="17.6692209">
        <ele>0</ele>
        <time>2014-05-29T11:53:11Z</time>
      </trkpt>
      <trkpt lat="59.8106401" lon="17.6692643">
        <ele>0</ele>
        <time>2014-05-29T11:53:12Z</time>
      </trkpt>
      <trkpt lat="59.8106946" lon="17.6693085">
        <ele>0</ele>
        <time>2014-05-29T11:53:13Z</time>
      </trkpt>
      <trkpt lat="59.8107496" lon="17.6693499">
        <ele>0</ele>
        <time>2014-05-29T11:53:14Z</time>
      </trkpt>
      <trkpt lat="59.8108039" lon="17.6693909">
        <ele>0</ele>
        <time>2014-05-29T11:53:15Z</time>
      </trkpt>
      <trkpt lat="59.8108592" lon="17.6694333">
        <ele>0</ele>
        <time>2014-05-29T11:53:16Z</time>
      </trkpt>
      <trkpt lat="59.8109145" lon="17.6694782">
        <ele>0</ele>
        <time>2014-05-29T11:53:17Z</time>
      </trkpt>
      <trkpt lat="59.8109724" lon="17.6695248">
        <ele>0</ele>
        <time>2014-05-29T11:53:18Z</time>
      </trkpt>
      <trkpt lat="59.811031" lon="17.669568">
        <ele>0</ele>
        <time>2014-05-29T11:53:19Z</time>
      </trkpt>
      <trkpt lat="59.8110898" lon="17.6696123">
        <ele>0</ele>
        <time>2014-05-29T11:53:20Z</time>
      </trkpt>
      <trkpt lat="59.811149" lon="17.6696562">
        <ele>0</ele>
        <time>2014-05-29T11:53:21Z</time>
      </trkpt>
      <trkpt lat="59.8112082" lon="17.6696964">
        <ele>0.137451</ele>
        <time>2014-05-29T11:53:22Z</time>
      </trkpt>
      <trkpt lat="59.8112669" lon="17.6697384">
        <ele>0.137451</ele>
        <time>2014-05-29T11:53:23Z</time>
      </trkpt>
      <trkpt lat="59.8113258" lon="17.6697825">
        <ele>0.137451</ele>
        <time>2014-05-29T11:53:24Z</time>
      </trkpt>
      <trkpt lat="59.8113858" lon="17.6698249">
        <ele>0.137451</ele>
        <time>2014-05-29T11:53:25Z</time>
      </trkpt>
      <trkpt lat="59.8114458" lon="17.6698654">
        <ele>0.137451</ele>
        <time>2014-05-29T11:53:26Z</time>
      </trkpt>
      <trkpt lat="59.8115049" lon="17.6699061">
        <ele>0.137451</ele>
        <time>2014-05-29T11:53:27Z</time>
      </trkpt>
      <trkpt lat="59.8115625" lon="17.6699466">
        <ele>0</ele>
        <time>2014-05-29T11:53:28Z</time>
      </trkpt>
      <trkpt lat="59.811621" lon="17.6699886">
        <ele>0</ele>
        <time>2014-05-29T11:53:29Z</time>
      </trkpt>
      <trkpt lat="59.8116821" lon="17.6700249">
        <ele>0</ele>
        <time>2014-05-29T11:53:30Z</time>
      </trkpt>
      <trkpt lat="59.8117437" lon="17.6700514">
        <ele>0</ele>
        <time>2014-05-29T11:53:31Z</time>
      </trkpt>
      <trkpt lat="59.8118052" lon="17.6700705">
        <ele>0</ele>
        <time>2014-05-29T11:53:32Z</time>
      </trkpt>
      <trkpt lat="59.8118657" lon="17.6700827">
        <ele>0</ele>
        <time>2014-05-29T11:53:33Z</time>
      </trkpt>
      <trkpt lat="59.8119263" lon="17.6700908">
        <ele>0</ele>
        <time>2014-05-29T11:53:34Z</time>
      </trkpt>
      <trkpt lat="59.8119869" lon="17.6700998">
        <ele>0</ele>
        <time>2014-05-29T11:53:35Z</time>
      </trkpt>
      <trkpt lat="59.8120467" lon="17.6701096">
        <ele>0</ele>
        <time>2014-05-29T11:53:36Z</time>
      </trkpt>
      <trkpt lat="59.8121053" lon="17.6701167">
        <ele>0</ele>
        <time>2014-05-29T11:53:37Z</time>
      </trkpt>
      <trkpt lat="59.8121628" lon="17.6701228">
        <ele>0</ele>
        <time>2014-05-29T11:53:38Z</time>
      </trkpt>
      <trkpt lat="59.8122171" lon="17.6701314">
        <ele>0</ele>
        <time>2014-05-29T11:53:39Z</time>
      </trkpt>
      <trkpt lat="59.8122694" lon="17.6701394">
        <ele>0</ele>
        <time>2014-05-29T11:53:40Z</time>
      </trkpt>
      <trkpt lat="59.8123198" lon="17.6701456">
        <ele>0</ele>
        <time>2014-05-29T11:53:41Z</time>
      </trkpt>
      <trkpt lat="59.8123674" lon="17.6701529">
        <ele>0</ele>
        <time>2014-05-29T11:53:42Z</time>
      </trkpt>
      <trkpt lat="59.8124134" lon="17.6701627">
        <ele>0</ele>
        <time>2014-05-29T11:53:43Z</time>
      </trkpt>
      <trkpt lat="59.8124596" lon="17.6701759">
        <ele>0</ele>
        <time>2014-05-29T11:53:44Z</time>
      </trkpt>
      <trkpt lat="59.8125068" lon="17.6701894">
        <ele>0</ele>
        <time>2014-05-29T11:53:45Z</time>
      </trkpt>
      <trkpt lat="59.8125564" lon="17.670202">
        <ele>0</ele>
        <time>2014-05-29T11:53:46Z</time>
      </trkpt>
      <trkpt lat="59.8126075" lon="17.6702139">
        <ele>0</ele>
        <time>2014-05-29T11:53:47Z</time>
      </trkpt>
      <trkpt lat="59.8126593" lon="17.670226">
        <ele>0</ele>
        <time>2014-05-29T11:53:48Z</time>
      </trkpt>
      <trkpt lat="59.8127108" lon="17.6702434">
        <ele>0</ele>
        <time>2014-05-29T11:53:49Z</time>
      </trkpt>
      <trkpt lat="59.8127611" lon="17.6702689">
        <ele>0</ele>
        <time>2014-05-29T11:53:50Z</time>
      </trkpt>
      <trkpt lat="59.8128113" lon="17.6703005">
        <ele>0</ele>
        <time>2014-05-29T11:53:51Z</time>
      </trkpt>
      <trkpt lat="59.8128611" lon="17.6703362">
        <ele>0</ele>
        <time>2014-05-29T11:53:52Z</time>
      </trkpt>
      <trkpt lat="59.8129103" lon="17.6703735">
        <ele>0</ele>
        <time>2014-05-29T11:53:53Z</time>
      </trkpt>
      <trkpt lat="59.8129594" lon="17.6704096">
        <ele>0</ele>
        <time>2014-05-29T11:53:54Z</time>
      </trkpt>
      <trkpt lat="59.8130081" lon="17.670447">
        <ele>0.137451</ele>
        <time>2014-05-29T11:53:55Z</time>
      </trkpt>
      <trkpt lat="59.8130559" lon="17.6704864">
        <ele>0.137451</ele>
        <time>2014-05-29T11:53:56Z</time>
      </trkpt>
      <trkpt lat="59.8131053" lon="17.6705256">
        <ele>0.137451</ele>
        <time>2014-05-29T11:53:57Z</time>
      </trkpt>
      <trkpt lat="59.8131558" lon="17.6705626">
        <ele>0.137451</ele>
        <time>2014-05-29T11:53:58Z</time>
      </trkpt>
      <trkpt lat="59.813206" lon="17.6705978">
        <ele>0.137451</ele>
        <time>2014-05-29T11:53:59Z</time>
      </trkpt>
      <trkpt lat="59.8132564" lon="17.6706299">
        <ele>0.137451</ele>
        <time>2014-05-29T11:54:00Z</time>
      </trkpt>
      <trkpt lat="59.8133077" lon="17.6706574">
        <ele>0.618042</ele>
        <time>2014-05-29T11:54:01Z</time>
      </trkpt>
      <trkpt lat="59.8133612" lon="17.6706808">
        <ele>0.618042</ele>
        <time>2014-05-29T11:54:02Z</time>
      </trkpt>
      <trkpt lat="59.8134148" lon="17.6707005">
        <ele>0.618042</ele>
        <time>2014-05-29T11:54:03Z</time>
      </trkpt>
      <trkpt lat="59.8134697" lon="17.6707175">
        <ele>0.618042</ele>
        <time>2014-05-29T11:54:04Z</time>
      </trkpt>
      <trkpt lat="59.8135241" lon="17.670731">
        <ele>0.618042</ele>
        <time>2014-05-29T11:54:05Z</time>
      </trkpt>
      <trkpt lat="59.813578" lon="17.6707428">
        <ele>0.618042</ele>
        <time>2014-05-29T11:54:06Z</time>
      </trkpt>
      <trkpt lat="59.8136309" lon="17.6707521">
        <ele>0.618042</ele>
        <time>2014-05-29T11:54:07Z</time>
      </trkpt>
      <trkpt lat="59.8136826" lon="17.6707592">
        <ele>0.618042</ele>
        <time>2014-05-29T11:54:08Z</time>
      </trkpt>
      <trkpt lat="59.8137327" lon="17.6707631">
        <ele>0.137451</ele>
        <time>2014-05-29T11:54:09Z</time>
      </trkpt>
      <trkpt lat="59.8137826" lon="17.6707651">
        <ele>0.137451</ele>
        <time>2014-05-29T11:54:10Z</time>
      </trkpt>
      <trkpt lat="59.8138324" lon="17.670765">
        <ele>0.137451</ele>
        <time>2014-05-29T11:54:11Z</time>
      </trkpt>
      <trkpt lat="59.8138826" lon="17.6707618">
        <ele>0.137451</ele>
        <time>2014-05-29T11:54:12Z</time>
      </trkpt>
      <trkpt lat="59.8139328" lon="17.6707554">
        <ele>0.137451</ele>
        <time>2014-05-29T11:54:13Z</time>
      </trkpt>
      <trkpt lat="59.8139825" lon="17.6707461">
        <ele>0.137451</ele>
        <time>2014-05-29T11:54:14Z</time>
      </trkpt>
      <trkpt lat="59.8140317" lon="17.6707338">
        <ele>0.137451</ele>
        <time>2014-05-29T11:54:15Z</time>
      </trkpt>
      <trkpt lat="59.8140808" lon="17.6707193">
        <ele>0.137451</ele>
        <time>2014-05-29T11:54:16Z</time>
      </trkpt>
      <trkpt lat="59.8141271" lon="17.6707041">
        <ele>0.137451</ele>
        <time>2014-05-29T11:54:17Z</time>
      </trkpt>
      <trkpt lat="59.8141745" lon="17.6706875">
        <ele>0.137451</ele>
        <time>2014-05-29T11:54:18Z</time>
      </trkpt>
      <trkpt lat="59.8142222" lon="17.6706667">
        <ele>0.137451</ele>
        <time>2014-05-29T11:54:19Z</time>
      </trkpt>
      <trkpt lat="59.8142691" lon="17.6706429">
        <ele>0.137451</ele>
        <time>2014-05-29T11:54:20Z</time>
      </trkpt>
      <trkpt lat="59.8143167" lon="17.6706159">
        <ele>0.137451</ele>
        <time>2014-05-29T11:54:21Z</time>
      </trkpt>
      <trkpt lat="59.8143651" lon="17.6705863">
        <ele>0.137451</ele>
        <time>2014-05-29T11:54:22Z</time>
      </trkpt>
      <trkpt lat="59.8144117" lon="17.6705522">
        <ele>0.137451</ele>
        <time>2014-05-29T11:54:23Z</time>
      </trkpt>
      <trkpt lat="59.814458" lon="17.6705144">
        <ele>0.137451</ele>
        <time>2014-05-29T11:54:24Z</time>
      </trkpt>
      <trkpt lat="59.8145034" lon="17.6704761">
        <ele>0.137451</ele>
        <time>2014-05-29T11:54:25Z</time>
      </trkpt>
      <trkpt lat="59.8145467" lon="17.6704383">
        <ele>0</ele>
        <time>2014-05-29T11:54:26Z</time>
      </trkpt>
      <trkpt lat="59.8145894" lon="17.6703958">
        <ele>0</ele>
        <time>2014-05-29T11:54:27Z</time>
      </trkpt>
      <trkpt lat="59.8146342" lon="17.6703548">
        <ele>0</ele>
        <time>2014-05-29T11:54:28Z</time>
      </trkpt>
      <trkpt lat="59.8146793" lon="17.6703158">
        <ele>0</ele>
        <time>2014-05-29T11:54:29Z</time>
      </trkpt>
      <trkpt lat="59.8147226" lon="17.6702752">
        <ele>0</ele>
        <time>2014-05-29T11:54:30Z</time>
      </trkpt>
      <trkpt lat="59.814765" lon="17.6702301">
        <ele>0</ele>
        <time>2014-05-29T11:54:31Z</time>
      </trkpt>
      <trkpt lat="59.8148081" lon="17.6701823">
        <ele>0</ele>
        <time>2014-05-29T11:54:32Z</time>
      </trkpt>
      <trkpt lat="59.814848" lon="17.6701291">
        <ele>0</ele>
        <time>2014-05-29T11:54:33Z</time>
      </trkpt>
      <trkpt lat="59.8148835" lon="17.670069">
        <ele>0</ele>
        <time>2014-05-29T11:54:34Z</time>
      </trkpt>
      <trkpt lat="59.8149134" lon="17.6699972">
        <ele>0</ele>
        <time>2014-05-29T11:54:35Z</time>
      </trkpt>
      <trkpt lat="59.8149331" lon="17.6699146">
        <ele>0</ele>
        <time>2014-05-29T11:54:36Z</time>
      </trkpt>
      <trkpt lat="59.8149455" lon="17.6698279">
        <ele>0</ele>
        <time>2014-05-29T11:54:37Z</time>
      </trkpt>
      <trkpt lat="59.8149461" lon="17.6697452">
        <ele>0</ele>
        <time>2014-05-29T11:54:38Z</time>
      </trkpt>
      <trkpt lat="59.8149403" lon="17.6696543">
        <ele>0</ele>
        <time>2014-05-29T11:54:39Z</time>
      </trkpt>
      <trkpt lat="59.814933" lon="17.6695529">
        <ele>0</ele>
        <time>2014-05-29T11:54:40Z</time>
      </trkpt>
      <trkpt lat="59.8149211" lon="17.6694471">
        <ele>0</ele>
        <time>2014-05-29T11:54:41Z</time>
      </trkpt>
      <trkpt lat="59.8149108" lon="17.6693386">
        <ele>0</ele>
        <time>2014-05-29T11:54:42Z</time>
      </trkpt>
      <trkpt lat="59.8148999" lon="17.6692333">
        <ele>0</ele>
        <time>2014-05-29T11:54:43Z</time>
      </trkpt>
      <trkpt lat="59.8148914" lon="17.6691303">
        <ele>0</ele>
        <time>2014-05-29T11:54:44Z</time>
      </trkpt>
      <trkpt lat="59.8148849" lon="17.6690289">
        <ele>0</ele>
        <time>2014-05-29T11:54:45Z</time>
      </trkpt>
      <trkpt lat="59.8148761" lon="17.6689298">
        <ele>0</ele>
        <time>2014-05-29T11:54:46Z</time>
      </trkpt>
      <trkpt lat="59.814866" lon="17.6688298">
        <ele>0</ele>
        <time>2014-05-29T11:54:47Z</time>
      </trkpt>
      <trkpt lat="59.8148549" lon="17.6687309">
        <ele>0</ele>
        <time>2014-05-29T11:54:48Z</time>
      </trkpt>
      <trkpt lat="59.8148436" lon="17.6686344">
        <ele>0</ele>
        <time>2014-05-29T11:54:49Z</time>
      </trkpt>
      <trkpt lat="59.8148347" lon="17.6685403">
        <ele>0</ele>
        <time>2014-05-29T11:54:50Z</time>
      </trkpt>
      <trkpt lat="59.8148264" lon="17.6684513">
        <ele>0</ele>
        <time>2014-05-29T11:54:51Z</time>
      </trkpt>
      <trkpt lat="59.8148203" lon="17.6683666">
        <ele>0</ele>
        <time>2014-05-29T11:54:52Z</time>
      </trkpt>
      <trkpt lat="59.8148185" lon="17.6682849">
        <ele>0</ele>
        <time>2014-05-29T11:54:53Z</time>
      </trkpt>
      <trkpt lat="59.8148201" lon="17.6682063">
        <ele>0</ele>
        <time>2014-05-29T11:54:54Z</time>
      </trkpt>
      <trkpt lat="59.8148225" lon="17.6681283">
        <ele>0</ele>
        <time>2014-05-29T11:54:55Z</time>
      </trkpt>
      <trkpt lat="59.8148247" lon="17.6680476">
        <ele>0</ele>
        <time>2014-05-29T11:54:56Z</time>
      </trkpt>
      <trkpt lat="59.814826" lon="17.6679648">
        <ele>0</ele>
        <time>2014-05-29T11:54:57Z</time>
      </trkpt>
      <trkpt lat="59.8148273" lon="17.6678809">
        <ele>0</ele>
        <time>2014-05-29T11:54:58Z</time>
      </trkpt>
      <trkpt lat="59.8148287" lon="17.6677967">
        <ele>0</ele>
        <time>2014-05-29T11:54:59Z</time>
      </trkpt>
      <trkpt lat="59.8148309" lon="17.667711">
        <ele>0</ele>
        <time>2014-05-29T11:55:00Z</time>
      </trkpt>
      <trkpt lat="59.814835" lon="17.6676239">
        <ele>0</ele>
        <time>2014-05-29T11:55:01Z</time>
      </trkpt>
      <trkpt lat="59.8148409" lon="17.6675356">
        <ele>0</ele>
        <time>2014-05-29T11:55:02Z</time>
      </trkpt>
      <trkpt lat="59.8148471" lon="17.6674465">
        <ele>0</ele>
        <time>2014-05-29T11:55:03Z</time>
      </trkpt>
      <trkpt lat="59.8148528" lon="17.6673561">
        <ele>0</ele>
        <time>2014-05-29T11:55:04Z</time>
      </trkpt>
      <trkpt lat="59.8148633" lon="17.6672671">
        <ele>0</ele>
        <time>2014-05-29T11:55:05Z</time>
      </trkpt>
      <trkpt lat="59.8148869" lon="17.6671867">
        <ele>0</ele>
        <time>2014-05-29T11:55:06Z</time>
      </trkpt>
      <trkpt lat="59.8149186" lon="17.6671162">
        <ele>0</ele>
        <time>2014-05-29T11:55:07Z</time>
      </trkpt>
      <trkpt lat="59.814945" lon="17.6670391">
        <ele>0</ele>
        <time>2014-05-29T11:55:08Z</time>
      </trkpt>
      <trkpt lat="59.8149601" lon="17.6669464">
        <ele>0</ele>
        <time>2014-05-29T11:55:09Z</time>
      </trkpt>
      <trkpt lat="59.8149676" lon="17.6668452">
        <ele>0</ele>
        <time>2014-05-29T11:55:10Z</time>
      </trkpt>
      <trkpt lat="59.8149707" lon="17.66674">
        <ele>0</ele>
        <time>2014-05-29T11:55:11Z</time>
      </trkpt>
      <trkpt lat="59.8149723" lon="17.6666302">
        <ele>0</ele>
        <time>2014-05-29T11:55:12Z</time>
      </trkpt>
      <trkpt lat="59.8149719" lon="17.6665193">
        <ele>0</ele>
        <time>2014-05-29T11:55:13Z</time>
      </trkpt>
      <trkpt lat="59.81497" lon="17.6664082">
        <ele>0</ele>
        <time>2014-05-29T11:55:14Z</time>
      </trkpt>
      <trkpt lat="59.8149712" lon="17.6662946">
        <ele>0.137451</ele>
        <time>2014-05-29T11:55:15Z</time>
      </trkpt>
      <trkpt lat="59.814974" lon="17.6661814">
        <ele>1.09863</ele>
        <time>2014-05-29T11:55:16Z</time>
      </trkpt>
      <trkpt lat="59.8149746" lon="17.6660703">
        <ele>2.06006</ele>
        <time>2014-05-29T11:55:17Z</time>
      </trkpt>
      <trkpt lat="59.8149726" lon="17.6659616">
        <ele>2.54065</ele>
        <time>2014-05-29T11:55:18Z</time>
      </trkpt>
      <trkpt lat="59.8149693" lon="17.6658575">
        <ele>3.50195</ele>
        <time>2014-05-29T11:55:19Z</time>
      </trkpt>
      <trkpt lat="59.8149694" lon="17.6657579">
        <ele>4.46326</ele>
        <time>2014-05-29T11:55:20Z</time>
      </trkpt>
      <trkpt lat="59.8149833" lon="17.6656684">
        <ele>4.94385</ele>
        <time>2014-05-29T11:55:21Z</time>
      </trkpt>
      <trkpt lat="59.8150109" lon="17.66561">
        <ele>5.42456</ele>
        <time>2014-05-29T11:55:22Z</time>
      </trkpt>
      <trkpt lat="59.8150528" lon="17.6655912">
        <ele>5.90527</ele>
        <time>2014-05-29T11:55:23Z</time>
      </trkpt>
      <trkpt lat="59.8150968" lon="17.6655919">
        <ele>6.38586</ele>
        <time>2014-05-29T11:55:24Z</time>
      </trkpt>
      <trkpt lat="59.8151345" lon="17.6655981">
        <ele>5.90527</ele>
        <time>2014-05-29T11:55:25Z</time>
      </trkpt>
      <trkpt lat="59.8151735" lon="17.6656042">
        <ele>6.86646</ele>
        <time>2014-05-29T11:55:26Z</time>
      </trkpt>
      <trkpt lat="59.8152092" lon="17.6656145">
        <ele>7.34717</ele>
        <time>2014-05-29T11:55:27Z</time>
      </trkpt>
      <trkpt lat="59.8152439" lon="17.6656214">
        <ele>7.82788</ele>
        <time>2014-05-29T11:55:28Z</time>
      </trkpt>
      <trkpt lat="59.8152746" lon="17.665627">
        <ele>8.78918</ele>
        <time>2014-05-29T11:55:29Z</time>
      </trkpt>
      <trkpt lat="59.8153045" lon="17.6656352">
        <ele>9.2699</ele>
        <time>2014-05-29T11:55:30Z</time>
      </trkpt>
      <trkpt lat="59.8153348" lon="17.6656441">
        <ele>9.75061</ele>
        <time>2014-05-29T11:55:31Z</time>
      </trkpt>
      <trkpt lat="59.815362" lon="17.665652">
        <ele>10.2312</ele>
        <time>2014-05-29T11:55:32Z</time>
      </trkpt>
      <trkpt lat="59.8153903" lon="17.6656581">
        <ele>10.2312</ele>
        <time>2014-05-29T11:55:33Z</time>
      </trkpt>
      <trkpt lat="59.8154182" lon="17.6656637">
        <ele>10.2312</ele>
        <time>2014-05-29T11:55:34Z</time>
      </trkpt>
      <trkpt lat="59.8154436" lon="17.6656648">
        <ele>10.2312</ele>
        <time>2014-05-29T11:55:35Z</time>
      </trkpt>
      <trkpt lat="59.8154688" lon="17.6656651">
        <ele>10.2312</ele>
        <time>2014-05-29T11:55:36Z</time>
      </trkpt>
      <trkpt lat="59.8154932" lon="17.6656669">
        <ele>10.2312</ele>
        <time>2014-05-29T11:55:37Z</time>
      </trkpt>
      <trkpt lat="59.8155227" lon="17.6656742">
        <ele>10.7118</ele>
        <time>2014-05-29T11:55:38Z</time>
      </trkpt>
      <trkpt lat="59.8155496" lon="17.6656823">
        <ele>10.7118</ele>
        <time>2014-05-29T11:55:39Z</time>
      </trkpt>
      <trkpt lat="59.8155831" lon="17.6656876">
        <ele>11.1925</ele>
        <time>2014-05-29T11:55:40Z</time>
      </trkpt>
      <trkpt lat="59.8156117" lon="17.6656905">
        <ele>11.6732</ele>
        <time>2014-05-29T11:55:41Z</time>
      </trkpt>
      <trkpt lat="59.815642" lon="17.6656952">
        <ele>11.6732</ele>
        <time>2014-05-29T11:55:42Z</time>
      </trkpt>
      <trkpt lat="59.815667" lon="17.6656975">
        <ele>11.6732</ele>
        <time>2014-05-29T11:55:43Z</time>
      </trkpt>
      <trkpt lat="59.8156934" lon="17.6657062">
        <ele>12.6344</ele>
        <time>2014-05-29T11:55:44Z</time>
      </trkpt>
      <trkpt lat="59.8157189" lon="17.6657091">
        <ele>12.6344</ele>
        <time>2014-05-29T11:55:45Z</time>
      </trkpt>
      <trkpt lat="59.8157473" lon="17.6657164">
        <ele>13.1151</ele>
        <time>2014-05-29T11:55:46Z</time>
      </trkpt>
      <trkpt lat="59.8157707" lon="17.6657192">
        <ele>13.1151</ele>
        <time>2014-05-29T11:55:47Z</time>
      </trkpt>
      <trkpt lat="59.8157977" lon="17.6657263">
        <ele>13.5958</ele>
        <time>2014-05-29T11:55:48Z</time>
      </trkpt>
      <trkpt lat="59.815824" lon="17.6657307">
        <ele>13.5958</ele>
        <time>2014-05-29T11:55:49Z</time>
      </trkpt>
      <trkpt lat="59.8158498" lon="17.6657301">
        <ele>14.0764</ele>
        <time>2014-05-29T11:55:50Z</time>
      </trkpt>
      <trkpt lat="59.8158754" lon="17.6657279">
        <ele>14.0764</ele>
        <time>2014-05-29T11:55:51Z</time>
      </trkpt>
      <trkpt lat="59.8159019" lon="17.6657259">
        <ele>14.0764</ele>
        <time>2014-05-29T11:55:52Z</time>
      </trkpt>
      <trkpt lat="59.8159285" lon="17.6657254">
        <ele>14.0764</ele>
        <time>2014-05-29T11:55:53Z</time>
      </trkpt>
      <trkpt lat="59.8159549" lon="17.6657249">
        <ele>14.0764</ele>
        <time>2014-05-29T11:55:54Z</time>
      </trkpt>
      <trkpt lat="59.8159809" lon="17.6657233">
        <ele>14.557</ele>
        <time>2014-05-29T11:55:55Z</time>
      </trkpt>
      <trkpt lat="59.8160074" lon="17.6657239">
        <ele>14.557</ele>
        <time>2014-05-29T11:55:56Z</time>
      </trkpt>
      <trkpt lat="59.8160344" lon="17.6657252">
        <ele>14.557</ele>
        <time>2014-05-29T11:55:57Z</time>
      </trkpt>
      <trkpt lat="59.8160597" lon="17.6657176">
        <ele>14.0764</ele>
        <time>2014-05-29T11:55:58Z</time>
      </trkpt>
      <trkpt lat="59.8160872" lon="17.6657046">
        <ele>14.0764</ele>
        <time>2014-05-29T11:55:59Z</time>
      </trkpt>
      <trkpt lat="59.8161189" lon="17.6656964">
        <ele>14.557</ele>
        <time>2014-05-29T11:56:00Z</time>
      </trkpt>
      <trkpt lat="59.8161458" lon="17.6656915">
        <ele>14.0764</ele>
        <time>2014-05-29T11:56:01Z</time>
      </trkpt>
      <trkpt lat="59.816172" lon="17.6656856">
        <ele>14.0764</ele>
        <time>2014-05-29T11:56:02Z</time>
      </trkpt>
      <trkpt lat="59.8161954" lon="17.6656748">
        <ele>14.0764</ele>
        <time>2014-05-29T11:56:03Z</time>
      </trkpt>
      <trkpt lat="59.8162177" lon="17.6656601">
        <ele>14.0764</ele>
        <time>2014-05-29T11:56:04Z</time>
      </trkpt>
      <trkpt lat="59.8162403" lon="17.665642">
        <ele>13.5958</ele>
        <time>2014-05-29T11:56:05Z</time>
      </trkpt>
      <trkpt lat="59.8162626" lon="17.6656219">
        <ele>14.0764</ele>
        <time>2014-05-29T11:56:06Z</time>
      </trkpt>
      <trkpt lat="59.8162833" lon="17.6656037">
        <ele>13.5958</ele>
        <time>2014-05-29T11:56:07Z</time>
      </trkpt>
      <trkpt lat="59.8163035" lon="17.6655859">
        <ele>13.5958</ele>
        <time>2014-05-29T11:56:08Z</time>
      </trkpt>
      <trkpt lat="59.8163255" lon="17.6655653">
        <ele>13.5958</ele>
        <time>2014-05-29T11:56:09Z</time>
      </trkpt>
      <trkpt lat="59.8163478" lon="17.6655441">
        <ele>13.5958</ele>
        <time>2014-05-29T11:56:10Z</time>
      </trkpt>
      <trkpt lat="59.8163695" lon="17.6655235">
        <ele>13.5958</ele>
        <time>2014-05-29T11:56:11Z</time>
      </trkpt>
      <trkpt lat="59.8163917" lon="17.6655063">
        <ele>14.0764</ele>
        <time>2014-05-29T11:56:12Z</time>
      </trkpt>
      <trkpt lat="59.8164134" lon="17.6654864">
        <ele>14.0764</ele>
        <time>2014-05-29T11:56:13Z</time>
      </trkpt>
      <trkpt lat="59.8164348" lon="17.6654607">
        <ele>14.0764</ele>
        <time>2014-05-29T11:56:14Z</time>
      </trkpt>
      <trkpt lat="59.8164558" lon="17.6654317">
        <ele>14.0764</ele>
        <time>2014-05-29T11:56:15Z</time>
      </trkpt>
      <trkpt lat="59.8164776" lon="17.6654048">
        <ele>14.0764</ele>
        <time>2014-05-29T11:56:16Z</time>
      </trkpt>
      <trkpt lat="59.8164989" lon="17.6653769">
        <ele>14.0764</ele>
        <time>2014-05-29T11:56:17Z</time>
      </trkpt>
      <trkpt lat="59.8165213" lon="17.6653467">
        <ele>14.0764</ele>
        <time>2014-05-29T11:56:18Z</time>
      </trkpt>
      <trkpt lat="59.8165435" lon="17.6653187">
        <ele>14.557</ele>
        <time>2014-05-29T11:56:19Z</time>
      </trkpt>
      <trkpt lat="59.8165664" lon="17.6652929">
        <ele>14.557</ele>
        <time>2014-05-29T11:56:20Z</time>
      </trkpt>
      <trkpt lat="59.8165921" lon="17.6652668">
        <ele>15.5184</ele>
        <time>2014-05-29T11:56:21Z</time>
      </trkpt>
      <trkpt lat="59.8166172" lon="17.6652375">
        <ele>16.4797</ele>
        <time>2014-05-29T11:56:22Z</time>
      </trkpt>
      <trkpt lat="59.8166434" lon="17.66521">
        <ele>16.9604</ele>
        <time>2014-05-29T11:56:23Z</time>
      </trkpt>
      <trkpt lat="59.8166695" lon="17.6651885">
        <ele>17.9218</ele>
        <time>2014-05-29T11:56:24Z</time>
      </trkpt>
      <trkpt lat="59.8166954" lon="17.6651675">
        <ele>18.8831</ele>
        <time>2014-05-29T11:56:25Z</time>
      </trkpt>
      <trkpt lat="59.8167207" lon="17.6651463">
        <ele>19.3638</ele>
        <time>2014-05-29T11:56:26Z</time>
      </trkpt>
      <trkpt lat="59.8167467" lon="17.6651204">
        <ele>20.8057</ele>
        <time>2014-05-29T11:56:27Z</time>
      </trkpt>
      <trkpt lat="59.8167718" lon="17.6650943">
        <ele>21.767</ele>
        <time>2014-05-29T11:56:28Z</time>
      </trkpt>
      <trkpt lat="59.8167932" lon="17.66507">
        <ele>22.7283</ele>
        <time>2014-05-29T11:56:29Z</time>
      </trkpt>
      <trkpt lat="59.816814" lon="17.6650493">
        <ele>23.6896</ele>
        <time>2014-05-29T11:56:30Z</time>
      </trkpt>
      <trkpt lat="59.8168347" lon="17.6650278">
        <ele>24.1703</ele>
        <time>2014-05-29T11:56:31Z</time>
      </trkpt>
      <trkpt lat="59.8168532" lon="17.6650005">
        <ele>24.1703</ele>
        <time>2014-05-29T11:56:32Z</time>
      </trkpt>
      <trkpt lat="59.8168741" lon="17.664971">
        <ele>23.6896</ele>
        <time>2014-05-29T11:56:33Z</time>
      </trkpt>
      <trkpt lat="59.8168972" lon="17.6649454">
        <ele>23.6896</ele>
        <time>2014-05-29T11:56:34Z</time>
      </trkpt>
      <trkpt lat="59.81692" lon="17.664914">
        <ele>23.209</ele>
        <time>2014-05-29T11:56:35Z</time>
      </trkpt>
      <trkpt lat="59.816941" lon="17.6648755">
        <ele>23.209</ele>
        <time>2014-05-29T11:56:36Z</time>
      </trkpt>
      <trkpt lat="59.8169642" lon="17.6648381">
        <ele>22.7283</ele>
        <time>2014-05-29T11:56:37Z</time>
      </trkpt>
      <trkpt lat="59.8169838" lon="17.6647962">
        <ele>22.2476</ele>
        <time>2014-05-29T11:56:38Z</time>
      </trkpt>
      <trkpt lat="59.8170062" lon="17.6647562">
        <ele>22.2476</ele>
        <time>2014-05-29T11:56:39Z</time>
      </trkpt>
      <trkpt lat="59.8170277" lon="17.6647167">
        <ele>21.767</ele>
        <time>2014-05-29T11:56:40Z</time>
      </trkpt>
      <trkpt lat="59.8170497" lon="17.664679">
        <ele>21.767</ele>
        <time>2014-05-29T11:56:41Z</time>
      </trkpt>
      <trkpt lat="59.8170694" lon="17.6646386">
        <ele>22.2476</ele>
        <time>2014-05-29T11:56:42Z</time>
      </trkpt>
      <trkpt lat="59.8170978" lon="17.6645975">
        <ele>24.651</ele>
        <time>2014-05-29T11:56:43Z</time>
      </trkpt>
      <trkpt lat="59.8171264" lon="17.664562">
        <ele>27.0543</ele>
        <time>2014-05-29T11:56:44Z</time>
      </trkpt>
      <trkpt lat="59.8171503" lon="17.6645298">
        <ele>28.9769</ele>
        <time>2014-05-29T11:56:45Z</time>
      </trkpt>
      <trkpt lat="59.817172" lon="17.6645018">
        <ele>29.9381</ele>
        <time>2014-05-29T11:56:46Z</time>
      </trkpt>
      <trkpt lat="59.817194" lon="17.6644775">
        <ele>30.8995</ele>
        <time>2014-05-29T11:56:47Z</time>
      </trkpt>
      <trkpt lat="59.8172149" lon="17.6644479">
        <ele>31.3801</ele>
        <time>2014-05-29T11:56:48Z</time>
      </trkpt>
      <trkpt lat="59.8172357" lon="17.6644211">
        <ele>31.3801</ele>
        <time>2014-05-29T11:56:49Z</time>
      </trkpt>
      <trkpt lat="59.8172572" lon="17.6643977">
        <ele>31.3801</ele>
        <time>2014-05-29T11:56:50Z</time>
      </trkpt>
      <trkpt lat="59.8172787" lon="17.6643761">
        <ele>31.8607</ele>
        <time>2014-05-29T11:56:51Z</time>
      </trkpt>
      <trkpt lat="59.8173025" lon="17.6643578">
        <ele>32.8223</ele>
        <time>2014-05-29T11:56:52Z</time>
      </trkpt>
      <trkpt lat="59.8173263" lon="17.6643354">
        <ele>33.7834</ele>
        <time>2014-05-29T11:56:53Z</time>
      </trkpt>
      <trkpt lat="59.8173419" lon="17.6643154">
        <ele>33.7834</ele>
        <time>2014-05-29T11:56:54Z</time>
      </trkpt>
      <trkpt lat="59.8173568" lon="17.6642967">
        <ele>33.3029</ele>
        <time>2014-05-29T11:56:55Z</time>
      </trkpt>
      <trkpt lat="59.8173696" lon="17.6642763">
        <ele>32.8223</ele>
        <time>2014-05-29T11:56:56Z</time>
      </trkpt>
      <trkpt lat="59.8173817" lon="17.6642579">
        <ele>32.3416</ele>
        <time>2014-05-29T11:56:57Z</time>
      </trkpt>
      <trkpt lat="59.8173991" lon="17.6642516">
        <ele>32.8223</ele>
        <time>2014-05-29T11:56:58Z</time>
      </trkpt>
      <trkpt lat="59.8174164" lon="17.6642439">
        <ele>31.8607</ele>
        <time>2014-05-29T11:56:59Z</time>
      </trkpt>
      <trkpt lat="59.8174347" lon="17.6642365">
        <ele>31.8607</ele>
        <time>2014-05-29T11:57:00Z</time>
      </trkpt>
      <trkpt lat="59.8174504" lon="17.6642263">
        <ele>31.8607</ele>
        <time>2014-05-29T11:57:01Z</time>
      </trkpt>
      <trkpt lat="59.8174744" lon="17.664215">
        <ele>32.8223</ele>
        <time>2014-05-29T11:57:02Z</time>
      </trkpt>
      <trkpt lat="59.8175029" lon="17.6641953">
        <ele>33.7834</ele>
        <time>2014-05-29T11:57:03Z</time>
      </trkpt>
      <trkpt lat="59.8175262" lon="17.6641807">
        <ele>33.3029</ele>
        <time>2014-05-29T11:57:04Z</time>
      </trkpt>
      <trkpt lat="59.8175495" lon="17.6641689">
        <ele>32.8223</ele>
        <time>2014-05-29T11:57:05Z</time>
      </trkpt>
      <trkpt lat="59.8175718" lon="17.6641548">
        <ele>32.3416</ele>
        <time>2014-05-29T11:57:06Z</time>
      </trkpt>
      <trkpt lat="59.8175931" lon="17.6641413">
        <ele>32.3416</ele>
        <time>2014-05-29T11:57:07Z</time>
      </trkpt>
      <trkpt lat="59.8176185" lon="17.664131">
        <ele>32.3416</ele>
        <time>2014-05-29T11:57:08Z</time>
      </trkpt>
      <trkpt lat="59.8176474" lon="17.6641223">
        <ele>32.8223</ele>
        <time>2014-05-29T11:57:09Z</time>
      </trkpt>
      <trkpt lat="59.8176783" lon="17.6641192">
        <ele>33.3029</ele>
        <time>2014-05-29T11:57:10Z</time>
      </trkpt>
      <trkpt lat="59.817705" lon="17.6641101">
        <ele>32.8223</ele>
        <time>2014-05-29T11:57:11Z</time>
      </trkpt>
      <trkpt lat="59.8177334" lon="17.6640993">
        <ele>32.8223</ele>
        <time>2014-05-29T11:57:12Z</time>
      </trkpt>
      <trkpt lat="59.8177638" lon="17.6640922">
        <ele>33.3029</ele>
        <time>2014-05-29T11:57:13Z</time>
      </trkpt>
      <trkpt lat="59.8177919" lon="17.6640852">
        <ele>33.3029</ele>
        <time>2014-05-29T11:57:14Z</time>
      </trkpt>
      <trkpt lat="59.8178147" lon="17.6640771">
        <ele>32.3416</ele>
        <time>2014-05-29T11:57:15Z</time>
      </trkpt>
      <trkpt lat="59.8178422" lon="17.6640733">
        <ele>32.3416</ele>
        <time>2014-05-29T11:57:16Z</time>
      </trkpt>
      <trkpt lat="59.8178736" lon="17.6640657">
        <ele>32.8223</ele>
        <time>2014-05-29T11:57:17Z</time>
      </trkpt>
      <trkpt lat="59.8179125" lon="17.6640605">
        <ele>33.7834</ele>
        <time>2014-05-29T11:57:18Z</time>
      </trkpt>
      <trkpt lat="59.8179509" lon="17.6640559">
        <ele>35.2255</ele>
        <time>2014-05-29T11:57:19Z</time>
      </trkpt>
      <trkpt lat="59.817986" lon="17.6640466">
        <ele>37.1481</ele>
        <time>2014-05-29T11:57:20Z</time>
      </trkpt>
      <trkpt lat="59.8180173" lon="17.6640378">
        <ele>38.1094</ele>
        <time>2014-05-29T11:57:21Z</time>
      </trkpt>
      <trkpt lat="59.8180536" lon="17.6640293">
        <ele>39.0707</ele>
        <time>2014-05-29T11:57:22Z</time>
      </trkpt>
      <trkpt lat="59.8180893" lon="17.6640272">
        <ele>39.5513</ele>
        <time>2014-05-29T11:57:23Z</time>
      </trkpt>
      <trkpt lat="59.8181262" lon="17.6640264">
        <ele>40.0321</ele>
        <time>2014-05-29T11:57:24Z</time>
      </trkpt>
      <trkpt lat="59.8181632" lon="17.664018">
        <ele>40.0321</ele>
        <time>2014-05-29T11:57:25Z</time>
      </trkpt>
      <trkpt lat="59.8181981" lon="17.6640067">
        <ele>40.0321</ele>
        <time>2014-05-29T11:57:26Z</time>
      </trkpt>
      <trkpt lat="59.818236" lon="17.6640013">
        <ele>40.0321</ele>
        <time>2014-05-29T11:57:27Z</time>
      </trkpt>
      <trkpt lat="59.8182761" lon="17.664001">
        <ele>40.0321</ele>
        <time>2014-05-29T11:57:28Z</time>
      </trkpt>
      <trkpt lat="59.8183146" lon="17.6639987">
        <ele>39.5513</ele>
        <time>2014-05-29T11:57:29Z</time>
      </trkpt>
      <trkpt lat="59.8183557" lon="17.663998">
        <ele>39.0707</ele>
        <time>2014-05-29T11:57:30Z</time>
      </trkpt>
      <trkpt lat="59.8183974" lon="17.6639962">
        <ele>38.5901</ele>
        <time>2014-05-29T11:57:31Z</time>
      </trkpt>
      <trkpt lat="59.8184435" lon="17.6639987">
        <ele>39.0707</ele>
        <time>2014-05-29T11:57:32Z</time>
      </trkpt>
      <trkpt lat="59.8184897" lon="17.6640055">
        <ele>38.5901</ele>
        <time>2014-05-29T11:57:33Z</time>
      </trkpt>
      <trkpt lat="59.818537" lon="17.6640107">
        <ele>39.0707</ele>
        <time>2014-05-29T11:57:34Z</time>
      </trkpt>
      <trkpt lat="59.8185834" lon="17.6640117">
        <ele>38.5901</ele>
        <time>2014-05-29T11:57:35Z</time>
      </trkpt>
      <trkpt lat="59.8186286" lon="17.6640108">
        <ele>38.1094</ele>
        <time>2014-05-29T11:57:36Z</time>
      </trkpt>
      <trkpt lat="59.8186752" lon="17.6640067">
        <ele>38.1094</ele>
        <time>2014-05-29T11:57:37Z</time>
      </trkpt>
      <trkpt lat="59.8187221" lon="17.6640042">
        <ele>37.6287</ele>
        <time>2014-05-29T11:57:38Z</time>
      </trkpt>
      <trkpt lat="59.8187683" lon="17.6640035">
        <ele>37.1481</ele>
        <time>2014-05-29T11:57:39Z</time>
      </trkpt>
      <trkpt lat="59.8188133" lon="17.6640026">
        <ele>36.6675</ele>
        <time>2014-05-29T11:57:40Z</time>
      </trkpt>
      <trkpt lat="59.8188547" lon="17.6639997">
        <ele>35.7061</ele>
        <time>2014-05-29T11:57:41Z</time>
      </trkpt>
      <trkpt lat="59.8188994" lon="17.6639973">
        <ele>35.7061</ele>
        <time>2014-05-29T11:57:42Z</time>
      </trkpt>
      <trkpt lat="59.8189451" lon="17.6639936">
        <ele>34.7449</ele>
        <time>2014-05-29T11:57:43Z</time>
      </trkpt>
      <trkpt lat="59.8189906" lon="17.6639847">
        <ele>34.7449</ele>
        <time>2014-05-29T11:57:44Z</time>
      </trkpt>
      <trkpt lat="59.8190321" lon="17.6639707">
        <ele>33.7834</ele>
        <time>2014-05-29T11:57:45Z</time>
      </trkpt>
      <trkpt lat="59.819077" lon="17.6639565">
        <ele>33.3029</ele>
        <time>2014-05-29T11:57:46Z</time>
      </trkpt>
      <trkpt lat="59.8191222" lon="17.6639391">
        <ele>33.3029</ele>
        <time>2014-05-29T11:57:47Z</time>
      </trkpt>
      <trkpt lat="59.8191614" lon="17.6639205">
        <ele>33.3029</ele>
        <time>2014-05-29T11:57:48Z</time>
      </trkpt>
      <trkpt lat="59.8192025" lon="17.6639108">
        <ele>33.3029</ele>
        <time>2014-05-29T11:57:49Z</time>
      </trkpt>
      <trkpt lat="59.8192451" lon="17.6639085">
        <ele>33.7834</ele>
        <time>2014-05-29T11:57:50Z</time>
      </trkpt>
      <trkpt lat="59.8192871" lon="17.6639088">
        <ele>34.2642</ele>
        <time>2014-05-29T11:57:51Z</time>
      </trkpt>
      <trkpt lat="59.8193246" lon="17.6639179">
        <ele>32.8223</ele>
        <time>2014-05-29T11:57:52Z</time>
      </trkpt>
      <trkpt lat="59.8193593" lon="17.6639186">
        <ele>33.3029</ele>
        <time>2014-05-29T11:57:53Z</time>
      </trkpt>
      <trkpt lat="59.8193978" lon="17.6639199">
        <ele>33.3029</ele>
        <time>2014-05-29T11:57:54Z</time>
      </trkpt>
      <trkpt lat="59.8194381" lon="17.6639225">
        <ele>32.8223</ele>
        <time>2014-05-29T11:57:55Z</time>
      </trkpt>
      <trkpt lat="59.8194771" lon="17.6639216">
        <ele>32.3416</ele>
        <time>2014-05-29T11:57:56Z</time>
      </trkpt>
      <trkpt lat="59.8195178" lon="17.6639215">
        <ele>31.8607</ele>
        <time>2014-05-29T11:57:57Z</time>
      </trkpt>
      <trkpt lat="59.8195548" lon="17.6639227">
        <ele>31.8607</ele>
        <time>2014-05-29T11:57:58Z</time>
      </trkpt>
      <trkpt lat="59.8195953" lon="17.6639203">
        <ele>32.3416</ele>
        <time>2014-05-29T11:57:59Z</time>
      </trkpt>
      <trkpt lat="59.8196339" lon="17.663917">
        <ele>33.3029</ele>
        <time>2014-05-29T11:58:00Z</time>
      </trkpt>
      <trkpt lat="59.8196708" lon="17.6639197">
        <ele>33.7834</ele>
        <time>2014-05-29T11:58:01Z</time>
      </trkpt>
      <trkpt lat="59.8197125" lon="17.6639176">
        <ele>34.2642</ele>
        <time>2014-05-29T11:58:02Z</time>
      </trkpt>
      <trkpt lat="59.8197519" lon="17.6639191">
        <ele>34.2642</ele>
        <time>2014-05-29T11:58:03Z</time>
      </trkpt>
      <trkpt lat="59.819797" lon="17.6639195">
        <ele>34.2642</ele>
        <time>2014-05-29T11:58:04Z</time>
      </trkpt>
      <trkpt lat="59.8198402" lon="17.6639239">
        <ele>34.2642</ele>
        <time>2014-05-29T11:58:05Z</time>
      </trkpt>
      <trkpt lat="59.8198804" lon="17.663944">
        <ele>34.7449</ele>
        <time>2014-05-29T11:58:06Z</time>
      </trkpt>
      <trkpt lat="59.8199146" lon="17.6639612">
        <ele>34.7449</ele>
        <time>2014-05-29T11:58:07Z</time>
      </trkpt>
      <trkpt lat="59.8199453" lon="17.6639699">
        <ele>34.7449</ele>
        <time>2014-05-29T11:58:08Z</time>
      </trkpt>
      <trkpt lat="59.8199743" lon="17.6639761">
        <ele>34.7449</ele>
        <time>2014-05-29T11:58:09Z</time>
      </trkpt>
      <trkpt lat="59.8200028" lon="17.6639786">
        <ele>33.7834</ele>
        <time>2014-05-29T11:58:10Z</time>
      </trkpt>
      <trkpt lat="59.8200344" lon="17.6639796">
        <ele>33.7834</ele>
        <time>2014-05-29T11:58:11Z</time>
      </trkpt>
      <trkpt lat="59.8200729" lon="17.6639863">
        <ele>34.2642</ele>
        <time>2014-05-29T11:58:12Z</time>
      </trkpt>
      <trkpt lat="59.8201032" lon="17.6639947">
        <ele>34.2642</ele>
        <time>2014-05-29T11:58:13Z</time>
      </trkpt>
      <trkpt lat="59.8201391" lon="17.6639984">
        <ele>33.7834</ele>
        <time>2014-05-29T11:58:14Z</time>
      </trkpt>
      <trkpt lat="59.8201731" lon="17.6640029">
        <ele>33.7834</ele>
        <time>2014-05-29T11:58:15Z</time>
      </trkpt>
      <trkpt lat="59.8202022" lon="17.6640067">
        <ele>32.8223</ele>
        <time>2014-05-29T11:58:16Z</time>
      </trkpt>
      <trkpt lat="59.8202389" lon="17.6640075">
        <ele>32.8223</ele>
        <time>2014-05-29T11:58:17Z</time>
      </trkpt>
      <trkpt lat="59.820283" lon="17.6639984">
        <ele>32.8223</ele>
        <time>2014-05-29T11:58:18Z</time>
      </trkpt>
      <trkpt lat="59.8203301" lon="17.663984">
        <ele>32.8223</ele>
        <time>2014-05-29T11:58:19Z</time>
      </trkpt>
      <trkpt lat="59.8203784" lon="17.6639702">
        <ele>32.8223</ele>
        <time>2014-05-29T11:58:20Z</time>
      </trkpt>
      <trkpt lat="59.8204306" lon="17.6639489">
        <ele>32.8223</ele>
        <time>2014-05-29T11:58:21Z</time>
      </trkpt>
      <trkpt lat="59.8204779" lon="17.6639336">
        <ele>32.8223</ele>
        <time>2014-05-29T11:58:22Z</time>
      </trkpt>
      <trkpt lat="59.8205234" lon="17.6639163">
        <ele>32.8223</ele>
        <time>2014-05-29T11:58:23Z</time>
      </trkpt>
      <trkpt lat="59.8205743" lon="17.6639023">
        <ele>32.3416</ele>
        <time>2014-05-29T11:58:24Z</time>
      </trkpt>
      <trkpt lat="59.8206317" lon="17.6638894">
        <ele>32.3416</ele>
        <time>2014-05-29T11:58:25Z</time>
      </trkpt>
      <trkpt lat="59.820688" lon="17.6638813">
        <ele>32.8223</ele>
        <time>2014-05-29T11:58:26Z</time>
      </trkpt>
      <trkpt lat="59.8207441" lon="17.6638658">
        <ele>32.8223</ele>
        <time>2014-05-29T11:58:27Z</time>
      </trkpt>
      <trkpt lat="59.8208017" lon="17.6638516">
        <ele>32.8223</ele>
        <time>2014-05-29T11:58:28Z</time>
      </trkpt>
      <trkpt lat="59.8208638" lon="17.6638373">
        <ele>33.3029</ele>
        <time>2014-05-29T11:58:29Z</time>
      </trkpt>
      <trkpt lat="59.8209228" lon="17.6638346">
        <ele>32.8223</ele>
        <time>2014-05-29T11:58:30Z</time>
      </trkpt>
      <trkpt lat="59.8209853" lon="17.6638279">
        <ele>32.8223</ele>
        <time>2014-05-29T11:58:31Z</time>
      </trkpt>
      <trkpt lat="59.8210522" lon="17.6638134">
        <ele>32.3416</ele>
        <time>2014-05-29T11:58:32Z</time>
      </trkpt>
      <trkpt lat="59.8211223" lon="17.6638045">
        <ele>32.3416</ele>
        <time>2014-05-29T11:58:33Z</time>
      </trkpt>
      <trkpt lat="59.8211922" lon="17.663802">
        <ele>32.8223</ele>
        <time>2014-05-29T11:58:34Z</time>
      </trkpt>
      <trkpt lat="59.8212607" lon="17.6638058">
        <ele>32.3416</ele>
        <time>2014-05-29T11:58:35Z</time>
      </trkpt>
      <trkpt lat="59.8213305" lon="17.663818">
        <ele>32.3416</ele>
        <time>2014-05-29T11:58:36Z</time>
      </trkpt>
      <trkpt lat="59.8214004" lon="17.6638366">
        <ele>32.8223</ele>
        <time>2014-05-29T11:58:37Z</time>
      </trkpt>
      <trkpt lat="59.8214616" lon="17.663857">
        <ele>33.3029</ele>
        <time>2014-05-29T11:58:38Z</time>
      </trkpt>
      <trkpt lat="59.8215221" lon="17.6638673">
        <ele>32.8223</ele>
        <time>2014-05-29T11:58:39Z</time>
      </trkpt>
      <trkpt lat="59.8215843" lon="17.663874">
        <ele>31.3801</ele>
        <time>2014-05-29T11:58:40Z</time>
      </trkpt>
      <trkpt lat="59.8216412" lon="17.6638796">
        <ele>31.3801</ele>
        <time>2014-05-29T11:58:41Z</time>
      </trkpt>
      <trkpt lat="59.8216997" lon="17.6638829">
        <ele>30.8995</ele>
        <time>2014-05-29T11:58:42Z</time>
      </trkpt>
      <trkpt lat="59.8217661" lon="17.6638814">
        <ele>30.4188</ele>
        <time>2014-05-29T11:58:43Z</time>
      </trkpt>
      <trkpt lat="59.821833" lon="17.6638702">
        <ele>29.4575</ele>
        <time>2014-05-29T11:58:44Z</time>
      </trkpt>
      <trkpt lat="59.8218958" lon="17.6638527">
        <ele>29.4575</ele>
        <time>2014-05-29T11:58:45Z</time>
      </trkpt>
      <trkpt lat="59.8219609" lon="17.663836">
        <ele>29.4575</ele>
        <time>2014-05-29T11:58:46Z</time>
      </trkpt>
      <trkpt lat="59.8220267" lon="17.6638243">
        <ele>28.9769</ele>
        <time>2014-05-29T11:58:47Z</time>
      </trkpt>
      <trkpt lat="59.822096" lon="17.6638057">
        <ele>28.4962</ele>
        <time>2014-05-29T11:58:48Z</time>
      </trkpt>
      <trkpt lat="59.8221768" lon="17.6637844">
        <ele>28.9769</ele>
        <time>2014-05-29T11:58:49Z</time>
      </trkpt>
      <trkpt lat="59.8222557" lon="17.6637749">
        <ele>28.0155</ele>
        <time>2014-05-29T11:58:50Z</time>
      </trkpt>
      <trkpt lat="59.8223344" lon="17.663769">
        <ele>27.5349</ele>
        <time>2014-05-29T11:58:51Z</time>
      </trkpt>
      <trkpt lat="59.8224151" lon="17.6637527">
        <ele>27.0543</ele>
        <time>2014-05-29T11:58:52Z</time>
      </trkpt>
      <trkpt lat="59.8224948" lon="17.6637336">
        <ele>27.0543</ele>
        <time>2014-05-29T11:58:53Z</time>
      </trkpt>
      <trkpt lat="59.8225733" lon="17.6637011">
        <ele>26.5736</ele>
        <time>2014-05-29T11:58:54Z</time>
      </trkpt>
      <trkpt lat="59.8226538" lon="17.6636688">
        <ele>25.6123</ele>
        <time>2014-05-29T11:58:55Z</time>
      </trkpt>
      <trkpt lat="59.8227365" lon="17.6636481">
        <ele>26.5736</ele>
        <time>2014-05-29T11:58:56Z</time>
      </trkpt>
      <trkpt lat="59.8228093" lon="17.6636351">
        <ele>25.6123</ele>
        <time>2014-05-29T11:58:57Z</time>
      </trkpt>
      <trkpt lat="59.8228799" lon="17.6636236">
        <ele>25.1317</ele>
        <time>2014-05-29T11:58:58Z</time>
      </trkpt>
      <trkpt lat="59.8229519" lon="17.6636081">
        <ele>24.651</ele>
        <time>2014-05-29T11:58:59Z</time>
      </trkpt>
      <trkpt lat="59.8230234" lon="17.6635996">
        <ele>24.651</ele>
        <time>2014-05-29T11:59:00Z</time>
      </trkpt>
      <trkpt lat="59.8230957" lon="17.6636031">
        <ele>24.651</ele>
        <time>2014-05-29T11:59:01Z</time>
      </trkpt>
      <trkpt lat="59.8231678" lon="17.6636154">
        <ele>24.651</ele>
        <time>2014-05-29T11:59:02Z</time>
      </trkpt>
      <trkpt lat="59.8232379" lon="17.6636252">
        <ele>24.1703</ele>
        <time>2014-05-29T11:59:03Z</time>
      </trkpt>
      <trkpt lat="59.8233114" lon="17.6636321">
        <ele>24.651</ele>
        <time>2014-05-29T11:59:04Z</time>
      </trkpt>
      <trkpt lat="59.8233844" lon="17.6636446">
        <ele>24.651</ele>
        <time>2014-05-29T11:59:05Z</time>
      </trkpt>
      <trkpt lat="59.8234538" lon="17.6636659">
        <ele>24.651</ele>
        <time>2014-05-29T11:59:06Z</time>
      </trkpt>
      <trkpt lat="59.8235207" lon="17.663685">
        <ele>24.651</ele>
        <time>2014-05-29T11:59:07Z</time>
      </trkpt>
      <trkpt lat="59.82359" lon="17.6637003">
        <ele>24.651</ele>
        <time>2014-05-29T11:59:08Z</time>
      </trkpt>
      <trkpt lat="59.8236541" lon="17.6637091">
        <ele>24.651</ele>
        <time>2014-05-29T11:59:09Z</time>
      </trkpt>
      <trkpt lat="59.8237199" lon="17.6637088">
        <ele>24.651</ele>
        <time>2014-05-29T11:59:10Z</time>
      </trkpt>
      <trkpt lat="59.8237879" lon="17.6637062">
        <ele>25.1317</ele>
        <time>2014-05-29T11:59:11Z</time>
      </trkpt>
      <trkpt lat="59.8238567" lon="17.6637048">
        <ele>24.651</ele>
        <time>2014-05-29T11:59:12Z</time>
      </trkpt>
      <trkpt lat="59.8239221" lon="17.6637034">
        <ele>24.651</ele>
        <time>2014-05-29T11:59:13Z</time>
      </trkpt>
      <trkpt lat="59.8239879" lon="17.663699">
        <ele>24.651</ele>
        <time>2014-05-29T11:59:14Z</time>
      </trkpt>
      <trkpt lat="59.8240512" lon="17.6636931">
        <ele>24.1703</ele>
        <time>2014-05-29T11:59:15Z</time>
      </trkpt>
      <trkpt lat="59.8241107" lon="17.663686">
        <ele>24.1703</ele>
        <time>2014-05-29T11:59:16Z</time>
      </trkpt>
      <trkpt lat="59.8241714" lon="17.6636731">
        <ele>24.1703</ele>
        <time>2014-05-29T11:59:17Z</time>
      </trkpt>
      <trkpt lat="59.8242359" lon="17.6636524">
        <ele>24.651</ele>
        <time>2014-05-29T11:59:18Z</time>
      </trkpt>
      <trkpt lat="59.8243055" lon="17.6636351">
        <ele>25.6123</ele>
        <time>2014-05-29T11:59:19Z</time>
      </trkpt>
      <trkpt lat="59.8243734" lon="17.6636129">
        <ele>26.0929</ele>
        <time>2014-05-29T11:59:20Z</time>
      </trkpt>
      <trkpt lat="59.824437" lon="17.6635866">
        <ele>26.0929</ele>
        <time>2014-05-29T11:59:21Z</time>
      </trkpt>
      <trkpt lat="59.8244971" lon="17.6635544">
        <ele>26.5736</ele>
        <time>2014-05-29T11:59:22Z</time>
      </trkpt>
      <trkpt lat="59.8245551" lon="17.6635196">
        <ele>26.5736</ele>
        <time>2014-05-29T11:59:23Z</time>
      </trkpt>
      <trkpt lat="59.8246135" lon="17.6634838">
        <ele>26.5736</ele>
        <time>2014-05-29T11:59:24Z</time>
      </trkpt>
      <trkpt lat="59.8246696" lon="17.663445">
        <ele>26.5736</ele>
        <time>2014-05-29T11:59:25Z</time>
      </trkpt>
      <trkpt lat="59.8247238" lon="17.6633978">
        <ele>26.0929</ele>
        <time>2014-05-29T11:59:26Z</time>
      </trkpt>
      <trkpt lat="59.8247808" lon="17.6633466">
        <ele>26.0929</ele>
        <time>2014-05-29T11:59:27Z</time>
      </trkpt>
      <trkpt lat="59.8248353" lon="17.6632922">
        <ele>26.5736</ele>
        <time>2014-05-29T11:59:28Z</time>
      </trkpt>
      <trkpt lat="59.824888" lon="17.6632333">
        <ele>27.0543</ele>
        <time>2014-05-29T11:59:29Z</time>
      </trkpt>
      <trkpt lat="59.8249417" lon="17.663169">
        <ele>27.5349</ele>
        <time>2014-05-29T11:59:30Z</time>
      </trkpt>
      <trkpt lat="59.824995" lon="17.6630989">
        <ele>27.5349</ele>
        <time>2014-05-29T11:59:31Z</time>
      </trkpt>
      <trkpt lat="59.8250462" lon="17.6630308">
        <ele>27.5349</ele>
        <time>2014-05-29T11:59:32Z</time>
      </trkpt>
      <trkpt lat="59.8250954" lon="17.6629619">
        <ele>27.5349</ele>
        <time>2014-05-29T11:59:33Z</time>
      </trkpt>
      <trkpt lat="59.8251432" lon="17.6628889">
        <ele>27.5349</ele>
        <time>2014-05-29T11:59:34Z</time>
      </trkpt>
      <trkpt lat="59.8251978" lon="17.6628183">
        <ele>28.4962</ele>
        <time>2014-05-29T11:59:35Z</time>
      </trkpt>
      <trkpt lat="59.8252471" lon="17.6627439">
        <ele>28.9769</ele>
        <time>2014-05-29T11:59:36Z</time>
      </trkpt>
      <trkpt lat="59.8252933" lon="17.6626723">
        <ele>29.4575</ele>
        <time>2014-05-29T11:59:37Z</time>
      </trkpt>
      <trkpt lat="59.8253378" lon="17.6625997">
        <ele>29.4575</ele>
        <time>2014-05-29T11:59:38Z</time>
      </trkpt>
      <trkpt lat="59.8253839" lon="17.6625277">
        <ele>29.9381</ele>
        <time>2014-05-29T11:59:39Z</time>
      </trkpt>
      <trkpt lat="59.825431" lon="17.6624645">
        <ele>30.4188</ele>
        <time>2014-05-29T11:59:40Z</time>
      </trkpt>
      <trkpt lat="59.8254715" lon="17.6623941">
        <ele>30.8995</ele>
        <time>2014-05-29T11:59:41Z</time>
      </trkpt>
      <trkpt lat="59.8255083" lon="17.6623231">
        <ele>30.4188</ele>
        <time>2014-05-29T11:59:42Z</time>
      </trkpt>
      <trkpt lat="59.82555" lon="17.6622584">
        <ele>31.3801</ele>
        <time>2014-05-29T11:59:43Z</time>
      </trkpt>
      <trkpt lat="59.8255891" lon="17.6621952">
        <ele>31.8607</ele>
        <time>2014-05-29T11:59:44Z</time>
      </trkpt>
      <trkpt lat="59.8256221" lon="17.6621341">
        <ele>32.3416</ele>
        <time>2014-05-29T11:59:45Z</time>
      </trkpt>
      <trkpt lat="59.82565" lon="17.6620785">
        <ele>32.8223</ele>
        <time>2014-05-29T11:59:46Z</time>
      </trkpt>
      <trkpt lat="59.8256803" lon="17.6620243">
        <ele>33.7834</ele>
        <time>2014-05-29T11:59:47Z</time>
      </trkpt>
      <trkpt lat="59.8257059" lon="17.661971">
        <ele>34.2642</ele>
        <time>2014-05-29T11:59:48Z</time>
      </trkpt>
      <trkpt lat="59.8257325" lon="17.661914">
        <ele>34.7449</ele>
        <time>2014-05-29T11:59:49Z</time>
      </trkpt>
      <trkpt lat="59.8257585" lon="17.6618559">
        <ele>35.2255</ele>
        <time>2014-05-29T11:59:50Z</time>
      </trkpt>
      <trkpt lat="59.8257838" lon="17.6618076">
        <ele>36.1868</ele>
        <time>2014-05-29T11:59:51Z</time>
      </trkpt>
      <trkpt lat="59.8258077" lon="17.661771">
        <ele>36.1868</ele>
        <time>2014-05-29T11:59:52Z</time>
      </trkpt>
      <trkpt lat="59.8258375" lon="17.6617391">
        <ele>35.7061</ele>
        <time>2014-05-29T11:59:53Z</time>
      </trkpt>
      <trkpt lat="59.8258727" lon="17.661699">
        <ele>36.1868</ele>
        <time>2014-05-29T11:59:54Z</time>
      </trkpt>
      <trkpt lat="59.8259069" lon="17.6616622">
        <ele>35.7061</ele>
        <time>2014-05-29T11:59:55Z</time>
      </trkpt>
      <trkpt lat="59.8259433" lon="17.661627">
        <ele>35.2255</ele>
        <time>2014-05-29T11:59:56Z</time>
      </trkpt>
      <trkpt lat="59.8259833" lon="17.6615932">
        <ele>35.7061</ele>
        <time>2014-05-29T11:59:57Z</time>
      </trkpt>
      <trkpt lat="59.8260204" lon="17.661561">
        <ele>35.7061</ele>
        <time>2014-05-29T11:59:58Z</time>
      </trkpt>
      <trkpt lat="59.8260589" lon="17.6615352">
        <ele>35.2255</ele>
        <time>2014-05-29T11:59:59Z</time>
      </trkpt>
      <trkpt lat="59.8260996" lon="17.6615107">
        <ele>35.2255</ele>
        <time>2014-05-29T12:00:00Z</time>
      </trkpt>
      <trkpt lat="59.8261397" lon="17.6614849">
        <ele>34.7449</ele>
        <time>2014-05-29T12:00:01Z</time>
      </trkpt>
      <trkpt lat="59.8261835" lon="17.6614575">
        <ele>35.2255</ele>
        <time>2014-05-29T12:00:02Z</time>
      </trkpt>
      <trkpt lat="59.8262266" lon="17.661431">
        <ele>35.2255</ele>
        <time>2014-05-29T12:00:03Z</time>
      </trkpt>
      <trkpt lat="59.8262677" lon="17.6614014">
        <ele>34.7449</ele>
        <time>2014-05-29T12:00:04Z</time>
      </trkpt>
      <trkpt lat="59.8263115" lon="17.6613696">
        <ele>34.7449</ele>
        <time>2014-05-29T12:00:05Z</time>
      </trkpt>
      <trkpt lat="59.8263538" lon="17.6613342">
        <ele>34.7449</ele>
        <time>2014-05-29T12:00:06Z</time>
      </trkpt>
      <trkpt lat="59.826394" lon="17.6612957">
        <ele>34.7449</ele>
        <time>2014-05-29T12:00:07Z</time>
      </trkpt>
      <trkpt lat="59.8264307" lon="17.6612628">
        <ele>34.2642</ele>
        <time>2014-05-29T12:00:08Z</time>
      </trkpt>
      <trkpt lat="59.8264577" lon="17.661238">
        <ele>34.2642</ele>
        <time>2014-05-29T12:00:09Z</time>
      </trkpt>
      <trkpt lat="59.8264689" lon="17.6612253">
        <ele>34.2642</ele>
        <time>2014-05-29T12:00:10Z</time>
      </trkpt>
      <trkpt lat="59.8264793" lon="17.6612217">
        <ele>35.7061</ele>
        <time>2014-05-29T12:00:11Z</time>
      </trkpt>
      <trkpt lat="59.8264853" lon="17.6612192">
        <ele>37.1481</ele>
        <time>2014-05-29T12:00:12Z</time>
      </trkpt>
      <trkpt lat="59.8264917" lon="17.6612144">
        <ele>38.1094</ele>
        <time>2014-05-29T12:00:13Z</time>
      </trkpt>
      <trkpt lat="59.8264981" lon="17.6612047">
        <ele>39.0707</ele>
        <time>2014-05-29T12:00:14Z</time>
      </trkpt>
      <trkpt lat="59.8265096" lon="17.661199">
        <ele>40.5128</ele>
        <time>2014-05-29T12:00:15Z</time>
      </trkpt>
      <trkpt lat="59.82651" lon="17.6611908">
        <ele>40.5128</ele>
        <time>2014-05-29T12:00:16Z</time>
      </trkpt>
      <trkpt lat="59.82651" lon="17.6611826">
        <ele>40.5128</ele>
        <time>2014-05-29T12:00:17Z</time>
      </trkpt>
      <trkpt lat="59.8265158" lon="17.6611773">
        <ele>40.9934</ele>
        <time>2014-05-29T12:00:18Z</time>
      </trkpt>
      <trkpt lat="59.8265218" lon="17.6611835">
        <ele>40.5128</ele>
        <time>2014-05-29T12:00:19Z</time>
      </trkpt>
      <trkpt lat="59.8265172" lon="17.6611907">
        <ele>39.5513</ele>
        <time>2014-05-29T12:00:20Z</time>
      </trkpt>
      <trkpt lat="59.8265158" lon="17.6611948">
        <ele>39.5513</ele>
        <time>2014-05-29T12:00:21Z</time>
      </trkpt>
      <trkpt lat="59.8265159" lon="17.6611969">
        <ele>39.0707</ele>
        <time>2014-05-29T12:00:22Z</time>
      </trkpt>
      <trkpt lat="59.826627" lon="17.6610871">
        <ele>38.5901</ele>
        <time>2014-05-29T12:08:50Z</time>
      </trkpt>
      <trkpt lat="59.826655" lon="17.6610597">
        <ele>38.5901</ele>
        <time>2014-05-29T12:08:51Z</time>
      </trkpt>
      <trkpt lat="59.8266825" lon="17.6610279">
        <ele>38.5901</ele>
        <time>2014-05-29T12:08:52Z</time>
      </trkpt>
      <trkpt lat="59.8267116" lon="17.6609883">
        <ele>38.5901</ele>
        <time>2014-05-29T12:08:53Z</time>
      </trkpt>
      <trkpt lat="59.8267442" lon="17.6609481">
        <ele>39.5513</ele>
        <time>2014-05-29T12:08:54Z</time>
      </trkpt>
      <trkpt lat="59.8267753" lon="17.6609053">
        <ele>39.5513</ele>
        <time>2014-05-29T12:08:55Z</time>
      </trkpt>
      <trkpt lat="59.8268086" lon="17.6608603">
        <ele>40.0321</ele>
        <time>2014-05-29T12:08:56Z</time>
      </trkpt>
      <trkpt lat="59.8268438" lon="17.6608088">
        <ele>40.0321</ele>
        <time>2014-05-29T12:08:57Z</time>
      </trkpt>
      <trkpt lat="59.8268798" lon="17.6607545">
        <ele>40.0321</ele>
        <time>2014-05-29T12:08:58Z</time>
      </trkpt>
      <trkpt lat="59.8269147" lon="17.6607013">
        <ele>40.0321</ele>
        <time>2014-05-29T12:08:59Z</time>
      </trkpt>
      <trkpt lat="59.826945" lon="17.6606463">
        <ele>40.0321</ele>
        <time>2014-05-29T12:09:00Z</time>
      </trkpt>
      <trkpt lat="59.8269689" lon="17.6605941">
        <ele>40.0321</ele>
        <time>2014-05-29T12:09:01Z</time>
      </trkpt>
      <trkpt lat="59.826995" lon="17.6605513">
        <ele>40.0321</ele>
        <time>2014-05-29T12:09:02Z</time>
      </trkpt>
      <trkpt lat="59.8270211" lon="17.6605102">
        <ele>40.0321</ele>
        <time>2014-05-29T12:09:03Z</time>
      </trkpt>
      <trkpt lat="59.8270483" lon="17.6604696">
        <ele>40.0321</ele>
        <time>2014-05-29T12:09:04Z</time>
      </trkpt>
      <trkpt lat="59.8270779" lon="17.6604286">
        <ele>40.5128</ele>
        <time>2014-05-29T12:09:05Z</time>
      </trkpt>
      <trkpt lat="59.8271007" lon="17.6603852">
        <ele>40.5128</ele>
        <time>2014-05-29T12:09:06Z</time>
      </trkpt>
      <trkpt lat="59.827127" lon="17.6603322">
        <ele>40.5128</ele>
        <time>2014-05-29T12:09:07Z</time>
      </trkpt>
      <trkpt lat="59.8271515" lon="17.6602783">
        <ele>40.0321</ele>
        <time>2014-05-29T12:09:08Z</time>
      </trkpt>
      <trkpt lat="59.8271774" lon="17.6602288">
        <ele>40.0321</ele>
        <time>2014-05-29T12:09:09Z</time>
      </trkpt>
      <trkpt lat="59.8272095" lon="17.6601719">
        <ele>40.0321</ele>
        <time>2014-05-29T12:09:10Z</time>
      </trkpt>
      <trkpt lat="59.8272451" lon="17.6601266">
        <ele>39.5513</ele>
        <time>2014-05-29T12:09:11Z</time>
      </trkpt>
      <trkpt lat="59.8272799" lon="17.6600967">
        <ele>40.0321</ele>
        <time>2014-05-29T12:09:12Z</time>
      </trkpt>
      <trkpt lat="59.8273176" lon="17.6600796">
        <ele>40.5128</ele>
        <time>2014-05-29T12:09:13Z</time>
      </trkpt>
      <trkpt lat="59.8273625" lon="17.6600558">
        <ele>40.5128</ele>
        <time>2014-05-29T12:09:14Z</time>
      </trkpt>
      <trkpt lat="59.8274078" lon="17.6600236">
        <ele>40.5128</ele>
        <time>2014-05-29T12:09:15Z</time>
      </trkpt>
      <trkpt lat="59.8274492" lon="17.6599978">
        <ele>40.9934</ele>
        <time>2014-05-29T12:09:16Z</time>
      </trkpt>
      <trkpt lat="59.8274903" lon="17.6599623">
        <ele>40.9934</ele>
        <time>2014-05-29T12:09:17Z</time>
      </trkpt>
      <trkpt lat="59.8275332" lon="17.6599193">
        <ele>40.5128</ele>
        <time>2014-05-29T12:09:18Z</time>
      </trkpt>
      <trkpt lat="59.8275663" lon="17.6598829">
        <ele>40.0321</ele>
        <time>2014-05-29T12:09:19Z</time>
      </trkpt>
      <trkpt lat="59.8275973" lon="17.6598481">
        <ele>39.5513</ele>
        <time>2014-05-29T12:09:20Z</time>
      </trkpt>
      <trkpt lat="59.8276285" lon="17.6598118">
        <ele>40.0321</ele>
        <time>2014-05-29T12:09:21Z</time>
      </trkpt>
      <trkpt lat="59.8276638" lon="17.659778">
        <ele>40.5128</ele>
        <time>2014-05-29T12:09:22Z</time>
      </trkpt>
      <trkpt lat="59.8277057" lon="17.6597449">
        <ele>40.5128</ele>
        <time>2014-05-29T12:09:23Z</time>
      </trkpt>
      <trkpt lat="59.8277534" lon="17.6597057">
        <ele>40.5128</ele>
        <time>2014-05-29T12:09:24Z</time>
      </trkpt>
      <trkpt lat="59.8278056" lon="17.6596624">
        <ele>41.474</ele>
        <time>2014-05-29T12:09:25Z</time>
      </trkpt>
      <trkpt lat="59.8278579" lon="17.6596207">
        <ele>41.474</ele>
        <time>2014-05-29T12:09:26Z</time>
      </trkpt>
      <trkpt lat="59.8279116" lon="17.6595811">
        <ele>41.9547</ele>
        <time>2014-05-29T12:09:27Z</time>
      </trkpt>
      <trkpt lat="59.8279668" lon="17.6595374">
        <ele>41.9547</ele>
        <time>2014-05-29T12:09:28Z</time>
      </trkpt>
      <trkpt lat="59.8280184" lon="17.6594895">
        <ele>41.474</ele>
        <time>2014-05-29T12:09:29Z</time>
      </trkpt>
      <trkpt lat="59.8280697" lon="17.6594388">
        <ele>40.9934</ele>
        <time>2014-05-29T12:09:30Z</time>
      </trkpt>
      <trkpt lat="59.8281269" lon="17.6593911">
        <ele>40.9934</ele>
        <time>2014-05-29T12:09:31Z</time>
      </trkpt>
      <trkpt lat="59.8281857" lon="17.6593436">
        <ele>40.5128</ele>
        <time>2014-05-29T12:09:32Z</time>
      </trkpt>
      <trkpt lat="59.8282454" lon="17.6592988">
        <ele>40.5128</ele>
        <time>2014-05-29T12:09:33Z</time>
      </trkpt>
      <trkpt lat="59.8283054" lon="17.6592482">
        <ele>40.0321</ele>
        <time>2014-05-29T12:09:34Z</time>
      </trkpt>
      <trkpt lat="59.8283706" lon="17.659199">
        <ele>40.0321</ele>
        <time>2014-05-29T12:09:35Z</time>
      </trkpt>
      <trkpt lat="59.828435" lon="17.6591461">
        <ele>40.5128</ele>
        <time>2014-05-29T12:09:36Z</time>
      </trkpt>
      <trkpt lat="59.8284977" lon="17.6590949">
        <ele>40.5128</ele>
        <time>2014-05-29T12:09:37Z</time>
      </trkpt>
      <trkpt lat="59.8285622" lon="17.6590509">
        <ele>40.5128</ele>
        <time>2014-05-29T12:09:38Z</time>
      </trkpt>
      <trkpt lat="59.8286261" lon="17.6590092">
        <ele>40.9934</ele>
        <time>2014-05-29T12:09:39Z</time>
      </trkpt>
      <trkpt lat="59.8286868" lon="17.6589662">
        <ele>40.9934</ele>
        <time>2014-05-29T12:09:40Z</time>
      </trkpt>
      <trkpt lat="59.8287454" lon="17.6589302">
        <ele>40.5128</ele>
        <time>2014-05-29T12:09:41Z</time>
      </trkpt>
      <trkpt lat="59.8288024" lon="17.6588945">
        <ele>40.5128</ele>
        <time>2014-05-29T12:09:42Z</time>
      </trkpt>
      <trkpt lat="59.8288588" lon="17.6588561">
        <ele>40.5128</ele>
        <time>2014-05-29T12:09:43Z</time>
      </trkpt>
      <trkpt lat="59.8289161" lon="17.6588167">
        <ele>40.9934</ele>
        <time>2014-05-29T12:09:44Z</time>
      </trkpt>
      <trkpt lat="59.8289762" lon="17.6587768">
        <ele>41.474</ele>
        <time>2014-05-29T12:09:45Z</time>
      </trkpt>
      <trkpt lat="59.8290344" lon="17.6587349">
        <ele>40.9934</ele>
        <time>2014-05-29T12:09:46Z</time>
      </trkpt>
      <trkpt lat="59.8290917" lon="17.658696">
        <ele>40.9934</ele>
        <time>2014-05-29T12:09:47Z</time>
      </trkpt>
      <trkpt lat="59.8291479" lon="17.6586682">
        <ele>40.5128</ele>
        <time>2014-05-29T12:09:48Z</time>
      </trkpt>
      <trkpt lat="59.8292028" lon="17.6586452">
        <ele>40.9934</ele>
        <time>2014-05-29T12:09:49Z</time>
      </trkpt>
      <trkpt lat="59.8292479" lon="17.6586252">
        <ele>40.0321</ele>
        <time>2014-05-29T12:09:50Z</time>
      </trkpt>
      <trkpt lat="59.8292962" lon="17.6586137">
        <ele>40.5128</ele>
        <time>2014-05-29T12:09:51Z</time>
      </trkpt>
      <trkpt lat="59.8293467" lon="17.6585914">
        <ele>40.9934</ele>
        <time>2014-05-29T12:09:52Z</time>
      </trkpt>
      <trkpt lat="59.8294014" lon="17.6585576">
        <ele>40.9934</ele>
        <time>2014-05-29T12:09:53Z</time>
      </trkpt>
      <trkpt lat="59.8294556" lon="17.6585186">
        <ele>40.9934</ele>
        <time>2014-05-29T12:09:54Z</time>
      </trkpt>
      <trkpt lat="59.829506" lon="17.6584858">
        <ele>40.5128</ele>
        <time>2014-05-29T12:09:55Z</time>
      </trkpt>
      <trkpt lat="59.8295571" lon="17.6584602">
        <ele>40.5128</ele>
        <time>2014-05-29T12:09:56Z</time>
      </trkpt>
      <trkpt lat="59.8296107" lon="17.6584271">
        <ele>40.5128</ele>
        <time>2014-05-29T12:09:57Z</time>
      </trkpt>
      <trkpt lat="59.8296632" lon="17.6584021">
        <ele>40.0321</ele>
        <time>2014-05-29T12:09:58Z</time>
      </trkpt>
      <trkpt lat="59.8297156" lon="17.6583855">
        <ele>40.5128</ele>
        <time>2014-05-29T12:09:59Z</time>
      </trkpt>
      <trkpt lat="59.8297653" lon="17.6583679">
        <ele>40.9934</ele>
        <time>2014-05-29T12:10:00Z</time>
      </trkpt>
      <trkpt lat="59.829821" lon="17.6583531">
        <ele>40.5128</ele>
        <time>2014-05-29T12:10:01Z</time>
      </trkpt>
      <trkpt lat="59.8298764" lon="17.6583458">
        <ele>40.5128</ele>
        <time>2014-05-29T12:10:02Z</time>
      </trkpt>
      <trkpt lat="59.8299308" lon="17.6583399">
        <ele>40.9934</ele>
        <time>2014-05-29T12:10:03Z</time>
      </trkpt>
      <trkpt lat="59.8299826" lon="17.6583271">
        <ele>40.9934</ele>
        <time>2014-05-29T12:10:04Z</time>
      </trkpt>
      <trkpt lat="59.8300326" lon="17.6583029">
        <ele>40.9934</ele>
        <time>2014-05-29T12:10:05Z</time>
      </trkpt>
      <trkpt lat="59.8300834" lon="17.6582548">
        <ele>40.9934</ele>
        <time>2014-05-29T12:10:06Z</time>
      </trkpt>
      <trkpt lat="59.8301315" lon="17.6581936">
        <ele>40.0321</ele>
        <time>2014-05-29T12:10:07Z</time>
      </trkpt>
      <trkpt lat="59.830175" lon="17.658125">
        <ele>39.5513</ele>
        <time>2014-05-29T12:10:08Z</time>
      </trkpt>
      <trkpt lat="59.8302117" lon="17.6580543">
        <ele>38.1094</ele>
        <time>2014-05-29T12:10:09Z</time>
      </trkpt>
      <trkpt lat="59.8302542" lon="17.657981">
        <ele>38.1094</ele>
        <time>2014-05-29T12:10:10Z</time>
      </trkpt>
      <trkpt lat="59.8302852" lon="17.6579222">
        <ele>37.1481</ele>
        <time>2014-05-29T12:10:11Z</time>
      </trkpt>
      <trkpt lat="59.8303238" lon="17.6578486">
        <ele>37.1481</ele>
        <time>2014-05-29T12:10:12Z</time>
      </trkpt>
      <trkpt lat="59.8303457" lon="17.6577604">
        <ele>35.2255</ele>
        <time>2014-05-29T12:10:13Z</time>
      </trkpt>
      <trkpt lat="59.8303604" lon="17.6576658">
        <ele>34.2642</ele>
        <time>2014-05-29T12:10:14Z</time>
      </trkpt>
      <trkpt lat="59.8303717" lon="17.6575559">
        <ele>32.8223</ele>
        <time>2014-05-29T12:10:15Z</time>
      </trkpt>
      <trkpt lat="59.8303827" lon="17.6574474">
        <ele>31.3801</ele>
        <time>2014-05-29T12:10:16Z</time>
      </trkpt>
      <trkpt lat="59.830391" lon="17.6573524">
        <ele>29.9381</ele>
        <time>2014-05-29T12:10:17Z</time>
      </trkpt>
      <trkpt lat="59.8303916" lon="17.6572545">
        <ele>28.4962</ele>
        <time>2014-05-29T12:10:18Z</time>
      </trkpt>
      <trkpt lat="59.8303947" lon="17.6571579">
        <ele>28.0155</ele>
        <time>2014-05-29T12:10:19Z</time>
      </trkpt>
      <trkpt lat="59.8303981" lon="17.657071">
        <ele>27.0543</ele>
        <time>2014-05-29T12:10:20Z</time>
      </trkpt>
      <trkpt lat="59.8304017" lon="17.6569947">
        <ele>26.0929</ele>
        <time>2014-05-29T12:10:21Z</time>
      </trkpt>
      <trkpt lat="59.8304035" lon="17.6569227">
        <ele>26.5736</ele>
        <time>2014-05-29T12:10:22Z</time>
      </trkpt>
      <trkpt lat="59.8303905" lon="17.6568348">
        <ele>26.0929</ele>
        <time>2014-05-29T12:10:23Z</time>
      </trkpt>
      <trkpt lat="59.8303559" lon="17.6567191">
        <ele>24.651</ele>
        <time>2014-05-29T12:10:24Z</time>
      </trkpt>
      <trkpt lat="59.830318" lon="17.6565944">
        <ele>23.209</ele>
        <time>2014-05-29T12:10:25Z</time>
      </trkpt>
      <trkpt lat="59.8302853" lon="17.656472">
        <ele>21.767</ele>
        <time>2014-05-29T12:10:26Z</time>
      </trkpt>
      <trkpt lat="59.8302496" lon="17.6563448">
        <ele>20.325</ele>
        <time>2014-05-29T12:10:27Z</time>
      </trkpt>
      <trkpt lat="59.8302153" lon="17.6562152">
        <ele>19.3638</ele>
        <time>2014-05-29T12:10:28Z</time>
      </trkpt>
      <trkpt lat="59.8301732" lon="17.6560941">
        <ele>17.9218</ele>
        <time>2014-05-29T12:10:29Z</time>
      </trkpt>
      <trkpt lat="59.8301194" lon="17.6559716">
        <ele>15.999</ele>
        <time>2014-05-29T12:10:30Z</time>
      </trkpt>
      <trkpt lat="59.8300579" lon="17.6558452">
        <ele>14.557</ele>
        <time>2014-05-29T12:10:31Z</time>
      </trkpt>
      <trkpt lat="59.8299932" lon="17.6557186">
        <ele>12.6344</ele>
        <time>2014-05-29T12:10:32Z</time>
      </trkpt>
      <trkpt lat="59.8299301" lon="17.655576">
        <ele>11.1925</ele>
        <time>2014-05-29T12:10:33Z</time>
      </trkpt>
      <trkpt lat="59.8298739" lon="17.6554417">
        <ele>9.75061</ele>
        <time>2014-05-29T12:10:34Z</time>
      </trkpt>
      <trkpt lat="59.8298272" lon="17.6553274">
        <ele>9.2699</ele>
        <time>2014-05-29T12:10:35Z</time>
      </trkpt>
      <trkpt lat="59.8297899" lon="17.6552274">
        <ele>9.75061</ele>
        <time>2014-05-29T12:10:36Z</time>
      </trkpt>
      <trkpt lat="59.829773" lon="17.6551231">
        <ele>10.2312</ele>
        <time>2014-05-29T12:10:37Z</time>
      </trkpt>
      <trkpt lat="59.8297798" lon="17.655015">
        <ele>11.1925</ele>
        <time>2014-05-29T12:10:38Z</time>
      </trkpt>
      <trkpt lat="59.8298047" lon="17.6549157">
        <ele>12.1538</ele>
        <time>2014-05-29T12:10:39Z</time>
      </trkpt>
      <trkpt lat="59.8298332" lon="17.6548286">
        <ele>12.6344</ele>
        <time>2014-05-29T12:10:40Z</time>
      </trkpt>
      <trkpt lat="59.8298584" lon="17.6547416">
        <ele>13.5958</ele>
        <time>2014-05-29T12:10:41Z</time>
      </trkpt>
      <trkpt lat="59.8298787" lon="17.6546436">
        <ele>15.999</ele>
        <time>2014-05-29T12:10:42Z</time>
      </trkpt>
      <trkpt lat="59.8298993" lon="17.6545602">
        <ele>18.4023</ele>
        <time>2014-05-29T12:10:43Z</time>
      </trkpt>
      <trkpt lat="59.8299284" lon="17.654511">
        <ele>19.8444</ele>
        <time>2014-05-29T12:10:44Z</time>
      </trkpt>
      <trkpt lat="59.829958" lon="17.6544985">
        <ele>20.8057</ele>
        <time>2014-05-29T12:10:45Z</time>
      </trkpt>
      <trkpt lat="59.8299797" lon="17.6544968">
        <ele>22.2476</ele>
        <time>2014-05-29T12:10:46Z</time>
      </trkpt>
      <trkpt lat="59.8299937" lon="17.6544773">
        <ele>23.209</ele>
        <time>2014-05-29T12:10:47Z</time>
      </trkpt>
      <trkpt lat="59.8299942" lon="17.654454">
        <ele>24.1703</ele>
        <time>2014-05-29T12:10:48Z</time>
      </trkpt>
      <trkpt lat="59.8299822" lon="17.6544499">
        <ele>24.651</ele>
        <time>2014-05-29T12:10:49Z</time>
      </trkpt>
      <trkpt lat="59.8299601" lon="17.654449">
        <ele>25.1317</ele>
        <time>2014-05-29T12:10:50Z</time>
      </trkpt>
      <trkpt lat="59.8299295" lon="17.6544374">
        <ele>25.1317</ele>
        <time>2014-05-29T12:10:51Z</time>
      </trkpt>
      <trkpt lat="59.8298974" lon="17.6544157">
        <ele>26.0929</ele>
        <time>2014-05-29T12:10:52Z</time>
      </trkpt>
      <trkpt lat="59.8298575" lon="17.6543904">
        <ele>26.0929</ele>
        <time>2014-05-29T12:10:53Z</time>
      </trkpt>
      <trkpt lat="59.8298124" lon="17.6543686">
        <ele>26.5736</ele>
        <time>2014-05-29T12:10:54Z</time>
      </trkpt>
      <trkpt lat="59.8297666" lon="17.6543451">
        <ele>27.0543</ele>
        <time>2014-05-29T12:10:55Z</time>
      </trkpt>
      <trkpt lat="59.8297124" lon="17.654293">
        <ele>27.0543</ele>
        <time>2014-05-29T12:10:56Z</time>
      </trkpt>
      <trkpt lat="59.8296514" lon="17.6542519">
        <ele>28.0155</ele>
        <time>2014-05-29T12:10:57Z</time>
      </trkpt>
      <trkpt lat="59.8295937" lon="17.6542036">
        <ele>28.4962</ele>
        <time>2014-05-29T12:10:58Z</time>
      </trkpt>
      <trkpt lat="59.8295285" lon="17.6541458">
        <ele>28.9769</ele>
        <time>2014-05-29T12:10:59Z</time>
      </trkpt>
      <trkpt lat="59.8294714" lon="17.6540805">
        <ele>28.9769</ele>
        <time>2014-05-29T12:11:00Z</time>
      </trkpt>
      <trkpt lat="59.8294176" lon="17.6540074">
        <ele>28.9769</ele>
        <time>2014-05-29T12:11:01Z</time>
      </trkpt>
      <trkpt lat="59.8293654" lon="17.6539267">
        <ele>28.9769</ele>
        <time>2014-05-29T12:11:02Z</time>
      </trkpt>
      <trkpt lat="59.829316" lon="17.6538361">
        <ele>28.9769</ele>
        <time>2014-05-29T12:11:03Z</time>
      </trkpt>
      <trkpt lat="59.8292717" lon="17.6537315">
        <ele>29.4575</ele>
        <time>2014-05-29T12:11:04Z</time>
      </trkpt>
      <trkpt lat="59.8292318" lon="17.6536172">
        <ele>29.9381</ele>
        <time>2014-05-29T12:11:05Z</time>
      </trkpt>
      <trkpt lat="59.8291924" lon="17.653503">
        <ele>30.4188</ele>
        <time>2014-05-29T12:11:06Z</time>
      </trkpt>
      <trkpt lat="59.8291549" lon="17.653378">
        <ele>30.4188</ele>
        <time>2014-05-29T12:11:07Z</time>
      </trkpt>
      <trkpt lat="59.8291255" lon="17.6532528">
        <ele>31.3801</ele>
        <time>2014-05-29T12:11:08Z</time>
      </trkpt>
      <trkpt lat="59.829073" lon="17.6531475">
        <ele>31.3801</ele>
        <time>2014-05-29T12:11:09Z</time>
      </trkpt>
      <trkpt lat="59.8290246" lon="17.6530373">
        <ele>31.3801</ele>
        <time>2014-05-29T12:11:10Z</time>
      </trkpt>
      <trkpt lat="59.8289777" lon="17.6529227">
        <ele>31.8607</ele>
        <time>2014-05-29T12:11:11Z</time>
      </trkpt>
      <trkpt lat="59.8289345" lon="17.6528022">
        <ele>32.3416</ele>
        <time>2014-05-29T12:11:12Z</time>
      </trkpt>
      <trkpt lat="59.8288917" lon="17.6526862">
        <ele>32.3416</ele>
        <time>2014-05-29T12:11:13Z</time>
      </trkpt>
      <trkpt lat="59.8288468" lon="17.6525756">
        <ele>31.8607</ele>
        <time>2014-05-29T12:11:14Z</time>
      </trkpt>
      <trkpt lat="59.8288064" lon="17.6524556">
        <ele>32.3416</ele>
        <time>2014-05-29T12:11:15Z</time>
      </trkpt>
      <trkpt lat="59.8287608" lon="17.6523455">
        <ele>31.8607</ele>
        <time>2014-05-29T12:11:16Z</time>
      </trkpt>
      <trkpt lat="59.8287194" lon="17.6522301">
        <ele>31.8607</ele>
        <time>2014-05-29T12:11:17Z</time>
      </trkpt>
      <trkpt lat="59.8286966" lon="17.6520997">
        <ele>31.8607</ele>
        <time>2014-05-29T12:11:18Z</time>
      </trkpt>
      <trkpt lat="59.8287064" lon="17.6519597">
        <ele>31.8607</ele>
        <time>2014-05-29T12:11:19Z</time>
      </trkpt>
      <trkpt lat="59.8287366" lon="17.6518381">
        <ele>31.3801</ele>
        <time>2014-05-29T12:11:20Z</time>
      </trkpt>
      <trkpt lat="59.8287831" lon="17.6517336">
        <ele>31.3801</ele>
        <time>2014-05-29T12:11:21Z</time>
      </trkpt>
      <trkpt lat="59.8288324" lon="17.6516304">
        <ele>31.3801</ele>
        <time>2014-05-29T12:11:22Z</time>
      </trkpt>
      <trkpt lat="59.8288742" lon="17.6515184">
        <ele>31.3801</ele>
        <time>2014-05-29T12:11:23Z</time>
      </trkpt>
      <trkpt lat="59.8289064" lon="17.6514054">
        <ele>30.8995</ele>
        <time>2014-05-29T12:11:24Z</time>
      </trkpt>
      <trkpt lat="59.8289209" lon="17.6512943">
        <ele>30.8995</ele>
        <time>2014-05-29T12:11:25Z</time>
      </trkpt>
      <trkpt lat="59.8289545" lon="17.6511751">
        <ele>30.8995</ele>
        <time>2014-05-29T12:11:26Z</time>
      </trkpt>
      <trkpt lat="59.82898" lon="17.65105">
        <ele>30.8995</ele>
        <time>2014-05-29T12:11:27Z</time>
      </trkpt>
      <trkpt lat="59.8289954" lon="17.650915">
        <ele>30.8995</ele>
        <time>2014-05-29T12:11:28Z</time>
      </trkpt>
      <trkpt lat="59.8290027" lon="17.6507807">
        <ele>30.8995</ele>
        <time>2014-05-29T12:11:29Z</time>
      </trkpt>
      <trkpt lat="59.8290072" lon="17.6506289">
        <ele>30.8995</ele>
        <time>2014-05-29T12:11:30Z</time>
      </trkpt>
      <trkpt lat="59.8290075" lon="17.6504841">
        <ele>30.4188</ele>
        <time>2014-05-29T12:11:31Z</time>
      </trkpt>
      <trkpt lat="59.8290181" lon="17.6503265">
        <ele>30.4188</ele>
        <time>2014-05-29T12:11:32Z</time>
      </trkpt>
      <trkpt lat="59.8290178" lon="17.6501844">
        <ele>30.4188</ele>
        <time>2014-05-29T12:11:33Z</time>
      </trkpt>
      <trkpt lat="59.8290163" lon="17.6500376">
        <ele>30.8995</ele>
        <time>2014-05-29T12:11:34Z</time>
      </trkpt>
      <trkpt lat="59.8290094" lon="17.649894">
        <ele>30.8995</ele>
        <time>2014-05-29T12:11:35Z</time>
      </trkpt>
      <trkpt lat="59.8289981" lon="17.6497506">
        <ele>30.8995</ele>
        <time>2014-05-29T12:11:36Z</time>
      </trkpt>
      <trkpt lat="59.828986" lon="17.6496102">
        <ele>30.8995</ele>
        <time>2014-05-29T12:11:37Z</time>
      </trkpt>
      <trkpt lat="59.8289834" lon="17.649452">
        <ele>31.3801</ele>
        <time>2014-05-29T12:11:38Z</time>
      </trkpt>
      <trkpt lat="59.8289701" lon="17.6493126">
        <ele>31.3801</ele>
        <time>2014-05-29T12:11:39Z</time>
      </trkpt>
      <trkpt lat="59.8289515" lon="17.6491774">
        <ele>31.8607</ele>
        <time>2014-05-29T12:11:40Z</time>
      </trkpt>
      <trkpt lat="59.8289388" lon="17.6490403">
        <ele>31.8607</ele>
        <time>2014-05-29T12:11:41Z</time>
      </trkpt>
      <trkpt lat="59.828929" lon="17.6489055">
        <ele>31.8607</ele>
        <time>2014-05-29T12:11:42Z</time>
      </trkpt>
      <trkpt lat="59.8289199" lon="17.6487741">
        <ele>31.8607</ele>
        <time>2014-05-29T12:11:43Z</time>
      </trkpt>
      <trkpt lat="59.8289105" lon="17.6486466">
        <ele>31.8607</ele>
        <time>2014-05-29T12:11:44Z</time>
      </trkpt>
      <trkpt lat="59.8288992" lon="17.6485237">
        <ele>31.8607</ele>
        <time>2014-05-29T12:11:45Z</time>
      </trkpt>
      <trkpt lat="59.8288872" lon="17.6484052">
        <ele>31.8607</ele>
        <time>2014-05-29T12:11:46Z</time>
      </trkpt>
      <trkpt lat="59.8288708" lon="17.6482948">
        <ele>31.8607</ele>
        <time>2014-05-29T12:11:47Z</time>
      </trkpt>
      <trkpt lat="59.8288453" lon="17.6481969">
        <ele>31.8607</ele>
        <time>2014-05-29T12:11:48Z</time>
      </trkpt>
      <trkpt lat="59.8288079" lon="17.6481155">
        <ele>31.8607</ele>
        <time>2014-05-29T12:11:49Z</time>
      </trkpt>
      <trkpt lat="59.8287594" lon="17.6480608">
        <ele>31.8607</ele>
        <time>2014-05-29T12:11:50Z</time>
      </trkpt>
      <trkpt lat="59.8287052" lon="17.6480324">
        <ele>31.8607</ele>
        <time>2014-05-29T12:11:51Z</time>
      </trkpt>
      <trkpt lat="59.8286495" lon="17.6480256">
        <ele>31.8607</ele>
        <time>2014-05-29T12:11:52Z</time>
      </trkpt>
      <trkpt lat="59.8285916" lon="17.6480292">
        <ele>31.8607</ele>
        <time>2014-05-29T12:11:53Z</time>
      </trkpt>
      <trkpt lat="59.8285333" lon="17.6480215">
        <ele>31.8607</ele>
        <time>2014-05-29T12:11:54Z</time>
      </trkpt>
      <trkpt lat="59.8284776" lon="17.647983">
        <ele>31.8607</ele>
        <time>2014-05-29T12:11:55Z</time>
      </trkpt>
      <trkpt lat="59.8284348" lon="17.6479057">
        <ele>31.8607</ele>
        <time>2014-05-29T12:11:56Z</time>
      </trkpt>
      <trkpt lat="59.8284099" lon="17.6478042">
        <ele>31.8607</ele>
        <time>2014-05-29T12:11:57Z</time>
      </trkpt>
      <trkpt lat="59.8283959" lon="17.6476981">
        <ele>32.3416</ele>
        <time>2014-05-29T12:11:58Z</time>
      </trkpt>
      <trkpt lat="59.8283835" lon="17.6475961">
        <ele>32.8223</ele>
        <time>2014-05-29T12:11:59Z</time>
      </trkpt>
      <trkpt lat="59.8283704" lon="17.6474982">
        <ele>32.8223</ele>
        <time>2014-05-29T12:12:00Z</time>
      </trkpt>
      <trkpt lat="59.8283582" lon="17.6474025">
        <ele>32.8223</ele>
        <time>2014-05-29T12:12:01Z</time>
      </trkpt>
      <trkpt lat="59.8283517" lon="17.6473065">
        <ele>32.8223</ele>
        <time>2014-05-29T12:12:02Z</time>
      </trkpt>
      <trkpt lat="59.8283515" lon="17.6472106">
        <ele>33.7834</ele>
        <time>2014-05-29T12:12:03Z</time>
      </trkpt>
      <trkpt lat="59.8283468" lon="17.6471191">
        <ele>34.2642</ele>
        <time>2014-05-29T12:12:04Z</time>
      </trkpt>
      <trkpt lat="59.8283397" lon="17.6470294">
        <ele>34.2642</ele>
        <time>2014-05-29T12:12:05Z</time>
      </trkpt>
      <trkpt lat="59.8283323" lon="17.6469408">
        <ele>34.7449</ele>
        <time>2014-05-29T12:12:06Z</time>
      </trkpt>
      <trkpt lat="59.8283291" lon="17.6468522">
        <ele>35.2255</ele>
        <time>2014-05-29T12:12:07Z</time>
      </trkpt>
      <trkpt lat="59.8283234" lon="17.6467635">
        <ele>35.2255</ele>
        <time>2014-05-29T12:12:08Z</time>
      </trkpt>
      <trkpt lat="59.8283177" lon="17.646673">
        <ele>35.7061</ele>
        <time>2014-05-29T12:12:09Z</time>
      </trkpt>
      <trkpt lat="59.8283106" lon="17.6465813">
        <ele>36.1868</ele>
        <time>2014-05-29T12:12:10Z</time>
      </trkpt>
      <trkpt lat="59.8283055" lon="17.646487">
        <ele>36.1868</ele>
        <time>2014-05-29T12:12:11Z</time>
      </trkpt>
      <trkpt lat="59.8282965" lon="17.6463927">
        <ele>36.6675</ele>
        <time>2014-05-29T12:12:12Z</time>
      </trkpt>
      <trkpt lat="59.8282911" lon="17.6462959">
        <ele>37.1481</ele>
        <time>2014-05-29T12:12:13Z</time>
      </trkpt>
      <trkpt lat="59.828288" lon="17.6462004">
        <ele>37.1481</ele>
        <time>2014-05-29T12:12:14Z</time>
      </trkpt>
      <trkpt lat="59.8282925" lon="17.6461028">
        <ele>37.1481</ele>
        <time>2014-05-29T12:12:15Z</time>
      </trkpt>
      <trkpt lat="59.8283071" lon="17.6460083">
        <ele>37.1481</ele>
        <time>2014-05-29T12:12:16Z</time>
      </trkpt>
      <trkpt lat="59.8283291" lon="17.6459163">
        <ele>37.1481</ele>
        <time>2014-05-29T12:12:17Z</time>
      </trkpt>
      <trkpt lat="59.8283586" lon="17.6458259">
        <ele>37.1481</ele>
        <time>2014-05-29T12:12:18Z</time>
      </trkpt>
      <trkpt lat="59.8283949" lon="17.6457471">
        <ele>36.6675</ele>
        <time>2014-05-29T12:12:19Z</time>
      </trkpt>
      <trkpt lat="59.8284312" lon="17.6456935">
        <ele>36.6675</ele>
        <time>2014-05-29T12:12:20Z</time>
      </trkpt>
      <trkpt lat="59.8284702" lon="17.6456505">
        <ele>36.1868</ele>
        <time>2014-05-29T12:12:21Z</time>
      </trkpt>
      <trkpt lat="59.8285246" lon="17.6456212">
        <ele>35.7061</ele>
        <time>2014-05-29T12:12:22Z</time>
      </trkpt>
      <trkpt lat="59.8285889" lon="17.6456142">
        <ele>35.7061</ele>
        <time>2014-05-29T12:12:23Z</time>
      </trkpt>
      <trkpt lat="59.8286536" lon="17.6456309">
        <ele>35.2255</ele>
        <time>2014-05-29T12:12:24Z</time>
      </trkpt>
      <trkpt lat="59.8287159" lon="17.6456603">
        <ele>34.2642</ele>
        <time>2014-05-29T12:12:25Z</time>
      </trkpt>
      <trkpt lat="59.828779" lon="17.645697">
        <ele>33.7834</ele>
        <time>2014-05-29T12:12:26Z</time>
      </trkpt>
      <trkpt lat="59.8288468" lon="17.6457523">
        <ele>33.7834</ele>
        <time>2014-05-29T12:12:27Z</time>
      </trkpt>
      <trkpt lat="59.8289249" lon="17.6457733">
        <ele>33.3029</ele>
        <time>2014-05-29T12:12:28Z</time>
      </trkpt>
      <trkpt lat="59.8289976" lon="17.645797">
        <ele>33.7834</ele>
        <time>2014-05-29T12:12:29Z</time>
      </trkpt>
      <trkpt lat="59.8290628" lon="17.645838">
        <ele>33.3029</ele>
        <time>2014-05-29T12:12:30Z</time>
      </trkpt>
      <trkpt lat="59.829128" lon="17.6458758">
        <ele>32.8223</ele>
        <time>2014-05-29T12:12:31Z</time>
      </trkpt>
      <trkpt lat="59.829197" lon="17.6459047">
        <ele>32.8223</ele>
        <time>2014-05-29T12:12:32Z</time>
      </trkpt>
      <trkpt lat="59.8292691" lon="17.6459068">
        <ele>33.3029</ele>
        <time>2014-05-29T12:12:33Z</time>
      </trkpt>
      <trkpt lat="59.8293357" lon="17.645894">
        <ele>34.2642</ele>
        <time>2014-05-29T12:12:34Z</time>
      </trkpt>
      <trkpt lat="59.8293939" lon="17.6458737">
        <ele>34.2642</ele>
        <time>2014-05-29T12:12:35Z</time>
      </trkpt>
      <trkpt lat="59.8294455" lon="17.6458544">
        <ele>34.7449</ele>
        <time>2014-05-29T12:12:36Z</time>
      </trkpt>
      <trkpt lat="59.8294913" lon="17.6458302">
        <ele>35.2255</ele>
        <time>2014-05-29T12:12:37Z</time>
      </trkpt>
      <trkpt lat="59.8295368" lon="17.6457965">
        <ele>35.2255</ele>
        <time>2014-05-29T12:12:38Z</time>
      </trkpt>
      <trkpt lat="59.8295788" lon="17.6457582">
        <ele>35.2255</ele>
        <time>2014-05-29T12:12:39Z</time>
      </trkpt>
      <trkpt lat="59.829621" lon="17.6457155">
        <ele>35.7061</ele>
        <time>2014-05-29T12:12:40Z</time>
      </trkpt>
      <trkpt lat="59.8296626" lon="17.6456759">
        <ele>35.2255</ele>
        <time>2014-05-29T12:12:41Z</time>
      </trkpt>
      <trkpt lat="59.8297052" lon="17.6456425">
        <ele>35.2255</ele>
        <time>2014-05-29T12:12:42Z</time>
      </trkpt>
      <trkpt lat="59.8297451" lon="17.6456105">
        <ele>35.7061</ele>
        <time>2014-05-29T12:12:43Z</time>
      </trkpt>
      <trkpt lat="59.829788" lon="17.645577">
        <ele>35.7061</ele>
        <time>2014-05-29T12:12:44Z</time>
      </trkpt>
      <trkpt lat="59.8298291" lon="17.6455431">
        <ele>35.7061</ele>
        <time>2014-05-29T12:12:45Z</time>
      </trkpt>
      <trkpt lat="59.8298664" lon="17.6455132">
        <ele>35.7061</ele>
        <time>2014-05-29T12:12:46Z</time>
      </trkpt>
      <trkpt lat="59.8299021" lon="17.6454826">
        <ele>35.7061</ele>
        <time>2014-05-29T12:12:47Z</time>
      </trkpt>
      <trkpt lat="59.829937" lon="17.6454475">
        <ele>35.7061</ele>
        <time>2014-05-29T12:12:48Z</time>
      </trkpt>
      <trkpt lat="59.829974" lon="17.6454173">
        <ele>36.1868</ele>
        <time>2014-05-29T12:12:49Z</time>
      </trkpt>
      <trkpt lat="59.8300124" lon="17.6453876">
        <ele>36.6675</ele>
        <time>2014-05-29T12:12:50Z</time>
      </trkpt>
      <trkpt lat="59.8300512" lon="17.6453587">
        <ele>37.1481</ele>
        <time>2014-05-29T12:12:51Z</time>
      </trkpt>
      <trkpt lat="59.830089" lon="17.6453278">
        <ele>36.6675</ele>
        <time>2014-05-29T12:12:52Z</time>
      </trkpt>
      <trkpt lat="59.8301264" lon="17.6452939">
        <ele>37.1481</ele>
        <time>2014-05-29T12:12:53Z</time>
      </trkpt>
      <trkpt lat="59.8301634" lon="17.6452588">
        <ele>37.1481</ele>
        <time>2014-05-29T12:12:54Z</time>
      </trkpt>
      <trkpt lat="59.8301995" lon="17.6452211">
        <ele>36.6675</ele>
        <time>2014-05-29T12:12:55Z</time>
      </trkpt>
      <trkpt lat="59.8302377" lon="17.6451837">
        <ele>37.1481</ele>
        <time>2014-05-29T12:12:56Z</time>
      </trkpt>
      <trkpt lat="59.8302802" lon="17.6451452">
        <ele>37.6287</ele>
        <time>2014-05-29T12:12:57Z</time>
      </trkpt>
      <trkpt lat="59.8303237" lon="17.6451055">
        <ele>37.6287</ele>
        <time>2014-05-29T12:12:58Z</time>
      </trkpt>
      <trkpt lat="59.8303706" lon="17.6450654">
        <ele>38.1094</ele>
        <time>2014-05-29T12:12:59Z</time>
      </trkpt>
      <trkpt lat="59.8304177" lon="17.6450211">
        <ele>38.1094</ele>
        <time>2014-05-29T12:13:00Z</time>
      </trkpt>
      <trkpt lat="59.830468" lon="17.6449775">
        <ele>38.5901</ele>
        <time>2014-05-29T12:13:01Z</time>
      </trkpt>
      <trkpt lat="59.8305175" lon="17.6449304">
        <ele>38.1094</ele>
        <time>2014-05-29T12:13:02Z</time>
      </trkpt>
      <trkpt lat="59.8305691" lon="17.6448842">
        <ele>38.1094</ele>
        <time>2014-05-29T12:13:03Z</time>
      </trkpt>
      <trkpt lat="59.8306218" lon="17.644835">
        <ele>38.1094</ele>
        <time>2014-05-29T12:13:04Z</time>
      </trkpt>
      <trkpt lat="59.8306743" lon="17.6447906">
        <ele>38.5901</ele>
        <time>2014-05-29T12:13:05Z</time>
      </trkpt>
      <trkpt lat="59.8307304" lon="17.6447531">
        <ele>38.5901</ele>
        <time>2014-05-29T12:13:06Z</time>
      </trkpt>
      <trkpt lat="59.8307852" lon="17.6447153">
        <ele>38.5901</ele>
        <time>2014-05-29T12:13:07Z</time>
      </trkpt>
      <trkpt lat="59.8308396" lon="17.6446652">
        <ele>38.5901</ele>
        <time>2014-05-29T12:13:08Z</time>
      </trkpt>
      <trkpt lat="59.8308955" lon="17.6446121">
        <ele>38.1094</ele>
        <time>2014-05-29T12:13:09Z</time>
      </trkpt>
      <trkpt lat="59.8309529" lon="17.6445621">
        <ele>37.6287</ele>
        <time>2014-05-29T12:13:10Z</time>
      </trkpt>
      <trkpt lat="59.8310111" lon="17.6445107">
        <ele>37.6287</ele>
        <time>2014-05-29T12:13:11Z</time>
      </trkpt>
      <trkpt lat="59.8310727" lon="17.6444552">
        <ele>37.1481</ele>
        <time>2014-05-29T12:13:12Z</time>
      </trkpt>
      <trkpt lat="59.8311354" lon="17.6444015">
        <ele>36.6675</ele>
        <time>2014-05-29T12:13:13Z</time>
      </trkpt>
      <trkpt lat="59.831199" lon="17.6443552">
        <ele>36.6675</ele>
        <time>2014-05-29T12:13:14Z</time>
      </trkpt>
      <trkpt lat="59.8312624" lon="17.6443098">
        <ele>36.6675</ele>
        <time>2014-05-29T12:13:15Z</time>
      </trkpt>
      <trkpt lat="59.8313276" lon="17.6442627">
        <ele>36.1868</ele>
        <time>2014-05-29T12:13:16Z</time>
      </trkpt>
      <trkpt lat="59.8313906" lon="17.6442093">
        <ele>36.1868</ele>
        <time>2014-05-29T12:13:17Z</time>
      </trkpt>
      <trkpt lat="59.8314554" lon="17.6441502">
        <ele>36.1868</ele>
        <time>2014-05-29T12:13:18Z</time>
      </trkpt>
      <trkpt lat="59.8315242" lon="17.6440892">
        <ele>36.6675</ele>
        <time>2014-05-29T12:13:19Z</time>
      </trkpt>
      <trkpt lat="59.8315874" lon="17.6440317">
        <ele>36.1868</ele>
        <time>2014-05-29T12:13:20Z</time>
      </trkpt>
      <trkpt lat="59.8316478" lon="17.6439734">
        <ele>36.1868</ele>
        <time>2014-05-29T12:13:21Z</time>
      </trkpt>
      <trkpt lat="59.8317077" lon="17.6439103">
        <ele>35.7061</ele>
        <time>2014-05-29T12:13:22Z</time>
      </trkpt>
      <trkpt lat="59.8317653" lon="17.6438494">
        <ele>35.2255</ele>
        <time>2014-05-29T12:13:23Z</time>
      </trkpt>
      <trkpt lat="59.8318247" lon="17.6438001">
        <ele>35.2255</ele>
        <time>2014-05-29T12:13:24Z</time>
      </trkpt>
      <trkpt lat="59.8318865" lon="17.643754">
        <ele>35.2255</ele>
        <time>2014-05-29T12:13:25Z</time>
      </trkpt>
      <trkpt lat="59.8319446" lon="17.6437038">
        <ele>35.2255</ele>
        <time>2014-05-29T12:13:26Z</time>
      </trkpt>
      <trkpt lat="59.8319972" lon="17.6436445">
        <ele>34.2642</ele>
        <time>2014-05-29T12:13:27Z</time>
      </trkpt>
      <trkpt lat="59.8320481" lon="17.6435866">
        <ele>34.2642</ele>
        <time>2014-05-29T12:13:28Z</time>
      </trkpt>
      <trkpt lat="59.832094" lon="17.6435467">
        <ele>34.2642</ele>
        <time>2014-05-29T12:13:29Z</time>
      </trkpt>
      <trkpt lat="59.8321248" lon="17.6435089">
        <ele>33.3029</ele>
        <time>2014-05-29T12:13:30Z</time>
      </trkpt>
      <trkpt lat="59.8321424" lon="17.6434613">
        <ele>32.3416</ele>
        <time>2014-05-29T12:13:31Z</time>
      </trkpt>
      <trkpt lat="59.8321501" lon="17.6434069">
        <ele>31.8607</ele>
        <time>2014-05-29T12:13:32Z</time>
      </trkpt>
      <trkpt lat="59.8321543" lon="17.6433461">
        <ele>31.3801</ele>
        <time>2014-05-29T12:13:33Z</time>
      </trkpt>
      <trkpt lat="59.8321662" lon="17.6432944">
        <ele>31.3801</ele>
        <time>2014-05-29T12:13:34Z</time>
      </trkpt>
      <trkpt lat="59.8321812" lon="17.6432457">
        <ele>31.3801</ele>
        <time>2014-05-29T12:13:35Z</time>
      </trkpt>
      <trkpt lat="59.8321966" lon="17.6431951">
        <ele>31.3801</ele>
        <time>2014-05-29T12:13:36Z</time>
      </trkpt>
      <trkpt lat="59.8322111" lon="17.6431408">
        <ele>31.3801</ele>
        <time>2014-05-29T12:13:37Z</time>
      </trkpt>
      <trkpt lat="59.8322266" lon="17.643084">
        <ele>31.3801</ele>
        <time>2014-05-29T12:13:38Z</time>
      </trkpt>
      <trkpt lat="59.8322518" lon="17.6430397">
        <ele>31.8607</ele>
        <time>2014-05-29T12:13:39Z</time>
      </trkpt>
      <trkpt lat="59.8322838" lon="17.6430142">
        <ele>31.8607</ele>
        <time>2014-05-29T12:13:40Z</time>
      </trkpt>
      <trkpt lat="59.8323164" lon="17.6429951">
        <ele>32.3416</ele>
        <time>2014-05-29T12:13:41Z</time>
      </trkpt>
      <trkpt lat="59.8323491" lon="17.6429779">
        <ele>32.3416</ele>
        <time>2014-05-29T12:13:42Z</time>
      </trkpt>
      <trkpt lat="59.8323828" lon="17.6429616">
        <ele>32.3416</ele>
        <time>2014-05-29T12:13:43Z</time>
      </trkpt>
      <trkpt lat="59.8324179" lon="17.6429459">
        <ele>32.3416</ele>
        <time>2014-05-29T12:13:44Z</time>
      </trkpt>
      <trkpt lat="59.8324543" lon="17.6429323">
        <ele>32.8223</ele>
        <time>2014-05-29T12:13:45Z</time>
      </trkpt>
      <trkpt lat="59.8324922" lon="17.6429216">
        <ele>32.8223</ele>
        <time>2014-05-29T12:13:46Z</time>
      </trkpt>
      <trkpt lat="59.8325315" lon="17.6429131">
        <ele>32.8223</ele>
        <time>2014-05-29T12:13:47Z</time>
      </trkpt>
      <trkpt lat="59.8325722" lon="17.6429069">
        <ele>33.3029</ele>
        <time>2014-05-29T12:13:48Z</time>
      </trkpt>
      <trkpt lat="59.8326137" lon="17.642905">
        <ele>33.3029</ele>
        <time>2014-05-29T12:13:49Z</time>
      </trkpt>
      <trkpt lat="59.8326571" lon="17.6429117">
        <ele>33.7834</ele>
        <time>2014-05-29T12:13:50Z</time>
      </trkpt>
      <trkpt lat="59.8326981" lon="17.6429224">
        <ele>33.7834</ele>
        <time>2014-05-29T12:13:51Z</time>
      </trkpt>
      <trkpt lat="59.8327362" lon="17.6429403">
        <ele>33.3029</ele>
        <time>2014-05-29T12:13:52Z</time>
      </trkpt>
      <trkpt lat="59.8327764" lon="17.6429628">
        <ele>33.7834</ele>
        <time>2014-05-29T12:13:53Z</time>
      </trkpt>
      <trkpt lat="59.8328174" lon="17.6429836">
        <ele>34.2642</ele>
        <time>2014-05-29T12:13:54Z</time>
      </trkpt>
      <trkpt lat="59.8328604" lon="17.6430121">
        <ele>34.7449</ele>
        <time>2014-05-29T12:13:55Z</time>
      </trkpt>
      <trkpt lat="59.8329044" lon="17.6430509">
        <ele>34.7449</ele>
        <time>2014-05-29T12:13:56Z</time>
      </trkpt>
      <trkpt lat="59.8329467" lon="17.6430802">
        <ele>35.7061</ele>
        <time>2014-05-29T12:13:57Z</time>
      </trkpt>
      <trkpt lat="59.8329861" lon="17.6431029">
        <ele>35.2255</ele>
        <time>2014-05-29T12:13:58Z</time>
      </trkpt>
      <trkpt lat="59.833024" lon="17.6431198">
        <ele>35.2255</ele>
        <time>2014-05-29T12:13:59Z</time>
      </trkpt>
      <trkpt lat="59.8330505" lon="17.6431222">
        <ele>35.7061</ele>
        <time>2014-05-29T12:14:00Z</time>
      </trkpt>
      <trkpt lat="59.8330668" lon="17.6431049">
        <ele>35.2255</ele>
        <time>2014-05-29T12:14:01Z</time>
      </trkpt>
      <trkpt lat="59.83308" lon="17.6430775">
        <ele>34.2642</ele>
        <time>2014-05-29T12:14:02Z</time>
      </trkpt>
      <trkpt lat="59.8330904" lon="17.6430452">
        <ele>33.7834</ele>
        <time>2014-05-29T12:14:03Z</time>
      </trkpt>
      <trkpt lat="59.8331017" lon="17.6430164">
        <ele>33.7834</ele>
        <time>2014-05-29T12:14:04Z</time>
      </trkpt>
      <trkpt lat="59.8331136" lon="17.6429898">
        <ele>33.3029</ele>
        <time>2014-05-29T12:14:05Z</time>
      </trkpt>
      <trkpt lat="59.833125" lon="17.6429616">
        <ele>33.3029</ele>
        <time>2014-05-29T12:14:06Z</time>
      </trkpt>
      <trkpt lat="59.8331357" lon="17.6429345">
        <ele>32.8223</ele>
        <time>2014-05-29T12:14:07Z</time>
      </trkpt>
      <trkpt lat="59.8331418" lon="17.642901">
        <ele>32.3416</ele>
        <time>2014-05-29T12:14:08Z</time>
      </trkpt>
      <trkpt lat="59.8331493" lon="17.6428564">
        <ele>31.8607</ele>
        <time>2014-05-29T12:14:09Z</time>
      </trkpt>
      <trkpt lat="59.8331534" lon="17.6427879">
        <ele>30.8995</ele>
        <time>2014-05-29T12:14:10Z</time>
      </trkpt>
      <trkpt lat="59.8331609" lon="17.6427023">
        <ele>30.8995</ele>
        <time>2014-05-29T12:14:11Z</time>
      </trkpt>
      <trkpt lat="59.8331675" lon="17.6426131">
        <ele>30.8995</ele>
        <time>2014-05-29T12:14:12Z</time>
      </trkpt>
      <trkpt lat="59.8331739" lon="17.6425267">
        <ele>30.4188</ele>
        <time>2014-05-29T12:14:13Z</time>
      </trkpt>
      <trkpt lat="59.8330705" lon="17.6422516">
        <ele>28.9769</ele>
        <time>2014-05-29T12:14:17Z</time>
      </trkpt>
      <trkpt lat="59.8330428" lon="17.6421143">
        <ele>30.8995</ele>
        <time>2014-05-29T12:14:18Z</time>
      </trkpt>
      <trkpt lat="59.8330009" lon="17.6420331">
        <ele>31.3801</ele>
        <time>2014-05-29T12:14:19Z</time>
      </trkpt>
      <trkpt lat="59.8329038" lon="17.6418638">
        <ele>29.9381</ele>
        <time>2014-05-29T12:14:20Z</time>
      </trkpt>
      <trkpt lat="59.8328858" lon="17.6418313">
        <ele>29.9381</ele>
        <time>2014-05-29T12:14:21Z</time>
      </trkpt>
      <trkpt lat="59.8328662" lon="17.6417835">
        <ele>29.9381</ele>
        <time>2014-05-29T12:14:22Z</time>
      </trkpt>
      <trkpt lat="59.8328381" lon="17.6417222">
        <ele>29.9381</ele>
        <time>2014-05-29T12:14:23Z</time>
      </trkpt>
      <trkpt lat="59.832806" lon="17.6416504">
        <ele>29.4575</ele>
        <time>2014-05-29T12:14:24Z</time>
      </trkpt>
      <trkpt lat="59.8327794" lon="17.6415865">
        <ele>29.9381</ele>
        <time>2014-05-29T12:14:25Z</time>
      </trkpt>
      <trkpt lat="59.832752" lon="17.641516">
        <ele>29.4575</ele>
        <time>2014-05-29T12:14:26Z</time>
      </trkpt>
      <trkpt lat="59.8327208" lon="17.6414246">
        <ele>28.9769</ele>
        <time>2014-05-29T12:14:27Z</time>
      </trkpt>
      <trkpt lat="59.8326872" lon="17.6413365">
        <ele>28.4962</ele>
        <time>2014-05-29T12:14:28Z</time>
      </trkpt>
      <trkpt lat="59.8326587" lon="17.6412608">
        <ele>28.9769</ele>
        <time>2014-05-29T12:14:29Z</time>
      </trkpt>
      <trkpt lat="59.8326282" lon="17.6411759">
        <ele>28.9769</ele>
        <time>2014-05-29T12:14:30Z</time>
      </trkpt>
      <trkpt lat="59.8326014" lon="17.6410944">
        <ele>28.9769</ele>
        <time>2014-05-29T12:14:31Z</time>
      </trkpt>
      <trkpt lat="59.8325725" lon="17.6410061">
        <ele>28.9769</ele>
        <time>2014-05-29T12:14:32Z</time>
      </trkpt>
      <trkpt lat="59.8325442" lon="17.6409187">
        <ele>28.9769</ele>
        <time>2014-05-29T12:14:33Z</time>
      </trkpt>
      <trkpt lat="59.8325124" lon="17.6408365">
        <ele>28.9769</ele>
        <time>2014-05-29T12:14:34Z</time>
      </trkpt>
      <trkpt lat="59.8324791" lon="17.6407582">
        <ele>28.4962</ele>
        <time>2014-05-29T12:14:35Z</time>
      </trkpt>
      <trkpt lat="59.8324489" lon="17.6406787">
        <ele>28.4962</ele>
        <time>2014-05-29T12:14:36Z</time>
      </trkpt>
      <trkpt lat="59.8324205" lon="17.6406003">
        <ele>28.0155</ele>
        <time>2014-05-29T12:14:37Z</time>
      </trkpt>
      <trkpt lat="59.8323936" lon="17.6405223">
        <ele>27.5349</ele>
        <time>2014-05-29T12:14:38Z</time>
      </trkpt>
      <trkpt lat="59.8323741" lon="17.6404397">
        <ele>27.5349</ele>
        <time>2014-05-29T12:14:39Z</time>
      </trkpt>
      <trkpt lat="59.8323749" lon="17.6403463">
        <ele>27.5349</ele>
        <time>2014-05-29T12:14:40Z</time>
      </trkpt>
      <trkpt lat="59.8323833" lon="17.6402564">
        <ele>27.5349</ele>
        <time>2014-05-29T12:14:41Z</time>
      </trkpt>
      <trkpt lat="59.8323939" lon="17.6401783">
        <ele>27.0543</ele>
        <time>2014-05-29T12:14:42Z</time>
      </trkpt>
      <trkpt lat="59.8324209" lon="17.6401146">
        <ele>27.0543</ele>
        <time>2014-05-29T12:14:43Z</time>
      </trkpt>
      <trkpt lat="59.8324709" lon="17.6400589">
        <ele>26.5736</ele>
        <time>2014-05-29T12:14:44Z</time>
      </trkpt>
      <trkpt lat="59.8325231" lon="17.6399902">
        <ele>28.4962</ele>
        <time>2014-05-29T12:14:45Z</time>
      </trkpt>
      <trkpt lat="59.8325654" lon="17.6399239">
        <ele>28.0155</ele>
        <time>2014-05-29T12:14:46Z</time>
      </trkpt>
      <trkpt lat="59.8326113" lon="17.6398866">
        <ele>28.4962</ele>
        <time>2014-05-29T12:14:47Z</time>
      </trkpt>
      <trkpt lat="59.8326885" lon="17.6398408">
        <ele>30.8995</ele>
        <time>2014-05-29T12:14:48Z</time>
      </trkpt>
      <trkpt lat="59.8327234" lon="17.6397359">
        <ele>30.8995</ele>
        <time>2014-05-29T12:14:49Z</time>
      </trkpt>
      <trkpt lat="59.8327511" lon="17.6396327">
        <ele>30.4188</ele>
        <time>2014-05-29T12:14:50Z</time>
      </trkpt>
      <trkpt lat="59.8327713" lon="17.6395555">
        <ele>30.4188</ele>
        <time>2014-05-29T12:14:51Z</time>
      </trkpt>
      <trkpt lat="59.8327809" lon="17.639485">
        <ele>30.4188</ele>
        <time>2014-05-29T12:14:52Z</time>
      </trkpt>
      <trkpt lat="59.8327964" lon="17.6394192">
        <ele>31.3801</ele>
        <time>2014-05-29T12:14:53Z</time>
      </trkpt>
      <trkpt lat="59.8327978" lon="17.6393686">
        <ele>31.3801</ele>
        <time>2014-05-29T12:14:54Z</time>
      </trkpt>
      <trkpt lat="59.8327905" lon="17.6393295">
        <ele>31.3801</ele>
        <time>2014-05-29T12:14:55Z</time>
      </trkpt>
      <trkpt lat="59.832775" lon="17.6392877">
        <ele>31.3801</ele>
        <time>2014-05-29T12:14:56Z</time>
      </trkpt>
      <trkpt lat="59.8327507" lon="17.63925">
        <ele>31.8607</ele>
        <time>2014-05-29T12:14:57Z</time>
      </trkpt>
      <trkpt lat="59.8327301" lon="17.6392058">
        <ele>31.8607</ele>
        <time>2014-05-29T12:14:58Z</time>
      </trkpt>
      <trkpt lat="59.8327039" lon="17.6391619">
        <ele>30.8995</ele>
        <time>2014-05-29T12:14:59Z</time>
      </trkpt>
      <trkpt lat="59.8326773" lon="17.6391261">
        <ele>30.4188</ele>
        <time>2014-05-29T12:15:00Z</time>
      </trkpt>
      <trkpt lat="59.8326448" lon="17.6390951">
        <ele>29.9381</ele>
        <time>2014-05-29T12:15:01Z</time>
      </trkpt>
      <trkpt lat="59.8326148" lon="17.6390759">
        <ele>29.9381</ele>
        <time>2014-05-29T12:15:02Z</time>
      </trkpt>
      <trkpt lat="59.8325835" lon="17.6390578">
        <ele>30.4188</ele>
        <time>2014-05-29T12:15:03Z</time>
      </trkpt>
      <trkpt lat="59.8325521" lon="17.6390515">
        <ele>29.9381</ele>
        <time>2014-05-29T12:15:04Z</time>
      </trkpt>
      <trkpt lat="59.8325162" lon="17.639039">
        <ele>29.4575</ele>
        <time>2014-05-29T12:15:05Z</time>
      </trkpt>
      <trkpt lat="59.8324777" lon="17.6390225">
        <ele>29.9381</ele>
        <time>2014-05-29T12:15:06Z</time>
      </trkpt>
      <trkpt lat="59.8324413" lon="17.6390128">
        <ele>29.9381</ele>
        <time>2014-05-29T12:15:07Z</time>
      </trkpt>
      <trkpt lat="59.8324057" lon="17.6389873">
        <ele>29.4575</ele>
        <time>2014-05-29T12:15:08Z</time>
      </trkpt>
      <trkpt lat="59.8323723" lon="17.638943">
        <ele>29.4575</ele>
        <time>2014-05-29T12:15:09Z</time>
      </trkpt>
      <trkpt lat="59.8323424" lon="17.6388894">
        <ele>28.9769</ele>
        <time>2014-05-29T12:15:10Z</time>
      </trkpt>
      <trkpt lat="59.8323159" lon="17.6388309">
        <ele>29.4575</ele>
        <time>2014-05-29T12:15:11Z</time>
      </trkpt>
      <trkpt lat="59.832288" lon="17.6387682">
        <ele>29.4575</ele>
        <time>2014-05-29T12:15:12Z</time>
      </trkpt>
      <trkpt lat="59.8322596" lon="17.6386992">
        <ele>29.4575</ele>
        <time>2014-05-29T12:15:13Z</time>
      </trkpt>
      <trkpt lat="59.8322342" lon="17.6386191">
        <ele>29.4575</ele>
        <time>2014-05-29T12:15:14Z</time>
      </trkpt>
      <trkpt lat="59.8322246" lon="17.6385207">
        <ele>30.4188</ele>
        <time>2014-05-29T12:15:15Z</time>
      </trkpt>
      <trkpt lat="59.8322279" lon="17.6384171">
        <ele>30.8995</ele>
        <time>2014-05-29T12:15:16Z</time>
      </trkpt>
      <trkpt lat="59.8322394" lon="17.6383128">
        <ele>31.3801</ele>
        <time>2014-05-29T12:15:17Z</time>
      </trkpt>
      <trkpt lat="59.832251" lon="17.6382066">
        <ele>31.8607</ele>
        <time>2014-05-29T12:15:18Z</time>
      </trkpt>
      <trkpt lat="59.8322596" lon="17.6380974">
        <ele>31.8607</ele>
        <time>2014-05-29T12:15:19Z</time>
      </trkpt>
      <trkpt lat="59.8322679" lon="17.637986">
        <ele>32.3416</ele>
        <time>2014-05-29T12:15:20Z</time>
      </trkpt>
      <trkpt lat="59.8322761" lon="17.6378734">
        <ele>32.8223</ele>
        <time>2014-05-29T12:15:21Z</time>
      </trkpt>
      <trkpt lat="59.8322842" lon="17.6377591">
        <ele>33.3029</ele>
        <time>2014-05-29T12:15:22Z</time>
      </trkpt>
      <trkpt lat="59.832294" lon="17.6376441">
        <ele>33.7834</ele>
        <time>2014-05-29T12:15:23Z</time>
      </trkpt>
      <trkpt lat="59.8323076" lon="17.6375321">
        <ele>33.7834</ele>
        <time>2014-05-29T12:15:24Z</time>
      </trkpt>
      <trkpt lat="59.8323212" lon="17.6374208">
        <ele>34.2642</ele>
        <time>2014-05-29T12:15:25Z</time>
      </trkpt>
      <trkpt lat="59.8323306" lon="17.6373059">
        <ele>34.7449</ele>
        <time>2014-05-29T12:15:26Z</time>
      </trkpt>
      <trkpt lat="59.8323383" lon="17.6371892">
        <ele>35.2255</ele>
        <time>2014-05-29T12:15:27Z</time>
      </trkpt>
      <trkpt lat="59.8323461" lon="17.6370717">
        <ele>35.2255</ele>
        <time>2014-05-29T12:15:28Z</time>
      </trkpt>
      <trkpt lat="59.8323569" lon="17.6369557">
        <ele>35.7061</ele>
        <time>2014-05-29T12:15:29Z</time>
      </trkpt>
      <trkpt lat="59.8323684" lon="17.6368395">
        <ele>35.7061</ele>
        <time>2014-05-29T12:15:30Z</time>
      </trkpt>
      <trkpt lat="59.8323802" lon="17.6367227">
        <ele>35.7061</ele>
        <time>2014-05-29T12:15:31Z</time>
      </trkpt>
      <trkpt lat="59.832392" lon="17.6366064">
        <ele>36.1868</ele>
        <time>2014-05-29T12:15:32Z</time>
      </trkpt>
      <trkpt lat="59.8324026" lon="17.6364909">
        <ele>36.1868</ele>
        <time>2014-05-29T12:15:33Z</time>
      </trkpt>
      <trkpt lat="59.8324124" lon="17.636376">
        <ele>36.1868</ele>
        <time>2014-05-29T12:15:34Z</time>
      </trkpt>
      <trkpt lat="59.8324215" lon="17.6362608">
        <ele>36.1868</ele>
        <time>2014-05-29T12:15:35Z</time>
      </trkpt>
      <trkpt lat="59.8324299" lon="17.6361464">
        <ele>36.1868</ele>
        <time>2014-05-29T12:15:36Z</time>
      </trkpt>
      <trkpt lat="59.8324377" lon="17.6360362">
        <ele>36.6675</ele>
        <time>2014-05-29T12:15:37Z</time>
      </trkpt>
      <trkpt lat="59.8324442" lon="17.635931">
        <ele>36.6675</ele>
        <time>2014-05-29T12:15:38Z</time>
      </trkpt>
      <trkpt lat="59.8324485" lon="17.635829">
        <ele>36.6675</ele>
        <time>2014-05-29T12:15:39Z</time>
      </trkpt>
      <trkpt lat="59.8324522" lon="17.6357284">
        <ele>36.6675</ele>
        <time>2014-05-29T12:15:40Z</time>
      </trkpt>
      <trkpt lat="59.8324552" lon="17.6356259">
        <ele>36.1868</ele>
        <time>2014-05-29T12:15:41Z</time>
      </trkpt>
      <trkpt lat="59.8324572" lon="17.6355181">
        <ele>36.6675</ele>
        <time>2014-05-29T12:15:42Z</time>
      </trkpt>
      <trkpt lat="59.8324625" lon="17.6354083">
        <ele>36.6675</ele>
        <time>2014-05-29T12:15:43Z</time>
      </trkpt>
      <trkpt lat="59.832473" lon="17.635299">
        <ele>36.6675</ele>
        <time>2014-05-29T12:15:44Z</time>
      </trkpt>
      <trkpt lat="59.8324807" lon="17.6351792">
        <ele>36.1868</ele>
        <time>2014-05-29T12:15:45Z</time>
      </trkpt>
      <trkpt lat="59.8324932" lon="17.6350587">
        <ele>35.7061</ele>
        <time>2014-05-29T12:15:46Z</time>
      </trkpt>
      <trkpt lat="59.832503" lon="17.634936">
        <ele>34.7449</ele>
        <time>2014-05-29T12:15:47Z</time>
      </trkpt>
      <trkpt lat="59.83252" lon="17.6348199">
        <ele>34.7449</ele>
        <time>2014-05-29T12:15:48Z</time>
      </trkpt>
      <trkpt lat="59.8325354" lon="17.634699">
        <ele>34.7449</ele>
        <time>2014-05-29T12:15:49Z</time>
      </trkpt>
      <trkpt lat="59.8325489" lon="17.6345726">
        <ele>34.2642</ele>
        <time>2014-05-29T12:15:50Z</time>
      </trkpt>
      <trkpt lat="59.8325634" lon="17.6344444">
        <ele>33.7834</ele>
        <time>2014-05-29T12:15:51Z</time>
      </trkpt>
      <trkpt lat="59.8325771" lon="17.6343148">
        <ele>33.7834</ele>
        <time>2014-05-29T12:15:52Z</time>
      </trkpt>
      <trkpt lat="59.8325916" lon="17.6341843">
        <ele>33.7834</ele>
        <time>2014-05-29T12:15:53Z</time>
      </trkpt>
      <trkpt lat="59.8326071" lon="17.6340551">
        <ele>33.7834</ele>
        <time>2014-05-29T12:15:54Z</time>
      </trkpt>
      <trkpt lat="59.832624" lon="17.6339284">
        <ele>33.3029</ele>
        <time>2014-05-29T12:15:55Z</time>
      </trkpt>
      <trkpt lat="59.8326542" lon="17.6337875">
        <ele>33.3029</ele>
        <time>2014-05-29T12:15:56Z</time>
      </trkpt>
      <trkpt lat="59.8326794" lon="17.6336622">
        <ele>33.3029</ele>
        <time>2014-05-29T12:15:57Z</time>
      </trkpt>
      <trkpt lat="59.8327006" lon="17.6335466">
        <ele>33.3029</ele>
        <time>2014-05-29T12:15:58Z</time>
      </trkpt>
      <trkpt lat="59.8327092" lon="17.6334388">
        <ele>33.3029</ele>
        <time>2014-05-29T12:15:59Z</time>
      </trkpt>
      <trkpt lat="59.8327184" lon="17.6333349">
        <ele>33.3029</ele>
        <time>2014-05-29T12:16:00Z</time>
      </trkpt>
      <trkpt lat="59.8327297" lon="17.6332328">
        <ele>33.3029</ele>
        <time>2014-05-29T12:16:01Z</time>
      </trkpt>
      <trkpt lat="59.8327398" lon="17.633133">
        <ele>33.3029</ele>
        <time>2014-05-29T12:16:02Z</time>
      </trkpt>
      <trkpt lat="59.8327525" lon="17.6330342">
        <ele>33.3029</ele>
        <time>2014-05-29T12:16:03Z</time>
      </trkpt>
      <trkpt lat="59.8327661" lon="17.6329349">
        <ele>33.3029</ele>
        <time>2014-05-29T12:16:04Z</time>
      </trkpt>
      <trkpt lat="59.832775" lon="17.632838">
        <ele>33.3029</ele>
        <time>2014-05-29T12:16:05Z</time>
      </trkpt>
      <trkpt lat="59.8327833" lon="17.6327389">
        <ele>33.3029</ele>
        <time>2014-05-29T12:16:06Z</time>
      </trkpt>
      <trkpt lat="59.8327913" lon="17.6326386">
        <ele>33.3029</ele>
        <time>2014-05-29T12:16:07Z</time>
      </trkpt>
      <trkpt lat="59.8327993" lon="17.6325377">
        <ele>33.3029</ele>
        <time>2014-05-29T12:16:08Z</time>
      </trkpt>
      <trkpt lat="59.832808" lon="17.632437">
        <ele>33.3029</ele>
        <time>2014-05-29T12:16:09Z</time>
      </trkpt>
      <trkpt lat="59.8328179" lon="17.632337">
        <ele>33.3029</ele>
        <time>2014-05-29T12:16:10Z</time>
      </trkpt>
      <trkpt lat="59.832828" lon="17.6322387">
        <ele>33.7834</ele>
        <time>2014-05-29T12:16:11Z</time>
      </trkpt>
      <trkpt lat="59.8328371" lon="17.6321411">
        <ele>33.7834</ele>
        <time>2014-05-29T12:16:12Z</time>
      </trkpt>
      <trkpt lat="59.832846" lon="17.6320444">
        <ele>34.2642</ele>
        <time>2014-05-29T12:16:13Z</time>
      </trkpt>
      <trkpt lat="59.8328556" lon="17.6319489">
        <ele>34.2642</ele>
        <time>2014-05-29T12:16:14Z</time>
      </trkpt>
      <trkpt lat="59.8328657" lon="17.6318543">
        <ele>34.2642</ele>
        <time>2014-05-29T12:16:15Z</time>
      </trkpt>
      <trkpt lat="59.8328763" lon="17.6317606">
        <ele>34.7449</ele>
        <time>2014-05-29T12:16:16Z</time>
      </trkpt>
      <trkpt lat="59.8328863" lon="17.6316688">
        <ele>34.7449</ele>
        <time>2014-05-29T12:16:17Z</time>
      </trkpt>
      <trkpt lat="59.8328946" lon="17.631579">
        <ele>35.2255</ele>
        <time>2014-05-29T12:16:18Z</time>
      </trkpt>
      <trkpt lat="59.8329022" lon="17.6314912">
        <ele>35.2255</ele>
        <time>2014-05-29T12:16:19Z</time>
      </trkpt>
      <trkpt lat="59.8329111" lon="17.6314065">
        <ele>35.7061</ele>
        <time>2014-05-29T12:16:20Z</time>
      </trkpt>
      <trkpt lat="59.8329205" lon="17.6313236">
        <ele>35.7061</ele>
        <time>2014-05-29T12:16:21Z</time>
      </trkpt>
      <trkpt lat="59.8329299" lon="17.6312413">
        <ele>35.7061</ele>
        <time>2014-05-29T12:16:22Z</time>
      </trkpt>
      <trkpt lat="59.8329402" lon="17.6311618">
        <ele>36.1868</ele>
        <time>2014-05-29T12:16:23Z</time>
      </trkpt>
      <trkpt lat="59.8329508" lon="17.6310841">
        <ele>36.1868</ele>
        <time>2014-05-29T12:16:24Z</time>
      </trkpt>
      <trkpt lat="59.8329598" lon="17.6310047">
        <ele>36.6675</ele>
        <time>2014-05-29T12:16:25Z</time>
      </trkpt>
      <trkpt lat="59.832968" lon="17.6309237">
        <ele>36.6675</ele>
        <time>2014-05-29T12:16:26Z</time>
      </trkpt>
      <trkpt lat="59.8329764" lon="17.6308422">
        <ele>36.6675</ele>
        <time>2014-05-29T12:16:27Z</time>
      </trkpt>
      <trkpt lat="59.8329852" lon="17.6307598">
        <ele>37.1481</ele>
        <time>2014-05-29T12:16:28Z</time>
      </trkpt>
      <trkpt lat="59.8329952" lon="17.6306763">
        <ele>37.1481</ele>
        <time>2014-05-29T12:16:29Z</time>
      </trkpt>
      <trkpt lat="59.8330023" lon="17.6305914">
        <ele>37.1481</ele>
        <time>2014-05-29T12:16:30Z</time>
      </trkpt>
      <trkpt lat="59.833008" lon="17.630505">
        <ele>37.1481</ele>
        <time>2014-05-29T12:16:31Z</time>
      </trkpt>
      <trkpt lat="59.8330135" lon="17.6304173">
        <ele>37.6287</ele>
        <time>2014-05-29T12:16:32Z</time>
      </trkpt>
      <trkpt lat="59.8330262" lon="17.6303333">
        <ele>37.6287</ele>
        <time>2014-05-29T12:16:33Z</time>
      </trkpt>
      <trkpt lat="59.8330453" lon="17.6302545">
        <ele>37.6287</ele>
        <time>2014-05-29T12:16:34Z</time>
      </trkpt>
      <trkpt lat="59.8330619" lon="17.6301717">
        <ele>37.6287</ele>
        <time>2014-05-29T12:16:35Z</time>
      </trkpt>
      <trkpt lat="59.8330796" lon="17.6300833">
        <ele>37.6287</ele>
        <time>2014-05-29T12:16:36Z</time>
      </trkpt>
      <trkpt lat="59.8331027" lon="17.629994">
        <ele>38.1094</ele>
        <time>2014-05-29T12:16:37Z</time>
      </trkpt>
      <trkpt lat="59.8331199" lon="17.6299081">
        <ele>37.6287</ele>
        <time>2014-05-29T12:16:38Z</time>
      </trkpt>
      <trkpt lat="59.8331329" lon="17.6298378">
        <ele>38.1094</ele>
        <time>2014-05-29T12:16:39Z</time>
      </trkpt>
      <trkpt lat="59.8331404" lon="17.6297613">
        <ele>38.1094</ele>
        <time>2014-05-29T12:16:40Z</time>
      </trkpt>
      <trkpt lat="59.8331461" lon="17.6296755">
        <ele>37.6287</ele>
        <time>2014-05-29T12:16:41Z</time>
      </trkpt>
      <trkpt lat="59.8331478" lon="17.629585">
        <ele>37.6287</ele>
        <time>2014-05-29T12:16:42Z</time>
      </trkpt>
      <trkpt lat="59.8331464" lon="17.6294949">
        <ele>37.1481</ele>
        <time>2014-05-29T12:16:43Z</time>
      </trkpt>
      <trkpt lat="59.8331391" lon="17.629405">
        <ele>36.6675</ele>
        <time>2014-05-29T12:16:44Z</time>
      </trkpt>
      <trkpt lat="59.8331287" lon="17.6293078">
        <ele>35.7061</ele>
        <time>2014-05-29T12:16:45Z</time>
      </trkpt>
      <trkpt lat="59.8331163" lon="17.6292047">
        <ele>34.7449</ele>
        <time>2014-05-29T12:16:46Z</time>
      </trkpt>
      <trkpt lat="59.8331045" lon="17.6291086">
        <ele>33.7834</ele>
        <time>2014-05-29T12:16:47Z</time>
      </trkpt>
      <trkpt lat="59.8330912" lon="17.6290118">
        <ele>32.8223</ele>
        <time>2014-05-29T12:16:48Z</time>
      </trkpt>
      <trkpt lat="59.8330795" lon="17.6289225">
        <ele>32.8223</ele>
        <time>2014-05-29T12:16:49Z</time>
      </trkpt>
      <trkpt lat="59.833066" lon="17.6288358">
        <ele>31.8607</ele>
        <time>2014-05-29T12:16:50Z</time>
      </trkpt>
      <trkpt lat="59.8330525" lon="17.6287311">
        <ele>31.3801</ele>
        <time>2014-05-29T12:16:51Z</time>
      </trkpt>
      <trkpt lat="59.8330364" lon="17.6286264">
        <ele>29.9381</ele>
        <time>2014-05-29T12:16:52Z</time>
      </trkpt>
      <trkpt lat="59.8330204" lon="17.6285332">
        <ele>29.9381</ele>
        <time>2014-05-29T12:16:53Z</time>
      </trkpt>
      <trkpt lat="59.83299" lon="17.6284308">
        <ele>29.9381</ele>
        <time>2014-05-29T12:16:54Z</time>
      </trkpt>
      <trkpt lat="59.8329537" lon="17.6283229">
        <ele>28.4962</ele>
        <time>2014-05-29T12:16:55Z</time>
      </trkpt>
      <trkpt lat="59.8329213" lon="17.6282276">
        <ele>28.0155</ele>
        <time>2014-05-29T12:16:56Z</time>
      </trkpt>
      <trkpt lat="59.8328919" lon="17.6281351">
        <ele>27.5349</ele>
        <time>2014-05-29T12:16:57Z</time>
      </trkpt>
      <trkpt lat="59.8328687" lon="17.6280536">
        <ele>27.0543</ele>
        <time>2014-05-29T12:16:58Z</time>
      </trkpt>
      <trkpt lat="59.8328448" lon="17.627978">
        <ele>27.5349</ele>
        <time>2014-05-29T12:16:59Z</time>
      </trkpt>
      <trkpt lat="59.8328107" lon="17.6278977">
        <ele>28.0155</ele>
        <time>2014-05-29T12:17:00Z</time>
      </trkpt>
      <trkpt lat="59.8327683" lon="17.6278107">
        <ele>28.0155</ele>
        <time>2014-05-29T12:17:01Z</time>
      </trkpt>
      <trkpt lat="59.832731" lon="17.6277124">
        <ele>29.4575</ele>
        <time>2014-05-29T12:17:02Z</time>
      </trkpt>
      <trkpt lat="59.8326949" lon="17.6276189">
        <ele>30.8995</ele>
        <time>2014-05-29T12:17:03Z</time>
      </trkpt>
      <trkpt lat="59.8326604" lon="17.6275256">
        <ele>31.8607</ele>
        <time>2014-05-29T12:17:04Z</time>
      </trkpt>
      <trkpt lat="59.8326261" lon="17.6274372">
        <ele>31.8607</ele>
        <time>2014-05-29T12:17:05Z</time>
      </trkpt>
      <trkpt lat="59.8325926" lon="17.6273506">
        <ele>32.3416</ele>
        <time>2014-05-29T12:17:06Z</time>
      </trkpt>
      <trkpt lat="59.8325604" lon="17.6272636">
        <ele>32.3416</ele>
        <time>2014-05-29T12:17:07Z</time>
      </trkpt>
      <trkpt lat="59.8325272" lon="17.6271731">
        <ele>32.3416</ele>
        <time>2014-05-29T12:17:08Z</time>
      </trkpt>
      <trkpt lat="59.8324963" lon="17.6270844">
        <ele>32.8223</ele>
        <time>2014-05-29T12:17:09Z</time>
      </trkpt>
      <trkpt lat="59.8324621" lon="17.6269947">
        <ele>32.8223</ele>
        <time>2014-05-29T12:17:10Z</time>
      </trkpt>
      <trkpt lat="59.8324255" lon="17.6269015">
        <ele>32.8223</ele>
        <time>2014-05-29T12:17:11Z</time>
      </trkpt>
      <trkpt lat="59.8323903" lon="17.6268111">
        <ele>32.8223</ele>
        <time>2014-05-29T12:17:12Z</time>
      </trkpt>
      <trkpt lat="59.8323538" lon="17.6267182">
        <ele>32.3416</ele>
        <time>2014-05-29T12:17:13Z</time>
      </trkpt>
      <trkpt lat="59.8323231" lon="17.6266395">
        <ele>32.8223</ele>
        <time>2014-05-29T12:17:14Z</time>
      </trkpt>
      <trkpt lat="59.8322905" lon="17.6265609">
        <ele>33.7834</ele>
        <time>2014-05-29T12:17:15Z</time>
      </trkpt>
      <trkpt lat="59.8322481" lon="17.6264798">
        <ele>34.2642</ele>
        <time>2014-05-29T12:17:16Z</time>
      </trkpt>
      <trkpt lat="59.8322179" lon="17.6264116">
        <ele>34.2642</ele>
        <time>2014-05-29T12:17:17Z</time>
      </trkpt>
      <trkpt lat="59.8321857" lon="17.6263354">
        <ele>33.3029</ele>
        <time>2014-05-29T12:17:18Z</time>
      </trkpt>
      <trkpt lat="59.8321502" lon="17.6262534">
        <ele>33.3029</ele>
        <time>2014-05-29T12:17:19Z</time>
      </trkpt>
      <trkpt lat="59.8321161" lon="17.6261702">
        <ele>33.7834</ele>
        <time>2014-05-29T12:17:20Z</time>
      </trkpt>
      <trkpt lat="59.8320863" lon="17.6260966">
        <ele>34.2642</ele>
        <time>2014-05-29T12:17:21Z</time>
      </trkpt>
      <trkpt lat="59.8320543" lon="17.62602">
        <ele>34.2642</ele>
        <time>2014-05-29T12:17:22Z</time>
      </trkpt>
      <trkpt lat="59.8320226" lon="17.6259464">
        <ele>34.7449</ele>
        <time>2014-05-29T12:17:23Z</time>
      </trkpt>
      <trkpt lat="59.8319847" lon="17.6258615">
        <ele>34.7449</ele>
        <time>2014-05-29T12:17:24Z</time>
      </trkpt>
      <trkpt lat="59.8319433" lon="17.6257791">
        <ele>34.2642</ele>
        <time>2014-05-29T12:17:25Z</time>
      </trkpt>
      <trkpt lat="59.8319029" lon="17.625696">
        <ele>33.3029</ele>
        <time>2014-05-29T12:17:26Z</time>
      </trkpt>
      <trkpt lat="59.8318611" lon="17.6256103">
        <ele>31.8607</ele>
        <time>2014-05-29T12:17:27Z</time>
      </trkpt>
      <trkpt lat="59.8318366" lon="17.6255293">
        <ele>30.8995</ele>
        <time>2014-05-29T12:17:28Z</time>
      </trkpt>
      <trkpt lat="59.8318153" lon="17.6254408">
        <ele>30.4188</ele>
        <time>2014-05-29T12:17:29Z</time>
      </trkpt>
      <trkpt lat="59.8317889" lon="17.6253564">
        <ele>29.9381</ele>
        <time>2014-05-29T12:17:30Z</time>
      </trkpt>
      <trkpt lat="59.8317573" lon="17.6252899">
        <ele>28.9769</ele>
        <time>2014-05-29T12:17:31Z</time>
      </trkpt>
      <trkpt lat="59.83172" lon="17.6252326">
        <ele>28.9769</ele>
        <time>2014-05-29T12:17:32Z</time>
      </trkpt>
      <trkpt lat="59.8316856" lon="17.6251834">
        <ele>28.4962</ele>
        <time>2014-05-29T12:17:33Z</time>
      </trkpt>
      <trkpt lat="59.8316498" lon="17.6251279">
        <ele>28.4962</ele>
        <time>2014-05-29T12:17:34Z</time>
      </trkpt>
      <trkpt lat="59.8316115" lon="17.625068">
        <ele>28.0155</ele>
        <time>2014-05-29T12:17:35Z</time>
      </trkpt>
      <trkpt lat="59.8315781" lon="17.6250117">
        <ele>27.5349</ele>
        <time>2014-05-29T12:17:36Z</time>
      </trkpt>
      <trkpt lat="59.8315403" lon="17.6249524">
        <ele>26.5736</ele>
        <time>2014-05-29T12:17:37Z</time>
      </trkpt>
      <trkpt lat="59.8315014" lon="17.6248917">
        <ele>26.5736</ele>
        <time>2014-05-29T12:17:38Z</time>
      </trkpt>
      <trkpt lat="59.8314652" lon="17.6248335">
        <ele>25.6123</ele>
        <time>2014-05-29T12:17:39Z</time>
      </trkpt>
      <trkpt lat="59.8314326" lon="17.6247741">
        <ele>25.1317</ele>
        <time>2014-05-29T12:17:40Z</time>
      </trkpt>
      <trkpt lat="59.8313944" lon="17.6246945">
        <ele>24.651</ele>
        <time>2014-05-29T12:17:41Z</time>
      </trkpt>
      <trkpt lat="59.8313579" lon="17.6246031">
        <ele>24.651</ele>
        <time>2014-05-29T12:17:42Z</time>
      </trkpt>
      <trkpt lat="59.8313254" lon="17.6245049">
        <ele>24.651</ele>
        <time>2014-05-29T12:17:43Z</time>
      </trkpt>
      <trkpt lat="59.8312935" lon="17.6244061">
        <ele>24.651</ele>
        <time>2014-05-29T12:17:44Z</time>
      </trkpt>
      <trkpt lat="59.8312643" lon="17.6243008">
        <ele>25.1317</ele>
        <time>2014-05-29T12:17:45Z</time>
      </trkpt>
      <trkpt lat="59.8312327" lon="17.6241961">
        <ele>25.6123</ele>
        <time>2014-05-29T12:17:46Z</time>
      </trkpt>
      <trkpt lat="59.8312046" lon="17.6240933">
        <ele>26.0929</ele>
        <time>2014-05-29T12:17:47Z</time>
      </trkpt>
      <trkpt lat="59.8311784" lon="17.62399">
        <ele>26.5736</ele>
        <time>2014-05-29T12:17:48Z</time>
      </trkpt>
      <trkpt lat="59.8311509" lon="17.6238852">
        <ele>25.6123</ele>
        <time>2014-05-29T12:17:49Z</time>
      </trkpt>
      <trkpt lat="59.8311256" lon="17.6237822">
        <ele>25.1317</ele>
        <time>2014-05-29T12:17:50Z</time>
      </trkpt>
      <trkpt lat="59.8310994" lon="17.6236884">
        <ele>25.1317</ele>
        <time>2014-05-29T12:17:51Z</time>
      </trkpt>
      <trkpt lat="59.8310775" lon="17.6235861">
        <ele>28.0155</ele>
        <time>2014-05-29T12:17:52Z</time>
      </trkpt>
      <trkpt lat="59.8310521" lon="17.6234918">
        <ele>30.4188</ele>
        <time>2014-05-29T12:17:53Z</time>
      </trkpt>
      <trkpt lat="59.831022" lon="17.6234033">
        <ele>32.3416</ele>
        <time>2014-05-29T12:17:54Z</time>
      </trkpt>
      <trkpt lat="59.8309874" lon="17.6233169">
        <ele>33.3029</ele>
        <time>2014-05-29T12:17:55Z</time>
      </trkpt>
      <trkpt lat="59.8309478" lon="17.6232315">
        <ele>33.7834</ele>
        <time>2014-05-29T12:17:56Z</time>
      </trkpt>
      <trkpt lat="59.8309137" lon="17.6231565">
        <ele>34.7449</ele>
        <time>2014-05-29T12:17:57Z</time>
      </trkpt>
      <trkpt lat="59.8308779" lon="17.6230791">
        <ele>35.7061</ele>
        <time>2014-05-29T12:17:58Z</time>
      </trkpt>
      <trkpt lat="59.8308394" lon="17.6229978">
        <ele>36.6675</ele>
        <time>2014-05-29T12:17:59Z</time>
      </trkpt>
      <trkpt lat="59.8307992" lon="17.6229159">
        <ele>37.1481</ele>
        <time>2014-05-29T12:18:00Z</time>
      </trkpt>
      <trkpt lat="59.8307609" lon="17.6228279">
        <ele>38.1094</ele>
        <time>2014-05-29T12:18:01Z</time>
      </trkpt>
      <trkpt lat="59.8307272" lon="17.6227305">
        <ele>38.1094</ele>
        <time>2014-05-29T12:18:02Z</time>
      </trkpt>
      <trkpt lat="59.830694" lon="17.6226331">
        <ele>38.5901</ele>
        <time>2014-05-29T12:18:03Z</time>
      </trkpt>
      <trkpt lat="59.8306588" lon="17.6225393">
        <ele>38.5901</ele>
        <time>2014-05-29T12:18:04Z</time>
      </trkpt>
      <trkpt lat="59.830623" lon="17.6224436">
        <ele>38.5901</ele>
        <time>2014-05-29T12:18:05Z</time>
      </trkpt>
      <trkpt lat="59.8305876" lon="17.6223483">
        <ele>39.0707</ele>
        <time>2014-05-29T12:18:06Z</time>
      </trkpt>
      <trkpt lat="59.8305525" lon="17.6222571">
        <ele>39.0707</ele>
        <time>2014-05-29T12:18:07Z</time>
      </trkpt>
      <trkpt lat="59.8305182" lon="17.6221696">
        <ele>40.0321</ele>
        <time>2014-05-29T12:18:08Z</time>
      </trkpt>
      <trkpt lat="59.8304836" lon="17.6220836">
        <ele>40.0321</ele>
        <time>2014-05-29T12:18:09Z</time>
      </trkpt>
      <trkpt lat="59.8304486" lon="17.6219985">
        <ele>40.5128</ele>
        <time>2014-05-29T12:18:10Z</time>
      </trkpt>
      <trkpt lat="59.8304143" lon="17.6219147">
        <ele>40.5128</ele>
        <time>2014-05-29T12:18:11Z</time>
      </trkpt>
      <trkpt lat="59.8303807" lon="17.6218325">
        <ele>40.9934</ele>
        <time>2014-05-29T12:18:12Z</time>
      </trkpt>
      <trkpt lat="59.8303473" lon="17.6217401">
        <ele>40.9934</ele>
        <time>2014-05-29T12:18:13Z</time>
      </trkpt>
      <trkpt lat="59.8303143" lon="17.6216557">
        <ele>41.474</ele>
        <time>2014-05-29T12:18:14Z</time>
      </trkpt>
      <trkpt lat="59.8302817" lon="17.6215748">
        <ele>41.474</ele>
        <time>2014-05-29T12:18:15Z</time>
      </trkpt>
      <trkpt lat="59.8302573" lon="17.6214904">
        <ele>41.474</ele>
        <time>2014-05-29T12:18:16Z</time>
      </trkpt>
      <trkpt lat="59.8302573" lon="17.6213997">
        <ele>41.9547</ele>
        <time>2014-05-29T12:18:17Z</time>
      </trkpt>
      <trkpt lat="59.8302834" lon="17.6213313">
        <ele>41.9547</ele>
        <time>2014-05-29T12:18:18Z</time>
      </trkpt>
      <trkpt lat="59.8303267" lon="17.6212983">
        <ele>41.9547</ele>
        <time>2014-05-29T12:18:19Z</time>
      </trkpt>
      <trkpt lat="59.8303735" lon="17.6212724">
        <ele>41.9547</ele>
        <time>2014-05-29T12:18:20Z</time>
      </trkpt>
      <trkpt lat="59.8304143" lon="17.6212484">
        <ele>41.474</ele>
        <time>2014-05-29T12:18:21Z</time>
      </trkpt>
      <trkpt lat="59.8304556" lon="17.6212355">
        <ele>41.474</ele>
        <time>2014-05-29T12:18:22Z</time>
      </trkpt>
      <trkpt lat="59.8305019" lon="17.6212256">
        <ele>40.9934</ele>
        <time>2014-05-29T12:18:23Z</time>
      </trkpt>
      <trkpt lat="59.8305537" lon="17.621209">
        <ele>40.5128</ele>
        <time>2014-05-29T12:18:24Z</time>
      </trkpt>
      <trkpt lat="59.830606" lon="17.6211828">
        <ele>40.5128</ele>
        <time>2014-05-29T12:18:25Z</time>
      </trkpt>
      <trkpt lat="59.8306599" lon="17.6211587">
        <ele>40.5128</ele>
        <time>2014-05-29T12:18:26Z</time>
      </trkpt>
      <trkpt lat="59.8307164" lon="17.6211396">
        <ele>40.5128</ele>
        <time>2014-05-29T12:18:27Z</time>
      </trkpt>
      <trkpt lat="59.8307737" lon="17.6211204">
        <ele>40.0321</ele>
        <time>2014-05-29T12:18:28Z</time>
      </trkpt>
      <trkpt lat="59.8308308" lon="17.6210921">
        <ele>40.0321</ele>
        <time>2014-05-29T12:18:29Z</time>
      </trkpt>
      <trkpt lat="59.830885" lon="17.6210507">
        <ele>40.0321</ele>
        <time>2014-05-29T12:18:30Z</time>
      </trkpt>
      <trkpt lat="59.830936" lon="17.6209964">
        <ele>39.5513</ele>
        <time>2014-05-29T12:18:31Z</time>
      </trkpt>
      <trkpt lat="59.8309827" lon="17.6209295">
        <ele>40.0321</ele>
        <time>2014-05-29T12:18:32Z</time>
      </trkpt>
      <trkpt lat="59.8310248" lon="17.6208553">
        <ele>39.5513</ele>
        <time>2014-05-29T12:18:33Z</time>
      </trkpt>
      <trkpt lat="59.8310661" lon="17.6207829">
        <ele>39.5513</ele>
        <time>2014-05-29T12:18:34Z</time>
      </trkpt>
      <trkpt lat="59.8311069" lon="17.6207145">
        <ele>39.5513</ele>
        <time>2014-05-29T12:18:35Z</time>
      </trkpt>
      <trkpt lat="59.8311482" lon="17.6206487">
        <ele>39.5513</ele>
        <time>2014-05-29T12:18:36Z</time>
      </trkpt>
      <trkpt lat="59.8311934" lon="17.6205827">
        <ele>39.5513</ele>
        <time>2014-05-29T12:18:37Z</time>
      </trkpt>
      <trkpt lat="59.8312405" lon="17.620531">
        <ele>39.5513</ele>
        <time>2014-05-29T12:18:38Z</time>
      </trkpt>
      <trkpt lat="59.8312887" lon="17.6204829">
        <ele>39.5513</ele>
        <time>2014-05-29T12:18:39Z</time>
      </trkpt>
      <trkpt lat="59.8313369" lon="17.6204341">
        <ele>39.5513</ele>
        <time>2014-05-29T12:18:40Z</time>
      </trkpt>
      <trkpt lat="59.8313856" lon="17.6203844">
        <ele>39.0707</ele>
        <time>2014-05-29T12:18:41Z</time>
      </trkpt>
      <trkpt lat="59.8314349" lon="17.6203322">
        <ele>39.0707</ele>
        <time>2014-05-29T12:18:42Z</time>
      </trkpt>
      <trkpt lat="59.8314841" lon="17.6202776">
        <ele>39.0707</ele>
        <time>2014-05-29T12:18:43Z</time>
      </trkpt>
      <trkpt lat="59.8315333" lon="17.6202218">
        <ele>39.0707</ele>
        <time>2014-05-29T12:18:44Z</time>
      </trkpt>
      <trkpt lat="59.8315844" lon="17.62017">
        <ele>39.0707</ele>
        <time>2014-05-29T12:18:45Z</time>
      </trkpt>
      <trkpt lat="59.8316372" lon="17.6201255">
        <ele>39.0707</ele>
        <time>2014-05-29T12:18:46Z</time>
      </trkpt>
      <trkpt lat="59.8316898" lon="17.620082">
        <ele>39.0707</ele>
        <time>2014-05-29T12:18:47Z</time>
      </trkpt>
      <trkpt lat="59.831743" lon="17.6200359">
        <ele>39.0707</ele>
        <time>2014-05-29T12:18:48Z</time>
      </trkpt>
      <trkpt lat="59.8317959" lon="17.6199881">
        <ele>39.0707</ele>
        <time>2014-05-29T12:18:49Z</time>
      </trkpt>
      <trkpt lat="59.8318456" lon="17.6199313">
        <ele>38.5901</ele>
        <time>2014-05-29T12:18:50Z</time>
      </trkpt>
      <trkpt lat="59.8318938" lon="17.6198707">
        <ele>38.5901</ele>
        <time>2014-05-29T12:18:51Z</time>
      </trkpt>
      <trkpt lat="59.8319435" lon="17.6198096">
        <ele>39.0707</ele>
        <time>2014-05-29T12:18:52Z</time>
      </trkpt>
      <trkpt lat="59.8319937" lon="17.6197498">
        <ele>39.0707</ele>
        <time>2014-05-29T12:18:53Z</time>
      </trkpt>
      <trkpt lat="59.8320445" lon="17.6196925">
        <ele>39.0707</ele>
        <time>2014-05-29T12:18:54Z</time>
      </trkpt>
      <trkpt lat="59.8320958" lon="17.6196387">
        <ele>39.0707</ele>
        <time>2014-05-29T12:18:55Z</time>
      </trkpt>
      <trkpt lat="59.8321463" lon="17.6195876">
        <ele>39.0707</ele>
        <time>2014-05-29T12:18:56Z</time>
      </trkpt>
      <trkpt lat="59.8321948" lon="17.619534">
        <ele>39.5513</ele>
        <time>2014-05-29T12:18:57Z</time>
      </trkpt>
      <trkpt lat="59.8322406" lon="17.6194812">
        <ele>39.5513</ele>
        <time>2014-05-29T12:18:58Z</time>
      </trkpt>
      <trkpt lat="59.8322854" lon="17.6194292">
        <ele>39.5513</ele>
        <time>2014-05-29T12:18:59Z</time>
      </trkpt>
      <trkpt lat="59.8323267" lon="17.6193807">
        <ele>39.5513</ele>
        <time>2014-05-29T12:19:00Z</time>
      </trkpt>
      <trkpt lat="59.8323615" lon="17.6193381">
        <ele>39.5513</ele>
        <time>2014-05-29T12:19:01Z</time>
      </trkpt>
      <trkpt lat="59.8323947" lon="17.6192982">
        <ele>39.5513</ele>
        <time>2014-05-29T12:19:02Z</time>
      </trkpt>
      <trkpt lat="59.8324283" lon="17.6192589">
        <ele>39.5513</ele>
        <time>2014-05-29T12:19:03Z</time>
      </trkpt>
      <trkpt lat="59.8324628" lon="17.6192207">
        <ele>39.5513</ele>
        <time>2014-05-29T12:19:04Z</time>
      </trkpt>
      <trkpt lat="59.8324987" lon="17.6191838">
        <ele>39.5513</ele>
        <time>2014-05-29T12:19:05Z</time>
      </trkpt>
      <trkpt lat="59.8325355" lon="17.619147">
        <ele>39.0707</ele>
        <time>2014-05-29T12:19:06Z</time>
      </trkpt>
      <trkpt lat="59.8325712" lon="17.619108">
        <ele>39.0707</ele>
        <time>2014-05-29T12:19:07Z</time>
      </trkpt>
      <trkpt lat="59.8326049" lon="17.6190689">
        <ele>39.0707</ele>
        <time>2014-05-29T12:19:08Z</time>
      </trkpt>
      <trkpt lat="59.8326376" lon="17.6190429">
        <ele>39.0707</ele>
        <time>2014-05-29T12:19:09Z</time>
      </trkpt>
      <trkpt lat="59.8326688" lon="17.6190448">
        <ele>38.5901</ele>
        <time>2014-05-29T12:19:10Z</time>
      </trkpt>
      <trkpt lat="59.8326973" lon="17.619073">
        <ele>38.5901</ele>
        <time>2014-05-29T12:19:11Z</time>
      </trkpt>
      <trkpt lat="59.832719" lon="17.6191174">
        <ele>38.5901</ele>
        <time>2014-05-29T12:19:12Z</time>
      </trkpt>
      <trkpt lat="59.8327362" lon="17.6191698">
        <ele>39.0707</ele>
        <time>2014-05-29T12:19:13Z</time>
      </trkpt>
      <trkpt lat="59.8327517" lon="17.6192286">
        <ele>39.0707</ele>
        <time>2014-05-29T12:19:14Z</time>
      </trkpt>
      <trkpt lat="59.8327638" lon="17.6192944">
        <ele>39.0707</ele>
        <time>2014-05-29T12:19:15Z</time>
      </trkpt>
      <trkpt lat="59.832778" lon="17.6193553">
        <ele>39.5513</ele>
        <time>2014-05-29T12:19:16Z</time>
      </trkpt>
      <trkpt lat="59.832795" lon="17.6194086">
        <ele>39.5513</ele>
        <time>2014-05-29T12:19:17Z</time>
      </trkpt>
      <trkpt lat="59.8328078" lon="17.6194569">
        <ele>40.0321</ele>
        <time>2014-05-29T12:19:18Z</time>
      </trkpt>
      <trkpt lat="59.8328167" lon="17.6194931">
        <ele>40.0321</ele>
        <time>2014-05-29T12:19:19Z</time>
      </trkpt>
      <trkpt lat="59.8328231" lon="17.6195169">
        <ele>40.0321</ele>
        <time>2014-05-29T12:19:20Z</time>
      </trkpt>
      <trkpt lat="59.8328251" lon="17.6195307">
        <ele>40.0321</ele>
        <time>2014-05-29T12:19:21Z</time>
      </trkpt>
      <trkpt lat="59.8328215" lon="17.6195376">
        <ele>40.5128</ele>
        <time>2014-05-29T12:19:22Z</time>
      </trkpt>
      <trkpt lat="59.8328149" lon="17.6195375">
        <ele>40.5128</ele>
        <time>2014-05-29T12:19:23Z</time>
      </trkpt>
      <trkpt lat="59.8328096" lon="17.6195272">
        <ele>40.5128</ele>
        <time>2014-05-29T12:19:24Z</time>
      </trkpt>
      <trkpt lat="59.8328065" lon="17.6195128">
        <ele>40.0321</ele>
        <time>2014-05-29T12:19:25Z</time>
      </trkpt>
      <trkpt lat="59.8328034" lon="17.6194949">
        <ele>40.0321</ele>
        <time>2014-05-29T12:19:26Z</time>
      </trkpt>
      <trkpt lat="59.832799" lon="17.6194758">
        <ele>40.0321</ele>
        <time>2014-05-29T12:19:27Z</time>
      </trkpt>
      <trkpt lat="59.8327968" lon="17.6194558">
        <ele>40.0321</ele>
        <time>2014-05-29T12:19:28Z</time>
      </trkpt>
      <trkpt lat="59.8327935" lon="17.6194279">
        <ele>39.5513</ele>
        <time>2014-05-29T12:19:29Z</time>
      </trkpt>
      <trkpt lat="59.8327876" lon="17.6193884">
        <ele>39.5513</ele>
        <time>2014-05-29T12:19:30Z</time>
      </trkpt>
      <trkpt lat="59.8327784" lon="17.6193376">
        <ele>39.0707</ele>
        <time>2014-05-29T12:19:31Z</time>
      </trkpt>
      <trkpt lat="59.8327656" lon="17.6192844">
        <ele>39.0707</ele>
        <time>2014-05-29T12:19:32Z</time>
      </trkpt>
      <trkpt lat="59.832753" lon="17.6192302">
        <ele>38.5901</ele>
        <time>2014-05-29T12:19:33Z</time>
      </trkpt>
      <trkpt lat="59.8327386" lon="17.6191756">
        <ele>38.5901</ele>
        <time>2014-05-29T12:19:34Z</time>
      </trkpt>
      <trkpt lat="59.8327236" lon="17.619122">
        <ele>39.0707</ele>
        <time>2014-05-29T12:19:35Z</time>
      </trkpt>
      <trkpt lat="59.8327081" lon="17.6190714">
        <ele>39.5513</ele>
        <time>2014-05-29T12:19:36Z</time>
      </trkpt>
      <trkpt lat="59.8327013" lon="17.6190189">
        <ele>40.0321</ele>
        <time>2014-05-29T12:19:37Z</time>
      </trkpt>
      <trkpt lat="59.8327112" lon="17.6189729">
        <ele>40.5128</ele>
        <time>2014-05-29T12:19:38Z</time>
      </trkpt>
      <trkpt lat="59.8327323" lon="17.6189501">
        <ele>40.0321</ele>
        <time>2014-05-29T12:19:39Z</time>
      </trkpt>
      <trkpt lat="59.8327562" lon="17.6189408">
        <ele>40.0321</ele>
        <time>2014-05-29T12:19:40Z</time>
      </trkpt>
      <trkpt lat="59.8327823" lon="17.6189274">
        <ele>40.0321</ele>
        <time>2014-05-29T12:19:41Z</time>
      </trkpt>
      <trkpt lat="59.8328111" lon="17.6189082">
        <ele>39.5513</ele>
        <time>2014-05-29T12:19:42Z</time>
      </trkpt>
      <trkpt lat="59.8328365" lon="17.6188821">
        <ele>39.5513</ele>
        <time>2014-05-29T12:19:43Z</time>
      </trkpt>
      <trkpt lat="59.8328568" lon="17.6188528">
        <ele>39.0707</ele>
        <time>2014-05-29T12:19:44Z</time>
      </trkpt>
      <trkpt lat="59.8328747" lon="17.618828">
        <ele>39.0707</ele>
        <time>2014-05-29T12:19:45Z</time>
      </trkpt>
      <trkpt lat="59.832895" lon="17.618816">
        <ele>39.0707</ele>
        <time>2014-05-29T12:19:46Z</time>
      </trkpt>
      <trkpt lat="59.8329146" lon="17.6188087">
        <ele>39.0707</ele>
        <time>2014-05-29T12:19:47Z</time>
      </trkpt>
      <trkpt lat="59.8329337" lon="17.6187952">
        <ele>38.5901</ele>
        <time>2014-05-29T12:19:48Z</time>
      </trkpt>
      <trkpt lat="59.8329518" lon="17.6187761">
        <ele>38.5901</ele>
        <time>2014-05-29T12:19:49Z</time>
      </trkpt>
      <trkpt lat="59.832964" lon="17.6187467">
        <ele>38.1094</ele>
        <time>2014-05-29T12:19:50Z</time>
      </trkpt>
      <trkpt lat="59.8329769" lon="17.618717">
        <ele>38.1094</ele>
        <time>2014-05-29T12:19:51Z</time>
      </trkpt>
      <trkpt lat="59.8329969" lon="17.618691">
        <ele>37.6287</ele>
        <time>2014-05-29T12:19:52Z</time>
      </trkpt>
      <trkpt lat="59.833023" lon="17.6186682">
        <ele>37.6287</ele>
        <time>2014-05-29T12:19:53Z</time>
      </trkpt>
      <trkpt lat="59.8330531" lon="17.6186451">
        <ele>37.6287</ele>
        <time>2014-05-29T12:19:54Z</time>
      </trkpt>
      <trkpt lat="59.8330883" lon="17.6186216">
        <ele>38.1094</ele>
        <time>2014-05-29T12:19:55Z</time>
      </trkpt>
      <trkpt lat="59.8331256" lon="17.6185956">
        <ele>38.5901</ele>
        <time>2014-05-29T12:19:56Z</time>
      </trkpt>
      <trkpt lat="59.8331649" lon="17.6185678">
        <ele>39.0707</ele>
        <time>2014-05-29T12:19:57Z</time>
      </trkpt>
      <trkpt lat="59.8332038" lon="17.6185347">
        <ele>39.0707</ele>
        <time>2014-05-29T12:19:58Z</time>
      </trkpt>
      <trkpt lat="59.8332411" lon="17.6184996">
        <ele>39.0707</ele>
        <time>2014-05-29T12:19:59Z</time>
      </trkpt>
      <trkpt lat="59.8332785" lon="17.6184834">
        <ele>39.0707</ele>
        <time>2014-05-29T12:20:00Z</time>
      </trkpt>
      <trkpt lat="59.8333108" lon="17.6185036">
        <ele>39.5513</ele>
        <time>2014-05-29T12:20:01Z</time>
      </trkpt>
      <trkpt lat="59.8333375" lon="17.6185531">
        <ele>40.0321</ele>
        <time>2014-05-29T12:20:02Z</time>
      </trkpt>
      <trkpt lat="59.8333597" lon="17.6186189">
        <ele>40.0321</ele>
        <time>2014-05-29T12:20:03Z</time>
      </trkpt>
      <trkpt lat="59.8333768" lon="17.6186944">
        <ele>40.0321</ele>
        <time>2014-05-29T12:20:04Z</time>
      </trkpt>
      <trkpt lat="59.8333901" lon="17.6187771">
        <ele>40.0321</ele>
        <time>2014-05-29T12:20:05Z</time>
      </trkpt>
      <trkpt lat="59.8334038" lon="17.6188626">
        <ele>40.5128</ele>
        <time>2014-05-29T12:20:06Z</time>
      </trkpt>
      <trkpt lat="59.8334193" lon="17.6189506">
        <ele>40.5128</ele>
        <time>2014-05-29T12:20:07Z</time>
      </trkpt>
      <trkpt lat="59.8334379" lon="17.6190394">
        <ele>40.5128</ele>
        <time>2014-05-29T12:20:08Z</time>
      </trkpt>
      <trkpt lat="59.8334602" lon="17.6191276">
        <ele>40.9934</ele>
        <time>2014-05-29T12:20:09Z</time>
      </trkpt>
      <trkpt lat="59.8334846" lon="17.6192165">
        <ele>40.9934</ele>
        <time>2014-05-29T12:20:10Z</time>
      </trkpt>
      <trkpt lat="59.8335085" lon="17.6193115">
        <ele>40.9934</ele>
        <time>2014-05-29T12:20:11Z</time>
      </trkpt>
      <trkpt lat="59.8335323" lon="17.6194099">
        <ele>41.474</ele>
        <time>2014-05-29T12:20:12Z</time>
      </trkpt>
      <trkpt lat="59.8335551" lon="17.6195099">
        <ele>41.474</ele>
        <time>2014-05-29T12:20:13Z</time>
      </trkpt>
      <trkpt lat="59.8335789" lon="17.6196132">
        <ele>41.9547</ele>
        <time>2014-05-29T12:20:14Z</time>
      </trkpt>
      <trkpt lat="59.833602" lon="17.6197197">
        <ele>42.4354</ele>
        <time>2014-05-29T12:20:15Z</time>
      </trkpt>
      <trkpt lat="59.8336229" lon="17.619822">
        <ele>42.916</ele>
        <time>2014-05-29T12:20:16Z</time>
      </trkpt>
      <trkpt lat="59.833641" lon="17.6199218">
        <ele>42.916</ele>
        <time>2014-05-29T12:20:17Z</time>
      </trkpt>
      <trkpt lat="59.8336598" lon="17.6200194">
        <ele>43.3966</ele>
        <time>2014-05-29T12:20:18Z</time>
      </trkpt>
      <trkpt lat="59.8336814" lon="17.6201116">
        <ele>43.3966</ele>
        <time>2014-05-29T12:20:19Z</time>
      </trkpt>
      <trkpt lat="59.8337009" lon="17.6202025">
        <ele>43.3966</ele>
        <time>2014-05-29T12:20:20Z</time>
      </trkpt>
      <trkpt lat="59.8337182" lon="17.6202903">
        <ele>43.3966</ele>
        <time>2014-05-29T12:20:21Z</time>
      </trkpt>
      <trkpt lat="59.8337363" lon="17.6203712">
        <ele>43.8773</ele>
        <time>2014-05-29T12:20:22Z</time>
      </trkpt>
      <trkpt lat="59.833754" lon="17.6204477">
        <ele>43.8773</ele>
        <time>2014-05-29T12:20:23Z</time>
      </trkpt>
      <trkpt lat="59.8337656" lon="17.6205259">
        <ele>43.8773</ele>
        <time>2014-05-29T12:20:24Z</time>
      </trkpt>
      <trkpt lat="59.8337662" lon="17.6206087">
        <ele>43.8773</ele>
        <time>2014-05-29T12:20:25Z</time>
      </trkpt>
      <trkpt lat="59.8337554" lon="17.6206906">
        <ele>44.8386</ele>
        <time>2014-05-29T12:20:26Z</time>
      </trkpt>
      <trkpt lat="59.8337323" lon="17.6207448">
        <ele>44.358</ele>
        <time>2014-05-29T12:20:27Z</time>
      </trkpt>
      <trkpt lat="59.8337097" lon="17.6207966">
        <ele>44.8386</ele>
        <time>2014-05-29T12:20:28Z</time>
      </trkpt>
      <trkpt lat="59.8336944" lon="17.6208549">
        <ele>45.7999</ele>
        <time>2014-05-29T12:20:29Z</time>
      </trkpt>
      <trkpt lat="59.8336881" lon="17.6209092">
        <ele>45.7999</ele>
        <time>2014-05-29T12:20:30Z</time>
      </trkpt>
      <trkpt lat="59.8336726" lon="17.620962">
        <ele>46.2806</ele>
        <time>2014-05-29T12:20:31Z</time>
      </trkpt>
      <trkpt lat="59.8336465" lon="17.6210139">
        <ele>47.7225</ele>
        <time>2014-05-29T12:20:32Z</time>
      </trkpt>
      <trkpt lat="59.8336141" lon="17.6210673">
        <ele>49.1646</ele>
        <time>2014-05-29T12:20:33Z</time>
      </trkpt>
      <trkpt lat="59.8335773" lon="17.621108">
        <ele>50.6066</ele>
        <time>2014-05-29T12:20:34Z</time>
      </trkpt>
      <trkpt lat="59.8335398" lon="17.6211366">
        <ele>51.5679</ele>
        <time>2014-05-29T12:20:35Z</time>
      </trkpt>
      <trkpt lat="59.833499" lon="17.6211549">
        <ele>50.6066</ele>
        <time>2014-05-29T12:20:36Z</time>
      </trkpt>
      <trkpt lat="59.8334623" lon="17.6211743">
        <ele>50.6066</ele>
        <time>2014-05-29T12:20:37Z</time>
      </trkpt>
      <trkpt lat="59.8334234" lon="17.6211987">
        <ele>50.126</ele>
        <time>2014-05-29T12:20:38Z</time>
      </trkpt>
      <trkpt lat="59.8333873" lon="17.6212206">
        <ele>49.1646</ele>
        <time>2014-05-29T12:20:39Z</time>
      </trkpt>
      <trkpt lat="59.8333509" lon="17.621246">
        <ele>47.7225</ele>
        <time>2014-05-29T12:20:40Z</time>
      </trkpt>
      <trkpt lat="59.8333172" lon="17.6212746">
        <ele>47.2418</ele>
        <time>2014-05-29T12:20:41Z</time>
      </trkpt>
      <trkpt lat="59.8332819" lon="17.6213019">
        <ele>46.7612</ele>
        <time>2014-05-29T12:20:42Z</time>
      </trkpt>
      <trkpt lat="59.8332445" lon="17.6213356">
        <ele>46.2806</ele>
        <time>2014-05-29T12:20:43Z</time>
      </trkpt>
      <trkpt lat="59.8332085" lon="17.6213651">
        <ele>45.7999</ele>
        <time>2014-05-29T12:20:44Z</time>
      </trkpt>
      <trkpt lat="59.8331671" lon="17.6213913">
        <ele>45.3192</ele>
        <time>2014-05-29T12:20:45Z</time>
      </trkpt>
      <trkpt lat="59.833124" lon="17.6214219">
        <ele>44.358</ele>
        <time>2014-05-29T12:20:46Z</time>
      </trkpt>
      <trkpt lat="59.8330804" lon="17.6214666">
        <ele>44.358</ele>
        <time>2014-05-29T12:20:47Z</time>
      </trkpt>
      <trkpt lat="59.8330319" lon="17.6215226">
        <ele>45.3192</ele>
        <time>2014-05-29T12:20:48Z</time>
      </trkpt>
      <trkpt lat="59.8329798" lon="17.6215866">
        <ele>46.7612</ele>
        <time>2014-05-29T12:20:49Z</time>
      </trkpt>
      <trkpt lat="59.8329338" lon="17.6216415">
        <ele>47.2418</ele>
        <time>2014-05-29T12:20:50Z</time>
      </trkpt>
      <trkpt lat="59.8328826" lon="17.6216864">
        <ele>47.7225</ele>
        <time>2014-05-29T12:20:51Z</time>
      </trkpt>
      <trkpt lat="59.8328287" lon="17.6217149">
        <ele>46.7612</ele>
        <time>2014-05-29T12:20:52Z</time>
      </trkpt>
      <trkpt lat="59.8327801" lon="17.6217337">
        <ele>46.7612</ele>
        <time>2014-05-29T12:20:53Z</time>
      </trkpt>
      <trkpt lat="59.8327318" lon="17.6217526">
        <ele>46.2806</ele>
        <time>2014-05-29T12:20:54Z</time>
      </trkpt>
      <trkpt lat="59.8326838" lon="17.6217754">
        <ele>45.3192</ele>
        <time>2014-05-29T12:20:55Z</time>
      </trkpt>
      <trkpt lat="59.8326366" lon="17.6218116">
        <ele>43.8773</ele>
        <time>2014-05-29T12:20:56Z</time>
      </trkpt>
      <trkpt lat="59.8325996" lon="17.6218637">
        <ele>43.3966</ele>
        <time>2014-05-29T12:20:57Z</time>
      </trkpt>
      <trkpt lat="59.8325745" lon="17.6219458">
        <ele>44.358</ele>
        <time>2014-05-29T12:20:58Z</time>
      </trkpt>
      <trkpt lat="59.8325564" lon="17.6220172">
        <ele>44.8386</ele>
        <time>2014-05-29T12:20:59Z</time>
      </trkpt>
      <trkpt lat="59.832555" lon="17.6221017">
        <ele>45.7999</ele>
        <time>2014-05-29T12:21:00Z</time>
      </trkpt>
      <trkpt lat="59.8325639" lon="17.6221892">
        <ele>46.7612</ele>
        <time>2014-05-29T12:21:01Z</time>
      </trkpt>
      <trkpt lat="59.8325666" lon="17.6222938">
        <ele>48.684</ele>
        <time>2014-05-29T12:21:02Z</time>
      </trkpt>
      <trkpt lat="59.8325682" lon="17.6224124">
        <ele>50.6066</ele>
        <time>2014-05-29T12:21:03Z</time>
      </trkpt>
      <trkpt lat="59.8325779" lon="17.6225247">
        <ele>52.0486</ele>
        <time>2014-05-29T12:21:04Z</time>
      </trkpt>
      <trkpt lat="59.8325962" lon="17.6226278">
        <ele>53.0098</ele>
        <time>2014-05-29T12:21:05Z</time>
      </trkpt>
      <trkpt lat="59.8326327" lon="17.6227115">
        <ele>53.9712</ele>
        <time>2014-05-29T12:21:06Z</time>
      </trkpt>
      <trkpt lat="59.8326636" lon="17.6228078">
        <ele>55.4131</ele>
        <time>2014-05-29T12:21:07Z</time>
      </trkpt>
      <trkpt lat="59.832705" lon="17.622886">
        <ele>54.9324</ele>
        <time>2014-05-29T12:21:08Z</time>
      </trkpt>
      <trkpt lat="59.8327366" lon="17.6229643">
        <ele>56.8551</ele>
        <time>2014-05-29T12:21:09Z</time>
      </trkpt>
      <trkpt lat="59.8327644" lon="17.623047">
        <ele>57.8165</ele>
        <time>2014-05-29T12:21:10Z</time>
      </trkpt>
      <trkpt lat="59.83278" lon="17.623147">
        <ele>59.2584</ele>
        <time>2014-05-29T12:21:11Z</time>
      </trkpt>
      <trkpt lat="59.8327909" lon="17.6232546">
        <ele>60.2197</ele>
        <time>2014-05-29T12:21:12Z</time>
      </trkpt>
      <trkpt lat="59.832811" lon="17.6233471">
        <ele>60.2197</ele>
        <time>2014-05-29T12:21:13Z</time>
      </trkpt>
      <trkpt lat="59.8328416" lon="17.6234228">
        <ele>59.2584</ele>
        <time>2014-05-29T12:21:14Z</time>
      </trkpt>
      <trkpt lat="59.8328702" lon="17.6235054">
        <ele>58.2971</ele>
        <time>2014-05-29T12:21:15Z</time>
      </trkpt>
      <trkpt lat="59.8329017" lon="17.6235841">
        <ele>57.8165</ele>
        <time>2014-05-29T12:21:16Z</time>
      </trkpt>
      <trkpt lat="59.8329345" lon="17.6236676">
        <ele>57.8165</ele>
        <time>2014-05-29T12:21:17Z</time>
      </trkpt>
      <trkpt lat="59.8329711" lon="17.6237266">
        <ele>56.8551</ele>
        <time>2014-05-29T12:21:18Z</time>
      </trkpt>
      <trkpt lat="59.8330116" lon="17.62375">
        <ele>54.9324</ele>
        <time>2014-05-29T12:21:19Z</time>
      </trkpt>
      <trkpt lat="59.8330524" lon="17.6237299">
        <ele>51.5679</ele>
        <time>2014-05-29T12:21:20Z</time>
      </trkpt>
      <trkpt lat="59.8331053" lon="17.6236703">
        <ele>48.2034</ele>
        <time>2014-05-29T12:21:21Z</time>
      </trkpt>
      <trkpt lat="59.8331535" lon="17.6236173">
        <ele>45.3192</ele>
        <time>2014-05-29T12:21:22Z</time>
      </trkpt>
      <trkpt lat="59.8332054" lon="17.6235642">
        <ele>43.3966</ele>
        <time>2014-05-29T12:21:23Z</time>
      </trkpt>
      <trkpt lat="59.8332535" lon="17.6235036">
        <ele>41.474</ele>
        <time>2014-05-29T12:21:24Z</time>
      </trkpt>
      <trkpt lat="59.8333017" lon="17.6234345">
        <ele>40.0321</ele>
        <time>2014-05-29T12:21:25Z</time>
      </trkpt>
      <trkpt lat="59.8333381" lon="17.6233683">
        <ele>38.5901</ele>
        <time>2014-05-29T12:21:26Z</time>
      </trkpt>
      <trkpt lat="59.8333721" lon="17.6233092">
        <ele>37.6287</ele>
        <time>2014-05-29T12:21:27Z</time>
      </trkpt>
      <trkpt lat="59.8334111" lon="17.6232599">
        <ele>35.7061</ele>
        <time>2014-05-29T12:21:28Z</time>
      </trkpt>
      <trkpt lat="59.8334551" lon="17.6232062">
        <ele>34.7449</ele>
        <time>2014-05-29T12:21:29Z</time>
      </trkpt>
      <trkpt lat="59.8335069" lon="17.6231594">
        <ele>33.7834</ele>
        <time>2014-05-29T12:21:30Z</time>
      </trkpt>
      <trkpt lat="59.8335486" lon="17.6231196">
        <ele>33.3029</ele>
        <time>2014-05-29T12:21:31Z</time>
      </trkpt>
      <trkpt lat="59.8335865" lon="17.6230771">
        <ele>32.8223</ele>
        <time>2014-05-29T12:21:32Z</time>
      </trkpt>
      <trkpt lat="59.8336261" lon="17.6230419">
        <ele>32.3416</ele>
        <time>2014-05-29T12:21:33Z</time>
      </trkpt>
      <trkpt lat="59.8336691" lon="17.6230029">
        <ele>32.8223</ele>
        <time>2014-05-29T12:21:34Z</time>
      </trkpt>
      <trkpt lat="59.8337247" lon="17.6229539">
        <ele>32.3416</ele>
        <time>2014-05-29T12:21:35Z</time>
      </trkpt>
      <trkpt lat="59.8337791" lon="17.6229102">
        <ele>32.3416</ele>
        <time>2014-05-29T12:21:36Z</time>
      </trkpt>
      <trkpt lat="59.8338373" lon="17.6228654">
        <ele>32.3416</ele>
        <time>2014-05-29T12:21:37Z</time>
      </trkpt>
      <trkpt lat="59.8338947" lon="17.6228177">
        <ele>32.3416</ele>
        <time>2014-05-29T12:21:38Z</time>
      </trkpt>
      <trkpt lat="59.8339457" lon="17.6227646">
        <ele>32.3416</ele>
        <time>2014-05-29T12:21:39Z</time>
      </trkpt>
      <trkpt lat="59.8339934" lon="17.6227166">
        <ele>32.3416</ele>
        <time>2014-05-29T12:21:40Z</time>
      </trkpt>
      <trkpt lat="59.8340435" lon="17.6226718">
        <ele>33.3029</ele>
        <time>2014-05-29T12:21:41Z</time>
      </trkpt>
      <trkpt lat="59.8340959" lon="17.6226248">
        <ele>33.3029</ele>
        <time>2014-05-29T12:21:42Z</time>
      </trkpt>
      <trkpt lat="59.8341496" lon="17.6225798">
        <ele>33.7834</ele>
        <time>2014-05-29T12:21:43Z</time>
      </trkpt>
      <trkpt lat="59.8341896" lon="17.6225378">
        <ele>33.7834</ele>
        <time>2014-05-29T12:21:44Z</time>
      </trkpt>
      <trkpt lat="59.8342339" lon="17.622489">
        <ele>34.2642</ele>
        <time>2014-05-29T12:21:45Z</time>
      </trkpt>
      <trkpt lat="59.8342808" lon="17.6224322">
        <ele>34.7449</ele>
        <time>2014-05-29T12:21:46Z</time>
      </trkpt>
      <trkpt lat="59.8343283" lon="17.6223814">
        <ele>34.7449</ele>
        <time>2014-05-29T12:21:47Z</time>
      </trkpt>
      <trkpt lat="59.8343766" lon="17.6223369">
        <ele>34.7449</ele>
        <time>2014-05-29T12:21:48Z</time>
      </trkpt>
      <trkpt lat="59.8344284" lon="17.6222923">
        <ele>34.7449</ele>
        <time>2014-05-29T12:21:49Z</time>
      </trkpt>
      <trkpt lat="59.8344826" lon="17.6222348">
        <ele>35.7061</ele>
        <time>2014-05-29T12:21:50Z</time>
      </trkpt>
      <trkpt lat="59.8345333" lon="17.6221753">
        <ele>36.6675</ele>
        <time>2014-05-29T12:21:51Z</time>
      </trkpt>
      <trkpt lat="59.8345889" lon="17.6221151">
        <ele>36.1868</ele>
        <time>2014-05-29T12:21:52Z</time>
      </trkpt>
      <trkpt lat="59.8346444" lon="17.6220629">
        <ele>37.1481</ele>
        <time>2014-05-29T12:21:53Z</time>
      </trkpt>
      <trkpt lat="59.8347044" lon="17.6220098">
        <ele>38.1094</ele>
        <time>2014-05-29T12:21:54Z</time>
      </trkpt>
      <trkpt lat="59.8347611" lon="17.6219586">
        <ele>39.0707</ele>
        <time>2014-05-29T12:21:55Z</time>
      </trkpt>
      <trkpt lat="59.8348162" lon="17.6219043">
        <ele>39.5513</ele>
        <time>2014-05-29T12:21:56Z</time>
      </trkpt>
      <trkpt lat="59.8348729" lon="17.621843">
        <ele>40.0321</ele>
        <time>2014-05-29T12:21:57Z</time>
      </trkpt>
      <trkpt lat="59.8349283" lon="17.6217847">
        <ele>40.5128</ele>
        <time>2014-05-29T12:21:58Z</time>
      </trkpt>
      <trkpt lat="59.8349831" lon="17.6217332">
        <ele>41.474</ele>
        <time>2014-05-29T12:21:59Z</time>
      </trkpt>
      <trkpt lat="59.8350384" lon="17.6216801">
        <ele>42.4354</ele>
        <time>2014-05-29T12:22:00Z</time>
      </trkpt>
      <trkpt lat="59.835094" lon="17.6216308">
        <ele>42.916</ele>
        <time>2014-05-29T12:22:01Z</time>
      </trkpt>
      <trkpt lat="59.8351474" lon="17.6215816">
        <ele>42.916</ele>
        <time>2014-05-29T12:22:02Z</time>
      </trkpt>
      <trkpt lat="59.8351988" lon="17.6215372">
        <ele>43.8773</ele>
        <time>2014-05-29T12:22:03Z</time>
      </trkpt>
      <trkpt lat="59.8352494" lon="17.6214967">
        <ele>43.3966</ele>
        <time>2014-05-29T12:22:04Z</time>
      </trkpt>
      <trkpt lat="59.8353089" lon="17.6214615">
        <ele>43.8773</ele>
        <time>2014-05-29T12:22:05Z</time>
      </trkpt>
      <trkpt lat="59.8353758" lon="17.6214268">
        <ele>43.8773</ele>
        <time>2014-05-29T12:22:06Z</time>
      </trkpt>
      <trkpt lat="59.8354375" lon="17.6213857">
        <ele>43.8773</ele>
        <time>2014-05-29T12:22:07Z</time>
      </trkpt>
      <trkpt lat="59.8354923" lon="17.6213492">
        <ele>45.3192</ele>
        <time>2014-05-29T12:22:08Z</time>
      </trkpt>
      <trkpt lat="59.8355426" lon="17.6213183">
        <ele>47.2418</ele>
        <time>2014-05-29T12:22:09Z</time>
      </trkpt>
      <trkpt lat="59.8355841" lon="17.6212884">
        <ele>46.7612</ele>
        <time>2014-05-29T12:22:10Z</time>
      </trkpt>
      <trkpt lat="59.8356255" lon="17.621265">
        <ele>47.2418</ele>
        <time>2014-05-29T12:22:11Z</time>
      </trkpt>
      <trkpt lat="59.8356577" lon="17.6212412">
        <ele>46.2806</ele>
        <time>2014-05-29T12:22:12Z</time>
      </trkpt>
      <trkpt lat="59.8356985" lon="17.6212189">
        <ele>47.7225</ele>
        <time>2014-05-29T12:22:13Z</time>
      </trkpt>
      <trkpt lat="59.8357395" lon="17.6212033">
        <ele>49.1646</ele>
        <time>2014-05-29T12:22:14Z</time>
      </trkpt>
      <trkpt lat="59.8357903" lon="17.621181">
        <ele>49.6453</ele>
        <time>2014-05-29T12:22:15Z</time>
      </trkpt>
      <trkpt lat="59.8358399" lon="17.6211626">
        <ele>50.6066</ele>
        <time>2014-05-29T12:22:16Z</time>
      </trkpt>
      <trkpt lat="59.8358867" lon="17.6211461">
        <ele>50.126</ele>
        <time>2014-05-29T12:22:17Z</time>
      </trkpt>
      <trkpt lat="59.835945" lon="17.6211257">
        <ele>50.6066</ele>
        <time>2014-05-29T12:22:18Z</time>
      </trkpt>
      <trkpt lat="59.8359964" lon="17.621102">
        <ele>49.6453</ele>
        <time>2014-05-29T12:22:19Z</time>
      </trkpt>
      <trkpt lat="59.8360398" lon="17.6210876">
        <ele>50.6066</ele>
        <time>2014-05-29T12:22:20Z</time>
      </trkpt>
      <trkpt lat="59.8360859" lon="17.6210828">
        <ele>50.6066</ele>
        <time>2014-05-29T12:22:21Z</time>
      </trkpt>
      <trkpt lat="59.8361417" lon="17.6210786">
        <ele>51.0872</ele>
        <time>2014-05-29T12:22:22Z</time>
      </trkpt>
      <trkpt lat="59.836193" lon="17.6210719">
        <ele>51.0872</ele>
        <time>2014-05-29T12:22:23Z</time>
      </trkpt>
      <trkpt lat="59.8362399" lon="17.6210639">
        <ele>50.6066</ele>
        <time>2014-05-29T12:22:24Z</time>
      </trkpt>
      <trkpt lat="59.8362821" lon="17.6210538">
        <ele>50.126</ele>
        <time>2014-05-29T12:22:25Z</time>
      </trkpt>
      <trkpt lat="59.8363305" lon="17.6210363">
        <ele>50.6066</ele>
        <time>2014-05-29T12:22:26Z</time>
      </trkpt>
      <trkpt lat="59.8363741" lon="17.6210173">
        <ele>50.6066</ele>
        <time>2014-05-29T12:22:27Z</time>
      </trkpt>
      <trkpt lat="59.8364171" lon="17.6209916">
        <ele>50.126</ele>
        <time>2014-05-29T12:22:28Z</time>
      </trkpt>
      <trkpt lat="59.8364594" lon="17.6209674">
        <ele>49.1646</ele>
        <time>2014-05-29T12:22:29Z</time>
      </trkpt>
      <trkpt lat="59.8365044" lon="17.6209393">
        <ele>48.684</ele>
        <time>2014-05-29T12:22:30Z</time>
      </trkpt>
      <trkpt lat="59.8365501" lon="17.620917">
        <ele>47.7225</ele>
        <time>2014-05-29T12:22:31Z</time>
      </trkpt>
      <trkpt lat="59.8365916" lon="17.6208926">
        <ele>46.7612</ele>
        <time>2014-05-29T12:22:32Z</time>
      </trkpt>
      <trkpt lat="59.8366304" lon="17.6208703">
        <ele>46.7612</ele>
        <time>2014-05-29T12:22:33Z</time>
      </trkpt>
      <trkpt lat="59.8366713" lon="17.6208496">
        <ele>46.7612</ele>
        <time>2014-05-29T12:22:34Z</time>
      </trkpt>
      <trkpt lat="59.8367136" lon="17.6208221">
        <ele>47.2418</ele>
        <time>2014-05-29T12:22:35Z</time>
      </trkpt>
      <trkpt lat="59.8367557" lon="17.6207936">
        <ele>47.7225</ele>
        <time>2014-05-29T12:22:36Z</time>
      </trkpt>
      <trkpt lat="59.8368003" lon="17.6207594">
        <ele>46.7612</ele>
        <time>2014-05-29T12:22:37Z</time>
      </trkpt>
      <trkpt lat="59.8368488" lon="17.6207357">
        <ele>47.2418</ele>
        <time>2014-05-29T12:22:38Z</time>
      </trkpt>
      <trkpt lat="59.8368932" lon="17.6207083">
        <ele>47.2418</ele>
        <time>2014-05-29T12:22:39Z</time>
      </trkpt>
      <trkpt lat="59.8369432" lon="17.6206771">
        <ele>47.2418</ele>
        <time>2014-05-29T12:22:40Z</time>
      </trkpt>
      <trkpt lat="59.8369954" lon="17.6206392">
        <ele>47.7225</ele>
        <time>2014-05-29T12:22:41Z</time>
      </trkpt>
      <trkpt lat="59.8370488" lon="17.6205931">
        <ele>47.7225</ele>
        <time>2014-05-29T12:22:42Z</time>
      </trkpt>
      <trkpt lat="59.8371092" lon="17.620541">
        <ele>47.2418</ele>
        <time>2014-05-29T12:22:43Z</time>
      </trkpt>
      <trkpt lat="59.8371662" lon="17.6204768">
        <ele>47.2418</ele>
        <time>2014-05-29T12:22:44Z</time>
      </trkpt>
      <trkpt lat="59.8372206" lon="17.6204202">
        <ele>46.7612</ele>
        <time>2014-05-29T12:22:45Z</time>
      </trkpt>
      <trkpt lat="59.8372723" lon="17.6203957">
        <ele>47.2418</ele>
        <time>2014-05-29T12:22:46Z</time>
      </trkpt>
      <trkpt lat="59.8373268" lon="17.6203849">
        <ele>46.7612</ele>
        <time>2014-05-29T12:22:47Z</time>
      </trkpt>
      <trkpt lat="59.8373779" lon="17.6203831">
        <ele>46.7612</ele>
        <time>2014-05-29T12:22:48Z</time>
      </trkpt>
      <trkpt lat="59.8374199" lon="17.6203969">
        <ele>46.7612</ele>
        <time>2014-05-29T12:22:49Z</time>
      </trkpt>
      <trkpt lat="59.8374669" lon="17.6204109">
        <ele>47.2418</ele>
        <time>2014-05-29T12:22:50Z</time>
      </trkpt>
      <trkpt lat="59.8375181" lon="17.6204263">
        <ele>47.7225</ele>
        <time>2014-05-29T12:22:51Z</time>
      </trkpt>
      <trkpt lat="59.837566" lon="17.6204504">
        <ele>48.2034</ele>
        <time>2014-05-29T12:22:52Z</time>
      </trkpt>
      <trkpt lat="59.837611" lon="17.6204805">
        <ele>48.2034</ele>
        <time>2014-05-29T12:22:53Z</time>
      </trkpt>
      <trkpt lat="59.8376424" lon="17.6205181">
        <ele>49.6453</ele>
        <time>2014-05-29T12:22:54Z</time>
      </trkpt>
      <trkpt lat="59.8376735" lon="17.6205459">
        <ele>51.5679</ele>
        <time>2014-05-29T12:22:55Z</time>
      </trkpt>
      <trkpt lat="59.8376965" lon="17.6205518">
        <ele>51.5679</ele>
        <time>2014-05-29T12:22:56Z</time>
      </trkpt>
      <trkpt lat="59.8377131" lon="17.6205488">
        <ele>51.5679</ele>
        <time>2014-05-29T12:22:57Z</time>
      </trkpt>
      <trkpt lat="59.8377332" lon="17.6205385">
        <ele>52.0486</ele>
        <time>2014-05-29T12:22:58Z</time>
      </trkpt>
      <trkpt lat="59.8377559" lon="17.6205414">
        <ele>53.4905</ele>
        <time>2014-05-29T12:22:59Z</time>
      </trkpt>
      <trkpt lat="59.8377846" lon="17.6205378">
        <ele>53.9712</ele>
        <time>2014-05-29T12:23:00Z</time>
      </trkpt>
      <trkpt lat="59.8378118" lon="17.6205363">
        <ele>53.9712</ele>
        <time>2014-05-29T12:23:01Z</time>
      </trkpt>
      <trkpt lat="59.8378413" lon="17.6205309">
        <ele>52.0486</ele>
        <time>2014-05-29T12:23:02Z</time>
      </trkpt>
      <trkpt lat="59.8378751" lon="17.6205264">
        <ele>52.5292</ele>
        <time>2014-05-29T12:23:03Z</time>
      </trkpt>
      <trkpt lat="59.837914" lon="17.6205322">
        <ele>52.5292</ele>
        <time>2014-05-29T12:23:04Z</time>
      </trkpt>
      <trkpt lat="59.8379488" lon="17.6205447">
        <ele>53.4905</ele>
        <time>2014-05-29T12:23:05Z</time>
      </trkpt>
      <trkpt lat="59.8379869" lon="17.6205622">
        <ele>53.0098</ele>
        <time>2014-05-29T12:23:06Z</time>
      </trkpt>
      <trkpt lat="59.8380306" lon="17.6205889">
        <ele>53.4905</ele>
        <time>2014-05-29T12:23:07Z</time>
      </trkpt>
      <trkpt lat="59.8380767" lon="17.6206377">
        <ele>53.9712</ele>
        <time>2014-05-29T12:23:08Z</time>
      </trkpt>
      <trkpt lat="59.8381314" lon="17.6206808">
        <ele>54.4518</ele>
        <time>2014-05-29T12:23:09Z</time>
      </trkpt>
      <trkpt lat="59.8381824" lon="17.6207165">
        <ele>54.4518</ele>
        <time>2014-05-29T12:23:10Z</time>
      </trkpt>
      <trkpt lat="59.8382319" lon="17.6207418">
        <ele>56.3745</ele>
        <time>2014-05-29T12:23:11Z</time>
      </trkpt>
      <trkpt lat="59.8382824" lon="17.6207625">
        <ele>55.4131</ele>
        <time>2014-05-29T12:23:12Z</time>
      </trkpt>
      <trkpt lat="59.8383803" lon="17.6207778">
        <ele>56.3745</ele>
        <time>2014-05-29T12:23:13Z</time>
      </trkpt>
      <trkpt lat="59.838448" lon="17.6208004">
        <ele>56.3745</ele>
        <time>2014-05-29T12:23:14Z</time>
      </trkpt>
      <trkpt lat="59.8385015" lon="17.6208228">
        <ele>55.8938</ele>
        <time>2014-05-29T12:23:15Z</time>
      </trkpt>
      <trkpt lat="59.8385559" lon="17.6208533">
        <ele>55.4131</ele>
        <time>2014-05-29T12:23:16Z</time>
      </trkpt>
      <trkpt lat="59.8386207" lon="17.620888">
        <ele>53.9712</ele>
        <time>2014-05-29T12:23:17Z</time>
      </trkpt>
      <trkpt lat="59.8386754" lon="17.6209298">
        <ele>54.4518</ele>
        <time>2014-05-29T12:23:18Z</time>
      </trkpt>
      <trkpt lat="59.8387154" lon="17.6209785">
        <ele>53.9712</ele>
        <time>2014-05-29T12:23:19Z</time>
      </trkpt>
      <trkpt lat="59.8387486" lon="17.6210371">
        <ele>54.9324</ele>
        <time>2014-05-29T12:23:20Z</time>
      </trkpt>
      <trkpt lat="59.8387787" lon="17.6211015">
        <ele>54.9324</ele>
        <time>2014-05-29T12:23:21Z</time>
      </trkpt>
      <trkpt lat="59.8388117" lon="17.6211729">
        <ele>55.4131</ele>
        <time>2014-05-29T12:23:22Z</time>
      </trkpt>
      <trkpt lat="59.8388328" lon="17.6212692">
        <ele>55.4131</ele>
        <time>2014-05-29T12:23:23Z</time>
      </trkpt>
      <trkpt lat="59.8388568" lon="17.6213583">
        <ele>54.4518</ele>
        <time>2014-05-29T12:23:24Z</time>
      </trkpt>
      <trkpt lat="59.8388787" lon="17.6214516">
        <ele>53.0098</ele>
        <time>2014-05-29T12:23:25Z</time>
      </trkpt>
      <trkpt lat="59.8389019" lon="17.6215512">
        <ele>52.5292</ele>
        <time>2014-05-29T12:23:26Z</time>
      </trkpt>
      <trkpt lat="59.8389257" lon="17.6216521">
        <ele>52.0486</ele>
        <time>2014-05-29T12:23:27Z</time>
      </trkpt>
      <trkpt lat="59.8389512" lon="17.621734">
        <ele>52.0486</ele>
        <time>2014-05-29T12:23:28Z</time>
      </trkpt>
      <trkpt lat="59.838972" lon="17.6218107">
        <ele>52.5292</ele>
        <time>2014-05-29T12:23:29Z</time>
      </trkpt>
      <trkpt lat="59.8389832" lon="17.6218957">
        <ele>53.0098</ele>
        <time>2014-05-29T12:23:30Z</time>
      </trkpt>
      <trkpt lat="59.8389924" lon="17.6220002">
        <ele>53.9712</ele>
        <time>2014-05-29T12:23:31Z</time>
      </trkpt>
      <trkpt lat="59.838995" lon="17.6221274">
        <ele>55.8938</ele>
        <time>2014-05-29T12:23:32Z</time>
      </trkpt>
      <trkpt lat="59.8389957" lon="17.6222545">
        <ele>57.8165</ele>
        <time>2014-05-29T12:23:33Z</time>
      </trkpt>
      <trkpt lat="59.838995" lon="17.6223735">
        <ele>58.7777</ele>
        <time>2014-05-29T12:23:34Z</time>
      </trkpt>
      <trkpt lat="59.838995" lon="17.6224762">
        <ele>58.7777</ele>
        <time>2014-05-29T12:23:35Z</time>
      </trkpt>
      <trkpt lat="59.8389922" lon="17.6225765">
        <ele>58.2971</ele>
        <time>2014-05-29T12:23:36Z</time>
      </trkpt>
      <trkpt lat="59.8389877" lon="17.6226818">
        <ele>58.7777</ele>
        <time>2014-05-29T12:23:37Z</time>
      </trkpt>
      <trkpt lat="59.8389889" lon="17.6227792">
        <ele>59.7391</ele>
        <time>2014-05-29T12:23:38Z</time>
      </trkpt>
      <trkpt lat="59.8389989" lon="17.6228792">
        <ele>60.2197</ele>
        <time>2014-05-29T12:23:39Z</time>
      </trkpt>
      <trkpt lat="59.8390196" lon="17.6229685">
        <ele>60.7003</ele>
        <time>2014-05-29T12:23:40Z</time>
      </trkpt>
      <trkpt lat="59.839052" lon="17.6230402">
        <ele>59.7391</ele>
        <time>2014-05-29T12:23:41Z</time>
      </trkpt>
      <trkpt lat="59.8390766" lon="17.6231194">
        <ele>60.7003</ele>
        <time>2014-05-29T12:23:42Z</time>
      </trkpt>
      <trkpt lat="59.8391148" lon="17.6231854">
        <ele>59.7391</ele>
        <time>2014-05-29T12:23:43Z</time>
      </trkpt>
      <trkpt lat="59.8391522" lon="17.6232606">
        <ele>60.7003</ele>
        <time>2014-05-29T12:23:44Z</time>
      </trkpt>
      <trkpt lat="59.839193" lon="17.6233437">
        <ele>60.2197</ele>
        <time>2014-05-29T12:23:45Z</time>
      </trkpt>
      <trkpt lat="59.8392283" lon="17.6234439">
        <ele>60.7003</ele>
        <time>2014-05-29T12:23:46Z</time>
      </trkpt>
      <trkpt lat="59.8392666" lon="17.6235309">
        <ele>59.7391</ele>
        <time>2014-05-29T12:23:47Z</time>
      </trkpt>
      <trkpt lat="59.8393101" lon="17.6236023">
        <ele>58.7777</ele>
        <time>2014-05-29T12:23:48Z</time>
      </trkpt>
      <trkpt lat="59.839352" lon="17.6236651">
        <ele>58.7777</ele>
        <time>2014-05-29T12:23:49Z</time>
      </trkpt>
      <trkpt lat="59.8393951" lon="17.6237222">
        <ele>58.2971</ele>
        <time>2014-05-29T12:23:50Z</time>
      </trkpt>
      <trkpt lat="59.8394478" lon="17.6237517">
        <ele>56.8551</ele>
        <time>2014-05-29T12:23:51Z</time>
      </trkpt>
      <trkpt lat="59.839504" lon="17.6237703">
        <ele>54.9324</ele>
        <time>2014-05-29T12:23:52Z</time>
      </trkpt>
      <trkpt lat="59.8395561" lon="17.6238018">
        <ele>53.4905</ele>
        <time>2014-05-29T12:23:53Z</time>
      </trkpt>
      <trkpt lat="59.8396095" lon="17.6238318">
        <ele>52.5292</ele>
        <time>2014-05-29T12:23:54Z</time>
      </trkpt>
      <trkpt lat="59.8396622" lon="17.623854">
        <ele>52.0486</ele>
        <time>2014-05-29T12:23:55Z</time>
      </trkpt>
      <trkpt lat="59.8397127" lon="17.6238857">
        <ele>50.6066</ele>
        <time>2014-05-29T12:23:56Z</time>
      </trkpt>
      <trkpt lat="59.8397675" lon="17.6239327">
        <ele>50.6066</ele>
        <time>2014-05-29T12:23:57Z</time>
      </trkpt>
      <trkpt lat="59.8398245" lon="17.6239847">
        <ele>50.6066</ele>
        <time>2014-05-29T12:23:58Z</time>
      </trkpt>
      <trkpt lat="59.8398766" lon="17.6240374">
        <ele>50.126</ele>
        <time>2014-05-29T12:23:59Z</time>
      </trkpt>
      <trkpt lat="59.8399279" lon="17.6240958">
        <ele>49.6453</ele>
        <time>2014-05-29T12:24:00Z</time>
      </trkpt>
      <trkpt lat="59.8399767" lon="17.6241673">
        <ele>48.684</ele>
        <time>2014-05-29T12:24:01Z</time>
      </trkpt>
      <trkpt lat="59.8400234" lon="17.624242">
        <ele>48.2034</ele>
        <time>2014-05-29T12:24:02Z</time>
      </trkpt>
      <trkpt lat="59.8400753" lon="17.6243234">
        <ele>47.7225</ele>
        <time>2014-05-29T12:24:03Z</time>
      </trkpt>
      <trkpt lat="59.8401232" lon="17.6244156">
        <ele>46.7612</ele>
        <time>2014-05-29T12:24:04Z</time>
      </trkpt>
      <trkpt lat="59.8401626" lon="17.6245082">
        <ele>45.7999</ele>
        <time>2014-05-29T12:24:05Z</time>
      </trkpt>
      <trkpt lat="59.8402051" lon="17.6245876">
        <ele>44.8386</ele>
        <time>2014-05-29T12:24:06Z</time>
      </trkpt>
      <trkpt lat="59.8402429" lon="17.6246553">
        <ele>43.3966</ele>
        <time>2014-05-29T12:24:07Z</time>
      </trkpt>
      <trkpt lat="59.840281" lon="17.624726">
        <ele>42.916</ele>
        <time>2014-05-29T12:24:08Z</time>
      </trkpt>
      <trkpt lat="59.840314" lon="17.6248089">
        <ele>43.3966</ele>
        <time>2014-05-29T12:24:09Z</time>
      </trkpt>
      <trkpt lat="59.840347" lon="17.6248959">
        <ele>43.3966</ele>
        <time>2014-05-29T12:24:10Z</time>
      </trkpt>
      <trkpt lat="59.8403818" lon="17.6249715">
        <ele>43.3966</ele>
        <time>2014-05-29T12:24:11Z</time>
      </trkpt>
      <trkpt lat="59.8404197" lon="17.6250518">
        <ele>42.916</ele>
        <time>2014-05-29T12:24:12Z</time>
      </trkpt>
      <trkpt lat="59.8404585" lon="17.6251351">
        <ele>41.9547</ele>
        <time>2014-05-29T12:24:13Z</time>
      </trkpt>
      <trkpt lat="59.8404978" lon="17.6252107">
        <ele>40.9934</ele>
        <time>2014-05-29T12:24:14Z</time>
      </trkpt>
      <trkpt lat="59.8405422" lon="17.6252834">
        <ele>40.0321</ele>
        <time>2014-05-29T12:24:15Z</time>
      </trkpt>
      <trkpt lat="59.8405917" lon="17.6253585">
        <ele>39.5513</ele>
        <time>2014-05-29T12:24:16Z</time>
      </trkpt>
      <trkpt lat="59.840642" lon="17.6254271">
        <ele>38.5901</ele>
        <time>2014-05-29T12:24:17Z</time>
      </trkpt>
      <trkpt lat="59.8406945" lon="17.6254968">
        <ele>38.1094</ele>
        <time>2014-05-29T12:24:18Z</time>
      </trkpt>
      <trkpt lat="59.8407406" lon="17.6255639">
        <ele>37.6287</ele>
        <time>2014-05-29T12:24:19Z</time>
      </trkpt>
      <trkpt lat="59.8407823" lon="17.6256207">
        <ele>38.1094</ele>
        <time>2014-05-29T12:24:20Z</time>
      </trkpt>
      <trkpt lat="59.8408263" lon="17.6256651">
        <ele>38.1094</ele>
        <time>2014-05-29T12:24:21Z</time>
      </trkpt>
      <trkpt lat="59.8408651" lon="17.6256958">
        <ele>38.1094</ele>
        <time>2014-05-29T12:24:22Z</time>
      </trkpt>
      <trkpt lat="59.8408999" lon="17.6257117">
        <ele>38.5901</ele>
        <time>2014-05-29T12:24:23Z</time>
      </trkpt>
      <trkpt lat="59.8409424" lon="17.6257018">
        <ele>38.1094</ele>
        <time>2014-05-29T12:24:24Z</time>
      </trkpt>
      <trkpt lat="59.8409886" lon="17.6256765">
        <ele>38.1094</ele>
        <time>2014-05-29T12:24:25Z</time>
      </trkpt>
      <trkpt lat="59.8410366" lon="17.625646">
        <ele>38.1094</ele>
        <time>2014-05-29T12:24:26Z</time>
      </trkpt>
      <trkpt lat="59.8410856" lon="17.6256148">
        <ele>38.1094</ele>
        <time>2014-05-29T12:24:27Z</time>
      </trkpt>
      <trkpt lat="59.8411331" lon="17.6255849">
        <ele>38.1094</ele>
        <time>2014-05-29T12:24:28Z</time>
      </trkpt>
      <trkpt lat="59.8411843" lon="17.6255629">
        <ele>38.1094</ele>
        <time>2014-05-29T12:24:29Z</time>
      </trkpt>
      <trkpt lat="59.8412478" lon="17.6255509">
        <ele>38.1094</ele>
        <time>2014-05-29T12:24:30Z</time>
      </trkpt>
      <trkpt lat="59.8413113" lon="17.6255509">
        <ele>38.1094</ele>
        <time>2014-05-29T12:24:31Z</time>
      </trkpt>
      <trkpt lat="59.8413692" lon="17.6255603">
        <ele>38.1094</ele>
        <time>2014-05-29T12:24:32Z</time>
      </trkpt>
      <trkpt lat="59.8414236" lon="17.625563">
        <ele>38.1094</ele>
        <time>2014-05-29T12:24:33Z</time>
      </trkpt>
      <trkpt lat="59.8414758" lon="17.6255676">
        <ele>39.0707</ele>
        <time>2014-05-29T12:24:34Z</time>
      </trkpt>
      <trkpt lat="59.8415246" lon="17.6255787">
        <ele>39.0707</ele>
        <time>2014-05-29T12:24:35Z</time>
      </trkpt>
      <trkpt lat="59.8415811" lon="17.6255909">
        <ele>39.0707</ele>
        <time>2014-05-29T12:24:36Z</time>
      </trkpt>
      <trkpt lat="59.8416436" lon="17.6255884">
        <ele>39.0707</ele>
        <time>2014-05-29T12:24:37Z</time>
      </trkpt>
      <trkpt lat="59.8417064" lon="17.6255722">
        <ele>39.5513</ele>
        <time>2014-05-29T12:24:38Z</time>
      </trkpt>
      <trkpt lat="59.8417754" lon="17.6255497">
        <ele>40.0321</ele>
        <time>2014-05-29T12:24:39Z</time>
      </trkpt>
      <trkpt lat="59.8418437" lon="17.6255299">
        <ele>40.9934</ele>
        <time>2014-05-29T12:24:40Z</time>
      </trkpt>
      <trkpt lat="59.841908" lon="17.6255195">
        <ele>41.474</ele>
        <time>2014-05-29T12:24:41Z</time>
      </trkpt>
      <trkpt lat="59.8419764" lon="17.6255082">
        <ele>41.474</ele>
        <time>2014-05-29T12:24:42Z</time>
      </trkpt>
      <trkpt lat="59.8420443" lon="17.625496">
        <ele>41.9547</ele>
        <time>2014-05-29T12:24:43Z</time>
      </trkpt>
      <trkpt lat="59.8421161" lon="17.6254776">
        <ele>42.916</ele>
        <time>2014-05-29T12:24:44Z</time>
      </trkpt>
      <trkpt lat="59.8421789" lon="17.625462">
        <ele>42.916</ele>
        <time>2014-05-29T12:24:45Z</time>
      </trkpt>
      <trkpt lat="59.8422455" lon="17.6254531">
        <ele>43.3966</ele>
        <time>2014-05-29T12:24:46Z</time>
      </trkpt>
      <trkpt lat="59.8423182" lon="17.6254595">
        <ele>44.8386</ele>
        <time>2014-05-29T12:24:47Z</time>
      </trkpt>
      <trkpt lat="59.8423907" lon="17.6254875">
        <ele>46.7612</ele>
        <time>2014-05-29T12:24:48Z</time>
      </trkpt>
      <trkpt lat="59.8424787" lon="17.6255088">
        <ele>49.6453</ele>
        <time>2014-05-29T12:24:49Z</time>
      </trkpt>
      <trkpt lat="59.842559" lon="17.6255354">
        <ele>50.126</ele>
        <time>2014-05-29T12:24:50Z</time>
      </trkpt>
      <trkpt lat="59.8426255" lon="17.6255506">
        <ele>52.0486</ele>
        <time>2014-05-29T12:24:51Z</time>
      </trkpt>
      <trkpt lat="59.8426847" lon="17.6255525">
        <ele>51.0872</ele>
        <time>2014-05-29T12:24:52Z</time>
      </trkpt>
      <trkpt lat="59.8427493" lon="17.6255372">
        <ele>51.0872</ele>
        <time>2014-05-29T12:24:53Z</time>
      </trkpt>
      <trkpt lat="59.8428037" lon="17.6255269">
        <ele>52.5292</ele>
        <time>2014-05-29T12:24:54Z</time>
      </trkpt>
      <trkpt lat="59.842846" lon="17.6255293">
        <ele>53.0098</ele>
        <time>2014-05-29T12:24:55Z</time>
      </trkpt>
      <trkpt lat="59.8428973" lon="17.6255404">
        <ele>53.9712</ele>
        <time>2014-05-29T12:24:56Z</time>
      </trkpt>
      <trkpt lat="59.8429547" lon="17.6255708">
        <ele>53.9712</ele>
        <time>2014-05-29T12:24:57Z</time>
      </trkpt>
      <trkpt lat="59.8430106" lon="17.6255956">
        <ele>53.0098</ele>
        <time>2014-05-29T12:24:58Z</time>
      </trkpt>
      <trkpt lat="59.8430547" lon="17.6256357">
        <ele>51.0872</ele>
        <time>2014-05-29T12:24:59Z</time>
      </trkpt>
      <trkpt lat="59.8431142" lon="17.6256796">
        <ele>49.1646</ele>
        <time>2014-05-29T12:25:00Z</time>
      </trkpt>
      <trkpt lat="59.8431826" lon="17.6257158">
        <ele>48.2034</ele>
        <time>2014-05-29T12:25:01Z</time>
      </trkpt>
      <trkpt lat="59.8432457" lon="17.6257417">
        <ele>47.7225</ele>
        <time>2014-05-29T12:25:02Z</time>
      </trkpt>
      <trkpt lat="59.8433063" lon="17.6257651">
        <ele>45.7999</ele>
        <time>2014-05-29T12:25:03Z</time>
      </trkpt>
      <trkpt lat="59.8433699" lon="17.6257828">
        <ele>44.358</ele>
        <time>2014-05-29T12:25:04Z</time>
      </trkpt>
      <trkpt lat="59.8434364" lon="17.6257885">
        <ele>43.8773</ele>
        <time>2014-05-29T12:25:05Z</time>
      </trkpt>
      <trkpt lat="59.8435189" lon="17.6258105">
        <ele>43.3966</ele>
        <time>2014-05-29T12:25:06Z</time>
      </trkpt>
      <trkpt lat="59.8435971" lon="17.6258299">
        <ele>42.4354</ele>
        <time>2014-05-29T12:25:07Z</time>
      </trkpt>
      <trkpt lat="59.8436755" lon="17.6258517">
        <ele>40.9934</ele>
        <time>2014-05-29T12:25:08Z</time>
      </trkpt>
      <trkpt lat="59.8437457" lon="17.6258847">
        <ele>39.5513</ele>
        <time>2014-05-29T12:25:09Z</time>
      </trkpt>
      <trkpt lat="59.8438171" lon="17.6259313">
        <ele>38.5901</ele>
        <time>2014-05-29T12:25:10Z</time>
      </trkpt>
      <trkpt lat="59.8438816" lon="17.6259858">
        <ele>38.5901</ele>
        <time>2014-05-29T12:25:11Z</time>
      </trkpt>
      <trkpt lat="59.843937" lon="17.6260273">
        <ele>37.6287</ele>
        <time>2014-05-29T12:25:12Z</time>
      </trkpt>
      <trkpt lat="59.8439841" lon="17.6260584">
        <ele>37.1481</ele>
        <time>2014-05-29T12:25:13Z</time>
      </trkpt>
      <trkpt lat="59.8440321" lon="17.6260736">
        <ele>36.6675</ele>
        <time>2014-05-29T12:25:14Z</time>
      </trkpt>
      <trkpt lat="59.8440752" lon="17.6260717">
        <ele>36.6675</ele>
        <time>2014-05-29T12:25:15Z</time>
      </trkpt>
      <trkpt lat="59.8441137" lon="17.6260624">
        <ele>36.1868</ele>
        <time>2014-05-29T12:25:16Z</time>
      </trkpt>
      <trkpt lat="59.8441488" lon="17.626035">
        <ele>35.7061</ele>
        <time>2014-05-29T12:25:17Z</time>
      </trkpt>
      <trkpt lat="59.8441809" lon="17.6259884">
        <ele>35.2255</ele>
        <time>2014-05-29T12:25:18Z</time>
      </trkpt>
      <trkpt lat="59.844212" lon="17.6259324">
        <ele>35.2255</ele>
        <time>2014-05-29T12:25:19Z</time>
      </trkpt>
      <trkpt lat="59.8442385" lon="17.6258807">
        <ele>34.7449</ele>
        <time>2014-05-29T12:25:20Z</time>
      </trkpt>
      <trkpt lat="59.8442634" lon="17.6258267">
        <ele>34.2642</ele>
        <time>2014-05-29T12:25:21Z</time>
      </trkpt>
      <trkpt lat="59.8442876" lon="17.6257743">
        <ele>33.7834</ele>
        <time>2014-05-29T12:25:22Z</time>
      </trkpt>
      <trkpt lat="59.844313" lon="17.6257248">
        <ele>33.7834</ele>
        <time>2014-05-29T12:25:23Z</time>
      </trkpt>
      <trkpt lat="59.8443399" lon="17.6256748">
        <ele>33.3029</ele>
        <time>2014-05-29T12:25:24Z</time>
      </trkpt>
      <trkpt lat="59.8443669" lon="17.6256247">
        <ele>33.3029</ele>
        <time>2014-05-29T12:25:25Z</time>
      </trkpt>
      <trkpt lat="59.8443962" lon="17.6255732">
        <ele>33.3029</ele>
        <time>2014-05-29T12:25:26Z</time>
      </trkpt>
      <trkpt lat="59.8444223" lon="17.6255221">
        <ele>32.8223</ele>
        <time>2014-05-29T12:25:27Z</time>
      </trkpt>
      <trkpt lat="59.8444492" lon="17.6254658">
        <ele>32.8223</ele>
        <time>2014-05-29T12:25:28Z</time>
      </trkpt>
      <trkpt lat="59.8444767" lon="17.625405">
        <ele>32.3416</ele>
        <time>2014-05-29T12:25:29Z</time>
      </trkpt>
      <trkpt lat="59.8445048" lon="17.6253487">
        <ele>31.8607</ele>
        <time>2014-05-29T12:25:30Z</time>
      </trkpt>
      <trkpt lat="59.8445336" lon="17.6252932">
        <ele>31.8607</ele>
        <time>2014-05-29T12:25:31Z</time>
      </trkpt>
      <trkpt lat="59.8445602" lon="17.6252377">
        <ele>31.3801</ele>
        <time>2014-05-29T12:25:32Z</time>
      </trkpt>
      <trkpt lat="59.8445867" lon="17.6251842">
        <ele>31.3801</ele>
        <time>2014-05-29T12:25:33Z</time>
      </trkpt>
      <trkpt lat="59.8446157" lon="17.6251367">
        <ele>30.8995</ele>
        <time>2014-05-29T12:25:34Z</time>
      </trkpt>
      <trkpt lat="59.8446446" lon="17.6250927">
        <ele>29.9381</ele>
        <time>2014-05-29T12:25:35Z</time>
      </trkpt>
      <trkpt lat="59.8446746" lon="17.6250446">
        <ele>29.9381</ele>
        <time>2014-05-29T12:25:36Z</time>
      </trkpt>
      <trkpt lat="59.8447099" lon="17.6249989">
        <ele>29.4575</ele>
        <time>2014-05-29T12:25:37Z</time>
      </trkpt>
      <trkpt lat="59.8447441" lon="17.6249522">
        <ele>28.9769</ele>
        <time>2014-05-29T12:25:38Z</time>
      </trkpt>
      <trkpt lat="59.8447819" lon="17.624906">
        <ele>28.4962</ele>
        <time>2014-05-29T12:25:39Z</time>
      </trkpt>
      <trkpt lat="59.8448212" lon="17.6248648">
        <ele>28.0155</ele>
        <time>2014-05-29T12:25:40Z</time>
      </trkpt>
      <trkpt lat="59.8448624" lon="17.6248316">
        <ele>28.0155</ele>
        <time>2014-05-29T12:25:41Z</time>
      </trkpt>
      <trkpt lat="59.8449027" lon="17.6248026">
        <ele>28.0155</ele>
        <time>2014-05-29T12:25:42Z</time>
      </trkpt>
      <trkpt lat="59.8449405" lon="17.6247772">
        <ele>27.0543</ele>
        <time>2014-05-29T12:25:43Z</time>
      </trkpt>
      <trkpt lat="59.8449834" lon="17.6247499">
        <ele>27.0543</ele>
        <time>2014-05-29T12:25:44Z</time>
      </trkpt>
      <trkpt lat="59.8450289" lon="17.6247218">
        <ele>26.5736</ele>
        <time>2014-05-29T12:25:45Z</time>
      </trkpt>
      <trkpt lat="59.8450802" lon="17.6246912">
        <ele>26.5736</ele>
        <time>2014-05-29T12:25:46Z</time>
      </trkpt>
      <trkpt lat="59.845132" lon="17.6246603">
        <ele>26.0929</ele>
        <time>2014-05-29T12:25:47Z</time>
      </trkpt>
      <trkpt lat="59.845187" lon="17.6246273">
        <ele>26.0929</ele>
        <time>2014-05-29T12:25:48Z</time>
      </trkpt>
      <trkpt lat="59.8452429" lon="17.6245975">
        <ele>26.0929</ele>
        <time>2014-05-29T12:25:49Z</time>
      </trkpt>
      <trkpt lat="59.8452987" lon="17.6245716">
        <ele>26.0929</ele>
        <time>2014-05-29T12:25:50Z</time>
      </trkpt>
      <trkpt lat="59.8453527" lon="17.6245478">
        <ele>26.5736</ele>
        <time>2014-05-29T12:25:51Z</time>
      </trkpt>
      <trkpt lat="59.8454062" lon="17.6245187">
        <ele>26.5736</ele>
        <time>2014-05-29T12:25:52Z</time>
      </trkpt>
      <trkpt lat="59.8454579" lon="17.6244891">
        <ele>26.5736</ele>
        <time>2014-05-29T12:25:53Z</time>
      </trkpt>
      <trkpt lat="59.8455071" lon="17.6244654">
        <ele>26.5736</ele>
        <time>2014-05-29T12:25:54Z</time>
      </trkpt>
      <trkpt lat="59.8455516" lon="17.6244474">
        <ele>26.0929</ele>
        <time>2014-05-29T12:25:55Z</time>
      </trkpt>
      <trkpt lat="59.8455991" lon="17.6244317">
        <ele>26.5736</ele>
        <time>2014-05-29T12:25:56Z</time>
      </trkpt>
      <trkpt lat="59.8456481" lon="17.6244199">
        <ele>26.5736</ele>
        <time>2014-05-29T12:25:57Z</time>
      </trkpt>
      <trkpt lat="59.8456965" lon="17.624408">
        <ele>26.5736</ele>
        <time>2014-05-29T12:25:58Z</time>
      </trkpt>
      <trkpt lat="59.8457465" lon="17.6244011">
        <ele>27.0543</ele>
        <time>2014-05-29T12:25:59Z</time>
      </trkpt>
      <trkpt lat="59.8457992" lon="17.624398">
        <ele>27.5349</ele>
        <time>2014-05-29T12:26:00Z</time>
      </trkpt>
      <trkpt lat="59.8458506" lon="17.6244022">
        <ele>27.5349</ele>
        <time>2014-05-29T12:26:01Z</time>
      </trkpt>
      <trkpt lat="59.8459054" lon="17.6243927">
        <ele>28.0155</ele>
        <time>2014-05-29T12:26:02Z</time>
      </trkpt>
      <trkpt lat="59.8459609" lon="17.6243706">
        <ele>27.5349</ele>
        <time>2014-05-29T12:26:03Z</time>
      </trkpt>
      <trkpt lat="59.8460198" lon="17.6243442">
        <ele>27.5349</ele>
        <time>2014-05-29T12:26:04Z</time>
      </trkpt>
      <trkpt lat="59.8460737" lon="17.6243184">
        <ele>27.5349</ele>
        <time>2014-05-29T12:26:05Z</time>
      </trkpt>
      <trkpt lat="59.8461292" lon="17.6242954">
        <ele>27.5349</ele>
        <time>2014-05-29T12:26:06Z</time>
      </trkpt>
      <trkpt lat="59.8461841" lon="17.6242754">
        <ele>27.5349</ele>
        <time>2014-05-29T12:26:07Z</time>
      </trkpt>
      <trkpt lat="59.8462364" lon="17.6242585">
        <ele>27.5349</ele>
        <time>2014-05-29T12:26:08Z</time>
      </trkpt>
      <trkpt lat="59.8462859" lon="17.6242428">
        <ele>28.0155</ele>
        <time>2014-05-29T12:26:09Z</time>
      </trkpt>
      <trkpt lat="59.846331" lon="17.6242269">
        <ele>28.0155</ele>
        <time>2014-05-29T12:26:10Z</time>
      </trkpt>
      <trkpt lat="59.8463721" lon="17.6242147">
        <ele>28.0155</ele>
        <time>2014-05-29T12:26:11Z</time>
      </trkpt>
      <trkpt lat="59.8464139" lon="17.6242091">
        <ele>28.0155</ele>
        <time>2014-05-29T12:26:12Z</time>
      </trkpt>
      <trkpt lat="59.8464564" lon="17.624216">
        <ele>28.0155</ele>
        <time>2014-05-29T12:26:13Z</time>
      </trkpt>
      <trkpt lat="59.8465016" lon="17.624224">
        <ele>27.5349</ele>
        <time>2014-05-29T12:26:14Z</time>
      </trkpt>
      <trkpt lat="59.8465478" lon="17.6242209">
        <ele>27.5349</ele>
        <time>2014-05-29T12:26:15Z</time>
      </trkpt>
      <trkpt lat="59.8465927" lon="17.6242041">
        <ele>27.5349</ele>
        <time>2014-05-29T12:26:16Z</time>
      </trkpt>
      <trkpt lat="59.8466317" lon="17.6242052">
        <ele>27.0543</ele>
        <time>2014-05-29T12:26:17Z</time>
      </trkpt>
      <trkpt lat="59.8466612" lon="17.6242368">
        <ele>27.0543</ele>
        <time>2014-05-29T12:26:18Z</time>
      </trkpt>
      <trkpt lat="59.8466782" lon="17.6242901">
        <ele>27.0543</ele>
        <time>2014-05-29T12:26:19Z</time>
      </trkpt>
      <trkpt lat="59.8466844" lon="17.624354">
        <ele>27.0543</ele>
        <time>2014-05-29T12:26:20Z</time>
      </trkpt>
      <trkpt lat="59.8466762" lon="17.6244243">
        <ele>26.5736</ele>
        <time>2014-05-29T12:26:21Z</time>
      </trkpt>
      <trkpt lat="59.8466534" lon="17.6244892">
        <ele>27.0543</ele>
        <time>2014-05-29T12:26:22Z</time>
      </trkpt>
      <trkpt lat="59.8466248" lon="17.6245503">
        <ele>27.0543</ele>
        <time>2014-05-29T12:26:23Z</time>
      </trkpt>
      <trkpt lat="59.8465964" lon="17.6246156">
        <ele>26.5736</ele>
        <time>2014-05-29T12:26:24Z</time>
      </trkpt>
      <trkpt lat="59.8465693" lon="17.6246824">
        <ele>26.0929</ele>
        <time>2014-05-29T12:26:25Z</time>
      </trkpt>
      <trkpt lat="59.8465404" lon="17.6247612">
        <ele>26.5736</ele>
        <time>2014-05-29T12:26:26Z</time>
      </trkpt>
      <trkpt lat="59.8465131" lon="17.6248521">
        <ele>26.0929</ele>
        <time>2014-05-29T12:26:27Z</time>
      </trkpt>
      <trkpt lat="59.8464856" lon="17.6249594">
        <ele>26.5736</ele>
        <time>2014-05-29T12:26:28Z</time>
      </trkpt>
      <trkpt lat="59.8464588" lon="17.6250651">
        <ele>26.5736</ele>
        <time>2014-05-29T12:26:29Z</time>
      </trkpt>
      <trkpt lat="59.8464343" lon="17.6252029">
        <ele>26.5736</ele>
        <time>2014-05-29T12:26:30Z</time>
      </trkpt>
      <trkpt lat="59.8464156" lon="17.6253242">
        <ele>26.5736</ele>
        <time>2014-05-29T12:26:31Z</time>
      </trkpt>
      <trkpt lat="59.8464025" lon="17.6254556">
        <ele>27.0543</ele>
        <time>2014-05-29T12:26:32Z</time>
      </trkpt>
      <trkpt lat="59.8463888" lon="17.6255848">
        <ele>27.0543</ele>
        <time>2014-05-29T12:26:33Z</time>
      </trkpt>
      <trkpt lat="59.8463751" lon="17.6257138">
        <ele>27.0543</ele>
        <time>2014-05-29T12:26:34Z</time>
      </trkpt>
      <trkpt lat="59.8463611" lon="17.6258467">
        <ele>27.0543</ele>
        <time>2014-05-29T12:26:35Z</time>
      </trkpt>
      <trkpt lat="59.8463456" lon="17.6259791">
        <ele>27.0543</ele>
        <time>2014-05-29T12:26:36Z</time>
      </trkpt>
      <trkpt lat="59.8463292" lon="17.6261121">
        <ele>27.0543</ele>
        <time>2014-05-29T12:26:37Z</time>
      </trkpt>
      <trkpt lat="59.8463111" lon="17.6262438">
        <ele>27.0543</ele>
        <time>2014-05-29T12:26:38Z</time>
      </trkpt>
      <trkpt lat="59.8462896" lon="17.6263696">
        <ele>27.0543</ele>
        <time>2014-05-29T12:26:39Z</time>
      </trkpt>
      <trkpt lat="59.8462654" lon="17.6264923">
        <ele>27.0543</ele>
        <time>2014-05-29T12:26:40Z</time>
      </trkpt>
      <trkpt lat="59.8462409" lon="17.6266077">
        <ele>27.0543</ele>
        <time>2014-05-29T12:26:41Z</time>
      </trkpt>
      <trkpt lat="59.84622" lon="17.6267192">
        <ele>27.0543</ele>
        <time>2014-05-29T12:26:42Z</time>
      </trkpt>
      <trkpt lat="59.8462049" lon="17.6268278">
        <ele>27.0543</ele>
        <time>2014-05-29T12:26:43Z</time>
      </trkpt>
      <trkpt lat="59.8461934" lon="17.6269348">
        <ele>26.5736</ele>
        <time>2014-05-29T12:26:44Z</time>
      </trkpt>
      <trkpt lat="59.8461836" lon="17.627039">
        <ele>26.5736</ele>
        <time>2014-05-29T12:26:45Z</time>
      </trkpt>
      <trkpt lat="59.8461738" lon="17.6271421">
        <ele>26.0929</ele>
        <time>2014-05-29T12:26:46Z</time>
      </trkpt>
      <trkpt lat="59.8461653" lon="17.6272518">
        <ele>26.0929</ele>
        <time>2014-05-29T12:26:47Z</time>
      </trkpt>
      <trkpt lat="59.8461588" lon="17.6273636">
        <ele>25.6123</ele>
        <time>2014-05-29T12:26:48Z</time>
      </trkpt>
      <trkpt lat="59.8461565" lon="17.6274814">
        <ele>25.1317</ele>
        <time>2014-05-29T12:26:49Z</time>
      </trkpt>
      <trkpt lat="59.8461542" lon="17.6276076">
        <ele>25.6123</ele>
        <time>2014-05-29T12:26:50Z</time>
      </trkpt>
      <trkpt lat="59.8461508" lon="17.6277304">
        <ele>25.6123</ele>
        <time>2014-05-29T12:26:51Z</time>
      </trkpt>
      <trkpt lat="59.8461443" lon="17.6278496">
        <ele>25.6123</ele>
        <time>2014-05-29T12:26:52Z</time>
      </trkpt>
      <trkpt lat="59.8461359" lon="17.6279661">
        <ele>25.6123</ele>
        <time>2014-05-29T12:26:53Z</time>
      </trkpt>
      <trkpt lat="59.8461271" lon="17.6280807">
        <ele>25.6123</ele>
        <time>2014-05-29T12:26:54Z</time>
      </trkpt>
      <trkpt lat="59.8461173" lon="17.6281961">
        <ele>25.6123</ele>
        <time>2014-05-29T12:26:55Z</time>
      </trkpt>
      <trkpt lat="59.8461069" lon="17.628312">
        <ele>25.6123</ele>
        <time>2014-05-29T12:26:56Z</time>
      </trkpt>
      <trkpt lat="59.8460986" lon="17.62843">
        <ele>25.6123</ele>
        <time>2014-05-29T12:26:57Z</time>
      </trkpt>
      <trkpt lat="59.8460906" lon="17.6285509">
        <ele>25.1317</ele>
        <time>2014-05-29T12:26:58Z</time>
      </trkpt>
      <trkpt lat="59.846082" lon="17.6286745">
        <ele>25.1317</ele>
        <time>2014-05-29T12:26:59Z</time>
      </trkpt>
      <trkpt lat="59.8460751" lon="17.628802">
        <ele>24.651</ele>
        <time>2014-05-29T12:27:00Z</time>
      </trkpt>
      <trkpt lat="59.8460685" lon="17.628933">
        <ele>24.651</ele>
        <time>2014-05-29T12:27:01Z</time>
      </trkpt>
      <trkpt lat="59.8460603" lon="17.6290637">
        <ele>24.651</ele>
        <time>2014-05-29T12:27:02Z</time>
      </trkpt>
      <trkpt lat="59.846052" lon="17.6291942">
        <ele>24.1703</ele>
        <time>2014-05-29T12:27:03Z</time>
      </trkpt>
      <trkpt lat="59.8460488" lon="17.6293255">
        <ele>24.1703</ele>
        <time>2014-05-29T12:27:04Z</time>
      </trkpt>
      <trkpt lat="59.8460468" lon="17.6294562">
        <ele>24.1703</ele>
        <time>2014-05-29T12:27:05Z</time>
      </trkpt>
      <trkpt lat="59.8460412" lon="17.6295833">
        <ele>23.6896</ele>
        <time>2014-05-29T12:27:06Z</time>
      </trkpt>
      <trkpt lat="59.8460359" lon="17.6297118">
        <ele>23.6896</ele>
        <time>2014-05-29T12:27:07Z</time>
      </trkpt>
      <trkpt lat="59.8460311" lon="17.6298444">
        <ele>23.6896</ele>
        <time>2014-05-29T12:27:08Z</time>
      </trkpt>
      <trkpt lat="59.8460272" lon="17.6299779">
        <ele>23.6896</ele>
        <time>2014-05-29T12:27:09Z</time>
      </trkpt>
      <trkpt lat="59.8460228" lon="17.6301059">
        <ele>24.1703</ele>
        <time>2014-05-29T12:27:10Z</time>
      </trkpt>
      <trkpt lat="59.8460189" lon="17.6302215">
        <ele>24.1703</ele>
        <time>2014-05-29T12:27:11Z</time>
      </trkpt>
      <trkpt lat="59.8460238" lon="17.6303373">
        <ele>24.1703</ele>
        <time>2014-05-29T12:27:12Z</time>
      </trkpt>
      <trkpt lat="59.8460339" lon="17.6304599">
        <ele>24.1703</ele>
        <time>2014-05-29T12:27:13Z</time>
      </trkpt>
      <trkpt lat="59.8460442" lon="17.6305796">
        <ele>24.1703</ele>
        <time>2014-05-29T12:27:14Z</time>
      </trkpt>
      <trkpt lat="59.8460572" lon="17.6306965">
        <ele>24.1703</ele>
        <time>2014-05-29T12:27:15Z</time>
      </trkpt>
      <trkpt lat="59.8460794" lon="17.6308218">
        <ele>24.1703</ele>
        <time>2014-05-29T12:27:16Z</time>
      </trkpt>
      <trkpt lat="59.8461091" lon="17.6309388">
        <ele>24.1703</ele>
        <time>2014-05-29T12:27:17Z</time>
      </trkpt>
      <trkpt lat="59.8461396" lon="17.6310536">
        <ele>24.1703</ele>
        <time>2014-05-29T12:27:18Z</time>
      </trkpt>
      <trkpt lat="59.8461717" lon="17.6311653">
        <ele>24.651</ele>
        <time>2014-05-29T12:27:19Z</time>
      </trkpt>
      <trkpt lat="59.8462059" lon="17.6312736">
        <ele>24.651</ele>
        <time>2014-05-29T12:27:20Z</time>
      </trkpt>
      <trkpt lat="59.846251" lon="17.6313725">
        <ele>25.1317</ele>
        <time>2014-05-29T12:27:21Z</time>
      </trkpt>
      <trkpt lat="59.8462939" lon="17.6314695">
        <ele>25.1317</ele>
        <time>2014-05-29T12:27:22Z</time>
      </trkpt>
      <trkpt lat="59.8463416" lon="17.6315632">
        <ele>25.6123</ele>
        <time>2014-05-29T12:27:23Z</time>
      </trkpt>
      <trkpt lat="59.846381" lon="17.6316662">
        <ele>25.6123</ele>
        <time>2014-05-29T12:27:24Z</time>
      </trkpt>
      <trkpt lat="59.8464219" lon="17.6317652">
        <ele>26.0929</ele>
        <time>2014-05-29T12:27:25Z</time>
      </trkpt>
      <trkpt lat="59.8464591" lon="17.6318608">
        <ele>26.0929</ele>
        <time>2014-05-29T12:27:26Z</time>
      </trkpt>
      <trkpt lat="59.846496" lon="17.6319525">
        <ele>26.0929</ele>
        <time>2014-05-29T12:27:27Z</time>
      </trkpt>
      <trkpt lat="59.8465336" lon="17.6320402">
        <ele>26.5736</ele>
        <time>2014-05-29T12:27:28Z</time>
      </trkpt>
      <trkpt lat="59.8465626" lon="17.6321266">
        <ele>26.5736</ele>
        <time>2014-05-29T12:27:29Z</time>
      </trkpt>
      <trkpt lat="59.8465985" lon="17.6322069">
        <ele>27.0543</ele>
        <time>2014-05-29T12:27:30Z</time>
      </trkpt>
      <trkpt lat="59.8466333" lon="17.6322884">
        <ele>27.5349</ele>
        <time>2014-05-29T12:27:31Z</time>
      </trkpt>
      <trkpt lat="59.8466706" lon="17.6323724">
        <ele>28.4962</ele>
        <time>2014-05-29T12:27:32Z</time>
      </trkpt>
      <trkpt lat="59.8467006" lon="17.6324607">
        <ele>28.0155</ele>
        <time>2014-05-29T12:27:33Z</time>
      </trkpt>
      <trkpt lat="59.8467348" lon="17.632548">
        <ele>28.4962</ele>
        <time>2014-05-29T12:27:34Z</time>
      </trkpt>
      <trkpt lat="59.8467693" lon="17.6326323">
        <ele>28.4962</ele>
        <time>2014-05-29T12:27:35Z</time>
      </trkpt>
      <trkpt lat="59.8468078" lon="17.6327145">
        <ele>28.4962</ele>
        <time>2014-05-29T12:27:36Z</time>
      </trkpt>
      <trkpt lat="59.8468473" lon="17.6327971">
        <ele>28.9769</ele>
        <time>2014-05-29T12:27:37Z</time>
      </trkpt>
      <trkpt lat="59.846883" lon="17.6328809">
        <ele>29.4575</ele>
        <time>2014-05-29T12:27:38Z</time>
      </trkpt>
      <trkpt lat="59.8469108" lon="17.6329679">
        <ele>28.9769</ele>
        <time>2014-05-29T12:27:39Z</time>
      </trkpt>
      <trkpt lat="59.84694" lon="17.633051">
        <ele>28.4962</ele>
        <time>2014-05-29T12:27:40Z</time>
      </trkpt>
      <trkpt lat="59.8469673" lon="17.6331347">
        <ele>28.4962</ele>
        <time>2014-05-29T12:27:41Z</time>
      </trkpt>
      <trkpt lat="59.8469973" lon="17.633217">
        <ele>28.4962</ele>
        <time>2014-05-29T12:27:42Z</time>
      </trkpt>
      <trkpt lat="59.8470248" lon="17.6333009">
        <ele>28.0155</ele>
        <time>2014-05-29T12:27:43Z</time>
      </trkpt>
      <trkpt lat="59.8470547" lon="17.633384">
        <ele>27.5349</ele>
        <time>2014-05-29T12:27:44Z</time>
      </trkpt>
      <trkpt lat="59.8470873" lon="17.6334617">
        <ele>27.0543</ele>
        <time>2014-05-29T12:27:45Z</time>
      </trkpt>
      <trkpt lat="59.847127" lon="17.6335335">
        <ele>27.5349</ele>
        <time>2014-05-29T12:27:46Z</time>
      </trkpt>
      <trkpt lat="59.847161" lon="17.6336122">
        <ele>28.0155</ele>
        <time>2014-05-29T12:27:47Z</time>
      </trkpt>
      <trkpt lat="59.8471923" lon="17.6336988">
        <ele>28.0155</ele>
        <time>2014-05-29T12:27:48Z</time>
      </trkpt>
      <trkpt lat="59.847221" lon="17.6337818">
        <ele>27.5349</ele>
        <time>2014-05-29T12:27:49Z</time>
      </trkpt>
      <trkpt lat="59.8472528" lon="17.6338642">
        <ele>28.0155</ele>
        <time>2014-05-29T12:27:50Z</time>
      </trkpt>
      <trkpt lat="59.8472853" lon="17.6339506">
        <ele>28.0155</ele>
        <time>2014-05-29T12:27:51Z</time>
      </trkpt>
      <trkpt lat="59.8473175" lon="17.6340391">
        <ele>28.0155</ele>
        <time>2014-05-29T12:27:52Z</time>
      </trkpt>
      <trkpt lat="59.8473516" lon="17.6341283">
        <ele>27.5349</ele>
        <time>2014-05-29T12:27:53Z</time>
      </trkpt>
      <trkpt lat="59.8473881" lon="17.6342142">
        <ele>27.5349</ele>
        <time>2014-05-29T12:27:54Z</time>
      </trkpt>
      <trkpt lat="59.8474237" lon="17.6342944">
        <ele>27.5349</ele>
        <time>2014-05-29T12:27:55Z</time>
      </trkpt>
      <trkpt lat="59.8474553" lon="17.6343659">
        <ele>27.5349</ele>
        <time>2014-05-29T12:27:56Z</time>
      </trkpt>
      <trkpt lat="59.8474836" lon="17.6344221">
        <ele>28.0155</ele>
        <time>2014-05-29T12:27:57Z</time>
      </trkpt>
      <trkpt lat="59.8475066" lon="17.6344687">
        <ele>28.0155</ele>
        <time>2014-05-29T12:27:58Z</time>
      </trkpt>
      <trkpt lat="59.8475246" lon="17.6345146">
        <ele>28.0155</ele>
        <time>2014-05-29T12:27:59Z</time>
      </trkpt>
      <trkpt lat="59.8475397" lon="17.6345536">
        <ele>28.4962</ele>
        <time>2014-05-29T12:28:00Z</time>
      </trkpt>
      <trkpt lat="59.8475589" lon="17.6345887">
        <ele>28.0155</ele>
        <time>2014-05-29T12:28:01Z</time>
      </trkpt>
      <trkpt lat="59.847581" lon="17.6346308">
        <ele>28.9769</ele>
        <time>2014-05-29T12:28:02Z</time>
      </trkpt>
      <trkpt lat="59.8475993" lon="17.6346845">
        <ele>28.9769</ele>
        <time>2014-05-29T12:28:03Z</time>
      </trkpt>
      <trkpt lat="59.8476181" lon="17.6347415">
        <ele>28.9769</ele>
        <time>2014-05-29T12:28:04Z</time>
      </trkpt>
      <trkpt lat="59.8476362" lon="17.6348042">
        <ele>28.4962</ele>
        <time>2014-05-29T12:28:05Z</time>
      </trkpt>
      <trkpt lat="59.8476527" lon="17.6348701">
        <ele>28.4962</ele>
        <time>2014-05-29T12:28:06Z</time>
      </trkpt>
      <trkpt lat="59.8476773" lon="17.6349323">
        <ele>28.4962</ele>
        <time>2014-05-29T12:28:07Z</time>
      </trkpt>
      <trkpt lat="59.8477029" lon="17.6349923">
        <ele>28.4962</ele>
        <time>2014-05-29T12:28:08Z</time>
      </trkpt>
      <trkpt lat="59.8477317" lon="17.6350493">
        <ele>29.4575</ele>
        <time>2014-05-29T12:28:09Z</time>
      </trkpt>
      <trkpt lat="59.8477636" lon="17.6351015">
        <ele>29.9381</ele>
        <time>2014-05-29T12:28:10Z</time>
      </trkpt>
      <trkpt lat="59.8477941" lon="17.6351631">
        <ele>30.4188</ele>
        <time>2014-05-29T12:28:11Z</time>
      </trkpt>
      <trkpt lat="59.8478465" lon="17.6352219">
        <ele>33.3029</ele>
        <time>2014-05-29T12:28:12Z</time>
      </trkpt>
      <trkpt lat="59.8478771" lon="17.6352939">
        <ele>33.7834</ele>
        <time>2014-05-29T12:28:13Z</time>
      </trkpt>
      <trkpt lat="59.847907" lon="17.6353685">
        <ele>34.2642</ele>
        <time>2014-05-29T12:28:14Z</time>
      </trkpt>
      <trkpt lat="59.8479384" lon="17.6354403">
        <ele>34.7449</ele>
        <time>2014-05-29T12:28:15Z</time>
      </trkpt>
      <trkpt lat="59.84797" lon="17.6355125">
        <ele>35.2255</ele>
        <time>2014-05-29T12:28:16Z</time>
      </trkpt>
      <trkpt lat="59.8480014" lon="17.6355855">
        <ele>35.7061</ele>
        <time>2014-05-29T12:28:17Z</time>
      </trkpt>
      <trkpt lat="59.8480296" lon="17.6356581">
        <ele>35.7061</ele>
        <time>2014-05-29T12:28:18Z</time>
      </trkpt>
      <trkpt lat="59.8480706" lon="17.635725">
        <ele>37.6287</ele>
        <time>2014-05-29T12:28:19Z</time>
      </trkpt>
      <trkpt lat="59.8480925" lon="17.6357995">
        <ele>37.1481</ele>
        <time>2014-05-29T12:28:20Z</time>
      </trkpt>
      <trkpt lat="59.8481297" lon="17.6358656">
        <ele>39.0707</ele>
        <time>2014-05-29T12:28:21Z</time>
      </trkpt>
      <trkpt lat="59.8481712" lon="17.6359207">
        <ele>40.9934</ele>
        <time>2014-05-29T12:28:22Z</time>
      </trkpt>
      <trkpt lat="59.8482135" lon="17.6359672">
        <ele>42.916</ele>
        <time>2014-05-29T12:28:23Z</time>
      </trkpt>
      <trkpt lat="59.8482592" lon="17.6360062">
        <ele>45.3192</ele>
        <time>2014-05-29T12:28:24Z</time>
      </trkpt>
      <trkpt lat="59.8483043" lon="17.6360501">
        <ele>47.7225</ele>
        <time>2014-05-29T12:28:25Z</time>
      </trkpt>
      <trkpt lat="59.8483567" lon="17.6360968">
        <ele>51.0872</ele>
        <time>2014-05-29T12:28:26Z</time>
      </trkpt>
      <trkpt lat="59.8483955" lon="17.6361497">
        <ele>53.0098</ele>
        <time>2014-05-29T12:28:27Z</time>
      </trkpt>
      <trkpt lat="59.8484028" lon="17.6362164">
        <ele>50.6066</ele>
        <time>2014-05-29T12:28:28Z</time>
      </trkpt>
      <trkpt lat="59.8484101" lon="17.6362817">
        <ele>48.684</ele>
        <time>2014-05-29T12:28:29Z</time>
      </trkpt>
      <trkpt lat="59.8484172" lon="17.6363454">
        <ele>47.2418</ele>
        <time>2014-05-29T12:28:30Z</time>
      </trkpt>
      <trkpt lat="59.8484222" lon="17.6364066">
        <ele>45.7999</ele>
        <time>2014-05-29T12:28:31Z</time>
      </trkpt>
      <trkpt lat="59.8484223" lon="17.6364665">
        <ele>44.358</ele>
        <time>2014-05-29T12:28:32Z</time>
      </trkpt>
      <trkpt lat="59.8484152" lon="17.6365278">
        <ele>43.3966</ele>
        <time>2014-05-29T12:28:33Z</time>
      </trkpt>
      <trkpt lat="59.8484057" lon="17.6365825">
        <ele>42.4354</ele>
        <time>2014-05-29T12:28:34Z</time>
      </trkpt>
      <trkpt lat="59.8483946" lon="17.6366308">
        <ele>41.474</ele>
        <time>2014-05-29T12:28:35Z</time>
      </trkpt>
      <trkpt lat="59.8483757" lon="17.6366677">
        <ele>40.9934</ele>
        <time>2014-05-29T12:28:36Z</time>
      </trkpt>
      <trkpt lat="59.8483471" lon="17.636691">
        <ele>40.0321</ele>
        <time>2014-05-29T12:28:37Z</time>
      </trkpt>
      <trkpt lat="59.848312" lon="17.6367074">
        <ele>39.5513</ele>
        <time>2014-05-29T12:28:38Z</time>
      </trkpt>
      <trkpt lat="59.8482726" lon="17.636721">
        <ele>39.0707</ele>
        <time>2014-05-29T12:28:39Z</time>
      </trkpt>
      <trkpt lat="59.8482312" lon="17.6367324">
        <ele>38.5901</ele>
        <time>2014-05-29T12:28:40Z</time>
      </trkpt>
      <trkpt lat="59.8481862" lon="17.6367474">
        <ele>38.1094</ele>
        <time>2014-05-29T12:28:41Z</time>
      </trkpt>
      <trkpt lat="59.8481399" lon="17.6367648">
        <ele>37.1481</ele>
        <time>2014-05-29T12:28:42Z</time>
      </trkpt>
      <trkpt lat="59.8480931" lon="17.636782">
        <ele>36.6675</ele>
        <time>2014-05-29T12:28:43Z</time>
      </trkpt>
      <trkpt lat="59.8480453" lon="17.636798">
        <ele>36.1868</ele>
        <time>2014-05-29T12:28:44Z</time>
      </trkpt>
      <trkpt lat="59.8479971" lon="17.6368145">
        <ele>36.1868</ele>
        <time>2014-05-29T12:28:45Z</time>
      </trkpt>
      <trkpt lat="59.8479511" lon="17.6368375">
        <ele>35.7061</ele>
        <time>2014-05-29T12:28:46Z</time>
      </trkpt>
      <trkpt lat="59.8479045" lon="17.636865">
        <ele>34.7449</ele>
        <time>2014-05-29T12:28:47Z</time>
      </trkpt>
      <trkpt lat="59.8478555" lon="17.6368891">
        <ele>34.2642</ele>
        <time>2014-05-29T12:28:48Z</time>
      </trkpt>
      <trkpt lat="59.8478076" lon="17.6369094">
        <ele>33.7834</ele>
        <time>2014-05-29T12:28:49Z</time>
      </trkpt>
      <trkpt lat="59.8477556" lon="17.6369221">
        <ele>33.3029</ele>
        <time>2014-05-29T12:28:50Z</time>
      </trkpt>
      <trkpt lat="59.8477023" lon="17.6369337">
        <ele>32.3416</ele>
        <time>2014-05-29T12:28:51Z</time>
      </trkpt>
      <trkpt lat="59.8476471" lon="17.6369412">
        <ele>31.3801</ele>
        <time>2014-05-29T12:28:52Z</time>
      </trkpt>
      <trkpt lat="59.8475953" lon="17.6369546">
        <ele>30.8995</ele>
        <time>2014-05-29T12:28:53Z</time>
      </trkpt>
      <trkpt lat="59.8475434" lon="17.6369632">
        <ele>30.8995</ele>
        <time>2014-05-29T12:28:54Z</time>
      </trkpt>
      <trkpt lat="59.8474878" lon="17.6369718">
        <ele>31.3801</ele>
        <time>2014-05-29T12:28:55Z</time>
      </trkpt>
      <trkpt lat="59.8474354" lon="17.6369715">
        <ele>30.8995</ele>
        <time>2014-05-29T12:28:56Z</time>
      </trkpt>
      <trkpt lat="59.8473817" lon="17.6369779">
        <ele>30.8995</ele>
        <time>2014-05-29T12:28:57Z</time>
      </trkpt>
      <trkpt lat="59.8473287" lon="17.6370034">
        <ele>30.4188</ele>
        <time>2014-05-29T12:28:58Z</time>
      </trkpt>
      <trkpt lat="59.847276" lon="17.6370404">
        <ele>29.9381</ele>
        <time>2014-05-29T12:28:59Z</time>
      </trkpt>
      <trkpt lat="59.8472269" lon="17.6370909">
        <ele>29.9381</ele>
        <time>2014-05-29T12:29:00Z</time>
      </trkpt>
      <trkpt lat="59.8471796" lon="17.6371516">
        <ele>29.4575</ele>
        <time>2014-05-29T12:29:01Z</time>
      </trkpt>
      <trkpt lat="59.847131" lon="17.6372152">
        <ele>29.4575</ele>
        <time>2014-05-29T12:29:02Z</time>
      </trkpt>
      <trkpt lat="59.8470827" lon="17.6372746">
        <ele>28.4962</ele>
        <time>2014-05-29T12:29:03Z</time>
      </trkpt>
      <trkpt lat="59.8470322" lon="17.6373269">
        <ele>28.0155</ele>
        <time>2014-05-29T12:29:04Z</time>
      </trkpt>
      <trkpt lat="59.8469785" lon="17.6373689">
        <ele>27.5349</ele>
        <time>2014-05-29T12:29:05Z</time>
      </trkpt>
      <trkpt lat="59.8469254" lon="17.6374238">
        <ele>27.0543</ele>
        <time>2014-05-29T12:29:06Z</time>
      </trkpt>
      <trkpt lat="59.8468664" lon="17.6374766">
        <ele>26.5736</ele>
        <time>2014-05-29T12:29:07Z</time>
      </trkpt>
      <trkpt lat="59.8468014" lon="17.6375105">
        <ele>26.0929</ele>
        <time>2014-05-29T12:29:08Z</time>
      </trkpt>
      <trkpt lat="59.8467349" lon="17.6375353">
        <ele>26.0929</ele>
        <time>2014-05-29T12:29:09Z</time>
      </trkpt>
      <trkpt lat="59.8466717" lon="17.6375659">
        <ele>26.5736</ele>
        <time>2014-05-29T12:29:10Z</time>
      </trkpt>
      <trkpt lat="59.8466104" lon="17.6375948">
        <ele>26.5736</ele>
        <time>2014-05-29T12:29:11Z</time>
      </trkpt>
      <trkpt lat="59.8465541" lon="17.6376203">
        <ele>26.5736</ele>
        <time>2014-05-29T12:29:12Z</time>
      </trkpt>
      <trkpt lat="59.8465041" lon="17.6376546">
        <ele>27.0543</ele>
        <time>2014-05-29T12:29:13Z</time>
      </trkpt>
      <trkpt lat="59.8464624" lon="17.6377151">
        <ele>27.0543</ele>
        <time>2014-05-29T12:29:14Z</time>
      </trkpt>
      <trkpt lat="59.8464353" lon="17.6378006">
        <ele>26.5736</ele>
        <time>2014-05-29T12:29:15Z</time>
      </trkpt>
      <trkpt lat="59.8464194" lon="17.6378953">
        <ele>26.0929</ele>
        <time>2014-05-29T12:29:16Z</time>
      </trkpt>
      <trkpt lat="59.8464131" lon="17.6380004">
        <ele>26.0929</ele>
        <time>2014-05-29T12:29:17Z</time>
      </trkpt>
      <trkpt lat="59.8464131" lon="17.6381081">
        <ele>26.0929</ele>
        <time>2014-05-29T12:29:18Z</time>
      </trkpt>
      <trkpt lat="59.8464162" lon="17.6382133">
        <ele>26.5736</ele>
        <time>2014-05-29T12:29:19Z</time>
      </trkpt>
      <trkpt lat="59.8464182" lon="17.6383174">
        <ele>27.0543</ele>
        <time>2014-05-29T12:29:20Z</time>
      </trkpt>
      <trkpt lat="59.8464152" lon="17.6384169">
        <ele>27.0543</ele>
        <time>2014-05-29T12:29:21Z</time>
      </trkpt>
      <trkpt lat="59.8464073" lon="17.6385158">
        <ele>26.5736</ele>
        <time>2014-05-29T12:29:22Z</time>
      </trkpt>
      <trkpt lat="59.8463868" lon="17.6386138">
        <ele>26.5736</ele>
        <time>2014-05-29T12:29:23Z</time>
      </trkpt>
      <trkpt lat="59.8463619" lon="17.638711">
        <ele>26.0929</ele>
        <time>2014-05-29T12:29:24Z</time>
      </trkpt>
      <trkpt lat="59.8463483" lon="17.6388102">
        <ele>25.1317</ele>
        <time>2014-05-29T12:29:25Z</time>
      </trkpt>
      <trkpt lat="59.8463493" lon="17.6389182">
        <ele>25.1317</ele>
        <time>2014-05-29T12:29:26Z</time>
      </trkpt>
      <trkpt lat="59.8463556" lon="17.6390338">
        <ele>25.1317</ele>
        <time>2014-05-29T12:29:27Z</time>
      </trkpt>
      <trkpt lat="59.8463605" lon="17.6391568">
        <ele>25.1317</ele>
        <time>2014-05-29T12:29:28Z</time>
      </trkpt>
      <trkpt lat="59.8463618" lon="17.6392826">
        <ele>25.1317</ele>
        <time>2014-05-29T12:29:29Z</time>
      </trkpt>
      <trkpt lat="59.8463592" lon="17.6394125">
        <ele>25.1317</ele>
        <time>2014-05-29T12:29:30Z</time>
      </trkpt>
      <trkpt lat="59.8463555" lon="17.6395489">
        <ele>25.6123</ele>
        <time>2014-05-29T12:29:31Z</time>
      </trkpt>
      <trkpt lat="59.8463566" lon="17.6396909">
        <ele>25.1317</ele>
        <time>2014-05-29T12:29:32Z</time>
      </trkpt>
      <trkpt lat="59.8463618" lon="17.6398369">
        <ele>25.1317</ele>
        <time>2014-05-29T12:29:33Z</time>
      </trkpt>
      <trkpt lat="59.8463726" lon="17.6399839">
        <ele>24.651</ele>
        <time>2014-05-29T12:29:34Z</time>
      </trkpt>
      <trkpt lat="59.8463981" lon="17.6401255">
        <ele>24.651</ele>
        <time>2014-05-29T12:29:35Z</time>
      </trkpt>
      <trkpt lat="59.8464354" lon="17.6402631">
        <ele>24.651</ele>
        <time>2014-05-29T12:29:36Z</time>
      </trkpt>
      <trkpt lat="59.846468" lon="17.6404087">
        <ele>24.651</ele>
        <time>2014-05-29T12:29:37Z</time>
      </trkpt>
      <trkpt lat="59.84649" lon="17.6405627">
        <ele>24.651</ele>
        <time>2014-05-29T12:29:38Z</time>
      </trkpt>
      <trkpt lat="59.8465082" lon="17.6407196">
        <ele>25.1317</ele>
        <time>2014-05-29T12:29:39Z</time>
      </trkpt>
      <trkpt lat="59.8465274" lon="17.6408776">
        <ele>25.1317</ele>
        <time>2014-05-29T12:29:40Z</time>
      </trkpt>
      <trkpt lat="59.8465502" lon="17.6410364">
        <ele>25.1317</ele>
        <time>2014-05-29T12:29:41Z</time>
      </trkpt>
      <trkpt lat="59.8465788" lon="17.6411941">
        <ele>25.1317</ele>
        <time>2014-05-29T12:29:42Z</time>
      </trkpt>
      <trkpt lat="59.8466129" lon="17.6413509">
        <ele>24.651</ele>
        <time>2014-05-29T12:29:43Z</time>
      </trkpt>
      <trkpt lat="59.8466517" lon="17.6415033">
        <ele>24.651</ele>
        <time>2014-05-29T12:29:44Z</time>
      </trkpt>
      <trkpt lat="59.8466949" lon="17.6416502">
        <ele>24.1703</ele>
        <time>2014-05-29T12:29:45Z</time>
      </trkpt>
      <trkpt lat="59.846743" lon="17.6417912">
        <ele>23.6896</ele>
        <time>2014-05-29T12:29:46Z</time>
      </trkpt>
      <trkpt lat="59.8467959" lon="17.6419254">
        <ele>23.209</ele>
        <time>2014-05-29T12:29:47Z</time>
      </trkpt>
      <trkpt lat="59.8468509" lon="17.6420529">
        <ele>23.209</ele>
        <time>2014-05-29T12:29:48Z</time>
      </trkpt>
      <trkpt lat="59.8469067" lon="17.6421721">
        <ele>22.7283</ele>
        <time>2014-05-29T12:29:49Z</time>
      </trkpt>
      <trkpt lat="59.8469633" lon="17.6422822">
        <ele>22.2476</ele>
        <time>2014-05-29T12:29:50Z</time>
      </trkpt>
      <trkpt lat="59.8470203" lon="17.642386">
        <ele>22.2476</ele>
        <time>2014-05-29T12:29:51Z</time>
      </trkpt>
      <trkpt lat="59.8470828" lon="17.6424814">
        <ele>21.767</ele>
        <time>2014-05-29T12:29:52Z</time>
      </trkpt>
      <trkpt lat="59.8471506" lon="17.6425838">
        <ele>22.2476</ele>
        <time>2014-05-29T12:29:53Z</time>
      </trkpt>
      <trkpt lat="59.8472163" lon="17.6426824">
        <ele>21.767</ele>
        <time>2014-05-29T12:29:54Z</time>
      </trkpt>
      <trkpt lat="59.8472713" lon="17.6427631">
        <ele>21.2864</ele>
        <time>2014-05-29T12:29:55Z</time>
      </trkpt>
      <trkpt lat="59.8473246" lon="17.6428272">
        <ele>20.8057</ele>
        <time>2014-05-29T12:29:56Z</time>
      </trkpt>
      <trkpt lat="59.8473834" lon="17.642882">
        <ele>20.325</ele>
        <time>2014-05-29T12:29:57Z</time>
      </trkpt>
      <trkpt lat="59.8474522" lon="17.642932">
        <ele>20.8057</ele>
        <time>2014-05-29T12:29:58Z</time>
      </trkpt>
      <trkpt lat="59.8475172" lon="17.6429863">
        <ele>20.325</ele>
        <time>2014-05-29T12:29:59Z</time>
      </trkpt>
      <trkpt lat="59.8475825" lon="17.6430464">
        <ele>19.8444</ele>
        <time>2014-05-29T12:30:00Z</time>
      </trkpt>
      <trkpt lat="59.8476497" lon="17.6431117">
        <ele>19.3638</ele>
        <time>2014-05-29T12:30:01Z</time>
      </trkpt>
      <trkpt lat="59.8477257" lon="17.6431763">
        <ele>18.8831</ele>
        <time>2014-05-29T12:30:02Z</time>
      </trkpt>
      <trkpt lat="59.8477986" lon="17.643247">
        <ele>18.4023</ele>
        <time>2014-05-29T12:30:03Z</time>
      </trkpt>
      <trkpt lat="59.8478744" lon="17.6433176">
        <ele>17.9218</ele>
        <time>2014-05-29T12:30:04Z</time>
      </trkpt>
      <trkpt lat="59.8479394" lon="17.6433948">
        <ele>16.9604</ele>
        <time>2014-05-29T12:30:05Z</time>
      </trkpt>
      <trkpt lat="59.8480032" lon="17.6434726">
        <ele>16.4797</ele>
        <time>2014-05-29T12:30:06Z</time>
      </trkpt>
      <trkpt lat="59.8480628" lon="17.6435544">
        <ele>16.4797</ele>
        <time>2014-05-29T12:30:07Z</time>
      </trkpt>
      <trkpt lat="59.8481312" lon="17.6436271">
        <ele>16.4797</ele>
        <time>2014-05-29T12:30:08Z</time>
      </trkpt>
      <trkpt lat="59.8481939" lon="17.6437002">
        <ele>16.4797</ele>
        <time>2014-05-29T12:30:09Z</time>
      </trkpt>
      <trkpt lat="59.8482611" lon="17.6437657">
        <ele>15.999</ele>
        <time>2014-05-29T12:30:10Z</time>
      </trkpt>
      <trkpt lat="59.8483307" lon="17.643827">
        <ele>15.5184</ele>
        <time>2014-05-29T12:30:11Z</time>
      </trkpt>
      <trkpt lat="59.8484043" lon="17.6438805">
        <ele>16.4797</ele>
        <time>2014-05-29T12:30:12Z</time>
      </trkpt>
      <trkpt lat="59.84847" lon="17.6439321">
        <ele>15.999</ele>
        <time>2014-05-29T12:30:13Z</time>
      </trkpt>
      <trkpt lat="59.8485352" lon="17.6439835">
        <ele>15.5184</ele>
        <time>2014-05-29T12:30:14Z</time>
      </trkpt>
      <trkpt lat="59.8486016" lon="17.6440317">
        <ele>15.0377</ele>
        <time>2014-05-29T12:30:15Z</time>
      </trkpt>
      <trkpt lat="59.8486732" lon="17.6440694">
        <ele>15.0377</ele>
        <time>2014-05-29T12:30:16Z</time>
      </trkpt>
      <trkpt lat="59.8487449" lon="17.6440965">
        <ele>15.0377</ele>
        <time>2014-05-29T12:30:17Z</time>
      </trkpt>
      <trkpt lat="59.8488162" lon="17.6441097">
        <ele>15.0377</ele>
        <time>2014-05-29T12:30:18Z</time>
      </trkpt>
      <trkpt lat="59.848884" lon="17.6441104">
        <ele>14.557</ele>
        <time>2014-05-29T12:30:19Z</time>
      </trkpt>
      <trkpt lat="59.8489523" lon="17.6441058">
        <ele>14.0764</ele>
        <time>2014-05-29T12:30:20Z</time>
      </trkpt>
      <trkpt lat="59.8490218" lon="17.6440995">
        <ele>14.0764</ele>
        <time>2014-05-29T12:30:21Z</time>
      </trkpt>
      <trkpt lat="59.8490922" lon="17.64409">
        <ele>13.5958</ele>
        <time>2014-05-29T12:30:22Z</time>
      </trkpt>
      <trkpt lat="59.8491627" lon="17.6440766">
        <ele>13.1151</ele>
        <time>2014-05-29T12:30:23Z</time>
      </trkpt>
      <trkpt lat="59.8492316" lon="17.6440621">
        <ele>12.6344</ele>
        <time>2014-05-29T12:30:24Z</time>
      </trkpt>
      <trkpt lat="59.8492994" lon="17.6440451">
        <ele>12.6344</ele>
        <time>2014-05-29T12:30:25Z</time>
      </trkpt>
      <trkpt lat="59.8493668" lon="17.6440221">
        <ele>12.1538</ele>
        <time>2014-05-29T12:30:26Z</time>
      </trkpt>
      <trkpt lat="59.8494315" lon="17.6439939">
        <ele>12.1538</ele>
        <time>2014-05-29T12:30:27Z</time>
      </trkpt>
      <trkpt lat="59.8494931" lon="17.6439585">
        <ele>12.1538</ele>
        <time>2014-05-29T12:30:28Z</time>
      </trkpt>
      <trkpt lat="59.849553" lon="17.643917">
        <ele>11.6732</ele>
        <time>2014-05-29T12:30:29Z</time>
      </trkpt>
      <trkpt lat="59.8496138" lon="17.6438747">
        <ele>11.1925</ele>
        <time>2014-05-29T12:30:30Z</time>
      </trkpt>
      <trkpt lat="59.8496756" lon="17.6438374">
        <ele>10.7118</ele>
        <time>2014-05-29T12:30:31Z</time>
      </trkpt>
      <trkpt lat="59.8497377" lon="17.6437958">
        <ele>10.2312</ele>
        <time>2014-05-29T12:30:32Z</time>
      </trkpt>
      <trkpt lat="59.8497986" lon="17.6437427">
        <ele>10.2312</ele>
        <time>2014-05-29T12:30:33Z</time>
      </trkpt>
      <trkpt lat="59.8498569" lon="17.6436773">
        <ele>9.75061</ele>
        <time>2014-05-29T12:30:34Z</time>
      </trkpt>
      <trkpt lat="59.8499165" lon="17.6436125">
        <ele>9.2699</ele>
        <time>2014-05-29T12:30:35Z</time>
      </trkpt>
      <trkpt lat="59.8499785" lon="17.6435621">
        <ele>9.2699</ele>
        <time>2014-05-29T12:30:36Z</time>
      </trkpt>
      <trkpt lat="59.8500386" lon="17.6435236">
        <ele>9.2699</ele>
        <time>2014-05-29T12:30:37Z</time>
      </trkpt>
      <trkpt lat="59.8500971" lon="17.6435012">
        <ele>8.78918</ele>
        <time>2014-05-29T12:30:38Z</time>
      </trkpt>
      <trkpt lat="59.8501607" lon="17.6434975">
        <ele>8.78918</ele>
        <time>2014-05-29T12:30:39Z</time>
      </trkpt>
      <trkpt lat="59.8502246" lon="17.64351">
        <ele>8.30859</ele>
        <time>2014-05-29T12:30:40Z</time>
      </trkpt>
      <trkpt lat="59.8502853" lon="17.6435256">
        <ele>7.82788</ele>
        <time>2014-05-29T12:30:41Z</time>
      </trkpt>
      <trkpt lat="59.8503411" lon="17.643534">
        <ele>7.34717</ele>
        <time>2014-05-29T12:30:42Z</time>
      </trkpt>
      <trkpt lat="59.8503912" lon="17.6435453">
        <ele>7.34717</ele>
        <time>2014-05-29T12:30:43Z</time>
      </trkpt>
      <trkpt lat="59.8504347" lon="17.6435775">
        <ele>6.86646</ele>
        <time>2014-05-29T12:30:44Z</time>
      </trkpt>
      <trkpt lat="59.8504621" lon="17.643638">
        <ele>6.38586</ele>
        <time>2014-05-29T12:30:45Z</time>
      </trkpt>
      <trkpt lat="59.8504753" lon="17.6437093">
        <ele>5.90527</ele>
        <time>2014-05-29T12:30:46Z</time>
      </trkpt>
      <trkpt lat="59.8504815" lon="17.6437878">
        <ele>6.38586</ele>
        <time>2014-05-29T12:30:47Z</time>
      </trkpt>
      <trkpt lat="59.8504896" lon="17.6438664">
        <ele>6.86646</ele>
        <time>2014-05-29T12:30:48Z</time>
      </trkpt>
      <trkpt lat="59.8505041" lon="17.6439415">
        <ele>7.34717</ele>
        <time>2014-05-29T12:30:49Z</time>
      </trkpt>
      <trkpt lat="59.8505248" lon="17.644011">
        <ele>7.82788</ele>
        <time>2014-05-29T12:30:50Z</time>
      </trkpt>
      <trkpt lat="59.8505531" lon="17.6440698">
        <ele>7.82788</ele>
        <time>2014-05-29T12:30:51Z</time>
      </trkpt>
      <trkpt lat="59.8505877" lon="17.6441109">
        <ele>8.30859</ele>
        <time>2014-05-29T12:30:52Z</time>
      </trkpt>
      <trkpt lat="59.8506285" lon="17.6441296">
        <ele>8.30859</ele>
        <time>2014-05-29T12:30:53Z</time>
      </trkpt>
      <trkpt lat="59.8506684" lon="17.6441341">
        <ele>8.30859</ele>
        <time>2014-05-29T12:30:54Z</time>
      </trkpt>
      <trkpt lat="59.8507074" lon="17.6441288">
        <ele>7.82788</ele>
        <time>2014-05-29T12:30:55Z</time>
      </trkpt>
      <trkpt lat="59.8507437" lon="17.6441211">
        <ele>7.82788</ele>
        <time>2014-05-29T12:30:56Z</time>
      </trkpt>
      <trkpt lat="59.8507768" lon="17.6441305">
        <ele>7.82788</ele>
        <time>2014-05-29T12:30:57Z</time>
      </trkpt>
      <trkpt lat="59.8507992" lon="17.6441684">
        <ele>7.82788</ele>
        <time>2014-05-29T12:30:58Z</time>
      </trkpt>
      <trkpt lat="59.8508135" lon="17.6442219">
        <ele>7.82788</ele>
        <time>2014-05-29T12:30:59Z</time>
      </trkpt>
      <trkpt lat="59.8508276" lon="17.6442829">
        <ele>8.30859</ele>
        <time>2014-05-29T12:31:00Z</time>
      </trkpt>
      <trkpt lat="59.8508488" lon="17.64434">
        <ele>8.30859</ele>
        <time>2014-05-29T12:31:01Z</time>
      </trkpt>
      <trkpt lat="59.8508757" lon="17.6443848">
        <ele>8.30859</ele>
        <time>2014-05-29T12:31:02Z</time>
      </trkpt>
      <trkpt lat="59.850904" lon="17.6444269">
        <ele>8.30859</ele>
        <time>2014-05-29T12:31:03Z</time>
      </trkpt>
      <trkpt lat="59.8509322" lon="17.6444658">
        <ele>7.82788</ele>
        <time>2014-05-29T12:31:04Z</time>
      </trkpt>
      <trkpt lat="59.8509612" lon="17.6445045">
        <ele>7.34717</ele>
        <time>2014-05-29T12:31:05Z</time>
      </trkpt>
      <trkpt lat="59.850989" lon="17.6445445">
        <ele>7.34717</ele>
        <time>2014-05-29T12:31:06Z</time>
      </trkpt>
      <trkpt lat="59.8510182" lon="17.6445715">
        <ele>6.86646</ele>
        <time>2014-05-29T12:31:07Z</time>
      </trkpt>
      <trkpt lat="59.8510503" lon="17.6445845">
        <ele>6.86646</ele>
        <time>2014-05-29T12:31:08Z</time>
      </trkpt>
      <trkpt lat="59.8510819" lon="17.6446004">
        <ele>6.38586</ele>
        <time>2014-05-29T12:31:09Z</time>
      </trkpt>
      <trkpt lat="59.8511047" lon="17.6446326">
        <ele>6.38586</ele>
        <time>2014-05-29T12:31:10Z</time>
      </trkpt>
      <trkpt lat="59.8511148" lon="17.6446832">
        <ele>6.38586</ele>
        <time>2014-05-29T12:31:11Z</time>
      </trkpt>
      <trkpt lat="59.8511218" lon="17.6447363">
        <ele>6.38586</ele>
        <time>2014-05-29T12:31:12Z</time>
      </trkpt>
      <trkpt lat="59.8511384" lon="17.6447749">
        <ele>6.86646</ele>
        <time>2014-05-29T12:31:13Z</time>
      </trkpt>
      <trkpt lat="59.8511616" lon="17.6447989">
        <ele>6.38586</ele>
        <time>2014-05-29T12:31:14Z</time>
      </trkpt>
      <trkpt lat="59.8511876" lon="17.6448127">
        <ele>6.38586</ele>
        <time>2014-05-29T12:31:15Z</time>
      </trkpt>
      <trkpt lat="59.8512154" lon="17.6448285">
        <ele>6.38586</ele>
        <time>2014-05-29T12:31:16Z</time>
      </trkpt>
      <trkpt lat="59.8512471" lon="17.644851">
        <ele>6.38586</ele>
        <time>2014-05-29T12:31:17Z</time>
      </trkpt>
      <trkpt lat="59.8512755" lon="17.6448765">
        <ele>5.42456</ele>
        <time>2014-05-29T12:31:18Z</time>
      </trkpt>
      <trkpt lat="59.8513091" lon="17.6449007">
        <ele>4.94385</ele>
        <time>2014-05-29T12:31:19Z</time>
      </trkpt>
      <trkpt lat="59.8513466" lon="17.644922">
        <ele>5.42456</ele>
        <time>2014-05-29T12:31:20Z</time>
      </trkpt>
      <trkpt lat="59.8513813" lon="17.6449444">
        <ele>4.94385</ele>
        <time>2014-05-29T12:31:21Z</time>
      </trkpt>
      <trkpt lat="59.8514192" lon="17.644965">
        <ele>4.94385</ele>
        <time>2014-05-29T12:31:22Z</time>
      </trkpt>
      <trkpt lat="59.8514594" lon="17.6449791">
        <ele>5.42456</ele>
        <time>2014-05-29T12:31:23Z</time>
      </trkpt>
      <trkpt lat="59.8515" lon="17.6449817">
        <ele>6.38586</ele>
        <time>2014-05-29T12:31:24Z</time>
      </trkpt>
      <trkpt lat="59.8515409" lon="17.6449713">
        <ele>7.82788</ele>
        <time>2014-05-29T12:31:25Z</time>
      </trkpt>
      <trkpt lat="59.8515849" lon="17.6449548">
        <ele>8.30859</ele>
        <time>2014-05-29T12:31:26Z</time>
      </trkpt>
      <trkpt lat="59.851632" lon="17.6449186">
        <ele>9.75061</ele>
        <time>2014-05-29T12:31:27Z</time>
      </trkpt>
      <trkpt lat="59.8516776" lon="17.6448885">
        <ele>10.7118</ele>
        <time>2014-05-29T12:31:28Z</time>
      </trkpt>
      <trkpt lat="59.8517188" lon="17.6448513">
        <ele>10.7118</ele>
        <time>2014-05-29T12:31:29Z</time>
      </trkpt>
      <trkpt lat="59.8517662" lon="17.6448105">
        <ele>10.7118</ele>
        <time>2014-05-29T12:31:30Z</time>
      </trkpt>
      <trkpt lat="59.8518245" lon="17.6447698">
        <ele>11.1925</ele>
        <time>2014-05-29T12:31:31Z</time>
      </trkpt>
      <trkpt lat="59.8518776" lon="17.6447249">
        <ele>10.7118</ele>
        <time>2014-05-29T12:31:32Z</time>
      </trkpt>
      <trkpt lat="59.8519381" lon="17.6446611">
        <ele>12.1538</ele>
        <time>2014-05-29T12:31:33Z</time>
      </trkpt>
      <trkpt lat="59.8520019" lon="17.6445994">
        <ele>13.5958</ele>
        <time>2014-05-29T12:31:34Z</time>
      </trkpt>
      <trkpt lat="59.8520388" lon="17.644543">
        <ele>13.1151</ele>
        <time>2014-05-29T12:31:35Z</time>
      </trkpt>
      <trkpt lat="59.852075" lon="17.6444891">
        <ele>13.1151</ele>
        <time>2014-05-29T12:31:36Z</time>
      </trkpt>
      <trkpt lat="59.8521344" lon="17.6444306">
        <ele>15.0377</ele>
        <time>2014-05-29T12:31:37Z</time>
      </trkpt>
      <trkpt lat="59.8521726" lon="17.6443824">
        <ele>15.999</ele>
        <time>2014-05-29T12:31:38Z</time>
      </trkpt>
      <trkpt lat="59.8522262" lon="17.644334">
        <ele>17.9218</ele>
        <time>2014-05-29T12:31:39Z</time>
      </trkpt>
      <trkpt lat="59.8522567" lon="17.6442927">
        <ele>17.9218</ele>
        <time>2014-05-29T12:31:40Z</time>
      </trkpt>
      <trkpt lat="59.8523004" lon="17.6442425">
        <ele>18.8831</ele>
        <time>2014-05-29T12:31:41Z</time>
      </trkpt>
      <trkpt lat="59.8523426" lon="17.6441937">
        <ele>18.8831</ele>
        <time>2014-05-29T12:31:42Z</time>
      </trkpt>
      <trkpt lat="59.8523825" lon="17.6441506">
        <ele>18.4023</ele>
        <time>2014-05-29T12:31:43Z</time>
      </trkpt>
      <trkpt lat="59.8524182" lon="17.6441037">
        <ele>17.9218</ele>
        <time>2014-05-29T12:31:44Z</time>
      </trkpt>
      <trkpt lat="59.852452" lon="17.6440659">
        <ele>17.4412</ele>
        <time>2014-05-29T12:31:45Z</time>
      </trkpt>
      <trkpt lat="59.8524861" lon="17.6440291">
        <ele>16.4797</ele>
        <time>2014-05-29T12:31:46Z</time>
      </trkpt>
      <trkpt lat="59.8525148" lon="17.6439959">
        <ele>15.999</ele>
        <time>2014-05-29T12:31:47Z</time>
      </trkpt>
      <trkpt lat="59.8525427" lon="17.6439574">
        <ele>15.0377</ele>
        <time>2014-05-29T12:31:48Z</time>
      </trkpt>
      <trkpt lat="59.8525717" lon="17.6439125">
        <ele>14.0764</ele>
        <time>2014-05-29T12:31:49Z</time>
      </trkpt>
      <trkpt lat="59.8526067" lon="17.6438755">
        <ele>14.557</ele>
        <time>2014-05-29T12:31:50Z</time>
      </trkpt>
      <trkpt lat="59.8526533" lon="17.6438192">
        <ele>15.999</ele>
        <time>2014-05-29T12:31:51Z</time>
      </trkpt>
      <trkpt lat="59.8526908" lon="17.6437699">
        <ele>15.999</ele>
        <time>2014-05-29T12:31:52Z</time>
      </trkpt>
      <trkpt lat="59.8527249" lon="17.6437328">
        <ele>15.5184</ele>
        <time>2014-05-29T12:31:53Z</time>
      </trkpt>
      <trkpt lat="59.8527671" lon="17.6436859">
        <ele>15.5184</ele>
        <time>2014-05-29T12:31:54Z</time>
      </trkpt>
      <trkpt lat="59.8528099" lon="17.643635">
        <ele>15.0377</ele>
        <time>2014-05-29T12:31:55Z</time>
      </trkpt>
      <trkpt lat="59.8528457" lon="17.6435778">
        <ele>15.0377</ele>
        <time>2014-05-29T12:31:56Z</time>
      </trkpt>
      <trkpt lat="59.8528804" lon="17.6435114">
        <ele>14.0764</ele>
        <time>2014-05-29T12:31:57Z</time>
      </trkpt>
      <trkpt lat="59.8529245" lon="17.6434417">
        <ele>14.0764</ele>
        <time>2014-05-29T12:31:58Z</time>
      </trkpt>
      <trkpt lat="59.8529657" lon="17.6433748">
        <ele>13.1151</ele>
        <time>2014-05-29T12:31:59Z</time>
      </trkpt>
      <trkpt lat="59.853002" lon="17.6432814">
        <ele>12.6344</ele>
        <time>2014-05-29T12:32:00Z</time>
      </trkpt>
      <trkpt lat="59.8530481" lon="17.643192">
        <ele>12.6344</ele>
        <time>2014-05-29T12:32:01Z</time>
      </trkpt>
      <trkpt lat="59.8530908" lon="17.6431206">
        <ele>12.6344</ele>
        <time>2014-05-29T12:32:02Z</time>
      </trkpt>
      <trkpt lat="59.8531368" lon="17.6430407">
        <ele>12.6344</ele>
        <time>2014-05-29T12:32:03Z</time>
      </trkpt>
      <trkpt lat="59.8531845" lon="17.6429578">
        <ele>12.1538</ele>
        <time>2014-05-29T12:32:04Z</time>
      </trkpt>
      <trkpt lat="59.8532328" lon="17.6428737">
        <ele>12.1538</ele>
        <time>2014-05-29T12:32:05Z</time>
      </trkpt>
      <trkpt lat="59.8532744" lon="17.6427998">
        <ele>12.1538</ele>
        <time>2014-05-29T12:32:06Z</time>
      </trkpt>
      <trkpt lat="59.853303" lon="17.6427364">
        <ele>11.6732</ele>
        <time>2014-05-29T12:32:07Z</time>
      </trkpt>
      <trkpt lat="59.8533269" lon="17.6426785">
        <ele>10.7118</ele>
        <time>2014-05-29T12:32:08Z</time>
      </trkpt>
      <trkpt lat="59.8533555" lon="17.6426201">
        <ele>10.7118</ele>
        <time>2014-05-29T12:32:09Z</time>
      </trkpt>
      <trkpt lat="59.8533776" lon="17.6425652">
        <ele>9.2699</ele>
        <time>2014-05-29T12:32:10Z</time>
      </trkpt>
      <trkpt lat="59.8534076" lon="17.6425197">
        <ele>9.2699</ele>
        <time>2014-05-29T12:32:11Z</time>
      </trkpt>
      <trkpt lat="59.8534345" lon="17.642474">
        <ele>8.78918</ele>
        <time>2014-05-29T12:32:12Z</time>
      </trkpt>
      <trkpt lat="59.8534622" lon="17.6424212">
        <ele>8.78918</ele>
        <time>2014-05-29T12:32:13Z</time>
      </trkpt>
      <trkpt lat="59.853488" lon="17.6423771">
        <ele>8.30859</ele>
        <time>2014-05-29T12:32:14Z</time>
      </trkpt>
      <trkpt lat="59.8535212" lon="17.6423263">
        <ele>7.82788</ele>
        <time>2014-05-29T12:32:15Z</time>
      </trkpt>
      <trkpt lat="59.8535527" lon="17.6422668">
        <ele>7.82788</ele>
        <time>2014-05-29T12:32:16Z</time>
      </trkpt>
      <trkpt lat="59.8535828" lon="17.6422004">
        <ele>7.82788</ele>
        <time>2014-05-29T12:32:17Z</time>
      </trkpt>
      <trkpt lat="59.8536175" lon="17.6421271">
        <ele>7.82788</ele>
        <time>2014-05-29T12:32:18Z</time>
      </trkpt>
      <trkpt lat="59.8536539" lon="17.6420581">
        <ele>7.82788</ele>
        <time>2014-05-29T12:32:19Z</time>
      </trkpt>
      <trkpt lat="59.8536909" lon="17.6419979">
        <ele>7.34717</ele>
        <time>2014-05-29T12:32:20Z</time>
      </trkpt>
      <trkpt lat="59.8537325" lon="17.6419456">
        <ele>7.34717</ele>
        <time>2014-05-29T12:32:21Z</time>
      </trkpt>
      <trkpt lat="59.8537781" lon="17.6419055">
        <ele>6.86646</ele>
        <time>2014-05-29T12:32:22Z</time>
      </trkpt>
      <trkpt lat="59.8538283" lon="17.6418778">
        <ele>6.86646</ele>
        <time>2014-05-29T12:32:23Z</time>
      </trkpt>
      <trkpt lat="59.8538786" lon="17.6418607">
        <ele>6.38586</ele>
        <time>2014-05-29T12:32:24Z</time>
      </trkpt>
      <trkpt lat="59.8539283" lon="17.641843">
        <ele>5.90527</ele>
        <time>2014-05-29T12:32:25Z</time>
      </trkpt>
      <trkpt lat="59.8539795" lon="17.6418208">
        <ele>5.42456</ele>
        <time>2014-05-29T12:32:26Z</time>
      </trkpt>
      <trkpt lat="59.8540289" lon="17.6417985">
        <ele>5.42456</ele>
        <time>2014-05-29T12:32:27Z</time>
      </trkpt>
      <trkpt lat="59.8540765" lon="17.6417706">
        <ele>4.94385</ele>
        <time>2014-05-29T12:32:28Z</time>
      </trkpt>
      <trkpt lat="59.8541206" lon="17.6417364">
        <ele>4.94385</ele>
        <time>2014-05-29T12:32:29Z</time>
      </trkpt>
      <trkpt lat="59.8541626" lon="17.6416933">
        <ele>5.42456</ele>
        <time>2014-05-29T12:32:30Z</time>
      </trkpt>
      <trkpt lat="59.8542007" lon="17.641646">
        <ele>5.42456</ele>
        <time>2014-05-29T12:32:31Z</time>
      </trkpt>
      <trkpt lat="59.8542417" lon="17.6416044">
        <ele>5.42456</ele>
        <time>2014-05-29T12:32:32Z</time>
      </trkpt>
      <trkpt lat="59.8542853" lon="17.6415721">
        <ele>5.90527</ele>
        <time>2014-05-29T12:32:33Z</time>
      </trkpt>
      <trkpt lat="59.8543283" lon="17.6415395">
        <ele>5.90527</ele>
        <time>2014-05-29T12:32:34Z</time>
      </trkpt>
      <trkpt lat="59.8543671" lon="17.6415059">
        <ele>5.90527</ele>
        <time>2014-05-29T12:32:35Z</time>
      </trkpt>
      <trkpt lat="59.8544003" lon="17.6414728">
        <ele>5.90527</ele>
        <time>2014-05-29T12:32:36Z</time>
      </trkpt>
      <trkpt lat="59.854437" lon="17.6414319">
        <ele>5.90527</ele>
        <time>2014-05-29T12:32:37Z</time>
      </trkpt>
      <trkpt lat="59.8544769" lon="17.6413855">
        <ele>5.90527</ele>
        <time>2014-05-29T12:32:38Z</time>
      </trkpt>
      <trkpt lat="59.8545178" lon="17.6413448">
        <ele>6.38586</ele>
        <time>2014-05-29T12:32:39Z</time>
      </trkpt>
      <trkpt lat="59.8545612" lon="17.6413062">
        <ele>6.38586</ele>
        <time>2014-05-29T12:32:40Z</time>
      </trkpt>
      <trkpt lat="59.8546049" lon="17.6412658">
        <ele>6.38586</ele>
        <time>2014-05-29T12:32:41Z</time>
      </trkpt>
      <trkpt lat="59.8546456" lon="17.641221">
        <ele>6.38586</ele>
        <time>2014-05-29T12:32:42Z</time>
      </trkpt>
      <trkpt lat="59.8546857" lon="17.6411783">
        <ele>6.86646</ele>
        <time>2014-05-29T12:32:43Z</time>
      </trkpt>
      <trkpt lat="59.8547297" lon="17.6411581">
        <ele>7.34717</ele>
        <time>2014-05-29T12:32:44Z</time>
      </trkpt>
      <trkpt lat="59.8547738" lon="17.6411623">
        <ele>7.82788</ele>
        <time>2014-05-29T12:32:45Z</time>
      </trkpt>
      <trkpt lat="59.8548207" lon="17.6411661">
        <ele>8.30859</ele>
        <time>2014-05-29T12:32:46Z</time>
      </trkpt>
      <trkpt lat="59.8548701" lon="17.6411608">
        <ele>8.30859</ele>
        <time>2014-05-29T12:32:47Z</time>
      </trkpt>
      <trkpt lat="59.854921" lon="17.6411463">
        <ele>8.30859</ele>
        <time>2014-05-29T12:32:48Z</time>
      </trkpt>
      <trkpt lat="59.8549737" lon="17.6411241">
        <ele>8.30859</ele>
        <time>2014-05-29T12:32:49Z</time>
      </trkpt>
      <trkpt lat="59.8550263" lon="17.6410905">
        <ele>8.30859</ele>
        <time>2014-05-29T12:32:50Z</time>
      </trkpt>
      <trkpt lat="59.8550778" lon="17.6410431">
        <ele>8.30859</ele>
        <time>2014-05-29T12:32:51Z</time>
      </trkpt>
      <trkpt lat="59.8551282" lon="17.6409878">
        <ele>7.82788</ele>
        <time>2014-05-29T12:32:52Z</time>
      </trkpt>
      <trkpt lat="59.8551778" lon="17.6409308">
        <ele>7.82788</ele>
        <time>2014-05-29T12:32:53Z</time>
      </trkpt>
      <trkpt lat="59.8552261" lon="17.6408723">
        <ele>7.82788</ele>
        <time>2014-05-29T12:32:54Z</time>
      </trkpt>
      <trkpt lat="59.8552729" lon="17.6408163">
        <ele>7.82788</ele>
        <time>2014-05-29T12:32:55Z</time>
      </trkpt>
      <trkpt lat="59.8553185" lon="17.6407652">
        <ele>8.30859</ele>
        <time>2014-05-29T12:32:56Z</time>
      </trkpt>
      <trkpt lat="59.8553689" lon="17.640706">
        <ele>8.78918</ele>
        <time>2014-05-29T12:32:57Z</time>
      </trkpt>
      <trkpt lat="59.8554161" lon="17.6406495">
        <ele>9.75061</ele>
        <time>2014-05-29T12:32:58Z</time>
      </trkpt>
      <trkpt lat="59.8554635" lon="17.6405957">
        <ele>10.7118</ele>
        <time>2014-05-29T12:32:59Z</time>
      </trkpt>
      <trkpt lat="59.8555081" lon="17.6405491">
        <ele>11.6732</ele>
        <time>2014-05-29T12:33:00Z</time>
      </trkpt>
      <trkpt lat="59.8555502" lon="17.6405061">
        <ele>12.6344</ele>
        <time>2014-05-29T12:33:01Z</time>
      </trkpt>
      <trkpt lat="59.8555952" lon="17.6404584">
        <ele>13.1151</ele>
        <time>2014-05-29T12:33:02Z</time>
      </trkpt>
      <trkpt lat="59.8556402" lon="17.6404095">
        <ele>13.5958</ele>
        <time>2014-05-29T12:33:03Z</time>
      </trkpt>
      <trkpt lat="59.855686" lon="17.6403554">
        <ele>13.1151</ele>
        <time>2014-05-29T12:33:04Z</time>
      </trkpt>
      <trkpt lat="59.8557331" lon="17.6402984">
        <ele>12.6344</ele>
        <time>2014-05-29T12:33:05Z</time>
      </trkpt>
      <trkpt lat="59.8557793" lon="17.6402434">
        <ele>12.6344</ele>
        <time>2014-05-29T12:33:06Z</time>
      </trkpt>
      <trkpt lat="59.8558247" lon="17.6401886">
        <ele>12.6344</ele>
        <time>2014-05-29T12:33:07Z</time>
      </trkpt>
      <trkpt lat="59.8558702" lon="17.6401335">
        <ele>12.6344</ele>
        <time>2014-05-29T12:33:08Z</time>
      </trkpt>
      <trkpt lat="59.8559143" lon="17.6400824">
        <ele>13.1151</ele>
        <time>2014-05-29T12:33:09Z</time>
      </trkpt>
      <trkpt lat="59.8559583" lon="17.6400315">
        <ele>13.5958</ele>
        <time>2014-05-29T12:33:10Z</time>
      </trkpt>
      <trkpt lat="59.8560004" lon="17.6399807">
        <ele>14.0764</ele>
        <time>2014-05-29T12:33:11Z</time>
      </trkpt>
      <trkpt lat="59.8560447" lon="17.6399295">
        <ele>14.0764</ele>
        <time>2014-05-29T12:33:12Z</time>
      </trkpt>
      <trkpt lat="59.8560895" lon="17.639877">
        <ele>13.5958</ele>
        <time>2014-05-29T12:33:13Z</time>
      </trkpt>
      <trkpt lat="59.8561355" lon="17.6398218">
        <ele>13.5958</ele>
        <time>2014-05-29T12:33:14Z</time>
      </trkpt>
      <trkpt lat="59.8561821" lon="17.6397677">
        <ele>13.5958</ele>
        <time>2014-05-29T12:33:15Z</time>
      </trkpt>
      <trkpt lat="59.8562303" lon="17.6397175">
        <ele>13.5958</ele>
        <time>2014-05-29T12:33:16Z</time>
      </trkpt>
      <trkpt lat="59.8562794" lon="17.6396649">
        <ele>13.5958</ele>
        <time>2014-05-29T12:33:17Z</time>
      </trkpt>
      <trkpt lat="59.856327" lon="17.6396109">
        <ele>14.0764</ele>
        <time>2014-05-29T12:33:18Z</time>
      </trkpt>
      <trkpt lat="59.8563734" lon="17.6395565">
        <ele>14.0764</ele>
        <time>2014-05-29T12:33:19Z</time>
      </trkpt>
      <trkpt lat="59.8564213" lon="17.6394991">
        <ele>14.557</ele>
        <time>2014-05-29T12:33:20Z</time>
      </trkpt>
      <trkpt lat="59.8564683" lon="17.6394426">
        <ele>14.0764</ele>
        <time>2014-05-29T12:33:21Z</time>
      </trkpt>
      <trkpt lat="59.8565161" lon="17.6393859">
        <ele>13.5958</ele>
        <time>2014-05-29T12:33:22Z</time>
      </trkpt>
      <trkpt lat="59.8565645" lon="17.6393262">
        <ele>13.5958</ele>
        <time>2014-05-29T12:33:23Z</time>
      </trkpt>
      <trkpt lat="59.8566116" lon="17.6392691">
        <ele>13.1151</ele>
        <time>2014-05-29T12:33:24Z</time>
      </trkpt>
      <trkpt lat="59.8566587" lon="17.6392119">
        <ele>12.6344</ele>
        <time>2014-05-29T12:33:25Z</time>
      </trkpt>
      <trkpt lat="59.8567054" lon="17.6391562">
        <ele>12.6344</ele>
        <time>2014-05-29T12:33:26Z</time>
      </trkpt>
      <trkpt lat="59.8567521" lon="17.6391005">
        <ele>11.6732</ele>
        <time>2014-05-29T12:33:27Z</time>
      </trkpt>
      <trkpt lat="59.8567986" lon="17.6390475">
        <ele>11.1925</ele>
        <time>2014-05-29T12:33:28Z</time>
      </trkpt>
      <trkpt lat="59.8568385" lon="17.6390045">
        <ele>11.1925</ele>
        <time>2014-05-29T12:33:29Z</time>
      </trkpt>
      <trkpt lat="59.8568694" lon="17.6389742">
        <ele>12.6344</ele>
        <time>2014-05-29T12:33:30Z</time>
      </trkpt>
      <trkpt lat="59.8569046" lon="17.6389342">
        <ele>13.5958</ele>
        <time>2014-05-29T12:33:31Z</time>
      </trkpt>
      <trkpt lat="59.8569484" lon="17.6388841">
        <ele>11.6732</ele>
        <time>2014-05-29T12:33:32Z</time>
      </trkpt>
      <trkpt lat="59.8569943" lon="17.6388236">
        <ele>11.6732</ele>
        <time>2014-05-29T12:33:33Z</time>
      </trkpt>
      <trkpt lat="59.8570384" lon="17.6387598">
        <ele>11.6732</ele>
        <time>2014-05-29T12:33:34Z</time>
      </trkpt>
      <trkpt lat="59.8570798" lon="17.6386966">
        <ele>11.1925</ele>
        <time>2014-05-29T12:33:35Z</time>
      </trkpt>
      <trkpt lat="59.8571188" lon="17.6386313">
        <ele>11.1925</ele>
        <time>2014-05-29T12:33:36Z</time>
      </trkpt>
      <trkpt lat="59.8571581" lon="17.638559">
        <ele>11.6732</ele>
        <time>2014-05-29T12:33:37Z</time>
      </trkpt>
      <trkpt lat="59.8571978" lon="17.6384882">
        <ele>11.1925</ele>
        <time>2014-05-29T12:33:38Z</time>
      </trkpt>
      <trkpt lat="59.8572348" lon="17.638421">
        <ele>10.7118</ele>
        <time>2014-05-29T12:33:39Z</time>
      </trkpt>
      <trkpt lat="59.8572735" lon="17.6383507">
        <ele>10.7118</ele>
        <time>2014-05-29T12:33:40Z</time>
      </trkpt>
      <trkpt lat="59.8573104" lon="17.6382802">
        <ele>11.1925</ele>
        <time>2014-05-29T12:33:41Z</time>
      </trkpt>
      <trkpt lat="59.8573472" lon="17.6382072">
        <ele>11.1925</ele>
        <time>2014-05-29T12:33:42Z</time>
      </trkpt>
      <trkpt lat="59.8573851" lon="17.6381341">
        <ele>11.6732</ele>
        <time>2014-05-29T12:33:43Z</time>
      </trkpt>
      <trkpt lat="59.8574228" lon="17.6380625">
        <ele>11.6732</ele>
        <time>2014-05-29T12:33:44Z</time>
      </trkpt>
      <trkpt lat="59.8574611" lon="17.6379882">
        <ele>12.1538</ele>
        <time>2014-05-29T12:33:45Z</time>
      </trkpt>
      <trkpt lat="59.8574978" lon="17.6379113">
        <ele>12.1538</ele>
        <time>2014-05-29T12:33:46Z</time>
      </trkpt>
      <trkpt lat="59.8575359" lon="17.6378363">
        <ele>11.6732</ele>
        <time>2014-05-29T12:33:47Z</time>
      </trkpt>
      <trkpt lat="59.8575758" lon="17.6377625">
        <ele>11.6732</ele>
        <time>2014-05-29T12:33:48Z</time>
      </trkpt>
      <trkpt lat="59.8576179" lon="17.637705">
        <ele>11.1925</ele>
        <time>2014-05-29T12:33:49Z</time>
      </trkpt>
      <trkpt lat="59.8576615" lon="17.6376529">
        <ele>10.7118</ele>
        <time>2014-05-29T12:33:50Z</time>
      </trkpt>
      <trkpt lat="59.8577" lon="17.6375908">
        <ele>9.75061</ele>
        <time>2014-05-29T12:33:51Z</time>
      </trkpt>
      <trkpt lat="59.8577326" lon="17.6375219">
        <ele>8.78918</ele>
        <time>2014-05-29T12:33:52Z</time>
      </trkpt>
      <trkpt lat="59.8577678" lon="17.6374492">
        <ele>10.2312</ele>
        <time>2014-05-29T12:33:53Z</time>
      </trkpt>
      <trkpt lat="59.8577952" lon="17.6373787">
        <ele>10.2312</ele>
        <time>2014-05-29T12:33:54Z</time>
      </trkpt>
      <trkpt lat="59.8578217" lon="17.6373065">
        <ele>10.2312</ele>
        <time>2014-05-29T12:33:55Z</time>
      </trkpt>
      <trkpt lat="59.8578502" lon="17.6372297">
        <ele>9.75061</ele>
        <time>2014-05-29T12:33:56Z</time>
      </trkpt>
      <trkpt lat="59.8578785" lon="17.6371467">
        <ele>9.2699</ele>
        <time>2014-05-29T12:33:57Z</time>
      </trkpt>
      <trkpt lat="59.8579085" lon="17.6370587">
        <ele>9.75061</ele>
        <time>2014-05-29T12:33:58Z</time>
      </trkpt>
      <trkpt lat="59.8579373" lon="17.6369707">
        <ele>10.2312</ele>
        <time>2014-05-29T12:33:59Z</time>
      </trkpt>
      <trkpt lat="59.8579662" lon="17.6368841">
        <ele>10.7118</ele>
        <time>2014-05-29T12:34:00Z</time>
      </trkpt>
      <trkpt lat="59.8579922" lon="17.6367977">
        <ele>11.1925</ele>
        <time>2014-05-29T12:34:01Z</time>
      </trkpt>
      <trkpt lat="59.8580173" lon="17.6367139">
        <ele>11.1925</ele>
        <time>2014-05-29T12:34:02Z</time>
      </trkpt>
      <trkpt lat="59.8580443" lon="17.636635">
        <ele>11.6732</ele>
        <time>2014-05-29T12:34:03Z</time>
      </trkpt>
      <trkpt lat="59.8580724" lon="17.6365579">
        <ele>12.1538</ele>
        <time>2014-05-29T12:34:04Z</time>
      </trkpt>
      <trkpt lat="59.8580988" lon="17.6364786">
        <ele>12.6344</ele>
        <time>2014-05-29T12:34:05Z</time>
      </trkpt>
      <trkpt lat="59.8581231" lon="17.6363978">
        <ele>12.6344</ele>
        <time>2014-05-29T12:34:06Z</time>
      </trkpt>
      <trkpt lat="59.8581473" lon="17.6363196">
        <ele>13.1151</ele>
        <time>2014-05-29T12:34:07Z</time>
      </trkpt>
      <trkpt lat="59.8581718" lon="17.6362445">
        <ele>13.1151</ele>
        <time>2014-05-29T12:34:08Z</time>
      </trkpt>
      <trkpt lat="59.8581962" lon="17.6361725">
        <ele>13.5958</ele>
        <time>2014-05-29T12:34:09Z</time>
      </trkpt>
      <trkpt lat="59.8582205" lon="17.636104">
        <ele>13.1151</ele>
        <time>2014-05-29T12:34:10Z</time>
      </trkpt>
      <trkpt lat="59.8582455" lon="17.6360376">
        <ele>13.1151</ele>
        <time>2014-05-29T12:34:11Z</time>
      </trkpt>
      <trkpt lat="59.8582724" lon="17.6359759">
        <ele>13.1151</ele>
        <time>2014-05-29T12:34:12Z</time>
      </trkpt>
      <trkpt lat="59.8583002" lon="17.6359168">
        <ele>13.1151</ele>
        <time>2014-05-29T12:34:13Z</time>
      </trkpt>
      <trkpt lat="59.8583257" lon="17.6358595">
        <ele>13.1151</ele>
        <time>2014-05-29T12:34:14Z</time>
      </trkpt>
      <trkpt lat="59.858352" lon="17.6358151">
        <ele>13.1151</ele>
        <time>2014-05-29T12:34:15Z</time>
      </trkpt>
      <trkpt lat="59.8583812" lon="17.6357863">
        <ele>13.1151</ele>
        <time>2014-05-29T12:34:16Z</time>
      </trkpt>
      <trkpt lat="59.8584134" lon="17.6357731">
        <ele>12.6344</ele>
        <time>2014-05-29T12:34:17Z</time>
      </trkpt>
      <trkpt lat="59.8584454" lon="17.63577">
        <ele>12.6344</ele>
        <time>2014-05-29T12:34:18Z</time>
      </trkpt>
      <trkpt lat="59.8584774" lon="17.635779">
        <ele>12.1538</ele>
        <time>2014-05-29T12:34:19Z</time>
      </trkpt>
      <trkpt lat="59.8585096" lon="17.6358082">
        <ele>12.1538</ele>
        <time>2014-05-29T12:34:20Z</time>
      </trkpt>
      <trkpt lat="59.8585381" lon="17.6358565">
        <ele>11.6732</ele>
        <time>2014-05-29T12:34:21Z</time>
      </trkpt>
      <trkpt lat="59.8585656" lon="17.6359124">
        <ele>11.6732</ele>
        <time>2014-05-29T12:34:22Z</time>
      </trkpt>
      <trkpt lat="59.858594" lon="17.6359678">
        <ele>11.6732</ele>
        <time>2014-05-29T12:34:23Z</time>
      </trkpt>
      <trkpt lat="59.8586209" lon="17.6360194">
        <ele>11.6732</ele>
        <time>2014-05-29T12:34:24Z</time>
      </trkpt>
      <trkpt lat="59.8586436" lon="17.6360663">
        <ele>12.1538</ele>
        <time>2014-05-29T12:34:25Z</time>
      </trkpt>
      <trkpt lat="59.858661" lon="17.6361005">
        <ele>12.1538</ele>
        <time>2014-05-29T12:34:26Z</time>
      </trkpt>
      <trkpt lat="59.8586733" lon="17.6361257">
        <ele>12.1538</ele>
        <time>2014-05-29T12:34:27Z</time>
      </trkpt>
      <trkpt lat="59.8586827" lon="17.636145">
        <ele>12.1538</ele>
        <time>2014-05-29T12:34:28Z</time>
      </trkpt>
      <trkpt lat="59.8586942" lon="17.6361657">
        <ele>12.1538</ele>
        <time>2014-05-29T12:34:29Z</time>
      </trkpt>
      <trkpt lat="59.8587135" lon="17.6361824">
        <ele>12.6344</ele>
        <time>2014-05-29T12:34:30Z</time>
      </trkpt>
      <trkpt lat="59.8587406" lon="17.6361847">
        <ele>12.6344</ele>
        <time>2014-05-29T12:34:31Z</time>
      </trkpt>
      <trkpt lat="59.8587716" lon="17.6361754">
        <ele>12.1538</ele>
        <time>2014-05-29T12:34:32Z</time>
      </trkpt>
      <trkpt lat="59.8588039" lon="17.6361482">
        <ele>12.1538</ele>
        <time>2014-05-29T12:34:33Z</time>
      </trkpt>
      <trkpt lat="59.8588344" lon="17.6361002">
        <ele>11.6732</ele>
        <time>2014-05-29T12:34:34Z</time>
      </trkpt>
      <trkpt lat="59.8588654" lon="17.6360414">
        <ele>11.6732</ele>
        <time>2014-05-29T12:34:35Z</time>
      </trkpt>
      <trkpt lat="59.8589021" lon="17.6359735">
        <ele>11.6732</ele>
        <time>2014-05-29T12:34:36Z</time>
      </trkpt>
      <trkpt lat="59.8589365" lon="17.6359032">
        <ele>11.6732</ele>
        <time>2014-05-29T12:34:37Z</time>
      </trkpt>
      <trkpt lat="59.8589737" lon="17.6358319">
        <ele>11.6732</ele>
        <time>2014-05-29T12:34:38Z</time>
      </trkpt>
      <trkpt lat="59.859009" lon="17.6357561">
        <ele>11.6732</ele>
        <time>2014-05-29T12:34:39Z</time>
      </trkpt>
      <trkpt lat="59.8590457" lon="17.6356815">
        <ele>11.6732</ele>
        <time>2014-05-29T12:34:40Z</time>
      </trkpt>
      <trkpt lat="59.8590852" lon="17.6356104">
        <ele>11.6732</ele>
        <time>2014-05-29T12:34:41Z</time>
      </trkpt>
      <trkpt lat="59.8591275" lon="17.63554">
        <ele>12.1538</ele>
        <time>2014-05-29T12:34:42Z</time>
      </trkpt>
      <trkpt lat="59.8591657" lon="17.6354641">
        <ele>12.1538</ele>
        <time>2014-05-29T12:34:43Z</time>
      </trkpt>
      <trkpt lat="59.8592061" lon="17.6353891">
        <ele>12.1538</ele>
        <time>2014-05-29T12:34:44Z</time>
      </trkpt>
      <trkpt lat="59.8592462" lon="17.6353136">
        <ele>12.6344</ele>
        <time>2014-05-29T12:34:45Z</time>
      </trkpt>
      <trkpt lat="59.8592877" lon="17.6352394">
        <ele>12.6344</ele>
        <time>2014-05-29T12:34:46Z</time>
      </trkpt>
      <trkpt lat="59.8593286" lon="17.6351636">
        <ele>12.6344</ele>
        <time>2014-05-29T12:34:47Z</time>
      </trkpt>
      <trkpt lat="59.8593688" lon="17.6350867">
        <ele>12.6344</ele>
        <time>2014-05-29T12:34:48Z</time>
      </trkpt>
      <trkpt lat="59.8594111" lon="17.6350108">
        <ele>12.6344</ele>
        <time>2014-05-29T12:34:49Z</time>
      </trkpt>
      <trkpt lat="59.8594529" lon="17.6349339">
        <ele>12.6344</ele>
        <time>2014-05-29T12:34:50Z</time>
      </trkpt>
      <trkpt lat="59.8594964" lon="17.6348602">
        <ele>12.6344</ele>
        <time>2014-05-29T12:34:51Z</time>
      </trkpt>
      <trkpt lat="59.8595403" lon="17.6347785">
        <ele>12.6344</ele>
        <time>2014-05-29T12:34:52Z</time>
      </trkpt>
      <trkpt lat="59.8595799" lon="17.6346874">
        <ele>13.1151</ele>
        <time>2014-05-29T12:34:53Z</time>
      </trkpt>
      <trkpt lat="59.8596138" lon="17.6345944">
        <ele>11.6732</ele>
        <time>2014-05-29T12:34:54Z</time>
      </trkpt>
      <trkpt lat="59.8596527" lon="17.634508">
        <ele>11.1925</ele>
        <time>2014-05-29T12:34:55Z</time>
      </trkpt>
      <trkpt lat="59.8597099" lon="17.6343574">
        <ele>12.6344</ele>
        <time>2014-05-29T12:34:56Z</time>
      </trkpt>
      <trkpt lat="59.8597113" lon="17.6342827">
        <ele>11.6732</ele>
        <time>2014-05-29T12:34:57Z</time>
      </trkpt>
      <trkpt lat="59.8597278" lon="17.6341668">
        <ele>10.2312</ele>
        <time>2014-05-29T12:34:58Z</time>
      </trkpt>
      <trkpt lat="59.8597093" lon="17.6339298">
        <ele>9.2699</ele>
        <time>2014-05-29T12:34:59Z</time>
      </trkpt>
      <trkpt lat="59.8597233" lon="17.6338408">
        <ele>8.78918</ele>
        <time>2014-05-29T12:35:00Z</time>
      </trkpt>
      <trkpt lat="59.8597754" lon="17.6338301">
        <ele>9.2699</ele>
        <time>2014-05-29T12:35:01Z</time>
      </trkpt>
      <trkpt lat="59.8598321" lon="17.6338128">
        <ele>9.2699</ele>
        <time>2014-05-29T12:35:02Z</time>
      </trkpt>
      <trkpt lat="59.8598891" lon="17.6337528">
        <ele>11.1925</ele>
        <time>2014-05-29T12:35:03Z</time>
      </trkpt>
      <trkpt lat="59.8599496" lon="17.6337195">
        <ele>13.1151</ele>
        <time>2014-05-29T12:35:04Z</time>
      </trkpt>
      <trkpt lat="59.8600066" lon="17.6337036">
        <ele>13.1151</ele>
        <time>2014-05-29T12:35:05Z</time>
      </trkpt>
      <trkpt lat="59.860063" lon="17.6337317">
        <ele>13.1151</ele>
        <time>2014-05-29T12:35:06Z</time>
      </trkpt>
      <trkpt lat="59.8601181" lon="17.6337663">
        <ele>14.557</ele>
        <time>2014-05-29T12:35:07Z</time>
      </trkpt>
      <trkpt lat="59.86016" lon="17.6337921">
        <ele>15.0377</ele>
        <time>2014-05-29T12:35:08Z</time>
      </trkpt>
      <trkpt lat="59.8601947" lon="17.6338025">
        <ele>14.0764</ele>
        <time>2014-05-29T12:35:09Z</time>
      </trkpt>
      <trkpt lat="59.8602294" lon="17.6337984">
        <ele>14.0764</ele>
        <time>2014-05-29T12:35:10Z</time>
      </trkpt>
      <trkpt lat="59.8602631" lon="17.6337769">
        <ele>14.0764</ele>
        <time>2014-05-29T12:35:11Z</time>
      </trkpt>
      <trkpt lat="59.8602962" lon="17.6337402">
        <ele>14.0764</ele>
        <time>2014-05-29T12:35:12Z</time>
      </trkpt>
      <trkpt lat="59.8603337" lon="17.6336974">
        <ele>15.5184</ele>
        <time>2014-05-29T12:35:13Z</time>
      </trkpt>
      <trkpt lat="59.8603672" lon="17.6336689">
        <ele>15.5184</ele>
        <time>2014-05-29T12:35:14Z</time>
      </trkpt>
      <trkpt lat="59.8604111" lon="17.6336133">
        <ele>16.4797</ele>
        <time>2014-05-29T12:35:15Z</time>
      </trkpt>
      <trkpt lat="59.8604546" lon="17.6335776">
        <ele>17.4412</ele>
        <time>2014-05-29T12:35:16Z</time>
      </trkpt>
      <trkpt lat="59.860492" lon="17.6335278">
        <ele>19.3638</ele>
        <time>2014-05-29T12:35:17Z</time>
      </trkpt>
      <trkpt lat="59.8605283" lon="17.6334983">
        <ele>20.8057</ele>
        <time>2014-05-29T12:35:18Z</time>
      </trkpt>
      <trkpt lat="59.8605692" lon="17.6334765">
        <ele>21.2864</ele>
        <time>2014-05-29T12:35:19Z</time>
      </trkpt>
      <trkpt lat="59.8606063" lon="17.6334353">
        <ele>22.2476</ele>
        <time>2014-05-29T12:35:20Z</time>
      </trkpt>
      <trkpt lat="59.8606547" lon="17.6334315">
        <ele>23.209</ele>
        <time>2014-05-29T12:35:21Z</time>
      </trkpt>
      <trkpt lat="59.860703" lon="17.6334117">
        <ele>22.7283</ele>
        <time>2014-05-29T12:35:22Z</time>
      </trkpt>
      <trkpt lat="59.8607478" lon="17.6333761">
        <ele>25.1317</ele>
        <time>2014-05-29T12:35:23Z</time>
      </trkpt>
      <trkpt lat="59.8607955" lon="17.633348">
        <ele>28.0155</ele>
        <time>2014-05-29T12:35:24Z</time>
      </trkpt>
      <trkpt lat="59.8608438" lon="17.6333082">
        <ele>30.8995</ele>
        <time>2014-05-29T12:35:25Z</time>
      </trkpt>
      <trkpt lat="59.8608955" lon="17.6332461">
        <ele>30.8995</ele>
        <time>2014-05-29T12:35:26Z</time>
      </trkpt>
      <trkpt lat="59.8609391" lon="17.6331986">
        <ele>32.8223</ele>
        <time>2014-05-29T12:35:27Z</time>
      </trkpt>
      <trkpt lat="59.8609825" lon="17.6331637">
        <ele>33.3029</ele>
        <time>2014-05-29T12:35:28Z</time>
      </trkpt>
      <trkpt lat="59.8610297" lon="17.6331219">
        <ele>33.3029</ele>
        <time>2014-05-29T12:35:29Z</time>
      </trkpt>
      <trkpt lat="59.8610681" lon="17.633086">
        <ele>33.3029</ele>
        <time>2014-05-29T12:35:30Z</time>
      </trkpt>
      <trkpt lat="59.8611086" lon="17.6330499">
        <ele>32.3416</ele>
        <time>2014-05-29T12:35:31Z</time>
      </trkpt>
      <trkpt lat="59.8611415" lon="17.6330206">
        <ele>31.8607</ele>
        <time>2014-05-29T12:35:32Z</time>
      </trkpt>
      <trkpt lat="59.8611681" lon="17.6330026">
        <ele>30.4188</ele>
        <time>2014-05-29T12:35:33Z</time>
      </trkpt>
      <trkpt lat="59.8611922" lon="17.6329862">
        <ele>28.9769</ele>
        <time>2014-05-29T12:35:34Z</time>
      </trkpt>
      <trkpt lat="59.8612096" lon="17.6329622">
        <ele>28.0155</ele>
        <time>2014-05-29T12:35:35Z</time>
      </trkpt>
      <trkpt lat="59.8612257" lon="17.632944">
        <ele>27.0543</ele>
        <time>2014-05-29T12:35:36Z</time>
      </trkpt>
      <trkpt lat="59.8612353" lon="17.632917">
        <ele>27.0543</ele>
        <time>2014-05-29T12:35:37Z</time>
      </trkpt>
      <trkpt lat="59.8612271" lon="17.6328784">
        <ele>26.5736</ele>
        <time>2014-05-29T12:35:38Z</time>
      </trkpt>
      <trkpt lat="59.8612125" lon="17.6328363">
        <ele>26.0929</ele>
        <time>2014-05-29T12:35:39Z</time>
      </trkpt>
      <trkpt lat="59.8611971" lon="17.6327888">
        <ele>25.6123</ele>
        <time>2014-05-29T12:35:40Z</time>
      </trkpt>
      <trkpt lat="59.8611738" lon="17.6327293">
        <ele>24.651</ele>
        <time>2014-05-29T12:35:41Z</time>
      </trkpt>
      <trkpt lat="59.8611523" lon="17.6326669">
        <ele>24.1703</ele>
        <time>2014-05-29T12:35:42Z</time>
      </trkpt>
      <trkpt lat="59.8611265" lon="17.6326039">
        <ele>23.6896</ele>
        <time>2014-05-29T12:35:43Z</time>
      </trkpt>
      <trkpt lat="59.8611049" lon="17.6325436">
        <ele>22.7283</ele>
        <time>2014-05-29T12:35:44Z</time>
      </trkpt>
      <trkpt lat="59.8610964" lon="17.6324843">
        <ele>22.2476</ele>
        <time>2014-05-29T12:35:45Z</time>
      </trkpt>
      <trkpt lat="59.8610959" lon="17.632426">
        <ele>21.2864</ele>
        <time>2014-05-29T12:35:46Z</time>
      </trkpt>
      <trkpt lat="59.8611083" lon="17.6323721">
        <ele>20.325</ele>
        <time>2014-05-29T12:35:47Z</time>
      </trkpt>
      <trkpt lat="59.8611311" lon="17.6323267">
        <ele>19.8444</ele>
        <time>2014-05-29T12:35:48Z</time>
      </trkpt>
      <trkpt lat="59.8611643" lon="17.6322931">
        <ele>19.8444</ele>
        <time>2014-05-29T12:35:49Z</time>
      </trkpt>
      <trkpt lat="59.8612028" lon="17.6322656">
        <ele>18.8831</ele>
        <time>2014-05-29T12:35:50Z</time>
      </trkpt>
      <trkpt lat="59.8612411" lon="17.6322417">
        <ele>18.4023</ele>
        <time>2014-05-29T12:35:51Z</time>
      </trkpt>
      <trkpt lat="59.861278" lon="17.6322231">
        <ele>17.9218</ele>
        <time>2014-05-29T12:35:52Z</time>
      </trkpt>
      <trkpt lat="59.8613145" lon="17.6322055">
        <ele>17.4412</ele>
        <time>2014-05-29T12:35:53Z</time>
      </trkpt>
      <trkpt lat="59.8613468" lon="17.6321833">
        <ele>17.4412</ele>
        <time>2014-05-29T12:35:54Z</time>
      </trkpt>
      <trkpt lat="59.8613792" lon="17.6321628">
        <ele>16.9604</ele>
        <time>2014-05-29T12:35:55Z</time>
      </trkpt>
      <trkpt lat="59.86141" lon="17.6321367">
        <ele>15.999</ele>
        <time>2014-05-29T12:35:56Z</time>
      </trkpt>
      <trkpt lat="59.8614412" lon="17.6321065">
        <ele>15.0377</ele>
        <time>2014-05-29T12:35:57Z</time>
      </trkpt>
      <trkpt lat="59.8614876" lon="17.6320766">
        <ele>15.5184</ele>
        <time>2014-05-29T12:35:58Z</time>
      </trkpt>
      <trkpt lat="59.8615321" lon="17.6320542">
        <ele>15.0377</ele>
        <time>2014-05-29T12:35:59Z</time>
      </trkpt>
      <trkpt lat="59.8615766" lon="17.6320345">
        <ele>15.0377</ele>
        <time>2014-05-29T12:36:00Z</time>
      </trkpt>
      <trkpt lat="59.8616233" lon="17.6320107">
        <ele>15.5184</ele>
        <time>2014-05-29T12:36:01Z</time>
      </trkpt>
      <trkpt lat="59.8616667" lon="17.6319926">
        <ele>14.557</ele>
        <time>2014-05-29T12:36:02Z</time>
      </trkpt>
      <trkpt lat="59.8617088" lon="17.6319749">
        <ele>14.557</ele>
        <time>2014-05-29T12:36:03Z</time>
      </trkpt>
      <trkpt lat="59.8617519" lon="17.6319593">
        <ele>14.0764</ele>
        <time>2014-05-29T12:36:04Z</time>
      </trkpt>
      <trkpt lat="59.8617968" lon="17.6319429">
        <ele>14.0764</ele>
        <time>2014-05-29T12:36:05Z</time>
      </trkpt>
      <trkpt lat="59.8618403" lon="17.6319284">
        <ele>14.0764</ele>
        <time>2014-05-29T12:36:06Z</time>
      </trkpt>
      <trkpt lat="59.861883" lon="17.6319117">
        <ele>14.0764</ele>
        <time>2014-05-29T12:36:07Z</time>
      </trkpt>
      <trkpt lat="59.86192" lon="17.6318926">
        <ele>14.0764</ele>
        <time>2014-05-29T12:36:08Z</time>
      </trkpt>
      <trkpt lat="59.8619502" lon="17.6318736">
        <ele>13.1151</ele>
        <time>2014-05-29T12:36:09Z</time>
      </trkpt>
      <trkpt lat="59.8619756" lon="17.63185">
        <ele>11.6732</ele>
        <time>2014-05-29T12:36:10Z</time>
      </trkpt>
      <trkpt lat="59.8619951" lon="17.6318257">
        <ele>10.2312</ele>
        <time>2014-05-29T12:36:11Z</time>
      </trkpt>
      <trkpt lat="59.8620112" lon="17.6318061">
        <ele>8.78918</ele>
        <time>2014-05-29T12:36:12Z</time>
      </trkpt>
      <trkpt lat="59.8620412" lon="17.6318082">
        <ele>9.2699</ele>
        <time>2014-05-29T12:36:13Z</time>
      </trkpt>
      <trkpt lat="59.8620702" lon="17.6318236">
        <ele>8.78918</ele>
        <time>2014-05-29T12:36:14Z</time>
      </trkpt>
      <trkpt lat="59.8621025" lon="17.6318461">
        <ele>9.75061</ele>
        <time>2014-05-29T12:36:15Z</time>
      </trkpt>
      <trkpt lat="59.8621335" lon="17.6318702">
        <ele>9.75061</ele>
        <time>2014-05-29T12:36:16Z</time>
      </trkpt>
      <trkpt lat="59.8621638" lon="17.6319008">
        <ele>10.2312</ele>
        <time>2014-05-29T12:36:17Z</time>
      </trkpt>
      <trkpt lat="59.862203" lon="17.6319251">
        <ele>11.1925</ele>
        <time>2014-05-29T12:36:18Z</time>
      </trkpt>
      <trkpt lat="59.8622413" lon="17.631924">
        <ele>12.1538</ele>
        <time>2014-05-29T12:36:19Z</time>
      </trkpt>
      <trkpt lat="59.8622796" lon="17.6319113">
        <ele>12.6344</ele>
        <time>2014-05-29T12:36:20Z</time>
      </trkpt>
      <trkpt lat="59.862318" lon="17.6319117">
        <ele>13.1151</ele>
        <time>2014-05-29T12:36:21Z</time>
      </trkpt>
      <trkpt lat="59.8623575" lon="17.631917">
        <ele>13.5958</ele>
        <time>2014-05-29T12:36:22Z</time>
      </trkpt>
      <trkpt lat="59.8623976" lon="17.6319204">
        <ele>13.5958</ele>
        <time>2014-05-29T12:36:23Z</time>
      </trkpt>
      <trkpt lat="59.8624413" lon="17.6319155">
        <ele>13.5958</ele>
        <time>2014-05-29T12:36:24Z</time>
      </trkpt>
      <trkpt lat="59.8624838" lon="17.6319132">
        <ele>13.5958</ele>
        <time>2014-05-29T12:36:25Z</time>
      </trkpt>
      <trkpt lat="59.8625277" lon="17.6319139">
        <ele>13.5958</ele>
        <time>2014-05-29T12:36:26Z</time>
      </trkpt>
      <trkpt lat="59.8625719" lon="17.6319126">
        <ele>13.5958</ele>
        <time>2014-05-29T12:36:27Z</time>
      </trkpt>
      <trkpt lat="59.8626174" lon="17.6319">
        <ele>13.1151</ele>
        <time>2014-05-29T12:36:28Z</time>
      </trkpt>
      <trkpt lat="59.8626651" lon="17.6318767">
        <ele>13.1151</ele>
        <time>2014-05-29T12:36:29Z</time>
      </trkpt>
      <trkpt lat="59.8627149" lon="17.6318466">
        <ele>12.6344</ele>
        <time>2014-05-29T12:36:30Z</time>
      </trkpt>
      <trkpt lat="59.8627625" lon="17.631817">
        <ele>13.1151</ele>
        <time>2014-05-29T12:36:31Z</time>
      </trkpt>
      <trkpt lat="59.862808" lon="17.6317921">
        <ele>13.1151</ele>
        <time>2014-05-29T12:36:32Z</time>
      </trkpt>
      <trkpt lat="59.862854" lon="17.6317663">
        <ele>13.1151</ele>
        <time>2014-05-29T12:36:33Z</time>
      </trkpt>
      <trkpt lat="59.8629006" lon="17.6317391">
        <ele>14.0764</ele>
        <time>2014-05-29T12:36:34Z</time>
      </trkpt>
      <trkpt lat="59.8629494" lon="17.6317087">
        <ele>14.557</ele>
        <time>2014-05-29T12:36:35Z</time>
      </trkpt>
      <trkpt lat="59.8629982" lon="17.6316781">
        <ele>14.0764</ele>
        <time>2014-05-29T12:36:36Z</time>
      </trkpt>
      <trkpt lat="59.8630468" lon="17.6316461">
        <ele>14.557</ele>
        <time>2014-05-29T12:36:37Z</time>
      </trkpt>
      <trkpt lat="59.8630948" lon="17.631616">
        <ele>14.0764</ele>
        <time>2014-05-29T12:36:38Z</time>
      </trkpt>
      <trkpt lat="59.8631428" lon="17.6315823">
        <ele>15.0377</ele>
        <time>2014-05-29T12:36:39Z</time>
      </trkpt>
      <trkpt lat="59.863191" lon="17.6315547">
        <ele>14.557</ele>
        <time>2014-05-29T12:36:40Z</time>
      </trkpt>
      <trkpt lat="59.8632378" lon="17.6315141">
        <ele>15.0377</ele>
        <time>2014-05-29T12:36:41Z</time>
      </trkpt>
      <trkpt lat="59.8632894" lon="17.6314813">
        <ele>16.4797</ele>
        <time>2014-05-29T12:36:42Z</time>
      </trkpt>
      <trkpt lat="59.8633326" lon="17.6314412">
        <ele>16.4797</ele>
        <time>2014-05-29T12:36:43Z</time>
      </trkpt>
      <trkpt lat="59.8633796" lon="17.6314104">
        <ele>16.9604</ele>
        <time>2014-05-29T12:36:44Z</time>
      </trkpt>
      <trkpt lat="59.8634227" lon="17.6313797">
        <ele>15.999</ele>
        <time>2014-05-29T12:36:45Z</time>
      </trkpt>
      <trkpt lat="59.8634675" lon="17.6313509">
        <ele>15.5184</ele>
        <time>2014-05-29T12:36:46Z</time>
      </trkpt>
      <trkpt lat="59.8635183" lon="17.6313306">
        <ele>15.5184</ele>
        <time>2014-05-29T12:36:47Z</time>
      </trkpt>
      <trkpt lat="59.8635655" lon="17.6313022">
        <ele>15.0377</ele>
        <time>2014-05-29T12:36:48Z</time>
      </trkpt>
      <trkpt lat="59.8636088" lon="17.6312689">
        <ele>15.0377</ele>
        <time>2014-05-29T12:36:49Z</time>
      </trkpt>
      <trkpt lat="59.8636551" lon="17.6312394">
        <ele>14.557</ele>
        <time>2014-05-29T12:36:50Z</time>
      </trkpt>
      <trkpt lat="59.8636948" lon="17.6312025">
        <ele>14.557</ele>
        <time>2014-05-29T12:36:51Z</time>
      </trkpt>
      <trkpt lat="59.8637348" lon="17.6311662">
        <ele>15.0377</ele>
        <time>2014-05-29T12:36:52Z</time>
      </trkpt>
      <trkpt lat="59.8637757" lon="17.6311306">
        <ele>14.557</ele>
        <time>2014-05-29T12:36:53Z</time>
      </trkpt>
      <trkpt lat="59.8638229" lon="17.6311032">
        <ele>14.557</ele>
        <time>2014-05-29T12:36:54Z</time>
      </trkpt>
      <trkpt lat="59.8638633" lon="17.631067">
        <ele>14.0764</ele>
        <time>2014-05-29T12:36:55Z</time>
      </trkpt>
      <trkpt lat="59.8638902" lon="17.6310111">
        <ele>13.5958</ele>
        <time>2014-05-29T12:36:56Z</time>
      </trkpt>
      <trkpt lat="59.8639007" lon="17.6309303">
        <ele>11.6732</ele>
        <time>2014-05-29T12:36:57Z</time>
      </trkpt>
      <trkpt lat="59.8639196" lon="17.6308623">
        <ele>10.2312</ele>
        <time>2014-05-29T12:36:58Z</time>
      </trkpt>
      <trkpt lat="59.8639694" lon="17.6308443">
        <ele>12.1538</ele>
        <time>2014-05-29T12:36:59Z</time>
      </trkpt>
      <trkpt lat="59.864013" lon="17.630825">
        <ele>13.1151</ele>
        <time>2014-05-29T12:37:00Z</time>
      </trkpt>
      <trkpt lat="59.8640508" lon="17.6308067">
        <ele>13.5958</ele>
        <time>2014-05-29T12:37:01Z</time>
      </trkpt>
      <trkpt lat="59.8640962" lon="17.6308025">
        <ele>14.0764</ele>
        <time>2014-05-29T12:37:02Z</time>
      </trkpt>
      <trkpt lat="59.8641362" lon="17.6307845">
        <ele>14.0764</ele>
        <time>2014-05-29T12:37:03Z</time>
      </trkpt>
      <trkpt lat="59.8641801" lon="17.6307707">
        <ele>15.0377</ele>
        <time>2014-05-29T12:37:04Z</time>
      </trkpt>
      <trkpt lat="59.8642316" lon="17.630756">
        <ele>16.9604</ele>
        <time>2014-05-29T12:37:05Z</time>
      </trkpt>
      <trkpt lat="59.8642731" lon="17.6307396">
        <ele>17.9218</ele>
        <time>2014-05-29T12:37:06Z</time>
      </trkpt>
      <trkpt lat="59.8643128" lon="17.6307202">
        <ele>17.9218</ele>
        <time>2014-05-29T12:37:07Z</time>
      </trkpt>
      <trkpt lat="59.8643512" lon="17.6306913">
        <ele>17.4412</ele>
        <time>2014-05-29T12:37:08Z</time>
      </trkpt>
      <trkpt lat="59.8643833" lon="17.6306555">
        <ele>16.4797</ele>
        <time>2014-05-29T12:37:09Z</time>
      </trkpt>
      <trkpt lat="59.8644181" lon="17.6306091">
        <ele>15.0377</ele>
        <time>2014-05-29T12:37:10Z</time>
      </trkpt>
      <trkpt lat="59.864449" lon="17.630558">
        <ele>13.5958</ele>
        <time>2014-05-29T12:37:11Z</time>
      </trkpt>
      <trkpt lat="59.8644848" lon="17.6305096">
        <ele>12.6344</ele>
        <time>2014-05-29T12:37:12Z</time>
      </trkpt>
      <trkpt lat="59.8645261" lon="17.6304586">
        <ele>12.6344</ele>
        <time>2014-05-29T12:37:13Z</time>
      </trkpt>
      <trkpt lat="59.8645682" lon="17.6303998">
        <ele>12.1538</ele>
        <time>2014-05-29T12:37:14Z</time>
      </trkpt>
      <trkpt lat="59.8646128" lon="17.6303415">
        <ele>11.6732</ele>
        <time>2014-05-29T12:37:15Z</time>
      </trkpt>
      <trkpt lat="59.8646651" lon="17.6302768">
        <ele>11.6732</ele>
        <time>2014-05-29T12:37:16Z</time>
      </trkpt>
      <trkpt lat="59.8647107" lon="17.6302106">
        <ele>11.1925</ele>
        <time>2014-05-29T12:37:17Z</time>
      </trkpt>
      <trkpt lat="59.8647728" lon="17.6301468">
        <ele>11.6732</ele>
        <time>2014-05-29T12:37:18Z</time>
      </trkpt>
      <trkpt lat="59.8648243" lon="17.6300775">
        <ele>11.1925</ele>
        <time>2014-05-29T12:37:19Z</time>
      </trkpt>
      <trkpt lat="59.864878" lon="17.6300217">
        <ele>11.1925</ele>
        <time>2014-05-29T12:37:20Z</time>
      </trkpt>
      <trkpt lat="59.8649335" lon="17.6299643">
        <ele>11.1925</ele>
        <time>2014-05-29T12:37:21Z</time>
      </trkpt>
      <trkpt lat="59.8650695" lon="17.6297107">
        <ele>12.1538</ele>
        <time>2014-05-29T12:37:25Z</time>
      </trkpt>
      <trkpt lat="59.8651218" lon="17.6297013">
        <ele>12.1538</ele>
        <time>2014-05-29T12:37:26Z</time>
      </trkpt>
      <trkpt lat="59.8651547" lon="17.6296425">
        <ele>12.6344</ele>
        <time>2014-05-29T12:37:27Z</time>
      </trkpt>
      <trkpt lat="59.86518" lon="17.6295657">
        <ele>12.6344</ele>
        <time>2014-05-29T12:37:28Z</time>
      </trkpt>
      <trkpt lat="59.8651986" lon="17.6294946">
        <ele>11.1925</ele>
        <time>2014-05-29T12:37:29Z</time>
      </trkpt>
      <trkpt lat="59.8652177" lon="17.6294234">
        <ele>11.1925</ele>
        <time>2014-05-29T12:37:30Z</time>
      </trkpt>
      <trkpt lat="59.865238" lon="17.6293571">
        <ele>11.1925</ele>
        <time>2014-05-29T12:37:31Z</time>
      </trkpt>
      <trkpt lat="59.8652648" lon="17.6292927">
        <ele>10.2312</ele>
        <time>2014-05-29T12:37:32Z</time>
      </trkpt>
      <trkpt lat="59.8652909" lon="17.6292264">
        <ele>9.2699</ele>
        <time>2014-05-29T12:37:33Z</time>
      </trkpt>
      <trkpt lat="59.8653154" lon="17.6291662">
        <ele>9.2699</ele>
        <time>2014-05-29T12:37:34Z</time>
      </trkpt>
      <trkpt lat="59.8653418" lon="17.629112">
        <ele>9.75061</ele>
        <time>2014-05-29T12:37:35Z</time>
      </trkpt>
      <trkpt lat="59.8653645" lon="17.6290668">
        <ele>8.78918</ele>
        <time>2014-05-29T12:37:36Z</time>
      </trkpt>
      <trkpt lat="59.8653935" lon="17.629025">
        <ele>8.30859</ele>
        <time>2014-05-29T12:37:37Z</time>
      </trkpt>
      <trkpt lat="59.8654265" lon="17.6289912">
        <ele>7.82788</ele>
        <time>2014-05-29T12:37:38Z</time>
      </trkpt>
      <trkpt lat="59.8654619" lon="17.6289658">
        <ele>7.34717</ele>
        <time>2014-05-29T12:37:39Z</time>
      </trkpt>
      <trkpt lat="59.8655032" lon="17.6289425">
        <ele>7.34717</ele>
        <time>2014-05-29T12:37:40Z</time>
      </trkpt>
      <trkpt lat="59.8655431" lon="17.6289103">
        <ele>7.34717</ele>
        <time>2014-05-29T12:37:41Z</time>
      </trkpt>
      <trkpt lat="59.8655799" lon="17.6288581">
        <ele>7.34717</ele>
        <time>2014-05-29T12:37:42Z</time>
      </trkpt>
      <trkpt lat="59.8656157" lon="17.6287861">
        <ele>7.82788</ele>
        <time>2014-05-29T12:37:43Z</time>
      </trkpt>
      <trkpt lat="59.8656499" lon="17.6287054">
        <ele>7.82788</ele>
        <time>2014-05-29T12:37:44Z</time>
      </trkpt>
      <trkpt lat="59.8656825" lon="17.6286236">
        <ele>7.34717</ele>
        <time>2014-05-29T12:37:45Z</time>
      </trkpt>
      <trkpt lat="59.8657165" lon="17.62853">
        <ele>8.78918</ele>
        <time>2014-05-29T12:37:46Z</time>
      </trkpt>
      <trkpt lat="59.8657465" lon="17.6284385">
        <ele>8.78918</ele>
        <time>2014-05-29T12:37:47Z</time>
      </trkpt>
      <trkpt lat="59.8657755" lon="17.6283535">
        <ele>8.30859</ele>
        <time>2014-05-29T12:37:48Z</time>
      </trkpt>
      <trkpt lat="59.8658114" lon="17.6282727">
        <ele>7.82788</ele>
        <time>2014-05-29T12:37:49Z</time>
      </trkpt>
      <trkpt lat="59.8658501" lon="17.6281928">
        <ele>7.82788</ele>
        <time>2014-05-29T12:37:50Z</time>
      </trkpt>
      <trkpt lat="59.8658885" lon="17.6281179">
        <ele>7.82788</ele>
        <time>2014-05-29T12:37:51Z</time>
      </trkpt>
      <trkpt lat="59.8659281" lon="17.6280552">
        <ele>7.34717</ele>
        <time>2014-05-29T12:37:52Z</time>
      </trkpt>
      <trkpt lat="59.8659693" lon="17.6280027">
        <ele>6.86646</ele>
        <time>2014-05-29T12:37:53Z</time>
      </trkpt>
      <trkpt lat="59.8660156" lon="17.6279586">
        <ele>7.34717</ele>
        <time>2014-05-29T12:37:54Z</time>
      </trkpt>
      <trkpt lat="59.866059" lon="17.6279167">
        <ele>7.82788</ele>
        <time>2014-05-29T12:37:55Z</time>
      </trkpt>
      <trkpt lat="59.8660938" lon="17.6278646">
        <ele>7.82788</ele>
        <time>2014-05-29T12:37:56Z</time>
      </trkpt>
      <trkpt lat="59.8661248" lon="17.627812">
        <ele>7.82788</ele>
        <time>2014-05-29T12:37:57Z</time>
      </trkpt>
      <trkpt lat="59.8661565" lon="17.6277616">
        <ele>7.82788</ele>
        <time>2014-05-29T12:37:58Z</time>
      </trkpt>
      <trkpt lat="59.8661869" lon="17.6277071">
        <ele>7.82788</ele>
        <time>2014-05-29T12:37:59Z</time>
      </trkpt>
      <trkpt lat="59.8662154" lon="17.627649">
        <ele>7.82788</ele>
        <time>2014-05-29T12:38:00Z</time>
      </trkpt>
      <trkpt lat="59.8662462" lon="17.6275894">
        <ele>7.82788</ele>
        <time>2014-05-29T12:38:01Z</time>
      </trkpt>
      <trkpt lat="59.8662777" lon="17.6275216">
        <ele>7.82788</ele>
        <time>2014-05-29T12:38:02Z</time>
      </trkpt>
      <trkpt lat="59.8663114" lon="17.6274471">
        <ele>7.82788</ele>
        <time>2014-05-29T12:38:03Z</time>
      </trkpt>
      <trkpt lat="59.8663505" lon="17.6273735">
        <ele>7.82788</ele>
        <time>2014-05-29T12:38:04Z</time>
      </trkpt>
      <trkpt lat="59.8663855" lon="17.6272962">
        <ele>7.34717</ele>
        <time>2014-05-29T12:38:05Z</time>
      </trkpt>
      <trkpt lat="59.8664234" lon="17.6272274">
        <ele>6.86646</ele>
        <time>2014-05-29T12:38:06Z</time>
      </trkpt>
      <trkpt lat="59.8664584" lon="17.6271553">
        <ele>4.94385</ele>
        <time>2014-05-29T12:38:07Z</time>
      </trkpt>
      <trkpt lat="59.8664921" lon="17.6270979">
        <ele>4.94385</ele>
        <time>2014-05-29T12:38:08Z</time>
      </trkpt>
      <trkpt lat="59.8665243" lon="17.6270416">
        <ele>4.46326</ele>
        <time>2014-05-29T12:38:09Z</time>
      </trkpt>
      <trkpt lat="59.86656" lon="17.6269907">
        <ele>4.46326</ele>
        <time>2014-05-29T12:38:10Z</time>
      </trkpt>
      <trkpt lat="59.8665992" lon="17.6269599">
        <ele>5.42456</ele>
        <time>2014-05-29T12:38:11Z</time>
      </trkpt>
      <trkpt lat="59.86663" lon="17.6269191">
        <ele>4.46326</ele>
        <time>2014-05-29T12:38:12Z</time>
      </trkpt>
      <trkpt lat="59.8666569" lon="17.6268861">
        <ele>4.46326</ele>
        <time>2014-05-29T12:38:13Z</time>
      </trkpt>
      <trkpt lat="59.8666845" lon="17.6268595">
        <ele>3.98267</ele>
        <time>2014-05-29T12:38:14Z</time>
      </trkpt>
      <trkpt lat="59.8667158" lon="17.6268255">
        <ele>4.94385</ele>
        <time>2014-05-29T12:38:15Z</time>
      </trkpt>
      <trkpt lat="59.8667413" lon="17.6267766">
        <ele>5.90527</ele>
        <time>2014-05-29T12:38:16Z</time>
      </trkpt>
      <trkpt lat="59.866757" lon="17.6267053">
        <ele>6.38586</ele>
        <time>2014-05-29T12:38:17Z</time>
      </trkpt>
      <trkpt lat="59.8667703" lon="17.626637">
        <ele>7.34717</ele>
        <time>2014-05-29T12:38:18Z</time>
      </trkpt>
      <trkpt lat="59.8667641" lon="17.6265716">
        <ele>7.34717</ele>
        <time>2014-05-29T12:38:19Z</time>
      </trkpt>
      <trkpt lat="59.8667465" lon="17.6265507">
        <ele>7.82788</ele>
        <time>2014-05-29T12:38:20Z</time>
      </trkpt>
      <trkpt lat="59.86672" lon="17.6265614">
        <ele>7.34717</ele>
        <time>2014-05-29T12:38:21Z</time>
      </trkpt>
      <trkpt lat="59.8666935" lon="17.6265357">
        <ele>7.34717</ele>
        <time>2014-05-29T12:38:22Z</time>
      </trkpt>
      <trkpt lat="59.8666786" lon="17.6264813">
        <ele>8.30859</ele>
        <time>2014-05-29T12:38:23Z</time>
      </trkpt>
      <trkpt lat="59.8666596" lon="17.6264074">
        <ele>8.30859</ele>
        <time>2014-05-29T12:38:24Z</time>
      </trkpt>
      <trkpt lat="59.8666419" lon="17.6263231">
        <ele>9.2699</ele>
        <time>2014-05-29T12:38:25Z</time>
      </trkpt>
      <trkpt lat="59.8666243" lon="17.6262311">
        <ele>9.75061</ele>
        <time>2014-05-29T12:38:26Z</time>
      </trkpt>
      <trkpt lat="59.8666064" lon="17.6261334">
        <ele>10.2312</ele>
        <time>2014-05-29T12:38:27Z</time>
      </trkpt>
      <trkpt lat="59.8665943" lon="17.6260257">
        <ele>10.7118</ele>
        <time>2014-05-29T12:38:28Z</time>
      </trkpt>
      <trkpt lat="59.8665937" lon="17.6259101">
        <ele>10.7118</ele>
        <time>2014-05-29T12:38:29Z</time>
      </trkpt>
      <trkpt lat="59.8666062" lon="17.6257899">
        <ele>10.7118</ele>
        <time>2014-05-29T12:38:30Z</time>
      </trkpt>
      <trkpt lat="59.8666329" lon="17.625673">
        <ele>10.7118</ele>
        <time>2014-05-29T12:38:31Z</time>
      </trkpt>
      <trkpt lat="59.866675" lon="17.6255723">
        <ele>10.7118</ele>
        <time>2014-05-29T12:38:32Z</time>
      </trkpt>
      <trkpt lat="59.8667299" lon="17.6254915">
        <ele>10.2312</ele>
        <time>2014-05-29T12:38:33Z</time>
      </trkpt>
      <trkpt lat="59.8667905" lon="17.6254232">
        <ele>10.7118</ele>
        <time>2014-05-29T12:38:34Z</time>
      </trkpt>
      <trkpt lat="59.8668515" lon="17.6253601">
        <ele>10.7118</ele>
        <time>2014-05-29T12:38:35Z</time>
      </trkpt>
      <trkpt lat="59.8669097" lon="17.6252928">
        <ele>10.7118</ele>
        <time>2014-05-29T12:38:36Z</time>
      </trkpt>
      <trkpt lat="59.8669645" lon="17.6252166">
        <ele>10.7118</ele>
        <time>2014-05-29T12:38:37Z</time>
      </trkpt>
      <trkpt lat="59.8670153" lon="17.6251345">
        <ele>10.7118</ele>
        <time>2014-05-29T12:38:38Z</time>
      </trkpt>
      <trkpt lat="59.8670639" lon="17.6250482">
        <ele>11.1925</ele>
        <time>2014-05-29T12:38:39Z</time>
      </trkpt>
      <trkpt lat="59.8671099" lon="17.6249592">
        <ele>11.6732</ele>
        <time>2014-05-29T12:38:40Z</time>
      </trkpt>
      <trkpt lat="59.8671444" lon="17.6248708">
        <ele>11.6732</ele>
        <time>2014-05-29T12:38:41Z</time>
      </trkpt>
      <trkpt lat="59.8671805" lon="17.6247744">
        <ele>12.1538</ele>
        <time>2014-05-29T12:38:42Z</time>
      </trkpt>
      <trkpt lat="59.8672131" lon="17.6246766">
        <ele>12.1538</ele>
        <time>2014-05-29T12:38:43Z</time>
      </trkpt>
      <trkpt lat="59.867248" lon="17.6245777">
        <ele>12.1538</ele>
        <time>2014-05-29T12:38:44Z</time>
      </trkpt>
      <trkpt lat="59.8672866" lon="17.6244887">
        <ele>12.1538</ele>
        <time>2014-05-29T12:38:45Z</time>
      </trkpt>
      <trkpt lat="59.8673311" lon="17.6244079">
        <ele>11.6732</ele>
        <time>2014-05-29T12:38:46Z</time>
      </trkpt>
      <trkpt lat="59.8673795" lon="17.6243293">
        <ele>11.6732</ele>
        <time>2014-05-29T12:38:47Z</time>
      </trkpt>
      <trkpt lat="59.8674294" lon="17.6242593">
        <ele>11.6732</ele>
        <time>2014-05-29T12:38:48Z</time>
      </trkpt>
      <trkpt lat="59.8674816" lon="17.624194">
        <ele>11.1925</ele>
        <time>2014-05-29T12:38:49Z</time>
      </trkpt>
      <trkpt lat="59.8675345" lon="17.6241344">
        <ele>11.1925</ele>
        <time>2014-05-29T12:38:50Z</time>
      </trkpt>
      <trkpt lat="59.8675891" lon="17.6240841">
        <ele>11.6732</ele>
        <time>2014-05-29T12:38:51Z</time>
      </trkpt>
      <trkpt lat="59.8676476" lon="17.6240436">
        <ele>11.6732</ele>
        <time>2014-05-29T12:38:52Z</time>
      </trkpt>
      <trkpt lat="59.8677064" lon="17.6240074">
        <ele>11.6732</ele>
        <time>2014-05-29T12:38:53Z</time>
      </trkpt>
      <trkpt lat="59.8677637" lon="17.6239733">
        <ele>11.6732</ele>
        <time>2014-05-29T12:38:54Z</time>
      </trkpt>
      <trkpt lat="59.8678198" lon="17.6239438">
        <ele>11.6732</ele>
        <time>2014-05-29T12:38:55Z</time>
      </trkpt>
      <trkpt lat="59.8678754" lon="17.6239116">
        <ele>11.6732</ele>
        <time>2014-05-29T12:38:56Z</time>
      </trkpt>
      <trkpt lat="59.8679315" lon="17.6238785">
        <ele>11.6732</ele>
        <time>2014-05-29T12:38:57Z</time>
      </trkpt>
      <trkpt lat="59.8679878" lon="17.6238451">
        <ele>11.6732</ele>
        <time>2014-05-29T12:38:58Z</time>
      </trkpt>
      <trkpt lat="59.8680451" lon="17.6238123">
        <ele>11.6732</ele>
        <time>2014-05-29T12:38:59Z</time>
      </trkpt>
      <trkpt lat="59.8681024" lon="17.6237778">
        <ele>11.6732</ele>
        <time>2014-05-29T12:39:00Z</time>
      </trkpt>
      <trkpt lat="59.8681591" lon="17.62374">
        <ele>11.6732</ele>
        <time>2014-05-29T12:39:01Z</time>
      </trkpt>
      <trkpt lat="59.8682171" lon="17.6237039">
        <ele>11.6732</ele>
        <time>2014-05-29T12:39:02Z</time>
      </trkpt>
      <trkpt lat="59.8682767" lon="17.6236696">
        <ele>11.6732</ele>
        <time>2014-05-29T12:39:03Z</time>
      </trkpt>
      <trkpt lat="59.8683366" lon="17.6236384">
        <ele>11.6732</ele>
        <time>2014-05-29T12:39:04Z</time>
      </trkpt>
      <trkpt lat="59.8683951" lon="17.623606">
        <ele>12.1538</ele>
        <time>2014-05-29T12:39:05Z</time>
      </trkpt>
      <trkpt lat="59.8684518" lon="17.6235755">
        <ele>12.1538</ele>
        <time>2014-05-29T12:39:06Z</time>
      </trkpt>
      <trkpt lat="59.8685077" lon="17.6235469">
        <ele>12.1538</ele>
        <time>2014-05-29T12:39:07Z</time>
      </trkpt>
      <trkpt lat="59.8685637" lon="17.623517">
        <ele>12.1538</ele>
        <time>2014-05-29T12:39:08Z</time>
      </trkpt>
      <trkpt lat="59.8686212" lon="17.6234854">
        <ele>12.1538</ele>
        <time>2014-05-29T12:39:09Z</time>
      </trkpt>
      <trkpt lat="59.8686745" lon="17.6234554">
        <ele>12.6344</ele>
        <time>2014-05-29T12:39:10Z</time>
      </trkpt>
      <trkpt lat="59.8687308" lon="17.62343">
        <ele>12.6344</ele>
        <time>2014-05-29T12:39:11Z</time>
      </trkpt>
      <trkpt lat="59.8687854" lon="17.6234044">
        <ele>13.1151</ele>
        <time>2014-05-29T12:39:12Z</time>
      </trkpt>
      <trkpt lat="59.8688394" lon="17.6233776">
        <ele>13.1151</ele>
        <time>2014-05-29T12:39:13Z</time>
      </trkpt>
      <trkpt lat="59.8688906" lon="17.6233636">
        <ele>13.1151</ele>
        <time>2014-05-29T12:39:14Z</time>
      </trkpt>
      <trkpt lat="59.8689433" lon="17.623321">
        <ele>12.6344</ele>
        <time>2014-05-29T12:39:15Z</time>
      </trkpt>
      <trkpt lat="59.8689955" lon="17.6232729">
        <ele>13.1151</ele>
        <time>2014-05-29T12:39:16Z</time>
      </trkpt>
      <trkpt lat="59.8690433" lon="17.6232496">
        <ele>13.1151</ele>
        <time>2014-05-29T12:39:17Z</time>
      </trkpt>
      <trkpt lat="59.8690885" lon="17.6232026">
        <ele>13.1151</ele>
        <time>2014-05-29T12:39:18Z</time>
      </trkpt>
      <trkpt lat="59.8691045" lon="17.6231236">
        <ele>13.5958</ele>
        <time>2014-05-29T12:39:19Z</time>
      </trkpt>
      <trkpt lat="59.8691004" lon="17.6230451">
        <ele>13.5958</ele>
        <time>2014-05-29T12:39:20Z</time>
      </trkpt>
      <trkpt lat="59.8691112" lon="17.6229819">
        <ele>14.0764</ele>
        <time>2014-05-29T12:39:21Z</time>
      </trkpt>
      <trkpt lat="59.8691393" lon="17.6229461">
        <ele>13.5958</ele>
        <time>2014-05-29T12:39:22Z</time>
      </trkpt>
      <trkpt lat="59.8691747" lon="17.622927">
        <ele>13.5958</ele>
        <time>2014-05-29T12:39:23Z</time>
      </trkpt>
      <trkpt lat="59.8692056" lon="17.6228948">
        <ele>13.1151</ele>
        <time>2014-05-29T12:39:24Z</time>
      </trkpt>
      <trkpt lat="59.8692319" lon="17.6228447">
        <ele>13.1151</ele>
        <time>2014-05-29T12:39:25Z</time>
      </trkpt>
      <trkpt lat="59.8692574" lon="17.6227782">
        <ele>13.1151</ele>
        <time>2014-05-29T12:39:26Z</time>
      </trkpt>
      <trkpt lat="59.8692811" lon="17.6227019">
        <ele>13.1151</ele>
        <time>2014-05-29T12:39:27Z</time>
      </trkpt>
      <trkpt lat="59.8692999" lon="17.6226149">
        <ele>12.6344</ele>
        <time>2014-05-29T12:39:28Z</time>
      </trkpt>
      <trkpt lat="59.8693255" lon="17.6225374">
        <ele>12.6344</ele>
        <time>2014-05-29T12:39:29Z</time>
      </trkpt>
      <trkpt lat="59.86935" lon="17.6224593">
        <ele>12.1538</ele>
        <time>2014-05-29T12:39:30Z</time>
      </trkpt>
      <trkpt lat="59.8693765" lon="17.6223795">
        <ele>12.1538</ele>
        <time>2014-05-29T12:39:31Z</time>
      </trkpt>
      <trkpt lat="59.869405" lon="17.6223001">
        <ele>12.1538</ele>
        <time>2014-05-29T12:39:32Z</time>
      </trkpt>
      <trkpt lat="59.8694355" lon="17.6222227">
        <ele>12.1538</ele>
        <time>2014-05-29T12:39:33Z</time>
      </trkpt>
      <trkpt lat="59.8694664" lon="17.6221471">
        <ele>11.6732</ele>
        <time>2014-05-29T12:39:34Z</time>
      </trkpt>
      <trkpt lat="59.869498" lon="17.6220687">
        <ele>11.6732</ele>
        <time>2014-05-29T12:39:35Z</time>
      </trkpt>
      <trkpt lat="59.869529" lon="17.6219883">
        <ele>11.1925</ele>
        <time>2014-05-29T12:39:36Z</time>
      </trkpt>
      <trkpt lat="59.8695614" lon="17.6219124">
        <ele>10.7118</ele>
        <time>2014-05-29T12:39:37Z</time>
      </trkpt>
      <trkpt lat="59.8695935" lon="17.6218448">
        <ele>10.7118</ele>
        <time>2014-05-29T12:39:38Z</time>
      </trkpt>
      <trkpt lat="59.8696276" lon="17.6217783">
        <ele>10.7118</ele>
        <time>2014-05-29T12:39:39Z</time>
      </trkpt>
      <trkpt lat="59.8696546" lon="17.6216965">
        <ele>10.2312</ele>
        <time>2014-05-29T12:39:40Z</time>
      </trkpt>
      <trkpt lat="59.869679" lon="17.6216024">
        <ele>10.7118</ele>
        <time>2014-05-29T12:39:41Z</time>
      </trkpt>
      <trkpt lat="59.8696982" lon="17.6215053">
        <ele>11.1925</ele>
        <time>2014-05-29T12:39:42Z</time>
      </trkpt>
      <trkpt lat="59.8697147" lon="17.6214071">
        <ele>11.6732</ele>
        <time>2014-05-29T12:39:43Z</time>
      </trkpt>
      <trkpt lat="59.8697293" lon="17.6213086">
        <ele>11.6732</ele>
        <time>2014-05-29T12:39:44Z</time>
      </trkpt>
      <trkpt lat="59.8697441" lon="17.6212097">
        <ele>11.6732</ele>
        <time>2014-05-29T12:39:45Z</time>
      </trkpt>
      <trkpt lat="59.8697566" lon="17.6211074">
        <ele>11.6732</ele>
        <time>2014-05-29T12:39:46Z</time>
      </trkpt>
      <trkpt lat="59.8697699" lon="17.6210035">
        <ele>11.6732</ele>
        <time>2014-05-29T12:39:47Z</time>
      </trkpt>
      <trkpt lat="59.8697847" lon="17.6208983">
        <ele>11.6732</ele>
        <time>2014-05-29T12:39:48Z</time>
      </trkpt>
      <trkpt lat="59.869799" lon="17.6207906">
        <ele>11.6732</ele>
        <time>2014-05-29T12:39:49Z</time>
      </trkpt>
      <trkpt lat="59.8698134" lon="17.6206834">
        <ele>11.6732</ele>
        <time>2014-05-29T12:39:50Z</time>
      </trkpt>
      <trkpt lat="59.8698261" lon="17.6205782">
        <ele>11.6732</ele>
        <time>2014-05-29T12:39:51Z</time>
      </trkpt>
      <trkpt lat="59.8698399" lon="17.6204718">
        <ele>12.1538</ele>
        <time>2014-05-29T12:39:52Z</time>
      </trkpt>
      <trkpt lat="59.8698482" lon="17.6203606">
        <ele>11.6732</ele>
        <time>2014-05-29T12:39:53Z</time>
      </trkpt>
      <trkpt lat="59.8698559" lon="17.6202498">
        <ele>11.6732</ele>
        <time>2014-05-29T12:39:54Z</time>
      </trkpt>
      <trkpt lat="59.8698666" lon="17.6201405">
        <ele>12.1538</ele>
        <time>2014-05-29T12:39:55Z</time>
      </trkpt>
      <trkpt lat="59.8698771" lon="17.6200301">
        <ele>12.1538</ele>
        <time>2014-05-29T12:39:56Z</time>
      </trkpt>
      <trkpt lat="59.8698856" lon="17.6199193">
        <ele>12.1538</ele>
        <time>2014-05-29T12:39:57Z</time>
      </trkpt>
      <trkpt lat="59.8698942" lon="17.6198076">
        <ele>12.6344</ele>
        <time>2014-05-29T12:39:58Z</time>
      </trkpt>
      <trkpt lat="59.8699012" lon="17.6196913">
        <ele>12.6344</ele>
        <time>2014-05-29T12:39:59Z</time>
      </trkpt>
      <trkpt lat="59.8699129" lon="17.6195763">
        <ele>12.6344</ele>
        <time>2014-05-29T12:40:00Z</time>
      </trkpt>
      <trkpt lat="59.8699219" lon="17.6194624">
        <ele>12.6344</ele>
        <time>2014-05-29T12:40:01Z</time>
      </trkpt>
      <trkpt lat="59.8699334" lon="17.6193489">
        <ele>13.5958</ele>
        <time>2014-05-29T12:40:02Z</time>
      </trkpt>
      <trkpt lat="59.8699401" lon="17.6192405">
        <ele>14.557</ele>
        <time>2014-05-29T12:40:03Z</time>
      </trkpt>
      <trkpt lat="59.86994" lon="17.619133">
        <ele>15.0377</ele>
        <time>2014-05-29T12:40:04Z</time>
      </trkpt>
      <trkpt lat="59.8699333" lon="17.6190247">
        <ele>15.5184</ele>
        <time>2014-05-29T12:40:05Z</time>
      </trkpt>
      <trkpt lat="59.8699225" lon="17.6189108">
        <ele>15.0377</ele>
        <time>2014-05-29T12:40:06Z</time>
      </trkpt>
      <trkpt lat="59.8699235" lon="17.6187581">
        <ele>15.5184</ele>
        <time>2014-05-29T12:40:07Z</time>
      </trkpt>
      <trkpt lat="59.8699412" lon="17.6186467">
        <ele>15.999</ele>
        <time>2014-05-29T12:40:08Z</time>
      </trkpt>
      <trkpt lat="59.8699676" lon="17.6185347">
        <ele>15.5184</ele>
        <time>2014-05-29T12:40:09Z</time>
      </trkpt>
      <trkpt lat="59.8699898" lon="17.6184249">
        <ele>15.5184</ele>
        <time>2014-05-29T12:40:10Z</time>
      </trkpt>
      <trkpt lat="59.869997" lon="17.6183203">
        <ele>15.0377</ele>
        <time>2014-05-29T12:40:11Z</time>
      </trkpt>
      <trkpt lat="59.8699981" lon="17.6182134">
        <ele>14.0764</ele>
        <time>2014-05-29T12:40:12Z</time>
      </trkpt>
      <trkpt lat="59.8700074" lon="17.6181194">
        <ele>13.5958</ele>
        <time>2014-05-29T12:40:13Z</time>
      </trkpt>
      <trkpt lat="59.8700271" lon="17.6180131">
        <ele>15.0377</ele>
        <time>2014-05-29T12:40:14Z</time>
      </trkpt>
      <trkpt lat="59.8700414" lon="17.6179137">
        <ele>15.0377</ele>
        <time>2014-05-29T12:40:15Z</time>
      </trkpt>
      <trkpt lat="59.8700538" lon="17.61781">
        <ele>15.999</ele>
        <time>2014-05-29T12:40:16Z</time>
      </trkpt>
      <trkpt lat="59.8700702" lon="17.617709">
        <ele>15.999</ele>
        <time>2014-05-29T12:40:17Z</time>
      </trkpt>
      <trkpt lat="59.8700908" lon="17.6176101">
        <ele>16.4797</ele>
        <time>2014-05-29T12:40:18Z</time>
      </trkpt>
      <trkpt lat="59.8701099" lon="17.6175076">
        <ele>17.4412</ele>
        <time>2014-05-29T12:40:19Z</time>
      </trkpt>
      <trkpt lat="59.8701691" lon="17.6173588">
        <ele>28.0155</ele>
        <time>2014-05-29T12:40:20Z</time>
      </trkpt>
      <trkpt lat="59.8702247" lon="17.617168">
        <ele>32.8223</ele>
        <time>2014-05-29T12:40:21Z</time>
      </trkpt>
      <trkpt lat="59.8702255" lon="17.6171442">
        <ele>31.8607</ele>
        <time>2014-05-29T12:40:22Z</time>
      </trkpt>
      <trkpt lat="59.8702401" lon="17.6170567">
        <ele>30.8995</ele>
        <time>2014-05-29T12:40:23Z</time>
      </trkpt>
      <trkpt lat="59.8702472" lon="17.6169601">
        <ele>29.4575</ele>
        <time>2014-05-29T12:40:24Z</time>
      </trkpt>
      <trkpt lat="59.8702564" lon="17.6168595">
        <ele>28.4962</ele>
        <time>2014-05-29T12:40:25Z</time>
      </trkpt>
      <trkpt lat="59.8702708" lon="17.6167621">
        <ele>28.0155</ele>
        <time>2014-05-29T12:40:26Z</time>
      </trkpt>
      <trkpt lat="59.8702857" lon="17.6166671">
        <ele>27.5349</ele>
        <time>2014-05-29T12:40:27Z</time>
      </trkpt>
      <trkpt lat="59.8703042" lon="17.6165788">
        <ele>26.5736</ele>
        <time>2014-05-29T12:40:28Z</time>
      </trkpt>
      <trkpt lat="59.8703275" lon="17.6164814">
        <ele>26.5736</ele>
        <time>2014-05-29T12:40:29Z</time>
      </trkpt>
      <trkpt lat="59.8703501" lon="17.6163816">
        <ele>26.0929</ele>
        <time>2014-05-29T12:40:30Z</time>
      </trkpt>
      <trkpt lat="59.8703731" lon="17.6162817">
        <ele>26.0929</ele>
        <time>2014-05-29T12:40:31Z</time>
      </trkpt>
      <trkpt lat="59.870398" lon="17.6161804">
        <ele>26.0929</ele>
        <time>2014-05-29T12:40:32Z</time>
      </trkpt>
      <trkpt lat="59.8704187" lon="17.6160808">
        <ele>25.1317</ele>
        <time>2014-05-29T12:40:33Z</time>
      </trkpt>
      <trkpt lat="59.8704379" lon="17.6159798">
        <ele>24.651</ele>
        <time>2014-05-29T12:40:34Z</time>
      </trkpt>
      <trkpt lat="59.8704573" lon="17.6158779">
        <ele>25.1317</ele>
        <time>2014-05-29T12:40:35Z</time>
      </trkpt>
      <trkpt lat="59.8704753" lon="17.615781">
        <ele>24.651</ele>
        <time>2014-05-29T12:40:36Z</time>
      </trkpt>
      <trkpt lat="59.8704896" lon="17.6156862">
        <ele>24.651</ele>
        <time>2014-05-29T12:40:37Z</time>
      </trkpt>
      <trkpt lat="59.8705091" lon="17.615594">
        <ele>24.1703</ele>
        <time>2014-05-29T12:40:38Z</time>
      </trkpt>
      <trkpt lat="59.8705332" lon="17.6155085">
        <ele>23.6896</ele>
        <time>2014-05-29T12:40:39Z</time>
      </trkpt>
      <trkpt lat="59.870559" lon="17.6154242">
        <ele>23.6896</ele>
        <time>2014-05-29T12:40:40Z</time>
      </trkpt>
      <trkpt lat="59.870582" lon="17.6153375">
        <ele>23.209</ele>
        <time>2014-05-29T12:40:41Z</time>
      </trkpt>
      <trkpt lat="59.8706099" lon="17.6152495">
        <ele>23.6896</ele>
        <time>2014-05-29T12:40:42Z</time>
      </trkpt>
      <trkpt lat="59.870634" lon="17.6151679">
        <ele>22.7283</ele>
        <time>2014-05-29T12:40:43Z</time>
      </trkpt>
      <trkpt lat="59.8706564" lon="17.6150821">
        <ele>22.2476</ele>
        <time>2014-05-29T12:40:44Z</time>
      </trkpt>
      <trkpt lat="59.8706813" lon="17.6149961">
        <ele>22.2476</ele>
        <time>2014-05-29T12:40:45Z</time>
      </trkpt>
      <trkpt lat="59.870706" lon="17.6149112">
        <ele>21.767</ele>
        <time>2014-05-29T12:40:46Z</time>
      </trkpt>
      <trkpt lat="59.8707316" lon="17.6148282">
        <ele>21.767</ele>
        <time>2014-05-29T12:40:47Z</time>
      </trkpt>
      <trkpt lat="59.8707579" lon="17.6147465">
        <ele>21.2864</ele>
        <time>2014-05-29T12:40:48Z</time>
      </trkpt>
      <trkpt lat="59.8707826" lon="17.6146641">
        <ele>21.2864</ele>
        <time>2014-05-29T12:40:49Z</time>
      </trkpt>
      <trkpt lat="59.8708072" lon="17.6145797">
        <ele>20.8057</ele>
        <time>2014-05-29T12:40:50Z</time>
      </trkpt>
      <trkpt lat="59.8708326" lon="17.6144922">
        <ele>20.325</ele>
        <time>2014-05-29T12:40:51Z</time>
      </trkpt>
      <trkpt lat="59.8708572" lon="17.614401">
        <ele>20.325</ele>
        <time>2014-05-29T12:40:52Z</time>
      </trkpt>
      <trkpt lat="59.8708793" lon="17.6143082">
        <ele>19.8444</ele>
        <time>2014-05-29T12:40:53Z</time>
      </trkpt>
      <trkpt lat="59.870899" lon="17.614214">
        <ele>19.3638</ele>
        <time>2014-05-29T12:40:54Z</time>
      </trkpt>
      <trkpt lat="59.8709155" lon="17.6141138">
        <ele>18.8831</ele>
        <time>2014-05-29T12:40:55Z</time>
      </trkpt>
      <trkpt lat="59.8709327" lon="17.6140102">
        <ele>18.8831</ele>
        <time>2014-05-29T12:40:56Z</time>
      </trkpt>
      <trkpt lat="59.870947" lon="17.6139071">
        <ele>18.4023</ele>
        <time>2014-05-29T12:40:57Z</time>
      </trkpt>
      <trkpt lat="59.8709645" lon="17.6138042">
        <ele>18.4023</ele>
        <time>2014-05-29T12:40:58Z</time>
      </trkpt>
      <trkpt lat="59.8709791" lon="17.6137021">
        <ele>17.9218</ele>
        <time>2014-05-29T12:40:59Z</time>
      </trkpt>
      <trkpt lat="59.8709958" lon="17.6135969">
        <ele>17.9218</ele>
        <time>2014-05-29T12:41:00Z</time>
      </trkpt>
      <trkpt lat="59.87101" lon="17.6134914">
        <ele>16.9604</ele>
        <time>2014-05-29T12:41:01Z</time>
      </trkpt>
      <trkpt lat="59.8710282" lon="17.613383">
        <ele>16.9604</ele>
        <time>2014-05-29T12:41:02Z</time>
      </trkpt>
      <trkpt lat="59.8710521" lon="17.6132831">
        <ele>16.9604</ele>
        <time>2014-05-29T12:41:03Z</time>
      </trkpt>
      <trkpt lat="59.8710766" lon="17.6131883">
        <ele>16.4797</ele>
        <time>2014-05-29T12:41:04Z</time>
      </trkpt>
      <trkpt lat="59.8711041" lon="17.6130959">
        <ele>15.999</ele>
        <time>2014-05-29T12:41:05Z</time>
      </trkpt>
      <trkpt lat="59.8711331" lon="17.6130064">
        <ele>15.999</ele>
        <time>2014-05-29T12:41:06Z</time>
      </trkpt>
      <trkpt lat="59.8711589" lon="17.6129184">
        <ele>15.999</ele>
        <time>2014-05-29T12:41:07Z</time>
      </trkpt>
      <trkpt lat="59.8711947" lon="17.6128271">
        <ele>16.9604</ele>
        <time>2014-05-29T12:41:08Z</time>
      </trkpt>
      <trkpt lat="59.8712391" lon="17.6127433">
        <ele>18.4023</ele>
        <time>2014-05-29T12:41:09Z</time>
      </trkpt>
      <trkpt lat="59.871274" lon="17.6126642">
        <ele>17.9218</ele>
        <time>2014-05-29T12:41:10Z</time>
      </trkpt>
      <trkpt lat="59.8713137" lon="17.6125719">
        <ele>18.8831</ele>
        <time>2014-05-29T12:41:11Z</time>
      </trkpt>
      <trkpt lat="59.871348" lon="17.6124787">
        <ele>18.4023</ele>
        <time>2014-05-29T12:41:12Z</time>
      </trkpt>
      <trkpt lat="59.8713828" lon="17.6123849">
        <ele>17.9218</ele>
        <time>2014-05-29T12:41:13Z</time>
      </trkpt>
      <trkpt lat="59.8714215" lon="17.6122888">
        <ele>17.4412</ele>
        <time>2014-05-29T12:41:14Z</time>
      </trkpt>
      <trkpt lat="59.8714631" lon="17.6121952">
        <ele>16.9604</ele>
        <time>2014-05-29T12:41:15Z</time>
      </trkpt>
      <trkpt lat="59.8715053" lon="17.6121027">
        <ele>16.9604</ele>
        <time>2014-05-29T12:41:16Z</time>
      </trkpt>
      <trkpt lat="59.8715469" lon="17.6120108">
        <ele>17.4412</ele>
        <time>2014-05-29T12:41:17Z</time>
      </trkpt>
      <trkpt lat="59.8715877" lon="17.6119219">
        <ele>17.4412</ele>
        <time>2014-05-29T12:41:18Z</time>
      </trkpt>
      <trkpt lat="59.8716294" lon="17.6118441">
        <ele>16.9604</ele>
        <time>2014-05-29T12:41:19Z</time>
      </trkpt>
      <trkpt lat="59.8716705" lon="17.6117767">
        <ele>15.999</ele>
        <time>2014-05-29T12:41:20Z</time>
      </trkpt>
      <trkpt lat="59.871712" lon="17.6117113">
        <ele>15.5184</ele>
        <time>2014-05-29T12:41:21Z</time>
      </trkpt>
      <trkpt lat="59.871754" lon="17.6116351">
        <ele>15.5184</ele>
        <time>2014-05-29T12:41:22Z</time>
      </trkpt>
      <trkpt lat="59.8717928" lon="17.6115503">
        <ele>14.557</ele>
        <time>2014-05-29T12:41:23Z</time>
      </trkpt>
      <trkpt lat="59.8718359" lon="17.6114686">
        <ele>14.557</ele>
        <time>2014-05-29T12:41:24Z</time>
      </trkpt>
      <trkpt lat="59.8718847" lon="17.6113958">
        <ele>14.557</ele>
        <time>2014-05-29T12:41:25Z</time>
      </trkpt>
      <trkpt lat="59.8719323" lon="17.6113203">
        <ele>15.0377</ele>
        <time>2014-05-29T12:41:26Z</time>
      </trkpt>
      <trkpt lat="59.8719805" lon="17.611238">
        <ele>15.5184</ele>
        <time>2014-05-29T12:41:27Z</time>
      </trkpt>
      <trkpt lat="59.8720236" lon="17.6111516">
        <ele>15.0377</ele>
        <time>2014-05-29T12:41:28Z</time>
      </trkpt>
      <trkpt lat="59.87207" lon="17.6110684">
        <ele>14.557</ele>
        <time>2014-05-29T12:41:29Z</time>
      </trkpt>
      <trkpt lat="59.8721182" lon="17.6109903">
        <ele>14.557</ele>
        <time>2014-05-29T12:41:30Z</time>
      </trkpt>
      <trkpt lat="59.872168" lon="17.6109163">
        <ele>15.0377</ele>
        <time>2014-05-29T12:41:31Z</time>
      </trkpt>
      <trkpt lat="59.8722199" lon="17.6108412">
        <ele>15.0377</ele>
        <time>2014-05-29T12:41:32Z</time>
      </trkpt>
      <trkpt lat="59.8722659" lon="17.610764">
        <ele>15.0377</ele>
        <time>2014-05-29T12:41:33Z</time>
      </trkpt>
      <trkpt lat="59.8723051" lon="17.6106848">
        <ele>14.0764</ele>
        <time>2014-05-29T12:41:34Z</time>
      </trkpt>
      <trkpt lat="59.8723494" lon="17.6105996">
        <ele>13.5958</ele>
        <time>2014-05-29T12:41:35Z</time>
      </trkpt>
      <trkpt lat="59.8723954" lon="17.6105181">
        <ele>13.5958</ele>
        <time>2014-05-29T12:41:36Z</time>
      </trkpt>
      <trkpt lat="59.8724411" lon="17.6104361">
        <ele>12.6344</ele>
        <time>2014-05-29T12:41:37Z</time>
      </trkpt>
      <trkpt lat="59.8724943" lon="17.6103647">
        <ele>13.5958</ele>
        <time>2014-05-29T12:41:38Z</time>
      </trkpt>
      <trkpt lat="59.8725435" lon="17.6102955">
        <ele>13.1151</ele>
        <time>2014-05-29T12:41:39Z</time>
      </trkpt>
      <trkpt lat="59.8725916" lon="17.6102158">
        <ele>12.6344</ele>
        <time>2014-05-29T12:41:40Z</time>
      </trkpt>
      <trkpt lat="59.8726351" lon="17.6101247">
        <ele>11.6732</ele>
        <time>2014-05-29T12:41:41Z</time>
      </trkpt>
      <trkpt lat="59.8726793" lon="17.6100388">
        <ele>11.6732</ele>
        <time>2014-05-29T12:41:42Z</time>
      </trkpt>
      <trkpt lat="59.8727223" lon="17.6099543">
        <ele>10.7118</ele>
        <time>2014-05-29T12:41:43Z</time>
      </trkpt>
      <trkpt lat="59.8727657" lon="17.6098612">
        <ele>11.1925</ele>
        <time>2014-05-29T12:41:44Z</time>
      </trkpt>
      <trkpt lat="59.8728053" lon="17.6097586">
        <ele>11.6732</ele>
        <time>2014-05-29T12:41:45Z</time>
      </trkpt>
      <trkpt lat="59.8728414" lon="17.6096487">
        <ele>13.1151</ele>
        <time>2014-05-29T12:41:46Z</time>
      </trkpt>
      <trkpt lat="59.8728719" lon="17.6095354">
        <ele>13.5958</ele>
        <time>2014-05-29T12:41:47Z</time>
      </trkpt>
      <trkpt lat="59.8729071" lon="17.6094282">
        <ele>13.5958</ele>
        <time>2014-05-29T12:41:48Z</time>
      </trkpt>
      <trkpt lat="59.8729564" lon="17.6093412">
        <ele>14.0764</ele>
        <time>2014-05-29T12:41:49Z</time>
      </trkpt>
      <trkpt lat="59.8730134" lon="17.6092763">
        <ele>13.5958</ele>
        <time>2014-05-29T12:41:50Z</time>
      </trkpt>
      <trkpt lat="59.8730723" lon="17.6092189">
        <ele>13.5958</ele>
        <time>2014-05-29T12:41:51Z</time>
      </trkpt>
      <trkpt lat="59.8731289" lon="17.6091613">
        <ele>13.5958</ele>
        <time>2014-05-29T12:41:52Z</time>
      </trkpt>
      <trkpt lat="59.8731829" lon="17.6091101">
        <ele>13.5958</ele>
        <time>2014-05-29T12:41:53Z</time>
      </trkpt>
      <trkpt lat="59.8732357" lon="17.609071">
        <ele>13.1151</ele>
        <time>2014-05-29T12:41:54Z</time>
      </trkpt>
      <trkpt lat="59.8732842" lon="17.6090375">
        <ele>12.6344</ele>
        <time>2014-05-29T12:41:55Z</time>
      </trkpt>
      <trkpt lat="59.8733277" lon="17.6089981">
        <ele>12.6344</ele>
        <time>2014-05-29T12:41:56Z</time>
      </trkpt>
      <trkpt lat="59.8733707" lon="17.6089545">
        <ele>12.1538</ele>
        <time>2014-05-29T12:41:57Z</time>
      </trkpt>
      <trkpt lat="59.8734129" lon="17.6089115">
        <ele>12.1538</ele>
        <time>2014-05-29T12:41:58Z</time>
      </trkpt>
      <trkpt lat="59.8734563" lon="17.6088689">
        <ele>11.6732</ele>
        <time>2014-05-29T12:41:59Z</time>
      </trkpt>
      <trkpt lat="59.8734994" lon="17.6088277">
        <ele>11.6732</ele>
        <time>2014-05-29T12:42:00Z</time>
      </trkpt>
      <trkpt lat="59.8735427" lon="17.6087869">
        <ele>11.6732</ele>
        <time>2014-05-29T12:42:01Z</time>
      </trkpt>
      <trkpt lat="59.8735861" lon="17.6087479">
        <ele>11.6732</ele>
        <time>2014-05-29T12:42:02Z</time>
      </trkpt>
      <trkpt lat="59.8736275" lon="17.6087024">
        <ele>11.6732</ele>
        <time>2014-05-29T12:42:03Z</time>
      </trkpt>
      <trkpt lat="59.8736654" lon="17.6086479">
        <ele>11.6732</ele>
        <time>2014-05-29T12:42:04Z</time>
      </trkpt>
      <trkpt lat="59.8737037" lon="17.6085923">
        <ele>11.1925</ele>
        <time>2014-05-29T12:42:05Z</time>
      </trkpt>
      <trkpt lat="59.8737439" lon="17.6085395">
        <ele>11.1925</ele>
        <time>2014-05-29T12:42:06Z</time>
      </trkpt>
      <trkpt lat="59.8737842" lon="17.6084916">
        <ele>11.1925</ele>
        <time>2014-05-29T12:42:07Z</time>
      </trkpt>
      <trkpt lat="59.8738236" lon="17.6084511">
        <ele>11.1925</ele>
        <time>2014-05-29T12:42:08Z</time>
      </trkpt>
      <trkpt lat="59.8738629" lon="17.6084203">
        <ele>11.1925</ele>
        <time>2014-05-29T12:42:09Z</time>
      </trkpt>
      <trkpt lat="59.8739039" lon="17.6083998">
        <ele>11.1925</ele>
        <time>2014-05-29T12:42:10Z</time>
      </trkpt>
      <trkpt lat="59.8739464" lon="17.608382">
        <ele>11.1925</ele>
        <time>2014-05-29T12:42:11Z</time>
      </trkpt>
      <trkpt lat="59.8739912" lon="17.6083614">
        <ele>11.1925</ele>
        <time>2014-05-29T12:42:12Z</time>
      </trkpt>
      <trkpt lat="59.8740381" lon="17.6083366">
        <ele>11.6732</ele>
        <time>2014-05-29T12:42:13Z</time>
      </trkpt>
      <trkpt lat="59.8740879" lon="17.608311">
        <ele>11.6732</ele>
        <time>2014-05-29T12:42:14Z</time>
      </trkpt>
      <trkpt lat="59.8741409" lon="17.60829">
        <ele>11.6732</ele>
        <time>2014-05-29T12:42:15Z</time>
      </trkpt>
      <trkpt lat="59.8741946" lon="17.6082707">
        <ele>12.1538</ele>
        <time>2014-05-29T12:42:16Z</time>
      </trkpt>
      <trkpt lat="59.8742484" lon="17.6082456">
        <ele>12.1538</ele>
        <time>2014-05-29T12:42:17Z</time>
      </trkpt>
      <trkpt lat="59.874302" lon="17.6082157">
        <ele>12.1538</ele>
        <time>2014-05-29T12:42:18Z</time>
      </trkpt>
      <trkpt lat="59.8743539" lon="17.6081828">
        <ele>12.1538</ele>
        <time>2014-05-29T12:42:19Z</time>
      </trkpt>
      <trkpt lat="59.8744052" lon="17.6081518">
        <ele>12.1538</ele>
        <time>2014-05-29T12:42:20Z</time>
      </trkpt>
      <trkpt lat="59.8744564" lon="17.6081272">
        <ele>12.1538</ele>
        <time>2014-05-29T12:42:21Z</time>
      </trkpt>
      <trkpt lat="59.8745108" lon="17.608102">
        <ele>12.1538</ele>
        <time>2014-05-29T12:42:22Z</time>
      </trkpt>
      <trkpt lat="59.8745653" lon="17.6080745">
        <ele>12.6344</ele>
        <time>2014-05-29T12:42:23Z</time>
      </trkpt>
      <trkpt lat="59.8746187" lon="17.6080418">
        <ele>12.6344</ele>
        <time>2014-05-29T12:42:24Z</time>
      </trkpt>
      <trkpt lat="59.8746726" lon="17.608002">
        <ele>12.6344</ele>
        <time>2014-05-29T12:42:25Z</time>
      </trkpt>
      <trkpt lat="59.8747254" lon="17.6079637">
        <ele>12.6344</ele>
        <time>2014-05-29T12:42:26Z</time>
      </trkpt>
      <trkpt lat="59.8747787" lon="17.6079243">
        <ele>12.6344</ele>
        <time>2014-05-29T12:42:27Z</time>
      </trkpt>
      <trkpt lat="59.8748336" lon="17.6078839">
        <ele>12.6344</ele>
        <time>2014-05-29T12:42:28Z</time>
      </trkpt>
      <trkpt lat="59.8748886" lon="17.6078423">
        <ele>12.6344</ele>
        <time>2014-05-29T12:42:29Z</time>
      </trkpt>
      <trkpt lat="59.8749423" lon="17.6077963">
        <ele>12.6344</ele>
        <time>2014-05-29T12:42:30Z</time>
      </trkpt>
      <trkpt lat="59.8749928" lon="17.60774">
        <ele>12.6344</ele>
        <time>2014-05-29T12:42:31Z</time>
      </trkpt>
      <trkpt lat="59.8750433" lon="17.607674">
        <ele>12.6344</ele>
        <time>2014-05-29T12:42:32Z</time>
      </trkpt>
      <trkpt lat="59.8750921" lon="17.6076056">
        <ele>12.6344</ele>
        <time>2014-05-29T12:42:33Z</time>
      </trkpt>
      <trkpt lat="59.8751394" lon="17.6075369">
        <ele>12.1538</ele>
        <time>2014-05-29T12:42:34Z</time>
      </trkpt>
      <trkpt lat="59.8751889" lon="17.6074636">
        <ele>12.1538</ele>
        <time>2014-05-29T12:42:35Z</time>
      </trkpt>
      <trkpt lat="59.8752361" lon="17.6073819">
        <ele>12.1538</ele>
        <time>2014-05-29T12:42:36Z</time>
      </trkpt>
      <trkpt lat="59.8752771" lon="17.6072883">
        <ele>11.6732</ele>
        <time>2014-05-29T12:42:37Z</time>
      </trkpt>
      <trkpt lat="59.8753131" lon="17.607183">
        <ele>11.6732</ele>
        <time>2014-05-29T12:42:38Z</time>
      </trkpt>
      <trkpt lat="59.8753465" lon="17.6070696">
        <ele>11.1925</ele>
        <time>2014-05-29T12:42:39Z</time>
      </trkpt>
      <trkpt lat="59.8753789" lon="17.6069505">
        <ele>10.7118</ele>
        <time>2014-05-29T12:42:40Z</time>
      </trkpt>
      <trkpt lat="59.8754149" lon="17.6068332">
        <ele>10.2312</ele>
        <time>2014-05-29T12:42:41Z</time>
      </trkpt>
      <trkpt lat="59.8754572" lon="17.6067215">
        <ele>9.75061</ele>
        <time>2014-05-29T12:42:42Z</time>
      </trkpt>
      <trkpt lat="59.8755045" lon="17.6066148">
        <ele>9.75061</ele>
        <time>2014-05-29T12:42:43Z</time>
      </trkpt>
      <trkpt lat="59.8755549" lon="17.6065122">
        <ele>9.2699</ele>
        <time>2014-05-29T12:42:44Z</time>
      </trkpt>
      <trkpt lat="59.8756054" lon="17.6064174">
        <ele>9.2699</ele>
        <time>2014-05-29T12:42:45Z</time>
      </trkpt>
      <trkpt lat="59.8756557" lon="17.6063279">
        <ele>9.2699</ele>
        <time>2014-05-29T12:42:46Z</time>
      </trkpt>
      <trkpt lat="59.875706" lon="17.6062176">
        <ele>9.2699</ele>
        <time>2014-05-29T12:42:47Z</time>
      </trkpt>
      <trkpt lat="59.8757474" lon="17.6061227">
        <ele>9.2699</ele>
        <time>2014-05-29T12:42:48Z</time>
      </trkpt>
      <trkpt lat="59.8757874" lon="17.6060523">
        <ele>9.75061</ele>
        <time>2014-05-29T12:42:49Z</time>
      </trkpt>
      <trkpt lat="59.8758293" lon="17.6059868">
        <ele>9.75061</ele>
        <time>2014-05-29T12:42:50Z</time>
      </trkpt>
      <trkpt lat="59.875871" lon="17.6059222">
        <ele>10.2312</ele>
        <time>2014-05-29T12:42:51Z</time>
      </trkpt>
      <trkpt lat="59.875913" lon="17.6058643">
        <ele>11.1925</ele>
        <time>2014-05-29T12:42:52Z</time>
      </trkpt>
      <trkpt lat="59.8759484" lon="17.6058158">
        <ele>11.6732</ele>
        <time>2014-05-29T12:42:53Z</time>
      </trkpt>
      <trkpt lat="59.8759807" lon="17.6057725">
        <ele>11.6732</ele>
        <time>2014-05-29T12:42:54Z</time>
      </trkpt>
      <trkpt lat="59.8760089" lon="17.6057321">
        <ele>12.1538</ele>
        <time>2014-05-29T12:42:55Z</time>
      </trkpt>
      <trkpt lat="59.8760344" lon="17.6056907">
        <ele>12.1538</ele>
        <time>2014-05-29T12:42:56Z</time>
      </trkpt>
      <trkpt lat="59.8760545" lon="17.6056454">
        <ele>12.1538</ele>
        <time>2014-05-29T12:42:57Z</time>
      </trkpt>
      <trkpt lat="59.8760712" lon="17.6055875">
        <ele>12.1538</ele>
        <time>2014-05-29T12:42:58Z</time>
      </trkpt>
      <trkpt lat="59.8760912" lon="17.6055306">
        <ele>12.6344</ele>
        <time>2014-05-29T12:42:59Z</time>
      </trkpt>
      <trkpt lat="59.8761147" lon="17.6054812">
        <ele>12.6344</ele>
        <time>2014-05-29T12:43:00Z</time>
      </trkpt>
      <trkpt lat="59.8761391" lon="17.6054312">
        <ele>12.6344</ele>
        <time>2014-05-29T12:43:01Z</time>
      </trkpt>
      <trkpt lat="59.8761696" lon="17.6054031">
        <ele>12.6344</ele>
        <time>2014-05-29T12:43:02Z</time>
      </trkpt>
      <trkpt lat="59.8762031" lon="17.6054533">
        <ele>13.1151</ele>
        <time>2014-05-29T12:43:03Z</time>
      </trkpt>
      <trkpt lat="59.8762233" lon="17.605528">
        <ele>13.1151</ele>
        <time>2014-05-29T12:43:04Z</time>
      </trkpt>
      <trkpt lat="59.8762469" lon="17.6056015">
        <ele>13.5958</ele>
        <time>2014-05-29T12:43:05Z</time>
      </trkpt>
      <trkpt lat="59.8762748" lon="17.6056694">
        <ele>13.5958</ele>
        <time>2014-05-29T12:43:06Z</time>
      </trkpt>
      <trkpt lat="59.8763036" lon="17.6057371">
        <ele>13.5958</ele>
        <time>2014-05-29T12:43:07Z</time>
      </trkpt>
      <trkpt lat="59.8763343" lon="17.6058046">
        <ele>13.5958</ele>
        <time>2014-05-29T12:43:08Z</time>
      </trkpt>
      <trkpt lat="59.8763701" lon="17.6058721">
        <ele>14.0764</ele>
        <time>2014-05-29T12:43:09Z</time>
      </trkpt>
      <trkpt lat="59.8764075" lon="17.6059417">
        <ele>14.0764</ele>
        <time>2014-05-29T12:43:10Z</time>
      </trkpt>
      <trkpt lat="59.8764463" lon="17.6060185">
        <ele>14.0764</ele>
        <time>2014-05-29T12:43:11Z</time>
      </trkpt>
      <trkpt lat="59.8764795" lon="17.6061072">
        <ele>14.0764</ele>
        <time>2014-05-29T12:43:12Z</time>
      </trkpt>
      <trkpt lat="59.8765095" lon="17.6061997">
        <ele>13.5958</ele>
        <time>2014-05-29T12:43:13Z</time>
      </trkpt>
      <trkpt lat="59.8765396" lon="17.6062935">
        <ele>13.5958</ele>
        <time>2014-05-29T12:43:14Z</time>
      </trkpt>
      <trkpt lat="59.8765706" lon="17.6063892">
        <ele>13.5958</ele>
        <time>2014-05-29T12:43:15Z</time>
      </trkpt>
      <trkpt lat="59.8766016" lon="17.6064832">
        <ele>13.5958</ele>
        <time>2014-05-29T12:43:16Z</time>
      </trkpt>
      <trkpt lat="59.8766313" lon="17.6065762">
        <ele>13.5958</ele>
        <time>2014-05-29T12:43:17Z</time>
      </trkpt>
      <trkpt lat="59.876659" lon="17.6066708">
        <ele>13.5958</ele>
        <time>2014-05-29T12:43:18Z</time>
      </trkpt>
      <trkpt lat="59.8766856" lon="17.6067646">
        <ele>13.1151</ele>
        <time>2014-05-29T12:43:19Z</time>
      </trkpt>
      <trkpt lat="59.8767125" lon="17.6068577">
        <ele>13.1151</ele>
        <time>2014-05-29T12:43:20Z</time>
      </trkpt>
      <trkpt lat="59.876741" lon="17.6069488">
        <ele>13.1151</ele>
        <time>2014-05-29T12:43:21Z</time>
      </trkpt>
      <trkpt lat="59.8767685" lon="17.6070401">
        <ele>13.5958</ele>
        <time>2014-05-29T12:43:22Z</time>
      </trkpt>
      <trkpt lat="59.8767964" lon="17.6071306">
        <ele>13.5958</ele>
        <time>2014-05-29T12:43:23Z</time>
      </trkpt>
      <trkpt lat="59.8768244" lon="17.6072203">
        <ele>13.5958</ele>
        <time>2014-05-29T12:43:24Z</time>
      </trkpt>
      <trkpt lat="59.8768529" lon="17.6073092">
        <ele>13.5958</ele>
        <time>2014-05-29T12:43:25Z</time>
      </trkpt>
      <trkpt lat="59.8768801" lon="17.607397">
        <ele>13.5958</ele>
        <time>2014-05-29T12:43:26Z</time>
      </trkpt>
      <trkpt lat="59.8769062" lon="17.6074825">
        <ele>13.5958</ele>
        <time>2014-05-29T12:43:27Z</time>
      </trkpt>
      <trkpt lat="59.8769325" lon="17.6075637">
        <ele>13.5958</ele>
        <time>2014-05-29T12:43:28Z</time>
      </trkpt>
      <trkpt lat="59.8769579" lon="17.6076429">
        <ele>13.5958</ele>
        <time>2014-05-29T12:43:29Z</time>
      </trkpt>
      <trkpt lat="59.8769812" lon="17.6077224">
        <ele>14.0764</ele>
        <time>2014-05-29T12:43:30Z</time>
      </trkpt>
      <trkpt lat="59.8770026" lon="17.607802">
        <ele>14.0764</ele>
        <time>2014-05-29T12:43:31Z</time>
      </trkpt>
      <trkpt lat="59.8770244" lon="17.6078786">
        <ele>14.0764</ele>
        <time>2014-05-29T12:43:32Z</time>
      </trkpt>
      <trkpt lat="59.8770477" lon="17.6079508">
        <ele>14.0764</ele>
        <time>2014-05-29T12:43:33Z</time>
      </trkpt>
      <trkpt lat="59.8770714" lon="17.6080218">
        <ele>14.0764</ele>
        <time>2014-05-29T12:43:34Z</time>
      </trkpt>
      <trkpt lat="59.8770942" lon="17.6080933">
        <ele>14.557</ele>
        <time>2014-05-29T12:43:35Z</time>
      </trkpt>
      <trkpt lat="59.8771155" lon="17.6081661">
        <ele>14.557</ele>
        <time>2014-05-29T12:43:36Z</time>
      </trkpt>
      <trkpt lat="59.8771373" lon="17.6082394">
        <ele>14.557</ele>
        <time>2014-05-29T12:43:37Z</time>
      </trkpt>
      <trkpt lat="59.8771602" lon="17.6083137">
        <ele>14.557</ele>
        <time>2014-05-29T12:43:38Z</time>
      </trkpt>
      <trkpt lat="59.8771833" lon="17.6083905">
        <ele>14.557</ele>
        <time>2014-05-29T12:43:39Z</time>
      </trkpt>
      <trkpt lat="59.8772066" lon="17.6084694">
        <ele>15.0377</ele>
        <time>2014-05-29T12:43:40Z</time>
      </trkpt>
      <trkpt lat="59.87723" lon="17.6085485">
        <ele>15.0377</ele>
        <time>2014-05-29T12:43:41Z</time>
      </trkpt>
      <trkpt lat="59.8772533" lon="17.6086278">
        <ele>15.0377</ele>
        <time>2014-05-29T12:43:42Z</time>
      </trkpt>
      <trkpt lat="59.8772766" lon="17.6087087">
        <ele>15.0377</ele>
        <time>2014-05-29T12:43:43Z</time>
      </trkpt>
      <trkpt lat="59.8773002" lon="17.6087909">
        <ele>15.5184</ele>
        <time>2014-05-29T12:43:44Z</time>
      </trkpt>
      <trkpt lat="59.8773241" lon="17.6088729">
        <ele>15.5184</ele>
        <time>2014-05-29T12:43:45Z</time>
      </trkpt>
      <trkpt lat="59.8773487" lon="17.6089546">
        <ele>15.5184</ele>
        <time>2014-05-29T12:43:46Z</time>
      </trkpt>
      <trkpt lat="59.8773738" lon="17.6090358">
        <ele>15.999</ele>
        <time>2014-05-29T12:43:47Z</time>
      </trkpt>
      <trkpt lat="59.8773979" lon="17.6091186">
        <ele>15.999</ele>
        <time>2014-05-29T12:43:48Z</time>
      </trkpt>
      <trkpt lat="59.8774222" lon="17.6092002">
        <ele>15.999</ele>
        <time>2014-05-29T12:43:49Z</time>
      </trkpt>
      <trkpt lat="59.8774471" lon="17.609282">
        <ele>16.4797</ele>
        <time>2014-05-29T12:43:50Z</time>
      </trkpt>
      <trkpt lat="59.8774724" lon="17.6093636">
        <ele>16.4797</ele>
        <time>2014-05-29T12:43:51Z</time>
      </trkpt>
      <trkpt lat="59.8774978" lon="17.6094447">
        <ele>16.4797</ele>
        <time>2014-05-29T12:43:52Z</time>
      </trkpt>
      <trkpt lat="59.8775231" lon="17.6095251">
        <ele>16.9604</ele>
        <time>2014-05-29T12:43:53Z</time>
      </trkpt>
      <trkpt lat="59.8775482" lon="17.6096042">
        <ele>16.9604</ele>
        <time>2014-05-29T12:43:54Z</time>
      </trkpt>
      <trkpt lat="59.8775722" lon="17.6096859">
        <ele>17.9218</ele>
        <time>2014-05-29T12:43:55Z</time>
      </trkpt>
      <trkpt lat="59.8775952" lon="17.6097682">
        <ele>17.9218</ele>
        <time>2014-05-29T12:43:56Z</time>
      </trkpt>
      <trkpt lat="59.8776185" lon="17.6098488">
        <ele>18.4023</ele>
        <time>2014-05-29T12:43:57Z</time>
      </trkpt>
      <trkpt lat="59.8776408" lon="17.6099299">
        <ele>18.4023</ele>
        <time>2014-05-29T12:43:58Z</time>
      </trkpt>
      <trkpt lat="59.8776642" lon="17.6100081">
        <ele>18.4023</ele>
        <time>2014-05-29T12:43:59Z</time>
      </trkpt>
      <trkpt lat="59.8776879" lon="17.6100821">
        <ele>18.8831</ele>
        <time>2014-05-29T12:44:00Z</time>
      </trkpt>
      <trkpt lat="59.8777102" lon="17.6101533">
        <ele>18.8831</ele>
        <time>2014-05-29T12:44:01Z</time>
      </trkpt>
      <trkpt lat="59.8777307" lon="17.6102228">
        <ele>19.3638</ele>
        <time>2014-05-29T12:44:02Z</time>
      </trkpt>
      <trkpt lat="59.8777532" lon="17.6102889">
        <ele>19.8444</ele>
        <time>2014-05-29T12:44:03Z</time>
      </trkpt>
      <trkpt lat="59.8777771" lon="17.6103513">
        <ele>19.8444</ele>
        <time>2014-05-29T12:44:04Z</time>
      </trkpt>
      <trkpt lat="59.8778015" lon="17.6104108">
        <ele>20.325</ele>
        <time>2014-05-29T12:44:05Z</time>
      </trkpt>
      <trkpt lat="59.8778234" lon="17.6104724">
        <ele>20.325</ele>
        <time>2014-05-29T12:44:06Z</time>
      </trkpt>
      <trkpt lat="59.8778463" lon="17.6105335">
        <ele>20.8057</ele>
        <time>2014-05-29T12:44:07Z</time>
      </trkpt>
      <trkpt lat="59.8778686" lon="17.6105941">
        <ele>21.2864</ele>
        <time>2014-05-29T12:44:08Z</time>
      </trkpt>
      <trkpt lat="59.8778877" lon="17.6106554">
        <ele>21.2864</ele>
        <time>2014-05-29T12:44:09Z</time>
      </trkpt>
      <trkpt lat="59.8779064" lon="17.6107169">
        <ele>21.767</ele>
        <time>2014-05-29T12:44:10Z</time>
      </trkpt>
      <trkpt lat="59.8779164" lon="17.6107821">
        <ele>21.767</ele>
        <time>2014-05-29T12:44:11Z</time>
      </trkpt>
      <trkpt lat="59.8779096" lon="17.6108432">
        <ele>21.767</ele>
        <time>2014-05-29T12:44:12Z</time>
      </trkpt>
      <trkpt lat="59.8778893" lon="17.6108871">
        <ele>21.767</ele>
        <time>2014-05-29T12:44:13Z</time>
      </trkpt>
      <trkpt lat="59.8778629" lon="17.6109205">
        <ele>21.767</ele>
        <time>2014-05-29T12:44:14Z</time>
      </trkpt>
      <trkpt lat="59.8778325" lon="17.6109511">
        <ele>21.2864</ele>
        <time>2014-05-29T12:44:15Z</time>
      </trkpt>
      <trkpt lat="59.8777991" lon="17.6109807">
        <ele>21.2864</ele>
        <time>2014-05-29T12:44:16Z</time>
      </trkpt>
      <trkpt lat="59.8777635" lon="17.6110126">
        <ele>20.8057</ele>
        <time>2014-05-29T12:44:17Z</time>
      </trkpt>
      <trkpt lat="59.8777261" lon="17.6110443">
        <ele>20.325</ele>
        <time>2014-05-29T12:44:18Z</time>
      </trkpt>
      <trkpt lat="59.8776868" lon="17.6110751">
        <ele>20.325</ele>
        <time>2014-05-29T12:44:19Z</time>
      </trkpt>
      <trkpt lat="59.8776454" lon="17.611106">
        <ele>19.8444</ele>
        <time>2014-05-29T12:44:20Z</time>
      </trkpt>
      <trkpt lat="59.8776008" lon="17.611139">
        <ele>19.3638</ele>
        <time>2014-05-29T12:44:21Z</time>
      </trkpt>
      <trkpt lat="59.8775538" lon="17.6111785">
        <ele>18.8831</ele>
        <time>2014-05-29T12:44:22Z</time>
      </trkpt>
      <trkpt lat="59.8775055" lon="17.6112261">
        <ele>18.8831</ele>
        <time>2014-05-29T12:44:23Z</time>
      </trkpt>
      <trkpt lat="59.8774573" lon="17.6112763">
        <ele>18.4023</ele>
        <time>2014-05-29T12:44:24Z</time>
      </trkpt>
      <trkpt lat="59.8774176" lon="17.6113287">
        <ele>17.9218</ele>
        <time>2014-05-29T12:44:25Z</time>
      </trkpt>
      <trkpt lat="59.8773941" lon="17.6113886">
        <ele>16.9604</ele>
        <time>2014-05-29T12:44:26Z</time>
      </trkpt>
      <trkpt lat="59.877387" lon="17.6114659">
        <ele>16.9604</ele>
        <time>2014-05-29T12:44:27Z</time>
      </trkpt>
      <trkpt lat="59.8773931" lon="17.6115489">
        <ele>16.9604</ele>
        <time>2014-05-29T12:44:28Z</time>
      </trkpt>
      <trkpt lat="59.8774082" lon="17.6116196">
        <ele>16.4797</ele>
        <time>2014-05-29T12:44:29Z</time>
      </trkpt>
      <trkpt lat="59.8774297" lon="17.6116825">
        <ele>16.4797</ele>
        <time>2014-05-29T12:44:30Z</time>
      </trkpt>
      <trkpt lat="59.877459" lon="17.6117361">
        <ele>16.9604</ele>
        <time>2014-05-29T12:44:31Z</time>
      </trkpt>
      <trkpt lat="59.8774896" lon="17.611782">
        <ele>17.4412</ele>
        <time>2014-05-29T12:44:32Z</time>
      </trkpt>
      <trkpt lat="59.8775183" lon="17.611832">
        <ele>17.4412</ele>
        <time>2014-05-29T12:44:33Z</time>
      </trkpt>
      <trkpt lat="59.877546" lon="17.611885">
        <ele>17.9218</ele>
        <time>2014-05-29T12:44:34Z</time>
      </trkpt>
      <trkpt lat="59.8775745" lon="17.6119385">
        <ele>18.4023</ele>
        <time>2014-05-29T12:44:35Z</time>
      </trkpt>
      <trkpt lat="59.8776024" lon="17.6119983">
        <ele>18.8831</ele>
        <time>2014-05-29T12:44:36Z</time>
      </trkpt>
      <trkpt lat="59.8776294" lon="17.6120622">
        <ele>19.3638</ele>
        <time>2014-05-29T12:44:37Z</time>
      </trkpt>
      <trkpt lat="59.8776562" lon="17.6121284">
        <ele>19.3638</ele>
        <time>2014-05-29T12:44:38Z</time>
      </trkpt>
      <trkpt lat="59.8776831" lon="17.6121952">
        <ele>19.8444</ele>
        <time>2014-05-29T12:44:39Z</time>
      </trkpt>
      <trkpt lat="59.877711" lon="17.6122632">
        <ele>19.8444</ele>
        <time>2014-05-29T12:44:40Z</time>
      </trkpt>
      <trkpt lat="59.8777393" lon="17.6123322">
        <ele>19.8444</ele>
        <time>2014-05-29T12:44:41Z</time>
      </trkpt>
      <trkpt lat="59.8777686" lon="17.6124065">
        <ele>19.8444</ele>
        <time>2014-05-29T12:44:42Z</time>
      </trkpt>
      <trkpt lat="59.8777983" lon="17.6124843">
        <ele>19.8444</ele>
        <time>2014-05-29T12:44:43Z</time>
      </trkpt>
      <trkpt lat="59.8778268" lon="17.6125642">
        <ele>19.8444</ele>
        <time>2014-05-29T12:44:44Z</time>
      </trkpt>
      <trkpt lat="59.8778548" lon="17.6126478">
        <ele>19.8444</ele>
        <time>2014-05-29T12:44:45Z</time>
      </trkpt>
      <trkpt lat="59.8778837" lon="17.6127344">
        <ele>19.8444</ele>
        <time>2014-05-29T12:44:46Z</time>
      </trkpt>
      <trkpt lat="59.877911" lon="17.6128241">
        <ele>19.8444</ele>
        <time>2014-05-29T12:44:47Z</time>
      </trkpt>
      <trkpt lat="59.8779386" lon="17.6129134">
        <ele>20.325</ele>
        <time>2014-05-29T12:44:48Z</time>
      </trkpt>
      <trkpt lat="59.8779697" lon="17.6130035">
        <ele>20.325</ele>
        <time>2014-05-29T12:44:49Z</time>
      </trkpt>
      <trkpt lat="59.8779993" lon="17.6130966">
        <ele>20.325</ele>
        <time>2014-05-29T12:44:50Z</time>
      </trkpt>
      <trkpt lat="59.8780271" lon="17.6131881">
        <ele>19.8444</ele>
        <time>2014-05-29T12:44:51Z</time>
      </trkpt>
      <trkpt lat="59.8780565" lon="17.6132775">
        <ele>19.8444</ele>
        <time>2014-05-29T12:44:52Z</time>
      </trkpt>
      <trkpt lat="59.8780857" lon="17.6133681">
        <ele>19.8444</ele>
        <time>2014-05-29T12:44:53Z</time>
      </trkpt>
      <trkpt lat="59.8781133" lon="17.6134612">
        <ele>19.8444</ele>
        <time>2014-05-29T12:44:54Z</time>
      </trkpt>
      <trkpt lat="59.8781412" lon="17.6135556">
        <ele>19.8444</ele>
        <time>2014-05-29T12:44:55Z</time>
      </trkpt>
      <trkpt lat="59.8781706" lon="17.6136493">
        <ele>19.8444</ele>
        <time>2014-05-29T12:44:56Z</time>
      </trkpt>
      <trkpt lat="59.8781995" lon="17.6137421">
        <ele>19.8444</ele>
        <time>2014-05-29T12:44:57Z</time>
      </trkpt>
      <trkpt lat="59.8782282" lon="17.6138364">
        <ele>19.8444</ele>
        <time>2014-05-29T12:44:58Z</time>
      </trkpt>
      <trkpt lat="59.8782563" lon="17.6139325">
        <ele>19.8444</ele>
        <time>2014-05-29T12:44:59Z</time>
      </trkpt>
      <trkpt lat="59.8782841" lon="17.6140301">
        <ele>19.8444</ele>
        <time>2014-05-29T12:45:00Z</time>
      </trkpt>
      <trkpt lat="59.878311" lon="17.614129">
        <ele>19.8444</ele>
        <time>2014-05-29T12:45:01Z</time>
      </trkpt>
      <trkpt lat="59.8783366" lon="17.614229">
        <ele>19.8444</ele>
        <time>2014-05-29T12:45:02Z</time>
      </trkpt>
      <trkpt lat="59.8783618" lon="17.614328">
        <ele>19.8444</ele>
        <time>2014-05-29T12:45:03Z</time>
      </trkpt>
      <trkpt lat="59.8783888" lon="17.6144252">
        <ele>19.3638</ele>
        <time>2014-05-29T12:45:04Z</time>
      </trkpt>
      <trkpt lat="59.8784166" lon="17.6145222">
        <ele>19.3638</ele>
        <time>2014-05-29T12:45:05Z</time>
      </trkpt>
      <trkpt lat="59.8784436" lon="17.6146201">
        <ele>19.3638</ele>
        <time>2014-05-29T12:45:06Z</time>
      </trkpt>
      <trkpt lat="59.8784692" lon="17.614718">
        <ele>19.3638</ele>
        <time>2014-05-29T12:45:07Z</time>
      </trkpt>
      <trkpt lat="59.8784935" lon="17.6148157">
        <ele>19.3638</ele>
        <time>2014-05-29T12:45:08Z</time>
      </trkpt>
      <trkpt lat="59.878517" lon="17.6149134">
        <ele>19.3638</ele>
        <time>2014-05-29T12:45:09Z</time>
      </trkpt>
      <trkpt lat="59.8785395" lon="17.6150096">
        <ele>19.3638</ele>
        <time>2014-05-29T12:45:10Z</time>
      </trkpt>
      <trkpt lat="59.8785612" lon="17.615104">
        <ele>19.3638</ele>
        <time>2014-05-29T12:45:11Z</time>
      </trkpt>
      <trkpt lat="59.8785815" lon="17.615197">
        <ele>19.3638</ele>
        <time>2014-05-29T12:45:12Z</time>
      </trkpt>
      <trkpt lat="59.8786018" lon="17.6152882">
        <ele>19.3638</ele>
        <time>2014-05-29T12:45:13Z</time>
      </trkpt>
      <trkpt lat="59.8786227" lon="17.615377">
        <ele>19.3638</ele>
        <time>2014-05-29T12:45:14Z</time>
      </trkpt>
      <trkpt lat="59.8786426" lon="17.615464">
        <ele>19.3638</ele>
        <time>2014-05-29T12:45:15Z</time>
      </trkpt>
      <trkpt lat="59.8786618" lon="17.6155506">
        <ele>19.3638</ele>
        <time>2014-05-29T12:45:16Z</time>
      </trkpt>
      <trkpt lat="59.878681" lon="17.6156367">
        <ele>19.3638</ele>
        <time>2014-05-29T12:45:17Z</time>
      </trkpt>
      <trkpt lat="59.8787001" lon="17.6157209">
        <ele>19.3638</ele>
        <time>2014-05-29T12:45:18Z</time>
      </trkpt>
      <trkpt lat="59.8787182" lon="17.6158035">
        <ele>19.3638</ele>
        <time>2014-05-29T12:45:19Z</time>
      </trkpt>
      <trkpt lat="59.8787358" lon="17.6158836">
        <ele>19.3638</ele>
        <time>2014-05-29T12:45:20Z</time>
      </trkpt>
      <trkpt lat="59.8787534" lon="17.6159644">
        <ele>19.3638</ele>
        <time>2014-05-29T12:45:21Z</time>
      </trkpt>
      <trkpt lat="59.8787715" lon="17.6160451">
        <ele>19.8444</ele>
        <time>2014-05-29T12:45:22Z</time>
      </trkpt>
      <trkpt lat="59.8787896" lon="17.6161261">
        <ele>19.8444</ele>
        <time>2014-05-29T12:45:23Z</time>
      </trkpt>
      <trkpt lat="59.8788085" lon="17.6162079">
        <ele>19.8444</ele>
        <time>2014-05-29T12:45:24Z</time>
      </trkpt>
      <trkpt lat="59.8788281" lon="17.6162912">
        <ele>19.8444</ele>
        <time>2014-05-29T12:45:25Z</time>
      </trkpt>
      <trkpt lat="59.8788486" lon="17.6163754">
        <ele>19.8444</ele>
        <time>2014-05-29T12:45:26Z</time>
      </trkpt>
      <trkpt lat="59.8788705" lon="17.6164604">
        <ele>20.325</ele>
        <time>2014-05-29T12:45:27Z</time>
      </trkpt>
      <trkpt lat="59.8788924" lon="17.6165455">
        <ele>20.325</ele>
        <time>2014-05-29T12:45:28Z</time>
      </trkpt>
      <trkpt lat="59.878913" lon="17.6166327">
        <ele>20.325</ele>
        <time>2014-05-29T12:45:29Z</time>
      </trkpt>
      <trkpt lat="59.8789312" lon="17.6167211">
        <ele>20.8057</ele>
        <time>2014-05-29T12:45:30Z</time>
      </trkpt>
      <trkpt lat="59.8789482" lon="17.6168112">
        <ele>20.8057</ele>
        <time>2014-05-29T12:45:31Z</time>
      </trkpt>
      <trkpt lat="59.8789662" lon="17.6169018">
        <ele>20.8057</ele>
        <time>2014-05-29T12:45:32Z</time>
      </trkpt>
      <trkpt lat="59.8789835" lon="17.6169882">
        <ele>20.8057</ele>
        <time>2014-05-29T12:45:33Z</time>
      </trkpt>
      <trkpt lat="59.8789995" lon="17.6170711">
        <ele>21.2864</ele>
        <time>2014-05-29T12:45:34Z</time>
      </trkpt>
      <trkpt lat="59.8790156" lon="17.6171521">
        <ele>21.2864</ele>
        <time>2014-05-29T12:45:35Z</time>
      </trkpt>
      <trkpt lat="59.8790321" lon="17.6172329">
        <ele>21.2864</ele>
        <time>2014-05-29T12:45:36Z</time>
      </trkpt>
      <trkpt lat="59.8790494" lon="17.6173152">
        <ele>21.2864</ele>
        <time>2014-05-29T12:45:37Z</time>
      </trkpt>
      <trkpt lat="59.8790683" lon="17.6173992">
        <ele>21.2864</ele>
        <time>2014-05-29T12:45:38Z</time>
      </trkpt>
      <trkpt lat="59.8790891" lon="17.6174853">
        <ele>21.2864</ele>
        <time>2014-05-29T12:45:39Z</time>
      </trkpt>
      <trkpt lat="59.8791122" lon="17.6175708">
        <ele>21.2864</ele>
        <time>2014-05-29T12:45:40Z</time>
      </trkpt>
      <trkpt lat="59.8791364" lon="17.6176573">
        <ele>21.2864</ele>
        <time>2014-05-29T12:45:41Z</time>
      </trkpt>
      <trkpt lat="59.8791601" lon="17.6177464">
        <ele>22.2476</ele>
        <time>2014-05-29T12:45:42Z</time>
      </trkpt>
      <trkpt lat="59.8791816" lon="17.6178363">
        <ele>22.2476</ele>
        <time>2014-05-29T12:45:43Z</time>
      </trkpt>
      <trkpt lat="59.8792" lon="17.6179272">
        <ele>22.7283</ele>
        <time>2014-05-29T12:45:44Z</time>
      </trkpt>
      <trkpt lat="59.8792175" lon="17.6180177">
        <ele>22.7283</ele>
        <time>2014-05-29T12:45:45Z</time>
      </trkpt>
      <trkpt lat="59.8792366" lon="17.6181063">
        <ele>23.209</ele>
        <time>2014-05-29T12:45:46Z</time>
      </trkpt>
      <trkpt lat="59.8792575" lon="17.6181927">
        <ele>23.6896</ele>
        <time>2014-05-29T12:45:47Z</time>
      </trkpt>
      <trkpt lat="59.8792767" lon="17.6182819">
        <ele>23.6896</ele>
        <time>2014-05-29T12:45:48Z</time>
      </trkpt>
      <trkpt lat="59.8792937" lon="17.6183746">
        <ele>24.1703</ele>
        <time>2014-05-29T12:45:49Z</time>
      </trkpt>
      <trkpt lat="59.8793103" lon="17.6184689">
        <ele>24.651</ele>
        <time>2014-05-29T12:45:50Z</time>
      </trkpt>
      <trkpt lat="59.8793247" lon="17.6185642">
        <ele>24.651</ele>
        <time>2014-05-29T12:45:51Z</time>
      </trkpt>
      <trkpt lat="59.8793362" lon="17.6186585">
        <ele>25.1317</ele>
        <time>2014-05-29T12:45:52Z</time>
      </trkpt>
      <trkpt lat="59.8793518" lon="17.6187492">
        <ele>25.6123</ele>
        <time>2014-05-29T12:45:53Z</time>
      </trkpt>
      <trkpt lat="59.8793697" lon="17.6188383">
        <ele>26.0929</ele>
        <time>2014-05-29T12:45:54Z</time>
      </trkpt>
      <trkpt lat="59.8793896" lon="17.6189222">
        <ele>26.0929</ele>
        <time>2014-05-29T12:45:55Z</time>
      </trkpt>
      <trkpt lat="59.8794118" lon="17.6190041">
        <ele>26.5736</ele>
        <time>2014-05-29T12:45:56Z</time>
      </trkpt>
      <trkpt lat="59.8794348" lon="17.6190869">
        <ele>27.0543</ele>
        <time>2014-05-29T12:45:57Z</time>
      </trkpt>
      <trkpt lat="59.879457" lon="17.6191716">
        <ele>28.0155</ele>
        <time>2014-05-29T12:45:58Z</time>
      </trkpt>
      <trkpt lat="59.8794782" lon="17.6192574">
        <ele>28.4962</ele>
        <time>2014-05-29T12:45:59Z</time>
      </trkpt>
      <trkpt lat="59.8794993" lon="17.6193434">
        <ele>28.9769</ele>
        <time>2014-05-29T12:46:00Z</time>
      </trkpt>
      <trkpt lat="59.8795215" lon="17.6194257">
        <ele>29.4575</ele>
        <time>2014-05-29T12:46:01Z</time>
      </trkpt>
      <trkpt lat="59.8795434" lon="17.6195091">
        <ele>29.9381</ele>
        <time>2014-05-29T12:46:02Z</time>
      </trkpt>
      <trkpt lat="59.8795647" lon="17.6195982">
        <ele>30.4188</ele>
        <time>2014-05-29T12:46:03Z</time>
      </trkpt>
      <trkpt lat="59.8795857" lon="17.6196893">
        <ele>30.4188</ele>
        <time>2014-05-29T12:46:04Z</time>
      </trkpt>
      <trkpt lat="59.8796092" lon="17.6197789">
        <ele>30.4188</ele>
        <time>2014-05-29T12:46:05Z</time>
      </trkpt>
      <trkpt lat="59.8796315" lon="17.6198696">
        <ele>30.4188</ele>
        <time>2014-05-29T12:46:06Z</time>
      </trkpt>
      <trkpt lat="59.8796527" lon="17.6199634">
        <ele>29.9381</ele>
        <time>2014-05-29T12:46:07Z</time>
      </trkpt>
      <trkpt lat="59.8796741" lon="17.6200582">
        <ele>29.9381</ele>
        <time>2014-05-29T12:46:08Z</time>
      </trkpt>
      <trkpt lat="59.8796936" lon="17.6201592">
        <ele>30.4188</ele>
        <time>2014-05-29T12:46:09Z</time>
      </trkpt>
      <trkpt lat="59.8797136" lon="17.6202639">
        <ele>30.8995</ele>
        <time>2014-05-29T12:46:10Z</time>
      </trkpt>
      <trkpt lat="59.8797354" lon="17.62037">
        <ele>31.3801</ele>
        <time>2014-05-29T12:46:11Z</time>
      </trkpt>
      <trkpt lat="59.8797584" lon="17.620476">
        <ele>32.3416</ele>
        <time>2014-05-29T12:46:12Z</time>
      </trkpt>
      <trkpt lat="59.8797848" lon="17.620577">
        <ele>31.8607</ele>
        <time>2014-05-29T12:46:13Z</time>
      </trkpt>
      <trkpt lat="59.8798107" lon="17.6206777">
        <ele>31.8607</ele>
        <time>2014-05-29T12:46:14Z</time>
      </trkpt>
      <trkpt lat="59.8798356" lon="17.6207767">
        <ele>31.8607</ele>
        <time>2014-05-29T12:46:15Z</time>
      </trkpt>
      <trkpt lat="59.8798497" lon="17.6208723">
        <ele>31.3801</ele>
        <time>2014-05-29T12:46:16Z</time>
      </trkpt>
      <trkpt lat="59.879845" lon="17.6209609">
        <ele>30.8995</ele>
        <time>2014-05-29T12:46:17Z</time>
      </trkpt>
      <trkpt lat="59.8798225" lon="17.6210403">
        <ele>30.4188</ele>
        <time>2014-05-29T12:46:18Z</time>
      </trkpt>
      <trkpt lat="59.8797878" lon="17.621095">
        <ele>29.9381</ele>
        <time>2014-05-29T12:46:19Z</time>
      </trkpt>
      <trkpt lat="59.8797506" lon="17.6211584">
        <ele>29.4575</ele>
        <time>2014-05-29T12:46:20Z</time>
      </trkpt>
      <trkpt lat="59.8797095" lon="17.6212273">
        <ele>28.9769</ele>
        <time>2014-05-29T12:46:21Z</time>
      </trkpt>
      <trkpt lat="59.8796688" lon="17.6212926">
        <ele>28.4962</ele>
        <time>2014-05-29T12:46:22Z</time>
      </trkpt>
      <trkpt lat="59.8796289" lon="17.6213574">
        <ele>28.0155</ele>
        <time>2014-05-29T12:46:23Z</time>
      </trkpt>
      <trkpt lat="59.8795864" lon="17.6214226">
        <ele>28.4962</ele>
        <time>2014-05-29T12:46:24Z</time>
      </trkpt>
      <trkpt lat="59.8795423" lon="17.6214841">
        <ele>28.4962</ele>
        <time>2014-05-29T12:46:25Z</time>
      </trkpt>
      <trkpt lat="59.8795003" lon="17.6215413">
        <ele>28.0155</ele>
        <time>2014-05-29T12:46:26Z</time>
      </trkpt>
      <trkpt lat="59.8794584" lon="17.6216013">
        <ele>27.0543</ele>
        <time>2014-05-29T12:46:27Z</time>
      </trkpt>
      <trkpt lat="59.8794168" lon="17.6216623">
        <ele>26.5736</ele>
        <time>2014-05-29T12:46:28Z</time>
      </trkpt>
      <trkpt lat="59.8793738" lon="17.6217219">
        <ele>26.0929</ele>
        <time>2014-05-29T12:46:29Z</time>
      </trkpt>
      <trkpt lat="59.8793286" lon="17.6217816">
        <ele>25.6123</ele>
        <time>2014-05-29T12:46:30Z</time>
      </trkpt>
      <trkpt lat="59.8792839" lon="17.6218439">
        <ele>25.1317</ele>
        <time>2014-05-29T12:46:31Z</time>
      </trkpt>
      <trkpt lat="59.87924" lon="17.6219085">
        <ele>24.651</ele>
        <time>2014-05-29T12:46:32Z</time>
      </trkpt>
      <trkpt lat="59.8791927" lon="17.621965">
        <ele>23.6896</ele>
        <time>2014-05-29T12:46:33Z</time>
      </trkpt>
      <trkpt lat="59.8791501" lon="17.622021">
        <ele>22.7283</ele>
        <time>2014-05-29T12:46:34Z</time>
      </trkpt>
      <trkpt lat="59.8791103" lon="17.6220769">
        <ele>22.7283</ele>
        <time>2014-05-29T12:46:35Z</time>
      </trkpt>
      <trkpt lat="59.8790789" lon="17.6221364">
        <ele>22.2476</ele>
        <time>2014-05-29T12:46:36Z</time>
      </trkpt>
      <trkpt lat="59.8790606" lon="17.6222022">
        <ele>21.767</ele>
        <time>2014-05-29T12:46:37Z</time>
      </trkpt>
      <trkpt lat="59.8790547" lon="17.6222758">
        <ele>21.767</ele>
        <time>2014-05-29T12:46:38Z</time>
      </trkpt>
      <trkpt lat="59.8790551" lon="17.6223496">
        <ele>22.2476</ele>
        <time>2014-05-29T12:46:39Z</time>
      </trkpt>
      <trkpt lat="59.8790582" lon="17.6224196">
        <ele>22.7283</ele>
        <time>2014-05-29T12:46:40Z</time>
      </trkpt>
      <trkpt lat="59.8790616" lon="17.6224934">
        <ele>22.7283</ele>
        <time>2014-05-29T12:46:41Z</time>
      </trkpt>
      <trkpt lat="59.8790642" lon="17.622572">
        <ele>23.209</ele>
        <time>2014-05-29T12:46:42Z</time>
      </trkpt>
      <trkpt lat="59.8790688" lon="17.622653">
        <ele>23.6896</ele>
        <time>2014-05-29T12:46:43Z</time>
      </trkpt>
      <trkpt lat="59.8790772" lon="17.6227405">
        <ele>23.6896</ele>
        <time>2014-05-29T12:46:44Z</time>
      </trkpt>
      <trkpt lat="59.8790907" lon="17.62283">
        <ele>23.6896</ele>
        <time>2014-05-29T12:46:45Z</time>
      </trkpt>
      <trkpt lat="59.8791047" lon="17.6229177">
        <ele>23.209</ele>
        <time>2014-05-29T12:46:46Z</time>
      </trkpt>
      <trkpt lat="59.8791161" lon="17.6230051">
        <ele>23.209</ele>
        <time>2014-05-29T12:46:47Z</time>
      </trkpt>
      <trkpt lat="59.879125" lon="17.62309">
        <ele>23.209</ele>
        <time>2014-05-29T12:46:48Z</time>
      </trkpt>
      <trkpt lat="59.8791347" lon="17.623171">
        <ele>23.209</ele>
        <time>2014-05-29T12:46:49Z</time>
      </trkpt>
      <trkpt lat="59.8791424" lon="17.6232525">
        <ele>24.1703</ele>
        <time>2014-05-29T12:46:50Z</time>
      </trkpt>
      <trkpt lat="59.8791487" lon="17.6233277">
        <ele>25.1317</ele>
        <time>2014-05-29T12:46:51Z</time>
      </trkpt>
      <trkpt lat="59.8791563" lon="17.6233981">
        <ele>26.0929</ele>
        <time>2014-05-29T12:46:52Z</time>
      </trkpt>
      <trkpt lat="59.8791673" lon="17.6234766">
        <ele>26.5736</ele>
        <time>2014-05-29T12:46:53Z</time>
      </trkpt>
      <trkpt lat="59.8791825" lon="17.6235654">
        <ele>27.0543</ele>
        <time>2014-05-29T12:46:54Z</time>
      </trkpt>
      <trkpt lat="59.8791969" lon="17.6236598">
        <ele>28.0155</ele>
        <time>2014-05-29T12:46:55Z</time>
      </trkpt>
      <trkpt lat="59.8792078" lon="17.6237586">
        <ele>28.9769</ele>
        <time>2014-05-29T12:46:56Z</time>
      </trkpt>
      <trkpt lat="59.8792179" lon="17.6238593">
        <ele>29.4575</ele>
        <time>2014-05-29T12:46:57Z</time>
      </trkpt>
      <trkpt lat="59.8792321" lon="17.6239562">
        <ele>29.9381</ele>
        <time>2014-05-29T12:46:58Z</time>
      </trkpt>
      <trkpt lat="59.8792451" lon="17.6240515">
        <ele>29.9381</ele>
        <time>2014-05-29T12:46:59Z</time>
      </trkpt>
      <trkpt lat="59.8792544" lon="17.6241442">
        <ele>30.4188</ele>
        <time>2014-05-29T12:47:00Z</time>
      </trkpt>
      <trkpt lat="59.8792653" lon="17.6242293">
        <ele>30.4188</ele>
        <time>2014-05-29T12:47:01Z</time>
      </trkpt>
      <trkpt lat="59.8792768" lon="17.6243109">
        <ele>30.4188</ele>
        <time>2014-05-29T12:47:02Z</time>
      </trkpt>
      <trkpt lat="59.8792865" lon="17.6243894">
        <ele>29.9381</ele>
        <time>2014-05-29T12:47:03Z</time>
      </trkpt>
      <trkpt lat="59.8792947" lon="17.6244665">
        <ele>29.9381</ele>
        <time>2014-05-29T12:47:04Z</time>
      </trkpt>
      <trkpt lat="59.8793036" lon="17.6245431">
        <ele>29.9381</ele>
        <time>2014-05-29T12:47:05Z</time>
      </trkpt>
      <trkpt lat="59.8793122" lon="17.6246177">
        <ele>29.9381</ele>
        <time>2014-05-29T12:47:06Z</time>
      </trkpt>
      <trkpt lat="59.8793216" lon="17.6246928">
        <ele>29.4575</ele>
        <time>2014-05-29T12:47:07Z</time>
      </trkpt>
      <trkpt lat="59.8793335" lon="17.6247742">
        <ele>28.9769</ele>
        <time>2014-05-29T12:47:08Z</time>
      </trkpt>
      <trkpt lat="59.87934" lon="17.6248627">
        <ele>28.4962</ele>
        <time>2014-05-29T12:47:09Z</time>
      </trkpt>
      <trkpt lat="59.8793381" lon="17.6249518">
        <ele>28.0155</ele>
        <time>2014-05-29T12:47:10Z</time>
      </trkpt>
      <trkpt lat="59.8793314" lon="17.6250376">
        <ele>28.0155</ele>
        <time>2014-05-29T12:47:11Z</time>
      </trkpt>
      <trkpt lat="59.8793279" lon="17.6251135">
        <ele>28.0155</ele>
        <time>2014-05-29T12:47:12Z</time>
      </trkpt>
      <trkpt lat="59.879331" lon="17.6251812">
        <ele>27.5349</ele>
        <time>2014-05-29T12:47:13Z</time>
      </trkpt>
      <trkpt lat="59.8793357" lon="17.6252464">
        <ele>27.5349</ele>
        <time>2014-05-29T12:47:14Z</time>
      </trkpt>
      <trkpt lat="59.8793352" lon="17.6253108">
        <ele>27.5349</ele>
        <time>2014-05-29T12:47:15Z</time>
      </trkpt>
      <trkpt lat="59.8793228" lon="17.6253838">
        <ele>26.5736</ele>
        <time>2014-05-29T12:47:16Z</time>
      </trkpt>
      <trkpt lat="59.8792994" lon="17.6254491">
        <ele>26.0929</ele>
        <time>2014-05-29T12:47:17Z</time>
      </trkpt>
      <trkpt lat="59.879273" lon="17.6254924">
        <ele>26.5736</ele>
        <time>2014-05-29T12:47:18Z</time>
      </trkpt>
      <trkpt lat="59.8792478" lon="17.6255145">
        <ele>25.1317</ele>
        <time>2014-05-29T12:47:19Z</time>
      </trkpt>
      <trkpt lat="59.8792203" lon="17.6255432">
        <ele>24.1703</ele>
        <time>2014-05-29T12:47:20Z</time>
      </trkpt>
      <trkpt lat="59.8791897" lon="17.625597">
        <ele>23.209</ele>
        <time>2014-05-29T12:47:21Z</time>
      </trkpt>
      <trkpt lat="59.8791563" lon="17.625672">
        <ele>22.2476</ele>
        <time>2014-05-29T12:47:22Z</time>
      </trkpt>
      <trkpt lat="59.879119" lon="17.6257848">
        <ele>21.767</ele>
        <time>2014-05-29T12:47:23Z</time>
      </trkpt>
      <trkpt lat="59.8790879" lon="17.6259107">
        <ele>20.325</ele>
        <time>2014-05-29T12:47:24Z</time>
      </trkpt>
      <trkpt lat="59.8790682" lon="17.626047">
        <ele>19.8444</ele>
        <time>2014-05-29T12:47:25Z</time>
      </trkpt>
      <trkpt lat="59.8790566" lon="17.6262287">
        <ele>18.8831</ele>
        <time>2014-05-29T12:47:26Z</time>
      </trkpt>
      <trkpt lat="59.879057" lon="17.626367">
        <ele>19.3638</ele>
        <time>2014-05-29T12:47:27Z</time>
      </trkpt>
      <trkpt lat="59.8790654" lon="17.6264981">
        <ele>19.3638</ele>
        <time>2014-05-29T12:47:28Z</time>
      </trkpt>
      <trkpt lat="59.8790739" lon="17.626626">
        <ele>19.3638</ele>
        <time>2014-05-29T12:47:29Z</time>
      </trkpt>
      <trkpt lat="59.8790877" lon="17.626731">
        <ele>19.8444</ele>
        <time>2014-05-29T12:47:30Z</time>
      </trkpt>
      <trkpt lat="59.8790995" lon="17.6268311">
        <ele>19.3638</ele>
        <time>2014-05-29T12:47:31Z</time>
      </trkpt>
      <trkpt lat="59.8791005" lon="17.6269285">
        <ele>19.3638</ele>
        <time>2014-05-29T12:47:32Z</time>
      </trkpt>
      <trkpt lat="59.8790948" lon="17.6270271">
        <ele>18.4023</ele>
        <time>2014-05-29T12:47:33Z</time>
      </trkpt>
      <trkpt lat="59.8790853" lon="17.6271306">
        <ele>18.4023</ele>
        <time>2014-05-29T12:47:34Z</time>
      </trkpt>
      <trkpt lat="59.879088" lon="17.6272224">
        <ele>17.4412</ele>
        <time>2014-05-29T12:47:35Z</time>
      </trkpt>
      <trkpt lat="59.8790999" lon="17.6273045">
        <ele>15.999</ele>
        <time>2014-05-29T12:47:36Z</time>
      </trkpt>
      <trkpt lat="59.8791195" lon="17.6273657">
        <ele>15.5184</ele>
        <time>2014-05-29T12:47:37Z</time>
      </trkpt>
      <trkpt lat="59.8791399" lon="17.6273909">
        <ele>15.0377</ele>
        <time>2014-05-29T12:47:38Z</time>
      </trkpt>
      <trkpt lat="59.8791777" lon="17.6273831">
        <ele>15.0377</ele>
        <time>2014-05-29T12:47:39Z</time>
      </trkpt>
      <trkpt lat="59.8792182" lon="17.6273728">
        <ele>15.0377</ele>
        <time>2014-05-29T12:47:40Z</time>
      </trkpt>
      <trkpt lat="59.8792597" lon="17.6273523">
        <ele>13.1151</ele>
        <time>2014-05-29T12:47:41Z</time>
      </trkpt>
      <trkpt lat="59.8793005" lon="17.6273322">
        <ele>12.1538</ele>
        <time>2014-05-29T12:47:42Z</time>
      </trkpt>
      <trkpt lat="59.879341" lon="17.6273037">
        <ele>11.1925</ele>
        <time>2014-05-29T12:47:43Z</time>
      </trkpt>
      <trkpt lat="59.8793844" lon="17.6272703">
        <ele>10.2312</ele>
        <time>2014-05-29T12:47:44Z</time>
      </trkpt>
      <trkpt lat="59.8794357" lon="17.6272382">
        <ele>9.2699</ele>
        <time>2014-05-29T12:47:45Z</time>
      </trkpt>
      <trkpt lat="59.879488" lon="17.6272052">
        <ele>8.30859</ele>
        <time>2014-05-29T12:47:46Z</time>
      </trkpt>
      <trkpt lat="59.8795656" lon="17.6271635">
        <ele>12.1538</ele>
        <time>2014-05-29T12:47:47Z</time>
      </trkpt>
      <trkpt lat="59.8796262" lon="17.6271241">
        <ele>13.1151</ele>
        <time>2014-05-29T12:47:48Z</time>
      </trkpt>
      <trkpt lat="59.8796847" lon="17.6270818">
        <ele>14.0764</ele>
        <time>2014-05-29T12:47:49Z</time>
      </trkpt>
      <trkpt lat="59.8797412" lon="17.6270368">
        <ele>14.0764</ele>
        <time>2014-05-29T12:47:50Z</time>
      </trkpt>
      <trkpt lat="59.8797973" lon="17.6269903">
        <ele>15.0377</ele>
        <time>2014-05-29T12:47:51Z</time>
      </trkpt>
      <trkpt lat="59.8798532" lon="17.6269462">
        <ele>15.999</ele>
        <time>2014-05-29T12:47:52Z</time>
      </trkpt>
      <trkpt lat="59.8799089" lon="17.6269066">
        <ele>16.4797</ele>
        <time>2014-05-29T12:47:53Z</time>
      </trkpt>
      <trkpt lat="59.8799641" lon="17.6268686">
        <ele>16.9604</ele>
        <time>2014-05-29T12:47:54Z</time>
      </trkpt>
      <trkpt lat="59.880018" lon="17.6268302">
        <ele>17.9218</ele>
        <time>2014-05-29T12:47:55Z</time>
      </trkpt>
      <trkpt lat="59.8800692" lon="17.6267908">
        <ele>17.9218</ele>
        <time>2014-05-29T12:47:56Z</time>
      </trkpt>
      <trkpt lat="59.8801205" lon="17.6267517">
        <ele>18.4023</ele>
        <time>2014-05-29T12:47:57Z</time>
      </trkpt>
      <trkpt lat="59.8801718" lon="17.626712">
        <ele>18.4023</ele>
        <time>2014-05-29T12:47:58Z</time>
      </trkpt>
      <trkpt lat="59.8802215" lon="17.6266702">
        <ele>18.4023</ele>
        <time>2014-05-29T12:47:59Z</time>
      </trkpt>
      <trkpt lat="59.8802727" lon="17.6266182">
        <ele>18.8831</ele>
        <time>2014-05-29T12:48:00Z</time>
      </trkpt>
      <trkpt lat="59.8803247" lon="17.6265512">
        <ele>18.8831</ele>
        <time>2014-05-29T12:48:01Z</time>
      </trkpt>
      <trkpt lat="59.8803805" lon="17.6264878">
        <ele>18.4023</ele>
        <time>2014-05-29T12:48:02Z</time>
      </trkpt>
      <trkpt lat="59.8804431" lon="17.6264367">
        <ele>18.4023</ele>
        <time>2014-05-29T12:48:03Z</time>
      </trkpt>
      <trkpt lat="59.8805069" lon="17.6263936">
        <ele>18.4023</ele>
        <time>2014-05-29T12:48:04Z</time>
      </trkpt>
      <trkpt lat="59.880569" lon="17.6263519">
        <ele>18.4023</ele>
        <time>2014-05-29T12:48:05Z</time>
      </trkpt>
      <trkpt lat="59.8808457" lon="17.626423">
        <ele>17.4412</ele>
        <time>2014-05-29T12:48:10Z</time>
      </trkpt>
      <trkpt lat="59.8808938" lon="17.6263865">
        <ele>17.9218</ele>
        <time>2014-05-29T12:48:11Z</time>
      </trkpt>
      <trkpt lat="59.8809316" lon="17.6263955">
        <ele>18.8831</ele>
        <time>2014-05-29T12:48:12Z</time>
      </trkpt>
      <trkpt lat="59.8809778" lon="17.6263943">
        <ele>19.8444</ele>
        <time>2014-05-29T12:48:13Z</time>
      </trkpt>
      <trkpt lat="59.8810263" lon="17.6263857">
        <ele>20.325</ele>
        <time>2014-05-29T12:48:14Z</time>
      </trkpt>
      <trkpt lat="59.8810663" lon="17.6263726">
        <ele>21.2864</ele>
        <time>2014-05-29T12:48:15Z</time>
      </trkpt>
      <trkpt lat="59.8811011" lon="17.6263642">
        <ele>20.8057</ele>
        <time>2014-05-29T12:48:16Z</time>
      </trkpt>
      <trkpt lat="59.8811347" lon="17.6263495">
        <ele>21.2864</ele>
        <time>2014-05-29T12:48:17Z</time>
      </trkpt>
      <trkpt lat="59.8811699" lon="17.626338">
        <ele>22.2476</ele>
        <time>2014-05-29T12:48:18Z</time>
      </trkpt>
      <trkpt lat="59.8812037" lon="17.6263283">
        <ele>22.7283</ele>
        <time>2014-05-29T12:48:19Z</time>
      </trkpt>
      <trkpt lat="59.8812363" lon="17.6263221">
        <ele>23.209</ele>
        <time>2014-05-29T12:48:20Z</time>
      </trkpt>
      <trkpt lat="59.8812663" lon="17.6263121">
        <ele>23.6896</ele>
        <time>2014-05-29T12:48:21Z</time>
      </trkpt>
      <trkpt lat="59.8812936" lon="17.6263052">
        <ele>24.1703</ele>
        <time>2014-05-29T12:48:22Z</time>
      </trkpt>
      <trkpt lat="59.8813196" lon="17.6263028">
        <ele>24.1703</ele>
        <time>2014-05-29T12:48:23Z</time>
      </trkpt>
      <trkpt lat="59.8813452" lon="17.6263015">
        <ele>24.1703</ele>
        <time>2014-05-29T12:48:24Z</time>
      </trkpt>
      <trkpt lat="59.8813674" lon="17.6263129">
        <ele>24.1703</ele>
        <time>2014-05-29T12:48:25Z</time>
      </trkpt>
      <trkpt lat="59.881378" lon="17.6263438">
        <ele>23.6896</ele>
        <time>2014-05-29T12:48:26Z</time>
      </trkpt>
      <trkpt lat="59.8813796" lon="17.6263741">
        <ele>23.209</ele>
        <time>2014-05-29T12:48:27Z</time>
      </trkpt>
      <trkpt lat="59.8813746" lon="17.6263996">
        <ele>22.2476</ele>
        <time>2014-05-29T12:48:28Z</time>
      </trkpt>
      <trkpt lat="59.8813674" lon="17.626423">
        <ele>21.2864</ele>
        <time>2014-05-29T12:48:29Z</time>
      </trkpt>
      <trkpt lat="59.8813601" lon="17.6264464">
        <ele>20.8057</ele>
        <time>2014-05-29T12:48:30Z</time>
      </trkpt>
      <trkpt lat="59.8813531" lon="17.6264691">
        <ele>20.325</ele>
        <time>2014-05-29T12:48:31Z</time>
      </trkpt>
      <trkpt lat="59.8813482" lon="17.6264892">
        <ele>19.8444</ele>
        <time>2014-05-29T12:48:32Z</time>
      </trkpt>
      <trkpt lat="59.881346" lon="17.6265093">
        <ele>19.3638</ele>
        <time>2014-05-29T12:48:33Z</time>
      </trkpt>
      <trkpt lat="59.8813449" lon="17.6265291">
        <ele>18.4023</ele>
        <time>2014-05-29T12:48:34Z</time>
      </trkpt>
      <trkpt lat="59.8813461" lon="17.6265399">
        <ele>17.9218</ele>
        <time>2014-05-29T12:48:35Z</time>
      </trkpt>
      <trkpt lat="59.8813439" lon="17.6265528">
        <ele>19.3638</ele>
        <time>2014-05-29T12:48:36Z</time>
      </trkpt>
      <trkpt lat="59.8813395" lon="17.626567">
        <ele>20.325</ele>
        <time>2014-05-29T12:48:37Z</time>
      </trkpt>
      <trkpt lat="59.8813353" lon="17.6265638">
        <ele>19.8444</ele>
        <time>2014-05-29T12:48:38Z</time>
      </trkpt>
      <trkpt lat="59.8813295" lon="17.6265488">
        <ele>18.4023</ele>
        <time>2014-05-29T12:48:39Z</time>
      </trkpt>
      <trkpt lat="59.8813264" lon="17.6265385">
        <ele>18.8831</ele>
        <time>2014-05-29T12:48:40Z</time>
      </trkpt>
      <trkpt lat="59.8813207" lon="17.626542">
        <ele>21.2864</ele>
        <time>2014-05-29T12:48:41Z</time>
      </trkpt>
      <trkpt lat="59.8813146" lon="17.626529">
        <ele>20.325</ele>
        <time>2014-05-29T12:48:42Z</time>
      </trkpt>
      <trkpt lat="59.881314" lon="17.6265054">
        <ele>19.8444</ele>
        <time>2014-05-29T12:48:43Z</time>
      </trkpt>
      <trkpt lat="59.8813264" lon="17.6264782">
        <ele>21.2864</ele>
        <time>2014-05-29T12:48:44Z</time>
      </trkpt>
      <trkpt lat="59.8813449" lon="17.6264365">
        <ele>22.2476</ele>
        <time>2014-05-29T12:48:45Z</time>
      </trkpt>
      <trkpt lat="59.8813676" lon="17.6263826">
        <ele>21.767</ele>
        <time>2014-05-29T12:48:46Z</time>
      </trkpt>
      <trkpt lat="59.8813957" lon="17.6263256">
        <ele>22.2476</ele>
        <time>2014-05-29T12:48:47Z</time>
      </trkpt>
      <trkpt lat="59.8814259" lon="17.626271">
        <ele>21.767</ele>
        <time>2014-05-29T12:48:48Z</time>
      </trkpt>
      <trkpt lat="59.8814512" lon="17.6262391">
        <ele>21.2864</ele>
        <time>2014-05-29T12:48:49Z</time>
      </trkpt>
      <trkpt lat="59.8814799" lon="17.62624">
        <ele>22.7283</ele>
        <time>2014-05-29T12:48:50Z</time>
      </trkpt>
      <trkpt lat="59.8815083" lon="17.6262394">
        <ele>24.651</ele>
        <time>2014-05-29T12:48:51Z</time>
      </trkpt>
      <trkpt lat="59.8815399" lon="17.6262316">
        <ele>26.0929</ele>
        <time>2014-05-29T12:48:52Z</time>
      </trkpt>
      <trkpt lat="59.8815679" lon="17.6262266">
        <ele>27.0543</ele>
        <time>2014-05-29T12:48:53Z</time>
      </trkpt>
      <trkpt lat="59.8815933" lon="17.62623">
        <ele>27.0543</ele>
        <time>2014-05-29T12:48:54Z</time>
      </trkpt>
      <trkpt lat="59.881616" lon="17.6262297">
        <ele>26.5736</ele>
        <time>2014-05-29T12:48:55Z</time>
      </trkpt>
      <trkpt lat="59.8816357" lon="17.6262324">
        <ele>25.6123</ele>
        <time>2014-05-29T12:48:56Z</time>
      </trkpt>
      <trkpt lat="59.8816581" lon="17.6262327">
        <ele>25.6123</ele>
        <time>2014-05-29T12:48:57Z</time>
      </trkpt>
      <trkpt lat="59.8816867" lon="17.6262281">
        <ele>26.5736</ele>
        <time>2014-05-29T12:48:58Z</time>
      </trkpt>
      <trkpt lat="59.881719" lon="17.626236">
        <ele>26.5736</ele>
        <time>2014-05-29T12:48:59Z</time>
      </trkpt>
      <trkpt lat="59.8817522" lon="17.6262609">
        <ele>25.6123</ele>
        <time>2014-05-29T12:49:00Z</time>
      </trkpt>
      <trkpt lat="59.8817855" lon="17.6262877">
        <ele>26.0929</ele>
        <time>2014-05-29T12:49:01Z</time>
      </trkpt>
      <trkpt lat="59.8818176" lon="17.6263126">
        <ele>26.5736</ele>
        <time>2014-05-29T12:49:02Z</time>
      </trkpt>
      <trkpt lat="59.8818499" lon="17.6263404">
        <ele>26.5736</ele>
        <time>2014-05-29T12:49:03Z</time>
      </trkpt>
      <trkpt lat="59.8818864" lon="17.626372">
        <ele>26.0929</ele>
        <time>2014-05-29T12:49:04Z</time>
      </trkpt>
      <trkpt lat="59.8819212" lon="17.6264039">
        <ele>25.6123</ele>
        <time>2014-05-29T12:49:05Z</time>
      </trkpt>
      <trkpt lat="59.88196" lon="17.6264255">
        <ele>25.6123</ele>
        <time>2014-05-29T12:49:06Z</time>
      </trkpt>
      <trkpt lat="59.8819957" lon="17.6264514">
        <ele>25.6123</ele>
        <time>2014-05-29T12:49:07Z</time>
      </trkpt>
      <trkpt lat="59.8820278" lon="17.6264805">
        <ele>25.6123</ele>
        <time>2014-05-29T12:49:08Z</time>
      </trkpt>
      <trkpt lat="59.8820597" lon="17.6265067">
        <ele>26.0929</ele>
        <time>2014-05-29T12:49:09Z</time>
      </trkpt>
      <trkpt lat="59.8820924" lon="17.626526">
        <ele>27.0543</ele>
        <time>2014-05-29T12:49:10Z</time>
      </trkpt>
      <trkpt lat="59.8821282" lon="17.626551">
        <ele>28.4962</ele>
        <time>2014-05-29T12:49:11Z</time>
      </trkpt>
      <trkpt lat="59.8821655" lon="17.6265751">
        <ele>28.9769</ele>
        <time>2014-05-29T12:49:12Z</time>
      </trkpt>
      <trkpt lat="59.8822016" lon="17.6265981">
        <ele>29.4575</ele>
        <time>2014-05-29T12:49:13Z</time>
      </trkpt>
      <trkpt lat="59.8822364" lon="17.6266127">
        <ele>29.9381</ele>
        <time>2014-05-29T12:49:14Z</time>
      </trkpt>
      <trkpt lat="59.8822661" lon="17.6266208">
        <ele>29.4575</ele>
        <time>2014-05-29T12:49:15Z</time>
      </trkpt>
      <trkpt lat="59.8823085" lon="17.6266166">
        <ele>31.3801</ele>
        <time>2014-05-29T12:49:16Z</time>
      </trkpt>
      <trkpt lat="59.8823386" lon="17.6266214">
        <ele>31.8607</ele>
        <time>2014-05-29T12:49:17Z</time>
      </trkpt>
      <trkpt lat="59.882368" lon="17.6266234">
        <ele>32.3416</ele>
        <time>2014-05-29T12:49:18Z</time>
      </trkpt>
      <trkpt lat="59.8823902" lon="17.626625">
        <ele>31.8607</ele>
        <time>2014-05-29T12:49:19Z</time>
      </trkpt>
      <trkpt lat="59.8824096" lon="17.6266286">
        <ele>31.8607</ele>
        <time>2014-05-29T12:49:20Z</time>
      </trkpt>
      <trkpt lat="59.8824365" lon="17.6266343">
        <ele>32.8223</ele>
        <time>2014-05-29T12:49:21Z</time>
      </trkpt>
      <trkpt lat="59.8824588" lon="17.6266443">
        <ele>32.3416</ele>
        <time>2014-05-29T12:49:22Z</time>
      </trkpt>
      <trkpt lat="59.8824795" lon="17.6266544">
        <ele>32.3416</ele>
        <time>2014-05-29T12:49:23Z</time>
      </trkpt>
      <trkpt lat="59.8824954" lon="17.626654">
        <ele>32.3416</ele>
        <time>2014-05-29T12:49:24Z</time>
      </trkpt>
      <trkpt lat="59.8825016" lon="17.6266337">
        <ele>31.8607</ele>
        <time>2014-05-29T12:49:25Z</time>
      </trkpt>
      <trkpt lat="59.8825007" lon="17.6266018">
        <ele>31.3801</ele>
        <time>2014-05-29T12:49:26Z</time>
      </trkpt>
      <trkpt lat="59.8825022" lon="17.6265526">
        <ele>31.8607</ele>
        <time>2014-05-29T12:49:27Z</time>
      </trkpt>
      <trkpt lat="59.8824966" lon="17.6265001">
        <ele>30.8995</ele>
        <time>2014-05-29T12:49:28Z</time>
      </trkpt>
      <trkpt lat="59.8824934" lon="17.6264455">
        <ele>30.4188</ele>
        <time>2014-05-29T12:49:29Z</time>
      </trkpt>
      <trkpt lat="59.8824876" lon="17.6263863">
        <ele>28.9769</ele>
        <time>2014-05-29T12:49:30Z</time>
      </trkpt>
      <trkpt lat="59.8824744" lon="17.6263278">
        <ele>28.0155</ele>
        <time>2014-05-29T12:49:31Z</time>
      </trkpt>
      <trkpt lat="59.8824577" lon="17.6262694">
        <ele>26.5736</ele>
        <time>2014-05-29T12:49:32Z</time>
      </trkpt>
      <trkpt lat="59.8824516" lon="17.6262034">
        <ele>26.5736</ele>
        <time>2014-05-29T12:49:33Z</time>
      </trkpt>
      <trkpt lat="59.8824563" lon="17.6261379">
        <ele>26.0929</ele>
        <time>2014-05-29T12:49:34Z</time>
      </trkpt>
      <trkpt lat="59.8824686" lon="17.6260822">
        <ele>25.1317</ele>
        <time>2014-05-29T12:49:35Z</time>
      </trkpt>
      <trkpt lat="59.8824816" lon="17.626033">
        <ele>23.6896</ele>
        <time>2014-05-29T12:49:36Z</time>
      </trkpt>
      <trkpt lat="59.8824972" lon="17.625993">
        <ele>23.209</ele>
        <time>2014-05-29T12:49:37Z</time>
      </trkpt>
      <trkpt lat="59.8825137" lon="17.6259566">
        <ele>22.7283</ele>
        <time>2014-05-29T12:49:38Z</time>
      </trkpt>
      <trkpt lat="59.8825298" lon="17.6259286">
        <ele>22.7283</ele>
        <time>2014-05-29T12:49:39Z</time>
      </trkpt>
      <trkpt lat="59.882541" lon="17.6258987">
        <ele>21.2864</ele>
        <time>2014-05-29T12:49:40Z</time>
      </trkpt>
      <trkpt lat="59.882556" lon="17.6258734">
        <ele>20.8057</ele>
        <time>2014-05-29T12:49:41Z</time>
      </trkpt>
      <trkpt lat="59.8825768" lon="17.6258564">
        <ele>20.325</ele>
        <time>2014-05-29T12:49:42Z</time>
      </trkpt>
      <trkpt lat="59.8826019" lon="17.6258385">
        <ele>19.8444</ele>
        <time>2014-05-29T12:49:43Z</time>
      </trkpt>
      <trkpt lat="59.8826311" lon="17.6258132">
        <ele>19.8444</ele>
        <time>2014-05-29T12:49:44Z</time>
      </trkpt>
      <trkpt lat="59.8826576" lon="17.625781">
        <ele>19.8444</ele>
        <time>2014-05-29T12:49:45Z</time>
      </trkpt>
      <trkpt lat="59.8826824" lon="17.6257501">
        <ele>20.8057</ele>
        <time>2014-05-29T12:49:46Z</time>
      </trkpt>
      <trkpt lat="59.8827042" lon="17.6257231">
        <ele>20.8057</ele>
        <time>2014-05-29T12:49:47Z</time>
      </trkpt>
      <trkpt lat="59.882725" lon="17.6256979">
        <ele>20.8057</ele>
        <time>2014-05-29T12:49:48Z</time>
      </trkpt>
      <trkpt lat="59.8827482" lon="17.625672">
        <ele>20.8057</ele>
        <time>2014-05-29T12:49:49Z</time>
      </trkpt>
      <trkpt lat="59.8827744" lon="17.6256448">
        <ele>21.767</ele>
        <time>2014-05-29T12:49:50Z</time>
      </trkpt>
      <trkpt lat="59.8827976" lon="17.6256174">
        <ele>22.2476</ele>
        <time>2014-05-29T12:49:51Z</time>
      </trkpt>
      <trkpt lat="59.8828191" lon="17.6255895">
        <ele>22.7283</ele>
        <time>2014-05-29T12:49:52Z</time>
      </trkpt>
      <trkpt lat="59.8828405" lon="17.6255624">
        <ele>23.209</ele>
        <time>2014-05-29T12:49:53Z</time>
      </trkpt>
      <trkpt lat="59.8828612" lon="17.6255347">
        <ele>23.209</ele>
        <time>2014-05-29T12:49:54Z</time>
      </trkpt>
      <trkpt lat="59.8828809" lon="17.6255076">
        <ele>23.6896</ele>
        <time>2014-05-29T12:49:55Z</time>
      </trkpt>
      <trkpt lat="59.8829012" lon="17.6254817">
        <ele>23.6896</ele>
        <time>2014-05-29T12:49:56Z</time>
      </trkpt>
      <trkpt lat="59.8829237" lon="17.6254558">
        <ele>23.6896</ele>
        <time>2014-05-29T12:49:57Z</time>
      </trkpt>
      <trkpt lat="59.8829466" lon="17.6254288">
        <ele>24.1703</ele>
        <time>2014-05-29T12:49:58Z</time>
      </trkpt>
      <trkpt lat="59.8829693" lon="17.6253992">
        <ele>24.1703</ele>
        <time>2014-05-29T12:49:59Z</time>
      </trkpt>
      <trkpt lat="59.8829924" lon="17.6253671">
        <ele>24.1703</ele>
        <time>2014-05-29T12:50:00Z</time>
      </trkpt>
      <trkpt lat="59.8830151" lon="17.6253336">
        <ele>24.651</ele>
        <time>2014-05-29T12:50:01Z</time>
      </trkpt>
      <trkpt lat="59.8830365" lon="17.6253009">
        <ele>24.651</ele>
        <time>2014-05-29T12:50:02Z</time>
      </trkpt>
      <trkpt lat="59.8830575" lon="17.6252683">
        <ele>24.651</ele>
        <time>2014-05-29T12:50:03Z</time>
      </trkpt>
      <trkpt lat="59.8830786" lon="17.6252322">
        <ele>24.651</ele>
        <time>2014-05-29T12:50:04Z</time>
      </trkpt>
      <trkpt lat="59.8831011" lon="17.6251948">
        <ele>24.651</ele>
        <time>2014-05-29T12:50:05Z</time>
      </trkpt>
      <trkpt lat="59.8831235" lon="17.625158">
        <ele>25.1317</ele>
        <time>2014-05-29T12:50:06Z</time>
      </trkpt>
      <trkpt lat="59.8831471" lon="17.6251182">
        <ele>25.6123</ele>
        <time>2014-05-29T12:50:07Z</time>
      </trkpt>
      <trkpt lat="59.8831681" lon="17.6250792">
        <ele>26.0929</ele>
        <time>2014-05-29T12:50:08Z</time>
      </trkpt>
      <trkpt lat="59.8831877" lon="17.6250391">
        <ele>26.0929</ele>
        <time>2014-05-29T12:50:09Z</time>
      </trkpt>
      <trkpt lat="59.8832087" lon="17.6249928">
        <ele>26.0929</ele>
        <time>2014-05-29T12:50:10Z</time>
      </trkpt>
      <trkpt lat="59.8832311" lon="17.624943">
        <ele>26.0929</ele>
        <time>2014-05-29T12:50:11Z</time>
      </trkpt>
      <trkpt lat="59.8832542" lon="17.6248907">
        <ele>26.5736</ele>
        <time>2014-05-29T12:50:12Z</time>
      </trkpt>
      <trkpt lat="59.8832771" lon="17.6248358">
        <ele>27.0543</ele>
        <time>2014-05-29T12:50:13Z</time>
      </trkpt>
      <trkpt lat="59.8833004" lon="17.6247834">
        <ele>27.0543</ele>
        <time>2014-05-29T12:50:14Z</time>
      </trkpt>
      <trkpt lat="59.8833229" lon="17.6247325">
        <ele>27.5349</ele>
        <time>2014-05-29T12:50:15Z</time>
      </trkpt>
      <trkpt lat="59.883345" lon="17.6246793">
        <ele>28.0155</ele>
        <time>2014-05-29T12:50:16Z</time>
      </trkpt>
      <trkpt lat="59.8833679" lon="17.6246259">
        <ele>28.0155</ele>
        <time>2014-05-29T12:50:17Z</time>
      </trkpt>
      <trkpt lat="59.8833879" lon="17.6245693">
        <ele>27.5349</ele>
        <time>2014-05-29T12:50:18Z</time>
      </trkpt>
      <trkpt lat="59.8834096" lon="17.6245121">
        <ele>27.5349</ele>
        <time>2014-05-29T12:50:19Z</time>
      </trkpt>
      <trkpt lat="59.8834335" lon="17.6244592">
        <ele>27.5349</ele>
        <time>2014-05-29T12:50:20Z</time>
      </trkpt>
      <trkpt lat="59.88346" lon="17.624411">
        <ele>27.5349</ele>
        <time>2014-05-29T12:50:21Z</time>
      </trkpt>
      <trkpt lat="59.8834891" lon="17.6243643">
        <ele>27.5349</ele>
        <time>2014-05-29T12:50:22Z</time>
      </trkpt>
      <trkpt lat="59.8835207" lon="17.6243219">
        <ele>28.0155</ele>
        <time>2014-05-29T12:50:23Z</time>
      </trkpt>
      <trkpt lat="59.8835527" lon="17.6242849">
        <ele>28.0155</ele>
        <time>2014-05-29T12:50:24Z</time>
      </trkpt>
      <trkpt lat="59.8835847" lon="17.624252">
        <ele>27.5349</ele>
        <time>2014-05-29T12:50:25Z</time>
      </trkpt>
      <trkpt lat="59.8836182" lon="17.6242222">
        <ele>28.0155</ele>
        <time>2014-05-29T12:50:26Z</time>
      </trkpt>
      <trkpt lat="59.8836518" lon="17.6241936">
        <ele>27.5349</ele>
        <time>2014-05-29T12:50:27Z</time>
      </trkpt>
      <trkpt lat="59.883684" lon="17.6241624">
        <ele>27.0543</ele>
        <time>2014-05-29T12:50:28Z</time>
      </trkpt>
      <trkpt lat="59.8837165" lon="17.6241249">
        <ele>27.0543</ele>
        <time>2014-05-29T12:50:29Z</time>
      </trkpt>
      <trkpt lat="59.8837511" lon="17.6240813">
        <ele>27.5349</ele>
        <time>2014-05-29T12:50:30Z</time>
      </trkpt>
      <trkpt lat="59.8837859" lon="17.6240314">
        <ele>27.0543</ele>
        <time>2014-05-29T12:50:31Z</time>
      </trkpt>
      <trkpt lat="59.8838248" lon="17.6239754">
        <ele>26.5736</ele>
        <time>2014-05-29T12:50:32Z</time>
      </trkpt>
      <trkpt lat="59.8838666" lon="17.6239137">
        <ele>26.0929</ele>
        <time>2014-05-29T12:50:33Z</time>
      </trkpt>
      <trkpt lat="59.8839095" lon="17.6238467">
        <ele>25.6123</ele>
        <time>2014-05-29T12:50:34Z</time>
      </trkpt>
      <trkpt lat="59.8839538" lon="17.6237762">
        <ele>25.1317</ele>
        <time>2014-05-29T12:50:35Z</time>
      </trkpt>
      <trkpt lat="59.8840009" lon="17.6237074">
        <ele>24.651</ele>
        <time>2014-05-29T12:50:36Z</time>
      </trkpt>
      <trkpt lat="59.8840497" lon="17.6236465">
        <ele>24.651</ele>
        <time>2014-05-29T12:50:37Z</time>
      </trkpt>
      <trkpt lat="59.8840983" lon="17.6235982">
        <ele>24.651</ele>
        <time>2014-05-29T12:50:38Z</time>
      </trkpt>
      <trkpt lat="59.8841421" lon="17.6235611">
        <ele>25.1317</ele>
        <time>2014-05-29T12:50:39Z</time>
      </trkpt>
      <trkpt lat="59.8841794" lon="17.623535">
        <ele>25.6123</ele>
        <time>2014-05-29T12:50:40Z</time>
      </trkpt>
      <trkpt lat="59.8842093" lon="17.6235147">
        <ele>25.6123</ele>
        <time>2014-05-29T12:50:41Z</time>
      </trkpt>
      <trkpt lat="59.884234" lon="17.6234958">
        <ele>25.6123</ele>
        <time>2014-05-29T12:50:42Z</time>
      </trkpt>
      <trkpt lat="59.8842566" lon="17.623482">
        <ele>25.6123</ele>
        <time>2014-05-29T12:50:43Z</time>
      </trkpt>
      <trkpt lat="59.8842802" lon="17.6234708">
        <ele>25.6123</ele>
        <time>2014-05-29T12:50:44Z</time>
      </trkpt>
      <trkpt lat="59.8843049" lon="17.6234566">
        <ele>25.6123</ele>
        <time>2014-05-29T12:50:45Z</time>
      </trkpt>
      <trkpt lat="59.8843301" lon="17.6234423">
        <ele>25.6123</ele>
        <time>2014-05-29T12:50:46Z</time>
      </trkpt>
      <trkpt lat="59.8843576" lon="17.6234287">
        <ele>25.6123</ele>
        <time>2014-05-29T12:50:47Z</time>
      </trkpt>
      <trkpt lat="59.8843847" lon="17.6234118">
        <ele>25.6123</ele>
        <time>2014-05-29T12:50:48Z</time>
      </trkpt>
      <trkpt lat="59.8844126" lon="17.6233939">
        <ele>25.6123</ele>
        <time>2014-05-29T12:50:49Z</time>
      </trkpt>
      <trkpt lat="59.8844421" lon="17.6233791">
        <ele>25.6123</ele>
        <time>2014-05-29T12:50:50Z</time>
      </trkpt>
      <trkpt lat="59.8844726" lon="17.6233631">
        <ele>25.6123</ele>
        <time>2014-05-29T12:50:51Z</time>
      </trkpt>
      <trkpt lat="59.8845034" lon="17.6233464">
        <ele>25.6123</ele>
        <time>2014-05-29T12:50:52Z</time>
      </trkpt>
      <trkpt lat="59.884535" lon="17.6233264">
        <ele>25.6123</ele>
        <time>2014-05-29T12:50:53Z</time>
      </trkpt>
      <trkpt lat="59.8845655" lon="17.6233049">
        <ele>25.6123</ele>
        <time>2014-05-29T12:50:54Z</time>
      </trkpt>
      <trkpt lat="59.8845929" lon="17.6232819">
        <ele>26.0929</ele>
        <time>2014-05-29T12:50:55Z</time>
      </trkpt>
      <trkpt lat="59.8846168" lon="17.6232606">
        <ele>26.0929</ele>
        <time>2014-05-29T12:50:56Z</time>
      </trkpt>
      <trkpt lat="59.884641" lon="17.6232388">
        <ele>26.5736</ele>
        <time>2014-05-29T12:50:57Z</time>
      </trkpt>
      <trkpt lat="59.8846634" lon="17.6232163">
        <ele>26.5736</ele>
        <time>2014-05-29T12:50:58Z</time>
      </trkpt>
      <trkpt lat="59.8846857" lon="17.6231901">
        <ele>26.5736</ele>
        <time>2014-05-29T12:50:59Z</time>
      </trkpt>
      <trkpt lat="59.884708" lon="17.6231595">
        <ele>26.5736</ele>
        <time>2014-05-29T12:51:00Z</time>
      </trkpt>
      <trkpt lat="59.8847297" lon="17.6231279">
        <ele>26.5736</ele>
        <time>2014-05-29T12:51:01Z</time>
      </trkpt>
      <trkpt lat="59.8847509" lon="17.6230947">
        <ele>26.5736</ele>
        <time>2014-05-29T12:51:02Z</time>
      </trkpt>
      <trkpt lat="59.8847734" lon="17.6230611">
        <ele>26.5736</ele>
        <time>2014-05-29T12:51:03Z</time>
      </trkpt>
      <trkpt lat="59.8847976" lon="17.6230298">
        <ele>26.5736</ele>
        <time>2014-05-29T12:51:04Z</time>
      </trkpt>
      <trkpt lat="59.884822" lon="17.6229975">
        <ele>26.5736</ele>
        <time>2014-05-29T12:51:05Z</time>
      </trkpt>
      <trkpt lat="59.8848473" lon="17.622961">
        <ele>26.5736</ele>
        <time>2014-05-29T12:51:06Z</time>
      </trkpt>
      <trkpt lat="59.8848732" lon="17.6229175">
        <ele>26.0929</ele>
        <time>2014-05-29T12:51:07Z</time>
      </trkpt>
      <trkpt lat="59.8848974" lon="17.6228637">
        <ele>26.5736</ele>
        <time>2014-05-29T12:51:08Z</time>
      </trkpt>
      <trkpt lat="59.8849152" lon="17.6228031">
        <ele>26.5736</ele>
        <time>2014-05-29T12:51:09Z</time>
      </trkpt>
      <trkpt lat="59.8849277" lon="17.6227393">
        <ele>26.5736</ele>
        <time>2014-05-29T12:51:10Z</time>
      </trkpt>
      <trkpt lat="59.8849379" lon="17.6226768">
        <ele>26.5736</ele>
        <time>2014-05-29T12:51:11Z</time>
      </trkpt>
      <trkpt lat="59.8849467" lon="17.6226193">
        <ele>27.0543</ele>
        <time>2014-05-29T12:51:12Z</time>
      </trkpt>
      <trkpt lat="59.8849556" lon="17.6225658">
        <ele>27.0543</ele>
        <time>2014-05-29T12:51:13Z</time>
      </trkpt>
      <trkpt lat="59.8849644" lon="17.6225126">
        <ele>27.0543</ele>
        <time>2014-05-29T12:51:14Z</time>
      </trkpt>
      <trkpt lat="59.8849742" lon="17.6224603">
        <ele>27.0543</ele>
        <time>2014-05-29T12:51:15Z</time>
      </trkpt>
      <trkpt lat="59.8849871" lon="17.6224113">
        <ele>27.5349</ele>
        <time>2014-05-29T12:51:16Z</time>
      </trkpt>
      <trkpt lat="59.8850042" lon="17.6223694">
        <ele>27.5349</ele>
        <time>2014-05-29T12:51:17Z</time>
      </trkpt>
      <trkpt lat="59.8850228" lon="17.6223317">
        <ele>27.5349</ele>
        <time>2014-05-29T12:51:18Z</time>
      </trkpt>
      <trkpt lat="59.8850411" lon="17.622295">
        <ele>27.5349</ele>
        <time>2014-05-29T12:51:19Z</time>
      </trkpt>
      <trkpt lat="59.8850592" lon="17.6222576">
        <ele>27.5349</ele>
        <time>2014-05-29T12:51:20Z</time>
      </trkpt>
      <trkpt lat="59.8850772" lon="17.6222184">
        <ele>28.0155</ele>
        <time>2014-05-29T12:51:21Z</time>
      </trkpt>
      <trkpt lat="59.8850952" lon="17.6221797">
        <ele>28.0155</ele>
        <time>2014-05-29T12:51:22Z</time>
      </trkpt>
      <trkpt lat="59.885116" lon="17.6221445">
        <ele>28.0155</ele>
        <time>2014-05-29T12:51:23Z</time>
      </trkpt>
      <trkpt lat="59.8851375" lon="17.622114">
        <ele>28.0155</ele>
        <time>2014-05-29T12:51:24Z</time>
      </trkpt>
      <trkpt lat="59.8851579" lon="17.622086">
        <ele>28.0155</ele>
        <time>2014-05-29T12:51:25Z</time>
      </trkpt>
      <trkpt lat="59.8851773" lon="17.6220587">
        <ele>28.0155</ele>
        <time>2014-05-29T12:51:26Z</time>
      </trkpt>
      <trkpt lat="59.8851974" lon="17.6220307">
        <ele>28.0155</ele>
        <time>2014-05-29T12:51:27Z</time>
      </trkpt>
      <trkpt lat="59.8852187" lon="17.6220043">
        <ele>28.0155</ele>
        <time>2014-05-29T12:51:28Z</time>
      </trkpt>
      <trkpt lat="59.8852395" lon="17.6219839">
        <ele>28.0155</ele>
        <time>2014-05-29T12:51:29Z</time>
      </trkpt>
      <trkpt lat="59.88526" lon="17.6219639">
        <ele>28.0155</ele>
        <time>2014-05-29T12:51:30Z</time>
      </trkpt>
      <trkpt lat="59.8852793" lon="17.6219406">
        <ele>28.0155</ele>
        <time>2014-05-29T12:51:31Z</time>
      </trkpt>
      <trkpt lat="59.8852975" lon="17.6219162">
        <ele>27.5349</ele>
        <time>2014-05-29T12:51:32Z</time>
      </trkpt>
      <trkpt lat="59.8853161" lon="17.6218899">
        <ele>27.5349</ele>
        <time>2014-05-29T12:51:33Z</time>
      </trkpt>
      <trkpt lat="59.8853358" lon="17.6218603">
        <ele>28.0155</ele>
        <time>2014-05-29T12:51:34Z</time>
      </trkpt>
      <trkpt lat="59.8853558" lon="17.6218298">
        <ele>28.0155</ele>
        <time>2014-05-29T12:51:35Z</time>
      </trkpt>
      <trkpt lat="59.8853765" lon="17.6217992">
        <ele>28.0155</ele>
        <time>2014-05-29T12:51:36Z</time>
      </trkpt>
      <trkpt lat="59.8853994" lon="17.621767">
        <ele>28.0155</ele>
        <time>2014-05-29T12:51:37Z</time>
      </trkpt>
      <trkpt lat="59.8854226" lon="17.6217316">
        <ele>28.0155</ele>
        <time>2014-05-29T12:51:38Z</time>
      </trkpt>
      <trkpt lat="59.8854441" lon="17.6216956">
        <ele>28.4962</ele>
        <time>2014-05-29T12:51:39Z</time>
      </trkpt>
      <trkpt lat="59.8854638" lon="17.6216612">
        <ele>28.9769</ele>
        <time>2014-05-29T12:51:40Z</time>
      </trkpt>
      <trkpt lat="59.885482" lon="17.6216298">
        <ele>28.9769</ele>
        <time>2014-05-29T12:51:41Z</time>
      </trkpt>
      <trkpt lat="59.8855004" lon="17.6215998">
        <ele>28.9769</ele>
        <time>2014-05-29T12:51:42Z</time>
      </trkpt>
      <trkpt lat="59.8855192" lon="17.6215677">
        <ele>29.4575</ele>
        <time>2014-05-29T12:51:43Z</time>
      </trkpt>
      <trkpt lat="59.8855373" lon="17.621535">
        <ele>29.4575</ele>
        <time>2014-05-29T12:51:44Z</time>
      </trkpt>
      <trkpt lat="59.8855534" lon="17.6215012">
        <ele>29.9381</ele>
        <time>2014-05-29T12:51:45Z</time>
      </trkpt>
      <trkpt lat="59.8855675" lon="17.6214676">
        <ele>29.9381</ele>
        <time>2014-05-29T12:51:46Z</time>
      </trkpt>
      <trkpt lat="59.8855823" lon="17.621434">
        <ele>29.9381</ele>
        <time>2014-05-29T12:51:47Z</time>
      </trkpt>
      <trkpt lat="59.8855999" lon="17.6213999">
        <ele>29.9381</ele>
        <time>2014-05-29T12:51:48Z</time>
      </trkpt>
      <trkpt lat="59.8856206" lon="17.6213671">
        <ele>30.4188</ele>
        <time>2014-05-29T12:51:49Z</time>
      </trkpt>
      <trkpt lat="59.8856451" lon="17.6213362">
        <ele>30.4188</ele>
        <time>2014-05-29T12:51:50Z</time>
      </trkpt>
      <trkpt lat="59.8856709" lon="17.6213055">
        <ele>30.4188</ele>
        <time>2014-05-29T12:51:51Z</time>
      </trkpt>
      <trkpt lat="59.8856987" lon="17.6212761">
        <ele>30.4188</ele>
        <time>2014-05-29T12:51:52Z</time>
      </trkpt>
      <trkpt lat="59.8857278" lon="17.6212454">
        <ele>30.4188</ele>
        <time>2014-05-29T12:51:53Z</time>
      </trkpt>
      <trkpt lat="59.8857578" lon="17.6212132">
        <ele>30.4188</ele>
        <time>2014-05-29T12:51:54Z</time>
      </trkpt>
      <trkpt lat="59.8857886" lon="17.6211843">
        <ele>30.4188</ele>
        <time>2014-05-29T12:51:55Z</time>
      </trkpt>
      <trkpt lat="59.8858202" lon="17.6211583">
        <ele>30.4188</ele>
        <time>2014-05-29T12:51:56Z</time>
      </trkpt>
      <trkpt lat="59.8858523" lon="17.621131">
        <ele>30.4188</ele>
        <time>2014-05-29T12:51:57Z</time>
      </trkpt>
      <trkpt lat="59.8858852" lon="17.6211044">
        <ele>30.8995</ele>
        <time>2014-05-29T12:51:58Z</time>
      </trkpt>
      <trkpt lat="59.8859175" lon="17.6210808">
        <ele>30.8995</ele>
        <time>2014-05-29T12:51:59Z</time>
      </trkpt>
      <trkpt lat="59.8859494" lon="17.6210596">
        <ele>30.4188</ele>
        <time>2014-05-29T12:52:00Z</time>
      </trkpt>
      <trkpt lat="59.8859839" lon="17.6210408">
        <ele>30.4188</ele>
        <time>2014-05-29T12:52:01Z</time>
      </trkpt>
      <trkpt lat="59.8860191" lon="17.6210244">
        <ele>30.4188</ele>
        <time>2014-05-29T12:52:02Z</time>
      </trkpt>
      <trkpt lat="59.8860543" lon="17.6210092">
        <ele>30.8995</ele>
        <time>2014-05-29T12:52:03Z</time>
      </trkpt>
      <trkpt lat="59.8860906" lon="17.6209937">
        <ele>30.4188</ele>
        <time>2014-05-29T12:52:04Z</time>
      </trkpt>
      <trkpt lat="59.8861297" lon="17.6209775">
        <ele>30.8995</ele>
        <time>2014-05-29T12:52:05Z</time>
      </trkpt>
      <trkpt lat="59.8861691" lon="17.6209591">
        <ele>30.4188</ele>
        <time>2014-05-29T12:52:06Z</time>
      </trkpt>
      <trkpt lat="59.8862091" lon="17.6209383">
        <ele>30.8995</ele>
        <time>2014-05-29T12:52:07Z</time>
      </trkpt>
      <trkpt lat="59.8862465" lon="17.6209199">
        <ele>30.8995</ele>
        <time>2014-05-29T12:52:08Z</time>
      </trkpt>
      <trkpt lat="59.8862796" lon="17.6209056">
        <ele>31.3801</ele>
        <time>2014-05-29T12:52:09Z</time>
      </trkpt>
      <trkpt lat="59.8863091" lon="17.6208902">
        <ele>31.3801</ele>
        <time>2014-05-29T12:52:10Z</time>
      </trkpt>
      <trkpt lat="59.8863367" lon="17.6208718">
        <ele>31.3801</ele>
        <time>2014-05-29T12:52:11Z</time>
      </trkpt>
      <trkpt lat="59.8863637" lon="17.6208545">
        <ele>31.8607</ele>
        <time>2014-05-29T12:52:12Z</time>
      </trkpt>
      <trkpt lat="59.8863905" lon="17.6208403">
        <ele>31.8607</ele>
        <time>2014-05-29T12:52:13Z</time>
      </trkpt>
      <trkpt lat="59.886419" lon="17.6208256">
        <ele>31.8607</ele>
        <time>2014-05-29T12:52:14Z</time>
      </trkpt>
      <trkpt lat="59.8864488" lon="17.6208097">
        <ele>32.3416</ele>
        <time>2014-05-29T12:52:15Z</time>
      </trkpt>
      <trkpt lat="59.8864785" lon="17.6207953">
        <ele>32.3416</ele>
        <time>2014-05-29T12:52:16Z</time>
      </trkpt>
      <trkpt lat="59.8865076" lon="17.6207817">
        <ele>32.8223</ele>
        <time>2014-05-29T12:52:17Z</time>
      </trkpt>
      <trkpt lat="59.8865365" lon="17.6207673">
        <ele>32.8223</ele>
        <time>2014-05-29T12:52:18Z</time>
      </trkpt>
      <trkpt lat="59.8865641" lon="17.6207548">
        <ele>32.8223</ele>
        <time>2014-05-29T12:52:19Z</time>
      </trkpt>
      <trkpt lat="59.8865919" lon="17.6207435">
        <ele>33.3029</ele>
        <time>2014-05-29T12:52:20Z</time>
      </trkpt>
      <trkpt lat="59.8866189" lon="17.6207294">
        <ele>33.3029</ele>
        <time>2014-05-29T12:52:21Z</time>
      </trkpt>
      <trkpt lat="59.8866459" lon="17.6207148">
        <ele>33.3029</ele>
        <time>2014-05-29T12:52:22Z</time>
      </trkpt>
      <trkpt lat="59.8866739" lon="17.6207019">
        <ele>33.7834</ele>
        <time>2014-05-29T12:52:23Z</time>
      </trkpt>
      <trkpt lat="59.8867023" lon="17.6206907">
        <ele>33.7834</ele>
        <time>2014-05-29T12:52:24Z</time>
      </trkpt>
      <trkpt lat="59.8867287" lon="17.6206812">
        <ele>33.7834</ele>
        <time>2014-05-29T12:52:25Z</time>
      </trkpt>
      <trkpt lat="59.8867527" lon="17.6206713">
        <ele>33.7834</ele>
        <time>2014-05-29T12:52:26Z</time>
      </trkpt>
      <trkpt lat="59.8867772" lon="17.6206614">
        <ele>33.7834</ele>
        <time>2014-05-29T12:52:27Z</time>
      </trkpt>
      <trkpt lat="59.8868033" lon="17.6206514">
        <ele>34.2642</ele>
        <time>2014-05-29T12:52:28Z</time>
      </trkpt>
      <trkpt lat="59.8868306" lon="17.6206409">
        <ele>34.2642</ele>
        <time>2014-05-29T12:52:29Z</time>
      </trkpt>
      <trkpt lat="59.8868581" lon="17.62063">
        <ele>34.2642</ele>
        <time>2014-05-29T12:52:30Z</time>
      </trkpt>
      <trkpt lat="59.8868863" lon="17.6206188">
        <ele>34.2642</ele>
        <time>2014-05-29T12:52:31Z</time>
      </trkpt>
      <trkpt lat="59.886914" lon="17.6206084">
        <ele>34.7449</ele>
        <time>2014-05-29T12:52:32Z</time>
      </trkpt>
      <trkpt lat="59.8869417" lon="17.6205999">
        <ele>34.7449</ele>
        <time>2014-05-29T12:52:33Z</time>
      </trkpt>
      <trkpt lat="59.8869706" lon="17.6205933">
        <ele>35.2255</ele>
        <time>2014-05-29T12:52:34Z</time>
      </trkpt>
      <trkpt lat="59.8869989" lon="17.6205871">
        <ele>35.2255</ele>
        <time>2014-05-29T12:52:35Z</time>
      </trkpt>
      <trkpt lat="59.8870256" lon="17.6205792">
        <ele>35.7061</ele>
        <time>2014-05-29T12:52:36Z</time>
      </trkpt>
      <trkpt lat="59.887052" lon="17.6205711">
        <ele>35.7061</ele>
        <time>2014-05-29T12:52:37Z</time>
      </trkpt>
      <trkpt lat="59.887078" lon="17.6205612">
        <ele>36.1868</ele>
        <time>2014-05-29T12:52:38Z</time>
      </trkpt>
      <trkpt lat="59.8871044" lon="17.6205524">
        <ele>36.1868</ele>
        <time>2014-05-29T12:52:39Z</time>
      </trkpt>
      <trkpt lat="59.8871308" lon="17.6205468">
        <ele>36.6675</ele>
        <time>2014-05-29T12:52:40Z</time>
      </trkpt>
      <trkpt lat="59.8871575" lon="17.6205444">
        <ele>36.6675</ele>
        <time>2014-05-29T12:52:41Z</time>
      </trkpt>
      <trkpt lat="59.887185" lon="17.6205457">
        <ele>36.6675</ele>
        <time>2014-05-29T12:52:42Z</time>
      </trkpt>
      <trkpt lat="59.8872115" lon="17.6205512">
        <ele>36.6675</ele>
        <time>2014-05-29T12:52:43Z</time>
      </trkpt>
      <trkpt lat="59.8872374" lon="17.6205599">
        <ele>37.1481</ele>
        <time>2014-05-29T12:52:44Z</time>
      </trkpt>
      <trkpt lat="59.8872631" lon="17.6205714">
        <ele>37.1481</ele>
        <time>2014-05-29T12:52:45Z</time>
      </trkpt>
      <trkpt lat="59.8872864" lon="17.6205891">
        <ele>37.1481</ele>
        <time>2014-05-29T12:52:46Z</time>
      </trkpt>
      <trkpt lat="59.8873089" lon="17.6206104">
        <ele>37.1481</ele>
        <time>2014-05-29T12:52:47Z</time>
      </trkpt>
      <trkpt lat="59.88733" lon="17.6206299">
        <ele>37.6287</ele>
        <time>2014-05-29T12:52:48Z</time>
      </trkpt>
      <trkpt lat="59.8873508" lon="17.6206491">
        <ele>37.6287</ele>
        <time>2014-05-29T12:52:49Z</time>
      </trkpt>
      <trkpt lat="59.8873733" lon="17.6206698">
        <ele>37.6287</ele>
        <time>2014-05-29T12:52:50Z</time>
      </trkpt>
      <trkpt lat="59.8873989" lon="17.6206927">
        <ele>37.6287</ele>
        <time>2014-05-29T12:52:51Z</time>
      </trkpt>
      <trkpt lat="59.8874271" lon="17.6207185">
        <ele>37.6287</ele>
        <time>2014-05-29T12:52:52Z</time>
      </trkpt>
      <trkpt lat="59.8874571" lon="17.6207488">
        <ele>37.6287</ele>
        <time>2014-05-29T12:52:53Z</time>
      </trkpt>
      <trkpt lat="59.8874888" lon="17.6207839">
        <ele>38.1094</ele>
        <time>2014-05-29T12:52:54Z</time>
      </trkpt>
      <trkpt lat="59.8875198" lon="17.6208225">
        <ele>38.1094</ele>
        <time>2014-05-29T12:52:55Z</time>
      </trkpt>
      <trkpt lat="59.8875493" lon="17.6208615">
        <ele>38.1094</ele>
        <time>2014-05-29T12:52:56Z</time>
      </trkpt>
      <trkpt lat="59.8875787" lon="17.6208993">
        <ele>38.5901</ele>
        <time>2014-05-29T12:52:57Z</time>
      </trkpt>
      <trkpt lat="59.8876067" lon="17.6209377">
        <ele>38.5901</ele>
        <time>2014-05-29T12:52:58Z</time>
      </trkpt>
      <trkpt lat="59.8876325" lon="17.6209759">
        <ele>39.0707</ele>
        <time>2014-05-29T12:52:59Z</time>
      </trkpt>
      <trkpt lat="59.8876571" lon="17.6210119">
        <ele>39.5513</ele>
        <time>2014-05-29T12:53:00Z</time>
      </trkpt>
      <trkpt lat="59.8876796" lon="17.6210507">
        <ele>39.5513</ele>
        <time>2014-05-29T12:53:01Z</time>
      </trkpt>
      <trkpt lat="59.8877017" lon="17.6210876">
        <ele>40.0321</ele>
        <time>2014-05-29T12:53:02Z</time>
      </trkpt>
      <trkpt lat="59.8877248" lon="17.6211168">
        <ele>40.0321</ele>
        <time>2014-05-29T12:53:03Z</time>
      </trkpt>
      <trkpt lat="59.8877461" lon="17.6211408">
        <ele>40.5128</ele>
        <time>2014-05-29T12:53:04Z</time>
      </trkpt>
      <trkpt lat="59.8877638" lon="17.621162">
        <ele>40.5128</ele>
        <time>2014-05-29T12:53:05Z</time>
      </trkpt>
      <trkpt lat="59.8877791" lon="17.6211821">
        <ele>40.9934</ele>
        <time>2014-05-29T12:53:06Z</time>
      </trkpt>
      <trkpt lat="59.8877921" lon="17.6212043">
        <ele>41.474</ele>
        <time>2014-05-29T12:53:07Z</time>
      </trkpt>
      <trkpt lat="59.8878035" lon="17.6212284">
        <ele>41.474</ele>
        <time>2014-05-29T12:53:08Z</time>
      </trkpt>
      <trkpt lat="59.8878127" lon="17.6212531">
        <ele>41.9547</ele>
        <time>2014-05-29T12:53:09Z</time>
      </trkpt>
      <trkpt lat="59.8878205" lon="17.6212768">
        <ele>41.9547</ele>
        <time>2014-05-29T12:53:10Z</time>
      </trkpt>
      <trkpt lat="59.8878305" lon="17.6212983">
        <ele>42.4354</ele>
        <time>2014-05-29T12:53:11Z</time>
      </trkpt>
      <trkpt lat="59.8878425" lon="17.6213175">
        <ele>42.916</ele>
        <time>2014-05-29T12:53:12Z</time>
      </trkpt>
      <trkpt lat="59.8878554" lon="17.6213339">
        <ele>42.916</ele>
        <time>2014-05-29T12:53:13Z</time>
      </trkpt>
      <trkpt lat="59.887868" lon="17.6213504">
        <ele>43.3966</ele>
        <time>2014-05-29T12:53:14Z</time>
      </trkpt>
      <trkpt lat="59.8878814" lon="17.6213687">
        <ele>43.3966</ele>
        <time>2014-05-29T12:53:15Z</time>
      </trkpt>
      <trkpt lat="59.8878939" lon="17.6213895">
        <ele>43.8773</ele>
        <time>2014-05-29T12:53:16Z</time>
      </trkpt>
      <trkpt lat="59.887906" lon="17.6214116">
        <ele>43.8773</ele>
        <time>2014-05-29T12:53:17Z</time>
      </trkpt>
      <trkpt lat="59.8879177" lon="17.6214356">
        <ele>44.358</ele>
        <time>2014-05-29T12:53:18Z</time>
      </trkpt>
      <trkpt lat="59.8879285" lon="17.6214605">
        <ele>44.8386</ele>
        <time>2014-05-29T12:53:19Z</time>
      </trkpt>
      <trkpt lat="59.8879392" lon="17.6214862">
        <ele>44.8386</ele>
        <time>2014-05-29T12:53:20Z</time>
      </trkpt>
      <trkpt lat="59.8879497" lon="17.6215127">
        <ele>45.3192</ele>
        <time>2014-05-29T12:53:21Z</time>
      </trkpt>
      <trkpt lat="59.8879593" lon="17.6215401">
        <ele>45.3192</ele>
        <time>2014-05-29T12:53:22Z</time>
      </trkpt>
      <trkpt lat="59.8879682" lon="17.621569">
        <ele>45.7999</ele>
        <time>2014-05-29T12:53:23Z</time>
      </trkpt>
      <trkpt lat="59.8879756" lon="17.6215999">
        <ele>45.7999</ele>
        <time>2014-05-29T12:53:24Z</time>
      </trkpt>
      <trkpt lat="59.8879838" lon="17.6216319">
        <ele>46.2806</ele>
        <time>2014-05-29T12:53:25Z</time>
      </trkpt>
      <trkpt lat="59.8879918" lon="17.6216631">
        <ele>46.2806</ele>
        <time>2014-05-29T12:53:26Z</time>
      </trkpt>
      <trkpt lat="59.8879975" lon="17.6216946">
        <ele>46.7612</ele>
        <time>2014-05-29T12:53:27Z</time>
      </trkpt>
      <trkpt lat="59.8879985" lon="17.6217266">
        <ele>46.7612</ele>
        <time>2014-05-29T12:53:28Z</time>
      </trkpt>
      <trkpt lat="59.8879974" lon="17.6217579">
        <ele>46.7612</ele>
        <time>2014-05-29T12:53:29Z</time>
      </trkpt>
      <trkpt lat="59.8879938" lon="17.6217908">
        <ele>46.7612</ele>
        <time>2014-05-29T12:53:30Z</time>
      </trkpt>
      <trkpt lat="59.8879873" lon="17.6218282">
        <ele>47.2418</ele>
        <time>2014-05-29T12:53:31Z</time>
      </trkpt>
      <trkpt lat="59.8879771" lon="17.6218682">
        <ele>47.2418</ele>
        <time>2014-05-29T12:53:32Z</time>
      </trkpt>
      <trkpt lat="59.8879647" lon="17.6219102">
        <ele>47.2418</ele>
        <time>2014-05-29T12:53:33Z</time>
      </trkpt>
      <trkpt lat="59.8879505" lon="17.6219551">
        <ele>46.7612</ele>
        <time>2014-05-29T12:53:34Z</time>
      </trkpt>
      <trkpt lat="59.8879339" lon="17.6220017">
        <ele>46.7612</ele>
        <time>2014-05-29T12:53:35Z</time>
      </trkpt>
      <trkpt lat="59.8879155" lon="17.6220468">
        <ele>46.7612</ele>
        <time>2014-05-29T12:53:36Z</time>
      </trkpt>
      <trkpt lat="59.8878951" lon="17.6220939">
        <ele>46.7612</ele>
        <time>2014-05-29T12:53:37Z</time>
      </trkpt>
      <trkpt lat="59.8878707" lon="17.6221437">
        <ele>46.2806</ele>
        <time>2014-05-29T12:53:38Z</time>
      </trkpt>
      <trkpt lat="59.8878435" lon="17.6221881">
        <ele>45.7999</ele>
        <time>2014-05-29T12:53:39Z</time>
      </trkpt>
      <trkpt lat="59.8878175" lon="17.622226">
        <ele>45.3192</ele>
        <time>2014-05-29T12:53:40Z</time>
      </trkpt>
      <trkpt lat="59.8877927" lon="17.6222587">
        <ele>44.8386</ele>
        <time>2014-05-29T12:53:41Z</time>
      </trkpt>
      <trkpt lat="59.8877674" lon="17.6222923">
        <ele>44.358</ele>
        <time>2014-05-29T12:53:42Z</time>
      </trkpt>
      <trkpt lat="59.8877428" lon="17.6223246">
        <ele>43.8773</ele>
        <time>2014-05-29T12:53:43Z</time>
      </trkpt>
      <trkpt lat="59.8877228" lon="17.6223493">
        <ele>43.3966</ele>
        <time>2014-05-29T12:53:44Z</time>
      </trkpt>
      <trkpt lat="59.8877114" lon="17.6223722">
        <ele>42.916</ele>
        <time>2014-05-29T12:53:45Z</time>
      </trkpt>
      <trkpt lat="59.88771" lon="17.6224053">
        <ele>42.916</ele>
        <time>2014-05-29T12:53:46Z</time>
      </trkpt>
      <trkpt lat="59.8877186" lon="17.6224472">
        <ele>42.4354</ele>
        <time>2014-05-29T12:53:47Z</time>
      </trkpt>
      <trkpt lat="59.8877336" lon="17.6224929">
        <ele>42.4354</ele>
        <time>2014-05-29T12:53:48Z</time>
      </trkpt>
      <trkpt lat="59.887755" lon="17.6225374">
        <ele>41.9547</ele>
        <time>2014-05-29T12:53:49Z</time>
      </trkpt>
      <trkpt lat="59.8877794" lon="17.622587">
        <ele>41.9547</ele>
        <time>2014-05-29T12:53:50Z</time>
      </trkpt>
      <trkpt lat="59.8877994" lon="17.6226508">
        <ele>41.474</ele>
        <time>2014-05-29T12:53:51Z</time>
      </trkpt>
      <trkpt lat="59.8878162" lon="17.6227285">
        <ele>40.9934</ele>
        <time>2014-05-29T12:53:52Z</time>
      </trkpt>
      <trkpt lat="59.8878368" lon="17.6228119">
        <ele>40.5128</ele>
        <time>2014-05-29T12:53:53Z</time>
      </trkpt>
      <trkpt lat="59.8878627" lon="17.6228879">
        <ele>40.0321</ele>
        <time>2014-05-29T12:53:54Z</time>
      </trkpt>
      <trkpt lat="59.8878942" lon="17.6229527">
        <ele>40.0321</ele>
        <time>2014-05-29T12:53:55Z</time>
      </trkpt>
      <trkpt lat="59.8879296" lon="17.6229998">
        <ele>40.0321</ele>
        <time>2014-05-29T12:53:56Z</time>
      </trkpt>
      <trkpt lat="59.8879659" lon="17.6230277">
        <ele>39.5513</ele>
        <time>2014-05-29T12:53:57Z</time>
      </trkpt>
      <trkpt lat="59.8879985" lon="17.623045">
        <ele>39.5513</ele>
        <time>2014-05-29T12:53:58Z</time>
      </trkpt>
      <trkpt lat="59.8880289" lon="17.6230552">
        <ele>39.0707</ele>
        <time>2014-05-29T12:53:59Z</time>
      </trkpt>
      <trkpt lat="59.8880591" lon="17.623064">
        <ele>38.5901</ele>
        <time>2014-05-29T12:54:00Z</time>
      </trkpt>
      <trkpt lat="59.8880937" lon="17.6230627">
        <ele>38.1094</ele>
        <time>2014-05-29T12:54:01Z</time>
      </trkpt>
      <trkpt lat="59.8881244" lon="17.623063">
        <ele>38.1094</ele>
        <time>2014-05-29T12:54:02Z</time>
      </trkpt>
      <trkpt lat="59.8881496" lon="17.6230705">
        <ele>37.1481</ele>
        <time>2014-05-29T12:54:03Z</time>
      </trkpt>
      <trkpt lat="59.8881808" lon="17.6230744">
        <ele>37.1481</ele>
        <time>2014-05-29T12:54:04Z</time>
      </trkpt>
      <trkpt lat="59.8882247" lon="17.6230641">
        <ele>37.1481</ele>
        <time>2014-05-29T12:54:05Z</time>
      </trkpt>
      <trkpt lat="59.8882854" lon="17.6230539">
        <ele>40.5128</ele>
        <time>2014-05-29T12:54:06Z</time>
      </trkpt>
      <trkpt lat="59.8883445" lon="17.6230448">
        <ele>40.9934</ele>
        <time>2014-05-29T12:54:07Z</time>
      </trkpt>
      <trkpt lat="59.8883984" lon="17.6230507">
        <ele>40.5128</ele>
        <time>2014-05-29T12:54:08Z</time>
      </trkpt>
      <trkpt lat="59.8884651" lon="17.6230469">
        <ele>40.5128</ele>
        <time>2014-05-29T12:54:09Z</time>
      </trkpt>
      <trkpt lat="59.8885459" lon="17.6230272">
        <ele>40.9934</ele>
        <time>2014-05-29T12:54:10Z</time>
      </trkpt>
      <trkpt lat="59.8886141" lon="17.6229982">
        <ele>39.5513</ele>
        <time>2014-05-29T12:54:11Z</time>
      </trkpt>
      <trkpt lat="59.88868" lon="17.6229636">
        <ele>39.0707</ele>
        <time>2014-05-29T12:54:12Z</time>
      </trkpt>
      <trkpt lat="59.8887349" lon="17.6229373">
        <ele>37.6287</ele>
        <time>2014-05-29T12:54:13Z</time>
      </trkpt>
      <trkpt lat="59.8887872" lon="17.6229402">
        <ele>36.1868</ele>
        <time>2014-05-29T12:54:14Z</time>
      </trkpt>
      <trkpt lat="59.8888363" lon="17.6229653">
        <ele>34.2642</ele>
        <time>2014-05-29T12:54:15Z</time>
      </trkpt>
      <trkpt lat="59.8888852" lon="17.6230212">
        <ele>33.3029</ele>
        <time>2014-05-29T12:54:16Z</time>
      </trkpt>
      <trkpt lat="59.8889311" lon="17.6230883">
        <ele>32.8223</ele>
        <time>2014-05-29T12:54:17Z</time>
      </trkpt>
      <trkpt lat="59.8889812" lon="17.623146">
        <ele>33.7834</ele>
        <time>2014-05-29T12:54:18Z</time>
      </trkpt>
      <trkpt lat="59.8890303" lon="17.6231947">
        <ele>33.7834</ele>
        <time>2014-05-29T12:54:19Z</time>
      </trkpt>
      <trkpt lat="59.889072" lon="17.6232445">
        <ele>33.7834</ele>
        <time>2014-05-29T12:54:20Z</time>
      </trkpt>
      <trkpt lat="59.889111" lon="17.6233028">
        <ele>34.2642</ele>
        <time>2014-05-29T12:54:21Z</time>
      </trkpt>
      <trkpt lat="59.8891395" lon="17.6233682">
        <ele>34.2642</ele>
        <time>2014-05-29T12:54:22Z</time>
      </trkpt>
      <trkpt lat="59.8891634" lon="17.6234258">
        <ele>33.7834</ele>
        <time>2014-05-29T12:54:23Z</time>
      </trkpt>
      <trkpt lat="59.8891873" lon="17.6234698">
        <ele>33.7834</ele>
        <time>2014-05-29T12:54:24Z</time>
      </trkpt>
      <trkpt lat="59.8892111" lon="17.623505">
        <ele>33.3029</ele>
        <time>2014-05-29T12:54:25Z</time>
      </trkpt>
      <trkpt lat="59.8892398" lon="17.6235362">
        <ele>32.8223</ele>
        <time>2014-05-29T12:54:26Z</time>
      </trkpt>
      <trkpt lat="59.889273" lon="17.6235682">
        <ele>32.3416</ele>
        <time>2014-05-29T12:54:27Z</time>
      </trkpt>
      <trkpt lat="59.8893084" lon="17.6236004">
        <ele>31.8607</ele>
        <time>2014-05-29T12:54:28Z</time>
      </trkpt>
      <trkpt lat="59.8893446" lon="17.6236313">
        <ele>30.8995</ele>
        <time>2014-05-29T12:54:29Z</time>
      </trkpt>
      <trkpt lat="59.8893782" lon="17.6236702">
        <ele>30.4188</ele>
        <time>2014-05-29T12:54:30Z</time>
      </trkpt>
      <trkpt lat="59.8894018" lon="17.6237199">
        <ele>29.9381</ele>
        <time>2014-05-29T12:54:31Z</time>
      </trkpt>
      <trkpt lat="59.8894194" lon="17.6237711">
        <ele>29.4575</ele>
        <time>2014-05-29T12:54:32Z</time>
      </trkpt>
      <trkpt lat="59.8894355" lon="17.6238218">
        <ele>28.9769</ele>
        <time>2014-05-29T12:54:33Z</time>
      </trkpt>
      <trkpt lat="59.8894497" lon="17.6238743">
        <ele>28.4962</ele>
        <time>2014-05-29T12:54:34Z</time>
      </trkpt>
      <trkpt lat="59.8894618" lon="17.6239277">
        <ele>28.0155</ele>
        <time>2014-05-29T12:54:35Z</time>
      </trkpt>
      <trkpt lat="59.8894762" lon="17.623972">
        <ele>28.0155</ele>
        <time>2014-05-29T12:54:36Z</time>
      </trkpt>
      <trkpt lat="59.8894923" lon="17.6240091">
        <ele>27.5349</ele>
        <time>2014-05-29T12:54:37Z</time>
      </trkpt>
      <trkpt lat="59.8895118" lon="17.624039">
        <ele>27.5349</ele>
        <time>2014-05-29T12:54:38Z</time>
      </trkpt>
      <trkpt lat="59.8895323" lon="17.6240601">
        <ele>28.0155</ele>
        <time>2014-05-29T12:54:39Z</time>
      </trkpt>
      <trkpt lat="59.8895527" lon="17.6240671">
        <ele>28.0155</ele>
        <time>2014-05-29T12:54:40Z</time>
      </trkpt>
      <trkpt lat="59.8895726" lon="17.6240679">
        <ele>28.0155</ele>
        <time>2014-05-29T12:54:41Z</time>
      </trkpt>
      <trkpt lat="59.8895938" lon="17.6240712">
        <ele>28.0155</ele>
        <time>2014-05-29T12:54:42Z</time>
      </trkpt>
      <trkpt lat="59.8896154" lon="17.6240759">
        <ele>28.0155</ele>
        <time>2014-05-29T12:54:43Z</time>
      </trkpt>
      <trkpt lat="59.8896389" lon="17.6240768">
        <ele>28.0155</ele>
        <time>2014-05-29T12:54:44Z</time>
      </trkpt>
      <trkpt lat="59.8896659" lon="17.6240782">
        <ele>28.0155</ele>
        <time>2014-05-29T12:54:45Z</time>
      </trkpt>
      <trkpt lat="59.889697" lon="17.6240847">
        <ele>27.5349</ele>
        <time>2014-05-29T12:54:46Z</time>
      </trkpt>
      <trkpt lat="59.8897315" lon="17.6240938">
        <ele>27.5349</ele>
        <time>2014-05-29T12:54:47Z</time>
      </trkpt>
      <trkpt lat="59.8897665" lon="17.6241038">
        <ele>27.5349</ele>
        <time>2014-05-29T12:54:48Z</time>
      </trkpt>
      <trkpt lat="59.8898001" lon="17.6241112">
        <ele>27.5349</ele>
        <time>2014-05-29T12:54:49Z</time>
      </trkpt>
      <trkpt lat="59.8898332" lon="17.624114">
        <ele>27.5349</ele>
        <time>2014-05-29T12:54:50Z</time>
      </trkpt>
      <trkpt lat="59.8898653" lon="17.6241125">
        <ele>27.5349</ele>
        <time>2014-05-29T12:54:51Z</time>
      </trkpt>
      <trkpt lat="59.889898" lon="17.624109">
        <ele>27.5349</ele>
        <time>2014-05-29T12:54:52Z</time>
      </trkpt>
      <trkpt lat="59.8899311" lon="17.6241064">
        <ele>27.5349</ele>
        <time>2014-05-29T12:54:53Z</time>
      </trkpt>
      <trkpt lat="59.8899643" lon="17.6241068">
        <ele>27.5349</ele>
        <time>2014-05-29T12:54:54Z</time>
      </trkpt>
      <trkpt lat="59.8899967" lon="17.6241099">
        <ele>27.5349</ele>
        <time>2014-05-29T12:54:55Z</time>
      </trkpt>
      <trkpt lat="59.8900285" lon="17.6241091">
        <ele>27.5349</ele>
        <time>2014-05-29T12:54:56Z</time>
      </trkpt>
      <trkpt lat="59.8900601" lon="17.6241018">
        <ele>27.5349</ele>
        <time>2014-05-29T12:54:57Z</time>
      </trkpt>
      <trkpt lat="59.8900909" lon="17.6240909">
        <ele>27.5349</ele>
        <time>2014-05-29T12:54:58Z</time>
      </trkpt>
      <trkpt lat="59.8901195" lon="17.6240759">
        <ele>27.5349</ele>
        <time>2014-05-29T12:54:59Z</time>
      </trkpt>
      <trkpt lat="59.890147" lon="17.6240542">
        <ele>27.5349</ele>
        <time>2014-05-29T12:55:00Z</time>
      </trkpt>
      <trkpt lat="59.8901746" lon="17.6240298">
        <ele>27.5349</ele>
        <time>2014-05-29T12:55:01Z</time>
      </trkpt>
      <trkpt lat="59.8902023" lon="17.62401">
        <ele>27.5349</ele>
        <time>2014-05-29T12:55:02Z</time>
      </trkpt>
      <trkpt lat="59.890227" lon="17.6239948">
        <ele>27.5349</ele>
        <time>2014-05-29T12:55:03Z</time>
      </trkpt>
      <trkpt lat="59.8902482" lon="17.6239805">
        <ele>27.5349</ele>
        <time>2014-05-29T12:55:04Z</time>
      </trkpt>
      <trkpt lat="59.8902673" lon="17.6239708">
        <ele>27.5349</ele>
        <time>2014-05-29T12:55:05Z</time>
      </trkpt>
      <trkpt lat="59.8902828" lon="17.6239696">
        <ele>27.5349</ele>
        <time>2014-05-29T12:55:06Z</time>
      </trkpt>
      <trkpt lat="59.8902932" lon="17.6239738">
        <ele>27.5349</ele>
        <time>2014-05-29T12:55:07Z</time>
      </trkpt>
      <trkpt lat="59.8902977" lon="17.6239768">
        <ele>28.0155</ele>
        <time>2014-05-29T12:55:08Z</time>
      </trkpt>
      <trkpt lat="59.8902978" lon="17.6239783">
        <ele>27.5349</ele>
        <time>2014-05-29T12:55:09Z</time>
      </trkpt>
      <trkpt lat="59.8902978" lon="17.6239816">
        <ele>27.5349</ele>
        <time>2014-05-29T12:55:10Z</time>
      </trkpt>
      <trkpt lat="59.8903699" lon="17.624106">
        <ele>28.0155</ele>
        <time>2014-05-29T12:56:07Z</time>
      </trkpt>
      <trkpt lat="59.890386" lon="17.6241114">
        <ele>28.0155</ele>
        <time>2014-05-29T12:56:08Z</time>
      </trkpt>
      <trkpt lat="59.8904046" lon="17.6241116">
        <ele>28.0155</ele>
        <time>2014-05-29T12:56:09Z</time>
      </trkpt>
      <trkpt lat="59.8904245" lon="17.6241141">
        <ele>28.0155</ele>
        <time>2014-05-29T12:56:10Z</time>
      </trkpt>
      <trkpt lat="59.8904453" lon="17.6241115">
        <ele>28.0155</ele>
        <time>2014-05-29T12:56:11Z</time>
      </trkpt>
      <trkpt lat="59.890468" lon="17.6241064">
        <ele>28.0155</ele>
        <time>2014-05-29T12:56:12Z</time>
      </trkpt>
      <trkpt lat="59.8904914" lon="17.6241088">
        <ele>28.0155</ele>
        <time>2014-05-29T12:56:13Z</time>
      </trkpt>
      <trkpt lat="59.8905128" lon="17.6241121">
        <ele>28.0155</ele>
        <time>2014-05-29T12:56:14Z</time>
      </trkpt>
      <trkpt lat="59.8905336" lon="17.6241124">
        <ele>28.0155</ele>
        <time>2014-05-29T12:56:15Z</time>
      </trkpt>
      <trkpt lat="59.8905548" lon="17.6241136">
        <ele>28.0155</ele>
        <time>2014-05-29T12:56:16Z</time>
      </trkpt>
      <trkpt lat="59.890576" lon="17.6241168">
        <ele>28.0155</ele>
        <time>2014-05-29T12:56:17Z</time>
      </trkpt>
      <trkpt lat="59.8905972" lon="17.6241161">
        <ele>28.0155</ele>
        <time>2014-05-29T12:56:18Z</time>
      </trkpt>
      <trkpt lat="59.8906185" lon="17.6241163">
        <ele>28.0155</ele>
        <time>2014-05-29T12:56:19Z</time>
      </trkpt>
      <trkpt lat="59.8906402" lon="17.6241204">
        <ele>28.0155</ele>
        <time>2014-05-29T12:56:20Z</time>
      </trkpt>
      <trkpt lat="59.8906625" lon="17.624121">
        <ele>28.0155</ele>
        <time>2014-05-29T12:56:21Z</time>
      </trkpt>
      <trkpt lat="59.8906856" lon="17.624122">
        <ele>28.0155</ele>
        <time>2014-05-29T12:56:22Z</time>
      </trkpt>
      <trkpt lat="59.8907086" lon="17.624125">
        <ele>28.0155</ele>
        <time>2014-05-29T12:56:23Z</time>
      </trkpt>
      <trkpt lat="59.8907312" lon="17.6241269">
        <ele>28.0155</ele>
        <time>2014-05-29T12:56:24Z</time>
      </trkpt>
      <trkpt lat="59.890754" lon="17.6241262">
        <ele>28.0155</ele>
        <time>2014-05-29T12:56:25Z</time>
      </trkpt>
      <trkpt lat="59.8907775" lon="17.6241278">
        <ele>28.0155</ele>
        <time>2014-05-29T12:56:26Z</time>
      </trkpt>
      <trkpt lat="59.8908008" lon="17.6241298">
        <ele>28.0155</ele>
        <time>2014-05-29T12:56:27Z</time>
      </trkpt>
      <trkpt lat="59.8908231" lon="17.6241308">
        <ele>28.0155</ele>
        <time>2014-05-29T12:56:28Z</time>
      </trkpt>
      <trkpt lat="59.8908457" lon="17.6241328">
        <ele>28.0155</ele>
        <time>2014-05-29T12:56:29Z</time>
      </trkpt>
      <trkpt lat="59.8908687" lon="17.6241314">
        <ele>28.0155</ele>
        <time>2014-05-29T12:56:30Z</time>
      </trkpt>
      <trkpt lat="59.8908915" lon="17.6241297">
        <ele>28.0155</ele>
        <time>2014-05-29T12:56:31Z</time>
      </trkpt>
      <trkpt lat="59.8909148" lon="17.6241312">
        <ele>28.0155</ele>
        <time>2014-05-29T12:56:32Z</time>
      </trkpt>
      <trkpt lat="59.8909398" lon="17.6241313">
        <ele>28.0155</ele>
        <time>2014-05-29T12:56:33Z</time>
      </trkpt>
      <trkpt lat="59.8909656" lon="17.6241285">
        <ele>28.0155</ele>
        <time>2014-05-29T12:56:34Z</time>
      </trkpt>
      <trkpt lat="59.8909916" lon="17.6241283">
        <ele>28.0155</ele>
        <time>2014-05-29T12:56:35Z</time>
      </trkpt>
      <trkpt lat="59.8910179" lon="17.6241292">
        <ele>28.0155</ele>
        <time>2014-05-29T12:56:36Z</time>
      </trkpt>
      <trkpt lat="59.8910443" lon="17.6241259">
        <ele>28.0155</ele>
        <time>2014-05-29T12:56:37Z</time>
      </trkpt>
      <trkpt lat="59.8910713" lon="17.6241233">
        <ele>28.0155</ele>
        <time>2014-05-29T12:56:38Z</time>
      </trkpt>
      <trkpt lat="59.8910998" lon="17.6241224">
        <ele>28.0155</ele>
        <time>2014-05-29T12:56:39Z</time>
      </trkpt>
      <trkpt lat="59.8911308" lon="17.624121">
        <ele>28.0155</ele>
        <time>2014-05-29T12:56:40Z</time>
      </trkpt>
      <trkpt lat="59.891164" lon="17.6241197">
        <ele>28.0155</ele>
        <time>2014-05-29T12:56:41Z</time>
      </trkpt>
      <trkpt lat="59.8911982" lon="17.6241157">
        <ele>28.0155</ele>
        <time>2014-05-29T12:56:42Z</time>
      </trkpt>
      <trkpt lat="59.8912342" lon="17.6241116">
        <ele>28.0155</ele>
        <time>2014-05-29T12:56:43Z</time>
      </trkpt>
      <trkpt lat="59.8912711" lon="17.6241106">
        <ele>28.0155</ele>
        <time>2014-05-29T12:56:44Z</time>
      </trkpt>
      <trkpt lat="59.891309" lon="17.6241089">
        <ele>28.0155</ele>
        <time>2014-05-29T12:56:45Z</time>
      </trkpt>
      <trkpt lat="59.8913481" lon="17.6241064">
        <ele>28.0155</ele>
        <time>2014-05-29T12:56:46Z</time>
      </trkpt>
      <trkpt lat="59.8913883" lon="17.6241031">
        <ele>28.0155</ele>
        <time>2014-05-29T12:56:47Z</time>
      </trkpt>
      <trkpt lat="59.8914307" lon="17.6241029">
        <ele>28.4962</ele>
        <time>2014-05-29T12:56:48Z</time>
      </trkpt>
      <trkpt lat="59.8914732" lon="17.6241081">
        <ele>28.4962</ele>
        <time>2014-05-29T12:56:49Z</time>
      </trkpt>
      <trkpt lat="59.8915146" lon="17.624113">
        <ele>28.4962</ele>
        <time>2014-05-29T12:56:50Z</time>
      </trkpt>
      <trkpt lat="59.8915545" lon="17.6241163">
        <ele>28.4962</ele>
        <time>2014-05-29T12:56:51Z</time>
      </trkpt>
      <trkpt lat="59.8915922" lon="17.6241181">
        <ele>28.4962</ele>
        <time>2014-05-29T12:56:52Z</time>
      </trkpt>
      <trkpt lat="59.8916276" lon="17.6241183">
        <ele>28.4962</ele>
        <time>2014-05-29T12:56:53Z</time>
      </trkpt>
      <trkpt lat="59.8916605" lon="17.6241184">
        <ele>28.4962</ele>
        <time>2014-05-29T12:56:54Z</time>
      </trkpt>
      <trkpt lat="59.8916918" lon="17.6241186">
        <ele>28.9769</ele>
        <time>2014-05-29T12:56:55Z</time>
      </trkpt>
      <trkpt lat="59.8917228" lon="17.6241194">
        <ele>28.9769</ele>
        <time>2014-05-29T12:56:56Z</time>
      </trkpt>
      <trkpt lat="59.891754" lon="17.6241199">
        <ele>28.9769</ele>
        <time>2014-05-29T12:56:57Z</time>
      </trkpt>
      <trkpt lat="59.8917864" lon="17.6241204">
        <ele>28.4962</ele>
        <time>2014-05-29T12:56:58Z</time>
      </trkpt>
      <trkpt lat="59.8918195" lon="17.6241235">
        <ele>28.4962</ele>
        <time>2014-05-29T12:56:59Z</time>
      </trkpt>
      <trkpt lat="59.8918525" lon="17.6241277">
        <ele>28.4962</ele>
        <time>2014-05-29T12:57:00Z</time>
      </trkpt>
      <trkpt lat="59.8918861" lon="17.62413">
        <ele>28.4962</ele>
        <time>2014-05-29T12:57:01Z</time>
      </trkpt>
      <trkpt lat="59.8919206" lon="17.6241303">
        <ele>28.4962</ele>
        <time>2014-05-29T12:57:02Z</time>
      </trkpt>
      <trkpt lat="59.8919568" lon="17.6241307">
        <ele>28.0155</ele>
        <time>2014-05-29T12:57:03Z</time>
      </trkpt>
      <trkpt lat="59.8919953" lon="17.6241271">
        <ele>28.0155</ele>
        <time>2014-05-29T12:57:04Z</time>
      </trkpt>
      <trkpt lat="59.8920381" lon="17.6241117">
        <ele>27.5349</ele>
        <time>2014-05-29T12:57:05Z</time>
      </trkpt>
      <trkpt lat="59.8920838" lon="17.6240809">
        <ele>27.0543</ele>
        <time>2014-05-29T12:57:06Z</time>
      </trkpt>
      <trkpt lat="59.8921291" lon="17.6240344">
        <ele>27.0543</ele>
        <time>2014-05-29T12:57:07Z</time>
      </trkpt>
      <trkpt lat="59.8921695" lon="17.6239707">
        <ele>26.5736</ele>
        <time>2014-05-29T12:57:08Z</time>
      </trkpt>
      <trkpt lat="59.8922024" lon="17.6239016">
        <ele>26.5736</ele>
        <time>2014-05-29T12:57:09Z</time>
      </trkpt>
      <trkpt lat="59.8922316" lon="17.6238257">
        <ele>26.0929</ele>
        <time>2014-05-29T12:57:10Z</time>
      </trkpt>
      <trkpt lat="59.8922667" lon="17.6237591">
        <ele>26.0929</ele>
        <time>2014-05-29T12:57:11Z</time>
      </trkpt>
      <trkpt lat="59.8922994" lon="17.6236794">
        <ele>26.0929</ele>
        <time>2014-05-29T12:57:12Z</time>
      </trkpt>
      <trkpt lat="59.8923246" lon="17.623607">
        <ele>26.0929</ele>
        <time>2014-05-29T12:57:13Z</time>
      </trkpt>
      <trkpt lat="59.8923497" lon="17.623537">
        <ele>26.0929</ele>
        <time>2014-05-29T12:57:14Z</time>
      </trkpt>
      <trkpt lat="59.8923729" lon="17.6234725">
        <ele>26.5736</ele>
        <time>2014-05-29T12:57:15Z</time>
      </trkpt>
      <trkpt lat="59.8923909" lon="17.6234212">
        <ele>26.5736</ele>
        <time>2014-05-29T12:57:16Z</time>
      </trkpt>
      <trkpt lat="59.8924116" lon="17.6233775">
        <ele>27.0543</ele>
        <time>2014-05-29T12:57:17Z</time>
      </trkpt>
      <trkpt lat="59.8924325" lon="17.6233347">
        <ele>28.0155</ele>
        <time>2014-05-29T12:57:18Z</time>
      </trkpt>
      <trkpt lat="59.8924538" lon="17.6232995">
        <ele>28.0155</ele>
        <time>2014-05-29T12:57:19Z</time>
      </trkpt>
      <trkpt lat="59.8924781" lon="17.6232686">
        <ele>28.0155</ele>
        <time>2014-05-29T12:57:20Z</time>
      </trkpt>
      <trkpt lat="59.892509" lon="17.6232308">
        <ele>28.4962</ele>
        <time>2014-05-29T12:57:21Z</time>
      </trkpt>
      <trkpt lat="59.8925404" lon="17.623203">
        <ele>28.4962</ele>
        <time>2014-05-29T12:57:22Z</time>
      </trkpt>
      <trkpt lat="59.8925816" lon="17.6231766">
        <ele>29.9381</ele>
        <time>2014-05-29T12:57:23Z</time>
      </trkpt>
      <trkpt lat="59.8926238" lon="17.6231683">
        <ele>30.8995</ele>
        <time>2014-05-29T12:57:24Z</time>
      </trkpt>
      <trkpt lat="59.8926616" lon="17.6231744">
        <ele>30.4188</ele>
        <time>2014-05-29T12:57:25Z</time>
      </trkpt>
      <trkpt lat="59.8927053" lon="17.623176">
        <ele>30.4188</ele>
        <time>2014-05-29T12:57:26Z</time>
      </trkpt>
      <trkpt lat="59.8927541" lon="17.623189">
        <ele>30.4188</ele>
        <time>2014-05-29T12:57:27Z</time>
      </trkpt>
      <trkpt lat="59.8928067" lon="17.6231999">
        <ele>30.8995</ele>
        <time>2014-05-29T12:57:28Z</time>
      </trkpt>
      <trkpt lat="59.8928522" lon="17.6232277">
        <ele>30.8995</ele>
        <time>2014-05-29T12:57:29Z</time>
      </trkpt>
      <trkpt lat="59.8928932" lon="17.6232646">
        <ele>31.3801</ele>
        <time>2014-05-29T12:57:30Z</time>
      </trkpt>
      <trkpt lat="59.8929313" lon="17.6233066">
        <ele>31.8607</ele>
        <time>2014-05-29T12:57:31Z</time>
      </trkpt>
      <trkpt lat="59.8929656" lon="17.6233511">
        <ele>31.8607</ele>
        <time>2014-05-29T12:57:32Z</time>
      </trkpt>
      <trkpt lat="59.8929993" lon="17.6233896">
        <ele>31.8607</ele>
        <time>2014-05-29T12:57:33Z</time>
      </trkpt>
      <trkpt lat="59.8930289" lon="17.6234325">
        <ele>30.8995</ele>
        <time>2014-05-29T12:57:34Z</time>
      </trkpt>
      <trkpt lat="59.89306" lon="17.6234817">
        <ele>30.4188</ele>
        <time>2014-05-29T12:57:35Z</time>
      </trkpt>
      <trkpt lat="59.893095" lon="17.623533">
        <ele>30.4188</ele>
        <time>2014-05-29T12:57:36Z</time>
      </trkpt>
      <trkpt lat="59.8931303" lon="17.6235885">
        <ele>30.4188</ele>
        <time>2014-05-29T12:57:37Z</time>
      </trkpt>
      <trkpt lat="59.8931684" lon="17.6236449">
        <ele>29.9381</ele>
        <time>2014-05-29T12:57:38Z</time>
      </trkpt>
      <trkpt lat="59.8932081" lon="17.6237009">
        <ele>29.4575</ele>
        <time>2014-05-29T12:57:39Z</time>
      </trkpt>
      <trkpt lat="59.8932482" lon="17.62376">
        <ele>28.9769</ele>
        <time>2014-05-29T12:57:40Z</time>
      </trkpt>
      <trkpt lat="59.8932881" lon="17.6238221">
        <ele>28.9769</ele>
        <time>2014-05-29T12:57:41Z</time>
      </trkpt>
      <trkpt lat="59.8933291" lon="17.6238824">
        <ele>28.9769</ele>
        <time>2014-05-29T12:57:42Z</time>
      </trkpt>
      <trkpt lat="59.8933697" lon="17.6239396">
        <ele>28.9769</ele>
        <time>2014-05-29T12:57:43Z</time>
      </trkpt>
      <trkpt lat="59.8934106" lon="17.6239945">
        <ele>28.4962</ele>
        <time>2014-05-29T12:57:44Z</time>
      </trkpt>
      <trkpt lat="59.8934511" lon="17.6240505">
        <ele>28.4962</ele>
        <time>2014-05-29T12:57:45Z</time>
      </trkpt>
      <trkpt lat="59.893491" lon="17.624113">
        <ele>28.0155</ele>
        <time>2014-05-29T12:57:46Z</time>
      </trkpt>
      <trkpt lat="59.8935306" lon="17.6241818">
        <ele>28.4962</ele>
        <time>2014-05-29T12:57:47Z</time>
      </trkpt>
      <trkpt lat="59.8935685" lon="17.6242549">
        <ele>28.4962</ele>
        <time>2014-05-29T12:57:48Z</time>
      </trkpt>
      <trkpt lat="59.893598" lon="17.6243318">
        <ele>28.4962</ele>
        <time>2014-05-29T12:57:49Z</time>
      </trkpt>
      <trkpt lat="59.8936209" lon="17.6244105">
        <ele>28.4962</ele>
        <time>2014-05-29T12:57:50Z</time>
      </trkpt>
      <trkpt lat="59.8936398" lon="17.6244887">
        <ele>28.4962</ele>
        <time>2014-05-29T12:57:51Z</time>
      </trkpt>
      <trkpt lat="59.8936566" lon="17.6245641">
        <ele>28.4962</ele>
        <time>2014-05-29T12:57:52Z</time>
      </trkpt>
      <trkpt lat="59.8936709" lon="17.6246368">
        <ele>28.4962</ele>
        <time>2014-05-29T12:57:53Z</time>
      </trkpt>
      <trkpt lat="59.8936831" lon="17.6247068">
        <ele>28.4962</ele>
        <time>2014-05-29T12:57:54Z</time>
      </trkpt>
      <trkpt lat="59.8936922" lon="17.6247725">
        <ele>28.4962</ele>
        <time>2014-05-29T12:57:55Z</time>
      </trkpt>
      <trkpt lat="59.8936991" lon="17.6248354">
        <ele>28.4962</ele>
        <time>2014-05-29T12:57:56Z</time>
      </trkpt>
      <trkpt lat="59.8937042" lon="17.6248967">
        <ele>28.4962</ele>
        <time>2014-05-29T12:57:57Z</time>
      </trkpt>
      <trkpt lat="59.8937079" lon="17.6249557">
        <ele>28.4962</ele>
        <time>2014-05-29T12:57:58Z</time>
      </trkpt>
      <trkpt lat="59.8937118" lon="17.6250114">
        <ele>28.4962</ele>
        <time>2014-05-29T12:57:59Z</time>
      </trkpt>
      <trkpt lat="59.893717" lon="17.6250687">
        <ele>28.9769</ele>
        <time>2014-05-29T12:58:00Z</time>
      </trkpt>
      <trkpt lat="59.893724" lon="17.6251246">
        <ele>28.9769</ele>
        <time>2014-05-29T12:58:01Z</time>
      </trkpt>
      <trkpt lat="59.8937317" lon="17.6251764">
        <ele>28.9769</ele>
        <time>2014-05-29T12:58:02Z</time>
      </trkpt>
      <trkpt lat="59.8937391" lon="17.6252257">
        <ele>28.9769</ele>
        <time>2014-05-29T12:58:03Z</time>
      </trkpt>
      <trkpt lat="59.8937483" lon="17.6252722">
        <ele>29.4575</ele>
        <time>2014-05-29T12:58:04Z</time>
      </trkpt>
      <trkpt lat="59.8937577" lon="17.6253166">
        <ele>29.4575</ele>
        <time>2014-05-29T12:58:05Z</time>
      </trkpt>
      <trkpt lat="59.8937663" lon="17.625357">
        <ele>29.9381</ele>
        <time>2014-05-29T12:58:06Z</time>
      </trkpt>
      <trkpt lat="59.8937757" lon="17.6253942">
        <ele>29.9381</ele>
        <time>2014-05-29T12:58:07Z</time>
      </trkpt>
      <trkpt lat="59.8937856" lon="17.6254276">
        <ele>30.4188</ele>
        <time>2014-05-29T12:58:08Z</time>
      </trkpt>
      <trkpt lat="59.8937963" lon="17.6254584">
        <ele>30.4188</ele>
        <time>2014-05-29T12:58:09Z</time>
      </trkpt>
      <trkpt lat="59.8938077" lon="17.6254891">
        <ele>30.8995</ele>
        <time>2014-05-29T12:58:10Z</time>
      </trkpt>
      <trkpt lat="59.8938191" lon="17.6255201">
        <ele>31.3801</ele>
        <time>2014-05-29T12:58:11Z</time>
      </trkpt>
      <trkpt lat="59.8938301" lon="17.6255528">
        <ele>31.3801</ele>
        <time>2014-05-29T12:58:12Z</time>
      </trkpt>
      <trkpt lat="59.8938393" lon="17.6255873">
        <ele>31.8607</ele>
        <time>2014-05-29T12:58:13Z</time>
      </trkpt>
      <trkpt lat="59.8938489" lon="17.625618">
        <ele>32.3416</ele>
        <time>2014-05-29T12:58:14Z</time>
      </trkpt>
      <trkpt lat="59.8938591" lon="17.6256453">
        <ele>32.8223</ele>
        <time>2014-05-29T12:58:15Z</time>
      </trkpt>
      <trkpt lat="59.8938686" lon="17.6256727">
        <ele>32.8223</ele>
        <time>2014-05-29T12:58:16Z</time>
      </trkpt>
      <trkpt lat="59.8938791" lon="17.625706">
        <ele>32.8223</ele>
        <time>2014-05-29T12:58:17Z</time>
      </trkpt>
      <trkpt lat="59.8938892" lon="17.6257475">
        <ele>32.3416</ele>
        <time>2014-05-29T12:58:18Z</time>
      </trkpt>
      <trkpt lat="59.8939004" lon="17.625791">
        <ele>32.3416</ele>
        <time>2014-05-29T12:58:19Z</time>
      </trkpt>
      <trkpt lat="59.8939156" lon="17.6258345">
        <ele>32.3416</ele>
        <time>2014-05-29T12:58:20Z</time>
      </trkpt>
      <trkpt lat="59.8939296" lon="17.6258827">
        <ele>32.3416</ele>
        <time>2014-05-29T12:58:21Z</time>
      </trkpt>
      <trkpt lat="59.8939446" lon="17.6259329">
        <ele>32.3416</ele>
        <time>2014-05-29T12:58:22Z</time>
      </trkpt>
      <trkpt lat="59.893962" lon="17.6259821">
        <ele>32.3416</ele>
        <time>2014-05-29T12:58:23Z</time>
      </trkpt>
      <trkpt lat="59.8939815" lon="17.6260288">
        <ele>32.3416</ele>
        <time>2014-05-29T12:58:24Z</time>
      </trkpt>
      <trkpt lat="59.8940031" lon="17.6260753">
        <ele>32.3416</ele>
        <time>2014-05-29T12:58:25Z</time>
      </trkpt>
      <trkpt lat="59.8940261" lon="17.6261207">
        <ele>32.3416</ele>
        <time>2014-05-29T12:58:26Z</time>
      </trkpt>
      <trkpt lat="59.8940498" lon="17.6261646">
        <ele>32.3416</ele>
        <time>2014-05-29T12:58:27Z</time>
      </trkpt>
      <trkpt lat="59.8940741" lon="17.6262076">
        <ele>32.3416</ele>
        <time>2014-05-29T12:58:28Z</time>
      </trkpt>
      <trkpt lat="59.8940985" lon="17.6262489">
        <ele>32.8223</ele>
        <time>2014-05-29T12:58:29Z</time>
      </trkpt>
      <trkpt lat="59.8941229" lon="17.6262883">
        <ele>32.8223</ele>
        <time>2014-05-29T12:58:30Z</time>
      </trkpt>
      <trkpt lat="59.8941471" lon="17.6263264">
        <ele>32.8223</ele>
        <time>2014-05-29T12:58:31Z</time>
      </trkpt>
      <trkpt lat="59.8941708" lon="17.6263622">
        <ele>33.3029</ele>
        <time>2014-05-29T12:58:32Z</time>
      </trkpt>
      <trkpt lat="59.8941947" lon="17.6263986">
        <ele>33.3029</ele>
        <time>2014-05-29T12:58:33Z</time>
      </trkpt>
      <trkpt lat="59.8942181" lon="17.6264379">
        <ele>33.3029</ele>
        <time>2014-05-29T12:58:34Z</time>
      </trkpt>
      <trkpt lat="59.8942404" lon="17.6264784">
        <ele>33.3029</ele>
        <time>2014-05-29T12:58:35Z</time>
      </trkpt>
      <trkpt lat="59.8942625" lon="17.6265176">
        <ele>33.7834</ele>
        <time>2014-05-29T12:58:36Z</time>
      </trkpt>
      <trkpt lat="59.8942847" lon="17.6265557">
        <ele>33.7834</ele>
        <time>2014-05-29T12:58:37Z</time>
      </trkpt>
      <trkpt lat="59.8943062" lon="17.6265949">
        <ele>33.7834</ele>
        <time>2014-05-29T12:58:38Z</time>
      </trkpt>
      <trkpt lat="59.8943279" lon="17.6266317">
        <ele>33.7834</ele>
        <time>2014-05-29T12:58:39Z</time>
      </trkpt>
      <trkpt lat="59.8943508" lon="17.6266645">
        <ele>34.2642</ele>
        <time>2014-05-29T12:58:40Z</time>
      </trkpt>
      <trkpt lat="59.8943756" lon="17.626697">
        <ele>34.2642</ele>
        <time>2014-05-29T12:58:41Z</time>
      </trkpt>
      <trkpt lat="59.8944011" lon="17.6267286">
        <ele>34.2642</ele>
        <time>2014-05-29T12:58:42Z</time>
      </trkpt>
      <trkpt lat="59.8944279" lon="17.626758">
        <ele>34.7449</ele>
        <time>2014-05-29T12:58:43Z</time>
      </trkpt>
      <trkpt lat="59.8944567" lon="17.6267872">
        <ele>34.7449</ele>
        <time>2014-05-29T12:58:44Z</time>
      </trkpt>
      <trkpt lat="59.8944858" lon="17.6268207">
        <ele>34.7449</ele>
        <time>2014-05-29T12:58:45Z</time>
      </trkpt>
      <trkpt lat="59.8945132" lon="17.6268596">
        <ele>35.2255</ele>
        <time>2014-05-29T12:58:46Z</time>
      </trkpt>
      <trkpt lat="59.8945413" lon="17.626895">
        <ele>35.2255</ele>
        <time>2014-05-29T12:58:47Z</time>
      </trkpt>
      <trkpt lat="59.8945714" lon="17.626924">
        <ele>35.7061</ele>
        <time>2014-05-29T12:58:48Z</time>
      </trkpt>
      <trkpt lat="59.8946009" lon="17.6269517">
        <ele>35.7061</ele>
        <time>2014-05-29T12:58:49Z</time>
      </trkpt>
      <trkpt lat="59.8946305" lon="17.6269777">
        <ele>35.7061</ele>
        <time>2014-05-29T12:58:50Z</time>
      </trkpt>
      <trkpt lat="59.8946605" lon="17.6270031">
        <ele>35.7061</ele>
        <time>2014-05-29T12:58:51Z</time>
      </trkpt>
      <trkpt lat="59.89469" lon="17.627029">
        <ele>36.1868</ele>
        <time>2014-05-29T12:58:52Z</time>
      </trkpt>
      <trkpt lat="59.8947196" lon="17.6270535">
        <ele>36.1868</ele>
        <time>2014-05-29T12:58:53Z</time>
      </trkpt>
      <trkpt lat="59.8947496" lon="17.6270751">
        <ele>36.1868</ele>
        <time>2014-05-29T12:58:54Z</time>
      </trkpt>
      <trkpt lat="59.8947794" lon="17.6270957">
        <ele>36.1868</ele>
        <time>2014-05-29T12:58:55Z</time>
      </trkpt>
      <trkpt lat="59.8948087" lon="17.6271181">
        <ele>36.6675</ele>
        <time>2014-05-29T12:58:56Z</time>
      </trkpt>
      <trkpt lat="59.894838" lon="17.6271382">
        <ele>36.6675</ele>
        <time>2014-05-29T12:58:57Z</time>
      </trkpt>
      <trkpt lat="59.8948677" lon="17.6271545">
        <ele>36.6675</ele>
        <time>2014-05-29T12:58:58Z</time>
      </trkpt>
      <trkpt lat="59.8948978" lon="17.6271708">
        <ele>36.6675</ele>
        <time>2014-05-29T12:58:59Z</time>
      </trkpt>
      <trkpt lat="59.8949276" lon="17.6271866">
        <ele>36.6675</ele>
        <time>2014-05-29T12:59:00Z</time>
      </trkpt>
      <trkpt lat="59.8949563" lon="17.6272027">
        <ele>36.6675</ele>
        <time>2014-05-29T12:59:01Z</time>
      </trkpt>
      <trkpt lat="59.8949839" lon="17.62722">
        <ele>36.6675</ele>
        <time>2014-05-29T12:59:02Z</time>
      </trkpt>
      <trkpt lat="59.895012" lon="17.6272361">
        <ele>37.1481</ele>
        <time>2014-05-29T12:59:03Z</time>
      </trkpt>
      <trkpt lat="59.8950403" lon="17.6272495">
        <ele>37.1481</ele>
        <time>2014-05-29T12:59:04Z</time>
      </trkpt>
      <trkpt lat="59.8950676" lon="17.6272616">
        <ele>37.1481</ele>
        <time>2014-05-29T12:59:05Z</time>
      </trkpt>
      <trkpt lat="59.8950932" lon="17.6272718">
        <ele>37.1481</ele>
        <time>2014-05-29T12:59:06Z</time>
      </trkpt>
      <trkpt lat="59.8951184" lon="17.6272823">
        <ele>37.1481</ele>
        <time>2014-05-29T12:59:07Z</time>
      </trkpt>
      <trkpt lat="59.8951439" lon="17.6272967">
        <ele>37.1481</ele>
        <time>2014-05-29T12:59:08Z</time>
      </trkpt>
      <trkpt lat="59.8951702" lon="17.6273128">
        <ele>37.1481</ele>
        <time>2014-05-29T12:59:09Z</time>
      </trkpt>
      <trkpt lat="59.8951961" lon="17.6273324">
        <ele>37.6287</ele>
        <time>2014-05-29T12:59:10Z</time>
      </trkpt>
      <trkpt lat="59.8952224" lon="17.6273529">
        <ele>37.6287</ele>
        <time>2014-05-29T12:59:11Z</time>
      </trkpt>
      <trkpt lat="59.89525" lon="17.6273709">
        <ele>37.6287</ele>
        <time>2014-05-29T12:59:12Z</time>
      </trkpt>
      <trkpt lat="59.8952779" lon="17.6273906">
        <ele>37.6287</ele>
        <time>2014-05-29T12:59:13Z</time>
      </trkpt>
      <trkpt lat="59.8953044" lon="17.627413">
        <ele>37.6287</ele>
        <time>2014-05-29T12:59:14Z</time>
      </trkpt>
      <trkpt lat="59.8953298" lon="17.6274358">
        <ele>37.6287</ele>
        <time>2014-05-29T12:59:15Z</time>
      </trkpt>
      <trkpt lat="59.8953546" lon="17.6274548">
        <ele>37.6287</ele>
        <time>2014-05-29T12:59:16Z</time>
      </trkpt>
      <trkpt lat="59.8953804" lon="17.6274712">
        <ele>37.6287</ele>
        <time>2014-05-29T12:59:17Z</time>
      </trkpt>
      <trkpt lat="59.8954065" lon="17.6274876">
        <ele>37.6287</ele>
        <time>2014-05-29T12:59:18Z</time>
      </trkpt>
      <trkpt lat="59.8954329" lon="17.627503">
        <ele>38.1094</ele>
        <time>2014-05-29T12:59:19Z</time>
      </trkpt>
      <trkpt lat="59.8954587" lon="17.627518">
        <ele>38.1094</ele>
        <time>2014-05-29T12:59:20Z</time>
      </trkpt>
      <trkpt lat="59.8954845" lon="17.6275329">
        <ele>38.1094</ele>
        <time>2014-05-29T12:59:21Z</time>
      </trkpt>
      <trkpt lat="59.8955106" lon="17.6275482">
        <ele>38.1094</ele>
        <time>2014-05-29T12:59:22Z</time>
      </trkpt>
      <trkpt lat="59.8955366" lon="17.627564">
        <ele>38.1094</ele>
        <time>2014-05-29T12:59:23Z</time>
      </trkpt>
      <trkpt lat="59.8955623" lon="17.6275772">
        <ele>38.1094</ele>
        <time>2014-05-29T12:59:24Z</time>
      </trkpt>
      <trkpt lat="59.8955872" lon="17.6275888">
        <ele>38.1094</ele>
        <time>2014-05-29T12:59:25Z</time>
      </trkpt>
      <trkpt lat="59.8956111" lon="17.6275987">
        <ele>37.6287</ele>
        <time>2014-05-29T12:59:26Z</time>
      </trkpt>
      <trkpt lat="59.8956363" lon="17.6276082">
        <ele>37.6287</ele>
        <time>2014-05-29T12:59:27Z</time>
      </trkpt>
      <trkpt lat="59.8956623" lon="17.6276195">
        <ele>37.6287</ele>
        <time>2014-05-29T12:59:28Z</time>
      </trkpt>
      <trkpt lat="59.8956892" lon="17.6276303">
        <ele>37.6287</ele>
        <time>2014-05-29T12:59:29Z</time>
      </trkpt>
      <trkpt lat="59.8957184" lon="17.6276397">
        <ele>37.6287</ele>
        <time>2014-05-29T12:59:30Z</time>
      </trkpt>
      <trkpt lat="59.8957503" lon="17.627649">
        <ele>37.6287</ele>
        <time>2014-05-29T12:59:31Z</time>
      </trkpt>
      <trkpt lat="59.8957835" lon="17.6276582">
        <ele>37.1481</ele>
        <time>2014-05-29T12:59:32Z</time>
      </trkpt>
      <trkpt lat="59.8958183" lon="17.6276667">
        <ele>37.1481</ele>
        <time>2014-05-29T12:59:33Z</time>
      </trkpt>
      <trkpt lat="59.8958552" lon="17.627676">
        <ele>37.1481</ele>
        <time>2014-05-29T12:59:34Z</time>
      </trkpt>
      <trkpt lat="59.8958937" lon="17.6276877">
        <ele>36.6675</ele>
        <time>2014-05-29T12:59:35Z</time>
      </trkpt>
      <trkpt lat="59.8959336" lon="17.6277018">
        <ele>36.6675</ele>
        <time>2014-05-29T12:59:36Z</time>
      </trkpt>
      <trkpt lat="59.8959748" lon="17.627719">
        <ele>36.6675</ele>
        <time>2014-05-29T12:59:37Z</time>
      </trkpt>
      <trkpt lat="59.8960167" lon="17.6277401">
        <ele>36.6675</ele>
        <time>2014-05-29T12:59:38Z</time>
      </trkpt>
      <trkpt lat="59.8960571" lon="17.6277646">
        <ele>36.1868</ele>
        <time>2014-05-29T12:59:39Z</time>
      </trkpt>
      <trkpt lat="59.8960962" lon="17.627791">
        <ele>36.1868</ele>
        <time>2014-05-29T12:59:40Z</time>
      </trkpt>
      <trkpt lat="59.8961335" lon="17.627818">
        <ele>36.1868</ele>
        <time>2014-05-29T12:59:41Z</time>
      </trkpt>
      <trkpt lat="59.8961684" lon="17.6278462">
        <ele>36.1868</ele>
        <time>2014-05-29T12:59:42Z</time>
      </trkpt>
      <trkpt lat="59.8962003" lon="17.6278747">
        <ele>36.1868</ele>
        <time>2014-05-29T12:59:43Z</time>
      </trkpt>
      <trkpt lat="59.8962286" lon="17.6279025">
        <ele>36.1868</ele>
        <time>2014-05-29T12:59:44Z</time>
      </trkpt>
      <trkpt lat="59.8962556" lon="17.6279273">
        <ele>36.1868</ele>
        <time>2014-05-29T12:59:45Z</time>
      </trkpt>
      <trkpt lat="59.8962823" lon="17.627949">
        <ele>36.1868</ele>
        <time>2014-05-29T12:59:46Z</time>
      </trkpt>
      <trkpt lat="59.8963093" lon="17.6279722">
        <ele>36.1868</ele>
        <time>2014-05-29T12:59:47Z</time>
      </trkpt>
      <trkpt lat="59.8963373" lon="17.6279972">
        <ele>36.1868</ele>
        <time>2014-05-29T12:59:48Z</time>
      </trkpt>
      <trkpt lat="59.8963646" lon="17.6280215">
        <ele>36.1868</ele>
        <time>2014-05-29T12:59:49Z</time>
      </trkpt>
      <trkpt lat="59.8963917" lon="17.6280446">
        <ele>36.1868</ele>
        <time>2014-05-29T12:59:50Z</time>
      </trkpt>
      <trkpt lat="59.8964191" lon="17.6280665">
        <ele>36.1868</ele>
        <time>2014-05-29T12:59:51Z</time>
      </trkpt>
      <trkpt lat="59.8964464" lon="17.6280884">
        <ele>36.1868</ele>
        <time>2014-05-29T12:59:52Z</time>
      </trkpt>
      <trkpt lat="59.896473" lon="17.6281143">
        <ele>36.1868</ele>
        <time>2014-05-29T12:59:53Z</time>
      </trkpt>
      <trkpt lat="59.8964992" lon="17.6281412">
        <ele>36.1868</ele>
        <time>2014-05-29T12:59:54Z</time>
      </trkpt>
      <trkpt lat="59.8965259" lon="17.6281636">
        <ele>36.1868</ele>
        <time>2014-05-29T12:59:55Z</time>
      </trkpt>
      <trkpt lat="59.8965527" lon="17.6281862">
        <ele>36.1868</ele>
        <time>2014-05-29T12:59:56Z</time>
      </trkpt>
      <trkpt lat="59.8965791" lon="17.6282106">
        <ele>36.1868</ele>
        <time>2014-05-29T12:59:57Z</time>
      </trkpt>
      <trkpt lat="59.8966061" lon="17.6282349">
        <ele>35.7061</ele>
        <time>2014-05-29T12:59:58Z</time>
      </trkpt>
      <trkpt lat="59.8966335" lon="17.6282592">
        <ele>35.7061</ele>
        <time>2014-05-29T12:59:59Z</time>
      </trkpt>
      <trkpt lat="59.8966609" lon="17.6282835">
        <ele>35.7061</ele>
        <time>2014-05-29T13:00:00Z</time>
      </trkpt>
      <trkpt lat="59.8966885" lon="17.6283083">
        <ele>35.7061</ele>
        <time>2014-05-29T13:00:01Z</time>
      </trkpt>
      <trkpt lat="59.8967163" lon="17.6283324">
        <ele>35.7061</ele>
        <time>2014-05-29T13:00:02Z</time>
      </trkpt>
      <trkpt lat="59.8967445" lon="17.6283546">
        <ele>35.7061</ele>
        <time>2014-05-29T13:00:03Z</time>
      </trkpt>
      <trkpt lat="59.8967719" lon="17.6283772">
        <ele>35.7061</ele>
        <time>2014-05-29T13:00:04Z</time>
      </trkpt>
      <trkpt lat="59.8967978" lon="17.6284018">
        <ele>35.7061</ele>
        <time>2014-05-29T13:00:05Z</time>
      </trkpt>
      <trkpt lat="59.8968222" lon="17.6284298">
        <ele>35.7061</ele>
        <time>2014-05-29T13:00:06Z</time>
      </trkpt>
      <trkpt lat="59.8968459" lon="17.6284611">
        <ele>35.7061</ele>
        <time>2014-05-29T13:00:07Z</time>
      </trkpt>
      <trkpt lat="59.8968698" lon="17.6284918">
        <ele>35.7061</ele>
        <time>2014-05-29T13:00:08Z</time>
      </trkpt>
      <trkpt lat="59.8968948" lon="17.6285214">
        <ele>35.7061</ele>
        <time>2014-05-29T13:00:09Z</time>
      </trkpt>
      <trkpt lat="59.8969189" lon="17.6285525">
        <ele>35.7061</ele>
        <time>2014-05-29T13:00:10Z</time>
      </trkpt>
      <trkpt lat="59.8969429" lon="17.628586">
        <ele>35.2255</ele>
        <time>2014-05-29T13:00:11Z</time>
      </trkpt>
      <trkpt lat="59.8969668" lon="17.6286202">
        <ele>35.2255</ele>
        <time>2014-05-29T13:00:12Z</time>
      </trkpt>
      <trkpt lat="59.8969906" lon="17.6286557">
        <ele>35.2255</ele>
        <time>2014-05-29T13:00:13Z</time>
      </trkpt>
      <trkpt lat="59.8970137" lon="17.628695">
        <ele>34.7449</ele>
        <time>2014-05-29T13:00:14Z</time>
      </trkpt>
      <trkpt lat="59.8970364" lon="17.6287359">
        <ele>34.7449</ele>
        <time>2014-05-29T13:00:15Z</time>
      </trkpt>
      <trkpt lat="59.8970599" lon="17.6287759">
        <ele>34.7449</ele>
        <time>2014-05-29T13:00:16Z</time>
      </trkpt>
      <trkpt lat="59.8970832" lon="17.6288171">
        <ele>34.7449</ele>
        <time>2014-05-29T13:00:17Z</time>
      </trkpt>
      <trkpt lat="59.8971055" lon="17.6288584">
        <ele>34.2642</ele>
        <time>2014-05-29T13:00:18Z</time>
      </trkpt>
      <trkpt lat="59.8971273" lon="17.6288995">
        <ele>34.2642</ele>
        <time>2014-05-29T13:00:19Z</time>
      </trkpt>
      <trkpt lat="59.8971485" lon="17.6289394">
        <ele>34.2642</ele>
        <time>2014-05-29T13:00:20Z</time>
      </trkpt>
      <trkpt lat="59.8971695" lon="17.6289798">
        <ele>34.2642</ele>
        <time>2014-05-29T13:00:21Z</time>
      </trkpt>
      <trkpt lat="59.897191" lon="17.6290244">
        <ele>33.7834</ele>
        <time>2014-05-29T13:00:22Z</time>
      </trkpt>
      <trkpt lat="59.8972127" lon="17.62907">
        <ele>33.7834</ele>
        <time>2014-05-29T13:00:23Z</time>
      </trkpt>
      <trkpt lat="59.8972355" lon="17.6291128">
        <ele>33.7834</ele>
        <time>2014-05-29T13:00:24Z</time>
      </trkpt>
      <trkpt lat="59.8972583" lon="17.6291542">
        <ele>33.7834</ele>
        <time>2014-05-29T13:00:25Z</time>
      </trkpt>
      <trkpt lat="59.8972816" lon="17.6291943">
        <ele>33.7834</ele>
        <time>2014-05-29T13:00:26Z</time>
      </trkpt>
      <trkpt lat="59.8973054" lon="17.6292351">
        <ele>33.3029</ele>
        <time>2014-05-29T13:00:27Z</time>
      </trkpt>
      <trkpt lat="59.8973291" lon="17.6292782">
        <ele>33.3029</ele>
        <time>2014-05-29T13:00:28Z</time>
      </trkpt>
      <trkpt lat="59.8973517" lon="17.6293254">
        <ele>33.3029</ele>
        <time>2014-05-29T13:00:29Z</time>
      </trkpt>
      <trkpt lat="59.8973736" lon="17.629376">
        <ele>33.3029</ele>
        <time>2014-05-29T13:00:30Z</time>
      </trkpt>
      <trkpt lat="59.8973957" lon="17.629427">
        <ele>32.8223</ele>
        <time>2014-05-29T13:00:31Z</time>
      </trkpt>
      <trkpt lat="59.8974189" lon="17.6294785">
        <ele>32.8223</ele>
        <time>2014-05-29T13:00:32Z</time>
      </trkpt>
      <trkpt lat="59.8974416" lon="17.6295326">
        <ele>32.8223</ele>
        <time>2014-05-29T13:00:33Z</time>
      </trkpt>
      <trkpt lat="59.8974622" lon="17.6295894">
        <ele>32.8223</ele>
        <time>2014-05-29T13:00:34Z</time>
      </trkpt>
      <trkpt lat="59.8974826" lon="17.6296441">
        <ele>32.8223</ele>
        <time>2014-05-29T13:00:35Z</time>
      </trkpt>
      <trkpt lat="59.8975034" lon="17.6296971">
        <ele>32.8223</ele>
        <time>2014-05-29T13:00:36Z</time>
      </trkpt>
      <trkpt lat="59.8975241" lon="17.6297517">
        <ele>32.3416</ele>
        <time>2014-05-29T13:00:37Z</time>
      </trkpt>
      <trkpt lat="59.8975451" lon="17.6298066">
        <ele>32.3416</ele>
        <time>2014-05-29T13:00:38Z</time>
      </trkpt>
      <trkpt lat="59.8975661" lon="17.6298621">
        <ele>32.3416</ele>
        <time>2014-05-29T13:00:39Z</time>
      </trkpt>
      <trkpt lat="59.8975866" lon="17.6299204">
        <ele>32.3416</ele>
        <time>2014-05-29T13:00:40Z</time>
      </trkpt>
      <trkpt lat="59.8976065" lon="17.6299802">
        <ele>32.3416</ele>
        <time>2014-05-29T13:00:41Z</time>
      </trkpt>
      <trkpt lat="59.8976266" lon="17.6300424">
        <ele>31.8607</ele>
        <time>2014-05-29T13:00:42Z</time>
      </trkpt>
      <trkpt lat="59.8976464" lon="17.6301063">
        <ele>31.8607</ele>
        <time>2014-05-29T13:00:43Z</time>
      </trkpt>
      <trkpt lat="59.897667" lon="17.63017">
        <ele>31.8607</ele>
        <time>2014-05-29T13:00:44Z</time>
      </trkpt>
      <trkpt lat="59.8976867" lon="17.6302348">
        <ele>31.8607</ele>
        <time>2014-05-29T13:00:45Z</time>
      </trkpt>
      <trkpt lat="59.8977054" lon="17.6303003">
        <ele>31.8607</ele>
        <time>2014-05-29T13:00:46Z</time>
      </trkpt>
      <trkpt lat="59.8977244" lon="17.630365">
        <ele>31.8607</ele>
        <time>2014-05-29T13:00:47Z</time>
      </trkpt>
      <trkpt lat="59.897744" lon="17.6304282">
        <ele>31.3801</ele>
        <time>2014-05-29T13:00:48Z</time>
      </trkpt>
      <trkpt lat="59.8977634" lon="17.6304913">
        <ele>31.3801</ele>
        <time>2014-05-29T13:00:49Z</time>
      </trkpt>
      <trkpt lat="59.897782" lon="17.6305542">
        <ele>31.3801</ele>
        <time>2014-05-29T13:00:50Z</time>
      </trkpt>
      <trkpt lat="59.8978015" lon="17.6306167">
        <ele>31.3801</ele>
        <time>2014-05-29T13:00:51Z</time>
      </trkpt>
      <trkpt lat="59.8978209" lon="17.6306793">
        <ele>31.3801</ele>
        <time>2014-05-29T13:00:52Z</time>
      </trkpt>
      <trkpt lat="59.897839" lon="17.630744">
        <ele>31.3801</ele>
        <time>2014-05-29T13:00:53Z</time>
      </trkpt>
      <trkpt lat="59.8978562" lon="17.6308084">
        <ele>31.3801</ele>
        <time>2014-05-29T13:00:54Z</time>
      </trkpt>
      <trkpt lat="59.8978736" lon="17.6308726">
        <ele>31.3801</ele>
        <time>2014-05-29T13:00:55Z</time>
      </trkpt>
      <trkpt lat="59.8978887" lon="17.6309385">
        <ele>31.3801</ele>
        <time>2014-05-29T13:00:56Z</time>
      </trkpt>
      <trkpt lat="59.8978991" lon="17.6310083">
        <ele>30.8995</ele>
        <time>2014-05-29T13:00:57Z</time>
      </trkpt>
      <trkpt lat="59.8979084" lon="17.6310787">
        <ele>30.8995</ele>
        <time>2014-05-29T13:00:58Z</time>
      </trkpt>
      <trkpt lat="59.8979196" lon="17.6311492">
        <ele>30.8995</ele>
        <time>2014-05-29T13:00:59Z</time>
      </trkpt>
      <trkpt lat="59.8979318" lon="17.6312204">
        <ele>30.8995</ele>
        <time>2014-05-29T13:01:00Z</time>
      </trkpt>
      <trkpt lat="59.8979445" lon="17.6312943">
        <ele>30.4188</ele>
        <time>2014-05-29T13:01:01Z</time>
      </trkpt>
      <trkpt lat="59.8979582" lon="17.6313716">
        <ele>30.4188</ele>
        <time>2014-05-29T13:01:02Z</time>
      </trkpt>
      <trkpt lat="59.8979716" lon="17.6314574">
        <ele>29.9381</ele>
        <time>2014-05-29T13:01:03Z</time>
      </trkpt>
      <trkpt lat="59.8979834" lon="17.6315461">
        <ele>29.9381</ele>
        <time>2014-05-29T13:01:04Z</time>
      </trkpt>
      <trkpt lat="59.897996" lon="17.6316331">
        <ele>29.4575</ele>
        <time>2014-05-29T13:01:05Z</time>
      </trkpt>
      <trkpt lat="59.89801" lon="17.6317191">
        <ele>29.4575</ele>
        <time>2014-05-29T13:01:06Z</time>
      </trkpt>
      <trkpt lat="59.8980248" lon="17.6318039">
        <ele>28.9769</ele>
        <time>2014-05-29T13:01:07Z</time>
      </trkpt>
      <trkpt lat="59.8980412" lon="17.6318849">
        <ele>28.9769</ele>
        <time>2014-05-29T13:01:08Z</time>
      </trkpt>
      <trkpt lat="59.8980595" lon="17.631961">
        <ele>28.9769</ele>
        <time>2014-05-29T13:01:09Z</time>
      </trkpt>
      <trkpt lat="59.8980799" lon="17.6320283">
        <ele>28.9769</ele>
        <time>2014-05-29T13:01:10Z</time>
      </trkpt>
      <trkpt lat="59.8981031" lon="17.6320858">
        <ele>28.9769</ele>
        <time>2014-05-29T13:01:11Z</time>
      </trkpt>
      <trkpt lat="59.8981281" lon="17.6321351">
        <ele>28.9769</ele>
        <time>2014-05-29T13:01:12Z</time>
      </trkpt>
      <trkpt lat="59.8981554" lon="17.6321775">
        <ele>29.4575</ele>
        <time>2014-05-29T13:01:13Z</time>
      </trkpt>
      <trkpt lat="59.8981826" lon="17.6322191">
        <ele>29.4575</ele>
        <time>2014-05-29T13:01:14Z</time>
      </trkpt>
      <trkpt lat="59.8982088" lon="17.6322604">
        <ele>29.9381</ele>
        <time>2014-05-29T13:01:15Z</time>
      </trkpt>
      <trkpt lat="59.8982348" lon="17.6323006">
        <ele>29.9381</ele>
        <time>2014-05-29T13:01:16Z</time>
      </trkpt>
      <trkpt lat="59.8982622" lon="17.6323375">
        <ele>29.9381</ele>
        <time>2014-05-29T13:01:17Z</time>
      </trkpt>
      <trkpt lat="59.8982914" lon="17.6323711">
        <ele>29.9381</ele>
        <time>2014-05-29T13:01:18Z</time>
      </trkpt>
      <trkpt lat="59.8983204" lon="17.6324054">
        <ele>30.4188</ele>
        <time>2014-05-29T13:01:19Z</time>
      </trkpt>
      <trkpt lat="59.8983498" lon="17.6324359">
        <ele>30.4188</ele>
        <time>2014-05-29T13:01:20Z</time>
      </trkpt>
      <trkpt lat="59.8983798" lon="17.6324598">
        <ele>30.8995</ele>
        <time>2014-05-29T13:01:21Z</time>
      </trkpt>
      <trkpt lat="59.8984113" lon="17.6324767">
        <ele>30.8995</ele>
        <time>2014-05-29T13:01:22Z</time>
      </trkpt>
      <trkpt lat="59.8984431" lon="17.6324863">
        <ele>31.3801</ele>
        <time>2014-05-29T13:01:23Z</time>
      </trkpt>
      <trkpt lat="59.8984745" lon="17.6324856">
        <ele>31.3801</ele>
        <time>2014-05-29T13:01:24Z</time>
      </trkpt>
      <trkpt lat="59.8985053" lon="17.6324759">
        <ele>31.8607</ele>
        <time>2014-05-29T13:01:25Z</time>
      </trkpt>
      <trkpt lat="59.8985359" lon="17.6324599">
        <ele>31.8607</ele>
        <time>2014-05-29T13:01:26Z</time>
      </trkpt>
      <trkpt lat="59.8985664" lon="17.6324448">
        <ele>32.3416</ele>
        <time>2014-05-29T13:01:27Z</time>
      </trkpt>
      <trkpt lat="59.8985954" lon="17.6324346">
        <ele>32.8223</ele>
        <time>2014-05-29T13:01:28Z</time>
      </trkpt>
      <trkpt lat="59.8986474" lon="17.6324099">
        <ele>33.3029</ele>
        <time>2014-05-29T13:01:29Z</time>
      </trkpt>
      <trkpt lat="59.8986719" lon="17.632407">
        <ele>33.7834</ele>
        <time>2014-05-29T13:01:30Z</time>
      </trkpt>
      <trkpt lat="59.8986954" lon="17.6324189">
        <ele>33.7834</ele>
        <time>2014-05-29T13:01:31Z</time>
      </trkpt>
      <trkpt lat="59.898717" lon="17.6324394">
        <ele>34.2642</ele>
        <time>2014-05-29T13:01:32Z</time>
      </trkpt>
      <trkpt lat="59.8987383" lon="17.6324581">
        <ele>34.2642</ele>
        <time>2014-05-29T13:01:33Z</time>
      </trkpt>
      <trkpt lat="59.8987595" lon="17.6324723">
        <ele>34.2642</ele>
        <time>2014-05-29T13:01:34Z</time>
      </trkpt>
      <trkpt lat="59.8987792" lon="17.6324853">
        <ele>34.2642</ele>
        <time>2014-05-29T13:01:35Z</time>
      </trkpt>
      <trkpt lat="59.8987984" lon="17.632497">
        <ele>34.7449</ele>
        <time>2014-05-29T13:01:36Z</time>
      </trkpt>
      <trkpt lat="59.8988178" lon="17.6325065">
        <ele>34.2642</ele>
        <time>2014-05-29T13:01:37Z</time>
      </trkpt>
      <trkpt lat="59.8988357" lon="17.632519">
        <ele>34.7449</ele>
        <time>2014-05-29T13:01:38Z</time>
      </trkpt>
      <trkpt lat="59.8988489" lon="17.632533">
        <ele>34.2642</ele>
        <time>2014-05-29T13:01:39Z</time>
      </trkpt>
      <trkpt lat="59.8988573" lon="17.6325418">
        <ele>34.2642</ele>
        <time>2014-05-29T13:01:40Z</time>
      </trkpt>
      <trkpt lat="59.8988605" lon="17.6325457">
        <ele>34.7449</ele>
        <time>2014-05-29T13:01:41Z</time>
      </trkpt>
      <trkpt lat="59.8988605" lon="17.6325504">
        <ele>34.7449</ele>
        <time>2014-05-29T13:01:42Z</time>
      </trkpt>
    </trkseg>
  </trk>
</gpx>